<?xml version="1.0" encoding="utf-8"?>
<gpx xmlns:xsi="http://www.w3.org/2001/XMLSchema-instance" xmlns:xsd="http://www.w3.org/2001/XMLSchema" version="1.1" creator="Shapelink.com" xmlns="http://www.topografix.com/GPX/1/1" xmlns:gpxtpx="http://www.garmin.com/xmlschemas/TrackPointExtension/v1">
  <metadata>
    <name>Löpning 32.21 km, 2017-10-18</name>
    <desc></desc>
    <author><name>Bengt-Åke Forslund</name></author> 
    <time>2017-10-18T18:01:42Z</time>
  </metadata>
  <trk>
    <name>Löpning 32.21 km, 2017-10-18</name>
    <trkseg>
      <trkpt lat="62.643126844643" lon="17.912063805994">
        <ele>42.6</ele>
        <time>2017-10-18T18:01:42Z</time>
      </trkpt>
      <trkpt lat="62.643276629196" lon="17.911905220446">
        <ele>42.6</ele>
        <time>2017-10-18T18:02:41Z</time>
      </trkpt>
      <trkpt lat="62.643300685249" lon="17.911896754727">
        <ele>42.6</ele>
        <time>2017-10-18T18:02:42Z</time>
      </trkpt>
      <trkpt lat="62.643330692451" lon="17.911888540465">
        <ele>42.6</ele>
        <time>2017-10-18T18:02:43Z</time>
      </trkpt>
      <trkpt lat="62.643356341065" lon="17.911873369226">
        <ele>42.6</ele>
        <time>2017-10-18T18:02:44Z</time>
      </trkpt>
      <trkpt lat="62.643383917516" lon="17.911848558802">
        <ele>42.6</ele>
        <time>2017-10-18T18:02:45Z</time>
      </trkpt>
      <trkpt lat="62.643402944429" lon="17.911823161645">
        <ele>42.6</ele>
        <time>2017-10-18T18:02:46Z</time>
      </trkpt>
      <trkpt lat="62.643426916663" lon="17.911787203294">
        <ele>42.8</ele>
        <time>2017-10-18T18:02:47Z</time>
      </trkpt>
      <trkpt lat="62.64345315201" lon="17.911749568563">
        <ele>42.8</ele>
        <time>2017-10-18T18:02:48Z</time>
      </trkpt>
      <trkpt lat="62.643472178923" lon="17.911713274936">
        <ele>43</ele>
        <time>2017-10-18T18:02:49Z</time>
      </trkpt>
      <trkpt lat="62.643497827537" lon="17.911672957997">
        <ele>43</ele>
        <time>2017-10-18T18:02:50Z</time>
      </trkpt>
      <trkpt lat="62.643527164187" lon="17.911636748189">
        <ele>43.2</ele>
        <time>2017-10-18T18:02:51Z</time>
      </trkpt>
      <trkpt lat="62.643557171389" lon="17.911600370743">
        <ele>43.2</ele>
        <time>2017-10-18T18:02:52Z</time>
      </trkpt>
      <trkpt lat="62.643582149451" lon="17.911557287777">
        <ele>43.4</ele>
        <time>2017-10-18T18:02:53Z</time>
      </trkpt>
      <trkpt lat="62.643608552436" lon="17.911513282802">
        <ele>43.4</ele>
        <time>2017-10-18T18:02:54Z</time>
      </trkpt>
      <trkpt lat="62.643635374516" lon="17.911467182352">
        <ele>43.6</ele>
        <time>2017-10-18T18:02:55Z</time>
      </trkpt>
      <trkpt lat="62.643665465537" lon="17.911418315875">
        <ele>43.6</ele>
        <time>2017-10-18T18:02:56Z</time>
      </trkpt>
      <trkpt lat="62.643694718368" lon="17.911369700855">
        <ele>43.6</ele>
        <time>2017-10-18T18:02:57Z</time>
      </trkpt>
      <trkpt lat="62.643725982855" lon="17.911320415283">
        <ele>43.8</ele>
        <time>2017-10-18T18:02:58Z</time>
      </trkpt>
      <trkpt lat="62.643752553478" lon="17.911282780552">
        <ele>43.8</ele>
        <time>2017-10-18T18:02:59Z</time>
      </trkpt>
      <trkpt lat="62.643785410526" lon="17.911239446129">
        <ele>44</ele>
        <time>2017-10-18T18:03:00Z</time>
      </trkpt>
      <trkpt lat="62.643815082452" lon="17.91119996738">
        <ele>44</ele>
        <time>2017-10-18T18:03:01Z</time>
      </trkpt>
      <trkpt lat="62.643846430758" lon="17.911161075364">
        <ele>44.2</ele>
        <time>2017-10-18T18:03:02Z</time>
      </trkpt>
      <trkpt lat="62.64387727615" lon="17.911122350986">
        <ele>44.2</ele>
        <time>2017-10-18T18:03:03Z</time>
      </trkpt>
      <trkpt lat="62.643905104058" lon="17.911085051531">
        <ele>44.4</ele>
        <time>2017-10-18T18:03:04Z</time>
      </trkpt>
      <trkpt lat="62.643932848147" lon="17.911033838122">
        <ele>44.4</ele>
        <time>2017-10-18T18:03:05Z</time>
      </trkpt>
      <trkpt lat="62.643961849521" lon="17.91097365608">
        <ele>44.6</ele>
        <time>2017-10-18T18:03:06Z</time>
      </trkpt>
      <trkpt lat="62.643987414316" lon="17.910916156246">
        <ele>44.8</ele>
        <time>2017-10-18T18:03:07Z</time>
      </trkpt>
      <trkpt lat="62.644012308559" lon="17.910858237317">
        <ele>45</ele>
        <time>2017-10-18T18:03:08Z</time>
      </trkpt>
      <trkpt lat="62.644036113155" lon="17.910807107727">
        <ele>45</ele>
        <time>2017-10-18T18:03:09Z</time>
      </trkpt>
      <trkpt lat="62.644062097045" lon="17.910755642861">
        <ele>45.2</ele>
        <time>2017-10-18T18:03:10Z</time>
      </trkpt>
      <trkpt lat="62.644085314908" lon="17.910698897398">
        <ele>45.2</ele>
        <time>2017-10-18T18:03:11Z</time>
      </trkpt>
      <trkpt lat="62.644112891359" lon="17.910640978469">
        <ele>45.4</ele>
        <time>2017-10-18T18:03:12Z</time>
      </trkpt>
      <trkpt lat="62.644139797258" lon="17.910582137531">
        <ele>45.4</ele>
        <time>2017-10-18T18:03:13Z</time>
      </trkpt>
      <trkpt lat="62.64416728989" lon="17.910522626041">
        <ele>45.6</ele>
        <time>2017-10-18T18:03:14Z</time>
      </trkpt>
      <trkpt lat="62.644203080603" lon="17.910459510334">
        <ele>45.6</ele>
        <time>2017-10-18T18:03:15Z</time>
      </trkpt>
      <trkpt lat="62.644234261271" lon="17.910391616944">
        <ele>45.6</ele>
        <time>2017-10-18T18:03:16Z</time>
      </trkpt>
      <trkpt lat="62.644261502446" lon="17.910324729382">
        <ele>45.6</ele>
        <time>2017-10-18T18:03:17Z</time>
      </trkpt>
      <trkpt lat="62.64429804753" lon="17.910256668354">
        <ele>45.6</ele>
        <time>2017-10-18T18:03:18Z</time>
      </trkpt>
      <trkpt lat="62.644336688089" lon="17.91021006499">
        <ele>45.4</ele>
        <time>2017-10-18T18:03:19Z</time>
      </trkpt>
      <trkpt lat="62.644374909553" lon="17.910144099437">
        <ele>45.4</ele>
        <time>2017-10-18T18:03:20Z</time>
      </trkpt>
      <trkpt lat="62.64440030671" lon="17.9100583526">
        <ele>45.4</ele>
        <time>2017-10-18T18:03:21Z</time>
      </trkpt>
      <trkpt lat="62.644417657243" lon="17.909967576623">
        <ele>45.4</ele>
        <time>2017-10-18T18:03:22Z</time>
      </trkpt>
      <trkpt lat="62.644433582853" lon="17.909884260537">
        <ele>45.2</ele>
        <time>2017-10-18T18:03:23Z</time>
      </trkpt>
      <trkpt lat="62.644450179015" lon="17.909813349663">
        <ele>45.4</ele>
        <time>2017-10-18T18:03:24Z</time>
      </trkpt>
      <trkpt lat="62.644472642507" lon="17.909720478211">
        <ele>45.6</ele>
        <time>2017-10-18T18:03:25Z</time>
      </trkpt>
      <trkpt lat="62.644485718271" lon="17.909629953691">
        <ele>45.6</ele>
        <time>2017-10-18T18:03:26Z</time>
      </trkpt>
      <trkpt lat="62.644497620569" lon="17.909540015904">
        <ele>45.8</ele>
        <time>2017-10-18T18:03:27Z</time>
      </trkpt>
      <trkpt lat="62.644511199247" lon="17.909452173592">
        <ele>46.2</ele>
        <time>2017-10-18T18:03:28Z</time>
      </trkpt>
      <trkpt lat="62.644520754613" lon="17.909371120619">
        <ele>46.2</ele>
        <time>2017-10-18T18:03:29Z</time>
      </trkpt>
      <trkpt lat="62.644530309979" lon="17.909265508679">
        <ele>46.4</ele>
        <time>2017-10-18T18:03:30Z</time>
      </trkpt>
      <trkpt lat="62.644536009671" lon="17.909168613915">
        <ele>46.4</ele>
        <time>2017-10-18T18:03:31Z</time>
      </trkpt>
      <trkpt lat="62.644542966648" lon="17.909072473522">
        <ele>46.6</ele>
        <time>2017-10-18T18:03:32Z</time>
      </trkpt>
      <trkpt lat="62.644547911969" lon="17.908976416948">
        <ele>46.6</ele>
        <time>2017-10-18T18:03:33Z</time>
      </trkpt>
      <trkpt lat="62.644550175082" lon="17.908878767813">
        <ele>46.8</ele>
        <time>2017-10-18T18:03:34Z</time>
      </trkpt>
      <trkpt lat="62.644550761815" lon="17.908770808941">
        <ele>46.8</ele>
        <time>2017-10-18T18:03:35Z</time>
      </trkpt>
      <trkpt lat="62.644546738503" lon="17.908648014106">
        <ele>46.8</ele>
        <time>2017-10-18T18:03:36Z</time>
      </trkpt>
      <trkpt lat="62.644538524241" lon="17.908530416049">
        <ele>46.6</ele>
        <time>2017-10-18T18:03:37Z</time>
      </trkpt>
      <trkpt lat="62.644524777925" lon="17.908407872671">
        <ele>46.6</ele>
        <time>2017-10-18T18:03:38Z</time>
      </trkpt>
      <trkpt lat="62.644507175935" lon="17.908289604062">
        <ele>46.4</ele>
        <time>2017-10-18T18:03:39Z</time>
      </trkpt>
      <trkpt lat="62.644484628624" lon="17.908157840594">
        <ele>46.2</ele>
        <time>2017-10-18T18:03:40Z</time>
      </trkpt>
      <trkpt lat="62.644459399105" lon="17.908029765162">
        <ele>45.8</ele>
        <time>2017-10-18T18:03:41Z</time>
      </trkpt>
      <trkpt lat="62.644428218437" lon="17.907893810744">
        <ele>45.6</ele>
        <time>2017-10-18T18:03:42Z</time>
      </trkpt>
      <trkpt lat="62.644391170439" lon="17.907768333701">
        <ele>45.2</ele>
        <time>2017-10-18T18:03:43Z</time>
      </trkpt>
      <trkpt lat="62.644354457717" lon="17.907651322377">
        <ele>44.8</ele>
        <time>2017-10-18T18:03:44Z</time>
      </trkpt>
      <trkpt lat="62.64431984047" lon="17.907526683524">
        <ele>44.4</ele>
        <time>2017-10-18T18:03:45Z</time>
      </trkpt>
      <trkpt lat="62.644283127748" lon="17.907383772129">
        <ele>44.2</ele>
        <time>2017-10-18T18:03:46Z</time>
      </trkpt>
      <trkpt lat="62.644248845777" lon="17.907262486036">
        <ele>44</ele>
        <time>2017-10-18T18:03:47Z</time>
      </trkpt>
      <trkpt lat="62.644206433363" lon="17.907159304847">
        <ele>43.8</ele>
        <time>2017-10-18T18:03:48Z</time>
      </trkpt>
      <trkpt lat="62.644169133908" lon="17.907052854717">
        <ele>43.6</ele>
        <time>2017-10-18T18:03:49Z</time>
      </trkpt>
      <trkpt lat="62.644130158073" lon="17.906932155357">
        <ele>43.6</ele>
        <time>2017-10-18T18:03:50Z</time>
      </trkpt>
      <trkpt lat="62.644093361532" lon="17.906818329155">
        <ele>43.6</ele>
        <time>2017-10-18T18:03:51Z</time>
      </trkpt>
      <trkpt lat="62.644056313534" lon="17.906707855713">
        <ele>43.8</ele>
        <time>2017-10-18T18:03:52Z</time>
      </trkpt>
      <trkpt lat="62.644022031563" lon="17.906607692008">
        <ele>43.8</ele>
        <time>2017-10-18T18:03:53Z</time>
      </trkpt>
      <trkpt lat="62.643985067384" lon="17.906502080068">
        <ele>44</ele>
        <time>2017-10-18T18:03:54Z</time>
      </trkpt>
      <trkpt lat="62.643948019386" lon="17.90639881506">
        <ele>44</ele>
        <time>2017-10-18T18:03:55Z</time>
      </trkpt>
      <trkpt lat="62.643908121542" lon="17.906291442921">
        <ele>44.2</ele>
        <time>2017-10-18T18:03:56Z</time>
      </trkpt>
      <trkpt lat="62.643871157363" lon="17.906191363035">
        <ele>44.4</ele>
        <time>2017-10-18T18:03:57Z</time>
      </trkpt>
      <trkpt lat="62.643836875392" lon="17.906090528778">
        <ele>44.4</ele>
        <time>2017-10-18T18:03:58Z</time>
      </trkpt>
      <trkpt lat="62.643807790199" lon="17.906005871588">
        <ele>44.4</ele>
        <time>2017-10-18T18:03:59Z</time>
      </trkpt>
      <trkpt lat="62.64376831145" lon="17.905899924372">
        <ele>44.6</ele>
        <time>2017-10-18T18:04:00Z</time>
      </trkpt>
      <trkpt lat="62.643734113298" lon="17.905803197246">
        <ele>44.4</ele>
        <time>2017-10-18T18:04:01Z</time>
      </trkpt>
      <trkpt lat="62.643700669517" lon="17.905709655242">
        <ele>44.6</ele>
        <time>2017-10-18T18:04:02Z</time>
      </trkpt>
      <trkpt lat="62.643664459709" lon="17.905612089926">
        <ele>44.6</ele>
        <time>2017-10-18T18:04:03Z</time>
      </trkpt>
      <trkpt lat="62.643629926281" lon="17.905526007813">
        <ele>44.8</ele>
        <time>2017-10-18T18:04:04Z</time>
      </trkpt>
      <trkpt lat="62.64359396793" lon="17.905438752234">
        <ele>44.8</ele>
        <time>2017-10-18T18:04:05Z</time>
      </trkpt>
      <trkpt lat="62.643556165561" lon="17.905346551334">
        <ele>44.8</ele>
        <time>2017-10-18T18:04:06Z</time>
      </trkpt>
      <trkpt lat="62.643521799771" lon="17.905254853348">
        <ele>44.8</ele>
        <time>2017-10-18T18:04:07Z</time>
      </trkpt>
      <trkpt lat="62.64348835599" lon="17.905158545317">
        <ele>44.6</ele>
        <time>2017-10-18T18:04:08Z</time>
      </trkpt>
      <trkpt lat="62.643455834218" lon="17.905066428236">
        <ele>44.6</ele>
        <time>2017-10-18T18:04:09Z</time>
      </trkpt>
      <trkpt lat="62.643418534763" lon="17.904964252875">
        <ele>44.6</ele>
        <time>2017-10-18T18:04:10Z</time>
      </trkpt>
      <trkpt lat="62.643379642747" lon="17.904860484953">
        <ele>44.4</ele>
        <time>2017-10-18T18:04:11Z</time>
      </trkpt>
      <trkpt lat="62.643336895057" lon="17.904749005683">
        <ele>44.2</ele>
        <time>2017-10-18T18:04:12Z</time>
      </trkpt>
      <trkpt lat="62.643301355801" lon="17.904631659083">
        <ele>44.2</ele>
        <time>2017-10-18T18:04:13Z</time>
      </trkpt>
      <trkpt lat="62.643273444074" lon="17.904518671071">
        <ele>44</ele>
        <time>2017-10-18T18:04:14Z</time>
      </trkpt>
      <trkpt lat="62.643248549831" lon="17.90439135001">
        <ele>43.8</ele>
        <time>2017-10-18T18:04:15Z</time>
      </trkpt>
      <trkpt lat="62.643227343624" lon="17.904262939302">
        <ele>43.8</ele>
        <time>2017-10-18T18:04:16Z</time>
      </trkpt>
      <trkpt lat="62.643207897616" lon="17.904147352901">
        <ele>43.8</ele>
        <time>2017-10-18T18:04:17Z</time>
      </trkpt>
      <trkpt lat="62.643186272314" lon="17.904013829234">
        <ele>43.8</ele>
        <time>2017-10-18T18:04:18Z</time>
      </trkpt>
      <trkpt lat="62.643169676152" lon="17.903894806254">
        <ele>43.8</ele>
        <time>2017-10-18T18:04:19Z</time>
      </trkpt>
      <trkpt lat="62.643154421094" lon="17.903750553755">
        <ele>43.8</ele>
        <time>2017-10-18T18:04:20Z</time>
      </trkpt>
      <trkpt lat="62.643143273167" lon="17.903616610993">
        <ele>43.8</ele>
        <time>2017-10-18T18:04:21Z</time>
      </trkpt>
      <trkpt lat="62.643131706145" lon="17.903477890548">
        <ele>44</ele>
        <time>2017-10-18T18:04:22Z</time>
      </trkpt>
      <trkpt lat="62.643122318417" lon="17.903343025777">
        <ele>43.8</ele>
        <time>2017-10-18T18:04:23Z</time>
      </trkpt>
      <trkpt lat="62.643115780535" lon="17.903198857097">
        <ele>43.8</ele>
        <time>2017-10-18T18:04:24Z</time>
      </trkpt>
      <trkpt lat="62.643115026164" lon="17.903085533809">
        <ele>43.6</ele>
        <time>2017-10-18T18:04:25Z</time>
      </trkpt>
      <trkpt lat="62.643117373096" lon="17.902896270507">
        <ele>43.4</ele>
        <time>2017-10-18T18:04:26Z</time>
      </trkpt>
      <trkpt lat="62.643121647865" lon="17.902751431275">
        <ele>43.2</ele>
        <time>2017-10-18T18:04:27Z</time>
      </trkpt>
      <trkpt lat="62.643123910978" lon="17.902607346414">
        <ele>43</ele>
        <time>2017-10-18T18:04:28Z</time>
      </trkpt>
      <trkpt lat="62.643123491883" lon="17.90248530595">
        <ele>43</ele>
        <time>2017-10-18T18:04:29Z</time>
      </trkpt>
      <trkpt lat="62.64312458153" lon="17.902329486429">
        <ele>42.8</ele>
        <time>2017-10-18T18:04:30Z</time>
      </trkpt>
      <trkpt lat="62.643124916806" lon="17.902193112916">
        <ele>42.6</ele>
        <time>2017-10-18T18:04:31Z</time>
      </trkpt>
      <trkpt lat="62.643129107756" lon="17.902061265629">
        <ele>42.6</ele>
        <time>2017-10-18T18:04:32Z</time>
      </trkpt>
      <trkpt lat="62.643134304534" lon="17.901928412514">
        <ele>42.6</ele>
        <time>2017-10-18T18:04:33Z</time>
      </trkpt>
      <trkpt lat="62.643138327846" lon="17.901807042602">
        <ele>42.6</ele>
        <time>2017-10-18T18:04:34Z</time>
      </trkpt>
      <trkpt lat="62.643144614271" lon="17.901678715713">
        <ele>42.6</ele>
        <time>2017-10-18T18:04:35Z</time>
      </trkpt>
      <trkpt lat="62.643148218488" lon="17.901548796263">
        <ele>42.6</ele>
        <time>2017-10-18T18:04:36Z</time>
      </trkpt>
      <trkpt lat="62.6431522418" lon="17.901430360016">
        <ele>42.6</ele>
        <time>2017-10-18T18:04:37Z</time>
      </trkpt>
      <trkpt lat="62.643155678379" lon="17.901314522158">
        <ele>42.8</ele>
        <time>2017-10-18T18:04:38Z</time>
      </trkpt>
      <trkpt lat="62.643159617872" lon="17.901208658761">
        <ele>42.8</ele>
        <time>2017-10-18T18:04:39Z</time>
      </trkpt>
      <trkpt lat="62.643164144098" lon="17.901099107328">
        <ele>42.8</ele>
        <time>2017-10-18T18:04:40Z</time>
      </trkpt>
      <trkpt lat="62.64316984379" lon="17.900987711877">
        <ele>43</ele>
        <time>2017-10-18T18:04:41Z</time>
      </trkpt>
      <trkpt lat="62.64317654931" lon="17.90087095201">
        <ele>43.2</ele>
        <time>2017-10-18T18:04:42Z</time>
      </trkpt>
      <trkpt lat="62.643182081364" lon="17.900756371437">
        <ele>43.2</ele>
        <time>2017-10-18T18:04:43Z</time>
      </trkpt>
      <trkpt lat="62.64318744578" lon="17.90064380252">
        <ele>43.2</ele>
        <time>2017-10-18T18:04:44Z</time>
      </trkpt>
      <trkpt lat="62.643193061653" lon="17.900510697948">
        <ele>43.2</ele>
        <time>2017-10-18T18:04:45Z</time>
      </trkpt>
      <trkpt lat="62.643197755517" lon="17.900376168453">
        <ele>43.2</ele>
        <time>2017-10-18T18:04:46Z</time>
      </trkpt>
      <trkpt lat="62.643201611191" lon="17.900241638958">
        <ele>43</ele>
        <time>2017-10-18T18:04:47Z</time>
      </trkpt>
      <trkpt lat="62.643207227064" lon="17.90007886246">
        <ele>42.8</ele>
        <time>2017-10-18T18:04:48Z</time>
      </trkpt>
      <trkpt lat="62.643211920928" lon="17.899932598305">
        <ele>42.4</ele>
        <time>2017-10-18T18:04:49Z</time>
      </trkpt>
      <trkpt lat="62.643217872077" lon="17.899779880087">
        <ele>42</ele>
        <time>2017-10-18T18:04:50Z</time>
      </trkpt>
      <trkpt lat="62.643222901217" lon="17.899642081651">
        <ele>41.8</ele>
        <time>2017-10-18T18:04:51Z</time>
      </trkpt>
      <trkpt lat="62.643226170158" lon="17.899505624319">
        <ele>41.6</ele>
        <time>2017-10-18T18:04:52Z</time>
      </trkpt>
      <trkpt lat="62.643230696384" lon="17.89938316476">
        <ele>41.4</ele>
        <time>2017-10-18T18:04:53Z</time>
      </trkpt>
      <trkpt lat="62.643234635877" lon="17.899254586414">
        <ele>41.4</ele>
        <time>2017-10-18T18:04:54Z</time>
      </trkpt>
      <trkpt lat="62.643239497379" lon="17.899128271181">
        <ele>41.6</ele>
        <time>2017-10-18T18:04:55Z</time>
      </trkpt>
      <trkpt lat="62.643245364709" lon="17.898998519369">
        <ele>41.6</ele>
        <time>2017-10-18T18:04:56Z</time>
      </trkpt>
      <trkpt lat="62.643248130736" lon="17.898873712878">
        <ele>41.8</ele>
        <time>2017-10-18T18:04:57Z</time>
      </trkpt>
      <trkpt lat="62.643250393849" lon="17.898749996034">
        <ele>42</ele>
        <time>2017-10-18T18:04:58Z</time>
      </trkpt>
      <trkpt lat="62.643253411333" lon="17.898641031334">
        <ele>42</ele>
        <time>2017-10-18T18:04:59Z</time>
      </trkpt>
      <trkpt lat="62.643260284491" lon="17.898505244554">
        <ele>42.2</ele>
        <time>2017-10-18T18:05:00Z</time>
      </trkpt>
      <trkpt lat="62.643268079658" lon="17.898385886298">
        <ele>42.2</ele>
        <time>2017-10-18T18:05:01Z</time>
      </trkpt>
      <trkpt lat="62.643273360255" lon="17.898265941309">
        <ele>42.2</ele>
        <time>2017-10-18T18:05:02Z</time>
      </trkpt>
      <trkpt lat="62.643275791006" lon="17.898146163958">
        <ele>42.2</ele>
        <time>2017-10-18T18:05:03Z</time>
      </trkpt>
      <trkpt lat="62.643278305576" lon="17.898035439059">
        <ele>42.2</ele>
        <time>2017-10-18T18:05:04Z</time>
      </trkpt>
      <trkpt lat="62.643280317232" lon="17.897915745527">
        <ele>42.2</ele>
        <time>2017-10-18T18:05:05Z</time>
      </trkpt>
      <trkpt lat="62.643281574517" lon="17.897791022855">
        <ele>42.4</ele>
        <time>2017-10-18T18:05:06Z</time>
      </trkpt>
      <trkpt lat="62.643283921449" lon="17.897671413142">
        <ele>42.4</ele>
        <time>2017-10-18T18:05:07Z</time>
      </trkpt>
      <trkpt lat="62.643289788779" lon="17.897552976895">
        <ele>42.4</ele>
        <time>2017-10-18T18:05:08Z</time>
      </trkpt>
      <trkpt lat="62.643295656109" lon="17.897445353299">
        <ele>42.4</ele>
        <time>2017-10-18T18:05:09Z</time>
      </trkpt>
      <trkpt lat="62.643296913394" lon="17.89732708469">
        <ele>42.4</ele>
        <time>2017-10-18T18:05:10Z</time>
      </trkpt>
      <trkpt lat="62.64329389591" lon="17.897206804425">
        <ele>42.4</ele>
        <time>2017-10-18T18:05:11Z</time>
      </trkpt>
      <trkpt lat="62.643287525666" lon="17.897080321554">
        <ele>42.6</ele>
        <time>2017-10-18T18:05:12Z</time>
      </trkpt>
      <trkpt lat="62.643285681648" lon="17.896957359081">
        <ele>42.6</ele>
        <time>2017-10-18T18:05:13Z</time>
      </trkpt>
      <trkpt lat="62.643288615313" lon="17.896835570074">
        <ele>42.6</ele>
        <time>2017-10-18T18:05:14Z</time>
      </trkpt>
      <trkpt lat="62.643290962245" lon="17.896711517954">
        <ele>42.6</ele>
        <time>2017-10-18T18:05:15Z</time>
      </trkpt>
      <trkpt lat="62.643294063548" lon="17.896589309852">
        <ele>42.6</ele>
        <time>2017-10-18T18:05:16Z</time>
      </trkpt>
      <trkpt lat="62.643296997213" lon="17.89647799822">
        <ele>42.6</ele>
        <time>2017-10-18T18:05:17Z</time>
      </trkpt>
      <trkpt lat="62.643297332489" lon="17.896354700471">
        <ele>42.6</ele>
        <time>2017-10-18T18:05:18Z</time>
      </trkpt>
      <trkpt lat="62.643295404652" lon="17.896245149038">
        <ele>42.6</ele>
        <time>2017-10-18T18:05:19Z</time>
      </trkpt>
      <trkpt lat="62.64328886677" lon="17.896120594004">
        <ele>42.4</ele>
        <time>2017-10-18T18:05:20Z</time>
      </trkpt>
      <trkpt lat="62.643279395223" lon="17.895999475549">
        <ele>42.6</ele>
        <time>2017-10-18T18:05:21Z</time>
      </trkpt>
      <trkpt lat="62.643269253124" lon="17.895878776189">
        <ele>42.4</ele>
        <time>2017-10-18T18:05:22Z</time>
      </trkpt>
      <trkpt lat="62.643262631423" lon="17.895764614711">
        <ele>42.4</ele>
        <time>2017-10-18T18:05:23Z</time>
      </trkpt>
      <trkpt lat="62.64325869193" lon="17.895639975858">
        <ele>42.4</ele>
        <time>2017-10-18T18:05:24Z</time>
      </trkpt>
      <trkpt lat="62.64325450098" lon="17.89551659429">
        <ele>42.6</ele>
        <time>2017-10-18T18:05:25Z</time>
      </trkpt>
      <trkpt lat="62.643249974754" lon="17.895387429211">
        <ele>42.4</ele>
        <time>2017-10-18T18:05:26Z</time>
      </trkpt>
      <trkpt lat="62.643248466012" lon="17.895265472566">
        <ele>42.4</ele>
        <time>2017-10-18T18:05:27Z</time>
      </trkpt>
      <trkpt lat="62.643243436872" lon="17.895143935016">
        <ele>42.6</ele>
        <time>2017-10-18T18:05:28Z</time>
      </trkpt>
      <trkpt lat="62.643236815171" lon="17.895039077447">
        <ele>42.6</ele>
        <time>2017-10-18T18:05:29Z</time>
      </trkpt>
      <trkpt lat="62.643228014176" lon="17.894907481617">
        <ele>42.6</ele>
        <time>2017-10-18T18:05:30Z</time>
      </trkpt>
      <trkpt lat="62.643218794086" lon="17.89478736899">
        <ele>42.6</ele>
        <time>2017-10-18T18:05:31Z</time>
      </trkpt>
      <trkpt lat="62.643213932584" lon="17.894677230824">
        <ele>42.8</ele>
        <time>2017-10-18T18:05:32Z</time>
      </trkpt>
      <trkpt lat="62.643217536801" lon="17.894559465129">
        <ele>42.8</ele>
        <time>2017-10-18T18:05:33Z</time>
      </trkpt>
      <trkpt lat="62.643232205126" lon="17.894459804338">
        <ele>42.8</ele>
        <time>2017-10-18T18:05:34Z</time>
      </trkpt>
      <trkpt lat="62.643256764093" lon="17.894363915402">
        <ele>42.8</ele>
        <time>2017-10-18T18:05:35Z</time>
      </trkpt>
      <trkpt lat="62.643291548978" lon="17.894280934592">
        <ele>42.8</ele>
        <time>2017-10-18T18:05:36Z</time>
      </trkpt>
      <trkpt lat="62.6433282617" lon="17.894223602396">
        <ele>43</ele>
        <time>2017-10-18T18:05:37Z</time>
      </trkpt>
      <trkpt lat="62.643367740449" lon="17.894175071195">
        <ele>43.2</ele>
        <time>2017-10-18T18:05:38Z</time>
      </trkpt>
      <trkpt lat="62.643409398492" lon="17.894144980174">
        <ele>43.2</ele>
        <time>2017-10-18T18:05:39Z</time>
      </trkpt>
      <trkpt lat="62.64345566658" lon="17.894123187234">
        <ele>43.4</ele>
        <time>2017-10-18T18:05:40Z</time>
      </trkpt>
      <trkpt lat="62.643504365419" lon="17.894097957715">
        <ele>43.6</ele>
        <time>2017-10-18T18:05:41Z</time>
      </trkpt>
      <trkpt lat="62.643555830285" lon="17.894063005192">
        <ele>43.6</ele>
        <time>2017-10-18T18:05:42Z</time>
      </trkpt>
      <trkpt lat="62.643599667622" lon="17.894019084036">
        <ele>43.8</ele>
        <time>2017-10-18T18:05:43Z</time>
      </trkpt>
      <trkpt lat="62.643631183566" lon="17.893961165107">
        <ele>43.6</ele>
        <time>2017-10-18T18:05:44Z</time>
      </trkpt>
      <trkpt lat="62.643654233791" lon="17.893869215664">
        <ele>43.6</ele>
        <time>2017-10-18T18:05:45Z</time>
      </trkpt>
      <trkpt lat="62.643665130261" lon="17.893771566529">
        <ele>43.4</ele>
        <time>2017-10-18T18:05:46Z</time>
      </trkpt>
      <trkpt lat="62.643668147745" lon="17.893670732272">
        <ele>43.2</ele>
        <time>2017-10-18T18:05:47Z</time>
      </trkpt>
      <trkpt lat="62.643667980107" lon="17.893491694888">
        <ele>43.2</ele>
        <time>2017-10-18T18:05:48Z</time>
      </trkpt>
      <trkpt lat="62.643662950967" lon="17.893408881716">
        <ele>43.2</ele>
        <time>2017-10-18T18:05:49Z</time>
      </trkpt>
      <trkpt lat="62.643659765845" lon="17.893265299769">
        <ele>43.2</ele>
        <time>2017-10-18T18:05:50Z</time>
      </trkpt>
      <trkpt lat="62.643657083637" lon="17.893153988137">
        <ele>43.2</ele>
        <time>2017-10-18T18:05:51Z</time>
      </trkpt>
      <trkpt lat="62.643655323438" lon="17.893046699817">
        <ele>43.4</ele>
        <time>2017-10-18T18:05:52Z</time>
      </trkpt>
      <trkpt lat="62.643653730877" lon="17.892934633814">
        <ele>43.4</ele>
        <time>2017-10-18T18:05:53Z</time>
      </trkpt>
      <trkpt lat="62.643647192995" lon="17.892826088209">
        <ele>43.6</ele>
        <time>2017-10-18T18:05:54Z</time>
      </trkpt>
      <trkpt lat="62.643637218534" lon="17.892715698586">
        <ele>43.4</ele>
        <time>2017-10-18T18:05:55Z</time>
      </trkpt>
      <trkpt lat="62.643623891313" lon="17.892612182121">
        <ele>43.6</ele>
        <time>2017-10-18T18:05:56Z</time>
      </trkpt>
      <trkpt lat="62.643610815549" lon="17.892510425855">
        <ele>43.8</ele>
        <time>2017-10-18T18:05:57Z</time>
      </trkpt>
      <trkpt lat="62.643600924907" lon="17.892421829172">
        <ele>43.8</ele>
        <time>2017-10-18T18:05:58Z</time>
      </trkpt>
      <trkpt lat="62.643590447532" lon="17.892307248599">
        <ele>44.2</ele>
        <time>2017-10-18T18:05:59Z</time>
      </trkpt>
      <trkpt lat="62.643583574374" lon="17.892204235048">
        <ele>44.4</ele>
        <time>2017-10-18T18:06:00Z</time>
      </trkpt>
      <trkpt lat="62.643578545234" lon="17.892100634764">
        <ele>44.6</ele>
        <time>2017-10-18T18:06:01Z</time>
      </trkpt>
      <trkpt lat="62.643573767551" lon="17.891999716688">
        <ele>44.8</ele>
        <time>2017-10-18T18:06:02Z</time>
      </trkpt>
      <trkpt lat="62.643566223841" lon="17.891903743933">
        <ele>44.8</ele>
        <time>2017-10-18T18:06:03Z</time>
      </trkpt>
      <trkpt lat="62.643555997923" lon="17.891803077314">
        <ele>44.8</ele>
        <time>2017-10-18T18:06:04Z</time>
      </trkpt>
      <trkpt lat="62.643547196928" lon="17.891694783166">
        <ele>45</ele>
        <time>2017-10-18T18:06:05Z</time>
      </trkpt>
      <trkpt lat="62.643537222467" lon="17.891595876746">
        <ele>45</ele>
        <time>2017-10-18T18:06:06Z</time>
      </trkpt>
      <trkpt lat="62.643525571626" lon="17.891496802688">
        <ele>45</ele>
        <time>2017-10-18T18:06:07Z</time>
      </trkpt>
      <trkpt lat="62.643512831138" lon="17.891406026711">
        <ele>45.2</ele>
        <time>2017-10-18T18:06:08Z</time>
      </trkpt>
      <trkpt lat="62.643496821709" lon="17.891303432255">
        <ele>45.2</ele>
        <time>2017-10-18T18:06:09Z</time>
      </trkpt>
      <trkpt lat="62.643483494488" lon="17.891206705129">
        <ele>45.2</ele>
        <time>2017-10-18T18:06:10Z</time>
      </trkpt>
      <trkpt lat="62.64347159219" lon="17.891100674094">
        <ele>45.2</ele>
        <time>2017-10-18T18:06:11Z</time>
      </trkpt>
      <trkpt lat="62.643458600245" lon="17.890999672199">
        <ele>45.4</ele>
        <time>2017-10-18T18:06:12Z</time>
      </trkpt>
      <trkpt lat="62.643446614128" lon="17.890908560946">
        <ele>45.4</ele>
        <time>2017-10-18T18:06:13Z</time>
      </trkpt>
      <trkpt lat="62.643432700174" lon="17.890807894327">
        <ele>45.4</ele>
        <time>2017-10-18T18:06:14Z</time>
      </trkpt>
      <trkpt lat="62.643418870039" lon="17.890712424486">
        <ele>45.4</ele>
        <time>2017-10-18T18:06:15Z</time>
      </trkpt>
      <trkpt lat="62.643406129551" lon="17.890621313233">
        <ele>45.6</ele>
        <time>2017-10-18T18:06:16Z</time>
      </trkpt>
      <trkpt lat="62.643393472882" lon="17.890517293854">
        <ele>45.6</ele>
        <time>2017-10-18T18:06:17Z</time>
      </trkpt>
      <trkpt lat="62.643382827869" lon="17.890425092954">
        <ele>45.6</ele>
        <time>2017-10-18T18:06:18Z</time>
      </trkpt>
      <trkpt lat="62.643372099037" lon="17.890320319204">
        <ele>45.6</ele>
        <time>2017-10-18T18:06:19Z</time>
      </trkpt>
      <trkpt lat="62.643363800956" lon="17.890221496603">
        <ele>45.6</ele>
        <time>2017-10-18T18:06:20Z</time>
      </trkpt>
      <trkpt lat="62.643356341065" lon="17.890120913803">
        <ele>45.6</ele>
        <time>2017-10-18T18:06:21Z</time>
      </trkpt>
      <trkpt lat="62.643350557554" lon="17.890028796722">
        <ele>45.8</ele>
        <time>2017-10-18T18:06:22Z</time>
      </trkpt>
      <trkpt lat="62.643342846206" lon="17.889934081252">
        <ele>45.6</ele>
        <time>2017-10-18T18:06:23Z</time>
      </trkpt>
      <trkpt lat="62.643332955564" lon="17.889833414633">
        <ele>45.8</ele>
        <time>2017-10-18T18:06:24Z</time>
      </trkpt>
      <trkpt lat="62.643322478189" lon="17.889738782982">
        <ele>45.8</ele>
        <time>2017-10-18T18:06:25Z</time>
      </trkpt>
      <trkpt lat="62.643313509556" lon="17.889642139675">
        <ele>45.8</ele>
        <time>2017-10-18T18:06:26Z</time>
      </trkpt>
      <trkpt lat="62.643304540923" lon="17.88954951968">
        <ele>45.8</ele>
        <time>2017-10-18T18:06:27Z</time>
      </trkpt>
      <trkpt lat="62.643293979729" lon="17.889470310725">
        <ele>45.8</ele>
        <time>2017-10-18T18:06:28Z</time>
      </trkpt>
      <trkpt lat="62.64327629392" lon="17.889377020178">
        <ele>45.8</ele>
        <time>2017-10-18T18:06:29Z</time>
      </trkpt>
      <trkpt lat="62.643254920075" lon="17.88929890087">
        <ele>45.8</ele>
        <time>2017-10-18T18:06:30Z</time>
      </trkpt>
      <trkpt lat="62.643233043316" lon="17.889227989996">
        <ele>45.8</ele>
        <time>2017-10-18T18:06:31Z</time>
      </trkpt>
      <trkpt lat="62.643206305055" lon="17.889151127973">
        <ele>45.8</ele>
        <time>2017-10-18T18:06:32Z</time>
      </trkpt>
      <trkpt lat="62.643181075536" lon="17.88908013328">
        <ele>45.8</ele>
        <time>2017-10-18T18:06:33Z</time>
      </trkpt>
      <trkpt lat="62.643158360587" lon="17.88898960876">
        <ele>45.8</ele>
        <time>2017-10-18T18:06:34Z</time>
      </trkpt>
      <trkpt lat="62.643148386126" lon="17.888880308784">
        <ele>46</ele>
        <time>2017-10-18T18:06:35Z</time>
      </trkpt>
      <trkpt lat="62.643155007827" lon="17.888773020464">
        <ele>46</ele>
        <time>2017-10-18T18:06:36Z</time>
      </trkpt>
      <trkpt lat="62.643170430523" lon="17.888672353845">
        <ele>46</ele>
        <time>2017-10-18T18:06:37Z</time>
      </trkpt>
      <trkpt lat="62.643189038341" lon="17.888586104094">
        <ele>46</ele>
        <time>2017-10-18T18:06:38Z</time>
      </trkpt>
      <trkpt lat="62.643208316711" lon="17.888489712244">
        <ele>46</ele>
        <time>2017-10-18T18:06:39Z</time>
      </trkpt>
      <trkpt lat="62.643223990864" lon="17.888402624303">
        <ele>46</ele>
        <time>2017-10-18T18:06:40Z</time>
      </trkpt>
      <trkpt lat="62.643239497379" lon="17.888303801702">
        <ele>46.2</ele>
        <time>2017-10-18T18:06:41Z</time>
      </trkpt>
      <trkpt lat="62.643249052745" lon="17.888208499499">
        <ele>46.4</ele>
        <time>2017-10-18T18:06:42Z</time>
      </trkpt>
      <trkpt lat="62.64325701555" lon="17.888117220608">
        <ele>46.6</ele>
        <time>2017-10-18T18:06:43Z</time>
      </trkpt>
      <trkpt lat="62.643265229812" lon="17.88801311741">
        <ele>46.8</ele>
        <time>2017-10-18T18:06:44Z</time>
      </trkpt>
      <trkpt lat="62.643272354427" lon="17.887916306465">
        <ele>47</ele>
        <time>2017-10-18T18:06:45Z</time>
      </trkpt>
      <trkpt lat="62.643278054119" lon="17.887836426958">
        <ele>47.2</ele>
        <time>2017-10-18T18:06:46Z</time>
      </trkpt>
      <trkpt lat="62.643283334716" lon="17.887736263253">
        <ele>47.4</ele>
        <time>2017-10-18T18:06:47Z</time>
      </trkpt>
      <trkpt lat="62.643288447675" lon="17.887657473393">
        <ele>47.8</ele>
        <time>2017-10-18T18:06:48Z</time>
      </trkpt>
      <trkpt lat="62.643293309177" lon="17.887572900022">
        <ele>48</ele>
        <time>2017-10-18T18:06:49Z</time>
      </trkpt>
      <trkpt lat="62.64329976324" lon="17.88749511599">
        <ele>48.4</ele>
        <time>2017-10-18T18:06:50Z</time>
      </trkpt>
      <trkpt lat="62.643307977502" lon="17.887420097985">
        <ele>48.8</ele>
        <time>2017-10-18T18:06:51Z</time>
      </trkpt>
      <trkpt lat="62.643313844832" lon="17.88735094731">
        <ele>49</ele>
        <time>2017-10-18T18:06:52Z</time>
      </trkpt>
      <trkpt lat="62.643320131257" lon="17.887279449703">
        <ele>49.2</ele>
        <time>2017-10-18T18:06:53Z</time>
      </trkpt>
      <trkpt lat="62.6433282617" lon="17.887200492205">
        <ele>49.6</ele>
        <time>2017-10-18T18:06:54Z</time>
      </trkpt>
      <trkpt lat="62.643335134858" lon="17.887123881639">
        <ele>49.6</ele>
        <time>2017-10-18T18:06:55Z</time>
      </trkpt>
      <trkpt lat="62.643340080179" lon="17.887045175598">
        <ele>50</ele>
        <time>2017-10-18T18:06:56Z</time>
      </trkpt>
      <trkpt lat="62.643345779871" lon="17.886966469557">
        <ele>50.4</ele>
        <time>2017-10-18T18:06:57Z</time>
      </trkpt>
      <trkpt lat="62.643352988305" lon="17.886894720493">
        <ele>50.6</ele>
        <time>2017-10-18T18:06:58Z</time>
      </trkpt>
      <trkpt lat="62.6433617893" lon="17.886804195973">
        <ele>50.8</ele>
        <time>2017-10-18T18:06:59Z</time>
      </trkpt>
      <trkpt lat="62.643370003562" lon="17.886722220991">
        <ele>51.2</ele>
        <time>2017-10-18T18:07:00Z</time>
      </trkpt>
      <trkpt lat="62.643374697426" lon="17.886644688416">
        <ele>51.4</ele>
        <time>2017-10-18T18:07:01Z</time>
      </trkpt>
      <trkpt lat="62.643380732394" lon="17.886565730918">
        <ele>51.4</ele>
        <time>2017-10-18T18:07:02Z</time>
      </trkpt>
      <trkpt lat="62.643385090982" lon="17.88650186084">
        <ele>51.6</ele>
        <time>2017-10-18T18:07:03Z</time>
      </trkpt>
      <trkpt lat="62.643390874493" lon="17.886420640229">
        <ele>51.8</ele>
        <time>2017-10-18T18:07:04Z</time>
      </trkpt>
      <trkpt lat="62.643397077099" lon="17.886347885337">
        <ele>51.8</ele>
        <time>2017-10-18T18:07:05Z</time>
      </trkpt>
      <trkpt lat="62.643403279705" lon="17.88627974049">
        <ele>52</ele>
        <time>2017-10-18T18:07:06Z</time>
      </trkpt>
      <trkpt lat="62.64340956613" lon="17.886213607299">
        <ele>52.4</ele>
        <time>2017-10-18T18:07:07Z</time>
      </trkpt>
      <trkpt lat="62.643415265822" lon="17.886153341438">
        <ele>52.6</ele>
        <time>2017-10-18T18:07:08Z</time>
      </trkpt>
      <trkpt lat="62.643421133152" lon="17.88608528041">
        <ele>52.8</ele>
        <time>2017-10-18T18:07:09Z</time>
      </trkpt>
      <trkpt lat="62.643425156464" lon="17.886023673445">
        <ele>53.2</ele>
        <time>2017-10-18T18:07:10Z</time>
      </trkpt>
      <trkpt lat="62.643426162292" lon="17.885955947693">
        <ele>53.2</ele>
        <time>2017-10-18T18:07:11Z</time>
      </trkpt>
      <trkpt lat="62.643426749025" lon="17.885889814502">
        <ele>53.4</ele>
        <time>2017-10-18T18:07:12Z</time>
      </trkpt>
      <trkpt lat="62.643427251939" lon="17.885826195881">
        <ele>53.4</ele>
        <time>2017-10-18T18:07:13Z</time>
      </trkpt>
      <trkpt lat="62.643427419577" lon="17.885752183704">
        <ele>53.6</ele>
        <time>2017-10-18T18:07:14Z</time>
      </trkpt>
      <trkpt lat="62.643426916663" lon="17.885679344993">
        <ele>53.6</ele>
        <time>2017-10-18T18:07:15Z</time>
      </trkpt>
      <trkpt lat="62.643428173948" lon="17.885615139639">
        <ele>53.6</ele>
        <time>2017-10-18T18:07:16Z</time>
      </trkpt>
      <trkpt lat="62.643428341586" lon="17.885529057526">
        <ele>53.8</ele>
        <time>2017-10-18T18:07:17Z</time>
      </trkpt>
      <trkpt lat="62.643425743197" lon="17.885453788064">
        <ele>53.8</ele>
        <time>2017-10-18T18:07:18Z</time>
      </trkpt>
      <trkpt lat="62.643423480084" lon="17.885367454494">
        <ele>53.8</ele>
        <time>2017-10-18T18:07:19Z</time>
      </trkpt>
      <trkpt lat="62.643419959686" lon="17.885283886951">
        <ele>53.8</ele>
        <time>2017-10-18T18:07:20Z</time>
      </trkpt>
      <trkpt lat="62.643415349641" lon="17.885203839806">
        <ele>54</ele>
        <time>2017-10-18T18:07:21Z</time>
      </trkpt>
      <trkpt lat="62.643403866438" lon="17.885130079086">
        <ele>54</ele>
        <time>2017-10-18T18:07:22Z</time>
      </trkpt>
      <trkpt lat="62.643382241136" lon="17.885063862076">
        <ele>54</ele>
        <time>2017-10-18T18:07:23Z</time>
      </trkpt>
      <trkpt lat="62.643348881174" lon="17.885014157409">
        <ele>54</ele>
        <time>2017-10-18T18:07:24Z</time>
      </trkpt>
      <trkpt lat="62.643315605031" lon="17.884990352813">
        <ele>54</ele>
        <time>2017-10-18T18:07:25Z</time>
      </trkpt>
      <trkpt lat="62.643263385794" lon="17.8849713259">
        <ele>54</ele>
        <time>2017-10-18T18:07:26Z</time>
      </trkpt>
      <trkpt lat="62.643219045543" lon="17.884963363095">
        <ele>54</ele>
        <time>2017-10-18T18:07:27Z</time>
      </trkpt>
      <trkpt lat="62.643178728604" lon="17.884964201285">
        <ele>54.2</ele>
        <time>2017-10-18T18:07:28Z</time>
      </trkpt>
      <trkpt lat="62.643127515195" lon="17.88496797314">
        <ele>54</ele>
        <time>2017-10-18T18:07:29Z</time>
      </trkpt>
      <trkpt lat="62.643080911831" lon="17.884968224597">
        <ele>54</ele>
        <time>2017-10-18T18:07:30Z</time>
      </trkpt>
      <trkpt lat="62.643038164141" lon="17.884963446914">
        <ele>54</ele>
        <time>2017-10-18T18:07:31Z</time>
      </trkpt>
      <trkpt lat="62.642988208017" lon="17.88495875305">
        <ele>53.8</ele>
        <time>2017-10-18T18:07:32Z</time>
      </trkpt>
      <trkpt lat="62.642943951585" lon="17.884951293159">
        <ele>53.8</ele>
        <time>2017-10-18T18:07:33Z</time>
      </trkpt>
      <trkpt lat="62.642897180583" lon="17.884942492164">
        <ele>53.6</ele>
        <time>2017-10-18T18:07:34Z</time>
      </trkpt>
      <trkpt lat="62.642847811192" lon="17.884931344237">
        <ele>53.6</ele>
        <time>2017-10-18T18:07:35Z</time>
      </trkpt>
      <trkpt lat="62.642801459285" lon="17.884918771387">
        <ele>53.4</ele>
        <time>2017-10-18T18:07:36Z</time>
      </trkpt>
      <trkpt lat="62.642753850093" lon="17.884899660655">
        <ele>53.2</ele>
        <time>2017-10-18T18:07:37Z</time>
      </trkpt>
      <trkpt lat="62.64270967748" lon="17.884880047009">
        <ele>53.2</ele>
        <time>2017-10-18T18:07:38Z</time>
      </trkpt>
      <trkpt lat="62.642659302261" lon="17.884855068947">
        <ele>53.2</ele>
        <time>2017-10-18T18:07:39Z</time>
      </trkpt>
      <trkpt lat="62.64261412382" lon="17.884830845256">
        <ele>53</ele>
        <time>2017-10-18T18:07:40Z</time>
      </trkpt>
      <trkpt lat="62.642567855732" lon="17.88480033514">
        <ele>53</ele>
        <time>2017-10-18T18:07:41Z</time>
      </trkpt>
      <trkpt lat="62.642523850757" lon="17.884766639902">
        <ele>52.8</ele>
        <time>2017-10-18T18:07:42Z</time>
      </trkpt>
      <trkpt lat="62.642482947085" lon="17.884733447578">
        <ele>52.8</ele>
        <time>2017-10-18T18:07:43Z</time>
      </trkpt>
      <trkpt lat="62.642437768644" lon="17.884699081788">
        <ele>52.8</ele>
        <time>2017-10-18T18:07:44Z</time>
      </trkpt>
      <trkpt lat="62.642394685678" lon="17.884667230568">
        <ele>52.8</ele>
        <time>2017-10-18T18:07:45Z</time>
      </trkpt>
      <trkpt lat="62.642357050947" lon="17.884634457339">
        <ele>52.8</ele>
        <time>2017-10-18T18:07:46Z</time>
      </trkpt>
      <trkpt lat="62.642311621049" lon="17.884589697993">
        <ele>53</ele>
        <time>2017-10-18T18:07:47Z</time>
      </trkpt>
      <trkpt lat="62.642274992146" lon="17.884553739642">
        <ele>53</ele>
        <time>2017-10-18T18:07:48Z</time>
      </trkpt>
      <trkpt lat="62.642234256112" lon="17.884518200386">
        <ele>53</ele>
        <time>2017-10-18T18:07:49Z</time>
      </trkpt>
      <trkpt lat="62.642196872838" lon="17.88448433751">
        <ele>53.2</ele>
        <time>2017-10-18T18:07:50Z</time>
      </trkpt>
      <trkpt lat="62.642159992478" lon="17.884449217349">
        <ele>53.2</ele>
        <time>2017-10-18T18:07:51Z</time>
      </trkpt>
      <trkpt lat="62.642125375231" lon="17.884417030853">
        <ele>53.4</ele>
        <time>2017-10-18T18:07:52Z</time>
      </trkpt>
      <trkpt lat="62.642091512355" lon="17.884380988683">
        <ele>53.6</ele>
        <time>2017-10-18T18:07:53Z</time>
      </trkpt>
      <trkpt lat="62.642058236212" lon="17.884343270133">
        <ele>53.8</ele>
        <time>2017-10-18T18:07:54Z</time>
      </trkpt>
      <trkpt lat="62.64203074358" lon="17.884303791384">
        <ele>53.8</ele>
        <time>2017-10-18T18:07:55Z</time>
      </trkpt>
      <trkpt lat="62.642007777174" lon="17.884260792237">
        <ele>54</ele>
        <time>2017-10-18T18:07:56Z</time>
      </trkpt>
      <trkpt lat="62.64198967227" lon="17.884213266864">
        <ele>54</ele>
        <time>2017-10-18T18:07:57Z</time>
      </trkpt>
      <trkpt lat="62.641975925954" lon="17.88417253083">
        <ele>54.2</ele>
        <time>2017-10-18T18:07:58Z</time>
      </trkpt>
      <trkpt lat="62.64195698286" lon="17.884129028769">
        <ele>54.4</ele>
        <time>2017-10-18T18:07:59Z</time>
      </trkpt>
      <trkpt lat="62.641939213232" lon="17.884098015739">
        <ele>54.4</ele>
        <time>2017-10-18T18:08:00Z</time>
      </trkpt>
      <trkpt lat="62.641921024509" lon="17.884075719885">
        <ele>54.6</ele>
        <time>2017-10-18T18:08:01Z</time>
      </trkpt>
      <trkpt lat="62.641899818302" lon="17.884055687144">
        <ele>54.6</ele>
        <time>2017-10-18T18:08:02Z</time>
      </trkpt>
      <trkpt lat="62.641881461941" lon="17.884039677715">
        <ele>54.8</ele>
        <time>2017-10-18T18:08:03Z</time>
      </trkpt>
      <trkpt lat="62.641862854123" lon="17.884026518132">
        <ele>54.8</ele>
        <time>2017-10-18T18:08:04Z</time>
      </trkpt>
      <trkpt lat="62.641841647916" lon="17.884015873119">
        <ele>55</ele>
        <time>2017-10-18T18:08:05Z</time>
      </trkpt>
      <trkpt lat="62.641823291555" lon="17.88401243654">
        <ele>55</ele>
        <time>2017-10-18T18:08:06Z</time>
      </trkpt>
      <trkpt lat="62.64180359409" lon="17.884009838151">
        <ele>55</ele>
        <time>2017-10-18T18:08:07Z</time>
      </trkpt>
      <trkpt lat="62.641786159738" lon="17.884006401572">
        <ele>55.2</ele>
        <time>2017-10-18T18:08:08Z</time>
      </trkpt>
      <trkpt lat="62.641764450617" lon="17.884001623889">
        <ele>55</ele>
        <time>2017-10-18T18:08:09Z</time>
      </trkpt>
      <trkpt lat="62.641743160591" lon="17.883993661084">
        <ele>55</ele>
        <time>2017-10-18T18:08:10Z</time>
      </trkpt>
      <trkpt lat="62.641717931072" lon="17.883976226732">
        <ele>55.2</ele>
        <time>2017-10-18T18:08:11Z</time>
      </trkpt>
      <trkpt lat="62.641697227779" lon="17.883953092688">
        <ele>55.2</ele>
        <time>2017-10-18T18:08:12Z</time>
      </trkpt>
      <trkpt lat="62.641680547798" lon="17.883928701359">
        <ele>55.2</ele>
        <time>2017-10-18T18:08:13Z</time>
      </trkpt>
      <trkpt lat="62.641661856161" lon="17.883904561487">
        <ele>55.2</ele>
        <time>2017-10-18T18:08:14Z</time>
      </trkpt>
      <trkpt lat="62.641647858388" lon="17.883884780203">
        <ele>55.2</ele>
        <time>2017-10-18T18:08:15Z</time>
      </trkpt>
      <trkpt lat="62.6416351179" lon="17.883868351679">
        <ele>55.4</ele>
        <time>2017-10-18T18:08:16Z</time>
      </trkpt>
      <trkpt lat="62.641617683548" lon="17.88385318044">
        <ele>55.4</ele>
        <time>2017-10-18T18:08:17Z</time>
      </trkpt>
      <trkpt lat="62.641604021051" lon="17.883838847391">
        <ele>55.6</ele>
        <time>2017-10-18T18:08:18Z</time>
      </trkpt>
      <trkpt lat="62.641588765993" lon="17.883824849618">
        <ele>55.8</ele>
        <time>2017-10-18T18:08:19Z</time>
      </trkpt>
      <trkpt lat="62.641574013849" lon="17.883812276768">
        <ele>56</ele>
        <time>2017-10-18T18:08:20Z</time>
      </trkpt>
      <trkpt lat="62.641555322212" lon="17.883795932063">
        <ele>56</ele>
        <time>2017-10-18T18:08:21Z</time>
      </trkpt>
      <trkpt lat="62.641536379118" lon="17.883770534906">
        <ele>56</ele>
        <time>2017-10-18T18:08:22Z</time>
      </trkpt>
      <trkpt lat="62.641515005273" lon="17.883734241279">
        <ele>56</ele>
        <time>2017-10-18T18:08:23Z</time>
      </trkpt>
      <trkpt lat="62.641489943392" lon="17.883691325951">
        <ele>56</ele>
        <time>2017-10-18T18:08:24Z</time>
      </trkpt>
      <trkpt lat="62.641470413565" lon="17.883637262696">
        <ele>56</ele>
        <time>2017-10-18T18:08:25Z</time>
      </trkpt>
      <trkpt lat="62.641459433276" lon="17.883574230808">
        <ele>56.2</ele>
        <time>2017-10-18T18:08:26Z</time>
      </trkpt>
      <trkpt lat="62.641443759123" lon="17.883512791481">
        <ele>56.2</ele>
        <time>2017-10-18T18:08:27Z</time>
      </trkpt>
      <trkpt lat="62.641423810201" lon="17.883472223085">
        <ele>56.4</ele>
        <time>2017-10-18T18:08:28Z</time>
      </trkpt>
      <trkpt lat="62.641393551542" lon="17.883431822327">
        <ele>56.6</ele>
        <time>2017-10-18T18:08:29Z</time>
      </trkpt>
      <trkpt lat="62.641365975091" lon="17.883394606691">
        <ele>56.8</ele>
        <time>2017-10-18T18:08:30Z</time>
      </trkpt>
      <trkpt lat="62.641340410296" lon="17.883368874258">
        <ele>57</ele>
        <time>2017-10-18T18:08:31Z</time>
      </trkpt>
      <trkpt lat="62.641310486913" lon="17.883338112685">
        <ele>57.2</ele>
        <time>2017-10-18T18:08:32Z</time>
      </trkpt>
      <trkpt lat="62.641284586842" lon="17.883309614225">
        <ele>57.2</ele>
        <time>2017-10-18T18:08:33Z</time>
      </trkpt>
      <trkpt lat="62.641258267676" lon="17.883280445213">
        <ele>57.4</ele>
        <time>2017-10-18T18:08:34Z</time>
      </trkpt>
      <trkpt lat="62.641230607406" lon="17.883247252889">
        <ele>57.6</ele>
        <time>2017-10-18T18:08:35Z</time>
      </trkpt>
      <trkpt lat="62.641204036783" lon="17.883209618158">
        <ele>57.6</ele>
        <time>2017-10-18T18:08:36Z</time>
      </trkpt>
      <trkpt lat="62.641177298522" lon="17.883168630667">
        <ele>57.6</ele>
        <time>2017-10-18T18:08:37Z</time>
      </trkpt>
      <trkpt lat="62.641152571917" lon="17.883129571013">
        <ele>57.8</ele>
        <time>2017-10-18T18:08:38Z</time>
      </trkpt>
      <trkpt lat="62.64112717476" lon="17.883096462508">
        <ele>57.8</ele>
        <time>2017-10-18T18:08:39Z</time>
      </trkpt>
      <trkpt lat="62.641109405132" lon="17.883080955993">
        <ele>57.8</ele>
        <time>2017-10-18T18:08:40Z</time>
      </trkpt>
      <trkpt lat="62.641091886961" lon="17.883074418111">
        <ele>58</ele>
        <time>2017-10-18T18:08:41Z</time>
      </trkpt>
      <trkpt lat="62.641080990491" lon="17.883082548554">
        <ele>58</ele>
        <time>2017-10-18T18:08:42Z</time>
      </trkpt>
      <trkpt lat="62.641071351306" lon="17.883099479992">
        <ele>58</ele>
        <time>2017-10-18T18:08:43Z</time>
      </trkpt>
      <trkpt lat="62.64106347232" lon="17.883114567412">
        <ele>58</ele>
        <time>2017-10-18T18:08:44Z</time>
      </trkpt>
      <trkpt lat="62.641063807596" lon="17.883113561584">
        <ele>58</ele>
        <time>2017-10-18T18:08:45Z</time>
      </trkpt>
      <trkpt lat="62.641065316338" lon="17.883104844408">
        <ele>58.2</ele>
        <time>2017-10-18T18:08:46Z</time>
      </trkpt>
      <trkpt lat="62.641050731832" lon="17.883116579068">
        <ele>58</ele>
        <time>2017-10-18T18:08:47Z</time>
      </trkpt>
      <trkpt lat="62.641042601389" lon="17.883117920172">
        <ele>58</ele>
        <time>2017-10-18T18:08:48Z</time>
      </trkpt>
      <trkpt lat="62.641034722403" lon="17.883122697855">
        <ele>58</ele>
        <time>2017-10-18T18:08:49Z</time>
      </trkpt>
      <trkpt lat="62.641026089046" lon="17.883126302072">
        <ele>58.2</ele>
        <time>2017-10-18T18:08:50Z</time>
      </trkpt>
      <trkpt lat="62.641017790965" lon="17.883122530217">
        <ele>58.2</ele>
        <time>2017-10-18T18:08:51Z</time>
      </trkpt>
      <trkpt lat="62.641011839816" lon="17.883114986507">
        <ele>58.4</ele>
        <time>2017-10-18T18:08:52Z</time>
      </trkpt>
      <trkpt lat="62.641007062133" lon="17.883097049241">
        <ele>58.4</ele>
        <time>2017-10-18T18:08:53Z</time>
      </trkpt>
      <trkpt lat="62.641001278622" lon="17.883073328464">
        <ele>58.4</ele>
        <time>2017-10-18T18:08:54Z</time>
      </trkpt>
      <trkpt lat="62.640997171491" lon="17.883052038438">
        <ele>58.4</ele>
        <time>2017-10-18T18:08:55Z</time>
      </trkpt>
      <trkpt lat="62.640999015509" lon="17.883027060376">
        <ele>58.4</ele>
        <time>2017-10-18T18:08:56Z</time>
      </trkpt>
      <trkpt lat="62.641002871183" lon="17.883009877481">
        <ele>58.6</ele>
        <time>2017-10-18T18:08:57Z</time>
      </trkpt>
      <trkpt lat="62.641000524251" lon="17.883008620196">
        <ele>58.6</ele>
        <time>2017-10-18T18:08:58Z</time>
      </trkpt>
      <trkpt lat="62.641000021337" lon="17.882995795889">
        <ele>58.8</ele>
        <time>2017-10-18T18:08:59Z</time>
      </trkpt>
      <trkpt lat="62.641001362441" lon="17.882997304631">
        <ele>59</ele>
        <time>2017-10-18T18:09:00Z</time>
      </trkpt>
      <trkpt lat="62.640991471799" lon="17.882696310602">
        <ele>58.6</ele>
        <time>2017-10-18T18:09:09Z</time>
      </trkpt>
      <trkpt lat="62.64098887341" lon="17.882640822424">
        <ele>58.8</ele>
        <time>2017-10-18T18:09:10Z</time>
      </trkpt>
      <trkpt lat="62.640986777935" lon="17.882576114156">
        <ele>58.8</ele>
        <time>2017-10-18T18:09:11Z</time>
      </trkpt>
      <trkpt lat="62.640987029392" lon="17.882518446684">
        <ele>58.6</ele>
        <time>2017-10-18T18:09:12Z</time>
      </trkpt>
      <trkpt lat="62.640985436831" lon="17.88246597599">
        <ele>58.8</ele>
        <time>2017-10-18T18:09:13Z</time>
      </trkpt>
      <trkpt lat="62.640980742967" lon="17.882411242183">
        <ele>58.8</ele>
        <time>2017-10-18T18:09:14Z</time>
      </trkpt>
      <trkpt lat="62.640969259764" lon="17.882361118421">
        <ele>58.8</ele>
        <time>2017-10-18T18:09:15Z</time>
      </trkpt>
      <trkpt lat="62.640959201484" lon="17.882317867817">
        <ele>59</ele>
        <time>2017-10-18T18:09:16Z</time>
      </trkpt>
      <trkpt lat="62.640945958082" lon="17.88226648677">
        <ele>59.2</ele>
        <time>2017-10-18T18:09:17Z</time>
      </trkpt>
      <trkpt lat="62.640934558698" lon="17.882224325813">
        <ele>59.2</ele>
        <time>2017-10-18T18:09:18Z</time>
      </trkpt>
      <trkpt lat="62.640922572581" lon="17.882179817924">
        <ele>59.4</ele>
        <time>2017-10-18T18:09:19Z</time>
      </trkpt>
      <trkpt lat="62.640912262844" lon="17.88213740551">
        <ele>59.6</ele>
        <time>2017-10-18T18:09:20Z</time>
      </trkpt>
      <trkpt lat="62.640902036926" lon="17.882092729983">
        <ele>60</ele>
        <time>2017-10-18T18:09:21Z</time>
      </trkpt>
      <trkpt lat="62.640890302266" lon="17.882054005605">
        <ele>60.2</ele>
        <time>2017-10-18T18:09:22Z</time>
      </trkpt>
      <trkpt lat="62.640876723588" lon="17.882012096105">
        <ele>60.4</ele>
        <time>2017-10-18T18:09:23Z</time>
      </trkpt>
      <trkpt lat="62.640861217073" lon="17.881966582388">
        <ele>60.6</ele>
        <time>2017-10-18T18:09:24Z</time>
      </trkpt>
      <trkpt lat="62.640849398594" lon="17.881920230481">
        <ele>60.6</ele>
        <time>2017-10-18T18:09:25Z</time>
      </trkpt>
      <trkpt lat="62.640835819916" lon="17.881875806411">
        <ele>60.8</ele>
        <time>2017-10-18T18:09:26Z</time>
      </trkpt>
      <trkpt lat="62.640825593998" lon="17.881826269382">
        <ele>61</ele>
        <time>2017-10-18T18:09:27Z</time>
      </trkpt>
      <trkpt lat="62.6408136917" lon="17.881778576371">
        <ele>61.4</ele>
        <time>2017-10-18T18:09:28Z</time>
      </trkpt>
      <trkpt lat="62.640800532117" lon="17.881725435125">
        <ele>61.6</ele>
        <time>2017-10-18T18:09:29Z</time>
      </trkpt>
      <trkpt lat="62.640786199068" lon="17.881681262512">
        <ele>61.8</ele>
        <time>2017-10-18T18:09:30Z</time>
      </trkpt>
      <trkpt lat="62.640772788028" lon="17.881635664976">
        <ele>62</ele>
        <time>2017-10-18T18:09:31Z</time>
      </trkpt>
      <trkpt lat="62.64076088573" lon="17.881581434083">
        <ele>62.2</ele>
        <time>2017-10-18T18:09:32Z</time>
      </trkpt>
      <trkpt lat="62.640750073079" lon="17.881535668909">
        <ele>62.2</ele>
        <time>2017-10-18T18:09:33Z</time>
      </trkpt>
      <trkpt lat="62.640736913496" lon="17.881484790776">
        <ele>62.4</ele>
        <time>2017-10-18T18:09:34Z</time>
      </trkpt>
      <trkpt lat="62.640723250999" lon="17.881424860191">
        <ele>62.4</ele>
        <time>2017-10-18T18:09:35Z</time>
      </trkpt>
      <trkpt lat="62.640711767796" lon="17.881366438348">
        <ele>62.8</ele>
        <time>2017-10-18T18:09:36Z</time>
      </trkpt>
      <trkpt lat="62.640700368412" lon="17.881310531075">
        <ele>62.8</ele>
        <time>2017-10-18T18:09:37Z</time>
      </trkpt>
      <trkpt lat="62.640693579073" lon="17.881255964906">
        <ele>63</ele>
        <time>2017-10-18T18:09:38Z</time>
      </trkpt>
      <trkpt lat="62.640687376467" lon="17.881193938846">
        <ele>63.2</ele>
        <time>2017-10-18T18:09:39Z</time>
      </trkpt>
      <trkpt lat="62.64068293406" lon="17.881139456496">
        <ele>63.2</ele>
        <time>2017-10-18T18:09:40Z</time>
      </trkpt>
      <trkpt lat="62.640680000395" lon="17.881076676065">
        <ele>63.4</ele>
        <time>2017-10-18T18:09:41Z</time>
      </trkpt>
      <trkpt lat="62.640679497481" lon="17.88101590729">
        <ele>63.4</ele>
        <time>2017-10-18T18:09:42Z</time>
      </trkpt>
      <trkpt lat="62.64068293406" lon="17.880964190967">
        <ele>63.6</ele>
        <time>2017-10-18T18:09:43Z</time>
      </trkpt>
      <trkpt lat="62.640688633752" lon="17.880907277866">
        <ele>63.8</ele>
        <time>2017-10-18T18:09:44Z</time>
      </trkpt>
      <trkpt lat="62.640695842186" lon="17.880853549887">
        <ele>64</ele>
        <time>2017-10-18T18:09:45Z</time>
      </trkpt>
      <trkpt lat="62.64070221243" lon="17.880805437781">
        <ele>64.2</ele>
        <time>2017-10-18T18:09:46Z</time>
      </trkpt>
      <trkpt lat="62.640711935434" lon="17.880745926291">
        <ele>64.2</ele>
        <time>2017-10-18T18:09:47Z</time>
      </trkpt>
      <trkpt lat="62.640723670094" lon="17.880699825841">
        <ele>64.4</ele>
        <time>2017-10-18T18:09:48Z</time>
      </trkpt>
      <trkpt lat="62.640737164953" lon="17.88064878007">
        <ele>64.4</ele>
        <time>2017-10-18T18:09:49Z</time>
      </trkpt>
      <trkpt lat="62.64075082745" lon="17.880604439819">
        <ele>64.6</ele>
        <time>2017-10-18T18:09:50Z</time>
      </trkpt>
      <trkpt lat="62.640764657585" lon="17.88056328469">
        <ele>64.6</ele>
        <time>2017-10-18T18:09:51Z</time>
      </trkpt>
      <trkpt lat="62.640777398073" lon="17.880526571968">
        <ele>64.8</ele>
        <time>2017-10-18T18:09:52Z</time>
      </trkpt>
      <trkpt lat="62.640791982579" lon="17.88048617121">
        <ele>65</ele>
        <time>2017-10-18T18:09:53Z</time>
      </trkpt>
      <trkpt lat="62.64080614799" lon="17.880441914778">
        <ele>65.2</ele>
        <time>2017-10-18T18:09:54Z</time>
      </trkpt>
      <trkpt lat="62.640819978125" lon="17.880396317242">
        <ele>65.2</ele>
        <time>2017-10-18T18:09:55Z</time>
      </trkpt>
      <trkpt lat="62.640833221527" lon="17.88034703167">
        <ele>65.4</ele>
        <time>2017-10-18T18:09:56Z</time>
      </trkpt>
      <trkpt lat="62.640847051662" lon="17.880297327003">
        <ele>65.4</ele>
        <time>2017-10-18T18:09:57Z</time>
      </trkpt>
      <trkpt lat="62.64085979215" lon="17.880254663132">
        <ele>65.6</ele>
        <time>2017-10-18T18:09:58Z</time>
      </trkpt>
      <trkpt lat="62.640875466303" lon="17.88019699566">
        <ele>65.6</ele>
        <time>2017-10-18T18:09:59Z</time>
      </trkpt>
      <trkpt lat="62.640890386085" lon="17.880143183862">
        <ele>65.6</ele>
        <time>2017-10-18T18:10:00Z</time>
      </trkpt>
      <trkpt lat="62.640903210392" lon="17.880091886634">
        <ele>65.8</ele>
        <time>2017-10-18T18:10:01Z</time>
      </trkpt>
      <trkpt lat="62.640916872889" lon="17.880033045696">
        <ele>66</ele>
        <time>2017-10-18T18:10:02Z</time>
      </trkpt>
      <trkpt lat="62.640930283929" lon="17.879982838115">
        <ele>66</ele>
        <time>2017-10-18T18:10:03Z</time>
      </trkpt>
      <trkpt lat="62.64094444934" lon="17.87993548038">
        <ele>66.2</ele>
        <time>2017-10-18T18:10:04Z</time>
      </trkpt>
      <trkpt lat="62.640957692742" lon="17.879886278627">
        <ele>66.2</ele>
        <time>2017-10-18T18:10:05Z</time>
      </trkpt>
      <trkpt lat="62.640969762678" lon="17.879842273652">
        <ele>66.4</ele>
        <time>2017-10-18T18:10:06Z</time>
      </trkpt>
      <trkpt lat="62.640980826786" lon="17.879802627265">
        <ele>66.4</ele>
        <time>2017-10-18T18:10:07Z</time>
      </trkpt>
      <trkpt lat="62.640991639437" lon="17.879765830724">
        <ele>66.4</ele>
        <time>2017-10-18T18:10:08Z</time>
      </trkpt>
      <trkpt lat="62.641002955002" lon="17.879723502129">
        <ele>66.4</ele>
        <time>2017-10-18T18:10:09Z</time>
      </trkpt>
      <trkpt lat="62.641012594187" lon="17.879684777751">
        <ele>66.6</ele>
        <time>2017-10-18T18:10:10Z</time>
      </trkpt>
      <trkpt lat="62.641025418494" lon="17.879639431672">
        <ele>66.6</ele>
        <time>2017-10-18T18:10:11Z</time>
      </trkpt>
      <trkpt lat="62.641036817878" lon="17.879594504688">
        <ele>66.6</ele>
        <time>2017-10-18T18:10:12Z</time>
      </trkpt>
      <trkpt lat="62.641048720176" lon="17.879549996799">
        <ele>66.8</ele>
        <time>2017-10-18T18:10:13Z</time>
      </trkpt>
      <trkpt lat="62.641061879759" lon="17.879497274648">
        <ele>66.8</ele>
        <time>2017-10-18T18:10:14Z</time>
      </trkpt>
      <trkpt lat="62.641073949695" lon="17.87944430104">
        <ele>67</ele>
        <time>2017-10-18T18:10:15Z</time>
      </trkpt>
      <trkpt lat="62.641084007975" lon="17.879402642997">
        <ele>67.2</ele>
        <time>2017-10-18T18:10:16Z</time>
      </trkpt>
      <trkpt lat="62.641098089567" lon="17.879348831199">
        <ele>67.4</ele>
        <time>2017-10-18T18:10:17Z</time>
      </trkpt>
      <trkpt lat="62.641109153675" lon="17.879306251147">
        <ele>67.4</ele>
        <time>2017-10-18T18:10:18Z</time>
      </trkpt>
      <trkpt lat="62.641119379593" lon="17.879263419638">
        <ele>67.4</ele>
        <time>2017-10-18T18:10:19Z</time>
      </trkpt>
      <trkpt lat="62.641129773149" lon="17.879224359984">
        <ele>67.6</ele>
        <time>2017-10-18T18:10:20Z</time>
      </trkpt>
      <trkpt lat="62.64113974761" lon="17.879184629778">
        <ele>67.8</ele>
        <time>2017-10-18T18:10:21Z</time>
      </trkpt>
      <trkpt lat="62.641146369311" lon="17.879143893744">
        <ele>68</ele>
        <time>2017-10-18T18:10:22Z</time>
      </trkpt>
      <trkpt lat="62.641158020152" lon="17.879097709475">
        <ele>68</ele>
        <time>2017-10-18T18:10:23Z</time>
      </trkpt>
      <trkpt lat="62.641170844459" lon="17.879052279577">
        <ele>68.6</ele>
        <time>2017-10-18T18:10:24Z</time>
      </trkpt>
      <trkpt lat="62.641180902739" lon="17.87901598595">
        <ele>68.8</ele>
        <time>2017-10-18T18:10:25Z</time>
      </trkpt>
      <trkpt lat="62.64120093548" lon="17.878969131129">
        <ele>68.8</ele>
        <time>2017-10-18T18:10:26Z</time>
      </trkpt>
      <trkpt lat="62.641221135859" lon="17.878930155294">
        <ele>68.8</ele>
        <time>2017-10-18T18:10:27Z</time>
      </trkpt>
      <trkpt lat="62.641236390917" lon="17.878887910518">
        <ele>69</ele>
        <time>2017-10-18T18:10:28Z</time>
      </trkpt>
      <trkpt lat="62.641255669287" lon="17.87883158415">
        <ele>69</ele>
        <time>2017-10-18T18:10:29Z</time>
      </trkpt>
      <trkpt lat="62.641271678716" lon="17.878780789836">
        <ele>69.2</ele>
        <time>2017-10-18T18:10:30Z</time>
      </trkpt>
      <trkpt lat="62.641283748652" lon="17.87873351592">
        <ele>69.2</ele>
        <time>2017-10-18T18:10:31Z</time>
      </trkpt>
      <trkpt lat="62.64129648914" lon="17.878683475977">
        <ele>69.4</ele>
        <time>2017-10-18T18:10:32Z</time>
      </trkpt>
      <trkpt lat="62.641308978171" lon="17.878641901753">
        <ele>69.6</ele>
        <time>2017-10-18T18:10:33Z</time>
      </trkpt>
      <trkpt lat="62.641324484686" lon="17.878595717484">
        <ele>69.8</ele>
        <time>2017-10-18T18:10:34Z</time>
      </trkpt>
      <trkpt lat="62.641341919038" lon="17.878547605378">
        <ele>70</ele>
        <time>2017-10-18T18:10:35Z</time>
      </trkpt>
      <trkpt lat="62.641357509372" lon="17.878499409453">
        <ele>70</ele>
        <time>2017-10-18T18:10:36Z</time>
      </trkpt>
      <trkpt lat="62.641373937896" lon="17.878452219356">
        <ele>70</ele>
        <time>2017-10-18T18:10:37Z</time>
      </trkpt>
      <trkpt lat="62.641389444411" lon="17.878407124734">
        <ele>70.2</ele>
        <time>2017-10-18T18:10:38Z</time>
      </trkpt>
      <trkpt lat="62.641406962582" lon="17.878353983488">
        <ele>70.2</ele>
        <time>2017-10-18T18:10:39Z</time>
      </trkpt>
      <trkpt lat="62.641423391106" lon="17.87831022997">
        <ele>70.2</ele>
        <time>2017-10-18T18:10:40Z</time>
      </trkpt>
      <trkpt lat="62.641443088571" lon="17.878257591638">
        <ele>70.4</ele>
        <time>2017-10-18T18:10:41Z</time>
      </trkpt>
      <trkpt lat="62.64145825981" lon="17.878207467876">
        <ele>70.4</ele>
        <time>2017-10-18T18:10:42Z</time>
      </trkpt>
      <trkpt lat="62.641475526524" lon="17.878162624711">
        <ele>70.4</ele>
        <time>2017-10-18T18:10:43Z</time>
      </trkpt>
      <trkpt lat="62.641494050523" lon="17.878111327483">
        <ele>70.6</ele>
        <time>2017-10-18T18:10:44Z</time>
      </trkpt>
      <trkpt lat="62.641510562866" lon="17.878068412155">
        <ele>70.6</ele>
        <time>2017-10-18T18:10:45Z</time>
      </trkpt>
      <trkpt lat="62.641523973906" lon="17.878032286166">
        <ele>70.8</ele>
        <time>2017-10-18T18:10:46Z</time>
      </trkpt>
      <trkpt lat="62.641542581724" lon="17.877981156576">
        <ele>70.8</ele>
        <time>2017-10-18T18:10:47Z</time>
      </trkpt>
      <trkpt lat="62.641558591153" lon="17.87793639723">
        <ele>71</ele>
        <time>2017-10-18T18:10:48Z</time>
      </trkpt>
      <trkpt lat="62.641576025505" lon="17.877886524925">
        <ele>71.2</ele>
        <time>2017-10-18T18:10:49Z</time>
      </trkpt>
      <trkpt lat="62.641594214228" lon="17.877841597941">
        <ele>71.4</ele>
        <time>2017-10-18T18:10:50Z</time>
      </trkpt>
      <trkpt lat="62.641609804562" lon="17.877799436984">
        <ele>71.6</ele>
        <time>2017-10-18T18:10:51Z</time>
      </trkpt>
      <trkpt lat="62.641623802335" lon="17.877759958235">
        <ele>72</ele>
        <time>2017-10-18T18:10:52Z</time>
      </trkpt>
      <trkpt lat="62.64163930885" lon="17.877716623812">
        <ele>72.2</ele>
        <time>2017-10-18T18:10:53Z</time>
      </trkpt>
      <trkpt lat="62.641654983003" lon="17.877671445371">
        <ele>72.2</ele>
        <time>2017-10-18T18:10:54Z</time>
      </trkpt>
      <trkpt lat="62.641669148414" lon="17.877630122604">
        <ele>72.4</ele>
        <time>2017-10-18T18:10:55Z</time>
      </trkpt>
      <trkpt lat="62.641682559454" lon="17.877591984959">
        <ele>72.6</ele>
        <time>2017-10-18T18:10:56Z</time>
      </trkpt>
      <trkpt lat="62.641694713209" lon="17.877552841486">
        <ele>72.8</ele>
        <time>2017-10-18T18:10:57Z</time>
      </trkpt>
      <trkpt lat="62.641706866964" lon="17.877517637506">
        <ele>73</ele>
        <time>2017-10-18T18:10:58Z</time>
      </trkpt>
      <trkpt lat="62.641723044031" lon="17.877471453237">
        <ele>73.4</ele>
        <time>2017-10-18T18:10:59Z</time>
      </trkpt>
      <trkpt lat="62.64173905346" lon="17.8774276159">
        <ele>73.6</ele>
        <time>2017-10-18T18:11:00Z</time>
      </trkpt>
      <trkpt lat="62.641751793948" lon="17.877383694744">
        <ele>73.8</ele>
        <time>2017-10-18T18:11:01Z</time>
      </trkpt>
      <trkpt lat="62.64176755192" lon="17.877334660629">
        <ele>73.8</ele>
        <time>2017-10-18T18:11:02Z</time>
      </trkpt>
      <trkpt lat="62.641783142254" lon="17.877289398369">
        <ele>74</ele>
        <time>2017-10-18T18:11:03Z</time>
      </trkpt>
      <trkpt lat="62.641799654597" lon="17.877246902136">
        <ele>74.2</ele>
        <time>2017-10-18T18:11:04Z</time>
      </trkpt>
      <trkpt lat="62.64181868151" lon="17.877202394247">
        <ele>74.2</ele>
        <time>2017-10-18T18:11:05Z</time>
      </trkpt>
      <trkpt lat="62.641832427826" lon="17.877159311281">
        <ele>74.2</ele>
        <time>2017-10-18T18:11:06Z</time>
      </trkpt>
      <trkpt lat="62.641846509418" lon="17.87711413284">
        <ele>74.4</ele>
        <time>2017-10-18T18:11:07Z</time>
      </trkpt>
      <trkpt lat="62.64186226739" lon="17.877075659919">
        <ele>74.6</ele>
        <time>2017-10-18T18:11:08Z</time>
      </trkpt>
      <trkpt lat="62.641879953199" lon="17.877030816754">
        <ele>74.6</ele>
        <time>2017-10-18T18:11:09Z</time>
      </trkpt>
      <trkpt lat="62.641896214085" lon="17.876994690765">
        <ele>75</ele>
        <time>2017-10-18T18:11:10Z</time>
      </trkpt>
      <trkpt lat="62.64191758793" lon="17.876953116541">
        <ele>75.2</ele>
        <time>2017-10-18T18:11:11Z</time>
      </trkpt>
      <trkpt lat="62.641937117757" lon="17.876910285032">
        <ele>75.2</ele>
        <time>2017-10-18T18:11:12Z</time>
      </trkpt>
      <trkpt lat="62.641955809394" lon="17.876867956437">
        <ele>75.4</ele>
        <time>2017-10-18T18:11:13Z</time>
      </trkpt>
      <trkpt lat="62.641973411384" lon="17.876820011969">
        <ele>75.6</ele>
        <time>2017-10-18T18:11:14Z</time>
      </trkpt>
      <trkpt lat="62.641991264831" lon="17.87677634227">
        <ele>75.6</ele>
        <time>2017-10-18T18:11:15Z</time>
      </trkpt>
      <trkpt lat="62.642009621192" lon="17.876742060299">
        <ele>75.8</ele>
        <time>2017-10-18T18:11:16Z</time>
      </trkpt>
      <trkpt lat="62.642033174331" lon="17.876697971505">
        <ele>76</ele>
        <time>2017-10-18T18:11:17Z</time>
      </trkpt>
      <trkpt lat="62.642048177932" lon="17.876654217987">
        <ele>76</ele>
        <time>2017-10-18T18:11:18Z</time>
      </trkpt>
      <trkpt lat="62.64206510937" lon="17.87660199875">
        <ele>76.2</ele>
        <time>2017-10-18T18:11:19Z</time>
      </trkpt>
      <trkpt lat="62.642082962817" lon="17.876555479205">
        <ele>76.4</ele>
        <time>2017-10-18T18:11:20Z</time>
      </trkpt>
      <trkpt lat="62.642099307522" lon="17.876509294936">
        <ele>76.4</ele>
        <time>2017-10-18T18:11:21Z</time>
      </trkpt>
      <trkpt lat="62.642112718562" lon="17.876463278305">
        <ele>76.6</ele>
        <time>2017-10-18T18:11:22Z</time>
      </trkpt>
      <trkpt lat="62.642126381059" lon="17.876418602778">
        <ele>76.6</ele>
        <time>2017-10-18T18:11:23Z</time>
      </trkpt>
      <trkpt lat="62.642144485963" lon="17.876376022726">
        <ele>76.8</ele>
        <time>2017-10-18T18:11:24Z</time>
      </trkpt>
      <trkpt lat="62.642160411573" lon="17.876338304176">
        <ele>77</ele>
        <time>2017-10-18T18:11:25Z</time>
      </trkpt>
      <trkpt lat="62.642173990251" lon="17.87629941216">
        <ele>77.2</ele>
        <time>2017-10-18T18:11:26Z</time>
      </trkpt>
      <trkpt lat="62.642186395463" lon="17.876262280343">
        <ele>77.2</ele>
        <time>2017-10-18T18:11:27Z</time>
      </trkpt>
      <trkpt lat="62.64220257253" lon="17.87623403334">
        <ele>77.4</ele>
        <time>2017-10-18T18:11:28Z</time>
      </trkpt>
      <trkpt lat="62.642226125669" lon="17.876196063333">
        <ele>77.6</ele>
        <time>2017-10-18T18:11:29Z</time>
      </trkpt>
      <trkpt lat="62.642248253885" lon="17.876159853525">
        <ele>77.6</ele>
        <time>2017-10-18T18:11:30Z</time>
      </trkpt>
      <trkpt lat="62.642269543911" lon="17.876125655373">
        <ele>77.6</ele>
        <time>2017-10-18T18:11:31Z</time>
      </trkpt>
      <trkpt lat="62.64229477343" lon="17.876086260443">
        <ele>78</ele>
        <time>2017-10-18T18:11:32Z</time>
      </trkpt>
      <trkpt lat="62.642317656017" lon="17.87604879335">
        <ele>78</ele>
        <time>2017-10-18T18:11:33Z</time>
      </trkpt>
      <trkpt lat="62.642342466441" lon="17.876012164447">
        <ele>78</ele>
        <time>2017-10-18T18:11:34Z</time>
      </trkpt>
      <trkpt lat="62.64236685777" lon="17.875977295743">
        <ele>78</ele>
        <time>2017-10-18T18:11:35Z</time>
      </trkpt>
      <trkpt lat="62.642389405081" lon="17.875942175582">
        <ele>78.2</ele>
        <time>2017-10-18T18:11:36Z</time>
      </trkpt>
      <trkpt lat="62.642410862745" lon="17.875907893611">
        <ele>78</ele>
        <time>2017-10-18T18:11:37Z</time>
      </trkpt>
      <trkpt lat="62.642428297097" lon="17.875876042391">
        <ele>78</ele>
        <time>2017-10-18T18:11:38Z</time>
      </trkpt>
      <trkpt lat="62.642447994562" lon="17.875841508963">
        <ele>78</ele>
        <time>2017-10-18T18:11:39Z</time>
      </trkpt>
      <trkpt lat="62.642468362579" lon="17.875810160657">
        <ele>78.2</ele>
        <time>2017-10-18T18:11:40Z</time>
      </trkpt>
      <trkpt lat="62.642491915718" lon="17.875777135971">
        <ele>78.2</ele>
        <time>2017-10-18T18:11:41Z</time>
      </trkpt>
      <trkpt lat="62.642510691174" lon="17.875747799321">
        <ele>78</ele>
        <time>2017-10-18T18:11:42Z</time>
      </trkpt>
      <trkpt lat="62.642530472458" lon="17.875716283377">
        <ele>78</ele>
        <time>2017-10-18T18:11:43Z</time>
      </trkpt>
      <trkpt lat="62.642556875443" lon="17.875676217895">
        <ele>78</ele>
        <time>2017-10-18T18:11:44Z</time>
      </trkpt>
      <trkpt lat="62.64258562536" lon="17.875631710006">
        <ele>77.8</ele>
        <time>2017-10-18T18:11:45Z</time>
      </trkpt>
      <trkpt lat="62.642613034173" lon="17.87559114161">
        <ele>77.6</ele>
        <time>2017-10-18T18:11:46Z</time>
      </trkpt>
      <trkpt lat="62.642647735239" lon="17.875542610409">
        <ele>77.4</ele>
        <time>2017-10-18T18:11:47Z</time>
      </trkpt>
      <trkpt lat="62.642676317518" lon="17.875501874375">
        <ele>77.2</ele>
        <time>2017-10-18T18:11:48Z</time>
      </trkpt>
      <trkpt lat="62.642708671652" lon="17.875458959047">
        <ele>77</ele>
        <time>2017-10-18T18:11:49Z</time>
      </trkpt>
      <trkpt lat="62.642739349406" lon="17.875421156678">
        <ele>77</ele>
        <time>2017-10-18T18:11:50Z</time>
      </trkpt>
      <trkpt lat="62.642766590581" lon="17.875378744264">
        <ele>76.8</ele>
        <time>2017-10-18T18:11:51Z</time>
      </trkpt>
      <trkpt lat="62.642790646634" lon="17.875338343506">
        <ele>76.8</ele>
        <time>2017-10-18T18:11:52Z</time>
      </trkpt>
      <trkpt lat="62.642816630524" lon="17.87530196606">
        <ele>76.8</ele>
        <time>2017-10-18T18:11:53Z</time>
      </trkpt>
      <trkpt lat="62.642844039337" lon="17.875266426804">
        <ele>76.6</ele>
        <time>2017-10-18T18:11:54Z</time>
      </trkpt>
      <trkpt lat="62.642871615788" lon="17.875231725738">
        <ele>76.6</ele>
        <time>2017-10-18T18:11:55Z</time>
      </trkpt>
      <trkpt lat="62.642899359877" lon="17.875193755731">
        <ele>76.4</ele>
        <time>2017-10-18T18:11:56Z</time>
      </trkpt>
      <trkpt lat="62.642926014319" lon="17.875146565634">
        <ele>76.4</ele>
        <time>2017-10-18T18:11:57Z</time>
      </trkpt>
      <trkpt lat="62.642952417304" lon="17.875108763265">
        <ele>76.2</ele>
        <time>2017-10-18T18:11:58Z</time>
      </trkpt>
      <trkpt lat="62.642989297664" lon="17.875058304227">
        <ele>76</ele>
        <time>2017-10-18T18:11:59Z</time>
      </trkpt>
      <trkpt lat="62.643022657626" lon="17.87500943775">
        <ele>75.8</ele>
        <time>2017-10-18T18:12:00Z</time>
      </trkpt>
      <trkpt lat="62.643053922113" lon="17.874958475798">
        <ele>75.6</ele>
        <time>2017-10-18T18:12:01Z</time>
      </trkpt>
      <trkpt lat="62.643089712826" lon="17.874898712851">
        <ele>75.2</ele>
        <time>2017-10-18T18:12:02Z</time>
      </trkpt>
      <trkpt lat="62.643122402236" lon="17.874846493614">
        <ele>74.8</ele>
        <time>2017-10-18T18:12:03Z</time>
      </trkpt>
      <trkpt lat="62.643159450234" lon="17.874790753979">
        <ele>74.4</ele>
        <time>2017-10-18T18:12:04Z</time>
      </trkpt>
      <trkpt lat="62.643199767173" lon="17.874726297168">
        <ele>74</ele>
        <time>2017-10-18T18:12:05Z</time>
      </trkpt>
      <trkpt lat="62.643238659189" lon="17.874661672719">
        <ele>73.6</ele>
        <time>2017-10-18T18:12:06Z</time>
      </trkpt>
      <trkpt lat="62.643276713015" lon="17.874597467365">
        <ele>73.4</ele>
        <time>2017-10-18T18:12:07Z</time>
      </trkpt>
      <trkpt lat="62.643309737701" lon="17.874539129341">
        <ele>73</ele>
        <time>2017-10-18T18:12:08Z</time>
      </trkpt>
      <trkpt lat="62.643347875346" lon="17.874477522376">
        <ele>72.8</ele>
        <time>2017-10-18T18:12:09Z</time>
      </trkpt>
      <trkpt lat="62.643380480937" lon="17.874424129673">
        <ele>72.6</ele>
        <time>2017-10-18T18:12:10Z</time>
      </trkpt>
      <trkpt lat="62.643417696573" lon="17.874363863812">
        <ele>72.6</ele>
        <time>2017-10-18T18:12:11Z</time>
      </trkpt>
      <trkpt lat="62.643450972716" lon="17.874307705082">
        <ele>72.6</ele>
        <time>2017-10-18T18:12:12Z</time>
      </trkpt>
      <trkpt lat="62.643484835592" lon="17.874252803637">
        <ele>72.4</ele>
        <time>2017-10-18T18:12:13Z</time>
      </trkpt>
      <trkpt lat="62.643520793943" lon="17.874192873052">
        <ele>72.6</ele>
        <time>2017-10-18T18:12:14Z</time>
      </trkpt>
      <trkpt lat="62.643557590484" lon="17.874130763173">
        <ele>72.4</ele>
        <time>2017-10-18T18:12:15Z</time>
      </trkpt>
      <trkpt lat="62.643588519695" lon="17.874077119013">
        <ele>72.6</ele>
        <time>2017-10-18T18:12:16Z</time>
      </trkpt>
      <trkpt lat="62.643627746987" lon="17.874009896175">
        <ele>72.6</ele>
        <time>2017-10-18T18:12:17Z</time>
      </trkpt>
      <trkpt lat="62.64366102313" lon="17.873957425481">
        <ele>72.6</ele>
        <time>2017-10-18T18:12:18Z</time>
      </trkpt>
      <trkpt lat="62.64369622711" lon="17.873900931475">
        <ele>72.8</ele>
        <time>2017-10-18T18:12:19Z</time>
      </trkpt>
      <trkpt lat="62.643726988683" lon="17.873846365306">
        <ele>72.8</ele>
        <time>2017-10-18T18:12:20Z</time>
      </trkpt>
      <trkpt lat="62.643754481315" lon="17.873789536024">
        <ele>73</ele>
        <time>2017-10-18T18:12:21Z</time>
      </trkpt>
      <trkpt lat="62.643776609531" lon="17.873734634579">
        <ele>73.2</ele>
        <time>2017-10-18T18:12:22Z</time>
      </trkpt>
      <trkpt lat="62.643799743575" lon="17.873673949623">
        <ele>73.4</ele>
        <time>2017-10-18T18:12:23Z</time>
      </trkpt>
      <trkpt lat="62.643823548171" lon="17.873607732613">
        <ele>73.4</ele>
        <time>2017-10-18T18:12:24Z</time>
      </trkpt>
      <trkpt lat="62.64384458674" lon="17.873540845051">
        <ele>73.4</ele>
        <time>2017-10-18T18:12:25Z</time>
      </trkpt>
      <trkpt lat="62.643865290033" lon="17.873476052964">
        <ele>73.4</ele>
        <time>2017-10-18T18:12:26Z</time>
      </trkpt>
      <trkpt lat="62.643883478756" lon="17.873410674144">
        <ele>73.6</ele>
        <time>2017-10-18T18:12:27Z</time>
      </trkpt>
      <trkpt lat="62.643901164565" lon="17.873351833206">
        <ele>73.8</ele>
        <time>2017-10-18T18:12:28Z</time>
      </trkpt>
      <trkpt lat="62.64392672936" lon="17.873277653391">
        <ele>74</ele>
        <time>2017-10-18T18:12:29Z</time>
      </trkpt>
      <trkpt lat="62.643949444309" lon="17.873214705322">
        <ele>74.2</ele>
        <time>2017-10-18T18:12:30Z</time>
      </trkpt>
      <trkpt lat="62.643970985792" lon="17.87315703785">
        <ele>74.2</ele>
        <time>2017-10-18T18:12:31Z</time>
      </trkpt>
      <trkpt lat="62.643993952198" lon="17.873093670686">
        <ele>74.4</ele>
        <time>2017-10-18T18:12:32Z</time>
      </trkpt>
      <trkpt lat="62.644011805645" lon="17.873041870544">
        <ele>74.4</ele>
        <time>2017-10-18T18:12:33Z</time>
      </trkpt>
      <trkpt lat="62.644031251653" lon="17.872991495325">
        <ele>74.6</ele>
        <time>2017-10-18T18:12:34Z</time>
      </trkpt>
      <trkpt lat="62.644053715145" lon="17.872941874477">
        <ele>74.6</ele>
        <time>2017-10-18T18:12:35Z</time>
      </trkpt>
      <trkpt lat="62.644074166981" lon="17.872895354932">
        <ele>74.8</ele>
        <time>2017-10-18T18:12:36Z</time>
      </trkpt>
      <trkpt lat="62.644093612989" lon="17.872849757396">
        <ele>75.2</ele>
        <time>2017-10-18T18:12:37Z</time>
      </trkpt>
      <trkpt lat="62.644112220807" lon="17.872807177344">
        <ele>75.6</ele>
        <time>2017-10-18T18:12:38Z</time>
      </trkpt>
      <trkpt lat="62.644134432842" lon="17.872761747446">
        <ele>75.8</ele>
        <time>2017-10-18T18:12:39Z</time>
      </trkpt>
      <trkpt lat="62.644153711212" lon="17.872718496842">
        <ele>76</ele>
        <time>2017-10-18T18:12:40Z</time>
      </trkpt>
      <trkpt lat="62.644173827772" lon="17.872665104139">
        <ele>76</ele>
        <time>2017-10-18T18:12:41Z</time>
      </trkpt>
      <trkpt lat="62.644190926848" lon="17.872612968721">
        <ele>76</ele>
        <time>2017-10-18T18:12:42Z</time>
      </trkpt>
      <trkpt lat="62.644205511354" lon="17.872561168579">
        <ele>76.2</ele>
        <time>2017-10-18T18:12:43Z</time>
      </trkpt>
      <trkpt lat="62.644222945706" lon="17.872502160003">
        <ele>76.2</ele>
        <time>2017-10-18T18:12:44Z</time>
      </trkpt>
      <trkpt lat="62.644239793325" lon="17.87244625273">
        <ele>76.4</ele>
        <time>2017-10-18T18:12:45Z</time>
      </trkpt>
      <trkpt lat="62.644254377831" lon="17.872396212787">
        <ele>76.6</ele>
        <time>2017-10-18T18:12:46Z</time>
      </trkpt>
      <trkpt lat="62.644271979821" lon="17.872333767632">
        <ele>76.8</ele>
        <time>2017-10-18T18:12:47Z</time>
      </trkpt>
      <trkpt lat="62.644283295386" lon="17.872278027997">
        <ele>76.8</ele>
        <time>2017-10-18T18:12:48Z</time>
      </trkpt>
      <trkpt lat="62.644296874064" lon="17.87221575048">
        <ele>77</ele>
        <time>2017-10-18T18:12:49Z</time>
      </trkpt>
      <trkpt lat="62.644307602896" lon="17.872160178483">
        <ele>77</ele>
        <time>2017-10-18T18:12:50Z</time>
      </trkpt>
      <trkpt lat="62.644317158262" lon="17.872104019753">
        <ele>77</ele>
        <time>2017-10-18T18:12:51Z</time>
      </trkpt>
      <trkpt lat="62.64432822237" lon="17.872054650362">
        <ele>77.2</ele>
        <time>2017-10-18T18:12:52Z</time>
      </trkpt>
      <trkpt lat="62.644345321446" lon="17.8720045266">
        <ele>77.2</ele>
        <time>2017-10-18T18:12:53Z</time>
      </trkpt>
      <trkpt lat="62.644359905952" lon="17.871949541336">
        <ele>77.4</ele>
        <time>2017-10-18T18:12:54Z</time>
      </trkpt>
      <trkpt lat="62.644371221517" lon="17.871886174172">
        <ele>77.4</ele>
        <time>2017-10-18T18:12:55Z</time>
      </trkpt>
      <trkpt lat="62.644382034168" lon="17.871819957162">
        <ele>77.8</ele>
        <time>2017-10-18T18:12:56Z</time>
      </trkpt>
      <trkpt lat="62.64439360119" lon="17.871755165075">
        <ele>78</ele>
        <time>2017-10-18T18:12:57Z</time>
      </trkpt>
      <trkpt lat="62.644401061081" lon="17.871693641929">
        <ele>78</ele>
        <time>2017-10-18T18:12:58Z</time>
      </trkpt>
      <trkpt lat="62.644409023886" lon="17.871615774078">
        <ele>78.2</ele>
        <time>2017-10-18T18:12:59Z</time>
      </trkpt>
      <trkpt lat="62.644415645587" lon="17.871547042498">
        <ele>78.2</ele>
        <time>2017-10-18T18:13:00Z</time>
      </trkpt>
      <trkpt lat="62.644424446582" lon="17.871486189904">
        <ele>78</ele>
        <time>2017-10-18T18:13:01Z</time>
      </trkpt>
      <trkpt lat="62.644431990292" lon="17.871414943754">
        <ele>78</ele>
        <time>2017-10-18T18:13:02Z</time>
      </trkpt>
      <trkpt lat="62.644434085767" lon="17.871351408952">
        <ele>78</ele>
        <time>2017-10-18T18:13:03Z</time>
      </trkpt>
      <trkpt lat="62.64443718707" lon="17.871284605209">
        <ele>78</ele>
        <time>2017-10-18T18:13:04Z</time>
      </trkpt>
      <trkpt lat="62.644439785459" lon="17.871213442878">
        <ele>78</ele>
        <time>2017-10-18T18:13:05Z</time>
      </trkpt>
      <trkpt lat="62.644443976409" lon="17.871142699642">
        <ele>78</ele>
        <time>2017-10-18T18:13:06Z</time>
      </trkpt>
      <trkpt lat="62.644449005549" lon="17.871074722433">
        <ele>78</ele>
        <time>2017-10-18T18:13:07Z</time>
      </trkpt>
      <trkpt lat="62.644454286146" lon="17.871007667233">
        <ele>77.8</ele>
        <time>2017-10-18T18:13:08Z</time>
      </trkpt>
      <trkpt lat="62.644461578399" lon="17.870939270929">
        <ele>78</ele>
        <time>2017-10-18T18:13:09Z</time>
      </trkpt>
      <trkpt lat="62.644468032462" lon="17.870879005068">
        <ele>78</ele>
        <time>2017-10-18T18:13:10Z</time>
      </trkpt>
      <trkpt lat="62.644472307231" lon="17.870810441126">
        <ele>78.2</ele>
        <time>2017-10-18T18:13:11Z</time>
      </trkpt>
      <trkpt lat="62.644479348027" lon="17.870751348731">
        <ele>78.4</ele>
        <time>2017-10-18T18:13:12Z</time>
      </trkpt>
      <trkpt lat="62.644486891737" lon="17.870699883865">
        <ele>78.6</ele>
        <time>2017-10-18T18:13:13Z</time>
      </trkpt>
      <trkpt lat="62.644493513438" lon="17.870638444538">
        <ele>79</ele>
        <time>2017-10-18T18:13:14Z</time>
      </trkpt>
      <trkpt lat="62.644498961673" lon="17.870579855057">
        <ele>79</ele>
        <time>2017-10-18T18:13:15Z</time>
      </trkpt>
      <trkpt lat="62.644504829003" lon="17.870534760435">
        <ele>79.2</ele>
        <time>2017-10-18T18:13:16Z</time>
      </trkpt>
      <trkpt lat="62.644512791808" lon="17.870474243117">
        <ele>79.4</ele>
        <time>2017-10-18T18:13:17Z</time>
      </trkpt>
      <trkpt lat="62.644517737129" lon="17.87042202388">
        <ele>79.8</ele>
        <time>2017-10-18T18:13:18Z</time>
      </trkpt>
      <trkpt lat="62.644521089889" lon="17.870363266761">
        <ele>80</ele>
        <time>2017-10-18T18:13:19Z</time>
      </trkpt>
      <trkpt lat="62.644522766269" lon="17.870307778583">
        <ele>80.6</ele>
        <time>2017-10-18T18:13:20Z</time>
      </trkpt>
      <trkpt lat="62.644522430993" lon="17.870250278749">
        <ele>80.8</ele>
        <time>2017-10-18T18:13:21Z</time>
      </trkpt>
      <trkpt lat="62.644524694106" lon="17.870191605449">
        <ele>81</ele>
        <time>2017-10-18T18:13:22Z</time>
      </trkpt>
      <trkpt lat="62.644530645255" lon="17.870134859986">
        <ele>81</ele>
        <time>2017-10-18T18:13:23Z</time>
      </trkpt>
      <trkpt lat="62.644536261128" lon="17.870075516134">
        <ele>81</ele>
        <time>2017-10-18T18:13:24Z</time>
      </trkpt>
      <trkpt lat="62.644543469562" lon="17.870027404028">
        <ele>81</ele>
        <time>2017-10-18T18:13:25Z</time>
      </trkpt>
      <trkpt lat="62.644552186738" lon="17.869953140394">
        <ele>81</ele>
        <time>2017-10-18T18:13:26Z</time>
      </trkpt>
      <trkpt lat="62.644559478991" lon="17.86988642047">
        <ele>81</ele>
        <time>2017-10-18T18:13:27Z</time>
      </trkpt>
      <trkpt lat="62.644565346321" lon="17.869827495713">
        <ele>81</ele>
        <time>2017-10-18T18:13:28Z</time>
      </trkpt>
      <trkpt lat="62.644570040185" lon="17.869754657002">
        <ele>81.2</ele>
        <time>2017-10-18T18:13:29Z</time>
      </trkpt>
      <trkpt lat="62.644575153144" lon="17.869693301494">
        <ele>81.4</ele>
        <time>2017-10-18T18:13:30Z</time>
      </trkpt>
      <trkpt lat="62.644581188112" lon="17.869635047289">
        <ele>81.6</ele>
        <time>2017-10-18T18:13:31Z</time>
      </trkpt>
      <trkpt lat="62.644586887804" lon="17.869568997917">
        <ele>81.6</ele>
        <time>2017-10-18T18:13:32Z</time>
      </trkpt>
      <trkpt lat="62.644593593324" lon="17.869511917178">
        <ele>81.8</ele>
        <time>2017-10-18T18:13:33Z</time>
      </trkpt>
      <trkpt lat="62.644600047387" lon="17.869450142575">
        <ele>81.8</ele>
        <time>2017-10-18T18:13:34Z</time>
      </trkpt>
      <trkpt lat="62.644605495622" lon="17.869380069891">
        <ele>82</ele>
        <time>2017-10-18T18:13:35Z</time>
      </trkpt>
      <trkpt lat="62.64460733964" lon="17.86930806937">
        <ele>82</ele>
        <time>2017-10-18T18:13:36Z</time>
      </trkpt>
      <trkpt lat="62.644612117323" lon="17.869235649754">
        <ele>82.2</ele>
        <time>2017-10-18T18:13:37Z</time>
      </trkpt>
      <trkpt lat="62.644616811187" lon="17.869169935658">
        <ele>82.2</ele>
        <time>2017-10-18T18:13:38Z</time>
      </trkpt>
      <trkpt lat="62.644619493395" lon="17.869090056151">
        <ele>82.4</ele>
        <time>2017-10-18T18:13:39Z</time>
      </trkpt>
      <trkpt lat="62.644622678517" lon="17.869022330399">
        <ele>82.4</ele>
        <time>2017-10-18T18:13:40Z</time>
      </trkpt>
      <trkpt lat="62.64462913258" lon="17.868940858331">
        <ele>82.4</ele>
        <time>2017-10-18T18:13:41Z</time>
      </trkpt>
      <trkpt lat="62.644634832272" lon="17.868866929973">
        <ele>82.4</ele>
        <time>2017-10-18T18:13:42Z</time>
      </trkpt>
      <trkpt lat="62.644641537792" lon="17.868804987732">
        <ele>82.6</ele>
        <time>2017-10-18T18:13:43Z</time>
      </trkpt>
      <trkpt lat="62.644650506425" lon="17.868740866197">
        <ele>82.6</ele>
        <time>2017-10-18T18:13:44Z</time>
      </trkpt>
      <trkpt lat="62.644658553049" lon="17.868680097422">
        <ele>82.8</ele>
        <time>2017-10-18T18:13:45Z</time>
      </trkpt>
      <trkpt lat="62.644663833646" lon="17.86862075357">
        <ele>82.8</ele>
        <time>2017-10-18T18:13:46Z</time>
      </trkpt>
      <trkpt lat="62.644672299365" lon="17.868545400289">
        <ele>83</ele>
        <time>2017-10-18T18:13:47Z</time>
      </trkpt>
      <trkpt lat="62.644680178351" lon="17.868481697849">
        <ele>82.8</ele>
        <time>2017-10-18T18:13:48Z</time>
      </trkpt>
      <trkpt lat="62.644689985174" lon="17.868410703156">
        <ele>83</ele>
        <time>2017-10-18T18:13:49Z</time>
      </trkpt>
      <trkpt lat="62.644699121445" lon="17.868346078707">
        <ele>83</ele>
        <time>2017-10-18T18:13:50Z</time>
      </trkpt>
      <trkpt lat="62.64470792244" lon="17.868276592756">
        <ele>83.2</ele>
        <time>2017-10-18T18:13:51Z</time>
      </trkpt>
      <trkpt lat="62.644716891073" lon="17.868212387402">
        <ele>83.2</ele>
        <time>2017-10-18T18:13:52Z</time>
      </trkpt>
      <trkpt lat="62.644729463923" lon="17.868149020238">
        <ele>83.2</ele>
        <time>2017-10-18T18:13:53Z</time>
      </trkpt>
      <trkpt lat="62.644740025117" lon="17.868083892875">
        <ele>83.2</ele>
        <time>2017-10-18T18:13:54Z</time>
      </trkpt>
      <trkpt lat="62.644752597967" lon="17.868025387213">
        <ele>83</ele>
        <time>2017-10-18T18:13:55Z</time>
      </trkpt>
      <trkpt lat="62.644764248808" lon="17.867969060845">
        <ele>83.2</ele>
        <time>2017-10-18T18:13:56Z</time>
      </trkpt>
      <trkpt lat="62.644776318744" lon="17.867912650658">
        <ele>83.2</ele>
        <time>2017-10-18T18:13:57Z</time>
      </trkpt>
      <trkpt lat="62.644790735612" lon="17.867861940163">
        <ele>83.2</ele>
        <time>2017-10-18T18:13:58Z</time>
      </trkpt>
      <trkpt lat="62.644810935991" lon="17.867801925759">
        <ele>83.4</ele>
        <time>2017-10-18T18:13:59Z</time>
      </trkpt>
      <trkpt lat="62.644831471646" lon="17.867735122016">
        <ele>83.4</ele>
        <time>2017-10-18T18:14:00Z</time>
      </trkpt>
      <trkpt lat="62.644846642885" lon="17.867676448716">
        <ele>83.4</ele>
        <time>2017-10-18T18:14:01Z</time>
      </trkpt>
      <trkpt lat="62.644864496332" lon="17.867616266674">
        <ele>83.6</ele>
        <time>2017-10-18T18:14:02Z</time>
      </trkpt>
      <trkpt lat="62.644880086666" lon="17.867562538695">
        <ele>83.6</ele>
        <time>2017-10-18T18:14:03Z</time>
      </trkpt>
      <trkpt lat="62.644897269561" lon="17.867506882879">
        <ele>83.6</ele>
        <time>2017-10-18T18:14:04Z</time>
      </trkpt>
      <trkpt lat="62.644915290646" lon="17.867447455208">
        <ele>83.6</ele>
        <time>2017-10-18T18:14:05Z</time>
      </trkpt>
      <trkpt lat="62.644931635351" lon="17.867395068333">
        <ele>83.8</ele>
        <time>2017-10-18T18:14:06Z</time>
      </trkpt>
      <trkpt lat="62.644944962572" lon="17.867338909603">
        <ele>83.8</ele>
        <time>2017-10-18T18:14:07Z</time>
      </trkpt>
      <trkpt lat="62.644959714716" lon="17.867289959307">
        <ele>83.8</ele>
        <time>2017-10-18T18:14:08Z</time>
      </trkpt>
      <trkpt lat="62.644975472688" lon="17.867238159165">
        <ele>84</ele>
        <time>2017-10-18T18:14:09Z</time>
      </trkpt>
      <trkpt lat="62.644984692778" lon="17.867191388163">
        <ele>84.4</ele>
        <time>2017-10-18T18:14:10Z</time>
      </trkpt>
      <trkpt lat="62.644995253972" lon="17.86714553917">
        <ele>84.4</ele>
        <time>2017-10-18T18:14:11Z</time>
      </trkpt>
      <trkpt lat="62.64500380351" lon="17.867103210575">
        <ele>84.4</ele>
        <time>2017-10-18T18:14:12Z</time>
      </trkpt>
      <trkpt lat="62.645012017772" lon="17.86706591112">
        <ele>85</ele>
        <time>2017-10-18T18:14:13Z</time>
      </trkpt>
      <trkpt lat="62.645021824595" lon="17.86702651619">
        <ele>85.2</ele>
        <time>2017-10-18T18:14:14Z</time>
      </trkpt>
      <trkpt lat="62.645032972522" lon="17.866984774328">
        <ele>85.6</ele>
        <time>2017-10-18T18:14:15Z</time>
      </trkpt>
      <trkpt lat="62.64504236025" lon="17.866943367742">
        <ele>86.2</ele>
        <time>2017-10-18T18:14:16Z</time>
      </trkpt>
      <trkpt lat="62.645054346367" lon="17.866894501265">
        <ele>86.4</ele>
        <time>2017-10-18T18:14:17Z</time>
      </trkpt>
      <trkpt lat="62.645065913389" lon="17.866854854878">
        <ele>86.6</ele>
        <time>2017-10-18T18:14:18Z</time>
      </trkpt>
      <trkpt lat="62.6450800788" lon="17.866808000057">
        <ele>87</ele>
        <time>2017-10-18T18:14:19Z</time>
      </trkpt>
      <trkpt lat="62.645096088229" lon="17.866767934575">
        <ele>87.2</ele>
        <time>2017-10-18T18:14:20Z</time>
      </trkpt>
      <trkpt lat="62.645112432934" lon="17.866729880749">
        <ele>87.4</ele>
        <time>2017-10-18T18:14:21Z</time>
      </trkpt>
      <trkpt lat="62.645129196734" lon="17.866697861891">
        <ele>87.6</ele>
        <time>2017-10-18T18:14:22Z</time>
      </trkpt>
      <trkpt lat="62.645147134" lon="17.866664082834">
        <ele>88</ele>
        <time>2017-10-18T18:14:23Z</time>
      </trkpt>
      <trkpt lat="62.645165071266" lon="17.866627621569">
        <ele>88.2</ele>
        <time>2017-10-18T18:14:24Z</time>
      </trkpt>
      <trkpt lat="62.645183343808" lon="17.866589651562">
        <ele>88.4</ele>
        <time>2017-10-18T18:14:25Z</time>
      </trkpt>
      <trkpt lat="62.645201532531" lon="17.86655126246">
        <ele>88.6</ele>
        <time>2017-10-18T18:14:26Z</time>
      </trkpt>
      <trkpt lat="62.645219637435" lon="17.866520836163">
        <ele>89</ele>
        <time>2017-10-18T18:14:27Z</time>
      </trkpt>
      <trkpt lat="62.645233048475" lon="17.866494768454">
        <ele>89</ele>
        <time>2017-10-18T18:14:28Z</time>
      </trkpt>
      <trkpt lat="62.645249896094" lon="17.866461240854">
        <ele>89.2</ele>
        <time>2017-10-18T18:14:29Z</time>
      </trkpt>
      <trkpt lat="62.645269258283" lon="17.866429138177">
        <ele>89.2</ele>
        <time>2017-10-18T18:14:30Z</time>
      </trkpt>
      <trkpt lat="62.64528627354" lon="17.866400052984">
        <ele>89.6</ele>
        <time>2017-10-18T18:14:31Z</time>
      </trkpt>
      <trkpt lat="62.645305300453" lon="17.866360658054">
        <ele>90</ele>
        <time>2017-10-18T18:14:32Z</time>
      </trkpt>
      <trkpt lat="62.645323070081" lon="17.866324783522">
        <ele>90.4</ele>
        <time>2017-10-18T18:14:33Z</time>
      </trkpt>
      <trkpt lat="62.645341342623" lon="17.866288238438">
        <ele>90.8</ele>
        <time>2017-10-18T18:14:34Z</time>
      </trkpt>
      <trkpt lat="62.645361375364" lon="17.866252950639">
        <ele>91.2</ele>
        <time>2017-10-18T18:14:35Z</time>
      </trkpt>
      <trkpt lat="62.645382162476" lon="17.866224200722">
        <ele>91.2</ele>
        <time>2017-10-18T18:14:36Z</time>
      </trkpt>
      <trkpt lat="62.645401440846" lon="17.866193690606">
        <ele>91.6</ele>
        <time>2017-10-18T18:14:37Z</time>
      </trkpt>
      <trkpt lat="62.645417450275" lon="17.866167287621">
        <ele>91.8</ele>
        <time>2017-10-18T18:14:38Z</time>
      </trkpt>
      <trkpt lat="62.645434968446" lon="17.866137112781">
        <ele>92</ele>
        <time>2017-10-18T18:14:39Z</time>
      </trkpt>
      <trkpt lat="62.645450474961" lon="17.866110625977">
        <ele>92.2</ele>
        <time>2017-10-18T18:14:40Z</time>
      </trkpt>
      <trkpt lat="62.645467657856" lon="17.866077349834">
        <ele>92.4</ele>
        <time>2017-10-18T18:14:41Z</time>
      </trkpt>
      <trkpt lat="62.645484756932" lon="17.866044744243">
        <ele>92.6</ele>
        <time>2017-10-18T18:14:42Z</time>
      </trkpt>
      <trkpt lat="62.645496323954" lon="17.866006019865">
        <ele>93</ele>
        <time>2017-10-18T18:14:43Z</time>
      </trkpt>
      <trkpt lat="62.645508226252" lon="17.86597207317">
        <ele>93.2</ele>
        <time>2017-10-18T18:14:44Z</time>
      </trkpt>
      <trkpt lat="62.645522894577" lon="17.865932594421">
        <ele>93.4</ele>
        <time>2017-10-18T18:14:45Z</time>
      </trkpt>
      <trkpt lat="62.645536640893" lon="17.86589747426">
        <ele>93.6</ele>
        <time>2017-10-18T18:14:46Z</time>
      </trkpt>
      <trkpt lat="62.645554661978" lon="17.865854642751">
        <ele>93.8</ele>
        <time>2017-10-18T18:14:47Z</time>
      </trkpt>
      <trkpt lat="62.645570503769" lon="17.865825054644">
        <ele>94</ele>
        <time>2017-10-18T18:14:48Z</time>
      </trkpt>
      <trkpt lat="62.645587938121" lon="17.865795550356">
        <ele>94</ele>
        <time>2017-10-18T18:14:49Z</time>
      </trkpt>
      <trkpt lat="62.645602187351" lon="17.865766632801">
        <ele>94.4</ele>
        <time>2017-10-18T18:14:50Z</time>
      </trkpt>
      <trkpt lat="62.645618364418" lon="17.865738804893">
        <ele>94.8</ele>
        <time>2017-10-18T18:14:51Z</time>
      </trkpt>
      <trkpt lat="62.645635295856" lon="17.865709971157">
        <ele>95.2</ele>
        <time>2017-10-18T18:14:52Z</time>
      </trkpt>
      <trkpt lat="62.645652981665" lon="17.865679712498">
        <ele>95.6</ele>
        <time>2017-10-18T18:14:53Z</time>
      </trkpt>
      <trkpt lat="62.645675528976" lon="17.865654818255">
        <ele>95.8</ele>
        <time>2017-10-18T18:14:54Z</time>
      </trkpt>
      <trkpt lat="62.645694052975" lon="17.865622631759">
        <ele>96</ele>
        <time>2017-10-18T18:14:55Z</time>
      </trkpt>
      <trkpt lat="62.645711738784" lon="17.865592037824">
        <ele>96.2</ele>
        <time>2017-10-18T18:14:56Z</time>
      </trkpt>
      <trkpt lat="62.64572883786" lon="17.865558426405">
        <ele>96.2</ele>
        <time>2017-10-18T18:14:57Z</time>
      </trkpt>
      <trkpt lat="62.64574392528" lon="17.865532442515">
        <ele>96.2</ele>
        <time>2017-10-18T18:14:58Z</time>
      </trkpt>
      <trkpt lat="62.645762868374" lon="17.865499082553">
        <ele>96.6</ele>
        <time>2017-10-18T18:14:59Z</time>
      </trkpt>
      <trkpt lat="62.645777369061" lon="17.865471254645">
        <ele>96.8</ele>
        <time>2017-10-18T18:15:00Z</time>
      </trkpt>
      <trkpt lat="62.645792288843" lon="17.865450216076">
        <ele>97</ele>
        <time>2017-10-18T18:15:01Z</time>
      </trkpt>
      <trkpt lat="62.645810812842" lon="17.865421298521">
        <ele>97.4</ele>
        <time>2017-10-18T18:15:02Z</time>
      </trkpt>
      <trkpt lat="62.645827073728" lon="17.865385926903">
        <ele>97.6</ele>
        <time>2017-10-18T18:15:03Z</time>
      </trkpt>
      <trkpt lat="62.645845513908" lon="17.865347286344">
        <ele>97.6</ele>
        <time>2017-10-18T18:15:04Z</time>
      </trkpt>
      <trkpt lat="62.645864876097" lon="17.865308561966">
        <ele>97.8</ele>
        <time>2017-10-18T18:15:05Z</time>
      </trkpt>
      <trkpt lat="62.645883819191" lon="17.865272687434">
        <ele>98</ele>
        <time>2017-10-18T18:15:06Z</time>
      </trkpt>
      <trkpt lat="62.645898319878" lon="17.865233460142">
        <ele>98.2</ele>
        <time>2017-10-18T18:15:07Z</time>
      </trkpt>
      <trkpt lat="62.645910389814" lon="17.865198172343">
        <ele>98.4</ele>
        <time>2017-10-18T18:15:08Z</time>
      </trkpt>
      <trkpt lat="62.64592832708" lon="17.865160286155">
        <ele>98.8</ele>
        <time>2017-10-18T18:15:09Z</time>
      </trkpt>
      <trkpt lat="62.64594425269" lon="17.865126088003">
        <ele>99</ele>
        <time>2017-10-18T18:15:10Z</time>
      </trkpt>
      <trkpt lat="62.645961267947" lon="17.865083424132">
        <ele>99.2</ele>
        <time>2017-10-18T18:15:11Z</time>
      </trkpt>
      <trkpt lat="62.645975181901" lon="17.865042436641">
        <ele>99.4</ele>
        <time>2017-10-18T18:15:12Z</time>
      </trkpt>
      <trkpt lat="62.645987503294" lon="17.86500480191">
        <ele>99.6</ele>
        <time>2017-10-18T18:15:13Z</time>
      </trkpt>
      <trkpt lat="62.645998567402" lon="17.864963395324">
        <ele>100</ele>
        <time>2017-10-18T18:15:14Z</time>
      </trkpt>
      <trkpt lat="62.646009380053" lon="17.86491930653">
        <ele>100.2</ele>
        <time>2017-10-18T18:15:15Z</time>
      </trkpt>
      <trkpt lat="62.646021533808" lon="17.864879995419">
        <ele>100.4</ele>
        <time>2017-10-18T18:15:16Z</time>
      </trkpt>
      <trkpt lat="62.646036537409" lon="17.864829452562">
        <ele>100.6</ele>
        <time>2017-10-18T18:15:17Z</time>
      </trkpt>
      <trkpt lat="62.646048104431" lon="17.86478603432">
        <ele>100.8</ele>
        <time>2017-10-18T18:15:18Z</time>
      </trkpt>
      <trkpt lat="62.646057492159" lon="17.864737838395">
        <ele>101</ele>
        <time>2017-10-18T18:15:19Z</time>
      </trkpt>
      <trkpt lat="62.646065874059" lon="17.864693162868">
        <ele>101</ele>
        <time>2017-10-18T18:15:20Z</time>
      </trkpt>
      <trkpt lat="62.646075345606" lon="17.864650750454">
        <ele>100.8</ele>
        <time>2017-10-18T18:15:21Z</time>
      </trkpt>
      <trkpt lat="62.646084649515" lon="17.864616887578">
        <ele>100.8</ele>
        <time>2017-10-18T18:15:22Z</time>
      </trkpt>
      <trkpt lat="62.646093618148" lon="17.864580593951">
        <ele>101</ele>
        <time>2017-10-18T18:15:23Z</time>
      </trkpt>
      <trkpt lat="62.646100910401" lon="17.864541534297">
        <ele>100.8</ele>
        <time>2017-10-18T18:15:24Z</time>
      </trkpt>
      <trkpt lat="62.646108118835" lon="17.864503815747">
        <ele>100.8</ele>
        <time>2017-10-18T18:15:25Z</time>
      </trkpt>
      <trkpt lat="62.646116249278" lon="17.864472132165">
        <ele>101</ele>
        <time>2017-10-18T18:15:26Z</time>
      </trkpt>
      <trkpt lat="62.646121446056" lon="17.8644440528">
        <ele>101</ele>
        <time>2017-10-18T18:15:27Z</time>
      </trkpt>
      <trkpt lat="62.646126307558" lon="17.864416979263">
        <ele>101</ele>
        <time>2017-10-18T18:15:28Z</time>
      </trkpt>
      <trkpt lat="62.646132342526" lon="17.864384122215">
        <ele>101.2</ele>
        <time>2017-10-18T18:15:29Z</time>
      </trkpt>
      <trkpt lat="62.646138126037" lon="17.864354869384">
        <ele>101.2</ele>
        <time>2017-10-18T18:15:30Z</time>
      </trkpt>
      <trkpt lat="62.646143574272" lon="17.864328717856">
        <ele>101.4</ele>
        <time>2017-10-18T18:15:31Z</time>
      </trkpt>
      <trkpt lat="62.646148268136" lon="17.864298291559">
        <ele>101.4</ele>
        <time>2017-10-18T18:15:32Z</time>
      </trkpt>
      <trkpt lat="62.646156566217" lon="17.864262836122">
        <ele>101.4</ele>
        <time>2017-10-18T18:15:33Z</time>
      </trkpt>
      <trkpt lat="62.64616385847" lon="17.864233918567">
        <ele>101.4</ele>
        <time>2017-10-18T18:15:34Z</time>
      </trkpt>
      <trkpt lat="62.646168468515" lon="17.864199385139">
        <ele>101.6</ele>
        <time>2017-10-18T18:15:35Z</time>
      </trkpt>
      <trkpt lat="62.646174503483" lon="17.86416828829">
        <ele>101.6</ele>
        <time>2017-10-18T18:15:36Z</time>
      </trkpt>
      <trkpt lat="62.646183555935" lon="17.864134173957">
        <ele>101.6</ele>
        <time>2017-10-18T18:15:37Z</time>
      </trkpt>
      <trkpt lat="62.646191099645" lon="17.864103831479">
        <ele>101.8</ele>
        <time>2017-10-18T18:15:38Z</time>
      </trkpt>
      <trkpt lat="62.646199313907" lon="17.864065945291">
        <ele>101.8</ele>
        <time>2017-10-18T18:15:39Z</time>
      </trkpt>
      <trkpt lat="62.646207779626" lon="17.86403082513">
        <ele>102</ele>
        <time>2017-10-18T18:15:40Z</time>
      </trkpt>
      <trkpt lat="62.646216245345" lon="17.863992352209">
        <ele>102</ele>
        <time>2017-10-18T18:15:41Z</time>
      </trkpt>
      <trkpt lat="62.646224627245" lon="17.863952789641">
        <ele>102</ele>
        <time>2017-10-18T18:15:42Z</time>
      </trkpt>
      <trkpt lat="62.646233260602" lon="17.863916160738">
        <ele>101.8</ele>
        <time>2017-10-18T18:15:43Z</time>
      </trkpt>
      <trkpt lat="62.646242815968" lon="17.863873496867">
        <ele>101.8</ele>
        <time>2017-10-18T18:15:44Z</time>
      </trkpt>
      <trkpt lat="62.646251952239" lon="17.863831838824">
        <ele>101.8</ele>
        <time>2017-10-18T18:15:45Z</time>
      </trkpt>
      <trkpt lat="62.6462619267" lon="17.863797305396">
        <ele>101.8</ele>
        <time>2017-10-18T18:15:46Z</time>
      </trkpt>
      <trkpt lat="62.646273996636" lon="17.863758245742">
        <ele>101.8</ele>
        <time>2017-10-18T18:15:47Z</time>
      </trkpt>
      <trkpt lat="62.646279361052" lon="17.863723125581">
        <ele>101.8</ele>
        <time>2017-10-18T18:15:48Z</time>
      </trkpt>
      <trkpt lat="62.646287323857" lon="17.86367207981">
        <ele>101.8</ele>
        <time>2017-10-18T18:15:49Z</time>
      </trkpt>
      <trkpt lat="62.64629796887" lon="17.863612987415">
        <ele>101.8</ele>
        <time>2017-10-18T18:15:50Z</time>
      </trkpt>
      <trkpt lat="62.646308362426" lon="17.863551715726">
        <ele>101.8</ele>
        <time>2017-10-18T18:15:51Z</time>
      </trkpt>
      <trkpt lat="62.64631976181" lon="17.863495724634">
        <ele>101.8</ele>
        <time>2017-10-18T18:15:52Z</time>
      </trkpt>
      <trkpt lat="62.646334430135" lon="17.863439230628">
        <ele>101.8</ele>
        <time>2017-10-18T18:15:53Z</time>
      </trkpt>
      <trkpt lat="62.646352786496" lon="17.863381060242">
        <ele>101.8</ele>
        <time>2017-10-18T18:15:54Z</time>
      </trkpt>
      <trkpt lat="62.646369550296" lon="17.863324482417">
        <ele>102</ele>
        <time>2017-10-18T18:15:55Z</time>
      </trkpt>
      <trkpt lat="62.64638430244" lon="17.863270167705">
        <ele>102</ele>
        <time>2017-10-18T18:15:56Z</time>
      </trkpt>
      <trkpt lat="62.646401150059" lon="17.863213841337">
        <ele>102</ele>
        <time>2017-10-18T18:15:57Z</time>
      </trkpt>
      <trkpt lat="62.646415147832" lon="17.863161370643">
        <ele>102</ele>
        <time>2017-10-18T18:15:58Z</time>
      </trkpt>
      <trkpt lat="62.646432414546" lon="17.863095237452">
        <ele>102</ele>
        <time>2017-10-18T18:15:59Z</time>
      </trkpt>
      <trkpt lat="62.646446663776" lon="17.863034887772">
        <ele>102</ele>
        <time>2017-10-18T18:16:00Z</time>
      </trkpt>
      <trkpt lat="62.64646057773" lon="17.862978142309">
        <ele>102</ele>
        <time>2017-10-18T18:16:01Z</time>
      </trkpt>
      <trkpt lat="62.64647817972" lon="17.86291184148">
        <ele>102</ele>
        <time>2017-10-18T18:16:02Z</time>
      </trkpt>
      <trkpt lat="62.646491171665" lon="17.862850905067">
        <ele>102</ele>
        <time>2017-10-18T18:16:03Z</time>
      </trkpt>
      <trkpt lat="62.646503241601" lon="17.862784688057">
        <ele>102</ele>
        <time>2017-10-18T18:16:04Z</time>
      </trkpt>
      <trkpt lat="62.646517490831" lon="17.862712687536">
        <ele>102</ele>
        <time>2017-10-18T18:16:05Z</time>
      </trkpt>
      <trkpt lat="62.64653685302" lon="17.862651415847">
        <ele>102</ele>
        <time>2017-10-18T18:16:06Z</time>
      </trkpt>
      <trkpt lat="62.646554538829" lon="17.862588048683">
        <ele>102</ele>
        <time>2017-10-18T18:16:07Z</time>
      </trkpt>
      <trkpt lat="62.646571973181" lon="17.862524178605">
        <ele>101.8</ele>
        <time>2017-10-18T18:16:08Z</time>
      </trkpt>
      <trkpt lat="62.646592844112" lon="17.862450417885">
        <ele>101.8</ele>
        <time>2017-10-18T18:16:09Z</time>
      </trkpt>
      <trkpt lat="62.646612038663" lon="17.862381434848">
        <ele>101.8</ele>
        <time>2017-10-18T18:16:10Z</time>
      </trkpt>
      <trkpt lat="62.646633999241" lon="17.86229996278">
        <ele>101.8</ele>
        <time>2017-10-18T18:16:11Z</time>
      </trkpt>
      <trkpt lat="62.646653780525" lon="17.86222536387">
        <ele>101.8</ele>
        <time>2017-10-18T18:16:12Z</time>
      </trkpt>
      <trkpt lat="62.646671298696" lon="17.862155626462">
        <ele>101.8</ele>
        <time>2017-10-18T18:16:13Z</time>
      </trkpt>
      <trkpt lat="62.646686553754" lon="17.862075160222">
        <ele>101.8</ele>
        <time>2017-10-18T18:16:14Z</time>
      </trkpt>
      <trkpt lat="62.646701054441" lon="17.861999639303">
        <ele>101.8</ele>
        <time>2017-10-18T18:16:15Z</time>
      </trkpt>
      <trkpt lat="62.646712621463" lon="17.861934176664">
        <ele>101.8</ele>
        <time>2017-10-18T18:16:16Z</time>
      </trkpt>
      <trkpt lat="62.64672796034" lon="17.861851866406">
        <ele>102</ele>
        <time>2017-10-18T18:16:17Z</time>
      </trkpt>
      <trkpt lat="62.646741203742" lon="17.861778692419">
        <ele>102.2</ele>
        <time>2017-10-18T18:16:18Z</time>
      </trkpt>
      <trkpt lat="62.646757380809" lon="17.861691939754">
        <ele>102.2</ele>
        <time>2017-10-18T18:16:19Z</time>
      </trkpt>
      <trkpt lat="62.646778167921" lon="17.861606863469">
        <ele>102.4</ele>
        <time>2017-10-18T18:16:20Z</time>
      </trkpt>
      <trkpt lat="62.646807001657" lon="17.861522038641">
        <ele>102.4</ele>
        <time>2017-10-18T18:16:21Z</time>
      </trkpt>
      <trkpt lat="62.646837511773" lon="17.8614433326">
        <ele>102.6</ele>
        <time>2017-10-18T18:16:22Z</time>
      </trkpt>
      <trkpt lat="62.646873553943" lon="17.861358507772">
        <ele>102.4</ele>
        <time>2017-10-18T18:16:23Z</time>
      </trkpt>
      <trkpt lat="62.646912110683" lon="17.861272425659">
        <ele>102.4</ele>
        <time>2017-10-18T18:16:24Z</time>
      </trkpt>
      <trkpt lat="62.646952679079" lon="17.86119606655">
        <ele>102.2</ele>
        <time>2017-10-18T18:16:25Z</time>
      </trkpt>
      <trkpt lat="62.646985871403" lon="17.861143428218">
        <ele>102</ele>
        <time>2017-10-18T18:16:26Z</time>
      </trkpt>
      <trkpt lat="62.647032055672" lon="17.861072768801">
        <ele>101.8</ele>
        <time>2017-10-18T18:16:27Z</time>
      </trkpt>
      <trkpt lat="62.647062230512" lon="17.861015520424">
        <ele>101.4</ele>
        <time>2017-10-18T18:16:28Z</time>
      </trkpt>
      <trkpt lat="62.647098607958" lon="17.860947627034">
        <ele>101.2</ele>
        <time>2017-10-18T18:16:29Z</time>
      </trkpt>
      <trkpt lat="62.647134650128" lon="17.860891384485">
        <ele>101</ele>
        <time>2017-10-18T18:16:30Z</time>
      </trkpt>
      <trkpt lat="62.64717052466" lon="17.860846206044">
        <ele>100.8</ele>
        <time>2017-10-18T18:16:31Z</time>
      </trkpt>
      <trkpt lat="62.647212685617" lon="17.860800021775">
        <ele>100.8</ele>
        <time>2017-10-18T18:16:32Z</time>
      </trkpt>
      <trkpt lat="62.64725350547" lon="17.860764733976">
        <ele>100.6</ele>
        <time>2017-10-18T18:16:33Z</time>
      </trkpt>
      <trkpt lat="62.647298851549" lon="17.860728021254">
        <ele>100.6</ele>
        <time>2017-10-18T18:16:34Z</time>
      </trkpt>
      <trkpt lat="62.647349226768" lon="17.860684100098">
        <ele>100.8</ele>
        <time>2017-10-18T18:16:35Z</time>
      </trkpt>
      <trkpt lat="62.647397003598" lon="17.860643364064">
        <ele>100.8</ele>
        <time>2017-10-18T18:16:36Z</time>
      </trkpt>
      <trkpt lat="62.647444948066" lon="17.860601622202">
        <ele>100.8</ele>
        <time>2017-10-18T18:16:37Z</time>
      </trkpt>
      <trkpt lat="62.647489791231" lon="17.860562981643">
        <ele>100.8</ele>
        <time>2017-10-18T18:16:38Z</time>
      </trkpt>
      <trkpt lat="62.647536897509" lon="17.860519479582">
        <ele>100.6</ele>
        <time>2017-10-18T18:16:39Z</time>
      </trkpt>
      <trkpt lat="62.647578555552" lon="17.860483688869">
        <ele>100.6</ele>
        <time>2017-10-18T18:16:40Z</time>
      </trkpt>
      <trkpt lat="62.647624907459" lon="17.860449490717">
        <ele>100.4</ele>
        <time>2017-10-18T18:16:41Z</time>
      </trkpt>
      <trkpt lat="62.647671175547" lon="17.860420573162">
        <ele>100.2</ele>
        <time>2017-10-18T18:16:42Z</time>
      </trkpt>
      <trkpt lat="62.647716437807" lon="17.860392409978">
        <ele>100</ele>
        <time>2017-10-18T18:16:43Z</time>
      </trkpt>
      <trkpt lat="62.647769159958" lon="17.86036039112">
        <ele>100</ele>
        <time>2017-10-18T18:16:44Z</time>
      </trkpt>
      <trkpt lat="62.647821546833" lon="17.860330803013">
        <ele>100</ele>
        <time>2017-10-18T18:16:45Z</time>
      </trkpt>
      <trkpt lat="62.647868066378" lon="17.86030926153">
        <ele>99.8</ele>
        <time>2017-10-18T18:16:46Z</time>
      </trkpt>
      <trkpt lat="62.647929254248" lon="17.860289815522">
        <ele>99.6</ele>
        <time>2017-10-18T18:16:47Z</time>
      </trkpt>
      <trkpt lat="62.647983317503" lon="17.86027992488">
        <ele>99.4</ele>
        <time>2017-10-18T18:16:48Z</time>
      </trkpt>
      <trkpt lat="62.648045511201" lon="17.860279254328">
        <ele>99.2</ele>
        <time>2017-10-18T18:16:49Z</time>
      </trkpt>
      <trkpt lat="62.648105609424" lon="17.860290150798">
        <ele>99</ele>
        <time>2017-10-18T18:16:50Z</time>
      </trkpt>
      <trkpt lat="62.648169060407" lon="17.860309345349">
        <ele>98.6</ele>
        <time>2017-10-18T18:16:51Z</time>
      </trkpt>
      <trkpt lat="62.648229074811" lon="17.860333820497">
        <ele>98.2</ele>
        <time>2017-10-18T18:16:52Z</time>
      </trkpt>
      <trkpt lat="62.648297974029" lon="17.86037296397">
        <ele>98</ele>
        <time>2017-10-18T18:16:53Z</time>
      </trkpt>
      <trkpt lat="62.648362682297" lon="17.860414119099">
        <ele>97.6</ele>
        <time>2017-10-18T18:16:54Z</time>
      </trkpt>
      <trkpt lat="62.648431246239" lon="17.860462398843">
        <ele>97.2</ele>
        <time>2017-10-18T18:16:55Z</time>
      </trkpt>
      <trkpt lat="62.648493356118" lon="17.860519731039">
        <ele>96.8</ele>
        <time>2017-10-18T18:16:56Z</time>
      </trkpt>
      <trkpt lat="62.648552532332" lon="17.860589384628">
        <ele>96.4</ele>
        <time>2017-10-18T18:16:57Z</time>
      </trkpt>
      <trkpt lat="62.648599219515" lon="17.860661468968">
        <ele>96.2</ele>
        <time>2017-10-18T18:16:58Z</time>
      </trkpt>
      <trkpt lat="62.648659904471" lon="17.860760459207">
        <ele>96</ele>
        <time>2017-10-18T18:16:59Z</time>
      </trkpt>
      <trkpt lat="62.648719080685" lon="17.86084486494">
        <ele>95.6</ele>
        <time>2017-10-18T18:17:00Z</time>
      </trkpt>
      <trkpt lat="62.648775742329" lon="17.860906471905">
        <ele>95.4</ele>
        <time>2017-10-18T18:17:01Z</time>
      </trkpt>
      <trkpt lat="62.648846569384" lon="17.860961121893">
        <ele>95</ele>
        <time>2017-10-18T18:17:02Z</time>
      </trkpt>
      <trkpt lat="62.648910188005" lon="17.86098735724">
        <ele>94.6</ele>
        <time>2017-10-18T18:17:03Z</time>
      </trkpt>
      <trkpt lat="62.648973890445" lon="17.860997834615">
        <ele>94.2</ele>
        <time>2017-10-18T18:17:04Z</time>
      </trkpt>
      <trkpt lat="62.649050417192" lon="17.86099490095">
        <ele>93.8</ele>
        <time>2017-10-18T18:17:05Z</time>
      </trkpt>
      <trkpt lat="62.649122166256" lon="17.860988111611">
        <ele>93.6</ele>
        <time>2017-10-18T18:17:06Z</time>
      </trkpt>
      <trkpt lat="62.64919140075" lon="17.860968833241">
        <ele>93.4</ele>
        <time>2017-10-18T18:17:07Z</time>
      </trkpt>
      <trkpt lat="62.649259880873" lon="17.860948549043">
        <ele>93.2</ele>
        <time>2017-10-18T18:17:08Z</time>
      </trkpt>
      <trkpt lat="62.649337413448" lon="17.860928767759">
        <ele>93.2</ele>
        <time>2017-10-18T18:17:09Z</time>
      </trkpt>
      <trkpt lat="62.649405390657" lon="17.860918038927">
        <ele>93.2</ele>
        <time>2017-10-18T18:17:10Z</time>
      </trkpt>
      <trkpt lat="62.64947973811" lon="17.860902113317">
        <ele>93</ele>
        <time>2017-10-18T18:17:11Z</time>
      </trkpt>
      <trkpt lat="62.649550481346" lon="17.860881912938">
        <ele>92.8</ele>
        <time>2017-10-18T18:17:12Z</time>
      </trkpt>
      <trkpt lat="62.649615105795" lon="17.860859449446">
        <ele>92.6</ele>
        <time>2017-10-18T18:17:13Z</time>
      </trkpt>
      <trkpt lat="62.649685346117" lon="17.860819132507">
        <ele>92.6</ele>
        <time>2017-10-18T18:17:14Z</time>
      </trkpt>
      <trkpt lat="62.649748042729" lon="17.860769763116">
        <ele>92.4</ele>
        <time>2017-10-18T18:17:15Z</time>
      </trkpt>
      <trkpt lat="62.649800094328" lon="17.860717208603">
        <ele>92.4</ele>
        <time>2017-10-18T18:17:16Z</time>
      </trkpt>
      <trkpt lat="62.649861030741" lon="17.860643950797">
        <ele>92.2</ele>
        <time>2017-10-18T18:17:17Z</time>
      </trkpt>
      <trkpt lat="62.649908472295" lon="17.860578991072">
        <ele>92.2</ele>
        <time>2017-10-18T18:17:18Z</time>
      </trkpt>
      <trkpt lat="62.64996253555" lon="17.860506403818">
        <ele>92.2</ele>
        <time>2017-10-18T18:17:19Z</time>
      </trkpt>
      <trkpt lat="62.650008384543" lon="17.860433146012">
        <ele>92.2</ele>
        <time>2017-10-18T18:17:20Z</time>
      </trkpt>
      <trkpt lat="62.650051635147" lon="17.860350751935">
        <ele>92.4</ele>
        <time>2017-10-18T18:17:21Z</time>
      </trkpt>
      <trkpt lat="62.65008910224" lon="17.860270285695">
        <ele>92.4</ele>
        <time>2017-10-18T18:17:22Z</time>
      </trkpt>
      <trkpt lat="62.650127156066" lon="17.860185879962">
        <ele>92.4</ele>
        <time>2017-10-18T18:17:23Z</time>
      </trkpt>
      <trkpt lat="62.650162779141" lon="17.86008965575">
        <ele>92.6</ele>
        <time>2017-10-18T18:17:24Z</time>
      </trkpt>
      <trkpt lat="62.650192870162" lon="17.859994437366">
        <ele>92.6</ele>
        <time>2017-10-18T18:17:25Z</time>
      </trkpt>
      <trkpt lat="62.650223547916" lon="17.859905673045">
        <ele>92.8</ele>
        <time>2017-10-18T18:17:26Z</time>
      </trkpt>
      <trkpt lat="62.650254309489" lon="17.859811628127">
        <ele>93</ele>
        <time>2017-10-18T18:17:27Z</time>
      </trkpt>
      <trkpt lat="62.650281215388" lon="17.859729569326">
        <ele>93</ele>
        <time>2017-10-18T18:17:28Z</time>
      </trkpt>
      <trkpt lat="62.650313820979" lon="17.859626891051">
        <ele>93</ele>
        <time>2017-10-18T18:17:29Z</time>
      </trkpt>
      <trkpt lat="62.650342906172" lon="17.859532343219">
        <ele>93</ele>
        <time>2017-10-18T18:17:30Z</time>
      </trkpt>
      <trkpt lat="62.650370147347" lon="17.859444417088">
        <ele>93</ele>
        <time>2017-10-18T18:17:31Z</time>
      </trkpt>
      <trkpt lat="62.650404429318" lon="17.859345678306">
        <ele>93.2</ele>
        <time>2017-10-18T18:17:32Z</time>
      </trkpt>
      <trkpt lat="62.650434855615" lon="17.859259093279">
        <ele>93.4</ele>
        <time>2017-10-18T18:17:33Z</time>
      </trkpt>
      <trkpt lat="62.650468550853" lon="17.859164796904">
        <ele>93.6</ele>
        <time>2017-10-18T18:17:34Z</time>
      </trkpt>
      <trkpt lat="62.650506772317" lon="17.859067818321">
        <ele>93.8</ele>
        <time>2017-10-18T18:17:35Z</time>
      </trkpt>
      <trkpt lat="62.650542814487" lon="17.858979305457">
        <ele>93.8</ele>
        <time>2017-10-18T18:17:36Z</time>
      </trkpt>
      <trkpt lat="62.650576258268" lon="17.858891546964">
        <ele>93.8</ele>
        <time>2017-10-18T18:17:37Z</time>
      </trkpt>
      <trkpt lat="62.650608612402" lon="17.858809991077">
        <ele>93.8</ele>
        <time>2017-10-18T18:17:38Z</time>
      </trkpt>
      <trkpt lat="62.650647672056" lon="17.858716784349">
        <ele>94</ele>
        <time>2017-10-18T18:17:39Z</time>
      </trkpt>
      <trkpt lat="62.650684636235" lon="17.858635479919">
        <ele>94</ele>
        <time>2017-10-18T18:17:40Z</time>
      </trkpt>
      <trkpt lat="62.650726545735" lon="17.858545458313">
        <ele>94</ele>
        <time>2017-10-18T18:17:41Z</time>
      </trkpt>
      <trkpt lat="62.65076468338" lon="17.858462645141">
        <ele>94.2</ele>
        <time>2017-10-18T18:17:42Z</time>
      </trkpt>
      <trkpt lat="62.650840791032" lon="17.858322918868">
        <ele>94.4</ele>
        <time>2017-10-18T18:17:44Z</time>
      </trkpt>
      <trkpt lat="62.650877755211" lon="17.858254774021">
        <ele>94.6</ele>
        <time>2017-10-18T18:17:45Z</time>
      </trkpt>
      <trkpt lat="62.650911785725" lon="17.858195765445">
        <ele>94.8</ele>
        <time>2017-10-18T18:17:46Z</time>
      </trkpt>
      <trkpt lat="62.650956125976" lon="17.858127117684">
        <ele>95.2</ele>
        <time>2017-10-18T18:17:47Z</time>
      </trkpt>
      <trkpt lat="62.650994598897" lon="17.858066097452">
        <ele>95.4</ele>
        <time>2017-10-18T18:17:48Z</time>
      </trkpt>
      <trkpt lat="62.65103877151" lon="17.857998958433">
        <ele>95.8</ele>
        <time>2017-10-18T18:17:49Z</time>
      </trkpt>
      <trkpt lat="62.651081770657" lon="17.857938944029">
        <ele>96</ele>
        <time>2017-10-18T18:17:50Z</time>
      </trkpt>
      <trkpt lat="62.651122339053" lon="17.857879935453">
        <ele>96.2</ele>
        <time>2017-10-18T18:17:51Z</time>
      </trkpt>
      <trkpt lat="62.651157459214" lon="17.857824614913">
        <ele>96.2</ele>
        <time>2017-10-18T18:17:52Z</time>
      </trkpt>
      <trkpt lat="62.651192244099" lon="17.857765522518">
        <ele>96.4</ele>
        <time>2017-10-18T18:17:53Z</time>
      </trkpt>
      <trkpt lat="62.651231136115" lon="17.857696036567">
        <ele>96.4</ele>
        <time>2017-10-18T18:17:54Z</time>
      </trkpt>
      <trkpt lat="62.651267765018" lon="17.857630657747">
        <ele>96.6</ele>
        <time>2017-10-18T18:17:55Z</time>
      </trkpt>
      <trkpt lat="62.651300035333" lon="17.857560501244">
        <ele>97</ele>
        <time>2017-10-18T18:17:56Z</time>
      </trkpt>
      <trkpt lat="62.651328952888" lon="17.857486405248">
        <ele>97.2</ele>
        <time>2017-10-18T18:17:57Z</time>
      </trkpt>
      <trkpt lat="62.651355188235" lon="17.85741834422">
        <ele>97.4</ele>
        <time>2017-10-18T18:17:58Z</time>
      </trkpt>
      <trkpt lat="62.651384776342" lon="17.857330250451">
        <ele>97.6</ele>
        <time>2017-10-18T18:17:59Z</time>
      </trkpt>
      <trkpt lat="62.651411263146" lon="17.857249197478">
        <ele>97.8</ele>
        <time>2017-10-18T18:18:00Z</time>
      </trkpt>
      <trkpt lat="62.65143523538" lon="17.857173676559">
        <ele>98</ele>
        <time>2017-10-18T18:18:01Z</time>
      </trkpt>
      <trkpt lat="62.6514587047" lon="17.857090025197">
        <ele>98.2</ele>
        <time>2017-10-18T18:18:02Z</time>
      </trkpt>
      <trkpt lat="62.651481252011" lon="17.857012492622">
        <ele>98.4</ele>
        <time>2017-10-18T18:18:03Z</time>
      </trkpt>
      <trkpt lat="62.651503883141" lon="17.856928925079">
        <ele>98.4</ele>
        <time>2017-10-18T18:18:04Z</time>
      </trkpt>
      <trkpt lat="62.651525424624" lon="17.856838484378">
        <ele>98.6</ele>
        <time>2017-10-18T18:18:05Z</time>
      </trkpt>
      <trkpt lat="62.651542607519" lon="17.856764388382">
        <ele>98.8</ele>
        <time>2017-10-18T18:18:06Z</time>
      </trkpt>
      <trkpt lat="62.651559874233" lon="17.85670504453">
        <ele>98.6</ele>
        <time>2017-10-18T18:18:07Z</time>
      </trkpt>
      <trkpt lat="62.651575045472" lon="17.85665810589">
        <ele>98.8</ele>
        <time>2017-10-18T18:18:08Z</time>
      </trkpt>
      <trkpt lat="62.651596670774" lon="17.856601611884">
        <ele>98.8</ele>
        <time>2017-10-18T18:18:09Z</time>
      </trkpt>
      <trkpt lat="62.651619972456" lon="17.85654578843">
        <ele>99</ele>
        <time>2017-10-18T18:18:10Z</time>
      </trkpt>
      <trkpt lat="62.651649979658" lon="17.856482672723">
        <ele>99</ele>
        <time>2017-10-18T18:18:11Z</time>
      </trkpt>
      <trkpt lat="62.651678645756" lon="17.856421652491">
        <ele>99</ele>
        <time>2017-10-18T18:18:12Z</time>
      </trkpt>
      <trkpt lat="62.651706892759" lon="17.856365409942">
        <ele>99.2</ele>
        <time>2017-10-18T18:18:13Z</time>
      </trkpt>
      <trkpt lat="62.651738995436" lon="17.856313693619">
        <ele>99.4</ele>
        <time>2017-10-18T18:18:14Z</time>
      </trkpt>
      <trkpt lat="62.651768751181" lon="17.856272622309">
        <ele>99.6</ele>
        <time>2017-10-18T18:18:15Z</time>
      </trkpt>
      <trkpt lat="62.651798087831" lon="17.856239932899">
        <ele>99.8</ele>
        <time>2017-10-18T18:18:16Z</time>
      </trkpt>
      <trkpt lat="62.651837147485" lon="17.856203974548">
        <ele>100</ele>
        <time>2017-10-18T18:18:17Z</time>
      </trkpt>
      <trkpt lat="62.651869836895" lon="17.856172290966">
        <ele>100.2</ele>
        <time>2017-10-18T18:18:18Z</time>
      </trkpt>
      <trkpt lat="62.651906381979" lon="17.856144546877">
        <ele>100.2</ele>
        <time>2017-10-18T18:18:19Z</time>
      </trkpt>
      <trkpt lat="62.651942088873" lon="17.856111773648">
        <ele>100.4</ele>
        <time>2017-10-18T18:18:20Z</time>
      </trkpt>
      <trkpt lat="62.651975784111" lon="17.856063410085">
        <ele>100.6</ele>
        <time>2017-10-18T18:18:21Z</time>
      </trkpt>
      <trkpt lat="62.652004282571" lon="17.85600767045">
        <ele>100.8</ele>
        <time>2017-10-18T18:18:22Z</time>
      </trkpt>
      <trkpt lat="62.652032781031" lon="17.855946147304">
        <ele>100.8</ele>
        <time>2017-10-18T18:18:23Z</time>
      </trkpt>
      <trkpt lat="62.652061028034" lon="17.855880600846">
        <ele>101</ele>
        <time>2017-10-18T18:18:24Z</time>
      </trkpt>
      <trkpt lat="62.652086760467" lon="17.85581740132">
        <ele>101.2</ele>
        <time>2017-10-18T18:18:25Z</time>
      </trkpt>
      <trkpt lat="62.652111570891" lon="17.855753028328">
        <ele>101.2</ele>
        <time>2017-10-18T18:18:26Z</time>
      </trkpt>
      <trkpt lat="62.652137973876" lon="17.855689577345">
        <ele>101.4</ele>
        <time>2017-10-18T18:18:27Z</time>
      </trkpt>
      <trkpt lat="62.652160353549" lon="17.855631490778">
        <ele>101.6</ele>
        <time>2017-10-18T18:18:28Z</time>
      </trkpt>
      <trkpt lat="62.652188684371" lon="17.855554042022">
        <ele>101.6</ele>
        <time>2017-10-18T18:18:29Z</time>
      </trkpt>
      <trkpt lat="62.652214081528" lon="17.855476928542">
        <ele>101.6</ele>
        <time>2017-10-18T18:18:30Z</time>
      </trkpt>
      <trkpt lat="62.652237131753" lon="17.855400904709">
        <ele>101.6</ele>
        <time>2017-10-18T18:18:31Z</time>
      </trkpt>
      <trkpt lat="62.652264624385" lon="17.855317504804">
        <ele>101.8</ele>
        <time>2017-10-18T18:18:32Z</time>
      </trkpt>
      <trkpt lat="62.652287506972" lon="17.855241229514">
        <ele>101.6</ele>
        <time>2017-10-18T18:18:33Z</time>
      </trkpt>
      <trkpt lat="62.652309551369" lon="17.855155315039">
        <ele>101.6</ele>
        <time>2017-10-18T18:18:34Z</time>
      </trkpt>
      <trkpt lat="62.652332182499" lon="17.855054564601">
        <ele>101.6</ele>
        <time>2017-10-18T18:18:35Z</time>
      </trkpt>
      <trkpt lat="62.652350035946" lon="17.854956496371">
        <ele>101.6</ele>
        <time>2017-10-18T18:18:36Z</time>
      </trkpt>
      <trkpt lat="62.652366632108" lon="17.854853985734">
        <ele>101.4</ele>
        <time>2017-10-18T18:18:37Z</time>
      </trkpt>
      <trkpt lat="62.652383479727" lon="17.85475709097">
        <ele>101.4</ele>
        <time>2017-10-18T18:18:38Z</time>
      </trkpt>
      <trkpt lat="62.652404015382" lon="17.854648210089">
        <ele>101.2</ele>
        <time>2017-10-18T18:18:39Z</time>
      </trkpt>
      <trkpt lat="62.652418683707" lon="17.854567073297">
        <ele>101</ele>
        <time>2017-10-18T18:18:40Z</time>
      </trkpt>
      <trkpt lat="62.652440895742" lon="17.854436399476">
        <ele>101</ele>
        <time>2017-10-18T18:18:41Z</time>
      </trkpt>
      <trkpt lat="62.652459755017" lon="17.854332715373">
        <ele>100.6</ele>
        <time>2017-10-18T18:18:42Z</time>
      </trkpt>
      <trkpt lat="62.652478530473" lon="17.854232300211">
        <ele>100.4</ele>
        <time>2017-10-18T18:18:43Z</time>
      </trkpt>
      <trkpt lat="62.652498814671" lon="17.854126352995">
        <ele>100.2</ele>
        <time>2017-10-18T18:18:44Z</time>
      </trkpt>
      <trkpt lat="62.652512728625" lon="17.854024093815">
        <ele>100.2</ele>
        <time>2017-10-18T18:18:45Z</time>
      </trkpt>
      <trkpt lat="62.652526223484" lon="17.853923846291">
        <ele>100.2</ele>
        <time>2017-10-18T18:18:46Z</time>
      </trkpt>
      <trkpt lat="62.652542987284" lon="17.853805326225">
        <ele>100.2</ele>
        <time>2017-10-18T18:18:47Z</time>
      </trkpt>
      <trkpt lat="62.652556482143" lon="17.853704408149">
        <ele>100.2</ele>
        <time>2017-10-18T18:18:48Z</time>
      </trkpt>
      <trkpt lat="62.652571401925" lon="17.853591336318">
        <ele>100</ele>
        <time>2017-10-18T18:18:49Z</time>
      </trkpt>
      <trkpt lat="62.65258271749" lon="17.853482036342">
        <ele>100</ele>
        <time>2017-10-18T18:18:50Z</time>
      </trkpt>
      <trkpt lat="62.65259361396" lon="17.853370221796">
        <ele>100</ele>
        <time>2017-10-18T18:18:51Z</time>
      </trkpt>
      <trkpt lat="62.652603839878" lon="17.853257652879">
        <ele>100</ele>
        <time>2017-10-18T18:18:52Z</time>
      </trkpt>
      <trkpt lat="62.652612305597" lon="17.853129996542">
        <ele>99.8</ele>
        <time>2017-10-18T18:18:53Z</time>
      </trkpt>
      <trkpt lat="62.652625213723" lon="17.852982056007">
        <ele>99.6</ele>
        <time>2017-10-18T18:18:54Z</time>
      </trkpt>
      <trkpt lat="62.652639043858" lon="17.852839647526">
        <ele>99.2</ele>
        <time>2017-10-18T18:18:55Z</time>
      </trkpt>
      <trkpt lat="62.652652622536" lon="17.8527010109">
        <ele>98.8</ele>
        <time>2017-10-18T18:18:56Z</time>
      </trkpt>
      <trkpt lat="62.652666620309" lon="17.852557345134">
        <ele>98.4</ele>
        <time>2017-10-18T18:18:57Z</time>
      </trkpt>
      <trkpt lat="62.652677600598" lon="17.852443435113">
        <ele>98</ele>
        <time>2017-10-18T18:18:58Z</time>
      </trkpt>
      <trkpt lat="62.652686401593" lon="17.852298428243">
        <ele>97.8</ele>
        <time>2017-10-18T18:18:59Z</time>
      </trkpt>
      <trkpt lat="62.652693777665" lon="17.85217127482">
        <ele>97.6</ele>
        <time>2017-10-18T18:19:00Z</time>
      </trkpt>
      <trkpt lat="62.652698555348" lon="17.85205309003">
        <ele>97.4</ele>
        <time>2017-10-18T18:19:01Z</time>
      </trkpt>
      <trkpt lat="62.652704003583" lon="17.851916632698">
        <ele>97.2</ele>
        <time>2017-10-18T18:19:02Z</time>
      </trkpt>
      <trkpt lat="62.652708278352" lon="17.851788976361">
        <ele>97</ele>
        <time>2017-10-18T18:19:03Z</time>
      </trkpt>
      <trkpt lat="62.652712888397" lon="17.851652351391">
        <ele>96.8</ele>
        <time>2017-10-18T18:19:04Z</time>
      </trkpt>
      <trkpt lat="62.652719091003" lon="17.851501896286">
        <ele>96.6</ele>
        <time>2017-10-18T18:19:05Z</time>
      </trkpt>
      <trkpt lat="62.652725461247" lon="17.851356218864">
        <ele>96.4</ele>
        <time>2017-10-18T18:19:06Z</time>
      </trkpt>
      <trkpt lat="62.652733507871" lon="17.851201069895">
        <ele>96.4</ele>
        <time>2017-10-18T18:19:07Z</time>
      </trkpt>
      <trkpt lat="62.652739878115" lon="17.851059667242">
        <ele>96</ele>
        <time>2017-10-18T18:19:08Z</time>
      </trkpt>
      <trkpt lat="62.652751612775" lon="17.850891023414">
        <ele>95.8</ele>
        <time>2017-10-18T18:19:09Z</time>
      </trkpt>
      <trkpt lat="62.652764017987" lon="17.850739813938">
        <ele>95.6</ele>
        <time>2017-10-18T18:19:10Z</time>
      </trkpt>
      <trkpt lat="62.65277550119" lon="17.850577959449">
        <ele>95.2</ele>
        <time>2017-10-18T18:19:11Z</time>
      </trkpt>
      <trkpt lat="62.652791929714" lon="17.850434126045">
        <ele>94.8</ele>
        <time>2017-10-18T18:19:12Z</time>
      </trkpt>
      <trkpt lat="62.652811710998" lon="17.850293310125">
        <ele>94.6</ele>
        <time>2017-10-18T18:19:13Z</time>
      </trkpt>
      <trkpt lat="62.652830318816" lon="17.850131455636">
        <ele>94.4</ele>
        <time>2017-10-18T18:19:14Z</time>
      </trkpt>
      <trkpt lat="62.652845825331" lon="17.849974462649">
        <ele>94</ele>
        <time>2017-10-18T18:19:15Z</time>
      </trkpt>
      <trkpt lat="62.652860242199" lon="17.84984362119">
        <ele>93.8</ele>
        <time>2017-10-18T18:19:16Z</time>
      </trkpt>
      <trkpt lat="62.652877844189" lon="17.849687550212">
        <ele>93.8</ele>
        <time>2017-10-18T18:19:17Z</time>
      </trkpt>
      <trkpt lat="62.652892261057" lon="17.84955612202">
        <ele>93.8</ele>
        <time>2017-10-18T18:19:18Z</time>
      </trkpt>
      <trkpt lat="62.652906594106" lon="17.849423939457">
        <ele>93.6</ele>
        <time>2017-10-18T18:19:19Z</time>
      </trkpt>
      <trkpt lat="62.652916568567" lon="17.849313717472">
        <ele>93.4</ele>
        <time>2017-10-18T18:19:20Z</time>
      </trkpt>
      <trkpt lat="62.652924615191" lon="17.849211542111">
        <ele>93.4</ele>
        <time>2017-10-18T18:19:21Z</time>
      </trkpt>
      <trkpt lat="62.652932577996" lon="17.849120095582">
        <ele>93.2</ele>
        <time>2017-10-18T18:19:22Z</time>
      </trkpt>
      <trkpt lat="62.652941127534" lon="17.849022362628">
        <ele>93</ele>
        <time>2017-10-18T18:19:23Z</time>
      </trkpt>
      <trkpt lat="62.652952024004" lon="17.848911050996">
        <ele>93</ele>
        <time>2017-10-18T18:19:24Z</time>
      </trkpt>
      <trkpt lat="62.65295990299" lon="17.848801080468">
        <ele>92.8</ele>
        <time>2017-10-18T18:19:25Z</time>
      </trkpt>
      <trkpt lat="62.652964345397" lon="17.848708376654">
        <ele>93</ele>
        <time>2017-10-18T18:19:26Z</time>
      </trkpt>
      <trkpt lat="62.652967195243" lon="17.848560939033">
        <ele>93</ele>
        <time>2017-10-18T18:19:27Z</time>
      </trkpt>
      <trkpt lat="62.65296660851" lon="17.848447783383">
        <ele>93</ele>
        <time>2017-10-18T18:19:28Z</time>
      </trkpt>
      <trkpt lat="62.652965267406" lon="17.848302944151">
        <ele>93</ele>
        <time>2017-10-18T18:19:29Z</time>
      </trkpt>
      <trkpt lat="62.652961160275" lon="17.848173695253">
        <ele>93</ele>
        <time>2017-10-18T18:19:30Z</time>
      </trkpt>
      <trkpt lat="62.652955376764" lon="17.848052325341">
        <ele>92.8</ele>
        <time>2017-10-18T18:19:31Z</time>
      </trkpt>
      <trkpt lat="62.652943558285" lon="17.847911006507">
        <ele>92.6</ele>
        <time>2017-10-18T18:19:32Z</time>
      </trkpt>
      <trkpt lat="62.652930231064" lon="17.847785445645">
        <ele>92.6</ele>
        <time>2017-10-18T18:19:33Z</time>
      </trkpt>
      <trkpt lat="62.652916903843" lon="17.847654185091">
        <ele>92.4</ele>
        <time>2017-10-18T18:19:34Z</time>
      </trkpt>
      <trkpt lat="62.65290709702" lon="17.84753021679">
        <ele>92.2</ele>
        <time>2017-10-18T18:19:35Z</time>
      </trkpt>
      <trkpt lat="62.652898044568" lon="17.847439608451">
        <ele>92</ele>
        <time>2017-10-18T18:19:36Z</time>
      </trkpt>
      <trkpt lat="62.652894691808" lon="17.847357968745">
        <ele>91.6</ele>
        <time>2017-10-18T18:19:37Z</time>
      </trkpt>
      <trkpt lat="62.652892680152" lon="17.847285632948">
        <ele>91.6</ele>
        <time>2017-10-18T18:19:38Z</time>
      </trkpt>
      <trkpt lat="62.652890752315" lon="17.847203574147">
        <ele>91.2</ele>
        <time>2017-10-18T18:19:39Z</time>
      </trkpt>
      <trkpt lat="62.652893099247" lon="17.847132579454">
        <ele>91.2</ele>
        <time>2017-10-18T18:19:40Z</time>
      </trkpt>
      <trkpt lat="62.652897122559" lon="17.847045072418">
        <ele>91</ele>
        <time>2017-10-18T18:19:41Z</time>
      </trkpt>
      <trkpt lat="62.652905755916" lon="17.846956475735">
        <ele>91</ele>
        <time>2017-10-18T18:19:42Z</time>
      </trkpt>
      <trkpt lat="62.652908941038" lon="17.84686972307">
        <ele>91</ele>
        <time>2017-10-18T18:19:43Z</time>
      </trkpt>
      <trkpt lat="62.652906007373" lon="17.846769727003">
        <ele>91.2</ele>
        <time>2017-10-18T18:19:44Z</time>
      </trkpt>
      <trkpt lat="62.652901397328" lon="17.84668364489">
        <ele>91.2</ele>
        <time>2017-10-18T18:19:45Z</time>
      </trkpt>
      <trkpt lat="62.652898296025" lon="17.846607872514">
        <ele>91.2</ele>
        <time>2017-10-18T18:19:46Z</time>
      </trkpt>
      <trkpt lat="62.652890500858" lon="17.846511145388">
        <ele>91.4</ele>
        <time>2017-10-18T18:19:47Z</time>
      </trkpt>
      <trkpt lat="62.65288027494" lon="17.846418693031">
        <ele>91.4</ele>
        <time>2017-10-18T18:19:48Z</time>
      </trkpt>
      <trkpt lat="62.652878263284" lon="17.846318613145">
        <ele>91.4</ele>
        <time>2017-10-18T18:19:49Z</time>
      </trkpt>
      <trkpt lat="62.652887483374" lon="17.846229848824">
        <ele>91.6</ele>
        <time>2017-10-18T18:19:50Z</time>
      </trkpt>
      <trkpt lat="62.652905253002" lon="17.846161620158">
        <ele>91.6</ele>
        <time>2017-10-18T18:19:51Z</time>
      </trkpt>
      <trkpt lat="62.652922854992" lon="17.846118034278">
        <ele>91.6</ele>
        <time>2017-10-18T18:19:52Z</time>
      </trkpt>
      <trkpt lat="62.652939954068" lon="17.846078304072">
        <ele>91.6</ele>
        <time>2017-10-18T18:19:53Z</time>
      </trkpt>
      <trkpt lat="62.652956885506" lon="17.846041758988">
        <ele>91.4</ele>
        <time>2017-10-18T18:19:54Z</time>
      </trkpt>
      <trkpt lat="62.652971889107" lon="17.846012673795">
        <ele>91.4</ele>
        <time>2017-10-18T18:19:55Z</time>
      </trkpt>
      <trkpt lat="62.65298672507" lon="17.84598543262">
        <ele>91.6</ele>
        <time>2017-10-18T18:19:56Z</time>
      </trkpt>
      <trkpt lat="62.652999130282" lon="17.84595777235">
        <ele>91.6</ele>
        <time>2017-10-18T18:19:57Z</time>
      </trkpt>
      <trkpt lat="62.653013630969" lon="17.845928938614">
        <ele>91.6</ele>
        <time>2017-10-18T18:19:58Z</time>
      </trkpt>
      <trkpt lat="62.653036345918" lon="17.845889292227">
        <ele>91.6</ele>
        <time>2017-10-18T18:19:59Z</time>
      </trkpt>
      <trkpt lat="62.653057635944" lon="17.845851238401">
        <ele>91.6</ele>
        <time>2017-10-18T18:20:00Z</time>
      </trkpt>
      <trkpt lat="62.653077836323" lon="17.845808323073">
        <ele>91.6</ele>
        <time>2017-10-18T18:20:01Z</time>
      </trkpt>
      <trkpt lat="62.653102311471" lon="17.845753673085">
        <ele>91.4</ele>
        <time>2017-10-18T18:20:02Z</time>
      </trkpt>
      <trkpt lat="62.6531267028" lon="17.845706399169">
        <ele>91.4</ele>
        <time>2017-10-18T18:20:03Z</time>
      </trkpt>
      <trkpt lat="62.653152602871" lon="17.845654682846">
        <ele>91.4</ele>
        <time>2017-10-18T18:20:04Z</time>
      </trkpt>
      <trkpt lat="62.653182107159" lon="17.845593327338">
        <ele>91.2</ele>
        <time>2017-10-18T18:20:05Z</time>
      </trkpt>
      <trkpt lat="62.653209935067" lon="17.845532139468">
        <ele>91.2</ele>
        <time>2017-10-18T18:20:06Z</time>
      </trkpt>
      <trkpt lat="62.653240109907" lon="17.84546910758">
        <ele>90.8</ele>
        <time>2017-10-18T18:20:07Z</time>
      </trkpt>
      <trkpt lat="62.653269614195" lon="17.845407249158">
        <ele>90.8</ele>
        <time>2017-10-18T18:20:08Z</time>
      </trkpt>
      <trkpt lat="62.653303477071" lon="17.845336589741">
        <ele>90.6</ele>
        <time>2017-10-18T18:20:09Z</time>
      </trkpt>
      <trkpt lat="62.653332813721" lon="17.845270205093">
        <ele>90.4</ele>
        <time>2017-10-18T18:20:10Z</time>
      </trkpt>
      <trkpt lat="62.653365000217" lon="17.845187643378">
        <ele>90.2</ele>
        <time>2017-10-18T18:20:11Z</time>
      </trkpt>
      <trkpt lat="62.653396516161" lon="17.845106255129">
        <ele>90.2</ele>
        <time>2017-10-18T18:20:12Z</time>
      </trkpt>
      <trkpt lat="62.653429876123" lon="17.845030063658">
        <ele>90</ele>
        <time>2017-10-18T18:20:13Z</time>
      </trkpt>
      <trkpt lat="62.65346952251" lon="17.844946999029">
        <ele>89.8</ele>
        <time>2017-10-18T18:20:14Z</time>
      </trkpt>
      <trkpt lat="62.653507827793" lon="17.844861168373">
        <ele>89.4</ele>
        <time>2017-10-18T18:20:15Z</time>
      </trkpt>
      <trkpt lat="62.653540936298" lon="17.8447801154">
        <ele>89.4</ele>
        <time>2017-10-18T18:20:16Z</time>
      </trkpt>
      <trkpt lat="62.653583600169" lon="17.844669055225">
        <ele>89.2</ele>
        <time>2017-10-18T18:20:17Z</time>
      </trkpt>
      <trkpt lat="62.653618804149" lon="17.844569059158">
        <ele>88.8</ele>
        <time>2017-10-18T18:20:18Z</time>
      </trkpt>
      <trkpt lat="62.653659288726" lon="17.844456406422">
        <ele>88.4</ele>
        <time>2017-10-18T18:20:19Z</time>
      </trkpt>
      <trkpt lat="62.653700779131" lon="17.844339478917">
        <ele>88.2</ele>
        <time>2017-10-18T18:20:20Z</time>
      </trkpt>
      <trkpt lat="62.653742101898" lon="17.844211906399">
        <ele>87.8</ele>
        <time>2017-10-18T18:20:21Z</time>
      </trkpt>
      <trkpt lat="62.65377881462" lon="17.844089363021">
        <ele>87.6</ele>
        <time>2017-10-18T18:20:22Z</time>
      </trkpt>
      <trkpt lat="62.653817874274" lon="17.843958018648">
        <ele>87.2</ele>
        <time>2017-10-18T18:20:23Z</time>
      </trkpt>
      <trkpt lat="62.653859197041" lon="17.843804043145">
        <ele>86.8</ele>
        <time>2017-10-18T18:20:24Z</time>
      </trkpt>
      <trkpt lat="62.653894317202" lon="17.843670268021">
        <ele>86.4</ele>
        <time>2017-10-18T18:20:25Z</time>
      </trkpt>
      <trkpt lat="62.653931029924" lon="17.843534648879">
        <ele>86</ele>
        <time>2017-10-18T18:20:26Z</time>
      </trkpt>
      <trkpt lat="62.653966317723" lon="17.843411854044">
        <ele>85.4</ele>
        <time>2017-10-18T18:20:27Z</time>
      </trkpt>
      <trkpt lat="62.653998252762" lon="17.843312193253">
        <ele>84.6</ele>
        <time>2017-10-18T18:20:28Z</time>
      </trkpt>
      <trkpt lat="62.65404703542" lon="17.84320515639">
        <ele>84</ele>
        <time>2017-10-18T18:20:29Z</time>
      </trkpt>
      <trkpt lat="62.654097662096" lon="17.843120415381">
        <ele>83.4</ele>
        <time>2017-10-18T18:20:30Z</time>
      </trkpt>
      <trkpt lat="62.654151892989" lon="17.843059814244">
        <ele>82.6</ele>
        <time>2017-10-18T18:20:31Z</time>
      </trkpt>
      <trkpt lat="62.654217439447" lon="17.843005583351">
        <ele>81.8</ele>
        <time>2017-10-18T18:20:32Z</time>
      </trkpt>
      <trkpt lat="62.654283153543" lon="17.842975408511">
        <ele>81</ele>
        <time>2017-10-18T18:20:33Z</time>
      </trkpt>
      <trkpt lat="62.654353058589" lon="17.842955208132">
        <ele>80.2</ele>
        <time>2017-10-18T18:20:34Z</time>
      </trkpt>
      <trkpt lat="62.654425813481" lon="17.842937438504">
        <ele>79.2</ele>
        <time>2017-10-18T18:20:35Z</time>
      </trkpt>
      <trkpt lat="62.654494461242" lon="17.842920842342">
        <ele>78.2</ele>
        <time>2017-10-18T18:20:36Z</time>
      </trkpt>
      <trkpt lat="62.654561516442" lon="17.842900474325">
        <ele>77</ele>
        <time>2017-10-18T18:20:37Z</time>
      </trkpt>
      <trkpt lat="62.654627733452" lon="17.842878178471">
        <ele>76</ele>
        <time>2017-10-18T18:20:38Z</time>
      </trkpt>
      <trkpt lat="62.654693950462" lon="17.842854541513">
        <ele>75.4</ele>
        <time>2017-10-18T18:20:39Z</time>
      </trkpt>
      <trkpt lat="62.654750779744" lon="17.842832413297">
        <ele>74.6</ele>
        <time>2017-10-18T18:20:40Z</time>
      </trkpt>
      <trkpt lat="62.654813560175" lon="17.842804753027">
        <ele>74.2</ele>
        <time>2017-10-18T18:20:41Z</time>
      </trkpt>
      <trkpt lat="62.654881202108" lon="17.842767285934">
        <ele>74</ele>
        <time>2017-10-18T18:20:42Z</time>
      </trkpt>
      <trkpt lat="62.654951610068" lon="17.842725795529">
        <ele>73.6</ele>
        <time>2017-10-18T18:20:43Z</time>
      </trkpt>
      <trkpt lat="62.655038530371" lon="17.842677012871">
        <ele>73.2</ele>
        <time>2017-10-18T18:20:44Z</time>
      </trkpt>
      <trkpt lat="62.655127043235" lon="17.842629655136">
        <ele>72.8</ele>
        <time>2017-10-18T18:20:45Z</time>
      </trkpt>
      <trkpt lat="62.655208431484" lon="17.842580788659">
        <ele>72.2</ele>
        <time>2017-10-18T18:20:46Z</time>
      </trkpt>
      <trkpt lat="62.655308427551" lon="17.842509039595">
        <ele>71.8</ele>
        <time>2017-10-18T18:20:47Z</time>
      </trkpt>
      <trkpt lat="62.655389648162" lon="17.84244240349">
        <ele>71.2</ele>
        <time>2017-10-18T18:20:48Z</time>
      </trkpt>
      <trkpt lat="62.655477071379" lon="17.84236277544">
        <ele>70.4</ele>
        <time>2017-10-18T18:20:49Z</time>
      </trkpt>
      <trkpt lat="62.6555490719" lon="17.842283650304">
        <ele>69.6</ele>
        <time>2017-10-18T18:20:50Z</time>
      </trkpt>
      <trkpt lat="62.655614199263" lon="17.842203184064">
        <ele>68.2</ele>
        <time>2017-10-18T18:20:51Z</time>
      </trkpt>
      <trkpt lat="62.655675051857" lon="17.842119448883">
        <ele>67.8</ele>
        <time>2017-10-18T18:20:52Z</time>
      </trkpt>
      <trkpt lat="62.655735820632" lon="17.842031941847">
        <ele>67.6</ele>
        <time>2017-10-18T18:20:53Z</time>
      </trkpt>
      <trkpt lat="62.655794829208" lon="17.841946697924">
        <ele>67.6</ele>
        <time>2017-10-18T18:20:54Z</time>
      </trkpt>
      <trkpt lat="62.655848138092" lon="17.841867321331">
        <ele>67.8</ele>
        <time>2017-10-18T18:20:55Z</time>
      </trkpt>
      <trkpt lat="62.6559011117" lon="17.841788363833">
        <ele>68.8</ele>
        <time>2017-10-18T18:20:56Z</time>
      </trkpt>
      <trkpt lat="62.655954001489" lon="17.84171485457">
        <ele>69.4</ele>
        <time>2017-10-18T18:20:57Z</time>
      </trkpt>
      <trkpt lat="62.655999263749" lon="17.841648218465">
        <ele>70</ele>
        <time>2017-10-18T18:20:58Z</time>
      </trkpt>
      <trkpt lat="62.656053578461" lon="17.841562974542">
        <ele>70.6</ele>
        <time>2017-10-18T18:20:59Z</time>
      </trkpt>
      <trkpt lat="62.656100181825" lon="17.841490135831">
        <ele>70.8</ele>
        <time>2017-10-18T18:21:00Z</time>
      </trkpt>
      <trkpt lat="62.656144857352" lon="17.841426181934">
        <ele>71</ele>
        <time>2017-10-18T18:21:01Z</time>
      </trkpt>
      <trkpt lat="62.656193304734" lon="17.841361306028">
        <ele>71.4</ele>
        <time>2017-10-18T18:21:02Z</time>
      </trkpt>
      <trkpt lat="62.656234208406" lon="17.841302884185">
        <ele>71.6</ele>
        <time>2017-10-18T18:21:03Z</time>
      </trkpt>
      <trkpt lat="62.656276369363" lon="17.841244881437">
        <ele>71.8</ele>
        <time>2017-10-18T18:21:04Z</time>
      </trkpt>
      <trkpt lat="62.656322134537" lon="17.841191237277">
        <ele>72</ele>
        <time>2017-10-18T18:21:05Z</time>
      </trkpt>
      <trkpt lat="62.656364379313" lon="17.841143125171">
        <ele>72.6</ele>
        <time>2017-10-18T18:21:06Z</time>
      </trkpt>
      <trkpt lat="62.656406875546" lon="17.841100293662">
        <ele>73</ele>
        <time>2017-10-18T18:21:07Z</time>
      </trkpt>
      <trkpt lat="62.656447779218" lon="17.841065341139">
        <ele>73.4</ele>
        <time>2017-10-18T18:21:08Z</time>
      </trkpt>
      <trkpt lat="62.656494885496" lon="17.841029550426">
        <ele>73.8</ele>
        <time>2017-10-18T18:21:09Z</time>
      </trkpt>
      <trkpt lat="62.656539225747" lon="17.841002560708">
        <ele>74.6</ele>
        <time>2017-10-18T18:21:10Z</time>
      </trkpt>
      <trkpt lat="62.656591444984" lon="17.840975990085">
        <ele>75</ele>
        <time>2017-10-18T18:21:11Z</time>
      </trkpt>
      <trkpt lat="62.656643831859" lon="17.840951347299">
        <ele>75.4</ele>
        <time>2017-10-18T18:21:12Z</time>
      </trkpt>
      <trkpt lat="62.656696218734" lon="17.840929973454">
        <ele>75.4</ele>
        <time>2017-10-18T18:21:13Z</time>
      </trkpt>
      <trkpt lat="62.656757238966" lon="17.840912371464">
        <ele>75.6</ele>
        <time>2017-10-18T18:21:14Z</time>
      </trkpt>
      <trkpt lat="62.65681809156" lon="17.840899379519">
        <ele>75.4</ele>
        <time>2017-10-18T18:21:15Z</time>
      </trkpt>
      <trkpt lat="62.656873076824" lon="17.840894853293">
        <ele>75.4</ele>
        <time>2017-10-18T18:21:16Z</time>
      </trkpt>
      <trkpt lat="62.656945244983" lon="17.840895356207">
        <ele>75.2</ele>
        <time>2017-10-18T18:21:17Z</time>
      </trkpt>
      <trkpt lat="62.657003918283" lon="17.840900301528">
        <ele>75</ele>
        <time>2017-10-18T18:21:18Z</time>
      </trkpt>
      <trkpt lat="62.657077762822" lon="17.840908599609">
        <ele>74.8</ele>
        <time>2017-10-18T18:21:19Z</time>
      </trkpt>
      <trkpt lat="62.657147667868" lon="17.840913461111">
        <ele>74.6</ele>
        <time>2017-10-18T18:21:20Z</time>
      </trkpt>
      <trkpt lat="62.657221009493" lon="17.840922681201">
        <ele>74.2</ele>
        <time>2017-10-18T18:21:21Z</time>
      </trkpt>
      <trkpt lat="62.657287226503" lon="17.840929219083">
        <ele>74</ele>
        <time>2017-10-18T18:21:22Z</time>
      </trkpt>
      <trkpt lat="62.657359646119" lon="17.840935254051">
        <ele>73.6</ele>
        <time>2017-10-18T18:21:23Z</time>
      </trkpt>
      <trkpt lat="62.65743667578" lon="17.84094204339">
        <ele>73.2</ele>
        <time>2017-10-18T18:21:24Z</time>
      </trkpt>
      <trkpt lat="62.657509011577" lon="17.840946904892">
        <ele>73</ele>
        <time>2017-10-18T18:21:25Z</time>
      </trkpt>
      <trkpt lat="62.657582688478" lon="17.840945312331">
        <ele>72.8</ele>
        <time>2017-10-18T18:21:26Z</time>
      </trkpt>
      <trkpt lat="62.657657874121" lon="17.840941540476">
        <ele>72.8</ele>
        <time>2017-10-18T18:21:27Z</time>
      </trkpt>
      <trkpt lat="62.657722247113" lon="17.840940786105">
        <ele>72.4</ele>
        <time>2017-10-18T18:21:28Z</time>
      </trkpt>
      <trkpt lat="62.657805647018" lon="17.840936846612">
        <ele>72.4</ele>
        <time>2017-10-18T18:21:29Z</time>
      </trkpt>
      <trkpt lat="62.657875216788" lon="17.840931063101">
        <ele>72.2</ele>
        <time>2017-10-18T18:21:30Z</time>
      </trkpt>
      <trkpt lat="62.65794210435" lon="17.840925195771">
        <ele>72</ele>
        <time>2017-10-18T18:21:31Z</time>
      </trkpt>
      <trkpt lat="62.658016200346" lon="17.840919579898">
        <ele>71.8</ele>
        <time>2017-10-18T18:21:32Z</time>
      </trkpt>
      <trkpt lat="62.658082165899" lon="17.840914215482">
        <ele>71.8</ele>
        <time>2017-10-18T18:21:33Z</time>
      </trkpt>
      <trkpt lat="62.658150562203" lon="17.84090935398">
        <ele>71.8</ele>
        <time>2017-10-18T18:21:34Z</time>
      </trkpt>
      <trkpt lat="62.658222981819" lon="17.840907929057">
        <ele>71.8</ele>
        <time>2017-10-18T18:21:35Z</time>
      </trkpt>
      <trkpt lat="62.65829079139" lon="17.840908767247">
        <ele>71.8</ele>
        <time>2017-10-18T18:21:36Z</time>
      </trkpt>
      <trkpt lat="62.658355667296" lon="17.840915724224">
        <ele>71.8</ele>
        <time>2017-10-18T18:21:37Z</time>
      </trkpt>
      <trkpt lat="62.658415933157" lon="17.840925111952">
        <ele>71.8</ele>
        <time>2017-10-18T18:21:38Z</time>
      </trkpt>
      <trkpt lat="62.658484832375" lon="17.84093869063">
        <ele>71.6</ele>
        <time>2017-10-18T18:21:39Z</time>
      </trkpt>
      <trkpt lat="62.658547612806" lon="17.840957466086">
        <ele>71.6</ele>
        <time>2017-10-18T18:21:40Z</time>
      </trkpt>
      <trkpt lat="62.658618104585" lon="17.840986718917">
        <ele>71.4</ele>
        <time>2017-10-18T18:21:41Z</time>
      </trkpt>
      <trkpt lat="62.658686333251" lon="17.841017312852">
        <ele>71.2</ele>
        <time>2017-10-18T18:21:42Z</time>
      </trkpt>
      <trkpt lat="62.658750790062" lon="17.841052181556">
        <ele>71</ele>
        <time>2017-10-18T18:21:43Z</time>
      </trkpt>
      <trkpt lat="62.658824131687" lon="17.841097611454">
        <ele>70.8</ele>
        <time>2017-10-18T18:21:44Z</time>
      </trkpt>
      <trkpt lat="62.658893366181" lon="17.841139269497">
        <ele>70.8</ele>
        <time>2017-10-18T18:21:45Z</time>
      </trkpt>
      <trkpt lat="62.658955895155" lon="17.841179837893">
        <ele>70.6</ele>
        <time>2017-10-18T18:21:46Z</time>
      </trkpt>
      <trkpt lat="62.659037199585" lon="17.841234739338">
        <ele>70.6</ele>
        <time>2017-10-18T18:21:47Z</time>
      </trkpt>
      <trkpt lat="62.659106601717" lon="17.84128151034">
        <ele>70.4</ele>
        <time>2017-10-18T18:21:48Z</time>
      </trkpt>
      <trkpt lat="62.659187822328" lon="17.841336579423">
        <ele>70.2</ele>
        <time>2017-10-18T18:21:49Z</time>
      </trkpt>
      <trkpt lat="62.659265103446" lon="17.841391816144">
        <ele>69.8</ele>
        <time>2017-10-18T18:21:50Z</time>
      </trkpt>
      <trkpt lat="62.659343725668" lon="17.841447974874">
        <ele>69.2</ele>
        <time>2017-10-18T18:21:51Z</time>
      </trkpt>
      <trkpt lat="62.659418324578" lon="17.841499691197">
        <ele>68.6</ele>
        <time>2017-10-18T18:21:52Z</time>
      </trkpt>
      <trkpt lat="62.659497952628" lon="17.841555849927">
        <ele>68</ele>
        <time>2017-10-18T18:21:53Z</time>
      </trkpt>
      <trkpt lat="62.659582609818" lon="17.841613182123">
        <ele>67.4</ele>
        <time>2017-10-18T18:21:54Z</time>
      </trkpt>
      <trkpt lat="62.659661986411" lon="17.841665652817">
        <ele>66.8</ele>
        <time>2017-10-18T18:21:55Z</time>
      </trkpt>
      <trkpt lat="62.6597400219" lon="17.841718961701">
        <ele>66.4</ele>
        <time>2017-10-18T18:21:56Z</time>
      </trkpt>
      <trkpt lat="62.659815710457" lon="17.84177436606">
        <ele>65.8</ele>
        <time>2017-10-18T18:21:57Z</time>
      </trkpt>
      <trkpt lat="62.65988335239" lon="17.841827255849">
        <ele>65.4</ele>
        <time>2017-10-18T18:21:58Z</time>
      </trkpt>
      <trkpt lat="62.659967925761" lon="17.841895149239">
        <ele>65</ele>
        <time>2017-10-18T18:21:59Z</time>
      </trkpt>
      <trkpt lat="62.660042357033" lon="17.841957342937">
        <ele>64.4</ele>
        <time>2017-10-18T18:22:00Z</time>
      </trkpt>
      <trkpt lat="62.660112345898" lon="17.842012831115">
        <ele>64</ele>
        <time>2017-10-18T18:22:01Z</time>
      </trkpt>
      <trkpt lat="62.660192141586" lon="17.842075779184">
        <ele>63.6</ele>
        <time>2017-10-18T18:22:02Z</time>
      </trkpt>
      <trkpt lat="62.660261878994" lon="17.842134368665">
        <ele>63.2</ele>
        <time>2017-10-18T18:22:03Z</time>
      </trkpt>
      <trkpt lat="62.66033681318" lon="17.842192371413">
        <ele>62.6</ele>
        <time>2017-10-18T18:22:04Z</time>
      </trkpt>
      <trkpt lat="62.660420045447" lon="17.842252888731">
        <ele>62.2</ele>
        <time>2017-10-18T18:22:05Z</time>
      </trkpt>
      <trkpt lat="62.660498835307" lon="17.842312148764">
        <ele>61.8</ele>
        <time>2017-10-18T18:22:06Z</time>
      </trkpt>
      <trkpt lat="62.660576954615" lon="17.842373420453">
        <ele>61.2</ele>
        <time>2017-10-18T18:22:07Z</time>
      </trkpt>
      <trkpt lat="62.660649625688" lon="17.842432764305">
        <ele>60.8</ele>
        <time>2017-10-18T18:22:08Z</time>
      </trkpt>
      <trkpt lat="62.660732857955" lon="17.84250191498">
        <ele>60.4</ele>
        <time>2017-10-18T18:22:09Z</time>
      </trkpt>
      <trkpt lat="62.660805948123" lon="17.842564108678">
        <ele>59.6</ele>
        <time>2017-10-18T18:22:10Z</time>
      </trkpt>
      <trkpt lat="62.660886162906" lon="17.842631415335">
        <ele>59.2</ele>
        <time>2017-10-18T18:22:11Z</time>
      </trkpt>
      <trkpt lat="62.66096042654" lon="17.842690423911">
        <ele>58.6</ele>
        <time>2017-10-18T18:22:12Z</time>
      </trkpt>
      <trkpt lat="62.661025050989" lon="17.842736440542">
        <ele>57.6</ele>
        <time>2017-10-18T18:22:13Z</time>
      </trkpt>
      <trkpt lat="62.661094369302" lon="17.84277432673">
        <ele>57.2</ele>
        <time>2017-10-18T18:22:14Z</time>
      </trkpt>
      <trkpt lat="62.661163184701" lon="17.842795030023">
        <ele>56.6</ele>
        <time>2017-10-18T18:22:15Z</time>
      </trkpt>
      <trkpt lat="62.661225629856" lon="17.84279947243">
        <ele>56.4</ele>
        <time>2017-10-18T18:22:16Z</time>
      </trkpt>
      <trkpt lat="62.66130324625" lon="17.842785139381">
        <ele>56</ele>
        <time>2017-10-18T18:22:17Z</time>
      </trkpt>
      <trkpt lat="62.661371474916" lon="17.842757898206">
        <ele>55.4</ele>
        <time>2017-10-18T18:22:18Z</time>
      </trkpt>
      <trkpt lat="62.661444481265" lon="17.842707858263">
        <ele>54.8</ele>
        <time>2017-10-18T18:22:19Z</time>
      </trkpt>
      <trkpt lat="62.661515895053" lon="17.842637534122">
        <ele>54</ele>
        <time>2017-10-18T18:22:20Z</time>
      </trkpt>
      <trkpt lat="62.661587225022" lon="17.842550949095">
        <ele>53.2</ele>
        <time>2017-10-18T18:22:21Z</time>
      </trkpt>
      <trkpt lat="62.661657130068" lon="17.842456149806">
        <ele>52.2</ele>
        <time>2017-10-18T18:22:22Z</time>
      </trkpt>
      <trkpt lat="62.661725274915" lon="17.842352214246">
        <ele>51.2</ele>
        <time>2017-10-18T18:22:23Z</time>
      </trkpt>
      <trkpt lat="62.6617935874" lon="17.842246099392">
        <ele>50.2</ele>
        <time>2017-10-18T18:22:24Z</time>
      </trkpt>
      <trkpt lat="62.661855362003" lon="17.842148617895">
        <ele>49.2</ele>
        <time>2017-10-18T18:22:25Z</time>
      </trkpt>
      <trkpt lat="62.661913364751" lon="17.842056584633">
        <ele>48.2</ele>
        <time>2017-10-18T18:22:26Z</time>
      </trkpt>
      <trkpt lat="62.661971367499" lon="17.84196547338">
        <ele>47.4</ele>
        <time>2017-10-18T18:22:27Z</time>
      </trkpt>
      <trkpt lat="62.662023838193" lon="17.841892383212">
        <ele>47</ele>
        <time>2017-10-18T18:22:28Z</time>
      </trkpt>
      <trkpt lat="62.662095587257" lon="17.841805462909">
        <ele>46.4</ele>
        <time>2017-10-18T18:22:29Z</time>
      </trkpt>
      <trkpt lat="62.662165659941" lon="17.841734552035">
        <ele>46</ele>
        <time>2017-10-18T18:22:30Z</time>
      </trkpt>
      <trkpt lat="62.662235564987" lon="17.841677052201">
        <ele>45.4</ele>
        <time>2017-10-18T18:22:31Z</time>
      </trkpt>
      <trkpt lat="62.662318378159" lon="17.841633298683">
        <ele>44.8</ele>
        <time>2017-10-18T18:22:32Z</time>
      </trkpt>
      <trkpt lat="62.662395910734" lon="17.841615612874">
        <ele>44.4</ele>
        <time>2017-10-18T18:22:33Z</time>
      </trkpt>
      <trkpt lat="62.662478472449" lon="17.841614607046">
        <ele>43.6</ele>
        <time>2017-10-18T18:22:34Z</time>
      </trkpt>
      <trkpt lat="62.662566817675" lon="17.841635645615">
        <ele>42.8</ele>
        <time>2017-10-18T18:22:35Z</time>
      </trkpt>
      <trkpt lat="62.662650971951" lon="17.841675627278">
        <ele>42.2</ele>
        <time>2017-10-18T18:22:36Z</time>
      </trkpt>
      <trkpt lat="62.662718781522" lon="17.841713010552">
        <ele>41.6</ele>
        <time>2017-10-18T18:22:37Z</time>
      </trkpt>
      <trkpt lat="62.662804695997" lon="17.841767995816">
        <ele>41</ele>
        <time>2017-10-18T18:22:38Z</time>
      </trkpt>
      <trkpt lat="62.662884407866" lon="17.841825411831">
        <ele>40.8</ele>
        <time>2017-10-18T18:22:39Z</time>
      </trkpt>
      <trkpt lat="62.662954229093" lon="17.841875619412">
        <ele>40.2</ele>
        <time>2017-10-18T18:22:40Z</time>
      </trkpt>
      <trkpt lat="62.66302488851" lon="17.841934292712">
        <ele>39.6</ele>
        <time>2017-10-18T18:22:41Z</time>
      </trkpt>
      <trkpt lat="62.663091189339" lon="17.841989194157">
        <ele>39.2</ele>
        <time>2017-10-18T18:22:42Z</time>
      </trkpt>
      <trkpt lat="62.663151706657" lon="17.842044514697">
        <ele>38.8</ele>
        <time>2017-10-18T18:22:43Z</time>
      </trkpt>
      <trkpt lat="62.663221611703" lon="17.842111821354">
        <ele>38.4</ele>
        <time>2017-10-18T18:22:44Z</time>
      </trkpt>
      <trkpt lat="62.663285230324" lon="17.842177200174">
        <ele>38.2</ele>
        <time>2017-10-18T18:22:45Z</time>
      </trkpt>
      <trkpt lat="62.663345831461" lon="17.842246937582">
        <ele>38.2</ele>
        <time>2017-10-18T18:22:46Z</time>
      </trkpt>
      <trkpt lat="62.66342638152" lon="17.842347101287">
        <ele>37.8</ele>
        <time>2017-10-18T18:22:47Z</time>
      </trkpt>
      <trkpt lat="62.663495448376" lon="17.842441313843">
        <ele>36.8</ele>
        <time>2017-10-18T18:22:48Z</time>
      </trkpt>
      <trkpt lat="62.663576166073" lon="17.842557319339">
        <ele>35.8</ele>
        <time>2017-10-18T18:22:49Z</time>
      </trkpt>
      <trkpt lat="62.66365688377" lon="17.842677851061">
        <ele>34.6</ele>
        <time>2017-10-18T18:22:50Z</time>
      </trkpt>
      <trkpt lat="62.663737266191" lon="17.842799891525">
        <ele>33.4</ele>
        <time>2017-10-18T18:22:51Z</time>
      </trkpt>
      <trkpt lat="62.663812451834" lon="17.842909191501">
        <ele>32.6</ele>
        <time>2017-10-18T18:22:52Z</time>
      </trkpt>
      <trkpt lat="62.663890235866" lon="17.843021676599">
        <ele>31.6</ele>
        <time>2017-10-18T18:22:53Z</time>
      </trkpt>
      <trkpt lat="62.663978078178" lon="17.843136173353">
        <ele>30.8</ele>
        <time>2017-10-18T18:22:54Z</time>
      </trkpt>
      <trkpt lat="62.664055946029" lon="17.843225356769">
        <ele>30</ele>
        <time>2017-10-18T18:22:55Z</time>
      </trkpt>
      <trkpt lat="62.664135657898" lon="17.843306745018">
        <ele>29.4</ele>
        <time>2017-10-18T18:22:56Z</time>
      </trkpt>
      <trkpt lat="62.664211849369" lon="17.84337530896">
        <ele>28.2</ele>
        <time>2017-10-18T18:22:57Z</time>
      </trkpt>
      <trkpt lat="62.664274462162" lon="17.843426773826">
        <ele>27.4</ele>
        <time>2017-10-18T18:22:58Z</time>
      </trkpt>
      <trkpt lat="62.664347971425" lon="17.843490560085">
        <ele>26.6</ele>
        <time>2017-10-18T18:22:59Z</time>
      </trkpt>
      <trkpt lat="62.664416535367" lon="17.843562728244">
        <ele>26.2</ele>
        <time>2017-10-18T18:23:00Z</time>
      </trkpt>
      <trkpt lat="62.664488032974" lon="17.843657527533">
        <ele>25.8</ele>
        <time>2017-10-18T18:23:01Z</time>
      </trkpt>
      <trkpt lat="62.664564308264" lon="17.843785100051">
        <ele>25</ele>
        <time>2017-10-18T18:23:02Z</time>
      </trkpt>
      <trkpt lat="62.66462499322" lon="17.843904123031">
        <ele>24.4</ele>
        <time>2017-10-18T18:23:03Z</time>
      </trkpt>
      <trkpt lat="62.664687773651" lon="17.844023062192">
        <ele>23.8</ele>
        <time>2017-10-18T18:23:04Z</time>
      </trkpt>
      <trkpt lat="62.664763965122" lon="17.844147784864">
        <ele>23</ele>
        <time>2017-10-18T18:23:05Z</time>
      </trkpt>
      <trkpt lat="62.664839150765" lon="17.844238393203">
        <ele>22.2</ele>
        <time>2017-10-18T18:23:06Z</time>
      </trkpt>
      <trkpt lat="62.664922383032" lon="17.844303939661">
        <ele>21.6</ele>
        <time>2017-10-18T18:23:07Z</time>
      </trkpt>
      <trkpt lat="62.665000753797" lon="17.844340233288">
        <ele>20.4</ele>
        <time>2017-10-18T18:23:08Z</time>
      </trkpt>
      <trkpt lat="62.665094547258" lon="17.844358757287">
        <ele>19.6</ele>
        <time>2017-10-18T18:23:09Z</time>
      </trkpt>
      <trkpt lat="62.665177863344" lon="17.844350878301">
        <ele>18.8</ele>
        <time>2017-10-18T18:23:10Z</time>
      </trkpt>
      <trkpt lat="62.665267130579" lon="17.84433000737">
        <ele>18.2</ele>
        <time>2017-10-18T18:23:11Z</time>
      </trkpt>
      <trkpt lat="62.66534499843" lon="17.844306286593">
        <ele>17.8</ele>
        <time>2017-10-18T18:23:12Z</time>
      </trkpt>
      <trkpt lat="62.665423955928" lon="17.844285080386">
        <ele>17.6</ele>
        <time>2017-10-18T18:23:13Z</time>
      </trkpt>
      <trkpt lat="62.665508361661" lon="17.84427636321">
        <ele>17</ele>
        <time>2017-10-18T18:23:14Z</time>
      </trkpt>
      <trkpt lat="62.665584888408" lon="17.844284996567">
        <ele>16.8</ele>
        <time>2017-10-18T18:23:15Z</time>
      </trkpt>
      <trkpt lat="62.665657978576" lon="17.844300419263">
        <ele>16.4</ele>
        <time>2017-10-18T18:23:16Z</time>
      </trkpt>
      <trkpt lat="62.665750347114" lon="17.844327744257">
        <ele>15.8</ele>
        <time>2017-10-18T18:23:17Z</time>
      </trkpt>
      <trkpt lat="62.665827879689" lon="17.844347525541">
        <ele>15.6</ele>
        <time>2017-10-18T18:23:18Z</time>
      </trkpt>
      <trkpt lat="62.665920667322" lon="17.844364792255">
        <ele>15</ele>
        <time>2017-10-18T18:23:19Z</time>
      </trkpt>
      <trkpt lat="62.666005156874" lon="17.844370156671">
        <ele>14.2</ele>
        <time>2017-10-18T18:23:20Z</time>
      </trkpt>
      <trkpt lat="62.666084114372" lon="17.844373677069">
        <ele>13.2</ele>
        <time>2017-10-18T18:23:21Z</time>
      </trkpt>
      <trkpt lat="62.666150415201" lon="17.844383986806">
        <ele>12.4</ele>
        <time>2017-10-18T18:23:22Z</time>
      </trkpt>
      <trkpt lat="62.666210764881" lon="17.844410389791">
        <ele>11.4</ele>
        <time>2017-10-18T18:23:23Z</time>
      </trkpt>
      <trkpt lat="62.666264576679" lon="17.844446264323">
        <ele>10.4</ele>
        <time>2017-10-18T18:23:24Z</time>
      </trkpt>
      <trkpt lat="62.666305983265" lon="17.844476439163">
        <ele>10</ele>
        <time>2017-10-18T18:23:25Z</time>
      </trkpt>
      <trkpt lat="62.666346467842" lon="17.844492448592">
        <ele>9.8</ele>
        <time>2017-10-18T18:23:26Z</time>
      </trkpt>
      <trkpt lat="62.66638938317" lon="17.844487000357">
        <ele>9.4</ele>
        <time>2017-10-18T18:23:27Z</time>
      </trkpt>
      <trkpt lat="62.666425844435" lon="17.844453556576">
        <ele>9.4</ele>
        <time>2017-10-18T18:23:28Z</time>
      </trkpt>
      <trkpt lat="62.666463479166" lon="17.844374096164">
        <ele>9.2</ele>
        <time>2017-10-18T18:23:29Z</time>
      </trkpt>
      <trkpt lat="62.666494659834" lon="17.844284661291">
        <ele>9</ele>
        <time>2017-10-18T18:23:30Z</time>
      </trkpt>
      <trkpt lat="62.666525756683" lon="17.844195142599">
        <ele>9</ele>
        <time>2017-10-18T18:23:31Z</time>
      </trkpt>
      <trkpt lat="62.666562637043" lon="17.844087938098">
        <ele>8.8</ele>
        <time>2017-10-18T18:23:32Z</time>
      </trkpt>
      <trkpt lat="62.666595997005" lon="17.843985846556">
        <ele>8.8</ele>
        <time>2017-10-18T18:23:33Z</time>
      </trkpt>
      <trkpt lat="62.666634050831" lon="17.843874451105">
        <ele>8.6</ele>
        <time>2017-10-18T18:23:34Z</time>
      </trkpt>
      <trkpt lat="62.666677469073" lon="17.843751823908">
        <ele>8.6</ele>
        <time>2017-10-18T18:23:35Z</time>
      </trkpt>
      <trkpt lat="62.666721641686" lon="17.843632717109">
        <ele>8.6</ele>
        <time>2017-10-18T18:23:36Z</time>
      </trkpt>
      <trkpt lat="62.666768664145" lon="17.843514029405">
        <ele>8.6</ele>
        <time>2017-10-18T18:23:37Z</time>
      </trkpt>
      <trkpt lat="62.666816273337" lon="17.843403639782">
        <ele>8.4</ele>
        <time>2017-10-18T18:23:38Z</time>
      </trkpt>
      <trkpt lat="62.666873437895" lon="17.843284281526">
        <ele>8.4</ele>
        <time>2017-10-18T18:23:39Z</time>
      </trkpt>
      <trkpt lat="62.666926914417" lon="17.843183279631">
        <ele>8.2</ele>
        <time>2017-10-18T18:23:40Z</time>
      </trkpt>
      <trkpt lat="62.666988186106" lon="17.84306936961">
        <ele>8.4</ele>
        <time>2017-10-18T18:23:41Z</time>
      </trkpt>
      <trkpt lat="62.66704652413" lon="17.842961578376">
        <ele>8.2</ele>
        <time>2017-10-18T18:23:42Z</time>
      </trkpt>
      <trkpt lat="62.667101928489" lon="17.842858816282">
        <ele>8.2</ele>
        <time>2017-10-18T18:23:43Z</time>
      </trkpt>
      <trkpt lat="62.667165798567" lon="17.842747588469">
        <ele>8</ele>
        <time>2017-10-18T18:23:44Z</time>
      </trkpt>
      <trkpt lat="62.667226483523" lon="17.842644155823">
        <ele>8</ele>
        <time>2017-10-18T18:23:45Z</time>
      </trkpt>
      <trkpt lat="62.667280462959" lon="17.842552793113">
        <ele>7.8</ele>
        <time>2017-10-18T18:23:46Z</time>
      </trkpt>
      <trkpt lat="62.667349613634" lon="17.842438715454">
        <ele>7.8</ele>
        <time>2017-10-18T18:23:47Z</time>
      </trkpt>
      <trkpt lat="62.667408454572" lon="17.842344586717">
        <ele>7.6</ele>
        <time>2017-10-18T18:23:48Z</time>
      </trkpt>
      <trkpt lat="62.667475258315" lon="17.842240315881">
        <ele>7.6</ele>
        <time>2017-10-18T18:23:49Z</time>
      </trkpt>
      <trkpt lat="62.667537619651" lon="17.842145265135">
        <ele>7.4</ele>
        <time>2017-10-18T18:23:50Z</time>
      </trkpt>
      <trkpt lat="62.667598136969" lon="17.842055075891">
        <ele>7.4</ele>
        <time>2017-10-18T18:23:51Z</time>
      </trkpt>
      <trkpt lat="62.667660582124" lon="17.84196295881">
        <ele>7.4</ele>
        <time>2017-10-18T18:23:52Z</time>
      </trkpt>
      <trkpt lat="62.667664605436" lon="17.841958348765">
        <ele>7.2</ele>
        <time>2017-10-18T18:23:53Z</time>
      </trkpt>
      <trkpt lat="62.667781784398" lon="17.841795823724">
        <ele>7.2</ele>
        <time>2017-10-18T18:23:54Z</time>
      </trkpt>
      <trkpt lat="62.66784196644" lon="17.841716363312">
        <ele>7.2</ele>
        <time>2017-10-18T18:23:55Z</time>
      </trkpt>
      <trkpt lat="62.667902399939" lon="17.841640842393">
        <ele>7.2</ele>
        <time>2017-10-18T18:23:56Z</time>
      </trkpt>
      <trkpt lat="62.667960318868" lon="17.841571104985">
        <ele>7</ele>
        <time>2017-10-18T18:23:57Z</time>
      </trkpt>
      <trkpt lat="62.668009772078" lon="17.841513353694">
        <ele>6.8</ele>
        <time>2017-10-18T18:23:58Z</time>
      </trkpt>
      <trkpt lat="62.668070540853" lon="17.841444370657">
        <ele>6.8</ele>
        <time>2017-10-18T18:23:59Z</time>
      </trkpt>
      <trkpt lat="62.668120748434" lon="17.841387792832">
        <ele>6.6</ele>
        <time>2017-10-18T18:24:00Z</time>
      </trkpt>
      <trkpt lat="62.668165926875" lon="17.841338255803">
        <ele>6.6</ele>
        <time>2017-10-18T18:24:01Z</time>
      </trkpt>
      <trkpt lat="62.668216721189" lon="17.841285449833">
        <ele>6.6</ele>
        <time>2017-10-18T18:24:02Z</time>
      </trkpt>
      <trkpt lat="62.668258714508" lon="17.841243959428">
        <ele>6.4</ele>
        <time>2017-10-18T18:24:03Z</time>
      </trkpt>
      <trkpt lat="62.668299701999" lon="17.841204229222">
        <ele>6.4</ele>
        <time>2017-10-18T18:24:04Z</time>
      </trkpt>
      <trkpt lat="62.66834320406" lon="17.841161984446">
        <ele>6.2</ele>
        <time>2017-10-18T18:24:05Z</time>
      </trkpt>
      <trkpt lat="62.668384862103" lon="17.841124936448">
        <ele>6.2</ele>
        <time>2017-10-18T18:24:06Z</time>
      </trkpt>
      <trkpt lat="62.668425262861" lon="17.841088978097">
        <ele>6</ele>
        <time>2017-10-18T18:24:07Z</time>
      </trkpt>
      <trkpt lat="62.668461891764" lon="17.841054947583">
        <ele>6</ele>
        <time>2017-10-18T18:24:08Z</time>
      </trkpt>
      <trkpt lat="62.668502627798" lon="17.841015552653">
        <ele>6.2</ele>
        <time>2017-10-18T18:24:09Z</time>
      </trkpt>
      <trkpt lat="62.668537328864" lon="17.840984288166">
        <ele>6.2</ele>
        <time>2017-10-18T18:24:10Z</time>
      </trkpt>
      <trkpt lat="62.668575634147" lon="17.84095293986">
        <ele>6.2</ele>
        <time>2017-10-18T18:24:11Z</time>
      </trkpt>
      <trkpt lat="62.668609916118" lon="17.840924357581">
        <ele>6.2</ele>
        <time>2017-10-18T18:24:12Z</time>
      </trkpt>
      <trkpt lat="62.668642102614" lon="17.840898038415">
        <ele>6.2</ele>
        <time>2017-10-18T18:24:13Z</time>
      </trkpt>
      <trkpt lat="62.668680491716" lon="17.84086995905">
        <ele>6.2</ele>
        <time>2017-10-18T18:24:14Z</time>
      </trkpt>
      <trkpt lat="62.668716869162" lon="17.840841879685">
        <ele>6.2</ele>
        <time>2017-10-18T18:24:15Z</time>
      </trkpt>
      <trkpt lat="62.668749055658" lon="17.840815979614">
        <ele>6.4</ele>
        <time>2017-10-18T18:24:16Z</time>
      </trkpt>
      <trkpt lat="62.668791468072" lon="17.840785134222">
        <ele>6.4</ele>
        <time>2017-10-18T18:24:17Z</time>
      </trkpt>
      <trkpt lat="62.668826755871" lon="17.840759150332">
        <ele>6.4</ele>
        <time>2017-10-18T18:24:18Z</time>
      </trkpt>
      <trkpt lat="62.668866066982" lon="17.840731406243">
        <ele>6.4</ele>
        <time>2017-10-18T18:24:19Z</time>
      </trkpt>
      <trkpt lat="62.668903031161" lon="17.840707853104">
        <ele>6.4</ele>
        <time>2017-10-18T18:24:20Z</time>
      </trkpt>
      <trkpt lat="62.668940582073" lon="17.840686563078">
        <ele>6.4</ele>
        <time>2017-10-18T18:24:21Z</time>
      </trkpt>
      <trkpt lat="62.668975115501" lon="17.840667452346">
        <ele>6.6</ele>
        <time>2017-10-18T18:24:22Z</time>
      </trkpt>
      <trkpt lat="62.669012498775" lon="17.840646497596">
        <ele>6.6</ele>
        <time>2017-10-18T18:24:23Z</time>
      </trkpt>
      <trkpt lat="62.669052480438" lon="17.840625710484">
        <ele>6.6</ele>
        <time>2017-10-18T18:24:24Z</time>
      </trkpt>
      <trkpt lat="62.669093216472" lon="17.840606348295">
        <ele>6.6</ele>
        <time>2017-10-18T18:24:25Z</time>
      </trkpt>
      <trkpt lat="62.669139149284" lon="17.8405891654">
        <ele>6.6</ele>
        <time>2017-10-18T18:24:26Z</time>
      </trkpt>
      <trkpt lat="62.669189021589" lon="17.840572904514">
        <ele>6.6</ele>
        <time>2017-10-18T18:24:27Z</time>
      </trkpt>
      <trkpt lat="62.669235289677" lon="17.840557397999">
        <ele>6.6</ele>
        <time>2017-10-18T18:24:28Z</time>
      </trkpt>
      <trkpt lat="62.669295639357" lon="17.840536778525">
        <ele>6.8</ele>
        <time>2017-10-18T18:24:29Z</time>
      </trkpt>
      <trkpt lat="62.669349702612" lon="17.840518170707">
        <ele>6.8</ele>
        <time>2017-10-18T18:24:30Z</time>
      </trkpt>
      <trkpt lat="62.669401083659" lon="17.840498221785">
        <ele>6.8</ele>
        <time>2017-10-18T18:24:31Z</time>
      </trkpt>
      <trkpt lat="62.669460008416" lon="17.840474417189">
        <ele>6.8</ele>
        <time>2017-10-18T18:24:32Z</time>
      </trkpt>
      <trkpt lat="62.669513484938" lon="17.840452875706">
        <ele>7</ele>
        <time>2017-10-18T18:24:33Z</time>
      </trkpt>
      <trkpt lat="62.66957031422" lon="17.840429993119">
        <ele>7</ele>
        <time>2017-10-18T18:24:34Z</time>
      </trkpt>
      <trkpt lat="62.669632424099" lon="17.840406607618">
        <ele>7</ele>
        <time>2017-10-18T18:24:35Z</time>
      </trkpt>
      <trkpt lat="62.669690929761" lon="17.84038380885">
        <ele>7</ele>
        <time>2017-10-18T18:24:36Z</time>
      </trkpt>
      <trkpt lat="62.669749351604" lon="17.840359249883">
        <ele>7</ele>
        <time>2017-10-18T18:24:37Z</time>
      </trkpt>
      <trkpt lat="62.66980416923" lon="17.840335529106">
        <ele>7</ele>
        <time>2017-10-18T18:24:38Z</time>
      </trkpt>
      <trkpt lat="62.66986703348" lon="17.840309712854">
        <ele>7.2</ele>
        <time>2017-10-18T18:24:39Z</time>
      </trkpt>
      <trkpt lat="62.669921934925" lon="17.840289009561">
        <ele>7.2</ele>
        <time>2017-10-18T18:24:40Z</time>
      </trkpt>
      <trkpt lat="62.669983793347" lon="17.840264199137">
        <ele>7.4</ele>
        <time>2017-10-18T18:24:41Z</time>
      </trkpt>
      <trkpt lat="62.670042047552" lon="17.840240059265">
        <ele>7.6</ele>
        <time>2017-10-18T18:24:42Z</time>
      </trkpt>
      <trkpt lat="62.670096613721" lon="17.840216841402">
        <ele>7.6</ele>
        <time>2017-10-18T18:24:43Z</time>
      </trkpt>
      <trkpt lat="62.670157466315" lon="17.840190438417">
        <ele>7.8</ele>
        <time>2017-10-18T18:24:44Z</time>
      </trkpt>
      <trkpt lat="62.670216223434" lon="17.840168142563">
        <ele>7.8</ele>
        <time>2017-10-18T18:24:45Z</time>
      </trkpt>
      <trkpt lat="62.670268861766" lon="17.840149870021">
        <ele>8</ele>
        <time>2017-10-18T18:24:46Z</time>
      </trkpt>
      <trkpt lat="62.670334827319" lon="17.840122880303">
        <ele>8</ele>
        <time>2017-10-18T18:24:47Z</time>
      </trkpt>
      <trkpt lat="62.670393165343" lon="17.840097734603">
        <ele>8</ele>
        <time>2017-10-18T18:24:48Z</time>
      </trkpt>
      <trkpt lat="62.670458125068" lon="17.84007116398">
        <ele>8.2</ele>
        <time>2017-10-18T18:24:49Z</time>
      </trkpt>
      <trkpt lat="62.670519564395" lon="17.840044258081">
        <ele>8.4</ele>
        <time>2017-10-18T18:24:50Z</time>
      </trkpt>
      <trkpt lat="62.670579997894" lon="17.840015424345">
        <ele>8.2</ele>
        <time>2017-10-18T18:24:51Z</time>
      </trkpt>
      <trkpt lat="62.670636994814" lon="17.839987596437">
        <ele>8.2</ele>
        <time>2017-10-18T18:24:52Z</time>
      </trkpt>
      <trkpt lat="62.670698098865" lon="17.839960271443">
        <ele>8</ele>
        <time>2017-10-18T18:24:53Z</time>
      </trkpt>
      <trkpt lat="62.670763142409" lon="17.839931353888">
        <ele>7.8</ele>
        <time>2017-10-18T18:24:54Z</time>
      </trkpt>
      <trkpt lat="62.670825252288" lon="17.839903190704">
        <ele>7.8</ele>
        <time>2017-10-18T18:24:55Z</time>
      </trkpt>
      <trkpt lat="62.670886021063" lon="17.839874859882">
        <ele>7.6</ele>
        <time>2017-10-18T18:24:56Z</time>
      </trkpt>
      <trkpt lat="62.670950226417" lon="17.839842841024">
        <ele>7.4</ele>
        <time>2017-10-18T18:24:57Z</time>
      </trkpt>
      <trkpt lat="62.671004289672" lon="17.839812666184">
        <ele>7.2</ele>
        <time>2017-10-18T18:24:58Z</time>
      </trkpt>
      <trkpt lat="62.67107570346" lon="17.839772516883">
        <ele>7.2</ele>
        <time>2017-10-18T18:24:59Z</time>
      </trkpt>
      <trkpt lat="62.671139573538" lon="17.839737480541">
        <ele>7.2</ele>
        <time>2017-10-18T18:25:00Z</time>
      </trkpt>
      <trkpt lat="62.671199587942" lon="17.83970152219">
        <ele>7</ele>
        <time>2017-10-18T18:25:01Z</time>
      </trkpt>
      <trkpt lat="62.671266391685" lon="17.839652236618">
        <ele>6.8</ele>
        <time>2017-10-18T18:25:02Z</time>
      </trkpt>
      <trkpt lat="62.671324142976" lon="17.839599598286">
        <ele>6.6</ele>
        <time>2017-10-18T18:25:03Z</time>
      </trkpt>
      <trkpt lat="62.671383654466" lon="17.83954058971">
        <ele>6.2</ele>
        <time>2017-10-18T18:25:04Z</time>
      </trkpt>
      <trkpt lat="62.671445512888" lon="17.839485855903">
        <ele>6</ele>
        <time>2017-10-18T18:25:05Z</time>
      </trkpt>
      <trkpt lat="62.671502593627" lon="17.839456938348">
        <ele>5.6</ele>
        <time>2017-10-18T18:25:06Z</time>
      </trkpt>
      <trkpt lat="62.671558249443" lon="17.839449394638">
        <ele>5.6</ele>
        <time>2017-10-18T18:25:07Z</time>
      </trkpt>
      <trkpt lat="62.671611055413" lon="17.839454759054">
        <ele>5.6</ele>
        <time>2017-10-18T18:25:08Z</time>
      </trkpt>
      <trkpt lat="62.671669309618" lon="17.839465068791">
        <ele>5.6</ele>
        <time>2017-10-18T18:25:09Z</time>
      </trkpt>
      <trkpt lat="62.671718930466" lon="17.839470014112">
        <ele>5.6</ele>
        <time>2017-10-18T18:25:10Z</time>
      </trkpt>
      <trkpt lat="62.671774921558" lon="17.839469511198">
        <ele>5.6</ele>
        <time>2017-10-18T18:25:11Z</time>
      </trkpt>
      <trkpt lat="62.671826554062" lon="17.839466074619">
        <ele>5.6</ele>
        <time>2017-10-18T18:25:12Z</time>
      </trkpt>
      <trkpt lat="62.67187533672" lon="17.839460877841">
        <ele>5.6</ele>
        <time>2017-10-18T18:25:13Z</time>
      </trkpt>
      <trkpt lat="62.671928897061" lon="17.839459788194">
        <ele>5.4</ele>
        <time>2017-10-18T18:25:14Z</time>
      </trkpt>
      <trkpt lat="62.671977009167" lon="17.839465404067">
        <ele>5.4</ele>
        <time>2017-10-18T18:25:15Z</time>
      </trkpt>
      <trkpt lat="62.672020427409" lon="17.839476551994">
        <ele>5.4</ele>
        <time>2017-10-18T18:25:16Z</time>
      </trkpt>
      <trkpt lat="62.672072059913" lon="17.839491220319">
        <ele>5.6</ele>
        <time>2017-10-18T18:25:17Z</time>
      </trkpt>
      <trkpt lat="62.672113885594" lon="17.83950119478">
        <ele>5.6</ele>
        <time>2017-10-18T18:25:18Z</time>
      </trkpt>
      <trkpt lat="62.672157890569" lon="17.839506978291">
        <ele>5.6</ele>
        <time>2017-10-18T18:25:19Z</time>
      </trkpt>
      <trkpt lat="62.672199213336" lon="17.839509995775">
        <ele>5.8</ele>
        <time>2017-10-18T18:25:20Z</time>
      </trkpt>
      <trkpt lat="62.672240284646" lon="17.839523993548">
        <ele>5.8</ele>
        <time>2017-10-18T18:25:21Z</time>
      </trkpt>
      <trkpt lat="62.672283702888" lon="17.839545451212">
        <ele>5.8</ele>
        <time>2017-10-18T18:25:22Z</time>
      </trkpt>
      <trkpt lat="62.672333072279" lon="17.839565232496">
        <ele>5.8</ele>
        <time>2017-10-18T18:25:23Z</time>
      </trkpt>
      <trkpt lat="62.672390153018" lon="17.839577805346">
        <ele>5.6</ele>
        <time>2017-10-18T18:25:24Z</time>
      </trkpt>
      <trkpt lat="62.672447066119" lon="17.839587863626">
        <ele>5.6</ele>
        <time>2017-10-18T18:25:25Z</time>
      </trkpt>
      <trkpt lat="62.672505907057" lon="17.839600268838">
        <ele>5.4</ele>
        <time>2017-10-18T18:25:26Z</time>
      </trkpt>
      <trkpt lat="62.672566424375" lon="17.839611416765">
        <ele>5</ele>
        <time>2017-10-18T18:25:27Z</time>
      </trkpt>
      <trkpt lat="62.672617721603" lon="17.839621307407">
        <ele>4.8</ele>
        <time>2017-10-18T18:25:28Z</time>
      </trkpt>
      <trkpt lat="62.672678406559" lon="17.83963111423">
        <ele>4.6</ele>
        <time>2017-10-18T18:25:29Z</time>
      </trkpt>
      <trkpt lat="62.672730122882" lon="17.839639412311">
        <ele>4.2</ele>
        <time>2017-10-18T18:25:30Z</time>
      </trkpt>
      <trkpt lat="62.672782845033" lon="17.839647542754">
        <ele>4.2</ele>
        <time>2017-10-18T18:25:31Z</time>
      </trkpt>
      <trkpt lat="62.672840428686" lon="17.839656008473">
        <ele>4.2</ele>
        <time>2017-10-18T18:25:32Z</time>
      </trkpt>
      <trkpt lat="62.672892564104" lon="17.839665312382">
        <ele>4.4</ele>
        <time>2017-10-18T18:25:33Z</time>
      </trkpt>
      <trkpt lat="62.672948136101" lon="17.839675789757">
        <ele>4.4</ele>
        <time>2017-10-18T18:25:34Z</time>
      </trkpt>
      <trkpt lat="62.673008737238" lon="17.839690290444">
        <ele>4.6</ele>
        <time>2017-10-18T18:25:35Z</time>
      </trkpt>
      <trkpt lat="62.673065901796" lon="17.839709987909">
        <ele>4.8</ele>
        <time>2017-10-18T18:25:36Z</time>
      </trkpt>
      <trkpt lat="62.673124156001" lon="17.839737061446">
        <ele>4.6</ele>
        <time>2017-10-18T18:25:37Z</time>
      </trkpt>
      <trkpt lat="62.673178051618" lon="17.839765056992">
        <ele>4.6</ele>
        <time>2017-10-18T18:25:38Z</time>
      </trkpt>
      <trkpt lat="62.673239826221" lon="17.839799255144">
        <ele>4.4</ele>
        <time>2017-10-18T18:25:39Z</time>
      </trkpt>
      <trkpt lat="62.673294308571" lon="17.839831357821">
        <ele>4.4</ele>
        <time>2017-10-18T18:25:40Z</time>
      </trkpt>
      <trkpt lat="62.673357340459" lon="17.839866310344">
        <ele>4.4</ele>
        <time>2017-10-18T18:25:41Z</time>
      </trkpt>
      <trkpt lat="62.673415678483" lon="17.839895814632">
        <ele>4.2</ele>
        <time>2017-10-18T18:25:42Z</time>
      </trkpt>
      <trkpt lat="62.673470747566" lon="17.839913835717">
        <ele>4.2</ele>
        <time>2017-10-18T18:25:43Z</time>
      </trkpt>
      <trkpt lat="62.673529839961" lon="17.839925570377">
        <ele>4.2</ele>
        <time>2017-10-18T18:25:44Z</time>
      </trkpt>
      <trkpt lat="62.673589770546" lon="17.839936718304">
        <ele>4.2</ele>
        <time>2017-10-18T18:25:45Z</time>
      </trkpt>
      <trkpt lat="62.673639559032" lon="17.839945100204">
        <ele>4.2</ele>
        <time>2017-10-18T18:25:46Z</time>
      </trkpt>
      <trkpt lat="62.673696136857" lon="17.839951889543">
        <ele>4.2</ele>
        <time>2017-10-18T18:25:47Z</time>
      </trkpt>
      <trkpt lat="62.673740644746" lon="17.839951889543">
        <ele>4.2</ele>
        <time>2017-10-18T18:25:48Z</time>
      </trkpt>
      <trkpt lat="62.673790349413" lon="17.839941579806">
        <ele>4.2</ele>
        <time>2017-10-18T18:25:49Z</time>
      </trkpt>
      <trkpt lat="62.673836366044" lon="17.839920205961">
        <ele>4.4</ele>
        <time>2017-10-18T18:25:50Z</time>
      </trkpt>
      <trkpt lat="62.673880873933" lon="17.839892797148">
        <ele>4.4</ele>
        <time>2017-10-18T18:25:51Z</time>
      </trkpt>
      <trkpt lat="62.673922364338" lon="17.839868070543">
        <ele>4.6</ele>
        <time>2017-10-18T18:25:52Z</time>
      </trkpt>
      <trkpt lat="62.673965447304" lon="17.839840326454">
        <ele>4.8</ele>
        <time>2017-10-18T18:25:53Z</time>
      </trkpt>
      <trkpt lat="62.674011547754" lon="17.839813085279">
        <ele>4.8</ele>
        <time>2017-10-18T18:25:54Z</time>
      </trkpt>
      <trkpt lat="62.674055385091" lon="17.839807553225">
        <ele>4.8</ele>
        <time>2017-10-18T18:25:55Z</time>
      </trkpt>
      <trkpt lat="62.674096707858" lon="17.839826077224">
        <ele>4.8</ele>
        <time>2017-10-18T18:25:56Z</time>
      </trkpt>
      <trkpt lat="62.674134845503" lon="17.839855162417">
        <ele>4.8</ele>
        <time>2017-10-18T18:25:57Z</time>
      </trkpt>
      <trkpt lat="62.674162505773" lon="17.839893132424">
        <ele>4.8</ele>
        <time>2017-10-18T18:25:58Z</time>
      </trkpt>
      <trkpt lat="62.674177509374" lon="17.839957253959">
        <ele>4.8</ele>
        <time>2017-10-18T18:25:59Z</time>
      </trkpt>
      <trkpt lat="62.674181281229" lon="17.840016094897">
        <ele>4.8</ele>
        <time>2017-10-18T18:26:00Z</time>
      </trkpt>
      <trkpt lat="62.674190585138" lon="17.840062111528">
        <ele>4.8</ele>
        <time>2017-10-18T18:26:01Z</time>
      </trkpt>
      <trkpt lat="62.674209109137" lon="17.840079713518">
        <ele>4.8</ele>
        <time>2017-10-18T18:26:02Z</time>
      </trkpt>
      <trkpt lat="62.67422310691" lon="17.840058004397">
        <ele>4.8</ele>
        <time>2017-10-18T18:26:03Z</time>
      </trkpt>
      <trkpt lat="62.674223861281" lon="17.840016178716">
        <ele>4.8</ele>
        <time>2017-10-18T18:26:04Z</time>
      </trkpt>
      <trkpt lat="62.674208270947" lon="17.839971000275">
        <ele>4.8</ele>
        <time>2017-10-18T18:26:05Z</time>
      </trkpt>
      <trkpt lat="62.674185975093" lon="17.839926576205">
        <ele>4.8</ele>
        <time>2017-10-18T18:26:06Z</time>
      </trkpt>
      <trkpt lat="62.674158482461" lon="17.839871088027">
        <ele>4.6</ele>
        <time>2017-10-18T18:26:07Z</time>
      </trkpt>
      <trkpt lat="62.674131576562" lon="17.839801434438">
        <ele>4.6</ele>
        <time>2017-10-18T18:26:08Z</time>
      </trkpt>
      <trkpt lat="62.674108358699" lon="17.83970236038">
        <ele>4.6</ele>
        <time>2017-10-18T18:26:09Z</time>
      </trkpt>
      <trkpt lat="62.674100312075" lon="17.839601693761">
        <ele>4.8</ele>
        <time>2017-10-18T18:26:10Z</time>
      </trkpt>
      <trkpt lat="62.674108442518" lon="17.839487867559">
        <ele>4.8</ele>
        <time>2017-10-18T18:26:11Z</time>
      </trkpt>
      <trkpt lat="62.674132247114" lon="17.839389547872">
        <ele>5</ele>
        <time>2017-10-18T18:26:12Z</time>
      </trkpt>
      <trkpt lat="62.674159907384" lon="17.839303130483">
        <ele>5</ele>
        <time>2017-10-18T18:26:13Z</time>
      </trkpt>
      <trkpt lat="62.674191674785" lon="17.839208917927">
        <ele>5.2</ele>
        <time>2017-10-18T18:26:14Z</time>
      </trkpt>
      <trkpt lat="62.674221681987" lon="17.839121578529">
        <ele>5.2</ele>
        <time>2017-10-18T18:26:15Z</time>
      </trkpt>
      <trkpt lat="62.674247162963" lon="17.839042956307">
        <ele>5.4</ele>
        <time>2017-10-18T18:26:16Z</time>
      </trkpt>
      <trkpt lat="62.674277002527" lon="17.838946983552">
        <ele>5.6</ele>
        <time>2017-10-18T18:26:17Z</time>
      </trkpt>
      <trkpt lat="62.674303824607" lon="17.838871127357">
        <ele>5.8</ele>
        <time>2017-10-18T18:26:18Z</time>
      </trkpt>
      <trkpt lat="62.67433458618" lon="17.838789990565">
        <ele>6</ele>
        <time>2017-10-18T18:26:19Z</time>
      </trkpt>
      <trkpt lat="62.674362749364" lon="17.838712960904">
        <ele>6.4</ele>
        <time>2017-10-18T18:26:20Z</time>
      </trkpt>
      <trkpt lat="62.67439074491" lon="17.838641128021">
        <ele>6.6</ele>
        <time>2017-10-18T18:26:21Z</time>
      </trkpt>
      <trkpt lat="62.674414046592" lon="17.838570636242">
        <ele>6.8</ele>
        <time>2017-10-18T18:26:22Z</time>
      </trkpt>
      <trkpt lat="62.674438773197" lon="17.838493606581">
        <ele>7</ele>
        <time>2017-10-18T18:26:23Z</time>
      </trkpt>
      <trkpt lat="62.674463918897" lon="17.838414481445">
        <ele>7.2</ele>
        <time>2017-10-18T18:26:24Z</time>
      </trkpt>
      <trkpt lat="62.67448629857" lon="17.838339798716">
        <ele>7.4</ele>
        <time>2017-10-18T18:26:25Z</time>
      </trkpt>
      <trkpt lat="62.674507923872" lon="17.83826151177">
        <ele>7.4</ele>
        <time>2017-10-18T18:26:26Z</time>
      </trkpt>
      <trkpt lat="62.674528124251" lon="17.838182302815">
        <ele>7.6</ele>
        <time>2017-10-18T18:26:27Z</time>
      </trkpt>
      <trkpt lat="62.674545474784" lon="17.838112481588">
        <ele>7.8</ele>
        <time>2017-10-18T18:26:28Z</time>
      </trkpt>
      <trkpt lat="62.674564417878" lon="17.83802095124">
        <ele>8.2</ele>
        <time>2017-10-18T18:26:29Z</time>
      </trkpt>
      <trkpt lat="62.674579672936" lon="17.837937383697">
        <ele>8.6</ele>
        <time>2017-10-18T18:26:30Z</time>
      </trkpt>
      <trkpt lat="62.674596436736" lon="17.83786001876">
        <ele>8.8</ele>
        <time>2017-10-18T18:26:31Z</time>
      </trkpt>
      <trkpt lat="62.674616972391" lon="17.837776451217">
        <ele>9</ele>
        <time>2017-10-18T18:26:32Z</time>
      </trkpt>
      <trkpt lat="62.674636586037" lon="17.83770411542">
        <ele>9.2</ele>
        <time>2017-10-18T18:26:33Z</time>
      </trkpt>
      <trkpt lat="62.674656534959" lon="17.8376303547">
        <ele>9.4</ele>
        <time>2017-10-18T18:26:34Z</time>
      </trkpt>
      <trkpt lat="62.674676986795" lon="17.837552738306">
        <ele>9.6</ele>
        <time>2017-10-18T18:26:35Z</time>
      </trkpt>
      <trkpt lat="62.674695091699" lon="17.837480151052">
        <ele>9.8</ele>
        <time>2017-10-18T18:26:36Z</time>
      </trkpt>
      <trkpt lat="62.674711101128" lon="17.837409659273">
        <ele>10.2</ele>
        <time>2017-10-18T18:26:37Z</time>
      </trkpt>
      <trkpt lat="62.674725601815" lon="17.837351740344">
        <ele>10.2</ele>
        <time>2017-10-18T18:26:38Z</time>
      </trkpt>
      <trkpt lat="62.674737504113" lon="17.837291809759">
        <ele>10.6</ele>
        <time>2017-10-18T18:26:39Z</time>
      </trkpt>
      <trkpt lat="62.674739180493" lon="17.837242440368">
        <ele>10.8</ele>
        <time>2017-10-18T18:26:40Z</time>
      </trkpt>
      <trkpt lat="62.674734738086" lon="17.837183347973">
        <ele>11</ele>
        <time>2017-10-18T18:26:41Z</time>
      </trkpt>
      <trkpt lat="62.674733899896" lon="17.837117885334">
        <ele>11</ele>
        <time>2017-10-18T18:26:42Z</time>
      </trkpt>
      <trkpt lat="62.674738426122" lon="17.837051584505">
        <ele>11.2</ele>
        <time>2017-10-18T18:26:43Z</time>
      </trkpt>
      <trkpt lat="62.674745886013" lon="17.836967765505">
        <ele>11.2</ele>
        <time>2017-10-18T18:26:44Z</time>
      </trkpt>
      <trkpt lat="62.674759380872" lon="17.836882856858">
        <ele>11.2</ele>
        <time>2017-10-18T18:26:45Z</time>
      </trkpt>
      <trkpt lat="62.67477631231" lon="17.836804989007">
        <ele>11.4</ele>
        <time>2017-10-18T18:26:46Z</time>
      </trkpt>
      <trkpt lat="62.674799111078" lon="17.836709016252">
        <ele>11.4</ele>
        <time>2017-10-18T18:26:47Z</time>
      </trkpt>
      <trkpt lat="62.67481906" lon="17.836626622175">
        <ele>11.4</ele>
        <time>2017-10-18T18:26:48Z</time>
      </trkpt>
      <trkpt lat="62.674842026406" lon="17.836532493438">
        <ele>11.4</ele>
        <time>2017-10-18T18:26:49Z</time>
      </trkpt>
      <trkpt lat="62.674864154622" lon="17.836442220375">
        <ele>11.2</ele>
        <time>2017-10-18T18:26:50Z</time>
      </trkpt>
      <trkpt lat="62.674884522639" lon="17.836353120778">
        <ele>11.2</ele>
        <time>2017-10-18T18:26:51Z</time>
      </trkpt>
      <trkpt lat="62.674902795181" lon="17.836270223787">
        <ele>11</ele>
        <time>2017-10-18T18:26:52Z</time>
      </trkpt>
      <trkpt lat="62.674922576465" lon="17.836181291828">
        <ele>11</ele>
        <time>2017-10-18T18:26:53Z</time>
      </trkpt>
      <trkpt lat="62.67494311212" lon="17.836083977969">
        <ele>11</ele>
        <time>2017-10-18T18:26:54Z</time>
      </trkpt>
      <trkpt lat="62.67495987592" lon="17.835992699078">
        <ele>11.2</ele>
        <time>2017-10-18T18:26:55Z</time>
      </trkpt>
      <trkpt lat="62.674976052987" lon="17.83590200692">
        <ele>11.2</ele>
        <time>2017-10-18T18:26:56Z</time>
      </trkpt>
      <trkpt lat="62.674992816787" lon="17.835806872355">
        <ele>11.2</ele>
        <time>2017-10-18T18:26:57Z</time>
      </trkpt>
      <trkpt lat="62.675006227827" lon="17.835725065011">
        <ele>11.4</ele>
        <time>2017-10-18T18:26:58Z</time>
      </trkpt>
      <trkpt lat="62.675021734342" lon="17.835620123623">
        <ele>11.4</ele>
        <time>2017-10-18T18:26:59Z</time>
      </trkpt>
      <trkpt lat="62.675033804278" lon="17.835523396497">
        <ele>11.6</ele>
        <time>2017-10-18T18:27:00Z</time>
      </trkpt>
      <trkpt lat="62.675044868386" lon="17.835430776502">
        <ele>11.6</ele>
        <time>2017-10-18T18:27:01Z</time>
      </trkpt>
      <trkpt lat="62.675058866159" lon="17.835326589485">
        <ele>11.6</ele>
        <time>2017-10-18T18:27:02Z</time>
      </trkpt>
      <trkpt lat="62.675070936095" lon="17.835231538739">
        <ele>11.8</ele>
        <time>2017-10-18T18:27:03Z</time>
      </trkpt>
      <trkpt lat="62.675082000203" lon="17.835129363378">
        <ele>11.6</ele>
        <time>2017-10-18T18:27:04Z</time>
      </trkpt>
      <trkpt lat="62.675093231949" lon="17.835019979583">
        <ele>11.6</ele>
        <time>2017-10-18T18:27:05Z</time>
      </trkpt>
      <trkpt lat="62.675103457867" lon="17.834915876385">
        <ele>11.8</ele>
        <time>2017-10-18T18:27:06Z</time>
      </trkpt>
      <trkpt lat="62.675112007405" lon="17.834815461223">
        <ele>11.8</ele>
        <time>2017-10-18T18:27:07Z</time>
      </trkpt>
      <trkpt lat="62.675118461468" lon="17.834721332486">
        <ele>11.8</ele>
        <time>2017-10-18T18:27:08Z</time>
      </trkpt>
      <trkpt lat="62.675125502264" lon="17.834616474917">
        <ele>11.8</ele>
        <time>2017-10-18T18:27:09Z</time>
      </trkpt>
      <trkpt lat="62.675131118137" lon="17.834525615121">
        <ele>11.8</ele>
        <time>2017-10-18T18:27:10Z</time>
      </trkpt>
      <trkpt lat="62.675135812001" lon="17.834423523579">
        <ele>12</ele>
        <time>2017-10-18T18:27:11Z</time>
      </trkpt>
      <trkpt lat="62.675137991295" lon="17.834326964091">
        <ele>12</ele>
        <time>2017-10-18T18:27:12Z</time>
      </trkpt>
      <trkpt lat="62.675140338227" lon="17.834235517562">
        <ele>12.2</ele>
        <time>2017-10-18T18:27:13Z</time>
      </trkpt>
      <trkpt lat="62.675143858625" lon="17.834133928934">
        <ele>12.6</ele>
        <time>2017-10-18T18:27:14Z</time>
      </trkpt>
      <trkpt lat="62.675147043747" lon="17.834038375274">
        <ele>12.8</ele>
        <time>2017-10-18T18:27:15Z</time>
      </trkpt>
      <trkpt lat="62.675147965756" lon="17.833952460799">
        <ele>13</ele>
        <time>2017-10-18T18:27:16Z</time>
      </trkpt>
      <trkpt lat="62.675149977412" lon="17.833848189963">
        <ele>13.2</ele>
        <time>2017-10-18T18:27:17Z</time>
      </trkpt>
      <trkpt lat="62.675153413991" lon="17.833759677099">
        <ele>13.2</ele>
        <time>2017-10-18T18:27:18Z</time>
      </trkpt>
      <trkpt lat="62.675158610769" lon="17.833663033792">
        <ele>13.4</ele>
        <time>2017-10-18T18:27:19Z</time>
      </trkpt>
      <trkpt lat="62.675164142823" lon="17.833574269471">
        <ele>13.4</ele>
        <time>2017-10-18T18:27:20Z</time>
      </trkpt>
      <trkpt lat="62.675170345429" lon="17.833484247865">
        <ele>13.4</ele>
        <time>2017-10-18T18:27:21Z</time>
      </trkpt>
      <trkpt lat="62.675175039293" lon="17.833399674494">
        <ele>13.6</ele>
        <time>2017-10-18T18:27:22Z</time>
      </trkpt>
      <trkpt lat="62.675180822804" lon="17.833305210481">
        <ele>13.8</ele>
        <time>2017-10-18T18:27:23Z</time>
      </trkpt>
      <trkpt lat="62.675188953247" lon="17.833204962957">
        <ele>13.8</ele>
        <time>2017-10-18T18:27:24Z</time>
      </trkpt>
      <trkpt lat="62.675197754242" lon="17.833112594419">
        <ele>14</ele>
        <time>2017-10-18T18:27:25Z</time>
      </trkpt>
      <trkpt lat="62.675206639056" lon="17.83301863332">
        <ele>14</ele>
        <time>2017-10-18T18:27:26Z</time>
      </trkpt>
      <trkpt lat="62.675216026784" lon="17.832927354429">
        <ele>14.2</ele>
        <time>2017-10-18T18:27:27Z</time>
      </trkpt>
      <trkpt lat="62.67522474396" lon="17.832849486578">
        <ele>14.2</ele>
        <time>2017-10-18T18:27:28Z</time>
      </trkpt>
      <trkpt lat="62.675238071181" lon="17.83274873614">
        <ele>14.2</ele>
        <time>2017-10-18T18:27:29Z</time>
      </trkpt>
      <trkpt lat="62.675250308755" lon="17.832660390914">
        <ele>14.2</ele>
        <time>2017-10-18T18:27:30Z</time>
      </trkpt>
      <trkpt lat="62.675263133062" lon="17.832577577742">
        <ele>14.4</ele>
        <time>2017-10-18T18:27:31Z</time>
      </trkpt>
      <trkpt lat="62.675277047016" lon="17.832484371014">
        <ele>14.6</ele>
        <time>2017-10-18T18:27:32Z</time>
      </trkpt>
      <trkpt lat="62.675290541875" lon="17.83240088729">
        <ele>14.8</ele>
        <time>2017-10-18T18:27:33Z</time>
      </trkpt>
      <trkpt lat="62.675304455829" lon="17.83231203915">
        <ele>15</ele>
        <time>2017-10-18T18:27:34Z</time>
      </trkpt>
      <trkpt lat="62.675319291792" lon="17.832216150214">
        <ele>15</ele>
        <time>2017-10-18T18:27:35Z</time>
      </trkpt>
      <trkpt lat="62.675335301221" lon="17.832125793332">
        <ele>15.2</ele>
        <time>2017-10-18T18:27:36Z</time>
      </trkpt>
      <trkpt lat="62.675352567935" lon="17.832037867201">
        <ele>15.2</ele>
        <time>2017-10-18T18:27:37Z</time>
      </trkpt>
      <trkpt lat="62.67536891264" lon="17.83195497021">
        <ele>15.4</ele>
        <time>2017-10-18T18:27:38Z</time>
      </trkpt>
      <trkpt lat="62.675386346992" lon="17.831864948604">
        <ele>15.6</ele>
        <time>2017-10-18T18:27:39Z</time>
      </trkpt>
      <trkpt lat="62.675403529887" lon="17.831782386889">
        <ele>15.8</ele>
        <time>2017-10-18T18:27:40Z</time>
      </trkpt>
      <trkpt lat="62.675424903732" lon="17.831693622568">
        <ele>15.8</ele>
        <time>2017-10-18T18:27:41Z</time>
      </trkpt>
      <trkpt lat="62.675445690844" lon="17.831612318138">
        <ele>16</ele>
        <time>2017-10-18T18:27:42Z</time>
      </trkpt>
      <trkpt lat="62.675464801576" lon="17.831534282649">
        <ele>16.2</ele>
        <time>2017-10-18T18:27:43Z</time>
      </trkpt>
      <trkpt lat="62.675485504869" lon="17.831449206364">
        <ele>16.4</ele>
        <time>2017-10-18T18:27:44Z</time>
      </trkpt>
      <trkpt lat="62.675506794895" lon="17.831371757608">
        <ele>16.4</ele>
        <time>2017-10-18T18:27:45Z</time>
      </trkpt>
      <trkpt lat="62.675526576179" lon="17.831302187838">
        <ele>16.4</ele>
        <time>2017-10-18T18:27:46Z</time>
      </trkpt>
      <trkpt lat="62.675549291128" lon="17.831215518992">
        <ele>16.6</ele>
        <time>2017-10-18T18:27:47Z</time>
      </trkpt>
      <trkpt lat="62.675568904774" lon="17.831140417168">
        <ele>16.8</ele>
        <time>2017-10-18T18:27:48Z</time>
      </trkpt>
      <trkpt lat="62.675591703542" lon="17.831057352539">
        <ele>16.8</ele>
        <time>2017-10-18T18:27:49Z</time>
      </trkpt>
      <trkpt lat="62.675613999396" lon="17.830978562679">
        <ele>16.8</ele>
        <time>2017-10-18T18:27:50Z</time>
      </trkpt>
      <trkpt lat="62.675634451232" lon="17.830901616837">
        <ele>17</ele>
        <time>2017-10-18T18:27:51Z</time>
      </trkpt>
      <trkpt lat="62.675652723774" lon="17.83082928104">
        <ele>17.2</ele>
        <time>2017-10-18T18:27:52Z</time>
      </trkpt>
      <trkpt lat="62.675672505058" lon="17.830759375994">
        <ele>17.4</ele>
        <time>2017-10-18T18:27:53Z</time>
      </trkpt>
      <trkpt lat="62.675695555283" lon="17.830693410441">
        <ele>17.8</ele>
        <time>2017-10-18T18:27:54Z</time>
      </trkpt>
      <trkpt lat="62.675718940784" lon="17.830634904779">
        <ele>18</ele>
        <time>2017-10-18T18:27:55Z</time>
      </trkpt>
      <trkpt lat="62.675742996837" lon="17.830572375805">
        <ele>18.2</ele>
        <time>2017-10-18T18:27:56Z</time>
      </trkpt>
      <trkpt lat="62.675766885252" lon="17.830506494071">
        <ele>18.4</ele>
        <time>2017-10-18T18:27:57Z</time>
      </trkpt>
      <trkpt lat="62.675787923821" lon="17.830446814943">
        <ele>18.6</ele>
        <time>2017-10-18T18:27:58Z</time>
      </trkpt>
      <trkpt lat="62.675815081177" lon="17.830371545481">
        <ele>18.8</ele>
        <time>2017-10-18T18:27:59Z</time>
      </trkpt>
      <trkpt lat="62.675838215221" lon="17.83030373591">
        <ele>18.8</ele>
        <time>2017-10-18T18:28:00Z</time>
      </trkpt>
      <trkpt lat="62.675859756704" lon="17.830236093977">
        <ele>19</ele>
        <time>2017-10-18T18:28:01Z</time>
      </trkpt>
      <trkpt lat="62.675884148033" lon="17.830159315773">
        <ele>19</ele>
        <time>2017-10-18T18:28:02Z</time>
      </trkpt>
      <trkpt lat="62.675905605697" lon="17.830085638872">
        <ele>19</ele>
        <time>2017-10-18T18:28:03Z</time>
      </trkpt>
      <trkpt lat="62.675927901551" lon="17.830004334442">
        <ele>19</ele>
        <time>2017-10-18T18:28:04Z</time>
      </trkpt>
      <trkpt lat="62.675951873785" lon="17.829913474646">
        <ele>19</ele>
        <time>2017-10-18T18:28:05Z</time>
      </trkpt>
      <trkpt lat="62.67597408582" lon="17.829827476352">
        <ele>19</ele>
        <time>2017-10-18T18:28:06Z</time>
      </trkpt>
      <trkpt lat="62.675996465493" lon="17.829740053135">
        <ele>19</ele>
        <time>2017-10-18T18:28:07Z</time>
      </trkpt>
      <trkpt lat="62.676017839338" lon="17.829656401773">
        <ele>19</ele>
        <time>2017-10-18T18:28:08Z</time>
      </trkpt>
      <trkpt lat="62.676044158504" lon="17.829562608312">
        <ele>18.8</ele>
        <time>2017-10-18T18:28:09Z</time>
      </trkpt>
      <trkpt lat="62.676069136566" lon="17.829478202579">
        <ele>18.8</ele>
        <time>2017-10-18T18:28:10Z</time>
      </trkpt>
      <trkpt lat="62.676097215931" lon="17.829380972539">
        <ele>18.8</ele>
        <time>2017-10-18T18:28:11Z</time>
      </trkpt>
      <trkpt lat="62.676122026355" lon="17.829289358372">
        <ele>18.8</ele>
        <time>2017-10-18T18:28:12Z</time>
      </trkpt>
      <trkpt lat="62.676145579494" lon="17.829205036458">
        <ele>18.8</ele>
        <time>2017-10-18T18:28:13Z</time>
      </trkpt>
      <trkpt lat="62.676170557556" lon="17.829113925205">
        <ele>18.6</ele>
        <time>2017-10-18T18:28:14Z</time>
      </trkpt>
      <trkpt lat="62.676191763763" lon="17.829028262187">
        <ele>18.6</ele>
        <time>2017-10-18T18:28:15Z</time>
      </trkpt>
      <trkpt lat="62.676211628866" lon="17.828951567802">
        <ele>18.6</ele>
        <time>2017-10-18T18:28:16Z</time>
      </trkpt>
      <trkpt lat="62.676235265824" lon="17.828860205092">
        <ele>18.6</ele>
        <time>2017-10-18T18:28:17Z</time>
      </trkpt>
      <trkpt lat="62.676255885298" lon="17.828779319757">
        <ele>18.6</ele>
        <time>2017-10-18T18:28:18Z</time>
      </trkpt>
      <trkpt lat="62.676277929695" lon="17.828690639255">
        <ele>18.6</ele>
        <time>2017-10-18T18:28:19Z</time>
      </trkpt>
      <trkpt lat="62.676300560825" lon="17.828604473323">
        <ele>18.8</ele>
        <time>2017-10-18T18:28:20Z</time>
      </trkpt>
      <trkpt lat="62.676323024317" lon="17.828518810305">
        <ele>18.8</ele>
        <time>2017-10-18T18:28:21Z</time>
      </trkpt>
      <trkpt lat="62.676344062886" lon="17.82843624859">
        <ele>19</ele>
        <time>2017-10-18T18:28:22Z</time>
      </trkpt>
      <trkpt lat="62.67636635874" lon="17.828348406278">
        <ele>19</ele>
        <time>2017-10-18T18:28:23Z</time>
      </trkpt>
      <trkpt lat="62.676391085345" lon="17.828255367188">
        <ele>19</ele>
        <time>2017-10-18T18:28:24Z</time>
      </trkpt>
      <trkpt lat="62.676415560493" lon="17.8281671896">
        <ele>19.2</ele>
        <time>2017-10-18T18:28:25Z</time>
      </trkpt>
      <trkpt lat="62.6764367667" lon="17.828077335632">
        <ele>19.2</ele>
        <time>2017-10-18T18:28:26Z</time>
      </trkpt>
      <trkpt lat="62.676459733106" lon="17.827989241863">
        <ele>19.2</ele>
        <time>2017-10-18T18:28:27Z</time>
      </trkpt>
      <trkpt lat="62.67648035258" lon="17.827913720944">
        <ele>19.4</ele>
        <time>2017-10-18T18:28:28Z</time>
      </trkpt>
      <trkpt lat="62.676505079185" lon="17.827815904171">
        <ele>19.4</ele>
        <time>2017-10-18T18:28:29Z</time>
      </trkpt>
      <trkpt lat="62.676526117754" lon="17.827731917533">
        <ele>19.4</ele>
        <time>2017-10-18T18:28:30Z</time>
      </trkpt>
      <trkpt lat="62.676545647581" lon="17.827650948379">
        <ele>19.4</ele>
        <time>2017-10-18T18:28:31Z</time>
      </trkpt>
      <trkpt lat="62.676568781625" lon="17.827559920945">
        <ele>19.6</ele>
        <time>2017-10-18T18:28:32Z</time>
      </trkpt>
      <trkpt lat="62.676589568737" lon="17.827479789981">
        <ele>19.6</ele>
        <time>2017-10-18T18:28:33Z</time>
      </trkpt>
      <trkpt lat="62.676611780772" lon="17.827394965153">
        <ele>19.8</ele>
        <time>2017-10-18T18:28:34Z</time>
      </trkpt>
      <trkpt lat="62.67661530117" lon="17.82738264376">
        <ele>19.8</ele>
        <time>2017-10-18T18:28:35Z</time>
      </trkpt>
      <trkpt lat="62.676659306145" lon="17.827214670484">
        <ele>20.2</ele>
        <time>2017-10-18T18:28:36Z</time>
      </trkpt>
      <trkpt lat="62.676682943103" lon="17.827124062145">
        <ele>20.2</ele>
        <time>2017-10-18T18:28:37Z</time>
      </trkpt>
      <trkpt lat="62.676705993328" lon="17.827038650584">
        <ele>20.6</ele>
        <time>2017-10-18T18:28:38Z</time>
      </trkpt>
      <trkpt lat="62.676732061037" lon="17.826943683657">
        <ele>20.6</ele>
        <time>2017-10-18T18:28:39Z</time>
      </trkpt>
      <trkpt lat="62.676755195081" lon="17.826862798322">
        <ele>20.8</ele>
        <time>2017-10-18T18:28:40Z</time>
      </trkpt>
      <trkpt lat="62.67678210098" lon="17.826771519431">
        <ele>20.8</ele>
        <time>2017-10-18T18:28:41Z</time>
      </trkpt>
      <trkpt lat="62.676807581956" lon="17.826681833101">
        <ele>20.8</ele>
        <time>2017-10-18T18:28:42Z</time>
      </trkpt>
      <trkpt lat="62.676830967457" lon="17.826595667169">
        <ele>20.8</ele>
        <time>2017-10-18T18:28:43Z</time>
      </trkpt>
      <trkpt lat="62.676855442605" lon="17.826498688586">
        <ele>21</ele>
        <time>2017-10-18T18:28:44Z</time>
      </trkpt>
      <trkpt lat="62.676877235545" lon="17.826408918437">
        <ele>20.8</ele>
        <time>2017-10-18T18:28:45Z</time>
      </trkpt>
      <trkpt lat="62.676897184467" lon="17.826333732794">
        <ele>21</ele>
        <time>2017-10-18T18:28:46Z</time>
      </trkpt>
      <trkpt lat="62.676920234692" lon="17.826242370084">
        <ele>21</ele>
        <time>2017-10-18T18:28:47Z</time>
      </trkpt>
      <trkpt lat="62.676938255777" lon="17.826163747862">
        <ele>21.2</ele>
        <time>2017-10-18T18:28:48Z</time>
      </trkpt>
      <trkpt lat="62.676959461984" lon="17.826074648265">
        <ele>21.4</ele>
        <time>2017-10-18T18:28:49Z</time>
      </trkpt>
      <trkpt lat="62.676979746182" lon="17.825993176197">
        <ele>21.6</ele>
        <time>2017-10-18T18:28:50Z</time>
      </trkpt>
      <trkpt lat="62.676999862742" lon="17.825908183731">
        <ele>21.8</ele>
        <time>2017-10-18T18:28:51Z</time>
      </trkpt>
      <trkpt lat="62.677018051465" lon="17.825828471862">
        <ele>22</ele>
        <time>2017-10-18T18:28:52Z</time>
      </trkpt>
      <trkpt lat="62.677035318179" lon="17.825738617894">
        <ele>22.2</ele>
        <time>2017-10-18T18:28:53Z</time>
      </trkpt>
      <trkpt lat="62.677049567409" lon="17.825639543836">
        <ele>22.2</ele>
        <time>2017-10-18T18:28:54Z</time>
      </trkpt>
      <trkpt lat="62.677061385888" lon="17.825542565253">
        <ele>22.4</ele>
        <time>2017-10-18T18:28:55Z</time>
      </trkpt>
      <trkpt lat="62.677074545471" lon="17.825446005765">
        <ele>22.6</ele>
        <time>2017-10-18T18:28:56Z</time>
      </trkpt>
      <trkpt lat="62.677087872692" lon="17.825350116829">
        <ele>22.6</ele>
        <time>2017-10-18T18:28:57Z</time>
      </trkpt>
      <trkpt lat="62.677101116094" lon="17.825266716924">
        <ele>22.8</ele>
        <time>2017-10-18T18:28:58Z</time>
      </trkpt>
      <trkpt lat="62.677116371152" lon="17.825158422776">
        <ele>23</ele>
        <time>2017-10-18T18:28:59Z</time>
      </trkpt>
      <trkpt lat="62.677127770536" lon="17.825063204392">
        <ele>23.4</ele>
        <time>2017-10-18T18:29:00Z</time>
      </trkpt>
      <trkpt lat="62.677141097757" lon="17.82497117113">
        <ele>23.6</ele>
        <time>2017-10-18T18:29:01Z</time>
      </trkpt>
      <trkpt lat="62.677154005883" lon="17.824879976058">
        <ele>23.8</ele>
        <time>2017-10-18T18:29:02Z</time>
      </trkpt>
      <trkpt lat="62.677165824362" lon="17.824798084895">
        <ele>24</ele>
        <time>2017-10-18T18:29:03Z</time>
      </trkpt>
      <trkpt lat="62.677177391384" lon="17.824713176248">
        <ele>24.2</ele>
        <time>2017-10-18T18:29:04Z</time>
      </trkpt>
      <trkpt lat="62.677190215691" lon="17.824622400271">
        <ele>24.4</ele>
        <time>2017-10-18T18:29:05Z</time>
      </trkpt>
      <trkpt lat="62.677200525428" lon="17.82453447414">
        <ele>24.6</ele>
        <time>2017-10-18T18:29:06Z</time>
      </trkpt>
      <trkpt lat="62.677211338079" lon="17.824442608516">
        <ele>24.8</ele>
        <time>2017-10-18T18:29:07Z</time>
      </trkpt>
      <trkpt lat="62.677221899273" lon="17.824361471724">
        <ele>25</ele>
        <time>2017-10-18T18:29:08Z</time>
      </trkpt>
      <trkpt lat="62.677235142675" lon="17.824255273051">
        <ele>25</ele>
        <time>2017-10-18T18:29:09Z</time>
      </trkpt>
      <trkpt lat="62.677246290602" lon="17.824165838178">
        <ele>25.2</ele>
        <time>2017-10-18T18:29:10Z</time>
      </trkpt>
      <trkpt lat="62.677258109081" lon="17.824064752464">
        <ele>25.4</ele>
        <time>2017-10-18T18:29:11Z</time>
      </trkpt>
      <trkpt lat="62.677269257008" lon="17.823970036994">
        <ele>25.4</ele>
        <time>2017-10-18T18:29:12Z</time>
      </trkpt>
      <trkpt lat="62.677280237297" lon="17.823879680112">
        <ele>25.4</ele>
        <time>2017-10-18T18:29:13Z</time>
      </trkpt>
      <trkpt lat="62.677292726328" lon="17.823779684045">
        <ele>25.4</ele>
        <time>2017-10-18T18:29:14Z</time>
      </trkpt>
      <trkpt lat="62.67730345516" lon="17.823685639127">
        <ele>25.4</ele>
        <time>2017-10-18T18:29:15Z</time>
      </trkpt>
      <trkpt lat="62.677313178164" lon="17.823596036616">
        <ele>25.4</ele>
        <time>2017-10-18T18:29:16Z</time>
      </trkpt>
      <trkpt lat="62.677324577548" lon="17.823501153508">
        <ele>25.4</ele>
        <time>2017-10-18T18:29:17Z</time>
      </trkpt>
      <trkpt lat="62.677328014127" lon="17.823472822686">
        <ele>25.4</ele>
        <time>2017-10-18T18:29:18Z</time>
      </trkpt>
      <trkpt lat="62.677349974705" lon="17.823307196342">
        <ele>25.6</ele>
        <time>2017-10-18T18:29:19Z</time>
      </trkpt>
      <trkpt lat="62.677363134288" lon="17.823213067605">
        <ele>25.6</ele>
        <time>2017-10-18T18:29:20Z</time>
      </trkpt>
      <trkpt lat="62.677373695482" lon="17.823119357963">
        <ele>25.8</ele>
        <time>2017-10-18T18:29:21Z</time>
      </trkpt>
      <trkpt lat="62.677382747934" lon="17.823031348013">
        <ele>26</ele>
        <time>2017-10-18T18:29:22Z</time>
      </trkpt>
      <trkpt lat="62.677392554757" lon="17.822945601176">
        <ele>26.2</ele>
        <time>2017-10-18T18:29:23Z</time>
      </trkpt>
      <trkpt lat="62.677403535046" lon="17.822848957869">
        <ele>26.4</ele>
        <time>2017-10-18T18:29:24Z</time>
      </trkpt>
      <trkpt lat="62.677412755136" lon="17.822763797765">
        <ele>26.6</ele>
        <time>2017-10-18T18:29:25Z</time>
      </trkpt>
      <trkpt lat="62.67742163995" lon="17.822682409516">
        <ele>26.8</ele>
        <time>2017-10-18T18:29:26Z</time>
      </trkpt>
      <trkpt lat="62.677430776221" lon="17.822601440362">
        <ele>27</ele>
        <time>2017-10-18T18:29:27Z</time>
      </trkpt>
      <trkpt lat="62.677438822845" lon="17.822534217524">
        <ele>27.2</ele>
        <time>2017-10-18T18:29:28Z</time>
      </trkpt>
      <trkpt lat="62.677449551677" lon="17.822449308877">
        <ele>27.4</ele>
        <time>2017-10-18T18:29:29Z</time>
      </trkpt>
      <trkpt lat="62.6774593585" lon="17.822376805442">
        <ele>27.6</ele>
        <time>2017-10-18T18:29:30Z</time>
      </trkpt>
      <trkpt lat="62.677468075676" lon="17.822303882912">
        <ele>27.8</ele>
        <time>2017-10-18T18:29:31Z</time>
      </trkpt>
      <trkpt lat="62.677474362101" lon="17.822230792744">
        <ele>28.2</ele>
        <time>2017-10-18T18:29:32Z</time>
      </trkpt>
      <trkpt lat="62.67748031325" lon="17.822162480259">
        <ele>28.2</ele>
        <time>2017-10-18T18:29:33Z</time>
      </trkpt>
      <trkpt lat="62.677488778969" lon="17.822091653204">
        <ele>28.4</ele>
        <time>2017-10-18T18:29:34Z</time>
      </trkpt>
      <trkpt lat="62.677498418154" lon="17.822016216104">
        <ele>28.8</ele>
        <time>2017-10-18T18:29:35Z</time>
      </trkpt>
      <trkpt lat="62.677508057339" lon="17.82194446704">
        <ele>29</ele>
        <time>2017-10-18T18:29:36Z</time>
      </trkpt>
      <trkpt lat="62.677518953809" lon="17.821875400184">
        <ele>29</ele>
        <time>2017-10-18T18:29:37Z</time>
      </trkpt>
      <trkpt lat="62.677528257718" lon="17.821811111011">
        <ele>29.2</ele>
        <time>2017-10-18T18:29:38Z</time>
      </trkpt>
      <trkpt lat="62.677538818912" lon="17.821728130201">
        <ele>29.6</ele>
        <time>2017-10-18T18:29:39Z</time>
      </trkpt>
      <trkpt lat="62.67754904483" lon="17.821656548775">
        <ele>29.8</ele>
        <time>2017-10-18T18:29:40Z</time>
      </trkpt>
      <trkpt lat="62.677560611852" lon="17.821573735603">
        <ele>30</ele>
        <time>2017-10-18T18:29:41Z</time>
      </trkpt>
      <trkpt lat="62.677574022892" lon="17.821490335698">
        <ele>30.4</ele>
        <time>2017-10-18T18:29:42Z</time>
      </trkpt>
      <trkpt lat="62.677586595742" lon="17.821409115087">
        <ele>30.6</ele>
        <time>2017-10-18T18:29:43Z</time>
      </trkpt>
      <trkpt lat="62.677601096429" lon="17.821313645246">
        <ele>30.6</ele>
        <time>2017-10-18T18:29:44Z</time>
      </trkpt>
      <trkpt lat="62.677616602944" lon="17.821222450174">
        <ele>30.8</ele>
        <time>2017-10-18T18:29:45Z</time>
      </trkpt>
      <trkpt lat="62.677632277097" lon="17.821136368061">
        <ele>30.8</ele>
        <time>2017-10-18T18:29:46Z</time>
      </trkpt>
      <trkpt lat="62.677649711449" lon="17.821037042546">
        <ele>30.8</ele>
        <time>2017-10-18T18:29:47Z</time>
      </trkpt>
      <trkpt lat="62.677664463593" lon="17.820947440035">
        <ele>31</ele>
        <time>2017-10-18T18:29:48Z</time>
      </trkpt>
      <trkpt lat="62.677681730307" lon="17.820846773416">
        <ele>31</ele>
        <time>2017-10-18T18:29:49Z</time>
      </trkpt>
      <trkpt lat="62.677700589582" lon="17.820750968299">
        <ele>31</ele>
        <time>2017-10-18T18:29:50Z</time>
      </trkpt>
      <trkpt lat="62.677720706142" lon="17.820658515942">
        <ele>31</ele>
        <time>2017-10-18T18:29:51Z</time>
      </trkpt>
      <trkpt lat="62.677738978684" lon="17.820571847096">
        <ele>31</ele>
        <time>2017-10-18T18:29:52Z</time>
      </trkpt>
      <trkpt lat="62.677758089416" lon="17.820484172422">
        <ele>31</ele>
        <time>2017-10-18T18:29:53Z</time>
      </trkpt>
      <trkpt lat="62.677783151297" lon="17.82038124269">
        <ele>31</ele>
        <time>2017-10-18T18:29:54Z</time>
      </trkpt>
      <trkpt lat="62.677805950065" lon="17.820290131437">
        <ele>31</ele>
        <time>2017-10-18T18:29:55Z</time>
      </trkpt>
      <trkpt lat="62.677828413557" lon="17.820200780383">
        <ele>31</ele>
        <time>2017-10-18T18:29:56Z</time>
      </trkpt>
      <trkpt lat="62.677850038859" lon="17.820116626107">
        <ele>31</ele>
        <time>2017-10-18T18:29:57Z</time>
      </trkpt>
      <trkpt lat="62.677866635021" lon="17.820046553423">
        <ele>31</ele>
        <time>2017-10-18T18:29:58Z</time>
      </trkpt>
      <trkpt lat="62.677887422133" lon="17.819960722767">
        <ele>31.2</ele>
        <time>2017-10-18T18:29:59Z</time>
      </trkpt>
      <trkpt lat="62.677905862313" lon="17.819888722246">
        <ele>31.2</ele>
        <time>2017-10-18T18:30:00Z</time>
      </trkpt>
      <trkpt lat="62.677923129027" lon="17.81981965539">
        <ele>31.2</ele>
        <time>2017-10-18T18:30:01Z</time>
      </trkpt>
      <trkpt lat="62.677938384085" lon="17.81975427657">
        <ele>31.2</ele>
        <time>2017-10-18T18:30:02Z</time>
      </trkpt>
      <trkpt lat="62.677952549496" lon="17.819694262166">
        <ele>31.4</ele>
        <time>2017-10-18T18:30:03Z</time>
      </trkpt>
      <trkpt lat="62.677967804554" lon="17.819633996305">
        <ele>31.6</ele>
        <time>2017-10-18T18:30:04Z</time>
      </trkpt>
      <trkpt lat="62.67798574182" lon="17.819572473159">
        <ele>31.6</ele>
        <time>2017-10-18T18:30:05Z</time>
      </trkpt>
      <trkpt lat="62.67800166743" lon="17.819516565886">
        <ele>32</ele>
        <time>2017-10-18T18:30:06Z</time>
      </trkpt>
      <trkpt lat="62.678017425402" lon="17.819458563138">
        <ele>32.2</ele>
        <time>2017-10-18T18:30:07Z</time>
      </trkpt>
      <trkpt lat="62.678031926089" lon="17.819409109928">
        <ele>32.4</ele>
        <time>2017-10-18T18:30:08Z</time>
      </trkpt>
      <trkpt lat="62.678052880839" lon="17.819345323669">
        <ele>32.8</ele>
        <time>2017-10-18T18:30:09Z</time>
      </trkpt>
      <trkpt lat="62.678072159209" lon="17.81929411026">
        <ele>33</ele>
        <time>2017-10-18T18:30:10Z</time>
      </trkpt>
      <trkpt lat="62.678093365416" lon="17.819233928218">
        <ele>33.2</ele>
        <time>2017-10-18T18:30:11Z</time>
      </trkpt>
      <trkpt lat="62.67811230851" lon="17.819171063968">
        <ele>33.4</ele>
        <time>2017-10-18T18:30:12Z</time>
      </trkpt>
      <trkpt lat="62.678132005975" lon="17.819110881926">
        <ele>33.6</ele>
        <time>2017-10-18T18:30:13Z</time>
      </trkpt>
      <trkpt lat="62.678155140019" lon="17.81904013869">
        <ele>33.8</ele>
        <time>2017-10-18T18:30:14Z</time>
      </trkpt>
      <trkpt lat="62.678175927131" lon="17.8189722453">
        <ele>34</ele>
        <time>2017-10-18T18:30:15Z</time>
      </trkpt>
      <trkpt lat="62.678196211329" lon="17.818908207584">
        <ele>34</ele>
        <time>2017-10-18T18:30:16Z</time>
      </trkpt>
      <trkpt lat="62.678219010097" lon="17.818837799624">
        <ele>34.4</ele>
        <time>2017-10-18T18:30:17Z</time>
      </trkpt>
      <trkpt lat="62.6782388752" lon="17.818775941202">
        <ele>34.6</ele>
        <time>2017-10-18T18:30:18Z</time>
      </trkpt>
      <trkpt lat="62.678262595977" lon="17.818707880174">
        <ele>34.8</ele>
        <time>2017-10-18T18:30:19Z</time>
      </trkpt>
      <trkpt lat="62.678285646202" lon="17.818646943761">
        <ele>35</ele>
        <time>2017-10-18T18:30:20Z</time>
      </trkpt>
      <trkpt lat="62.678308864065" lon="17.818587096995">
        <ele>35</ele>
        <time>2017-10-18T18:30:21Z</time>
      </trkpt>
      <trkpt lat="62.678328729168" lon="17.818531441179">
        <ele>35.4</ele>
        <time>2017-10-18T18:30:22Z</time>
      </trkpt>
      <trkpt lat="62.678349181004" lon="17.818475366268">
        <ele>35.4</ele>
        <time>2017-10-18T18:30:23Z</time>
      </trkpt>
      <trkpt lat="62.678374075247" lon="17.818409400715">
        <ele>35.6</ele>
        <time>2017-10-18T18:30:24Z</time>
      </trkpt>
      <trkpt lat="62.67839561673" lon="17.818348883397">
        <ele>35.8</ele>
        <time>2017-10-18T18:30:25Z</time>
      </trkpt>
      <trkpt lat="62.678417074394" lon="17.818289204269">
        <ele>36.2</ele>
        <time>2017-10-18T18:30:26Z</time>
      </trkpt>
      <trkpt lat="62.678438532058" lon="17.818230279512">
        <ele>36.4</ele>
        <time>2017-10-18T18:30:27Z</time>
      </trkpt>
      <trkpt lat="62.678457475152" lon="17.818178730827">
        <ele>36.6</ele>
        <time>2017-10-18T18:30:28Z</time>
      </trkpt>
      <trkpt lat="62.678481195929" lon="17.818113519645">
        <ele>37</ele>
        <time>2017-10-18T18:30:29Z</time>
      </trkpt>
      <trkpt lat="62.678501899222" lon="17.818056438906">
        <ele>37.2</ele>
        <time>2017-10-18T18:30:30Z</time>
      </trkpt>
      <trkpt lat="62.678522434877" lon="17.817996843597">
        <ele>37.4</ele>
        <time>2017-10-18T18:30:31Z</time>
      </trkpt>
      <trkpt lat="62.678542970532" lon="17.817936661555">
        <ele>37.8</ele>
        <time>2017-10-18T18:30:32Z</time>
      </trkpt>
      <trkpt lat="62.678562751816" lon="17.81788008373">
        <ele>38</ele>
        <time>2017-10-18T18:30:33Z</time>
      </trkpt>
      <trkpt lat="62.678585215308" lon="17.817822332439">
        <ele>38.2</ele>
        <time>2017-10-18T18:30:34Z</time>
      </trkpt>
      <trkpt lat="62.678609858094" lon="17.817760893112">
        <ele>38.4</ele>
        <time>2017-10-18T18:30:35Z</time>
      </trkpt>
      <trkpt lat="62.678632908319" lon="17.817702722726">
        <ele>38.8</ele>
        <time>2017-10-18T18:30:36Z</time>
      </trkpt>
      <trkpt lat="62.678655371811" lon="17.817645055254">
        <ele>39</ele>
        <time>2017-10-18T18:30:37Z</time>
      </trkpt>
      <trkpt lat="62.678675656009" lon="17.817594009483">
        <ele>39</ele>
        <time>2017-10-18T18:30:38Z</time>
      </trkpt>
      <trkpt lat="62.678701639899" lon="17.817529217396">
        <ele>39.2</ele>
        <time>2017-10-18T18:30:39Z</time>
      </trkpt>
      <trkpt lat="62.678723851934" lon="17.817473477761">
        <ele>39.4</ele>
        <time>2017-10-18T18:30:40Z</time>
      </trkpt>
      <trkpt lat="62.67874765653" lon="17.817408015122">
        <ele>39.6</ele>
        <time>2017-10-18T18:30:41Z</time>
      </trkpt>
      <trkpt lat="62.67876944947" lon="17.817346240519">
        <ele>39.6</ele>
        <time>2017-10-18T18:30:42Z</time>
      </trkpt>
      <trkpt lat="62.678789901306" lon="17.81728832159">
        <ele>39.8</ele>
        <time>2017-10-18T18:30:43Z</time>
      </trkpt>
      <trkpt lat="62.678812364798" lon="17.817223361865">
        <ele>40</ele>
        <time>2017-10-18T18:30:44Z</time>
      </trkpt>
      <trkpt lat="62.678832984272" lon="17.817158988873">
        <ele>40.2</ele>
        <time>2017-10-18T18:30:45Z</time>
      </trkpt>
      <trkpt lat="62.678854358117" lon="17.817102327229">
        <ele>40.4</ele>
        <time>2017-10-18T18:30:46Z</time>
      </trkpt>
      <trkpt lat="62.678879084722" lon="17.817036948409">
        <ele>40.6</ele>
        <time>2017-10-18T18:30:47Z</time>
      </trkpt>
      <trkpt lat="62.678901464395" lon="17.816978107471">
        <ele>41</ele>
        <time>2017-10-18T18:30:48Z</time>
      </trkpt>
      <trkpt lat="62.678925939543" lon="17.816910716995">
        <ele>41.2</ele>
        <time>2017-10-18T18:30:49Z</time>
      </trkpt>
      <trkpt lat="62.67894966032" lon="17.816847014555">
        <ele>41.4</ele>
        <time>2017-10-18T18:30:50Z</time>
      </trkpt>
      <trkpt lat="62.678974889839" lon="17.816782809201">
        <ele>41.6</ele>
        <time>2017-10-18T18:30:51Z</time>
      </trkpt>
      <trkpt lat="62.678997940064" lon="17.816722208064">
        <ele>41.8</ele>
        <time>2017-10-18T18:30:52Z</time>
      </trkpt>
      <trkpt lat="62.67902090647" lon="17.816659930547">
        <ele>42</ele>
        <time>2017-10-18T18:30:53Z</time>
      </trkpt>
      <trkpt lat="62.679050326939" lon="17.816586169827">
        <ele>42</ele>
        <time>2017-10-18T18:30:54Z</time>
      </trkpt>
      <trkpt lat="62.67907538882" lon="17.816522132111">
        <ele>42.2</ele>
        <time>2017-10-18T18:30:55Z</time>
      </trkpt>
      <trkpt lat="62.679100702158" lon="17.816453568169">
        <ele>42.4</ele>
        <time>2017-10-18T18:30:56Z</time>
      </trkpt>
      <trkpt lat="62.679124674392" lon="17.816383495485">
        <ele>42.6</ele>
        <time>2017-10-18T18:30:57Z</time>
      </trkpt>
      <trkpt lat="62.679146467332" lon="17.816319541588">
        <ele>42.6</ele>
        <time>2017-10-18T18:30:58Z</time>
      </trkpt>
      <trkpt lat="62.67917597162" lon="17.816235890226">
        <ele>42.8</ele>
        <time>2017-10-18T18:30:59Z</time>
      </trkpt>
      <trkpt lat="62.679203128976" lon="17.816163302972">
        <ele>42.8</ele>
        <time>2017-10-18T18:31:00Z</time>
      </trkpt>
      <trkpt lat="62.679228945228" lon="17.816090380442">
        <ele>43</ele>
        <time>2017-10-18T18:31:01Z</time>
      </trkpt>
      <trkpt lat="62.679254845299" lon="17.816017038817">
        <ele>43</ele>
        <time>2017-10-18T18:31:02Z</time>
      </trkpt>
      <trkpt lat="62.679279655723" lon="17.815950235074">
        <ele>43</ele>
        <time>2017-10-18T18:31:03Z</time>
      </trkpt>
      <trkpt lat="62.679306310165" lon="17.815881168218">
        <ele>43.2</ele>
        <time>2017-10-18T18:31:04Z</time>
      </trkpt>
      <trkpt lat="62.679335060082" lon="17.815807323679">
        <ele>43.2</ele>
        <time>2017-10-18T18:31:05Z</time>
      </trkpt>
      <trkpt lat="62.679362217438" lon="17.815730629294">
        <ele>43.2</ele>
        <time>2017-10-18T18:31:06Z</time>
      </trkpt>
      <trkpt lat="62.679390212984" lon="17.815649157226">
        <ele>43.4</ele>
        <time>2017-10-18T18:31:07Z</time>
      </trkpt>
      <trkpt lat="62.679415777779" lon="17.815572462841">
        <ele>43.6</ele>
        <time>2017-10-18T18:31:08Z</time>
      </trkpt>
      <trkpt lat="62.679452406682" lon="17.815474310792">
        <ele>43.8</ele>
        <time>2017-10-18T18:31:09Z</time>
      </trkpt>
      <trkpt lat="62.67948526373" lon="17.815385797928">
        <ele>43.8</ele>
        <time>2017-10-18T18:31:10Z</time>
      </trkpt>
      <trkpt lat="62.679524071927" lon="17.815284460757">
        <ele>43.8</ele>
        <time>2017-10-18T18:31:11Z</time>
      </trkpt>
      <trkpt lat="62.679562041934" lon="17.815188236545">
        <ele>43.6</ele>
        <time>2017-10-18T18:31:12Z</time>
      </trkpt>
      <trkpt lat="62.679597665009" lon="17.815098717853">
        <ele>43.4</ele>
        <time>2017-10-18T18:31:13Z</time>
      </trkpt>
      <trkpt lat="62.679638065767" lon="17.815000398166">
        <ele>43.2</ele>
        <time>2017-10-18T18:31:14Z</time>
      </trkpt>
      <trkpt lat="62.679674778489" lon="17.814905682696">
        <ele>43.2</ele>
        <time>2017-10-18T18:31:15Z</time>
      </trkpt>
      <trkpt lat="62.679708641365" lon="17.814816834556">
        <ele>43</ele>
        <time>2017-10-18T18:31:16Z</time>
      </trkpt>
      <trkpt lat="62.679743090974" lon="17.814716084118">
        <ele>43</ele>
        <time>2017-10-18T18:31:17Z</time>
      </trkpt>
      <trkpt lat="62.679769913054" lon="17.814628493263">
        <ele>43</ele>
        <time>2017-10-18T18:31:18Z</time>
      </trkpt>
      <trkpt lat="62.679800004075" lon="17.814533693974">
        <ele>43</ele>
        <time>2017-10-18T18:31:19Z</time>
      </trkpt>
      <trkpt lat="62.679831268562" lon="17.814451216078">
        <ele>43.2</ele>
        <time>2017-10-18T18:31:20Z</time>
      </trkpt>
      <trkpt lat="62.679862700687" lon="17.814371252752">
        <ele>43.2</ele>
        <time>2017-10-18T18:31:21Z</time>
      </trkpt>
      <trkpt lat="62.679892037337" lon="17.814297408213">
        <ele>43.4</ele>
        <time>2017-10-18T18:31:22Z</time>
      </trkpt>
      <trkpt lat="62.679922044539" lon="17.814223982769">
        <ele>43.4</ele>
        <time>2017-10-18T18:31:23Z</time>
      </trkpt>
      <trkpt lat="62.679957751433" lon="17.81414007995">
        <ele>43.4</ele>
        <time>2017-10-18T18:31:24Z</time>
      </trkpt>
      <trkpt lat="62.679987842454" lon="17.814063888479">
        <ele>43.6</ele>
        <time>2017-10-18T18:31:25Z</time>
      </trkpt>
      <trkpt lat="62.680016340914" lon="17.813990965949">
        <ele>43.6</ele>
        <time>2017-10-18T18:31:26Z</time>
      </trkpt>
      <trkpt lat="62.680045426107" lon="17.813915193573">
        <ele>43.8</ele>
        <time>2017-10-18T18:31:27Z</time>
      </trkpt>
      <trkpt lat="62.680068057237" lon="17.813854173341">
        <ele>44</ele>
        <time>2017-10-18T18:31:28Z</time>
      </trkpt>
      <trkpt lat="62.680099154086" lon="17.81377630549">
        <ele>44.2</ele>
        <time>2017-10-18T18:31:29Z</time>
      </trkpt>
      <trkpt lat="62.680126814356" lon="17.813705646073">
        <ele>44.6</ele>
        <time>2017-10-18T18:31:30Z</time>
      </trkpt>
      <trkpt lat="62.680152882065" lon="17.813635070475">
        <ele>45</ele>
        <time>2017-10-18T18:31:31Z</time>
      </trkpt>
      <trkpt lat="62.680178195403" lon="17.81356424342">
        <ele>45.2</ele>
        <time>2017-10-18T18:31:32Z</time>
      </trkpt>
      <trkpt lat="62.680201497085" lon="17.813498696962">
        <ele>45.4</ele>
        <time>2017-10-18T18:31:33Z</time>
      </trkpt>
      <trkpt lat="62.680226810423" lon="17.813433150504">
        <ele>45.8</ele>
        <time>2017-10-18T18:31:34Z</time>
      </trkpt>
      <trkpt lat="62.680252710494" lon="17.813369112788">
        <ele>45.8</ele>
        <time>2017-10-18T18:31:35Z</time>
      </trkpt>
      <trkpt lat="62.680277940013" lon="17.813298872466">
        <ele>46.2</ele>
        <time>2017-10-18T18:31:36Z</time>
      </trkpt>
      <trkpt lat="62.680301325514" lon="17.813235421483">
        <ele>46.4</ele>
        <time>2017-10-18T18:31:37Z</time>
      </trkpt>
      <trkpt lat="62.680322783178" lon="17.813180603857">
        <ele>46.6</ele>
        <time>2017-10-18T18:31:38Z</time>
      </trkpt>
      <trkpt lat="62.680350862543" lon="17.813108435698">
        <ele>47</ele>
        <time>2017-10-18T18:31:39Z</time>
      </trkpt>
      <trkpt lat="62.680374667139" lon="17.813046409638">
        <ele>47</ele>
        <time>2017-10-18T18:31:40Z</time>
      </trkpt>
      <trkpt lat="62.680400483391" lon="17.812975331126">
        <ele>47.4</ele>
        <time>2017-10-18T18:31:41Z</time>
      </trkpt>
      <trkpt lat="62.68042571291" lon="17.812909114116">
        <ele>47.6</ele>
        <time>2017-10-18T18:31:42Z</time>
      </trkpt>
      <trkpt lat="62.680450271877" lon="17.812847339513">
        <ele>47.6</ele>
        <time>2017-10-18T18:31:43Z</time>
      </trkpt>
      <trkpt lat="62.680477177776" lon="17.812776763915">
        <ele>47.8</ele>
        <time>2017-10-18T18:31:44Z</time>
      </trkpt>
      <trkpt lat="62.680502994028" lon="17.812709876353">
        <ele>48</ele>
        <time>2017-10-18T18:31:45Z</time>
      </trkpt>
      <trkpt lat="62.680527636814" lon="17.812647515017">
        <ele>48.4</ele>
        <time>2017-10-18T18:31:46Z</time>
      </trkpt>
      <trkpt lat="62.680555967636" lon="17.812573083745">
        <ele>48.4</ele>
        <time>2017-10-18T18:31:47Z</time>
      </trkpt>
      <trkpt lat="62.680580275146" lon="17.812507621106">
        <ele>48.8</ele>
        <time>2017-10-18T18:31:48Z</time>
      </trkpt>
      <trkpt lat="62.680607097226" lon="17.812434614757">
        <ele>48.8</ele>
        <time>2017-10-18T18:31:49Z</time>
      </trkpt>
      <trkpt lat="62.680633500211" lon="17.812368230109">
        <ele>49.2</ele>
        <time>2017-10-18T18:31:50Z</time>
      </trkpt>
      <trkpt lat="62.680660070834" lon="17.812301426366">
        <ele>49.4</ele>
        <time>2017-10-18T18:31:51Z</time>
      </trkpt>
      <trkpt lat="62.680684797439" lon="17.812239819401">
        <ele>49.6</ele>
        <time>2017-10-18T18:31:52Z</time>
      </trkpt>
      <trkpt lat="62.680710613691" lon="17.812176536056">
        <ele>49.8</ele>
        <time>2017-10-18T18:31:53Z</time>
      </trkpt>
      <trkpt lat="62.68074087235" lon="17.812103026793">
        <ele>50</ele>
        <time>2017-10-18T18:31:54Z</time>
      </trkpt>
      <trkpt lat="62.680766772421" lon="17.812031696824">
        <ele>50</ele>
        <time>2017-10-18T18:31:55Z</time>
      </trkpt>
      <trkpt lat="62.680792253397" lon="17.811960031579">
        <ele>50.2</ele>
        <time>2017-10-18T18:31:56Z</time>
      </trkpt>
      <trkpt lat="62.680819913667" lon="17.811888366334">
        <ele>50.2</ele>
        <time>2017-10-18T18:31:57Z</time>
      </trkpt>
      <trkpt lat="62.680844556453" lon="17.811824747713">
        <ele>50.4</ele>
        <time>2017-10-18T18:31:58Z</time>
      </trkpt>
      <trkpt lat="62.680876491492" lon="17.811740425799">
        <ele>50.4</ele>
        <time>2017-10-18T18:31:59Z</time>
      </trkpt>
      <trkpt lat="62.68090515759" lon="17.811661300663">
        <ele>50.4</ele>
        <time>2017-10-18T18:32:00Z</time>
      </trkpt>
      <trkpt lat="62.680935248611" lon="17.811584522459">
        <ele>50.4</ele>
        <time>2017-10-18T18:32:01Z</time>
      </trkpt>
      <trkpt lat="62.680966513098" lon="17.811504307676">
        <ele>50.4</ele>
        <time>2017-10-18T18:32:02Z</time>
      </trkpt>
      <trkpt lat="62.680996017386" lon="17.811427361834">
        <ele>50.4</ele>
        <time>2017-10-18T18:32:03Z</time>
      </trkpt>
      <trkpt lat="62.681027281873" lon="17.811344883938">
        <ele>50.2</ele>
        <time>2017-10-18T18:32:04Z</time>
      </trkpt>
      <trkpt lat="62.68106189912" lon="17.811252431581">
        <ele>50.2</ele>
        <time>2017-10-18T18:32:05Z</time>
      </trkpt>
      <trkpt lat="62.681093163607" lon="17.81116702002">
        <ele>50.2</ele>
        <time>2017-10-18T18:32:06Z</time>
      </trkpt>
      <trkpt lat="62.681125433922" lon="17.811079932079">
        <ele>50</ele>
        <time>2017-10-18T18:32:07Z</time>
      </trkpt>
      <trkpt lat="62.681153764744" lon="17.81100524935">
        <ele>49.8</ele>
        <time>2017-10-18T18:32:08Z</time>
      </trkpt>
      <trkpt lat="62.681189890733" lon="17.810911288251">
        <ele>49.8</ele>
        <time>2017-10-18T18:32:09Z</time>
      </trkpt>
      <trkpt lat="62.681219311202" lon="17.810832079296">
        <ele>49.8</ele>
        <time>2017-10-18T18:32:10Z</time>
      </trkpt>
      <trkpt lat="62.681252000612" lon="17.810744069346">
        <ele>49.8</ele>
        <time>2017-10-18T18:32:11Z</time>
      </trkpt>
      <trkpt lat="62.681283097461" lon="17.810661926726">
        <ele>49.8</ele>
        <time>2017-10-18T18:32:12Z</time>
      </trkpt>
      <trkpt lat="62.681311931197" lon="17.810589004196">
        <ele>50</ele>
        <time>2017-10-18T18:32:13Z</time>
      </trkpt>
      <trkpt lat="62.681343866236" lon="17.810509292327">
        <ele>50.2</ele>
        <time>2017-10-18T18:32:14Z</time>
      </trkpt>
      <trkpt lat="62.681372448515" lon="17.810434106684">
        <ele>50.2</ele>
        <time>2017-10-18T18:32:15Z</time>
      </trkpt>
      <trkpt lat="62.681397678034" lon="17.810365626561">
        <ele>50.4</ele>
        <time>2017-10-18T18:32:16Z</time>
      </trkpt>
      <trkpt lat="62.681427266141" lon="17.810289686547">
        <ele>50.6</ele>
        <time>2017-10-18T18:32:17Z</time>
      </trkpt>
      <trkpt lat="62.68145417204" lon="17.810226822297">
        <ele>50.8</ele>
        <time>2017-10-18T18:32:18Z</time>
      </trkpt>
      <trkpt lat="62.68148434688" lon="17.810156246699">
        <ele>51</ele>
        <time>2017-10-18T18:32:19Z</time>
      </trkpt>
      <trkpt lat="62.681510246951" lon="17.810091873707">
        <ele>51.4</ele>
        <time>2017-10-18T18:32:20Z</time>
      </trkpt>
      <trkpt lat="62.681535141194" lon="17.810026662525">
        <ele>51.6</ele>
        <time>2017-10-18T18:32:21Z</time>
      </trkpt>
      <trkpt lat="62.681557856143" lon="17.809968492139">
        <ele>51.8</ele>
        <time>2017-10-18T18:32:22Z</time>
      </trkpt>
      <trkpt lat="62.681581828377" lon="17.809910908486">
        <ele>52</ele>
        <time>2017-10-18T18:32:23Z</time>
      </trkpt>
      <trkpt lat="62.681608901914" lon="17.809846703132">
        <ele>52.2</ele>
        <time>2017-10-18T18:32:24Z</time>
      </trkpt>
      <trkpt lat="62.681633628519" lon="17.80978903566">
        <ele>52.4</ele>
        <time>2017-10-18T18:32:25Z</time>
      </trkpt>
      <trkpt lat="62.681657433115" lon="17.809731871102">
        <ele>52.6</ele>
        <time>2017-10-18T18:32:26Z</time>
      </trkpt>
      <trkpt lat="62.681680567159" lon="17.809671856698">
        <ele>52.6</ele>
        <time>2017-10-18T18:32:27Z</time>
      </trkpt>
      <trkpt lat="62.681700935176" lon="17.809621146203">
        <ele>53</ele>
        <time>2017-10-18T18:32:28Z</time>
      </trkpt>
      <trkpt lat="62.681728176351" lon="17.809554510098">
        <ele>53.4</ele>
        <time>2017-10-18T18:32:29Z</time>
      </trkpt>
      <trkpt lat="62.681750136929" lon="17.809497680816">
        <ele>53.6</ele>
        <time>2017-10-18T18:32:30Z</time>
      </trkpt>
      <trkpt lat="62.681772265145" lon="17.809437666412">
        <ele>54</ele>
        <time>2017-10-18T18:32:31Z</time>
      </trkpt>
      <trkpt lat="62.681794393361" lon="17.809375891809">
        <ele>54.2</ele>
        <time>2017-10-18T18:32:32Z</time>
      </trkpt>
      <trkpt lat="62.681815012835" lon="17.809316799414">
        <ele>54.4</ele>
        <time>2017-10-18T18:32:33Z</time>
      </trkpt>
      <trkpt lat="62.681838565974" lon="17.809252677879">
        <ele>54.6</ele>
        <time>2017-10-18T18:32:34Z</time>
      </trkpt>
      <trkpt lat="62.681865220416" lon="17.809184197756">
        <ele>54.8</ele>
        <time>2017-10-18T18:32:35Z</time>
      </trkpt>
      <trkpt lat="62.681889108831" lon="17.809119573307">
        <ele>54.8</ele>
        <time>2017-10-18T18:32:36Z</time>
      </trkpt>
      <trkpt lat="62.681912829608" lon="17.809053021021">
        <ele>55</ele>
        <time>2017-10-18T18:32:37Z</time>
      </trkpt>
      <trkpt lat="62.681933281444" lon="17.808995940282">
        <ele>55</ele>
        <time>2017-10-18T18:32:38Z</time>
      </trkpt>
      <trkpt lat="62.681959516791" lon="17.808923855942">
        <ele>55.2</ele>
        <time>2017-10-18T18:32:39Z</time>
      </trkpt>
      <trkpt lat="62.68198055536" lon="17.808865853194">
        <ele>55.2</ele>
        <time>2017-10-18T18:32:40Z</time>
      </trkpt>
      <trkpt lat="62.68200402468" lon="17.808804497686">
        <ele>55.4</ele>
        <time>2017-10-18T18:32:41Z</time>
      </trkpt>
      <trkpt lat="62.682026823448" lon="17.808751104983">
        <ele>55.4</ele>
        <time>2017-10-18T18:32:42Z</time>
      </trkpt>
      <trkpt lat="62.682047526741" lon="17.808702238506">
        <ele>55.6</ele>
        <time>2017-10-18T18:32:43Z</time>
      </trkpt>
      <trkpt lat="62.682072085708" lon="17.808648175251">
        <ele>55.6</ele>
        <time>2017-10-18T18:32:44Z</time>
      </trkpt>
      <trkpt lat="62.682094800657" lon="17.80859880586">
        <ele>55.6</ele>
        <time>2017-10-18T18:32:45Z</time>
      </trkpt>
      <trkpt lat="62.68211382757" lon="17.808544742605">
        <ele>55.6</ele>
        <time>2017-10-18T18:32:46Z</time>
      </trkpt>
      <trkpt lat="62.68213562051" lon="17.808477016853">
        <ele>55.6</ele>
        <time>2017-10-18T18:32:47Z</time>
      </trkpt>
      <trkpt lat="62.68215825164" lon="17.808417421544">
        <ele>55.6</ele>
        <time>2017-10-18T18:32:48Z</time>
      </trkpt>
      <trkpt lat="62.68218507372" lon="17.808346426851">
        <ele>55.6</ele>
        <time>2017-10-18T18:32:49Z</time>
      </trkpt>
      <trkpt lat="62.682213739818" lon="17.808271408846">
        <ele>55.6</ele>
        <time>2017-10-18T18:32:50Z</time>
      </trkpt>
      <trkpt lat="62.682244669029" lon="17.80819228371">
        <ele>55.4</ele>
        <time>2017-10-18T18:32:51Z</time>
      </trkpt>
      <trkpt lat="62.682276184973" lon="17.80811097928">
        <ele>55.2</ele>
        <time>2017-10-18T18:32:52Z</time>
      </trkpt>
      <trkpt lat="62.68230996403" lon="17.808023220787">
        <ele>54.8</ele>
        <time>2017-10-18T18:32:53Z</time>
      </trkpt>
      <trkpt lat="62.682351454435" lon="17.807910232775">
        <ele>54.4</ele>
        <time>2017-10-18T18:32:54Z</time>
      </trkpt>
      <trkpt lat="62.682390597908" lon="17.807801519532">
        <ele>54</ele>
        <time>2017-10-18T18:32:55Z</time>
      </trkpt>
      <trkpt lat="62.682432004494" lon="17.807691800461">
        <ele>53.4</ele>
        <time>2017-10-18T18:32:56Z</time>
      </trkpt>
      <trkpt lat="62.682474416908" lon="17.807579063906">
        <ele>53</ele>
        <time>2017-10-18T18:32:57Z</time>
      </trkpt>
      <trkpt lat="62.682510794354" lon="17.807475547441">
        <ele>52.6</ele>
        <time>2017-10-18T18:32:58Z</time>
      </trkpt>
      <trkpt lat="62.68255890646" lon="17.80732810982">
        <ele>52.2</ele>
        <time>2017-10-18T18:32:59Z</time>
      </trkpt>
      <trkpt lat="62.682598385209" lon="17.807200118207">
        <ele>51.8</ele>
        <time>2017-10-18T18:33:00Z</time>
      </trkpt>
      <trkpt lat="62.682631661352" lon="17.807081765779">
        <ele>51.4</ele>
        <time>2017-10-18T18:33:01Z</time>
      </trkpt>
      <trkpt lat="62.682665608047" lon="17.806947906836">
        <ele>51</ele>
        <time>2017-10-18T18:33:02Z</time>
      </trkpt>
      <trkpt lat="62.682697962181" lon="17.806810276038">
        <ele>50.8</ele>
        <time>2017-10-18T18:33:03Z</time>
      </trkpt>
      <trkpt lat="62.682730316315" lon="17.806666694091">
        <ele>50.6</ele>
        <time>2017-10-18T18:33:04Z</time>
      </trkpt>
      <trkpt lat="62.682762083716" lon="17.806509701104">
        <ele>50.4</ele>
        <time>2017-10-18T18:33:05Z</time>
      </trkpt>
      <trkpt lat="62.682788821977" lon="17.806356312334">
        <ele>50.2</ele>
        <time>2017-10-18T18:33:06Z</time>
      </trkpt>
      <trkpt lat="62.682811453107" lon="17.806204264668">
        <ele>50</ele>
        <time>2017-10-18T18:33:07Z</time>
      </trkpt>
      <trkpt lat="62.682828636002" lon="17.806071579191">
        <ele>49.6</ele>
        <time>2017-10-18T18:33:08Z</time>
      </trkpt>
      <trkpt lat="62.682848249648" lon="17.805907126313">
        <ele>49.4</ele>
        <time>2017-10-18T18:33:09Z</time>
      </trkpt>
      <trkpt lat="62.682861241593" lon="17.805773015913">
        <ele>49.2</ele>
        <time>2017-10-18T18:33:10Z</time>
      </trkpt>
      <trkpt lat="62.682872976253" lon="17.805629685423">
        <ele>48.8</ele>
        <time>2017-10-18T18:33:11Z</time>
      </trkpt>
      <trkpt lat="62.68288328599" lon="17.805503118733">
        <ele>48.8</ele>
        <time>2017-10-18T18:33:12Z</time>
      </trkpt>
      <trkpt lat="62.682891416433" lon="17.805388789617">
        <ele>48.6</ele>
        <time>2017-10-18T18:33:13Z</time>
      </trkpt>
      <trkpt lat="62.682898876324" lon="17.805269598999">
        <ele>48.6</ele>
        <time>2017-10-18T18:33:14Z</time>
      </trkpt>
      <trkpt lat="62.682904659835" lon="17.805161807765">
        <ele>48.6</ele>
        <time>2017-10-18T18:33:15Z</time>
      </trkpt>
      <trkpt lat="62.682909437518" lon="17.805066254105">
        <ele>48.8</ele>
        <time>2017-10-18T18:33:16Z</time>
      </trkpt>
      <trkpt lat="62.682916478314" lon="17.804965587486">
        <ele>48.8</ele>
        <time>2017-10-18T18:33:17Z</time>
      </trkpt>
      <trkpt lat="62.682921926549" lon="17.804876320251">
        <ele>48.8</ele>
        <time>2017-10-18T18:33:18Z</time>
      </trkpt>
      <trkpt lat="62.682926201318" lon="17.804780263677">
        <ele>49</ele>
        <time>2017-10-18T18:33:19Z</time>
      </trkpt>
      <trkpt lat="62.682929805535" lon="17.804686554035">
        <ele>49.2</ele>
        <time>2017-10-18T18:33:20Z</time>
      </trkpt>
      <trkpt lat="62.682933493571" lon="17.804591503289">
        <ele>49.2</ele>
        <time>2017-10-18T18:33:21Z</time>
      </trkpt>
      <trkpt lat="62.682937097788" lon="17.804503744796">
        <ele>49.2</ele>
        <time>2017-10-18T18:33:22Z</time>
      </trkpt>
      <trkpt lat="62.682941372557" lon="17.804414896656">
        <ele>49.4</ele>
        <time>2017-10-18T18:33:23Z</time>
      </trkpt>
      <trkpt lat="62.682945982602" lon="17.804312050743">
        <ele>49.4</ele>
        <time>2017-10-18T18:33:24Z</time>
      </trkpt>
      <trkpt lat="62.682949838276" lon="17.804221274766">
        <ele>49.6</ele>
        <time>2017-10-18T18:33:25Z</time>
      </trkpt>
      <trkpt lat="62.682954029226" lon="17.804131169341">
        <ele>49.6</ele>
        <time>2017-10-18T18:33:26Z</time>
      </trkpt>
      <trkpt lat="62.682959309823" lon="17.804040225726">
        <ele>49.8</ele>
        <time>2017-10-18T18:33:27Z</time>
      </trkpt>
      <trkpt lat="62.682964758058" lon="17.803963363703">
        <ele>49.8</ele>
        <time>2017-10-18T18:33:28Z</time>
      </trkpt>
      <trkpt lat="62.682972637044" lon="17.803869570242">
        <ele>50</ele>
        <time>2017-10-18T18:33:29Z</time>
      </trkpt>
      <trkpt lat="62.682977666184" lon="17.803787259984">
        <ele>50</ele>
        <time>2017-10-18T18:33:30Z</time>
      </trkpt>
      <trkpt lat="62.682981438039" lon="17.803705201183">
        <ele>50</ele>
        <time>2017-10-18T18:33:31Z</time>
      </trkpt>
      <trkpt lat="62.682985628989" lon="17.803628171522">
        <ele>50</ele>
        <time>2017-10-18T18:33:32Z</time>
      </trkpt>
      <trkpt lat="62.682991328681" lon="17.803549130205">
        <ele>50.2</ele>
        <time>2017-10-18T18:33:33Z</time>
      </trkpt>
      <trkpt lat="62.682996609278" lon="17.803466987585">
        <ele>50.2</ele>
        <time>2017-10-18T18:33:34Z</time>
      </trkpt>
      <trkpt lat="62.683001303142" lon="17.803377887988">
        <ele>50.4</ele>
        <time>2017-10-18T18:33:35Z</time>
      </trkpt>
      <trkpt lat="62.683008427757" lon="17.803292979341">
        <ele>50.4</ele>
        <time>2017-10-18T18:33:36Z</time>
      </trkpt>
      <trkpt lat="62.683017731666" lon="17.803208238332">
        <ele>50.6</ele>
        <time>2017-10-18T18:33:37Z</time>
      </trkpt>
      <trkpt lat="62.6830249401" lon="17.803131543947">
        <ele>50.6</ele>
        <time>2017-10-18T18:33:38Z</time>
      </trkpt>
      <trkpt lat="62.68303416019" lon="17.803031380242">
        <ele>50.8</ele>
        <time>2017-10-18T18:33:39Z</time>
      </trkpt>
      <trkpt lat="62.683043464099" lon="17.802943789387">
        <ele>50.8</ele>
        <time>2017-10-18T18:33:40Z</time>
      </trkpt>
      <trkpt lat="62.683055617854" lon="17.802842871311">
        <ele>51</ele>
        <time>2017-10-18T18:33:41Z</time>
      </trkpt>
      <trkpt lat="62.683066514324" lon="17.80274069595">
        <ele>51</ele>
        <time>2017-10-18T18:33:42Z</time>
      </trkpt>
      <trkpt lat="62.683077829889" lon="17.802636173657">
        <ele>51</ele>
        <time>2017-10-18T18:33:43Z</time>
      </trkpt>
      <trkpt lat="62.683091240929" lon="17.802522850369">
        <ele>51</ele>
        <time>2017-10-18T18:33:44Z</time>
      </trkpt>
      <trkpt lat="62.683104316693" lon="17.802409527081">
        <ele>51</ele>
        <time>2017-10-18T18:33:45Z</time>
      </trkpt>
      <trkpt lat="62.683115296982" lon="17.802304669512">
        <ele>51</ele>
        <time>2017-10-18T18:33:46Z</time>
      </trkpt>
      <trkpt lat="62.683128708022" lon="17.802183802514">
        <ele>50.8</ele>
        <time>2017-10-18T18:33:47Z</time>
      </trkpt>
      <trkpt lat="62.683141364691" lon="17.802078190574">
        <ele>50.8</ele>
        <time>2017-10-18T18:33:48Z</time>
      </trkpt>
      <trkpt lat="62.683154356636" lon="17.80195866468">
        <ele>50.8</ele>
        <time>2017-10-18T18:33:49Z</time>
      </trkpt>
      <trkpt lat="62.683167180943" lon="17.80184383265">
        <ele>50.6</ele>
        <time>2017-10-18T18:33:50Z</time>
      </trkpt>
      <trkpt lat="62.683182687458" lon="17.801724977308">
        <ele>50.6</ele>
        <time>2017-10-18T18:33:51Z</time>
      </trkpt>
      <trkpt lat="62.683197271964" lon="17.801605451414">
        <ele>50.6</ele>
        <time>2017-10-18T18:33:52Z</time>
      </trkpt>
      <trkpt lat="62.683211605013" lon="17.801491289936">
        <ele>50.6</ele>
        <time>2017-10-18T18:33:53Z</time>
      </trkpt>
      <trkpt lat="62.683230129012" lon="17.801339493727">
        <ele>50.6</ele>
        <time>2017-10-18T18:33:54Z</time>
      </trkpt>
      <trkpt lat="62.68324789864" lon="17.801198007255">
        <ele>50.2</ele>
        <time>2017-10-18T18:33:55Z</time>
      </trkpt>
      <trkpt lat="62.683266841734" lon="17.801057945706">
        <ele>50</ele>
        <time>2017-10-18T18:33:56Z</time>
      </trkpt>
      <trkpt lat="62.683286371561" lon="17.800909753714">
        <ele>49.6</ele>
        <time>2017-10-18T18:33:57Z</time>
      </trkpt>
      <trkpt lat="62.683304141189" lon="17.800780337178">
        <ele>49.2</ele>
        <time>2017-10-18T18:33:58Z</time>
      </trkpt>
      <trkpt lat="62.683327275233" lon="17.800613202092">
        <ele>48.6</ele>
        <time>2017-10-18T18:33:59Z</time>
      </trkpt>
      <trkpt lat="62.683349235811" lon="17.800458556037">
        <ele>48.2</ele>
        <time>2017-10-18T18:34:00Z</time>
      </trkpt>
      <trkpt lat="62.683370693475" lon="17.800308352389">
        <ele>47.6</ele>
        <time>2017-10-18T18:34:01Z</time>
      </trkpt>
      <trkpt lat="62.68339122913" lon="17.800158735474">
        <ele>47.2</ele>
        <time>2017-10-18T18:34:02Z</time>
      </trkpt>
      <trkpt lat="62.683410926595" lon="17.800011716948">
        <ele>47</ele>
        <time>2017-10-18T18:34:03Z</time>
      </trkpt>
      <trkpt lat="62.683430540241" lon="17.799856819436">
        <ele>46.6</ele>
        <time>2017-10-18T18:34:04Z</time>
      </trkpt>
      <trkpt lat="62.68345157881" lon="17.799691193092">
        <ele>46.4</ele>
        <time>2017-10-18T18:34:05Z</time>
      </trkpt>
      <trkpt lat="62.683471443913" lon="17.799539732159">
        <ele>46.2</ele>
        <time>2017-10-18T18:34:06Z</time>
      </trkpt>
      <trkpt lat="62.683491141378" lon="17.799389696149">
        <ele>45.8</ele>
        <time>2017-10-18T18:34:07Z</time>
      </trkpt>
      <trkpt lat="62.683508072816" lon="17.799262961821">
        <ele>45.6</ele>
        <time>2017-10-18T18:34:08Z</time>
      </trkpt>
      <trkpt lat="62.683530201032" lon="17.799104711549">
        <ele>45.4</ele>
        <time>2017-10-18T18:34:09Z</time>
      </trkpt>
      <trkpt lat="62.683549144126" lon="17.798977558126">
        <ele>45.4</ele>
        <time>2017-10-18T18:34:10Z</time>
      </trkpt>
      <trkpt lat="62.683570769428" lon="17.798834814369">
        <ele>45.2</ele>
        <time>2017-10-18T18:34:11Z</time>
      </trkpt>
      <trkpt lat="62.683589293427" lon="17.798700955426">
        <ele>45.2</ele>
        <time>2017-10-18T18:34:12Z</time>
      </trkpt>
      <trkpt lat="62.683606224865" lon="17.798575981297">
        <ele>45.4</ele>
        <time>2017-10-18T18:34:13Z</time>
      </trkpt>
      <trkpt lat="62.683624748864" lon="17.798433488997">
        <ele>45.4</ele>
        <time>2017-10-18T18:34:14Z</time>
      </trkpt>
      <trkpt lat="62.68364268613" lon="17.798296864027">
        <ele>45.6</ele>
        <time>2017-10-18T18:34:15Z</time>
      </trkpt>
      <trkpt lat="62.683659030835" lon="17.798168620957">
        <ele>45.6</ele>
        <time>2017-10-18T18:34:16Z</time>
      </trkpt>
      <trkpt lat="62.683678057748" lon="17.798020428965">
        <ele>45.6</ele>
        <time>2017-10-18T18:34:17Z</time>
      </trkpt>
      <trkpt lat="62.683694737729" lon="17.797890593334">
        <ele>45.4</ele>
        <time>2017-10-18T18:34:18Z</time>
      </trkpt>
      <trkpt lat="62.683714938108" lon="17.797744832093">
        <ele>45.2</ele>
        <time>2017-10-18T18:34:19Z</time>
      </trkpt>
      <trkpt lat="62.683734970849" lon="17.797606363105">
        <ele>45</ele>
        <time>2017-10-18T18:34:20Z</time>
      </trkpt>
      <trkpt lat="62.683754333038" lon="17.797469402859">
        <ele>44.8</ele>
        <time>2017-10-18T18:34:21Z</time>
      </trkpt>
      <trkpt lat="62.683772270304" lon="17.797342165617">
        <ele>44.8</ele>
        <time>2017-10-18T18:34:22Z</time>
      </trkpt>
      <trkpt lat="62.683789956113" lon="17.797217526764">
        <ele>44.6</ele>
        <time>2017-10-18T18:34:23Z</time>
      </trkpt>
      <trkpt lat="62.68380948594" lon="17.797072268437">
        <ele>44.4</ele>
        <time>2017-10-18T18:34:24Z</time>
      </trkpt>
      <trkpt lat="62.683826668835" lon="17.796944779738">
        <ele>44.4</ele>
        <time>2017-10-18T18:34:25Z</time>
      </trkpt>
      <trkpt lat="62.683843264997" lon="17.796823326007">
        <ele>44.4</ele>
        <time>2017-10-18T18:34:26Z</time>
      </trkpt>
      <trkpt lat="62.683859358245" lon="17.796705979407">
        <ele>44.4</ele>
        <time>2017-10-18T18:34:27Z</time>
      </trkpt>
      <trkpt lat="62.683872517828" lon="17.796606653892">
        <ele>44.6</ele>
        <time>2017-10-18T18:34:28Z</time>
      </trkpt>
      <trkpt lat="62.683888024343" lon="17.796483859057">
        <ele>44.8</ele>
        <time>2017-10-18T18:34:29Z</time>
      </trkpt>
      <trkpt lat="62.683900429555" lon="17.796376067823">
        <ele>45</ele>
        <time>2017-10-18T18:34:30Z</time>
      </trkpt>
      <trkpt lat="62.683911074568" lon="17.796270791159">
        <ele>45.2</ele>
        <time>2017-10-18T18:34:31Z</time>
      </trkpt>
      <trkpt lat="62.683923144504" lon="17.796163251382">
        <ele>45.4</ele>
        <time>2017-10-18T18:34:32Z</time>
      </trkpt>
      <trkpt lat="62.683936555544" lon="17.796064931695">
        <ele>45.6</ele>
        <time>2017-10-18T18:34:33Z</time>
      </trkpt>
      <trkpt lat="62.683950553317" lon="17.795960157945">
        <ele>45.8</ele>
        <time>2017-10-18T18:34:34Z</time>
      </trkpt>
      <trkpt lat="62.683965724556" lon="17.795847589028">
        <ele>46</ele>
        <time>2017-10-18T18:34:35Z</time>
      </trkpt>
      <trkpt lat="62.683976369569" lon="17.795766871331">
        <ele>46.2</ele>
        <time>2017-10-18T18:34:36Z</time>
      </trkpt>
      <trkpt lat="62.683993468645" lon="17.795636700424">
        <ele>46.4</ele>
        <time>2017-10-18T18:34:37Z</time>
      </trkpt>
      <trkpt lat="62.684006795866" lon="17.795543493696">
        <ele>46.6</ele>
        <time>2017-10-18T18:34:38Z</time>
      </trkpt>
      <trkpt lat="62.684023308209" lon="17.795426482372">
        <ele>46.8</ele>
        <time>2017-10-18T18:34:39Z</time>
      </trkpt>
      <trkpt lat="62.684036551611" lon="17.795329168513">
        <ele>47</ele>
        <time>2017-10-18T18:34:40Z</time>
      </trkpt>
      <trkpt lat="62.684051387574" lon="17.795219952356">
        <ele>47</ele>
        <time>2017-10-18T18:34:41Z</time>
      </trkpt>
      <trkpt lat="62.68406764846" lon="17.795117609357">
        <ele>47.2</ele>
        <time>2017-10-18T18:34:42Z</time>
      </trkpt>
      <trkpt lat="62.684081478595" lon="17.795022474792">
        <ele>47.4</ele>
        <time>2017-10-18T18:34:43Z</time>
      </trkpt>
      <trkpt lat="62.68409530873" lon="17.794915773205">
        <ele>47.6</ele>
        <time>2017-10-18T18:34:44Z</time>
      </trkpt>
      <trkpt lat="62.68410955796" lon="17.794816615328">
        <ele>47.6</ele>
        <time>2017-10-18T18:34:45Z</time>
      </trkpt>
      <trkpt lat="62.684124980656" lon="17.794725420256">
        <ele>47.8</ele>
        <time>2017-10-18T18:34:46Z</time>
      </trkpt>
      <trkpt lat="62.684141995913" lon="17.794623244895">
        <ele>48</ele>
        <time>2017-10-18T18:34:47Z</time>
      </trkpt>
      <trkpt lat="62.684157586247" lon="17.794532049823">
        <ele>48</ele>
        <time>2017-10-18T18:34:48Z</time>
      </trkpt>
      <trkpt lat="62.684175104418" lon="17.794431969937">
        <ele>48.2</ele>
        <time>2017-10-18T18:34:49Z</time>
      </trkpt>
      <trkpt lat="62.68419253877" lon="17.794336751553">
        <ele>48.2</ele>
        <time>2017-10-18T18:34:50Z</time>
      </trkpt>
      <trkpt lat="62.684209889303" lon="17.794243377187">
        <ele>48.2</ele>
        <time>2017-10-18T18:34:51Z</time>
      </trkpt>
      <trkpt lat="62.684226988379" lon="17.794157295074">
        <ele>48.4</ele>
        <time>2017-10-18T18:34:52Z</time>
      </trkpt>
      <trkpt lat="62.684245512378" lon="17.79407129678">
        <ele>48.4</ele>
        <time>2017-10-18T18:34:53Z</time>
      </trkpt>
      <trkpt lat="62.684268143508" lon="17.793971719808">
        <ele>48.4</ele>
        <time>2017-10-18T18:34:54Z</time>
      </trkpt>
      <trkpt lat="62.684289098258" lon="17.793883458401">
        <ele>48.6</ele>
        <time>2017-10-18T18:34:55Z</time>
      </trkpt>
      <trkpt lat="62.684310304465" lon="17.7937930177">
        <ele>48.6</ele>
        <time>2017-10-18T18:34:56Z</time>
      </trkpt>
      <trkpt lat="62.684332432681" lon="17.793705259207">
        <ele>48.8</ele>
        <time>2017-10-18T18:34:57Z</time>
      </trkpt>
      <trkpt lat="62.684352800698" lon="17.79362789427">
        <ele>49</ele>
        <time>2017-10-18T18:34:58Z</time>
      </trkpt>
      <trkpt lat="62.684379371321" lon="17.793529406945">
        <ele>49.2</ele>
        <time>2017-10-18T18:34:59Z</time>
      </trkpt>
      <trkpt lat="62.684404684659" lon="17.7934409779">
        <ele>49.4</ele>
        <time>2017-10-18T18:35:00Z</time>
      </trkpt>
      <trkpt lat="62.684430668549" lon="17.793352297398">
        <ele>49.6</ele>
        <time>2017-10-18T18:35:01Z</time>
      </trkpt>
      <trkpt lat="62.684458664095" lon="17.793262024335">
        <ele>49.6</ele>
        <time>2017-10-18T18:35:02Z</time>
      </trkpt>
      <trkpt lat="62.684484815623" lon="17.79317862443">
        <ele>49.6</ele>
        <time>2017-10-18T18:35:03Z</time>
      </trkpt>
      <trkpt lat="62.684513146445" lon="17.793091117394">
        <ele>49.8</ele>
        <time>2017-10-18T18:35:04Z</time>
      </trkpt>
      <trkpt lat="62.684544746208" lon="17.792999587046">
        <ele>50</ele>
        <time>2017-10-18T18:35:05Z</time>
      </trkpt>
      <trkpt lat="62.684574669591" lon="17.792914259304">
        <ele>50</ele>
        <time>2017-10-18T18:35:06Z</time>
      </trkpt>
      <trkpt lat="62.684605263526" lon="17.792830440304">
        <ele>50</ele>
        <time>2017-10-18T18:35:07Z</time>
      </trkpt>
      <trkpt lat="62.684632923796" lon="17.79275785305">
        <ele>50.2</ele>
        <time>2017-10-18T18:35:08Z</time>
      </trkpt>
      <trkpt lat="62.68466946888" lon="17.792666825616">
        <ele>50.2</ele>
        <time>2017-10-18T18:35:09Z</time>
      </trkpt>
      <trkpt lat="62.684701655376" lon="17.792591975249">
        <ele>50.2</ele>
        <time>2017-10-18T18:35:10Z</time>
      </trkpt>
      <trkpt lat="62.684740212116" lon="17.792504216756">
        <ele>50.4</ele>
        <time>2017-10-18T18:35:11Z</time>
      </trkpt>
      <trkpt lat="62.684777679209" lon="17.792424001973">
        <ele>50.4</ele>
        <time>2017-10-18T18:35:12Z</time>
      </trkpt>
      <trkpt lat="62.68481447575" lon="17.79235049271">
        <ele>50.4</ele>
        <time>2017-10-18T18:35:13Z</time>
      </trkpt>
      <trkpt lat="62.684857810173" lon="17.792272205764">
        <ele>50.4</ele>
        <time>2017-10-18T18:35:14Z</time>
      </trkpt>
      <trkpt lat="62.684899468216" lon="17.792200037605">
        <ele>50.4</ele>
        <time>2017-10-18T18:35:15Z</time>
      </trkpt>
      <trkpt lat="62.684940288069" lon="17.792135245518">
        <ele>50.4</ele>
        <time>2017-10-18T18:35:16Z</time>
      </trkpt>
      <trkpt lat="62.684988148718" lon="17.792063664092">
        <ele>50.6</ele>
        <time>2017-10-18T18:35:17Z</time>
      </trkpt>
      <trkpt lat="62.685032069874" lon="17.792001302756">
        <ele>50.4</ele>
        <time>2017-10-18T18:35:18Z</time>
      </trkpt>
      <trkpt lat="62.685082612731" lon="17.79193475047">
        <ele>50.2</ele>
        <time>2017-10-18T18:35:19Z</time>
      </trkpt>
      <trkpt lat="62.685132065941" lon="17.79187607717">
        <ele>50.2</ele>
        <time>2017-10-18T18:35:20Z</time>
      </trkpt>
      <trkpt lat="62.685184536635" lon="17.791820253716">
        <ele>50.2</ele>
        <time>2017-10-18T18:35:21Z</time>
      </trkpt>
      <trkpt lat="62.685234325121" lon="17.791772728343">
        <ele>50.2</ele>
        <time>2017-10-18T18:35:22Z</time>
      </trkpt>
      <trkpt lat="62.685288136919" lon="17.791728471911">
        <ele>50.2</ele>
        <time>2017-10-18T18:35:23Z</time>
      </trkpt>
      <trkpt lat="62.685352677549" lon="17.791687316782">
        <ele>50.2</ele>
        <time>2017-10-18T18:35:24Z</time>
      </trkpt>
      <trkpt lat="62.685411350849" lon="17.791656722847">
        <ele>50</ele>
        <time>2017-10-18T18:35:25Z</time>
      </trkpt>
      <trkpt lat="62.68546994033" lon="17.791632834432">
        <ele>50</ele>
        <time>2017-10-18T18:35:26Z</time>
      </trkpt>
      <trkpt lat="62.68553196639" lon="17.791612131139">
        <ele>49.8</ele>
        <time>2017-10-18T18:35:27Z</time>
      </trkpt>
      <trkpt lat="62.685585862007" lon="17.791595702615">
        <ele>49.8</ele>
        <time>2017-10-18T18:35:28Z</time>
      </trkpt>
      <trkpt lat="62.685656605243" lon="17.791576759521">
        <ele>49.6</ele>
        <time>2017-10-18T18:35:29Z</time>
      </trkpt>
      <trkpt lat="62.685720810597" lon="17.791562761748">
        <ele>49.4</ele>
        <time>2017-10-18T18:35:30Z</time>
      </trkpt>
      <trkpt lat="62.685786943788" lon="17.791549685984">
        <ele>49</ele>
        <time>2017-10-18T18:35:31Z</time>
      </trkpt>
      <trkpt lat="62.685856429739" lon="17.791537616048">
        <ele>48.8</ele>
        <time>2017-10-18T18:35:32Z</time>
      </trkpt>
      <trkpt lat="62.685924993681" lon="17.791526049026">
        <ele>48.6</ele>
        <time>2017-10-18T18:35:33Z</time>
      </trkpt>
      <trkpt lat="62.685997748573" lon="17.791512470348">
        <ele>48.4</ele>
        <time>2017-10-18T18:35:34Z</time>
      </trkpt>
      <trkpt lat="62.686078717727" lon="17.791498640213">
        <ele>48.2</ele>
        <time>2017-10-18T18:35:35Z</time>
      </trkpt>
      <trkpt lat="62.68615641794" lon="17.791485396811">
        <ele>47.8</ele>
        <time>2017-10-18T18:35:36Z</time>
      </trkpt>
      <trkpt lat="62.686234788705" lon="17.791471147581">
        <ele>47.6</ele>
        <time>2017-10-18T18:35:37Z</time>
      </trkpt>
      <trkpt lat="62.686303855561" lon="17.79145782036">
        <ele>47.4</ele>
        <time>2017-10-18T18:35:38Z</time>
      </trkpt>
      <trkpt lat="62.686391865511" lon="17.791441810931">
        <ele>47.2</ele>
        <time>2017-10-18T18:35:39Z</time>
      </trkpt>
      <trkpt lat="62.686464704222" lon="17.791428651348">
        <ele>46.6</ele>
        <time>2017-10-18T18:35:40Z</time>
      </trkpt>
      <trkpt lat="62.686544080815" lon="17.791414821213">
        <ele>46.2</ele>
        <time>2017-10-18T18:35:41Z</time>
      </trkpt>
      <trkpt lat="62.686617087164" lon="17.791403002734">
        <ele>45.8</ele>
        <time>2017-10-18T18:35:42Z</time>
      </trkpt>
      <trkpt lat="62.686682046889" lon="17.79139244154">
        <ele>45.4</ele>
        <time>2017-10-18T18:35:43Z</time>
      </trkpt>
      <trkpt lat="62.686754382686" lon="17.791378695224">
        <ele>45.2</ele>
        <time>2017-10-18T18:35:44Z</time>
      </trkpt>
      <trkpt lat="62.686819677687" lon="17.791364948908">
        <ele>45</ele>
        <time>2017-10-18T18:35:45Z</time>
      </trkpt>
      <trkpt lat="62.686881200833" lon="17.791352795153">
        <ele>45</ele>
        <time>2017-10-18T18:35:46Z</time>
      </trkpt>
      <trkpt lat="62.686942137246" lon="17.791341479588">
        <ele>45</ele>
        <time>2017-10-18T18:35:47Z</time>
      </trkpt>
      <trkpt lat="62.687002235469" lon="17.791328655281">
        <ele>45</ele>
        <time>2017-10-18T18:35:48Z</time>
      </trkpt>
      <trkpt lat="62.687066776099" lon="17.791314238413">
        <ele>45.2</ele>
        <time>2017-10-18T18:35:49Z</time>
      </trkpt>
      <trkpt lat="62.687126622865" lon="17.791300827373">
        <ele>45.2</ele>
        <time>2017-10-18T18:35:50Z</time>
      </trkpt>
      <trkpt lat="62.687185547622" lon="17.791289176532">
        <ele>45.4</ele>
        <time>2017-10-18T18:35:51Z</time>
      </trkpt>
      <trkpt lat="62.687239694696" lon="17.791279956442">
        <ele>45.4</ele>
        <time>2017-10-18T18:35:52Z</time>
      </trkpt>
      <trkpt lat="62.687294596141" lon="17.791271658361">
        <ele>45.4</ele>
        <time>2017-10-18T18:35:53Z</time>
      </trkpt>
      <trkpt lat="62.687358801495" lon="17.791260761891">
        <ele>45.4</ele>
        <time>2017-10-18T18:35:54Z</time>
      </trkpt>
      <trkpt lat="62.687414960225" lon="17.791248691955">
        <ele>45.6</ele>
        <time>2017-10-18T18:35:55Z</time>
      </trkpt>
      <trkpt lat="62.687470532222" lon="17.791235364734">
        <ele>45.6</ele>
        <time>2017-10-18T18:35:56Z</time>
      </trkpt>
      <trkpt lat="62.687525266029" lon="17.791226647558">
        <ele>45.6</ele>
        <time>2017-10-18T18:35:57Z</time>
      </trkpt>
      <trkpt lat="62.687572623764" lon="17.791221115504">
        <ele>45.6</ele>
        <time>2017-10-18T18:35:58Z</time>
      </trkpt>
      <trkpt lat="62.687632386711" lon="17.791212063052">
        <ele>45.6</ele>
        <time>2017-10-18T18:35:59Z</time>
      </trkpt>
      <trkpt lat="62.687684941224" lon="17.791202004772">
        <ele>46</ele>
        <time>2017-10-18T18:36:00Z</time>
      </trkpt>
      <trkpt lat="62.687735735538" lon="17.791191695035">
        <ele>46</ele>
        <time>2017-10-18T18:36:01Z</time>
      </trkpt>
      <trkpt lat="62.687787116585" lon="17.791180966203">
        <ele>46.2</ele>
        <time>2017-10-18T18:36:02Z</time>
      </trkpt>
      <trkpt lat="62.687833887587" lon="17.791171075561">
        <ele>46.4</ele>
        <time>2017-10-18T18:36:03Z</time>
      </trkpt>
      <trkpt lat="62.687882586426" lon="17.791161184919">
        <ele>46.6</ele>
        <time>2017-10-18T18:36:04Z</time>
      </trkpt>
      <trkpt lat="62.687934470387" lon="17.791152216286">
        <ele>46.8</ele>
        <time>2017-10-18T18:36:05Z</time>
      </trkpt>
      <trkpt lat="62.68798199576" lon="17.791144924033">
        <ele>47</ele>
        <time>2017-10-18T18:36:06Z</time>
      </trkpt>
      <trkpt lat="62.688028263848" lon="17.7911359554">
        <ele>47.2</ele>
        <time>2017-10-18T18:36:07Z</time>
      </trkpt>
      <trkpt lat="62.688069502796" lon="17.791126567672">
        <ele>47.4</ele>
        <time>2017-10-18T18:36:08Z</time>
      </trkpt>
      <trkpt lat="62.688120716205" lon="17.791116174116">
        <ele>47.6</ele>
        <time>2017-10-18T18:36:09Z</time>
      </trkpt>
      <trkpt lat="62.688163296257" lon="17.791105277646">
        <ele>47.8</ele>
        <time>2017-10-18T18:36:10Z</time>
      </trkpt>
      <trkpt lat="62.688211911277" lon="17.791092118063">
        <ele>48</ele>
        <time>2017-10-18T18:36:11Z</time>
      </trkpt>
      <trkpt lat="62.688256670623" lon="17.791080048127">
        <ele>48.2</ele>
        <time>2017-10-18T18:36:12Z</time>
      </trkpt>
      <trkpt lat="62.688297825752" lon="17.791067810553">
        <ele>48.2</ele>
        <time>2017-10-18T18:36:13Z</time>
      </trkpt>
      <trkpt lat="62.68834409384" lon="17.791054148056">
        <ele>48.4</ele>
        <time>2017-10-18T18:36:14Z</time>
      </trkpt>
      <trkpt lat="62.688387260625" lon="17.791038222446">
        <ele>48.6</ele>
        <time>2017-10-18T18:36:15Z</time>
      </trkpt>
      <trkpt lat="62.688426990831" lon="17.791020536637">
        <ele>48.6</ele>
        <time>2017-10-18T18:36:16Z</time>
      </trkpt>
      <trkpt lat="62.688472504548" lon="17.790998408421">
        <ele>48.8</ele>
        <time>2017-10-18T18:36:17Z</time>
      </trkpt>
      <trkpt lat="62.688513240582" lon="17.79097921387">
        <ele>49</ele>
        <time>2017-10-18T18:36:18Z</time>
      </trkpt>
      <trkpt lat="62.688558586661" lon="17.790953649075">
        <ele>49</ele>
        <time>2017-10-18T18:36:19Z</time>
      </trkpt>
      <trkpt lat="62.688601501989" lon="17.790927329909">
        <ele>49.2</ele>
        <time>2017-10-18T18:36:20Z</time>
      </trkpt>
      <trkpt lat="62.688644249679" lon="17.790897657983">
        <ele>49.4</ele>
        <time>2017-10-18T18:36:21Z</time>
      </trkpt>
      <trkpt lat="62.688684482799" lon="17.790866309677">
        <ele>49.6</ele>
        <time>2017-10-18T18:36:22Z</time>
      </trkpt>
      <trkpt lat="62.68872630848" lon="17.790834626095">
        <ele>49.8</ele>
        <time>2017-10-18T18:36:23Z</time>
      </trkpt>
      <trkpt lat="62.688776180785" lon="17.790794560613">
        <ele>50.2</ele>
        <time>2017-10-18T18:36:24Z</time>
      </trkpt>
      <trkpt lat="62.688820269579" lon="17.790753656941">
        <ele>50.4</ele>
        <time>2017-10-18T18:36:25Z</time>
      </trkpt>
      <trkpt lat="62.688865699477" lon="17.790707053577">
        <ele>50.6</ele>
        <time>2017-10-18T18:36:26Z</time>
      </trkpt>
      <trkpt lat="62.688911716108" lon="17.790659612023">
        <ele>50.6</ele>
        <time>2017-10-18T18:36:27Z</time>
      </trkpt>
      <trkpt lat="62.688951446314" lon="17.790617031971">
        <ele>50.6</ele>
        <time>2017-10-18T18:36:28Z</time>
      </trkpt>
      <trkpt lat="62.689002575904" lon="17.790558777766">
        <ele>50.6</ele>
        <time>2017-10-18T18:36:29Z</time>
      </trkpt>
      <trkpt lat="62.689047419069" lon="17.790502367579">
        <ele>50.4</ele>
        <time>2017-10-18T18:36:30Z</time>
      </trkpt>
      <trkpt lat="62.689091172587" lon="17.790442688451">
        <ele>50.4</ele>
        <time>2017-10-18T18:36:31Z</time>
      </trkpt>
      <trkpt lat="62.689134423191" lon="17.790380243296">
        <ele>50.4</ele>
        <time>2017-10-18T18:36:32Z</time>
      </trkpt>
      <trkpt lat="62.689174991587" lon="17.790320145073">
        <ele>50.6</ele>
        <time>2017-10-18T18:36:33Z</time>
      </trkpt>
      <trkpt lat="62.689216230535" lon="17.790257699918">
        <ele>50.6</ele>
        <time>2017-10-18T18:36:34Z</time>
      </trkpt>
      <trkpt lat="62.689260822243" lon="17.79019131527">
        <ele>50.8</ele>
        <time>2017-10-18T18:36:35Z</time>
      </trkpt>
      <trkpt lat="62.689303569933" lon="17.790128199563">
        <ele>50.8</ele>
        <time>2017-10-18T18:36:36Z</time>
      </trkpt>
      <trkpt lat="62.689344138329" lon="17.79006726315">
        <ele>50.8</ele>
        <time>2017-10-18T18:36:37Z</time>
      </trkpt>
      <trkpt lat="62.689381102508" lon="17.790012361705">
        <ele>51</ele>
        <time>2017-10-18T18:36:38Z</time>
      </trkpt>
      <trkpt lat="62.689426113311" lon="17.789944133039">
        <ele>51</ele>
        <time>2017-10-18T18:36:39Z</time>
      </trkpt>
      <trkpt lat="62.689463831861" lon="17.789885292101">
        <ele>51</ele>
        <time>2017-10-18T18:36:40Z</time>
      </trkpt>
      <trkpt lat="62.689506244275" lon="17.789819075091">
        <ele>51.2</ele>
        <time>2017-10-18T18:36:41Z</time>
      </trkpt>
      <trkpt lat="62.689545555386" lon="17.789753863909">
        <ele>51.2</ele>
        <time>2017-10-18T18:36:42Z</time>
      </trkpt>
      <trkpt lat="62.689583022479" lon="17.78968923946">
        <ele>51.4</ele>
        <time>2017-10-18T18:36:43Z</time>
      </trkpt>
      <trkpt lat="62.689626775997" lon="17.789618747681">
        <ele>51.6</ele>
        <time>2017-10-18T18:36:44Z</time>
      </trkpt>
      <trkpt lat="62.689669691325" lon="17.789556134888">
        <ele>51.8</ele>
        <time>2017-10-18T18:36:45Z</time>
      </trkpt>
      <trkpt lat="62.689709421531" lon="17.789499473244">
        <ele>52</ele>
        <time>2017-10-18T18:36:46Z</time>
      </trkpt>
      <trkpt lat="62.689755270524" lon="17.789431747492">
        <ele>52.2</ele>
        <time>2017-10-18T18:36:47Z</time>
      </trkpt>
      <trkpt lat="62.68979583892" lon="17.789372319821">
        <ele>52.2</ele>
        <time>2017-10-18T18:36:48Z</time>
      </trkpt>
      <trkpt lat="62.68984193937" lon="17.789306521906">
        <ele>52.4</ele>
        <time>2017-10-18T18:36:49Z</time>
      </trkpt>
      <trkpt lat="62.689885022336" lon="17.789248938253">
        <ele>52.4</ele>
        <time>2017-10-18T18:36:50Z</time>
      </trkpt>
      <trkpt lat="62.689929530225" lon="17.789192779523">
        <ele>52.6</ele>
        <time>2017-10-18T18:36:51Z</time>
      </trkpt>
      <trkpt lat="62.689969679526" lon="17.789142236666">
        <ele>52.6</ele>
        <time>2017-10-18T18:36:52Z</time>
      </trkpt>
      <trkpt lat="62.690009912646" lon="17.789090939438">
        <ele>52.8</ele>
        <time>2017-10-18T18:36:53Z</time>
      </trkpt>
      <trkpt lat="62.690056432191" lon="17.789032014681">
        <ele>53</ele>
        <time>2017-10-18T18:36:54Z</time>
      </trkpt>
      <trkpt lat="62.690098257872" lon="17.78898432167">
        <ele>53.2</ele>
        <time>2017-10-18T18:36:55Z</time>
      </trkpt>
      <trkpt lat="62.69013949682" lon="17.788939394686">
        <ele>53.6</ele>
        <time>2017-10-18T18:36:56Z</time>
      </trkpt>
      <trkpt lat="62.690180065216" lon="17.788895724987">
        <ele>54</ele>
        <time>2017-10-18T18:36:57Z</time>
      </trkpt>
      <trkpt lat="62.690216275024" lon="17.788857587342">
        <ele>54.2</ele>
        <time>2017-10-18T18:36:58Z</time>
      </trkpt>
      <trkpt lat="62.690261285827" lon="17.788806960666">
        <ele>54.6</ele>
        <time>2017-10-18T18:36:59Z</time>
      </trkpt>
      <trkpt lat="62.69030378206" lon="17.788756501628">
        <ele>55</ele>
        <time>2017-10-18T18:37:00Z</time>
      </trkpt>
      <trkpt lat="62.690346278293" lon="17.788714089214">
        <ele>55</ele>
        <time>2017-10-18T18:37:01Z</time>
      </trkpt>
      <trkpt lat="62.690391708191" lon="17.788666731479">
        <ele>55.2</ele>
        <time>2017-10-18T18:37:02Z</time>
      </trkpt>
      <trkpt lat="62.690434791157" lon="17.788621469219">
        <ele>55.4</ele>
        <time>2017-10-18T18:37:03Z</time>
      </trkpt>
      <trkpt lat="62.69048064015" lon="17.788572435104">
        <ele>55.4</ele>
        <time>2017-10-18T18:37:04Z</time>
      </trkpt>
      <trkpt lat="62.690530009541" lon="17.788518120392">
        <ele>55.4</ele>
        <time>2017-10-18T18:37:05Z</time>
      </trkpt>
      <trkpt lat="62.690578205466" lon="17.788465733517">
        <ele>55.4</ele>
        <time>2017-10-18T18:37:06Z</time>
      </trkpt>
      <trkpt lat="62.69062816159" lon="17.78841099971">
        <ele>55.2</ele>
        <time>2017-10-18T18:37:07Z</time>
      </trkpt>
      <trkpt lat="62.690673507669" lon="17.788361295043">
        <ele>55</ele>
        <time>2017-10-18T18:37:08Z</time>
      </trkpt>
      <trkpt lat="62.690733186797" lon="17.788297592603">
        <ele>55</ele>
        <time>2017-10-18T18:37:09Z</time>
      </trkpt>
      <trkpt lat="62.690785154577" lon="17.788243110253">
        <ele>55</ele>
        <time>2017-10-18T18:37:10Z</time>
      </trkpt>
      <trkpt lat="62.690846258628" lon="17.788179826908">
        <ele>54.8</ele>
        <time>2017-10-18T18:37:11Z</time>
      </trkpt>
      <trkpt lat="62.690904429014" lon="17.788120902151">
        <ele>54.6</ele>
        <time>2017-10-18T18:37:12Z</time>
      </trkpt>
      <trkpt lat="62.690959833373" lon="17.788064911059">
        <ele>54.4</ele>
        <time>2017-10-18T18:37:13Z</time>
      </trkpt>
      <trkpt lat="62.691024793098" lon="17.787996766212">
        <ele>54.2</ele>
        <time>2017-10-18T18:37:14Z</time>
      </trkpt>
      <trkpt lat="62.691084472226" lon="17.787934404876">
        <ele>54</ele>
        <time>2017-10-18T18:37:15Z</time>
      </trkpt>
      <trkpt lat="62.691139289852" lon="17.787877994689">
        <ele>53.6</ele>
        <time>2017-10-18T18:37:16Z</time>
      </trkpt>
      <trkpt lat="62.691202154102" lon="17.787812029136">
        <ele>53.4</ele>
        <time>2017-10-18T18:37:17Z</time>
      </trkpt>
      <trkpt lat="62.691259151022" lon="17.787752098551">
        <ele>53.2</ele>
        <time>2017-10-18T18:37:18Z</time>
      </trkpt>
      <trkpt lat="62.691321260901" lon="17.787687306464">
        <ele>53</ele>
        <time>2017-10-18T18:37:19Z</time>
      </trkpt>
      <trkpt lat="62.691379431287" lon="17.78762813025">
        <ele>52.8</ele>
        <time>2017-10-18T18:37:20Z</time>
      </trkpt>
      <trkpt lat="62.691436512026" lon="17.787571049511">
        <ele>52.8</ele>
        <time>2017-10-18T18:37:21Z</time>
      </trkpt>
      <trkpt lat="62.691489988548" lon="17.787516148066">
        <ele>52.8</ele>
        <time>2017-10-18T18:37:22Z</time>
      </trkpt>
      <trkpt lat="62.691542291604" lon="17.787461162802">
        <ele>52.8</ele>
        <time>2017-10-18T18:37:23Z</time>
      </trkpt>
      <trkpt lat="62.691603060379" lon="17.787395616344">
        <ele>52.8</ele>
        <time>2017-10-18T18:37:24Z</time>
      </trkpt>
      <trkpt lat="62.69165662072" lon="17.787340966356">
        <ele>52.8</ele>
        <time>2017-10-18T18:37:25Z</time>
      </trkpt>
      <trkpt lat="62.691709594328" lon="17.787289250033">
        <ele>52.6</ele>
        <time>2017-10-18T18:37:26Z</time>
      </trkpt>
      <trkpt lat="62.691763573764" lon="17.787234348588">
        <ele>52.8</ele>
        <time>2017-10-18T18:37:27Z</time>
      </trkpt>
      <trkpt lat="62.691809506576" lon="17.787186571758">
        <ele>53</ele>
        <time>2017-10-18T18:37:28Z</time>
      </trkpt>
      <trkpt lat="62.691868515152" lon="17.787124713336">
        <ele>53.2</ele>
        <time>2017-10-18T18:37:29Z</time>
      </trkpt>
      <trkpt lat="62.691921404941" lon="17.78706905752">
        <ele>53.2</ele>
        <time>2017-10-18T18:37:30Z</time>
      </trkpt>
      <trkpt lat="62.691973372721" lon="17.787013150247">
        <ele>53.4</ele>
        <time>2017-10-18T18:37:31Z</time>
      </trkpt>
      <trkpt lat="62.692025927234" lon="17.786958500259">
        <ele>53.4</ele>
        <time>2017-10-18T18:37:32Z</time>
      </trkpt>
      <trkpt lat="62.69207487753" lon="17.786906532479">
        <ele>53.6</ele>
        <time>2017-10-18T18:37:33Z</time>
      </trkpt>
      <trkpt lat="62.69212600712" lon="17.786852888319">
        <ele>54</ele>
        <time>2017-10-18T18:37:34Z</time>
      </trkpt>
      <trkpt lat="62.692181579117" lon="17.786796729589">
        <ele>54</ele>
        <time>2017-10-18T18:37:35Z</time>
      </trkpt>
      <trkpt lat="62.692233211621" lon="17.786744594171">
        <ele>54.2</ele>
        <time>2017-10-18T18:37:36Z</time>
      </trkpt>
      <trkpt lat="62.692272606551" lon="17.78670360668">
        <ele>54.2</ele>
        <time>2017-10-18T18:37:37Z</time>
      </trkpt>
      <trkpt lat="62.692329771109" lon="17.786645603932">
        <ele>54.2</ele>
        <time>2017-10-18T18:37:38Z</time>
      </trkpt>
      <trkpt lat="62.6923875224" lon="17.786587685003">
        <ele>54.2</ele>
        <time>2017-10-18T18:37:39Z</time>
      </trkpt>
      <trkpt lat="62.69243446104" lon="17.786538650888">
        <ele>54.2</ele>
        <time>2017-10-18T18:37:40Z</time>
      </trkpt>
      <trkpt lat="62.692486261182" lon="17.786485593461">
        <ele>54.2</ele>
        <time>2017-10-18T18:37:41Z</time>
      </trkpt>
      <trkpt lat="62.692535630573" lon="17.786436643165">
        <ele>54.4</ele>
        <time>2017-10-18T18:37:42Z</time>
      </trkpt>
      <trkpt lat="62.69258114429" lon="17.786391967638">
        <ele>54.6</ele>
        <time>2017-10-18T18:37:43Z</time>
      </trkpt>
      <trkpt lat="62.692630262224" lon="17.786342514428">
        <ele>54.6</ele>
        <time>2017-10-18T18:37:44Z</time>
      </trkpt>
      <trkpt lat="62.692676781769" lon="17.786294402322">
        <ele>54.8</ele>
        <time>2017-10-18T18:37:45Z</time>
      </trkpt>
      <trkpt lat="62.69271944564" lon="17.786254253021">
        <ele>55</ele>
        <time>2017-10-18T18:37:46Z</time>
      </trkpt>
      <trkpt lat="62.692769234126" lon="17.786207062924">
        <ele>55</ele>
        <time>2017-10-18T18:37:47Z</time>
      </trkpt>
      <trkpt lat="62.692813071463" lon="17.786162219759">
        <ele>55.2</ele>
        <time>2017-10-18T18:37:48Z</time>
      </trkpt>
      <trkpt lat="62.692862189397" lon="17.786112263635">
        <ele>55.4</ele>
        <time>2017-10-18T18:37:49Z</time>
      </trkpt>
      <trkpt lat="62.692909044218" lon="17.786066163185">
        <ele>55.6</ele>
        <time>2017-10-18T18:37:50Z</time>
      </trkpt>
      <trkpt lat="62.692955982858" lon="17.786020062735">
        <ele>55.8</ele>
        <time>2017-10-18T18:37:51Z</time>
      </trkpt>
      <trkpt lat="62.693000406928" lon="17.785974716656">
        <ele>56</ele>
        <time>2017-10-18T18:37:52Z</time>
      </trkpt>
      <trkpt lat="62.69304466336" lon="17.785926856007">
        <ele>56.2</ele>
        <time>2017-10-18T18:37:53Z</time>
      </trkpt>
      <trkpt lat="62.693096882597" lon="17.785867847431">
        <ele>56.2</ele>
        <time>2017-10-18T18:37:54Z</time>
      </trkpt>
      <trkpt lat="62.693143653599" lon="17.785818142764">
        <ele>56.4</ele>
        <time>2017-10-18T18:37:55Z</time>
      </trkpt>
      <trkpt lat="62.69319134661" lon="17.785770785029">
        <ele>56.4</ele>
        <time>2017-10-18T18:37:56Z</time>
      </trkpt>
      <trkpt lat="62.69323912344" lon="17.785722589104">
        <ele>56.4</ele>
        <time>2017-10-18T18:37:57Z</time>
      </trkpt>
      <trkpt lat="62.693281200578" lon="17.785679003224">
        <ele>56.4</ele>
        <time>2017-10-18T18:37:58Z</time>
      </trkpt>
      <trkpt lat="62.693334844738" lon="17.785624520874">
        <ele>56.4</ele>
        <time>2017-10-18T18:37:59Z</time>
      </trkpt>
      <trkpt lat="62.693382370111" lon="17.785574900026">
        <ele>56.4</ele>
        <time>2017-10-18T18:38:00Z</time>
      </trkpt>
      <trkpt lat="62.693429811665" lon="17.785526285006">
        <ele>56.6</ele>
        <time>2017-10-18T18:38:01Z</time>
      </trkpt>
      <trkpt lat="62.693477839952" lon="17.78547565833">
        <ele>56.6</ele>
        <time>2017-10-18T18:38:02Z</time>
      </trkpt>
      <trkpt lat="62.693522599298" lon="17.785425869844">
        <ele>56.6</ele>
        <time>2017-10-18T18:38:03Z</time>
      </trkpt>
      <trkpt lat="62.693570795223" lon="17.785372728598">
        <ele>56.8</ele>
        <time>2017-10-18T18:38:04Z</time>
      </trkpt>
      <trkpt lat="62.693622930641" lon="17.78531640223">
        <ele>56.8</ele>
        <time>2017-10-18T18:38:05Z</time>
      </trkpt>
      <trkpt lat="62.693671126566" lon="17.785265356459">
        <ele>57</ele>
        <time>2017-10-18T18:38:06Z</time>
      </trkpt>
      <trkpt lat="62.693718819577" lon="17.785214813602">
        <ele>57</ele>
        <time>2017-10-18T18:38:07Z</time>
      </trkpt>
      <trkpt lat="62.693760058525" lon="17.785170976265">
        <ele>57.2</ele>
        <time>2017-10-18T18:38:08Z</time>
      </trkpt>
      <trkpt lat="62.693812529219" lon="17.785114733716">
        <ele>57.4</ele>
        <time>2017-10-18T18:38:09Z</time>
      </trkpt>
      <trkpt lat="62.693856953289" lon="17.785068214171">
        <ele>57.6</ele>
        <time>2017-10-18T18:38:10Z</time>
      </trkpt>
      <trkpt lat="62.693907831422" lon="17.785015743477">
        <ele>57.8</ele>
        <time>2017-10-18T18:38:11Z</time>
      </trkpt>
      <trkpt lat="62.693953596596" lon="17.784967882828">
        <ele>58.2</ele>
        <time>2017-10-18T18:38:12Z</time>
      </trkpt>
      <trkpt lat="62.693996344286" lon="17.784920441274">
        <ele>58.2</ele>
        <time>2017-10-18T18:38:13Z</time>
      </trkpt>
      <trkpt lat="62.694044707849" lon="17.784870736607">
        <ele>58.6</ele>
        <time>2017-10-18T18:38:14Z</time>
      </trkpt>
      <trkpt lat="62.694089718652" lon="17.7848243847">
        <ele>58.6</ele>
        <time>2017-10-18T18:38:15Z</time>
      </trkpt>
      <trkpt lat="62.694131544333" lon="17.784777697517">
        <ele>58.8</ele>
        <time>2017-10-18T18:38:16Z</time>
      </trkpt>
      <trkpt lat="62.694179321163" lon="17.784727406117">
        <ele>59.2</ele>
        <time>2017-10-18T18:38:17Z</time>
      </trkpt>
      <trkpt lat="62.694221733577" lon="17.784683149685">
        <ele>59.4</ele>
        <time>2017-10-18T18:38:18Z</time>
      </trkpt>
      <trkpt lat="62.694269594226" lon="17.784630846629">
        <ele>59.6</ele>
        <time>2017-10-18T18:38:19Z</time>
      </trkpt>
      <trkpt lat="62.69431703578" lon="17.784584829998">
        <ele>59.8</ele>
        <time>2017-10-18T18:38:20Z</time>
      </trkpt>
      <trkpt lat="62.694363806782" lon="17.78453772372">
        <ele>60</ele>
        <time>2017-10-18T18:38:21Z</time>
      </trkpt>
      <trkpt lat="62.694406973567" lon="17.784495311306">
        <ele>60</ele>
        <time>2017-10-18T18:38:22Z</time>
      </trkpt>
      <trkpt lat="62.694456259139" lon="17.784449210856">
        <ele>60.2</ele>
        <time>2017-10-18T18:38:23Z</time>
      </trkpt>
      <trkpt lat="62.694510741489" lon="17.784395566696">
        <ele>60.2</ele>
        <time>2017-10-18T18:38:24Z</time>
      </trkpt>
      <trkpt lat="62.694558099224" lon="17.784343179821">
        <ele>60.2</ele>
        <time>2017-10-18T18:38:25Z</time>
      </trkpt>
      <trkpt lat="62.69460788771" lon="17.784283081598">
        <ele>60.2</ele>
        <time>2017-10-18T18:38:26Z</time>
      </trkpt>
      <trkpt lat="62.694654658712" lon="17.784229437438">
        <ele>60.2</ele>
        <time>2017-10-18T18:38:27Z</time>
      </trkpt>
      <trkpt lat="62.694699585696" lon="17.784181073875">
        <ele>60</ele>
        <time>2017-10-18T18:38:28Z</time>
      </trkpt>
      <trkpt lat="62.694754906236" lon="17.784128854638">
        <ele>60</ele>
        <time>2017-10-18T18:38:29Z</time>
      </trkpt>
      <trkpt lat="62.694803605075" lon="17.784084430568">
        <ele>60</ele>
        <time>2017-10-18T18:38:30Z</time>
      </trkpt>
      <trkpt lat="62.694853058285" lon="17.784047047294">
        <ele>59.6</ele>
        <time>2017-10-18T18:38:31Z</time>
      </trkpt>
      <trkpt lat="62.694903349685" lon="17.784003712871">
        <ele>59.6</ele>
        <time>2017-10-18T18:38:32Z</time>
      </trkpt>
      <trkpt lat="62.694949953049" lon="17.783956690412">
        <ele>59.6</ele>
        <time>2017-10-18T18:38:33Z</time>
      </trkpt>
      <trkpt lat="62.69499932244" lon="17.78390572846">
        <ele>59.4</ele>
        <time>2017-10-18T18:38:34Z</time>
      </trkpt>
      <trkpt lat="62.695051876953" lon="17.783850240282">
        <ele>59.4</ele>
        <time>2017-10-18T18:38:35Z</time>
      </trkpt>
      <trkpt lat="62.695099402326" lon="17.783798523959">
        <ele>59.4</ele>
        <time>2017-10-18T18:38:36Z</time>
      </trkpt>
      <trkpt lat="62.695145921871" lon="17.783747813464">
        <ele>59.2</ele>
        <time>2017-10-18T18:38:37Z</time>
      </trkpt>
      <trkpt lat="62.695186154991" lon="17.783702467385">
        <ele>59.2</ele>
        <time>2017-10-18T18:38:38Z</time>
      </trkpt>
      <trkpt lat="62.695236027296" lon="17.783649409958">
        <ele>59.2</ele>
        <time>2017-10-18T18:38:39Z</time>
      </trkpt>
      <trkpt lat="62.695275170769" lon="17.783609260657">
        <ele>59.2</ele>
        <time>2017-10-18T18:38:40Z</time>
      </trkpt>
      <trkpt lat="62.695321271219" lon="17.783561986741">
        <ele>59.4</ele>
        <time>2017-10-18T18:38:41Z</time>
      </trkpt>
      <trkpt lat="62.695363432176" lon="17.783519909603">
        <ele>59.6</ele>
        <time>2017-10-18T18:38:42Z</time>
      </trkpt>
      <trkpt lat="62.695404335848" lon="17.783483029243">
        <ele>59.6</ele>
        <time>2017-10-18T18:38:43Z</time>
      </trkpt>
      <trkpt lat="62.695448173185" lon="17.783440365372">
        <ele>59.8</ele>
        <time>2017-10-18T18:38:44Z</time>
      </trkpt>
      <trkpt lat="62.695490082685" lon="17.783395773664">
        <ele>60.2</ele>
        <time>2017-10-18T18:38:45Z</time>
      </trkpt>
      <trkpt lat="62.695528387968" lon="17.783353277431">
        <ele>60.4</ele>
        <time>2017-10-18T18:38:46Z</time>
      </trkpt>
      <trkpt lat="62.695570213649" lon="17.78330558442">
        <ele>60.4</ele>
        <time>2017-10-18T18:38:47Z</time>
      </trkpt>
      <trkpt lat="62.695605836724" lon="17.783264010196">
        <ele>60.6</ele>
        <time>2017-10-18T18:38:48Z</time>
      </trkpt>
      <trkpt lat="62.695646908034" lon="17.783222184515">
        <ele>60.8</ele>
        <time>2017-10-18T18:38:49Z</time>
      </trkpt>
      <trkpt lat="62.69568663824" lon="17.783179604463">
        <ele>61</ele>
        <time>2017-10-18T18:38:50Z</time>
      </trkpt>
      <trkpt lat="62.695728044826" lon="17.783136437678">
        <ele>61</ele>
        <time>2017-10-18T18:38:51Z</time>
      </trkpt>
      <trkpt lat="62.695766350109" lon="17.783093187074">
        <ele>61.2</ele>
        <time>2017-10-18T18:38:52Z</time>
      </trkpt>
      <trkpt lat="62.695806164134" lon="17.783045242606">
        <ele>61.4</ele>
        <time>2017-10-18T18:38:53Z</time>
      </trkpt>
      <trkpt lat="62.69585343805" lon="17.782988832419">
        <ele>61.6</ele>
        <time>2017-10-18T18:38:54Z</time>
      </trkpt>
      <trkpt lat="62.695896940111" lon="17.782942815788">
        <ele>61.8</ele>
        <time>2017-10-18T18:38:55Z</time>
      </trkpt>
      <trkpt lat="62.695940861267" lon="17.782900319555">
        <ele>61.6</ele>
        <time>2017-10-18T18:38:56Z</time>
      </trkpt>
      <trkpt lat="62.695984111871" lon="17.782853967648">
        <ele>61.8</ele>
        <time>2017-10-18T18:38:57Z</time>
      </trkpt>
      <trkpt lat="62.696022081878" lon="17.782812058148">
        <ele>61.6</ele>
        <time>2017-10-18T18:38:58Z</time>
      </trkpt>
      <trkpt lat="62.696068769061" lon="17.7827624373">
        <ele>61.6</ele>
        <time>2017-10-18T18:38:59Z</time>
      </trkpt>
      <trkpt lat="62.696111768208" lon="17.782713067909">
        <ele>61.6</ele>
        <time>2017-10-18T18:39:00Z</time>
      </trkpt>
      <trkpt lat="62.696155354088" lon="17.782663027966">
        <ele>61.6</ele>
        <time>2017-10-18T18:39:01Z</time>
      </trkpt>
      <trkpt lat="62.696197850321" lon="17.782610389634">
        <ele>61.4</ele>
        <time>2017-10-18T18:39:02Z</time>
      </trkpt>
      <trkpt lat="62.696237161432" lon="17.782563115718">
        <ele>61.4</ele>
        <time>2017-10-18T18:39:03Z</time>
      </trkpt>
      <trkpt lat="62.696278903294" lon="17.782520954761">
        <ele>61.4</ele>
        <time>2017-10-18T18:39:04Z</time>
      </trkpt>
      <trkpt lat="62.696324584649" lon="17.78247409994">
        <ele>61.4</ele>
        <time>2017-10-18T18:39:05Z</time>
      </trkpt>
      <trkpt lat="62.696366997063" lon="17.782432777173">
        <ele>61.4</ele>
        <time>2017-10-18T18:39:06Z</time>
      </trkpt>
      <trkpt lat="62.696411002038" lon="17.782387850189">
        <ele>61.6</ele>
        <time>2017-10-18T18:39:07Z</time>
      </trkpt>
      <trkpt lat="62.696449474959" lon="17.78235004782">
        <ele>61.8</ele>
        <time>2017-10-18T18:39:08Z</time>
      </trkpt>
      <trkpt lat="62.696499095807" lon="17.782301600438">
        <ele>61.8</ele>
        <time>2017-10-18T18:39:09Z</time>
      </trkpt>
      <trkpt lat="62.696538490737" lon="17.782257176368">
        <ele>62</ele>
        <time>2017-10-18T18:39:10Z</time>
      </trkpt>
      <trkpt lat="62.696583920635" lon="17.782203783665">
        <ele>62.2</ele>
        <time>2017-10-18T18:39:11Z</time>
      </trkpt>
      <trkpt lat="62.696624991945" lon="17.782156928844">
        <ele>62.2</ele>
        <time>2017-10-18T18:39:12Z</time>
      </trkpt>
      <trkpt lat="62.696664722151" lon="17.782112923869">
        <ele>62.4</ele>
        <time>2017-10-18T18:39:13Z</time>
      </trkpt>
      <trkpt lat="62.696710571144" lon="17.782065398496">
        <ele>62.6</ele>
        <time>2017-10-18T18:39:14Z</time>
      </trkpt>
      <trkpt lat="62.69675700687" lon="17.782020303874">
        <ele>62.8</ele>
        <time>2017-10-18T18:39:15Z</time>
      </trkpt>
      <trkpt lat="62.696803274958" lon="17.781976634175">
        <ele>62.8</ele>
        <time>2017-10-18T18:39:16Z</time>
      </trkpt>
      <trkpt lat="62.696857254394" lon="17.781924834033">
        <ele>62.8</ele>
        <time>2017-10-18T18:39:17Z</time>
      </trkpt>
      <trkpt lat="62.696907378156" lon="17.781873201529">
        <ele>62.8</ele>
        <time>2017-10-18T18:39:18Z</time>
      </trkpt>
      <trkpt lat="62.69696152523" lon="17.781815366419">
        <ele>62.8</ele>
        <time>2017-10-18T18:39:19Z</time>
      </trkpt>
      <trkpt lat="62.697013409191" lon="17.781757615128">
        <ele>62.6</ele>
        <time>2017-10-18T18:39:20Z</time>
      </trkpt>
      <trkpt lat="62.69706546079" lon="17.781702210769">
        <ele>62.4</ele>
        <time>2017-10-18T18:39:21Z</time>
      </trkpt>
      <trkpt lat="62.697114662543" lon="17.781651667912">
        <ele>62.2</ele>
        <time>2017-10-18T18:39:22Z</time>
      </trkpt>
      <trkpt lat="62.697163277563" lon="17.781601041236">
        <ele>62.2</ele>
        <time>2017-10-18T18:39:23Z</time>
      </trkpt>
      <trkpt lat="62.697220609759" lon="17.781539937185">
        <ele>62</ele>
        <time>2017-10-18T18:39:24Z</time>
      </trkpt>
      <trkpt lat="62.697271236435" lon="17.781487717948">
        <ele>62</ele>
        <time>2017-10-18T18:39:25Z</time>
      </trkpt>
      <trkpt lat="62.697323790948" lon="17.781431559218">
        <ele>61.8</ele>
        <time>2017-10-18T18:39:26Z</time>
      </trkpt>
      <trkpt lat="62.697375088176" lon="17.781374143203">
        <ele>61.6</ele>
        <time>2017-10-18T18:39:27Z</time>
      </trkpt>
      <trkpt lat="62.697419679884" lon="17.781325444364">
        <ele>61.6</ele>
        <time>2017-10-18T18:39:28Z</time>
      </trkpt>
      <trkpt lat="62.697476006252" lon="17.78126291539">
        <ele>61.4</ele>
        <time>2017-10-18T18:39:29Z</time>
      </trkpt>
      <trkpt lat="62.697525208005" lon="17.781210444696">
        <ele>61.4</ele>
        <time>2017-10-18T18:39:30Z</time>
      </trkpt>
      <trkpt lat="62.697573068654" lon="17.781151017025">
        <ele>61.2</ele>
        <time>2017-10-18T18:39:31Z</time>
      </trkpt>
      <trkpt lat="62.697619588199" lon="17.781086308757">
        <ele>61.2</ele>
        <time>2017-10-18T18:39:32Z</time>
      </trkpt>
      <trkpt lat="62.697663257898" lon="17.781028557466">
        <ele>61</ele>
        <time>2017-10-18T18:39:33Z</time>
      </trkpt>
      <trkpt lat="62.697709861262" lon="17.780966950501">
        <ele>61</ele>
        <time>2017-10-18T18:39:34Z</time>
      </trkpt>
      <trkpt lat="62.697758057187" lon="17.780901487862">
        <ele>60.8</ele>
        <time>2017-10-18T18:39:35Z</time>
      </trkpt>
      <trkpt lat="62.697802313619" lon="17.780839713259">
        <ele>60.8</ele>
        <time>2017-10-18T18:39:36Z</time>
      </trkpt>
      <trkpt lat="62.697843720205" lon="17.780774921172">
        <ele>60.8</ele>
        <time>2017-10-18T18:39:37Z</time>
      </trkpt>
      <trkpt lat="62.697879930013" lon="17.780715661139">
        <ele>60.8</ele>
        <time>2017-10-18T18:39:38Z</time>
      </trkpt>
      <trkpt lat="62.697924186445" lon="17.780641900419">
        <ele>60.8</ele>
        <time>2017-10-18T18:39:39Z</time>
      </trkpt>
      <trkpt lat="62.697959893339" lon="17.780577359789">
        <ele>61</ele>
        <time>2017-10-18T18:39:40Z</time>
      </trkpt>
      <trkpt lat="62.698000545554" lon="17.780504521078">
        <ele>61</ele>
        <time>2017-10-18T18:39:41Z</time>
      </trkpt>
      <trkpt lat="62.698037593552" lon="17.780436292412">
        <ele>61.2</ele>
        <time>2017-10-18T18:39:42Z</time>
      </trkpt>
      <trkpt lat="62.698071121152" lon="17.780367560832">
        <ele>61.4</ele>
        <time>2017-10-18T18:39:43Z</time>
      </trkpt>
      <trkpt lat="62.698107247141" lon="17.7802897768">
        <ele>61.6</ele>
        <time>2017-10-18T18:39:44Z</time>
      </trkpt>
      <trkpt lat="62.698139517456" lon="17.780217776279">
        <ele>61.8</ele>
        <time>2017-10-18T18:39:45Z</time>
      </trkpt>
      <trkpt lat="62.698168267373" lon="17.780148038871">
        <ele>62</ele>
        <time>2017-10-18T18:39:46Z</time>
      </trkpt>
      <trkpt lat="62.69819953186" lon="17.780069249011">
        <ele>62.2</ele>
        <time>2017-10-18T18:39:47Z</time>
      </trkpt>
      <trkpt lat="62.698226018664" lon="17.780000517431">
        <ele>62.4</ele>
        <time>2017-10-18T18:39:48Z</time>
      </trkpt>
      <trkpt lat="62.698254265667" lon="17.779922230485">
        <ele>62.6</ele>
        <time>2017-10-18T18:39:49Z</time>
      </trkpt>
      <trkpt lat="62.698280668652" lon="17.779847883032">
        <ele>62.8</ele>
        <time>2017-10-18T18:39:50Z</time>
      </trkpt>
      <trkpt lat="62.698306484904" lon="17.779775631054">
        <ele>63</ele>
        <time>2017-10-18T18:39:51Z</time>
      </trkpt>
      <trkpt lat="62.698329283672" lon="17.779708659673">
        <ele>63.4</ele>
        <time>2017-10-18T18:39:52Z</time>
      </trkpt>
      <trkpt lat="62.698351914802" lon="17.779643867586">
        <ele>63.6</ele>
        <time>2017-10-18T18:39:53Z</time>
      </trkpt>
      <trkpt lat="62.698376809045" lon="17.779572369979">
        <ele>63.8</ele>
        <time>2017-10-18T18:39:54Z</time>
      </trkpt>
      <trkpt lat="62.69839818289" lon="17.779507242616">
        <ele>64.2</ele>
        <time>2017-10-18T18:39:55Z</time>
      </trkpt>
      <trkpt lat="62.698418718545" lon="17.779444126909">
        <ele>64.6</ele>
        <time>2017-10-18T18:39:56Z</time>
      </trkpt>
      <trkpt lat="62.698438248372" lon="17.779381933211">
        <ele>65</ele>
        <time>2017-10-18T18:39:57Z</time>
      </trkpt>
      <trkpt lat="62.698454006344" lon="17.779329462517">
        <ele>65.4</ele>
        <time>2017-10-18T18:39:58Z</time>
      </trkpt>
      <trkpt lat="62.698474625818" lon="17.779267185">
        <ele>65.6</ele>
        <time>2017-10-18T18:39:59Z</time>
      </trkpt>
      <trkpt lat="62.698494742378" lon="17.77921605541">
        <ele>65.8</ele>
        <time>2017-10-18T18:40:00Z</time>
      </trkpt>
      <trkpt lat="62.698517708784" lon="17.779170038779">
        <ele>66.2</ele>
        <time>2017-10-18T18:40:01Z</time>
      </trkpt>
      <trkpt lat="62.698542686846" lon="17.779129386564">
        <ele>66.4</ele>
        <time>2017-10-18T18:40:02Z</time>
      </trkpt>
      <trkpt lat="62.698565485614" lon="17.779092170928">
        <ele>66.6</ele>
        <time>2017-10-18T18:40:03Z</time>
      </trkpt>
      <trkpt lat="62.698584009613" lon="17.779051015799">
        <ele>66.6</ele>
        <time>2017-10-18T18:40:04Z</time>
      </trkpt>
      <trkpt lat="62.698592475332" lon="17.779002652236">
        <ele>66.6</ele>
        <time>2017-10-18T18:40:05Z</time>
      </trkpt>
      <trkpt lat="62.69858845202" lon="17.778958479623">
        <ele>66.6</ele>
        <time>2017-10-18T18:40:06Z</time>
      </trkpt>
      <trkpt lat="62.698575627713" lon="17.778927885688">
        <ele>66.6</ele>
        <time>2017-10-18T18:40:07Z</time>
      </trkpt>
      <trkpt lat="62.698563557777" lon="17.778923443281">
        <ele>66.6</ele>
        <time>2017-10-18T18:40:08Z</time>
      </trkpt>
      <trkpt lat="62.698554589144" lon="17.778947331696">
        <ele>66.8</ele>
        <time>2017-10-18T18:40:09Z</time>
      </trkpt>
      <trkpt lat="62.69855743899" lon="17.778979350554">
        <ele>66.8</ele>
        <time>2017-10-18T18:40:10Z</time>
      </trkpt>
      <trkpt lat="62.698571101487" lon="17.779008603385">
        <ele>67</ele>
        <time>2017-10-18T18:40:11Z</time>
      </trkpt>
      <trkpt lat="62.698587027097" lon="17.779022182063">
        <ele>66.8</ele>
        <time>2017-10-18T18:40:12Z</time>
      </trkpt>
      <trkpt lat="62.6986068922" lon="17.779032156524">
        <ele>66.8</ele>
        <time>2017-10-18T18:40:13Z</time>
      </trkpt>
      <trkpt lat="62.698632373176" lon="17.779043891184">
        <ele>66.8</ele>
        <time>2017-10-18T18:40:14Z</time>
      </trkpt>
      <trkpt lat="62.698661290731" lon="17.779054452378">
        <ele>66.8</ele>
        <time>2017-10-18T18:40:15Z</time>
      </trkpt>
      <trkpt lat="62.698691465571" lon="17.779061744631">
        <ele>66.8</ele>
        <time>2017-10-18T18:40:16Z</time>
      </trkpt>
      <trkpt lat="62.698725412266" lon="17.77907523949">
        <ele>66.8</ele>
        <time>2017-10-18T18:40:17Z</time>
      </trkpt>
      <trkpt lat="62.698753072536" lon="17.779091751833">
        <ele>67</ele>
        <time>2017-10-18T18:40:18Z</time>
      </trkpt>
      <trkpt lat="62.698782828281" lon="17.779105246692">
        <ele>67</ele>
        <time>2017-10-18T18:40:19Z</time>
      </trkpt>
      <trkpt lat="62.698808728352" lon="17.779112455126">
        <ele>67</ele>
        <time>2017-10-18T18:40:20Z</time>
      </trkpt>
      <trkpt lat="62.698833538776" lon="17.779123267777">
        <ele>67</ele>
        <time>2017-10-18T18:40:21Z</time>
      </trkpt>
      <trkpt lat="62.698855164078" lon="17.779132487867">
        <ele>67</ele>
        <time>2017-10-18T18:40:22Z</time>
      </trkpt>
      <trkpt lat="62.698877376113" lon="17.779140283034">
        <ele>67</ele>
        <time>2017-10-18T18:40:23Z</time>
      </trkpt>
      <trkpt lat="62.698902437994" lon="17.779148748753">
        <ele>67</ele>
        <time>2017-10-18T18:40:24Z</time>
      </trkpt>
      <trkpt lat="62.698926074952" lon="17.779155538092">
        <ele>67</ele>
        <time>2017-10-18T18:40:25Z</time>
      </trkpt>
      <trkpt lat="62.698952058842" lon="17.779165344915">
        <ele>67.2</ele>
        <time>2017-10-18T18:40:26Z</time>
      </trkpt>
      <trkpt lat="62.698977539818" lon="17.779177331032">
        <ele>67.4</ele>
        <time>2017-10-18T18:40:27Z</time>
      </trkpt>
      <trkpt lat="62.69900000331" lon="17.77918755695">
        <ele>67.4</ele>
        <time>2017-10-18T18:40:28Z</time>
      </trkpt>
      <trkpt lat="62.699029004684" lon="17.779198034325">
        <ele>67.4</ele>
        <time>2017-10-18T18:40:29Z</time>
      </trkpt>
      <trkpt lat="62.69905532385" lon="17.779204236931">
        <ele>67.6</ele>
        <time>2017-10-18T18:40:30Z</time>
      </trkpt>
      <trkpt lat="62.699080888645" lon="17.779214798125">
        <ele>67.6</ele>
        <time>2017-10-18T18:40:31Z</time>
      </trkpt>
      <trkpt lat="62.699105196155" lon="17.77922695188">
        <ele>67.6</ele>
        <time>2017-10-18T18:40:32Z</time>
      </trkpt>
      <trkpt lat="62.699127743466" lon="17.779236004332">
        <ele>67.8</ele>
        <time>2017-10-18T18:40:33Z</time>
      </trkpt>
      <trkpt lat="62.699152218614" lon="17.77924623025">
        <ele>67.8</ele>
        <time>2017-10-18T18:40:34Z</time>
      </trkpt>
      <trkpt lat="62.699178286323" lon="17.779256539987">
        <ele>67.8</ele>
        <time>2017-10-18T18:40:35Z</time>
      </trkpt>
      <trkpt lat="62.699202677652" lon="17.779265424801">
        <ele>68</ele>
        <time>2017-10-18T18:40:36Z</time>
      </trkpt>
      <trkpt lat="62.699222039841" lon="17.779272968511">
        <ele>68</ele>
        <time>2017-10-18T18:40:37Z</time>
      </trkpt>
      <trkpt lat="62.699248442826" lon="17.779282607696">
        <ele>68.2</ele>
        <time>2017-10-18T18:40:38Z</time>
      </trkpt>
      <trkpt lat="62.699276019277" lon="17.779291408691">
        <ele>68.2</ele>
        <time>2017-10-18T18:40:39Z</time>
      </trkpt>
      <trkpt lat="62.699300410606" lon="17.779298114211">
        <ele>68.4</ele>
        <time>2017-10-18T18:40:40Z</time>
      </trkpt>
      <trkpt lat="62.699327651781" lon="17.779306999025">
        <ele>68.4</ele>
        <time>2017-10-18T18:40:41Z</time>
      </trkpt>
      <trkpt lat="62.699354222404" lon="17.779312111984">
        <ele>68.4</ele>
        <time>2017-10-18T18:40:42Z</time>
      </trkpt>
      <trkpt lat="62.699379368104" lon="17.779319823332">
        <ele>68.6</ele>
        <time>2017-10-18T18:40:43Z</time>
      </trkpt>
      <trkpt lat="62.699406776917" lon="17.779331557992">
        <ele>68.8</ele>
        <time>2017-10-18T18:40:44Z</time>
      </trkpt>
      <trkpt lat="62.699433179902" lon="17.779339353159">
        <ele>69</ele>
        <time>2017-10-18T18:40:45Z</time>
      </trkpt>
      <trkpt lat="62.699458660878" lon="17.779347148326">
        <ele>69.2</ele>
        <time>2017-10-18T18:40:46Z</time>
      </trkpt>
      <trkpt lat="62.699488835718" lon="17.779354272941">
        <ele>69.4</ele>
        <time>2017-10-18T18:40:47Z</time>
      </trkpt>
      <trkpt lat="62.699514819608" lon="17.77936441504">
        <ele>69.4</ele>
        <time>2017-10-18T18:40:48Z</time>
      </trkpt>
      <trkpt lat="62.699545581181" lon="17.779375395329">
        <ele>69.6</ele>
        <time>2017-10-18T18:40:49Z</time>
      </trkpt>
      <trkpt lat="62.699574917831" lon="17.779390566568">
        <ele>69.6</ele>
        <time>2017-10-18T18:40:50Z</time>
      </trkpt>
      <trkpt lat="62.699603919205" lon="17.779400038115">
        <ele>69.6</ele>
        <time>2017-10-18T18:40:51Z</time>
      </trkpt>
      <trkpt lat="62.699632585303" lon="17.779408671472">
        <ele>69.6</ele>
        <time>2017-10-18T18:40:52Z</time>
      </trkpt>
      <trkpt lat="62.699661754315" lon="17.7794180592">
        <ele>69.6</ele>
        <time>2017-10-18T18:40:53Z</time>
      </trkpt>
      <trkpt lat="62.699696120105" lon="17.779429290946">
        <ele>70</ele>
        <time>2017-10-18T18:40:54Z</time>
      </trkpt>
      <trkpt lat="62.699726546402" lon="17.779441277063">
        <ele>70</ele>
        <time>2017-10-18T18:40:55Z</time>
      </trkpt>
      <trkpt lat="62.699757224156" lon="17.779449156049">
        <ele>70.2</ele>
        <time>2017-10-18T18:40:56Z</time>
      </trkpt>
      <trkpt lat="62.699788237186" lon="17.779461309804">
        <ele>70.4</ele>
        <time>2017-10-18T18:40:57Z</time>
      </trkpt>
      <trkpt lat="62.699815729818" lon="17.779473631197">
        <ele>70.4</ele>
        <time>2017-10-18T18:40:58Z</time>
      </trkpt>
      <trkpt lat="62.69985244254" lon="17.779485449676">
        <ele>70.6</ele>
        <time>2017-10-18T18:40:59Z</time>
      </trkpt>
      <trkpt lat="62.699885551045" lon="17.779491652282">
        <ele>70.6</ele>
        <time>2017-10-18T18:41:00Z</time>
      </trkpt>
      <trkpt lat="62.69991949774" lon="17.779498357802">
        <ele>70.8</ele>
        <time>2017-10-18T18:41:01Z</time>
      </trkpt>
      <trkpt lat="62.69995302534" lon="17.779511182109">
        <ele>70.8</ele>
        <time>2017-10-18T18:41:02Z</time>
      </trkpt>
      <trkpt lat="62.69998320018" lon="17.779526018072">
        <ele>71</ele>
        <time>2017-10-18T18:41:03Z</time>
      </trkpt>
      <trkpt lat="62.700014548486" lon="17.779541021673">
        <ele>71</ele>
        <time>2017-10-18T18:41:04Z</time>
      </trkpt>
      <trkpt lat="62.700046734982" lon="17.779553678342">
        <ele>71.2</ele>
        <time>2017-10-18T18:41:05Z</time>
      </trkpt>
      <trkpt lat="62.700076490727" lon="17.779564071898">
        <ele>71.2</ele>
        <time>2017-10-18T18:41:06Z</time>
      </trkpt>
      <trkpt lat="62.700106162653" lon="17.779574968368">
        <ele>71</ele>
        <time>2017-10-18T18:41:07Z</time>
      </trkpt>
      <trkpt lat="62.700133571466" lon="17.77958318263">
        <ele>71</ele>
        <time>2017-10-18T18:41:08Z</time>
      </trkpt>
      <trkpt lat="62.700170619464" lon="17.779592821815">
        <ele>71.2</ele>
        <time>2017-10-18T18:41:09Z</time>
      </trkpt>
      <trkpt lat="62.70020364415" lon="17.779603802104">
        <ele>71</ele>
        <time>2017-10-18T18:41:10Z</time>
      </trkpt>
      <trkpt lat="62.700241865614" lon="17.779618554248">
        <ele>71</ele>
        <time>2017-10-18T18:41:11Z</time>
      </trkpt>
      <trkpt lat="62.700279416526" lon="17.779629785994">
        <ele>71</ele>
        <time>2017-10-18T18:41:12Z</time>
      </trkpt>
      <trkpt lat="62.700314871963" lon="17.779640850102">
        <ele>71</ele>
        <time>2017-10-18T18:41:13Z</time>
      </trkpt>
      <trkpt lat="62.70035284197" lon="17.77966029611">
        <ele>71</ele>
        <time>2017-10-18T18:41:14Z</time>
      </trkpt>
      <trkpt lat="62.700389638511" lon="17.779678401014">
        <ele>70.8</ele>
        <time>2017-10-18T18:41:15Z</time>
      </trkpt>
      <trkpt lat="62.700425261586" lon="17.77969047095">
        <ele>70.8</ele>
        <time>2017-10-18T18:41:16Z</time>
      </trkpt>
      <trkpt lat="62.700463985964" lon="17.779704133447">
        <ele>70.8</ele>
        <time>2017-10-18T18:41:17Z</time>
      </trkpt>
      <trkpt lat="62.700497597383" lon="17.779714527003">
        <ele>70.8</ele>
        <time>2017-10-18T18:41:18Z</time>
      </trkpt>
      <trkpt lat="62.700534813019" lon="17.77972735131">
        <ele>70.8</ele>
        <time>2017-10-18T18:41:19Z</time>
      </trkpt>
      <trkpt lat="62.700570352275" lon="17.779740175617">
        <ele>70.8</ele>
        <time>2017-10-18T18:41:20Z</time>
      </trkpt>
      <trkpt lat="62.700605556255" lon="17.779754341028">
        <ele>70.8</ele>
        <time>2017-10-18T18:41:21Z</time>
      </trkpt>
      <trkpt lat="62.700638078027" lon="17.779766494783">
        <ele>71.2</ele>
        <time>2017-10-18T18:41:22Z</time>
      </trkpt>
      <trkpt lat="62.700671437989" lon="17.779778061805">
        <ele>71.4</ele>
        <time>2017-10-18T18:41:23Z</time>
      </trkpt>
      <trkpt lat="62.700710832919" lon="17.779790047922">
        <ele>71.6</ele>
        <time>2017-10-18T18:41:24Z</time>
      </trkpt>
      <trkpt lat="62.700745785442" lon="17.779798765098">
        <ele>71.8</ele>
        <time>2017-10-18T18:41:25Z</time>
      </trkpt>
      <trkpt lat="62.70078031887" lon="17.779811673224">
        <ele>71.8</ele>
        <time>2017-10-18T18:41:26Z</time>
      </trkpt>
      <trkpt lat="62.700815103755" lon="17.779826425368">
        <ele>72</ele>
        <time>2017-10-18T18:41:27Z</time>
      </trkpt>
      <trkpt lat="62.700844943319" lon="17.779838243847">
        <ele>72.2</ele>
        <time>2017-10-18T18:41:28Z</time>
      </trkpt>
      <trkpt lat="62.70088425443" lon="17.779851319611">
        <ele>72.4</ele>
        <time>2017-10-18T18:41:29Z</time>
      </trkpt>
      <trkpt lat="62.700920128962" lon="17.779860120606">
        <ele>72.4</ele>
        <time>2017-10-18T18:41:30Z</time>
      </trkpt>
      <trkpt lat="62.70095550058" lon="17.77986984361">
        <ele>72.4</ele>
        <time>2017-10-18T18:41:31Z</time>
      </trkpt>
      <trkpt lat="62.700991794207" lon="17.779881662089">
        <ele>72.6</ele>
        <time>2017-10-18T18:41:32Z</time>
      </trkpt>
      <trkpt lat="62.701025405626" lon="17.779891888007">
        <ele>72.8</ele>
        <time>2017-10-18T18:41:33Z</time>
      </trkpt>
      <trkpt lat="62.701061196339" lon="17.779900772821">
        <ele>72.8</ele>
        <time>2017-10-18T18:41:34Z</time>
      </trkpt>
      <trkpt lat="62.701099166346" lon="17.779915441146">
        <ele>73</ele>
        <time>2017-10-18T18:41:35Z</time>
      </trkpt>
      <trkpt lat="62.701133532136" lon="17.77992851691">
        <ele>73.2</ele>
        <time>2017-10-18T18:41:36Z</time>
      </trkpt>
      <trkpt lat="62.70116840084" lon="17.779939664837">
        <ele>73.4</ele>
        <time>2017-10-18T18:41:37Z</time>
      </trkpt>
      <trkpt lat="62.701197569852" lon="17.779949723117">
        <ele>73.4</ele>
        <time>2017-10-18T18:41:38Z</time>
      </trkpt>
      <trkpt lat="62.701235204583" lon="17.779964391442">
        <ele>73.6</ele>
        <time>2017-10-18T18:41:39Z</time>
      </trkpt>
      <trkpt lat="62.701265966156" lon="17.779975623188">
        <ele>73.8</ele>
        <time>2017-10-18T18:41:40Z</time>
      </trkpt>
      <trkpt lat="62.701301002498" lon="17.779987022572">
        <ele>74</ele>
        <time>2017-10-18T18:41:41Z</time>
      </trkpt>
      <trkpt lat="62.701333691908" lon="17.779992051712">
        <ele>74</ele>
        <time>2017-10-18T18:41:42Z</time>
      </trkpt>
      <trkpt lat="62.701365291671" lon="17.77999808668">
        <ele>74.2</ele>
        <time>2017-10-18T18:41:43Z</time>
      </trkpt>
      <trkpt lat="62.701401501479" lon="17.780010994806">
        <ele>74.4</ele>
        <time>2017-10-18T18:41:44Z</time>
      </trkpt>
      <trkpt lat="62.701435448174" lon="17.780023567656">
        <ele>74.6</ele>
        <time>2017-10-18T18:41:45Z</time>
      </trkpt>
      <trkpt lat="62.701466461204" lon="17.780037062515">
        <ele>74.8</ele>
        <time>2017-10-18T18:41:46Z</time>
      </trkpt>
      <trkpt lat="62.701502168098" lon="17.780051060288">
        <ele>75</ele>
        <time>2017-10-18T18:41:47Z</time>
      </trkpt>
      <trkpt lat="62.701533935499" lon="17.780064219871">
        <ele>75.2</ele>
        <time>2017-10-18T18:41:48Z</time>
      </trkpt>
      <trkpt lat="62.701569558574" lon="17.780076792721">
        <ele>75.4</ele>
        <time>2017-10-18T18:41:49Z</time>
      </trkpt>
      <trkpt lat="62.701603840545" lon="17.780084671707">
        <ele>75.6</ele>
        <time>2017-10-18T18:41:50Z</time>
      </trkpt>
      <trkpt lat="62.701638373973" lon="17.780093556521">
        <ele>75.8</ele>
        <time>2017-10-18T18:41:51Z</time>
      </trkpt>
      <trkpt lat="62.701670728107" lon="17.780104201534">
        <ele>75.8</ele>
        <time>2017-10-18T18:41:52Z</time>
      </trkpt>
      <trkpt lat="62.701705596811" lon="17.780114762728">
        <ele>76</ele>
        <time>2017-10-18T18:41:53Z</time>
      </trkpt>
      <trkpt lat="62.701747254854" lon="17.780128257587">
        <ele>76.2</ele>
        <time>2017-10-18T18:41:54Z</time>
      </trkpt>
      <trkpt lat="62.701784721947" lon="17.78014141717">
        <ele>76.2</ele>
        <time>2017-10-18T18:41:55Z</time>
      </trkpt>
      <trkpt lat="62.701821937583" lon="17.780153822382">
        <ele>76.4</ele>
        <time>2017-10-18T18:41:56Z</time>
      </trkpt>
      <trkpt lat="62.701857225382" lon="17.780167149603">
        <ele>76.4</ele>
        <time>2017-10-18T18:41:57Z</time>
      </trkpt>
      <trkpt lat="62.701887651679" lon="17.780179219539">
        <ele>76.4</ele>
        <time>2017-10-18T18:41:58Z</time>
      </trkpt>
      <trkpt lat="62.701926795152" lon="17.780194809873">
        <ele>76.4</ele>
        <time>2017-10-18T18:41:59Z</time>
      </trkpt>
      <trkpt lat="62.701960658028" lon="17.780209813474">
        <ele>76.4</ele>
        <time>2017-10-18T18:42:00Z</time>
      </trkpt>
      <trkpt lat="62.70199569437" lon="17.780219117383">
        <ele>76.6</ele>
        <time>2017-10-18T18:42:01Z</time>
      </trkpt>
      <trkpt lat="62.702032742368" lon="17.780229091844">
        <ele>76.6</ele>
        <time>2017-10-18T18:42:02Z</time>
      </trkpt>
      <trkpt lat="62.702065850873" lon="17.780240994142">
        <ele>76.6</ele>
        <time>2017-10-18T18:42:03Z</time>
      </trkpt>
      <trkpt lat="62.70209962993" lon="17.780256081562">
        <ele>76.8</ele>
        <time>2017-10-18T18:42:04Z</time>
      </trkpt>
      <trkpt lat="62.702134666272" lon="17.780268570593">
        <ele>76.8</ele>
        <time>2017-10-18T18:42:05Z</time>
      </trkpt>
      <trkpt lat="62.702167690958" lon="17.780282903642">
        <ele>76.8</ele>
        <time>2017-10-18T18:42:06Z</time>
      </trkpt>
      <trkpt lat="62.702202056748" lon="17.780294973578">
        <ele>77</ele>
        <time>2017-10-18T18:42:07Z</time>
      </trkpt>
      <trkpt lat="62.702232315407" lon="17.780304780401">
        <ele>77</ele>
        <time>2017-10-18T18:42:08Z</time>
      </trkpt>
      <trkpt lat="62.702271291242" lon="17.780318442898">
        <ele>77.2</ele>
        <time>2017-10-18T18:42:09Z</time>
      </trkpt>
      <trkpt lat="62.70230247191" lon="17.780328920273">
        <ele>77.4</ele>
        <time>2017-10-18T18:42:10Z</time>
      </trkpt>
      <trkpt lat="62.702337927347" lon="17.780341241666">
        <ele>77.6</ele>
        <time>2017-10-18T18:42:11Z</time>
      </trkpt>
      <trkpt lat="62.702371957861" lon="17.780355071801">
        <ele>77.6</ele>
        <time>2017-10-18T18:42:12Z</time>
      </trkpt>
      <trkpt lat="62.702404228176" lon="17.780365800633">
        <ele>77.6</ele>
        <time>2017-10-18T18:42:13Z</time>
      </trkpt>
      <trkpt lat="62.702440521803" lon="17.780378708759">
        <ele>77.8</ele>
        <time>2017-10-18T18:42:14Z</time>
      </trkpt>
      <trkpt lat="62.702474719955" lon="17.78039203598">
        <ele>77.8</ele>
        <time>2017-10-18T18:42:15Z</time>
      </trkpt>
      <trkpt lat="62.702506654994" lon="17.78040293245">
        <ele>77.8</ele>
        <time>2017-10-18T18:42:16Z</time>
      </trkpt>
      <trkpt lat="62.702541775155" lon="17.780415337662">
        <ele>78</ele>
        <time>2017-10-18T18:42:17Z</time>
      </trkpt>
      <trkpt lat="62.702572788185" lon="17.780426066494">
        <ele>78</ele>
        <time>2017-10-18T18:42:18Z</time>
      </trkpt>
      <trkpt lat="62.702607237794" lon="17.780438220249">
        <ele>78</ele>
        <time>2017-10-18T18:42:19Z</time>
      </trkpt>
      <trkpt lat="62.702639005195" lon="17.78044735652">
        <ele>78</ele>
        <time>2017-10-18T18:42:20Z</time>
      </trkpt>
      <trkpt lat="62.70267043732" lon="17.780457917714">
        <ele>78.2</ele>
        <time>2017-10-18T18:42:21Z</time>
      </trkpt>
      <trkpt lat="62.702699941608" lon="17.78046747308">
        <ele>78.2</ele>
        <time>2017-10-18T18:42:22Z</time>
      </trkpt>
      <trkpt lat="62.702730535543" lon="17.780477866636">
        <ele>78.2</ele>
        <time>2017-10-18T18:42:23Z</time>
      </trkpt>
      <trkpt lat="62.702767583541" lon="17.780490690943">
        <ele>78.2</ele>
        <time>2017-10-18T18:42:24Z</time>
      </trkpt>
      <trkpt lat="62.702802536064" lon="17.780500413947">
        <ele>78.2</ele>
        <time>2017-10-18T18:42:25Z</time>
      </trkpt>
      <trkpt lat="62.702838410596" lon="17.780511980969">
        <ele>78.4</ele>
        <time>2017-10-18T18:42:26Z</time>
      </trkpt>
      <trkpt lat="62.702875290956" lon="17.780524218543">
        <ele>78.4</ele>
        <time>2017-10-18T18:42:27Z</time>
      </trkpt>
      <trkpt lat="62.702906639262" lon="17.780533522452">
        <ele>78.4</ele>
        <time>2017-10-18T18:42:28Z</time>
      </trkpt>
      <trkpt lat="62.702946872382" lon="17.780545592388">
        <ele>78.4</ele>
        <time>2017-10-18T18:42:29Z</time>
      </trkpt>
      <trkpt lat="62.702981657267" lon="17.780556991772">
        <ele>78.4</ele>
        <time>2017-10-18T18:42:30Z</time>
      </trkpt>
      <trkpt lat="62.703015520143" lon="17.780568642613">
        <ele>78.4</ele>
        <time>2017-10-18T18:42:31Z</time>
      </trkpt>
      <trkpt lat="62.703049047743" lon="17.780580041997">
        <ele>78.4</ele>
        <time>2017-10-18T18:42:32Z</time>
      </trkpt>
      <trkpt lat="62.703081904791" lon="17.780586328422">
        <ele>78.4</ele>
        <time>2017-10-18T18:42:33Z</time>
      </trkpt>
      <trkpt lat="62.703117360228" lon="17.78058901063">
        <ele>78.4</ele>
        <time>2017-10-18T18:42:34Z</time>
      </trkpt>
      <trkpt lat="62.703156084606" lon="17.780594375046">
        <ele>78.6</ele>
        <time>2017-10-18T18:42:35Z</time>
      </trkpt>
      <trkpt lat="62.703191540043" lon="17.780603176041">
        <ele>78.8</ele>
        <time>2017-10-18T18:42:36Z</time>
      </trkpt>
      <trkpt lat="62.703227917489" lon="17.780612731407">
        <ele>78.6</ele>
        <time>2017-10-18T18:42:37Z</time>
      </trkpt>
      <trkpt lat="62.703259265795" lon="17.780621029488">
        <ele>78.6</ele>
        <time>2017-10-18T18:42:38Z</time>
      </trkpt>
      <trkpt lat="62.70329991801" lon="17.780633853795">
        <ele>78.6</ele>
        <time>2017-10-18T18:42:39Z</time>
      </trkpt>
      <trkpt lat="62.703334199981" lon="17.780645923731">
        <ele>78.6</ele>
        <time>2017-10-18T18:42:40Z</time>
      </trkpt>
      <trkpt lat="62.703373091997" lon="17.780659753866">
        <ele>78.6</ele>
        <time>2017-10-18T18:42:41Z</time>
      </trkpt>
      <trkpt lat="62.703409301805" lon="17.780672578173">
        <ele>78.6</ele>
        <time>2017-10-18T18:42:42Z</time>
      </trkpt>
      <trkpt lat="62.703444505785" lon="17.780681379168">
        <ele>78.8</ele>
        <time>2017-10-18T18:42:43Z</time>
      </trkpt>
      <trkpt lat="62.703483900715" lon="17.780692359457">
        <ele>79</ele>
        <time>2017-10-18T18:42:44Z</time>
      </trkpt>
      <trkpt lat="62.703520864894" lon="17.780704764669">
        <ele>79</ele>
        <time>2017-10-18T18:42:45Z</time>
      </trkpt>
      <trkpt lat="62.703555649779" lon="17.780716499329">
        <ele>79</ele>
        <time>2017-10-18T18:42:46Z</time>
      </trkpt>
      <trkpt lat="62.703594709433" lon="17.780728401627">
        <ele>79</ele>
        <time>2017-10-18T18:42:47Z</time>
      </trkpt>
      <trkpt lat="62.703630332508" lon="17.780739381916">
        <ele>79</ele>
        <time>2017-10-18T18:42:48Z</time>
      </trkpt>
      <trkpt lat="62.703671906732" lon="17.780752709137">
        <ele>79</ele>
        <time>2017-10-18T18:42:49Z</time>
      </trkpt>
      <trkpt lat="62.703710798748" lon="17.780764611435">
        <ele>79</ele>
        <time>2017-10-18T18:42:50Z</time>
      </trkpt>
      <trkpt lat="62.703749858402" lon="17.780776849009">
        <ele>79</ele>
        <time>2017-10-18T18:42:51Z</time>
      </trkpt>
      <trkpt lat="62.703785397658" lon="17.780788583669">
        <ele>79</ele>
        <time>2017-10-18T18:42:52Z</time>
      </trkpt>
      <trkpt lat="62.703821942742" lon="17.780801156519">
        <ele>78.8</ele>
        <time>2017-10-18T18:42:53Z</time>
      </trkpt>
      <trkpt lat="62.703864438975" lon="17.780817249767">
        <ele>78.8</ele>
        <time>2017-10-18T18:42:54Z</time>
      </trkpt>
      <trkpt lat="62.703903750086" lon="17.780831834273">
        <ele>78.6</ele>
        <time>2017-10-18T18:42:55Z</time>
      </trkpt>
      <trkpt lat="62.703942977378" lon="17.780847005512">
        <ele>78.6</ele>
        <time>2017-10-18T18:42:56Z</time>
      </trkpt>
      <trkpt lat="62.703982707584" lon="17.780860919466">
        <ele>78.6</ele>
        <time>2017-10-18T18:42:57Z</time>
      </trkpt>
      <trkpt lat="62.704018079202" lon="17.78087231885">
        <ele>78.6</ele>
        <time>2017-10-18T18:42:58Z</time>
      </trkpt>
      <trkpt lat="62.704063341462" lon="17.780886316623">
        <ele>78.4</ele>
        <time>2017-10-18T18:42:59Z</time>
      </trkpt>
      <trkpt lat="62.704103406944" lon="17.780898638016">
        <ele>78.4</ele>
        <time>2017-10-18T18:43:00Z</time>
      </trkpt>
      <trkpt lat="62.704143807702" lon="17.780914395988">
        <ele>78.4</ele>
        <time>2017-10-18T18:43:01Z</time>
      </trkpt>
      <trkpt lat="62.704184795193" lon="17.780927052657">
        <ele>78.4</ele>
        <time>2017-10-18T18:43:02Z</time>
      </trkpt>
      <trkpt lat="62.704224190123" lon="17.780937613851">
        <ele>78.4</ele>
        <time>2017-10-18T18:43:03Z</time>
      </trkpt>
      <trkpt lat="62.704266183442" lon="17.780954293832">
        <ele>78.4</ele>
        <time>2017-10-18T18:43:04Z</time>
      </trkpt>
      <trkpt lat="62.704312116254" lon="17.780971392908">
        <ele>78.4</ele>
        <time>2017-10-18T18:43:05Z</time>
      </trkpt>
      <trkpt lat="62.70435603741" lon="17.780986228871">
        <ele>78.4</ele>
        <time>2017-10-18T18:43:06Z</time>
      </trkpt>
      <trkpt lat="62.704400796756" lon="17.781000142825">
        <ele>78.4</ele>
        <time>2017-10-18T18:43:07Z</time>
      </trkpt>
      <trkpt lat="62.704441197514" lon="17.781010955476">
        <ele>78.2</ele>
        <time>2017-10-18T18:43:08Z</time>
      </trkpt>
      <trkpt lat="62.704491908009" lon="17.781026042896">
        <ele>78.2</ele>
        <time>2017-10-18T18:43:09Z</time>
      </trkpt>
      <trkpt lat="62.704533063138" lon="17.781041549411">
        <ele>78</ele>
        <time>2017-10-18T18:43:10Z</time>
      </trkpt>
      <trkpt lat="62.704579247407" lon="17.781059067582">
        <ele>78</ele>
        <time>2017-10-18T18:43:11Z</time>
      </trkpt>
      <trkpt lat="62.704622749468" lon="17.78107348445">
        <ele>78</ele>
        <time>2017-10-18T18:43:12Z</time>
      </trkpt>
      <trkpt lat="62.704663569321" lon="17.781086476395">
        <ele>77.8</ele>
        <time>2017-10-18T18:43:13Z</time>
      </trkpt>
      <trkpt lat="62.704710675599" lon="17.781101731453">
        <ele>77.8</ele>
        <time>2017-10-18T18:43:14Z</time>
      </trkpt>
      <trkpt lat="62.704755518764" lon="17.781116986511">
        <ele>77.6</ele>
        <time>2017-10-18T18:43:15Z</time>
      </trkpt>
      <trkpt lat="62.704797679721" lon="17.781129559361">
        <ele>77.6</ele>
        <time>2017-10-18T18:43:16Z</time>
      </trkpt>
      <trkpt lat="62.70484554037" lon="17.781142467487">
        <ele>77.6</ele>
        <time>2017-10-18T18:43:17Z</time>
      </trkpt>
      <trkpt lat="62.704888120422" lon="17.781157806364">
        <ele>77.6</ele>
        <time>2017-10-18T18:43:18Z</time>
      </trkpt>
      <trkpt lat="62.704937405994" lon="17.781174821621">
        <ele>77.6</ele>
        <time>2017-10-18T18:43:19Z</time>
      </trkpt>
      <trkpt lat="62.704984596091" lon="17.781190579593">
        <ele>77.4</ele>
        <time>2017-10-18T18:43:20Z</time>
      </trkpt>
      <trkpt lat="62.705032037645" lon="17.781204828823">
        <ele>77.4</ele>
        <time>2017-10-18T18:43:21Z</time>
      </trkpt>
      <trkpt lat="62.705075958801" lon="17.781218826596">
        <ele>77.4</ele>
        <time>2017-10-18T18:43:22Z</time>
      </trkpt>
      <trkpt lat="62.705121723975" lon="17.781235590396">
        <ele>77.4</ele>
        <time>2017-10-18T18:43:23Z</time>
      </trkpt>
      <trkpt lat="62.70517327266" lon="17.781254449671">
        <ele>77.2</ele>
        <time>2017-10-18T18:43:24Z</time>
      </trkpt>
      <trkpt lat="62.705218954015" lon="17.781268531263">
        <ele>77.2</ele>
        <time>2017-10-18T18:43:25Z</time>
      </trkpt>
      <trkpt lat="62.705264467732" lon="17.781282026122">
        <ele>77</ele>
        <time>2017-10-18T18:43:26Z</time>
      </trkpt>
      <trkpt lat="62.705310987277" lon="17.781296191533">
        <ele>77</ele>
        <time>2017-10-18T18:43:27Z</time>
      </trkpt>
      <trkpt lat="62.70535180713" lon="17.781310356944">
        <ele>77</ele>
        <time>2017-10-18T18:43:28Z</time>
      </trkpt>
      <trkpt lat="62.705404696919" lon="17.781328713305">
        <ele>77</ele>
        <time>2017-10-18T18:43:29Z</time>
      </trkpt>
      <trkpt lat="62.705450545912" lon="17.78134505801">
        <ele>76.8</ele>
        <time>2017-10-18T18:43:30Z</time>
      </trkpt>
      <trkpt lat="62.705497065457" lon="17.781359558697">
        <ele>76.8</ele>
        <time>2017-10-18T18:43:31Z</time>
      </trkpt>
      <trkpt lat="62.705542160079" lon="17.781375316669">
        <ele>76.6</ele>
        <time>2017-10-18T18:43:32Z</time>
      </trkpt>
      <trkpt lat="62.705586081235" lon="17.781390152632">
        <ele>76.6</ele>
        <time>2017-10-18T18:43:33Z</time>
      </trkpt>
      <trkpt lat="62.705631930228" lon="17.781406162061">
        <ele>76.4</ele>
        <time>2017-10-18T18:43:34Z</time>
      </trkpt>
      <trkpt lat="62.70568037761" lon="17.781422925861">
        <ele>76.4</ele>
        <time>2017-10-18T18:43:35Z</time>
      </trkpt>
      <trkpt lat="62.705726142784" lon="17.781439857299">
        <ele>76.2</ele>
        <time>2017-10-18T18:43:36Z</time>
      </trkpt>
      <trkpt lat="62.70577090213" lon="17.781454106529">
        <ele>76.2</ele>
        <time>2017-10-18T18:43:37Z</time>
      </trkpt>
      <trkpt lat="62.705803340083" lon="17.781466176465">
        <ele>76.2</ele>
        <time>2017-10-18T18:43:38Z</time>
      </trkpt>
      <trkpt lat="62.705861678107" lon="17.781488304681">
        <ele>76.2</ele>
        <time>2017-10-18T18:43:39Z</time>
      </trkpt>
      <trkpt lat="62.705903084693" lon="17.781501715721">
        <ele>76</ele>
        <time>2017-10-18T18:43:40Z</time>
      </trkpt>
      <trkpt lat="62.705950610066" lon="17.78151521058">
        <ele>76</ele>
        <time>2017-10-18T18:43:41Z</time>
      </trkpt>
      <trkpt lat="62.705994447403" lon="17.781528453982">
        <ele>76.2</ele>
        <time>2017-10-18T18:43:42Z</time>
      </trkpt>
      <trkpt lat="62.706035183437" lon="17.781545636877">
        <ele>76</ele>
        <time>2017-10-18T18:43:43Z</time>
      </trkpt>
      <trkpt lat="62.706080613335" lon="17.781567681274">
        <ele>75.8</ele>
        <time>2017-10-18T18:43:44Z</time>
      </trkpt>
      <trkpt lat="62.706123863939" lon="17.781587546377">
        <ele>75.8</ele>
        <time>2017-10-18T18:43:45Z</time>
      </trkpt>
      <trkpt lat="62.706164935249" lon="17.781609255498">
        <ele>75.8</ele>
        <time>2017-10-18T18:43:46Z</time>
      </trkpt>
      <trkpt lat="62.70621262826" lon="17.781633898284">
        <ele>75.6</ele>
        <time>2017-10-18T18:43:47Z</time>
      </trkpt>
      <trkpt lat="62.70625705233" lon="17.781655607405">
        <ele>75.6</ele>
        <time>2017-10-18T18:43:48Z</time>
      </trkpt>
      <trkpt lat="62.706308265739" lon="17.781684944055">
        <ele>75.6</ele>
        <time>2017-10-18T18:43:49Z</time>
      </trkpt>
      <trkpt lat="62.706358389501" lon="17.781716459999">
        <ele>75.6</ele>
        <time>2017-10-18T18:43:50Z</time>
      </trkpt>
      <trkpt lat="62.706407675073" lon="17.781750322875">
        <ele>75.4</ele>
        <time>2017-10-18T18:43:51Z</time>
      </trkpt>
      <trkpt lat="62.706454781351" lon="17.781783934294">
        <ele>75.6</ele>
        <time>2017-10-18T18:43:52Z</time>
      </trkpt>
      <trkpt lat="62.706501217077" lon="17.781818886817">
        <ele>75.6</ele>
        <time>2017-10-18T18:43:53Z</time>
      </trkpt>
      <trkpt lat="62.706555867065" lon="17.781862724154">
        <ele>75.4</ele>
        <time>2017-10-18T18:43:54Z</time>
      </trkpt>
      <trkpt lat="62.706602805705" lon="17.781899772152">
        <ele>75.2</ele>
        <time>2017-10-18T18:43:55Z</time>
      </trkpt>
      <trkpt lat="62.70664848706" lon="17.781936987788">
        <ele>75.2</ele>
        <time>2017-10-18T18:43:56Z</time>
      </trkpt>
      <trkpt lat="62.706691067112" lon="17.781976801813">
        <ele>75.2</ele>
        <time>2017-10-18T18:43:57Z</time>
      </trkpt>
      <trkpt lat="62.706727612196" lon="17.782015442372">
        <ele>75.2</ele>
        <time>2017-10-18T18:43:58Z</time>
      </trkpt>
      <trkpt lat="62.706773964103" lon="17.782064644125">
        <ele>75.6</ele>
        <time>2017-10-18T18:43:59Z</time>
      </trkpt>
      <trkpt lat="62.706815203051" lon="17.782109571109">
        <ele>75.6</ele>
        <time>2017-10-18T18:44:00Z</time>
      </trkpt>
      <trkpt lat="62.706856190542" lon="17.782153995179">
        <ele>75.6</ele>
        <time>2017-10-18T18:44:01Z</time>
      </trkpt>
      <trkpt lat="62.7068965913" lon="17.782196491412">
        <ele>75.6</ele>
        <time>2017-10-18T18:44:02Z</time>
      </trkpt>
      <trkpt lat="62.706935399497" lon="17.782239322921">
        <ele>75.6</ele>
        <time>2017-10-18T18:44:03Z</time>
      </trkpt>
      <trkpt lat="62.706974375332" lon="17.782288105579">
        <ele>75.6</ele>
        <time>2017-10-18T18:44:04Z</time>
      </trkpt>
      <trkpt lat="62.707014440814" lon="17.782343845214">
        <ele>75.8</ele>
        <time>2017-10-18T18:44:05Z</time>
      </trkpt>
      <trkpt lat="62.707052913735" lon="17.782394723347">
        <ele>75.8</ele>
        <time>2017-10-18T18:44:06Z</time>
      </trkpt>
      <trkpt lat="62.707091302837" lon="17.782446942584">
        <ele>76.2</ele>
        <time>2017-10-18T18:44:07Z</time>
      </trkpt>
      <trkpt lat="62.707124830437" lon="17.782493462129">
        <ele>76.2</ele>
        <time>2017-10-18T18:44:08Z</time>
      </trkpt>
      <trkpt lat="62.707165147376" lon="17.782558673311">
        <ele>76.4</ele>
        <time>2017-10-18T18:44:09Z</time>
      </trkpt>
      <trkpt lat="62.707198758795" lon="17.782613155661">
        <ele>76.6</ele>
        <time>2017-10-18T18:44:10Z</time>
      </trkpt>
      <trkpt lat="62.707237650811" lon="17.782670068762">
        <ele>76.6</ele>
        <time>2017-10-18T18:44:11Z</time>
      </trkpt>
      <trkpt lat="62.707274028257" lon="17.782725808397">
        <ele>76.8</ele>
        <time>2017-10-18T18:44:12Z</time>
      </trkpt>
      <trkpt lat="62.707306382391" lon="17.782780458385">
        <ele>76.8</ele>
        <time>2017-10-18T18:44:13Z</time>
      </trkpt>
      <trkpt lat="62.707342843656" lon="17.78284122716">
        <ele>77</ele>
        <time>2017-10-18T18:44:14Z</time>
      </trkpt>
      <trkpt lat="62.707376790351" lon="17.782900151917">
        <ele>77.2</ele>
        <time>2017-10-18T18:44:15Z</time>
      </trkpt>
      <trkpt lat="62.707408976847" lon="17.782956981199">
        <ele>77.2</ele>
        <time>2017-10-18T18:44:16Z</time>
      </trkpt>
      <trkpt lat="62.707444097008" lon="17.783021857105">
        <ele>77.4</ele>
        <time>2017-10-18T18:44:17Z</time>
      </trkpt>
      <trkpt lat="62.707475445314" lon="17.783082290604">
        <ele>77.4</ele>
        <time>2017-10-18T18:44:18Z</time>
      </trkpt>
      <trkpt lat="62.707510314018" lon="17.783148759071">
        <ele>77.6</ele>
        <time>2017-10-18T18:44:19Z</time>
      </trkpt>
      <trkpt lat="62.707543422523" lon="17.783214724624">
        <ele>77.8</ele>
        <time>2017-10-18T18:44:20Z</time>
      </trkpt>
      <trkpt lat="62.707575944295" lon="17.783281360729">
        <ele>77.8</ele>
        <time>2017-10-18T18:44:21Z</time>
      </trkpt>
      <trkpt lat="62.707606035316" lon="17.783340620762">
        <ele>78</ele>
        <time>2017-10-18T18:44:22Z</time>
      </trkpt>
      <trkpt lat="62.707635791061" lon="17.783400970442">
        <ele>78</ele>
        <time>2017-10-18T18:44:23Z</time>
      </trkpt>
      <trkpt lat="62.707669989213" lon="17.783475820809">
        <ele>78.4</ele>
        <time>2017-10-18T18:44:24Z</time>
      </trkpt>
      <trkpt lat="62.707698655311" lon="17.783543462742">
        <ele>78.4</ele>
        <time>2017-10-18T18:44:25Z</time>
      </trkpt>
      <trkpt lat="62.707725896486" lon="17.783605740259">
        <ele>78.6</ele>
        <time>2017-10-18T18:44:26Z</time>
      </trkpt>
      <trkpt lat="62.70775238329" lon="17.783670867622">
        <ele>78.6</ele>
        <time>2017-10-18T18:44:27Z</time>
      </trkpt>
      <trkpt lat="62.707775517334" lon="17.783732726044">
        <ele>78.8</ele>
        <time>2017-10-18T18:44:28Z</time>
      </trkpt>
      <trkpt lat="62.707806195088" lon="17.783813695198">
        <ele>79</ele>
        <time>2017-10-18T18:44:29Z</time>
      </trkpt>
      <trkpt lat="62.70783368772" lon="17.783887958832">
        <ele>79.2</ele>
        <time>2017-10-18T18:44:30Z</time>
      </trkpt>
      <trkpt lat="62.707859252515" lon="17.783958869706">
        <ele>79.4</ele>
        <time>2017-10-18T18:44:31Z</time>
      </trkpt>
      <trkpt lat="62.707884314396" lon="17.784026679277">
        <ele>79.4</ele>
        <time>2017-10-18T18:44:32Z</time>
      </trkpt>
      <trkpt lat="62.707907196983" lon="17.784093399201">
        <ele>79.4</ele>
        <time>2017-10-18T18:44:33Z</time>
      </trkpt>
      <trkpt lat="62.707929576656" lon="17.784167327559">
        <ele>79.4</ele>
        <time>2017-10-18T18:44:34Z</time>
      </trkpt>
      <trkpt lat="62.707955141451" lon="17.784249973093">
        <ele>79.4</ele>
        <time>2017-10-18T18:44:35Z</time>
      </trkpt>
      <trkpt lat="62.707980622427" lon="17.784329768781">
        <ele>79.4</ele>
        <time>2017-10-18T18:44:36Z</time>
      </trkpt>
      <trkpt lat="62.708007276869" lon="17.784410486478">
        <ele>79.2</ele>
        <time>2017-10-18T18:44:37Z</time>
      </trkpt>
      <trkpt lat="62.708030075637" lon="17.784479972429">
        <ele>79.2</ele>
        <time>2017-10-18T18:44:38Z</time>
      </trkpt>
      <trkpt lat="62.708059077011" lon="17.784562282687">
        <ele>79</ele>
        <time>2017-10-18T18:44:39Z</time>
      </trkpt>
      <trkpt lat="62.708081708141" lon="17.78463579195">
        <ele>79</ele>
        <time>2017-10-18T18:44:40Z</time>
      </trkpt>
      <trkpt lat="62.708107021479" lon="17.784722041701">
        <ele>79</ele>
        <time>2017-10-18T18:44:41Z</time>
      </trkpt>
      <trkpt lat="62.708129987885" lon="17.784804938692">
        <ele>79</ele>
        <time>2017-10-18T18:44:42Z</time>
      </trkpt>
      <trkpt lat="62.708152954291" lon="17.784877777403">
        <ele>79</ele>
        <time>2017-10-18T18:44:43Z</time>
      </trkpt>
      <trkpt lat="62.708181368932" lon="17.784962769869">
        <ele>79</ele>
        <time>2017-10-18T18:44:44Z</time>
      </trkpt>
      <trkpt lat="62.708208526288" lon="17.785042649376">
        <ele>78.8</ele>
        <time>2017-10-18T18:44:45Z</time>
      </trkpt>
      <trkpt lat="62.708233923445" lon="17.785114901354">
        <ele>78.8</ele>
        <time>2017-10-18T18:44:46Z</time>
      </trkpt>
      <trkpt lat="62.70826032643" lon="17.78520240839">
        <ele>78.6</ele>
        <time>2017-10-18T18:44:47Z</time>
      </trkpt>
      <trkpt lat="62.708282370827" lon="17.785278096947">
        <ele>78.6</ele>
        <time>2017-10-18T18:44:48Z</time>
      </trkpt>
      <trkpt lat="62.70830894145" lon="17.785361413033">
        <ele>78.6</ele>
        <time>2017-10-18T18:44:49Z</time>
      </trkpt>
      <trkpt lat="62.708332326951" lon="17.785440789626">
        <ele>78.6</ele>
        <time>2017-10-18T18:44:50Z</time>
      </trkpt>
      <trkpt lat="62.708354036072" lon="17.78551840602">
        <ele>78.6</ele>
        <time>2017-10-18T18:44:51Z</time>
      </trkpt>
      <trkpt lat="62.708376583383" lon="17.785586969962">
        <ele>78.6</ele>
        <time>2017-10-18T18:44:52Z</time>
      </trkpt>
      <trkpt lat="62.708400052703" lon="17.785659054302">
        <ele>78.8</ele>
        <time>2017-10-18T18:44:53Z</time>
      </trkpt>
      <trkpt lat="62.708426958602" lon="17.785745974605">
        <ele>78.8</ele>
        <time>2017-10-18T18:44:54Z</time>
      </trkpt>
      <trkpt lat="62.708450763198" lon="17.785823339542">
        <ele>78.8</ele>
        <time>2017-10-18T18:44:55Z</time>
      </trkpt>
      <trkpt lat="62.708475238346" lon="17.785899531013">
        <ele>78.8</ele>
        <time>2017-10-18T18:44:56Z</time>
      </trkpt>
      <trkpt lat="62.708500384046" lon="17.785976812131">
        <ele>78.8</ele>
        <time>2017-10-18T18:44:57Z</time>
      </trkpt>
      <trkpt lat="62.708521422615" lon="17.786046130444">
        <ele>79</ele>
        <time>2017-10-18T18:44:58Z</time>
      </trkpt>
      <trkpt lat="62.708548999066" lon="17.786135816774">
        <ele>79</ele>
        <time>2017-10-18T18:44:59Z</time>
      </trkpt>
      <trkpt lat="62.708573474214" lon="17.786214019901">
        <ele>79.2</ele>
        <time>2017-10-18T18:45:00Z</time>
      </trkpt>
      <trkpt lat="62.708598117" lon="17.78629373177">
        <ele>79.2</ele>
        <time>2017-10-18T18:45:01Z</time>
      </trkpt>
      <trkpt lat="62.708620664311" lon="17.786375287657">
        <ele>79</ele>
        <time>2017-10-18T18:45:02Z</time>
      </trkpt>
      <trkpt lat="62.708642289613" lon="17.786453406965">
        <ele>79</ele>
        <time>2017-10-18T18:45:03Z</time>
      </trkpt>
      <trkpt lat="62.708667519132" lon="17.786540075811">
        <ele>79.2</ele>
        <time>2017-10-18T18:45:04Z</time>
      </trkpt>
      <trkpt lat="62.708696352868" lon="17.786638311679">
        <ele>79</ele>
        <time>2017-10-18T18:45:05Z</time>
      </trkpt>
      <trkpt lat="62.708726108613" lon="17.786735038805">
        <ele>78.8</ele>
        <time>2017-10-18T18:45:06Z</time>
      </trkpt>
      <trkpt lat="62.708756870186" lon="17.78683771708">
        <ele>78.8</ele>
        <time>2017-10-18T18:45:07Z</time>
      </trkpt>
      <trkpt lat="62.708783608447" lon="17.786932097274">
        <ele>78.8</ele>
        <time>2017-10-18T18:45:08Z</time>
      </trkpt>
      <trkpt lat="62.708819231522" lon="17.787056987584">
        <ele>78.4</ele>
        <time>2017-10-18T18:45:09Z</time>
      </trkpt>
      <trkpt lat="62.708850831285" lon="17.787167377207">
        <ele>78.2</ele>
        <time>2017-10-18T18:45:10Z</time>
      </trkpt>
      <trkpt lat="62.708887711645" lon="17.787299978865">
        <ele>77.8</ele>
        <time>2017-10-18T18:45:11Z</time>
      </trkpt>
      <trkpt lat="62.708923586177" lon="17.78743283198">
        <ele>77.4</ele>
        <time>2017-10-18T18:45:12Z</time>
      </trkpt>
      <trkpt lat="62.708958035786" lon="17.787564092534">
        <ele>76.8</ele>
        <time>2017-10-18T18:45:13Z</time>
      </trkpt>
      <trkpt lat="62.708996760164" lon="17.787716726933">
        <ele>76.4</ele>
        <time>2017-10-18T18:45:14Z</time>
      </trkpt>
      <trkpt lat="62.709031209773" lon="17.787870450979">
        <ele>75.8</ele>
        <time>2017-10-18T18:45:15Z</time>
      </trkpt>
      <trkpt lat="62.709062222803" lon="17.788025599948">
        <ele>75.2</ele>
        <time>2017-10-18T18:45:16Z</time>
      </trkpt>
      <trkpt lat="62.70909516367" lon="17.788210253205">
        <ele>74.6</ele>
        <time>2017-10-18T18:45:17Z</time>
      </trkpt>
      <trkpt lat="62.709120812284" lon="17.788382920345">
        <ele>73.8</ele>
        <time>2017-10-18T18:45:18Z</time>
      </trkpt>
      <trkpt lat="62.709145538889" lon="17.788587271067">
        <ele>73</ele>
        <time>2017-10-18T18:45:19Z</time>
      </trkpt>
      <trkpt lat="62.709164481983" lon="17.788789442495">
        <ele>72.4</ele>
        <time>2017-10-18T18:45:20Z</time>
      </trkpt>
      <trkpt lat="62.709178395937" lon="17.788995301959">
        <ele>71.6</ele>
        <time>2017-10-18T18:45:21Z</time>
      </trkpt>
      <trkpt lat="62.709186274923" lon="17.789187247469">
        <ele>70.8</ele>
        <time>2017-10-18T18:45:22Z</time>
      </trkpt>
      <trkpt lat="62.709189376226" lon="17.789383803024">
        <ele>70.4</ele>
        <time>2017-10-18T18:45:23Z</time>
      </trkpt>
      <trkpt lat="62.709187783665" lon="17.78960374408">
        <ele>69.8</ele>
        <time>2017-10-18T18:45:24Z</time>
      </trkpt>
      <trkpt lat="62.709182503068" lon="17.789789235527">
        <ele>69.2</ele>
        <time>2017-10-18T18:45:25Z</time>
      </trkpt>
      <trkpt lat="62.70917227715" lon="17.789963411409">
        <ele>69</ele>
        <time>2017-10-18T18:45:26Z</time>
      </trkpt>
      <trkpt lat="62.709159201386" lon="17.790138341662">
        <ele>68.8</ele>
        <time>2017-10-18T18:45:27Z</time>
      </trkpt>
      <trkpt lat="62.70914713145" lon="17.790274798994">
        <ele>68.8</ele>
        <time>2017-10-18T18:45:28Z</time>
      </trkpt>
      <trkpt lat="62.709132127849" lon="17.790435060922">
        <ele>68.8</ele>
        <time>2017-10-18T18:45:29Z</time>
      </trkpt>
      <trkpt lat="62.709114525859" lon="17.790588114416">
        <ele>68.8</ele>
        <time>2017-10-18T18:45:30Z</time>
      </trkpt>
      <trkpt lat="62.709094074023" lon="17.790734797666">
        <ele>68.8</ele>
        <time>2017-10-18T18:45:31Z</time>
      </trkpt>
      <trkpt lat="62.709069934151" lon="17.790881480916">
        <ele>69</ele>
        <time>2017-10-18T18:45:32Z</time>
      </trkpt>
      <trkpt lat="62.709044956089" lon="17.791017267696">
        <ele>69</ele>
        <time>2017-10-18T18:45:33Z</time>
      </trkpt>
      <trkpt lat="62.709014110697" lon="17.791165962602">
        <ele>68.8</ele>
        <time>2017-10-18T18:45:34Z</time>
      </trkpt>
      <trkpt lat="62.708979409631" lon="17.791325218702">
        <ele>68.6</ele>
        <time>2017-10-18T18:45:35Z</time>
      </trkpt>
      <trkpt lat="62.708943032185" lon="17.791480283852">
        <ele>68.2</ele>
        <time>2017-10-18T18:45:36Z</time>
      </trkpt>
      <trkpt lat="62.708906068006" lon="17.791640629599">
        <ele>67.8</ele>
        <time>2017-10-18T18:45:37Z</time>
      </trkpt>
      <trkpt lat="62.708872959501" lon="17.791781445519">
        <ele>67.4</ele>
        <time>2017-10-18T18:45:38Z</time>
      </trkpt>
      <trkpt lat="62.70883029563" lon="17.791960650541">
        <ele>66.8</ele>
        <time>2017-10-18T18:45:39Z</time>
      </trkpt>
      <trkpt lat="62.708794756374" lon="17.79211160856">
        <ele>66.4</ele>
        <time>2017-10-18T18:45:40Z</time>
      </trkpt>
      <trkpt lat="62.708757708376" lon="17.792278827465">
        <ele>66</ele>
        <time>2017-10-18T18:45:41Z</time>
      </trkpt>
      <trkpt lat="62.70872719826" lon="17.792431629502">
        <ele>65.6</ele>
        <time>2017-10-18T18:45:42Z</time>
      </trkpt>
      <trkpt lat="62.708701130551" lon="17.792569679395">
        <ele>65.4</ele>
        <time>2017-10-18T18:45:43Z</time>
      </trkpt>
      <trkpt lat="62.708674308471" lon="17.792718961034">
        <ele>65.2</ele>
        <time>2017-10-18T18:45:44Z</time>
      </trkpt>
      <trkpt lat="62.708654108092" lon="17.792850221588">
        <ele>65.2</ele>
        <time>2017-10-18T18:45:45Z</time>
      </trkpt>
      <trkpt lat="62.708635667912" lon="17.792969496025">
        <ele>65.4</ele>
        <time>2017-10-18T18:45:46Z</time>
      </trkpt>
      <trkpt lat="62.708618987931" lon="17.793094302516">
        <ele>65.8</ele>
        <time>2017-10-18T18:45:47Z</time>
      </trkpt>
      <trkpt lat="62.708607253271" lon="17.793200165913">
        <ele>66</ele>
        <time>2017-10-18T18:45:48Z</time>
      </trkpt>
      <trkpt lat="62.708595350973" lon="17.793310974631">
        <ele>66.4</ele>
        <time>2017-10-18T18:45:49Z</time>
      </trkpt>
      <trkpt lat="62.708586214702" lon="17.793411473612">
        <ele>66.6</ele>
        <time>2017-10-18T18:45:50Z</time>
      </trkpt>
      <trkpt lat="62.708577329888" lon="17.793511804955">
        <ele>66.8</ele>
        <time>2017-10-18T18:45:51Z</time>
      </trkpt>
      <trkpt lat="62.708570205273" lon="17.793602161837">
        <ele>67.2</ele>
        <time>2017-10-18T18:45:52Z</time>
      </trkpt>
      <trkpt lat="62.708563164477" lon="17.793700481524">
        <ele>67.4</ele>
        <time>2017-10-18T18:45:53Z</time>
      </trkpt>
      <trkpt lat="62.708557464785" lon="17.793802070152">
        <ele>68</ele>
        <time>2017-10-18T18:45:54Z</time>
      </trkpt>
      <trkpt lat="62.708552519464" lon="17.79390114421">
        <ele>68.4</ele>
        <time>2017-10-18T18:45:55Z</time>
      </trkpt>
      <trkpt lat="62.708546065401" lon="17.794000302087">
        <ele>68.8</ele>
        <time>2017-10-18T18:45:56Z</time>
      </trkpt>
      <trkpt lat="62.708543131736" lon="17.794100884887">
        <ele>69.2</ele>
        <time>2017-10-18T18:45:57Z</time>
      </trkpt>
      <trkpt lat="62.708540868623" lon="17.794182356955">
        <ele>69.4</ele>
        <time>2017-10-18T18:45:58Z</time>
      </trkpt>
      <trkpt lat="62.708540114252" lon="17.794305067971">
        <ele>69.6</ele>
        <time>2017-10-18T18:45:59Z</time>
      </trkpt>
      <trkpt lat="62.708539695157" lon="17.79440657278">
        <ele>69.6</ele>
        <time>2017-10-18T18:46:00Z</time>
      </trkpt>
      <trkpt lat="62.708541706813" lon="17.794505395381">
        <ele>69.6</ele>
        <time>2017-10-18T18:46:01Z</time>
      </trkpt>
      <trkpt lat="62.708544221383" lon="17.794602793059">
        <ele>69.8</ele>
        <time>2017-10-18T18:46:02Z</time>
      </trkpt>
      <trkpt lat="62.70854866379" lon="17.794690803009">
        <ele>69.8</ele>
        <time>2017-10-18T18:46:03Z</time>
      </trkpt>
      <trkpt lat="62.708553441473" lon="17.794781914262">
        <ele>70</ele>
        <time>2017-10-18T18:46:04Z</time>
      </trkpt>
      <trkpt lat="62.708559476441" lon="17.794880820682">
        <ele>70.2</ele>
        <time>2017-10-18T18:46:05Z</time>
      </trkpt>
      <trkpt lat="62.708563918848" lon="17.79497067465">
        <ele>70.4</ele>
        <time>2017-10-18T18:46:06Z</time>
      </trkpt>
      <trkpt lat="62.70857129492" lon="17.795056253849">
        <ele>70.8</ele>
        <time>2017-10-18T18:46:07Z</time>
      </trkpt>
      <trkpt lat="62.708579593001" lon="17.795131942406">
        <ele>71</ele>
        <time>2017-10-18T18:46:08Z</time>
      </trkpt>
      <trkpt lat="62.708586466159" lon="17.795217605424">
        <ele>71.2</ele>
        <time>2017-10-18T18:46:09Z</time>
      </trkpt>
      <trkpt lat="62.708592668765" lon="17.795291282325">
        <ele>71.2</ele>
        <time>2017-10-18T18:46:10Z</time>
      </trkpt>
      <trkpt lat="62.708603313778" lon="17.795373508764">
        <ele>71.6</ele>
        <time>2017-10-18T18:46:11Z</time>
      </trkpt>
      <trkpt lat="62.708611025126" lon="17.795450538425">
        <ele>71.8</ele>
        <time>2017-10-18T18:46:12Z</time>
      </trkpt>
      <trkpt lat="62.708618736474" lon="17.79552304186">
        <ele>72</ele>
        <time>2017-10-18T18:46:13Z</time>
      </trkpt>
      <trkpt lat="62.708628878573" lon="17.795602334634">
        <ele>72.2</ele>
        <time>2017-10-18T18:46:14Z</time>
      </trkpt>
      <trkpt lat="62.708636925197" lon="17.795675257164">
        <ele>72.6</ele>
        <time>2017-10-18T18:46:15Z</time>
      </trkpt>
      <trkpt lat="62.708644049812" lon="17.795742982916">
        <ele>73</ele>
        <time>2017-10-18T18:46:16Z</time>
      </trkpt>
      <trkpt lat="62.708652766988" lon="17.795823365337">
        <ele>73.4</ele>
        <time>2017-10-18T18:46:17Z</time>
      </trkpt>
      <trkpt lat="62.708661065069" lon="17.795896623143">
        <ele>73.6</ele>
        <time>2017-10-18T18:46:18Z</time>
      </trkpt>
      <trkpt lat="62.708668860236" lon="17.795977927573">
        <ele>74</ele>
        <time>2017-10-18T18:46:19Z</time>
      </trkpt>
      <trkpt lat="62.708673805557" lon="17.796058477632">
        <ele>74.4</ele>
        <time>2017-10-18T18:46:20Z</time>
      </trkpt>
      <trkpt lat="62.708679337611" lon="17.796136513121">
        <ele>74.8</ele>
        <time>2017-10-18T18:46:21Z</time>
      </trkpt>
      <trkpt lat="62.708685204941" lon="17.796209770927">
        <ele>75</ele>
        <time>2017-10-18T18:46:22Z</time>
      </trkpt>
      <trkpt lat="62.708690066443" lon="17.796287638778">
        <ele>75.4</ele>
        <time>2017-10-18T18:46:23Z</time>
      </trkpt>
      <trkpt lat="62.70869450885" lon="17.796369529941">
        <ele>75.6</ele>
        <time>2017-10-18T18:46:24Z</time>
      </trkpt>
      <trkpt lat="62.708697358696" lon="17.796446978697">
        <ele>75.8</ele>
        <time>2017-10-18T18:46:25Z</time>
      </trkpt>
      <trkpt lat="62.708700040904" lon="17.796523086349">
        <ele>76</ele>
        <time>2017-10-18T18:46:26Z</time>
      </trkpt>
      <trkpt lat="62.708703393664" lon="17.796596847069">
        <ele>76.4</ele>
        <time>2017-10-18T18:46:27Z</time>
      </trkpt>
      <trkpt lat="62.708705153863" lon="17.796661974432">
        <ele>76.6</ele>
        <time>2017-10-18T18:46:28Z</time>
      </trkpt>
      <trkpt lat="62.7087070817" lon="17.796744117052">
        <ele>76.8</ele>
        <time>2017-10-18T18:46:29Z</time>
      </trkpt>
      <trkpt lat="62.708707249338" lon="17.796817374858">
        <ele>77</ele>
        <time>2017-10-18T18:46:30Z</time>
      </trkpt>
      <trkpt lat="62.708706159691" lon="17.796890045931">
        <ele>77.4</ele>
        <time>2017-10-18T18:46:31Z</time>
      </trkpt>
      <trkpt lat="62.70870456713" lon="17.796962130271">
        <ele>77.4</ele>
        <time>2017-10-18T18:46:32Z</time>
      </trkpt>
      <trkpt lat="62.708702471655" lon="17.797030191299">
        <ele>77.6</ele>
        <time>2017-10-18T18:46:33Z</time>
      </trkpt>
      <trkpt lat="62.708700627637" lon="17.797101856544">
        <ele>77.8</ele>
        <time>2017-10-18T18:46:34Z</time>
      </trkpt>
      <trkpt lat="62.708698196886" lon="17.79718014349">
        <ele>78</ele>
        <time>2017-10-18T18:46:35Z</time>
      </trkpt>
      <trkpt lat="62.708696101411" lon="17.797257089332">
        <ele>78.2</ele>
        <time>2017-10-18T18:46:36Z</time>
      </trkpt>
      <trkpt lat="62.708693754479" lon="17.797335292459">
        <ele>78.4</ele>
        <time>2017-10-18T18:46:37Z</time>
      </trkpt>
      <trkpt lat="62.708691742823" lon="17.797399581632">
        <ele>78.4</ele>
        <time>2017-10-18T18:46:38Z</time>
      </trkpt>
      <trkpt lat="62.708687300416" lon="17.797497063129">
        <ele>78.4</ele>
        <time>2017-10-18T18:46:39Z</time>
      </trkpt>
      <trkpt lat="62.708685624036" lon="17.797573506057">
        <ele>78.6</ele>
        <time>2017-10-18T18:46:40Z</time>
      </trkpt>
      <trkpt lat="62.708684031475" lon="17.797660510179">
        <ele>78.6</ele>
        <time>2017-10-18T18:46:41Z</time>
      </trkpt>
      <trkpt lat="62.708684702027" lon="17.797743910084">
        <ele>78.6</ele>
        <time>2017-10-18T18:46:42Z</time>
      </trkpt>
      <trkpt lat="62.708683360923" lon="17.797824879238">
        <ele>78.6</ele>
        <time>2017-10-18T18:46:43Z</time>
      </trkpt>
      <trkpt lat="62.708680091982" lon="17.797918337423">
        <ele>78.6</ele>
        <time>2017-10-18T18:46:44Z</time>
      </trkpt>
      <trkpt lat="62.708676403946" lon="17.798012382341">
        <ele>78.6</ele>
        <time>2017-10-18T18:46:45Z</time>
      </trkpt>
      <trkpt lat="62.708672799729" lon="17.798104247965">
        <ele>78.6</ele>
        <time>2017-10-18T18:46:46Z</time>
      </trkpt>
      <trkpt lat="62.708667351494" lon="17.798212123018">
        <ele>78.4</ele>
        <time>2017-10-18T18:46:47Z</time>
      </trkpt>
      <trkpt lat="62.708662992906" lon="17.798312035266">
        <ele>78.4</ele>
        <time>2017-10-18T18:46:48Z</time>
      </trkpt>
      <trkpt lat="62.70865846668" lon="17.798421083785">
        <ele>78.2</ele>
        <time>2017-10-18T18:46:49Z</time>
      </trkpt>
      <trkpt lat="62.708655365377" lon="17.798526528087">
        <ele>77.8</ele>
        <time>2017-10-18T18:46:50Z</time>
      </trkpt>
      <trkpt lat="62.708650839151" lon="17.798632475303">
        <ele>77.6</ele>
        <time>2017-10-18T18:46:51Z</time>
      </trkpt>
      <trkpt lat="62.708646815839" lon="17.798732890465">
        <ele>77.6</ele>
        <time>2017-10-18T18:46:52Z</time>
      </trkpt>
      <trkpt lat="62.708643546898" lon="17.798844285916">
        <ele>77.4</ele>
        <time>2017-10-18T18:46:53Z</time>
      </trkpt>
      <trkpt lat="62.708641032328" lon="17.79896548819">
        <ele>77.2</ele>
        <time>2017-10-18T18:46:54Z</time>
      </trkpt>
      <trkpt lat="62.708641032328" lon="17.799084343532">
        <ele>77.2</ele>
        <time>2017-10-18T18:46:55Z</time>
      </trkpt>
      <trkpt lat="62.708641870518" lon="17.799207641281">
        <ele>77</ele>
        <time>2017-10-18T18:46:56Z</time>
      </trkpt>
      <trkpt lat="62.708642792527" lon="17.799335549075">
        <ele>76.8</ele>
        <time>2017-10-18T18:46:57Z</time>
      </trkpt>
      <trkpt lat="62.708643546898" lon="17.799450967838">
        <ele>76.4</ele>
        <time>2017-10-18T18:46:58Z</time>
      </trkpt>
      <trkpt lat="62.70864421745" lon="17.79960670354">
        <ele>76.2</ele>
        <time>2017-10-18T18:46:59Z</time>
      </trkpt>
      <trkpt lat="62.708646396744" lon="17.799752297143">
        <ele>75.8</ele>
        <time>2017-10-18T18:47:00Z</time>
      </trkpt>
      <trkpt lat="62.708651844979" lon="17.799912223795">
        <ele>75.2</ele>
        <time>2017-10-18T18:47:01Z</time>
      </trkpt>
      <trkpt lat="62.708656706481" lon="17.800077011949">
        <ele>74.8</ele>
        <time>2017-10-18T18:47:02Z</time>
      </trkpt>
      <trkpt lat="62.708662154716" lon="17.80024205156">
        <ele>74.4</ele>
        <time>2017-10-18T18:47:03Z</time>
      </trkpt>
      <trkpt lat="62.708669027874" lon="17.800424190247">
        <ele>73.8</ele>
        <time>2017-10-18T18:47:04Z</time>
      </trkpt>
      <trkpt lat="62.708678750878" lon="17.800631055539">
        <ele>73</ele>
        <time>2017-10-18T18:47:05Z</time>
      </trkpt>
      <trkpt lat="62.708689060615" lon="17.800826186171">
        <ele>72.4</ele>
        <time>2017-10-18T18:47:06Z</time>
      </trkpt>
      <trkpt lat="62.708701046732" lon="17.801033219101">
        <ele>71.6</ele>
        <time>2017-10-18T18:47:07Z</time>
      </trkpt>
      <trkpt lat="62.708711859383" lon="17.801223991145">
        <ele>70.8</ele>
        <time>2017-10-18T18:47:08Z</time>
      </trkpt>
      <trkpt lat="62.708725689518" lon="17.801441333812">
        <ele>70</ele>
        <time>2017-10-18T18:47:09Z</time>
      </trkpt>
      <trkpt lat="62.708737675635" lon="17.801642918507">
        <ele>69.4</ele>
        <time>2017-10-18T18:47:10Z</time>
      </trkpt>
      <trkpt lat="62.708753098331" lon="17.80187903663">
        <ele>68.4</ele>
        <time>2017-10-18T18:47:11Z</time>
      </trkpt>
      <trkpt lat="62.708766928466" lon="17.802082800619">
        <ele>67.8</ele>
        <time>2017-10-18T18:47:12Z</time>
      </trkpt>
      <trkpt lat="62.70878419518" lon="17.802287654255">
        <ele>67</ele>
        <time>2017-10-18T18:47:13Z</time>
      </trkpt>
      <trkpt lat="62.708803557369" lon="17.802508349682">
        <ele>66.2</ele>
        <time>2017-10-18T18:47:14Z</time>
      </trkpt>
      <trkpt lat="62.708817806599" lon="17.802708257997">
        <ele>65.4</ele>
        <time>2017-10-18T18:47:15Z</time>
      </trkpt>
      <trkpt lat="62.708830966182" lon="17.802888468847">
        <ele>64.6</ele>
        <time>2017-10-18T18:47:16Z</time>
      </trkpt>
      <trkpt lat="62.708846053602" lon="17.803090640275">
        <ele>64.2</ele>
        <time>2017-10-18T18:47:17Z</time>
      </trkpt>
      <trkpt lat="62.708855022235" lon="17.803268504193">
        <ele>63.6</ele>
        <time>2017-10-18T18:47:18Z</time>
      </trkpt>
      <trkpt lat="62.708868097999" lon="17.803455085287">
        <ele>63.4</ele>
        <time>2017-10-18T18:47:19Z</time>
      </trkpt>
      <trkpt lat="62.708875390252" lon="17.803620879269">
        <ele>63.2</ele>
        <time>2017-10-18T18:47:20Z</time>
      </trkpt>
      <trkpt lat="62.708883772152" lon="17.803764628854">
        <ele>63.2</ele>
        <time>2017-10-18T18:47:21Z</time>
      </trkpt>
      <trkpt lat="62.708895255355" lon="17.803929165551">
        <ele>63.4</ele>
        <time>2017-10-18T18:47:22Z</time>
      </trkpt>
      <trkpt lat="62.708905648911" lon="17.804090014212">
        <ele>63.4</ele>
        <time>2017-10-18T18:47:23Z</time>
      </trkpt>
      <trkpt lat="62.708919479046" lon="17.804253377443">
        <ele>63.6</ele>
        <time>2017-10-18T18:47:24Z</time>
      </trkpt>
      <trkpt lat="62.708926184566" lon="17.804400898883">
        <ele>63.6</ele>
        <time>2017-10-18T18:47:25Z</time>
      </trkpt>
      <trkpt lat="62.708937332493" lon="17.804554371472">
        <ele>63.8</ele>
        <time>2017-10-18T18:47:26Z</time>
      </trkpt>
      <trkpt lat="62.70894931861" lon="17.804702814921">
        <ele>63.6</ele>
        <time>2017-10-18T18:47:27Z</time>
      </trkpt>
      <trkpt lat="62.708960298899" lon="17.804827621412">
        <ele>63.6</ele>
        <time>2017-10-18T18:47:28Z</time>
      </trkpt>
      <trkpt lat="62.708972368835" lon="17.804975478128">
        <ele>63.8</ele>
        <time>2017-10-18T18:47:29Z</time>
      </trkpt>
      <trkpt lat="62.708982259477" lon="17.805110761994">
        <ele>63.8</ele>
        <time>2017-10-18T18:47:30Z</time>
      </trkpt>
      <trkpt lat="62.708991395748" lon="17.805245626765">
        <ele>63.8</ele>
        <time>2017-10-18T18:47:31Z</time>
      </trkpt>
      <trkpt lat="62.70900296277" lon="17.805384431029">
        <ele>63.8</ele>
        <time>2017-10-18T18:47:32Z</time>
      </trkpt>
      <trkpt lat="62.709013440145" lon="17.805519128162">
        <ele>63.8</ele>
        <time>2017-10-18T18:47:33Z</time>
      </trkpt>
      <trkpt lat="62.709025510081" lon="17.805665643774">
        <ele>63.6</ele>
        <time>2017-10-18T18:47:34Z</time>
      </trkpt>
      <trkpt lat="62.70903816675" lon="17.805825821883">
        <ele>63.6</ele>
        <time>2017-10-18T18:47:35Z</time>
      </trkpt>
      <trkpt lat="62.709049649953" lon="17.805976193169">
        <ele>63.4</ele>
        <time>2017-10-18T18:47:36Z</time>
      </trkpt>
      <trkpt lat="62.709060965518" lon="17.806129079025">
        <ele>63.2</ele>
        <time>2017-10-18T18:47:37Z</time>
      </trkpt>
      <trkpt lat="62.709070101789" lon="17.806275007904">
        <ele>62.8</ele>
        <time>2017-10-18T18:47:38Z</time>
      </trkpt>
      <trkpt lat="62.709081920268" lon="17.806439293144">
        <ele>62.2</ele>
        <time>2017-10-18T18:47:39Z</time>
      </trkpt>
      <trkpt lat="62.709093571109" lon="17.80658714986">
        <ele>61.6</ele>
        <time>2017-10-18T18:47:40Z</time>
      </trkpt>
      <trkpt lat="62.709107652701" lon="17.806757386249">
        <ele>61.2</ele>
        <time>2017-10-18T18:47:41Z</time>
      </trkpt>
      <trkpt lat="62.709120560827" lon="17.806923096412">
        <ele>60.8</ele>
        <time>2017-10-18T18:47:42Z</time>
      </trkpt>
      <trkpt lat="62.709132379306" lon="17.807080927589">
        <ele>60.6</ele>
        <time>2017-10-18T18:47:43Z</time>
      </trkpt>
      <trkpt lat="62.70914713145" lon="17.807262060448">
        <ele>60.4</ele>
        <time>2017-10-18T18:47:44Z</time>
      </trkpt>
      <trkpt lat="62.709160123395" lon="17.807428357344">
        <ele>60</ele>
        <time>2017-10-18T18:47:45Z</time>
      </trkpt>
      <trkpt lat="62.709171271322" lon="17.807576549336">
        <ele>59.6</ele>
        <time>2017-10-18T18:47:46Z</time>
      </trkpt>
      <trkpt lat="62.709182754525" lon="17.807740247843">
        <ele>59.4</ele>
        <time>2017-10-18T18:47:47Z</time>
      </trkpt>
      <trkpt lat="62.709192058434" lon="17.807875866985">
        <ele>59.4</ele>
        <time>2017-10-18T18:47:48Z</time>
      </trkpt>
      <trkpt lat="62.709202368171" lon="17.808015509439">
        <ele>59.4</ele>
        <time>2017-10-18T18:47:49Z</time>
      </trkpt>
      <trkpt lat="62.70921167208" lon="17.808139813016">
        <ele>59.4</ele>
        <time>2017-10-18T18:47:50Z</time>
      </trkpt>
      <trkpt lat="62.709219131971" lon="17.808256740521">
        <ele>59.8</ele>
        <time>2017-10-18T18:47:51Z</time>
      </trkpt>
      <trkpt lat="62.709225250758" lon="17.80835908352">
        <ele>60</ele>
        <time>2017-10-18T18:47:52Z</time>
      </trkpt>
      <trkpt lat="62.709232710649" lon="17.808469054048">
        <ele>60.2</ele>
        <time>2017-10-18T18:47:53Z</time>
      </trkpt>
      <trkpt lat="62.709240421997" lon="17.808578940757">
        <ele>60.6</ele>
        <time>2017-10-18T18:47:54Z</time>
      </trkpt>
      <trkpt lat="62.709247378974" lon="17.808682205765">
        <ele>61</ele>
        <time>2017-10-18T18:47:55Z</time>
      </trkpt>
      <trkpt lat="62.709256347607" lon="17.808782034194">
        <ele>61.2</ele>
        <time>2017-10-18T18:47:56Z</time>
      </trkpt>
      <trkpt lat="62.709266238249" lon="17.808883119908">
        <ele>61.4</ele>
        <time>2017-10-18T18:47:57Z</time>
      </trkpt>
      <trkpt lat="62.709274787787" lon="17.80897599136">
        <ele>61.6</ele>
        <time>2017-10-18T18:47:58Z</time>
      </trkpt>
      <trkpt lat="62.709283421144" lon="17.809093002684">
        <ele>61.8</ele>
        <time>2017-10-18T18:47:59Z</time>
      </trkpt>
      <trkpt lat="62.709290545759" lon="17.809198279348">
        <ele>62</ele>
        <time>2017-10-18T18:48:00Z</time>
      </trkpt>
      <trkpt lat="62.709298508564" lon="17.809306405858">
        <ele>62.2</ele>
        <time>2017-10-18T18:48:01Z</time>
      </trkpt>
      <trkpt lat="62.709305884636" lon="17.809413610359">
        <ele>62.2</ele>
        <time>2017-10-18T18:48:02Z</time>
      </trkpt>
      <trkpt lat="62.709312590156" lon="17.809513103512">
        <ele>62.6</ele>
        <time>2017-10-18T18:48:03Z</time>
      </trkpt>
      <trkpt lat="62.709319714771" lon="17.809616619977">
        <ele>62.8</ele>
        <time>2017-10-18T18:48:04Z</time>
      </trkpt>
      <trkpt lat="62.709327426119" lon="17.809724830306">
        <ele>62.8</ele>
        <time>2017-10-18T18:48:05Z</time>
      </trkpt>
      <trkpt lat="62.70933488601" lon="17.809824826373">
        <ele>62.8</ele>
        <time>2017-10-18T18:48:06Z</time>
      </trkpt>
      <trkpt lat="62.709341088616" lon="17.809921721137">
        <ele>63</ele>
        <time>2017-10-18T18:48:07Z</time>
      </trkpt>
      <trkpt lat="62.709347123584" lon="17.81000696506">
        <ele>63</ele>
        <time>2017-10-18T18:48:08Z</time>
      </trkpt>
      <trkpt lat="62.709353829104" lon="17.810101429073">
        <ele>63.2</ele>
        <time>2017-10-18T18:48:09Z</time>
      </trkpt>
      <trkpt lat="62.709359361158" lon="17.810180805666">
        <ele>63.6</ele>
        <time>2017-10-18T18:48:10Z</time>
      </trkpt>
      <trkpt lat="62.709366821049" lon="17.810266301046">
        <ele>63.8</ele>
        <time>2017-10-18T18:48:11Z</time>
      </trkpt>
      <trkpt lat="62.70937260456" lon="17.810343665983">
        <ele>64</ele>
        <time>2017-10-18T18:48:12Z</time>
      </trkpt>
      <trkpt lat="62.709376292596" lon="17.810413319572">
        <ele>64.4</ele>
        <time>2017-10-18T18:48:13Z</time>
      </trkpt>
      <trkpt lat="62.70938098646" lon="17.810489846319">
        <ele>64.6</ele>
        <time>2017-10-18T18:48:14Z</time>
      </trkpt>
      <trkpt lat="62.709386099419" lon="17.810564445229">
        <ele>64.8</ele>
        <time>2017-10-18T18:48:15Z</time>
      </trkpt>
      <trkpt lat="62.709389535998" lon="17.810634601732">
        <ele>65</ele>
        <time>2017-10-18T18:48:16Z</time>
      </trkpt>
      <trkpt lat="62.709393894586" lon="17.810711631393">
        <ele>65.2</ele>
        <time>2017-10-18T18:48:17Z</time>
      </trkpt>
      <trkpt lat="62.709397582622" lon="17.810780698249">
        <ele>65.4</ele>
        <time>2017-10-18T18:48:18Z</time>
      </trkpt>
      <trkpt lat="62.709402192667" lon="17.810857141177">
        <ele>65.8</ele>
        <time>2017-10-18T18:48:19Z</time>
      </trkpt>
      <trkpt lat="62.70940780854" lon="17.810926627128">
        <ele>66</ele>
        <time>2017-10-18T18:48:20Z</time>
      </trkpt>
      <trkpt lat="62.709412586223" lon="17.810997202726">
        <ele>66.4</ele>
        <time>2017-10-18T18:48:21Z</time>
      </trkpt>
      <trkpt lat="62.709416525716" lon="17.811061994813">
        <ele>66.6</ele>
        <time>2017-10-18T18:48:22Z</time>
      </trkpt>
      <trkpt lat="62.70942038139" lon="17.811130894031">
        <ele>67</ele>
        <time>2017-10-18T18:48:23Z</time>
      </trkpt>
      <trkpt lat="62.709423817969" lon="17.81120390038">
        <ele>67.4</ele>
        <time>2017-10-18T18:48:24Z</time>
      </trkpt>
      <trkpt lat="62.709426416358" lon="17.811272883417">
        <ele>67.8</ele>
        <time>2017-10-18T18:48:25Z</time>
      </trkpt>
      <trkpt lat="62.709428930928" lon="17.811342117911">
        <ele>68.2</ele>
        <time>2017-10-18T18:48:26Z</time>
      </trkpt>
      <trkpt lat="62.709432283688" lon="17.811412777328">
        <ele>68.6</ele>
        <time>2017-10-18T18:48:27Z</time>
      </trkpt>
      <trkpt lat="62.709435049715" lon="17.811479329614">
        <ele>69</ele>
        <time>2017-10-18T18:48:28Z</time>
      </trkpt>
      <trkpt lat="62.709438486294" lon="17.811564070623">
        <ele>69.2</ele>
        <time>2017-10-18T18:48:29Z</time>
      </trkpt>
      <trkpt lat="62.709440665588" lon="17.811639172447">
        <ele>69.4</ele>
        <time>2017-10-18T18:48:30Z</time>
      </trkpt>
      <trkpt lat="62.709443431615" lon="17.811714609547">
        <ele>69.6</ele>
        <time>2017-10-18T18:48:31Z</time>
      </trkpt>
      <trkpt lat="62.709447035832" lon="17.811792225941">
        <ele>70</ele>
        <time>2017-10-18T18:48:32Z</time>
      </trkpt>
      <trkpt lat="62.709447454927" lon="17.811864310281">
        <ele>70</ele>
        <time>2017-10-18T18:48:33Z</time>
      </trkpt>
      <trkpt lat="62.709448209298" lon="17.811941926675">
        <ele>70.2</ele>
        <time>2017-10-18T18:48:34Z</time>
      </trkpt>
      <trkpt lat="62.709449047488" lon="17.812027924969">
        <ele>70.4</ele>
        <time>2017-10-18T18:48:35Z</time>
      </trkpt>
      <trkpt lat="62.709448796031" lon="17.812109732313">
        <ele>70.6</ele>
        <time>2017-10-18T18:48:36Z</time>
      </trkpt>
      <trkpt lat="62.709447706384" lon="17.812194305684">
        <ele>70.8</ele>
        <time>2017-10-18T18:48:37Z</time>
      </trkpt>
      <trkpt lat="62.70944636528" lon="17.812273766096">
        <ele>70.8</ele>
        <time>2017-10-18T18:48:38Z</time>
      </trkpt>
      <trkpt lat="62.709444940357" lon="17.812364625892">
        <ele>70.8</ele>
        <time>2017-10-18T18:48:39Z</time>
      </trkpt>
      <trkpt lat="62.709443515434" lon="17.812444840675">
        <ele>71</ele>
        <time>2017-10-18T18:48:40Z</time>
      </trkpt>
      <trkpt lat="62.709442258149" lon="17.812537712127">
        <ele>71.2</ele>
        <time>2017-10-18T18:48:41Z</time>
      </trkpt>
      <trkpt lat="62.709441252321" lon="17.812623878059">
        <ele>71.2</ele>
        <time>2017-10-18T18:48:42Z</time>
      </trkpt>
      <trkpt lat="62.709439492122" lon="17.812706355955">
        <ele>71.2</ele>
        <time>2017-10-18T18:48:43Z</time>
      </trkpt>
      <trkpt lat="62.70943882157" lon="17.812801741977">
        <ele>71.4</ele>
        <time>2017-10-18T18:48:44Z</time>
      </trkpt>
      <trkpt lat="62.709438234837" lon="17.812892937049">
        <ele>71.4</ele>
        <time>2017-10-18T18:48:45Z</time>
      </trkpt>
      <trkpt lat="62.709436474638" lon="17.812975247307">
        <ele>71.4</ele>
        <time>2017-10-18T18:48:46Z</time>
      </trkpt>
      <trkpt lat="62.709433289516" lon="17.813065939465">
        <ele>71.6</ele>
        <time>2017-10-18T18:48:47Z</time>
      </trkpt>
      <trkpt lat="62.709430858765" lon="17.813143388221">
        <ele>71.6</ele>
        <time>2017-10-18T18:48:48Z</time>
      </trkpt>
      <trkpt lat="62.709428595652" lon="17.813231817266">
        <ele>71.6</ele>
        <time>2017-10-18T18:48:49Z</time>
      </trkpt>
      <trkpt lat="62.709427003091" lon="17.813314965714">
        <ele>71.6</ele>
        <time>2017-10-18T18:48:50Z</time>
      </trkpt>
      <trkpt lat="62.70942541053" lon="17.813398952352">
        <ele>71.6</ele>
        <time>2017-10-18T18:48:51Z</time>
      </trkpt>
      <trkpt lat="62.709422560684" lon="17.813476820203">
        <ele>71.6</ele>
        <time>2017-10-18T18:48:52Z</time>
      </trkpt>
      <trkpt lat="62.709417531544" lon="17.813560303927">
        <ele>71.8</ele>
        <time>2017-10-18T18:48:53Z</time>
      </trkpt>
      <trkpt lat="62.70941283768" lon="17.813646972773">
        <ele>71.8</ele>
        <time>2017-10-18T18:48:54Z</time>
      </trkpt>
      <trkpt lat="62.70940948492" lon="17.81372685228">
        <ele>71.8</ele>
        <time>2017-10-18T18:48:55Z</time>
      </trkpt>
      <trkpt lat="62.709405461608" lon="17.81381067128">
        <ele>71.8</ele>
        <time>2017-10-18T18:48:56Z</time>
      </trkpt>
      <trkpt lat="62.70940110302" lon="17.813892981538">
        <ele>71.8</ele>
        <time>2017-10-18T18:48:57Z</time>
      </trkpt>
      <trkpt lat="62.709394900414" lon="17.813966490801">
        <ele>71.8</ele>
        <time>2017-10-18T18:48:58Z</time>
      </trkpt>
      <trkpt lat="62.709387356704" lon="17.814061206271">
        <ele>71.8</ele>
        <time>2017-10-18T18:48:59Z</time>
      </trkpt>
      <trkpt lat="62.709382327564" lon="17.814141504873">
        <ele>71.8</ele>
        <time>2017-10-18T18:49:00Z</time>
      </trkpt>
      <trkpt lat="62.70937595732" lon="17.814235549791">
        <ele>71.8</ele>
        <time>2017-10-18T18:49:01Z</time>
      </trkpt>
      <trkpt lat="62.709370509085" lon="17.814322470094">
        <ele>71.8</ele>
        <time>2017-10-18T18:49:02Z</time>
      </trkpt>
      <trkpt lat="62.709364725574" lon="17.814402936334">
        <ele>71.8</ele>
        <time>2017-10-18T18:49:03Z</time>
      </trkpt>
      <trkpt lat="62.709357936235" lon="17.814488683171">
        <ele>71.8</ele>
        <time>2017-10-18T18:49:04Z</time>
      </trkpt>
      <trkpt lat="62.709349470516" lon="17.814582728089">
        <ele>71.8</ele>
        <time>2017-10-18T18:49:05Z</time>
      </trkpt>
      <trkpt lat="62.709341507711" lon="17.814666127994">
        <ele>71.8</ele>
        <time>2017-10-18T18:49:06Z</time>
      </trkpt>
      <trkpt lat="62.709333377268" lon="17.814750114632">
        <ele>72</ele>
        <time>2017-10-18T18:49:07Z</time>
      </trkpt>
      <trkpt lat="62.709325498282" lon="17.81482907213">
        <ele>72</ele>
        <time>2017-10-18T18:49:08Z</time>
      </trkpt>
      <trkpt lat="62.709318541305" lon="17.814915489519">
        <ele>72</ele>
        <time>2017-10-18T18:49:09Z</time>
      </trkpt>
      <trkpt lat="62.709312673975" lon="17.814990172248">
        <ele>72.2</ele>
        <time>2017-10-18T18:49:10Z</time>
      </trkpt>
      <trkpt lat="62.70930471117" lon="17.815074913257">
        <ele>72.2</ele>
        <time>2017-10-18T18:49:11Z</time>
      </trkpt>
      <trkpt lat="62.709296748365" lon="17.815153535479">
        <ele>72.2</ele>
        <time>2017-10-18T18:49:12Z</time>
      </trkpt>
      <trkpt lat="62.709287360637" lon="17.815228134389">
        <ele>72.2</ele>
        <time>2017-10-18T18:49:13Z</time>
      </trkpt>
      <trkpt lat="62.709277218538" lon="17.81531103138">
        <ele>72.2</ele>
        <time>2017-10-18T18:49:14Z</time>
      </trkpt>
      <trkpt lat="62.709268501362" lon="17.815384121548">
        <ele>72.2</ele>
        <time>2017-10-18T18:49:15Z</time>
      </trkpt>
      <trkpt lat="62.709258023987" lon="17.815464168693">
        <ele>72.2</ele>
        <time>2017-10-18T18:49:16Z</time>
      </trkpt>
      <trkpt lat="62.709246373146" lon="17.815552765376">
        <ele>72.2</ele>
        <time>2017-10-18T18:49:17Z</time>
      </trkpt>
      <trkpt lat="62.709234470848" lon="17.815634321263">
        <ele>72.2</ele>
        <time>2017-10-18T18:49:18Z</time>
      </trkpt>
      <trkpt lat="62.709220473075" lon="17.815731970398">
        <ele>72.2</ele>
        <time>2017-10-18T18:49:19Z</time>
      </trkpt>
      <trkpt lat="62.709206559121" lon="17.815827607877">
        <ele>72.2</ele>
        <time>2017-10-18T18:49:20Z</time>
      </trkpt>
      <trkpt lat="62.70919155552" lon="17.815927268668">
        <ele>72.2</ele>
        <time>2017-10-18T18:49:21Z</time>
      </trkpt>
      <trkpt lat="62.709176887195" lon="17.816022319414">
        <ele>72</ele>
        <time>2017-10-18T18:49:22Z</time>
      </trkpt>
      <trkpt lat="62.709160626309" lon="17.816127679897">
        <ele>71.8</ele>
        <time>2017-10-18T18:49:23Z</time>
      </trkpt>
      <trkpt lat="62.709143694871" lon="17.816242344289">
        <ele>71.8</ele>
        <time>2017-10-18T18:49:24Z</time>
      </trkpt>
      <trkpt lat="62.709127266347" lon="17.816352650093">
        <ele>71.8</ele>
        <time>2017-10-18T18:49:25Z</time>
      </trkpt>
      <trkpt lat="62.709108742348" lon="17.81646438082">
        <ele>71.6</ele>
        <time>2017-10-18T18:49:26Z</time>
      </trkpt>
      <trkpt lat="62.709090302168" lon="17.816579129031">
        <ele>71.6</ele>
        <time>2017-10-18T18:49:27Z</time>
      </trkpt>
      <trkpt lat="62.709073789825" lon="17.816680466202">
        <ele>71.4</ele>
        <time>2017-10-18T18:49:28Z</time>
      </trkpt>
      <trkpt lat="62.709052499799" lon="17.816814073688">
        <ele>71</ele>
        <time>2017-10-18T18:49:29Z</time>
      </trkpt>
      <trkpt lat="62.709034059619" lon="17.816924379492">
        <ele>71</ele>
        <time>2017-10-18T18:49:30Z</time>
      </trkpt>
      <trkpt lat="62.709012769593" lon="17.817053376933">
        <ele>70.8</ele>
        <time>2017-10-18T18:49:31Z</time>
      </trkpt>
      <trkpt lat="62.7089920663" lon="17.817176087949">
        <ele>70.4</ele>
        <time>2017-10-18T18:49:32Z</time>
      </trkpt>
      <trkpt lat="62.708971782102" lon="17.817287902495">
        <ele>70.4</ele>
        <time>2017-10-18T18:49:33Z</time>
      </trkpt>
      <trkpt lat="62.70895099499" lon="17.817406757837">
        <ele>70.2</ele>
        <time>2017-10-18T18:49:34Z</time>
      </trkpt>
      <trkpt lat="62.708929621145" lon="17.817537012563">
        <ele>70</ele>
        <time>2017-10-18T18:49:35Z</time>
      </trkpt>
      <trkpt lat="62.708909504585" lon="17.817659891217">
        <ele>70</ele>
        <time>2017-10-18T18:49:36Z</time>
      </trkpt>
      <trkpt lat="62.708888633654" lon="17.817785954993">
        <ele>69.8</ele>
        <time>2017-10-18T18:49:37Z</time>
      </trkpt>
      <trkpt lat="62.708869774379" lon="17.817888046535">
        <ele>69.6</ele>
        <time>2017-10-18T18:49:38Z</time>
      </trkpt>
      <trkpt lat="62.708839348082" lon="17.818050320119">
        <ele>69.2</ele>
        <time>2017-10-18T18:49:39Z</time>
      </trkpt>
      <trkpt lat="62.708812945097" lon="17.818190130211">
        <ele>69</ele>
        <time>2017-10-18T18:49:40Z</time>
      </trkpt>
      <trkpt lat="62.708785117189" lon="17.818338406022">
        <ele>68.6</ele>
        <time>2017-10-18T18:49:41Z</time>
      </trkpt>
      <trkpt lat="62.708755193806" lon="17.818493471172">
        <ele>68.2</ele>
        <time>2017-10-18T18:49:42Z</time>
      </trkpt>
      <trkpt lat="62.708726695346" lon="17.818638226585">
        <ele>67.8</ele>
        <time>2017-10-18T18:49:43Z</time>
      </trkpt>
      <trkpt lat="62.708693503022" lon="17.818803601472">
        <ele>67.6</ele>
        <time>2017-10-18T18:49:44Z</time>
      </trkpt>
      <trkpt lat="62.708662825268" lon="17.818955062405">
        <ele>67.2</ele>
        <time>2017-10-18T18:49:45Z</time>
      </trkpt>
      <trkpt lat="62.70862913003" lon="17.819120940206">
        <ele>66.4</ele>
        <time>2017-10-18T18:49:46Z</time>
      </trkpt>
      <trkpt lat="62.708591579118" lon="17.819301067237">
        <ele>65.4</ele>
        <time>2017-10-18T18:49:47Z</time>
      </trkpt>
      <trkpt lat="62.708555536948" lon="17.819469459608">
        <ele>64.6</ele>
        <time>2017-10-18T18:49:48Z</time>
      </trkpt>
      <trkpt lat="62.708516142018" lon="17.819642378205">
        <ele>63.6</ele>
        <time>2017-10-18T18:49:49Z</time>
      </trkpt>
      <trkpt lat="62.7084807704" lon="17.819800041744">
        <ele>62.6</ele>
        <time>2017-10-18T18:49:50Z</time>
      </trkpt>
      <trkpt lat="62.708440872556" lon="17.819972289789">
        <ele>61.8</ele>
        <time>2017-10-18T18:49:51Z</time>
      </trkpt>
      <trkpt lat="62.708401561445" lon="17.820131964984">
        <ele>60.8</ele>
        <time>2017-10-18T18:49:52Z</time>
      </trkpt>
      <trkpt lat="62.708355125719" lon="17.820319300449">
        <ele>60</ele>
        <time>2017-10-18T18:49:53Z</time>
      </trkpt>
      <trkpt lat="62.708309444364" lon="17.820501522955">
        <ele>59.2</ele>
        <time>2017-10-18T18:49:54Z</time>
      </trkpt>
      <trkpt lat="62.708266612855" lon="17.820669496231">
        <ele>58.4</ele>
        <time>2017-10-18T18:49:55Z</time>
      </trkpt>
      <trkpt lat="62.708224870993" lon="17.820828668512">
        <ele>57.4</ele>
        <time>2017-10-18T18:49:56Z</time>
      </trkpt>
      <trkpt lat="62.708178016172" lon="17.821003012032">
        <ele>56.6</ele>
        <time>2017-10-18T18:49:57Z</time>
      </trkpt>
      <trkpt lat="62.708138285966" lon="17.821153048042">
        <ele>56</ele>
        <time>2017-10-18T18:49:58Z</time>
      </trkpt>
      <trkpt lat="62.708087156376" lon="17.821347256665">
        <ele>55.2</ele>
        <time>2017-10-18T18:49:59Z</time>
      </trkpt>
      <trkpt lat="62.708046252704" lon="17.821503411462">
        <ele>54.4</ele>
        <time>2017-10-18T18:50:00Z</time>
      </trkpt>
      <trkpt lat="62.708001996272" lon="17.821673144937">
        <ele>53.6</ele>
        <time>2017-10-18T18:50:01Z</time>
      </trkpt>
      <trkpt lat="62.707956985469" lon="17.821844973887">
        <ele>52.8</ele>
        <time>2017-10-18T18:50:02Z</time>
      </trkpt>
      <trkpt lat="62.707915578883" lon="17.822001380141">
        <ele>52.2</ele>
        <time>2017-10-18T18:50:03Z</time>
      </trkpt>
      <trkpt lat="62.707871573908" lon="17.822166168295">
        <ele>51.4</ele>
        <time>2017-10-18T18:50:04Z</time>
      </trkpt>
      <trkpt lat="62.707824719087" lon="17.822344032213">
        <ele>50.8</ele>
        <time>2017-10-18T18:50:05Z</time>
      </trkpt>
      <trkpt lat="62.707781133207" lon="17.822507060168">
        <ele>49.8</ele>
        <time>2017-10-18T18:50:06Z</time>
      </trkpt>
      <trkpt lat="62.707737966422" lon="17.822669417571">
        <ele>48.6</ele>
        <time>2017-10-18T18:50:07Z</time>
      </trkpt>
      <trkpt lat="62.707698403854" lon="17.822819788857">
        <ele>48</ele>
        <time>2017-10-18T18:50:08Z</time>
      </trkpt>
      <trkpt lat="62.707655739983" lon="17.822985415201">
        <ele>46.6</ele>
        <time>2017-10-18T18:50:09Z</time>
      </trkpt>
      <trkpt lat="62.707618105252" lon="17.823131679356">
        <ele>45.8</ele>
        <time>2017-10-18T18:50:10Z</time>
      </trkpt>
      <trkpt lat="62.707575776657" lon="17.823293450026">
        <ele>45</ele>
        <time>2017-10-18T18:50:11Z</time>
      </trkpt>
      <trkpt lat="62.707535627356" lon="17.823447006434">
        <ele>44.4</ele>
        <time>2017-10-18T18:50:12Z</time>
      </trkpt>
      <trkpt lat="62.707498579358" lon="17.823589079639">
        <ele>43.6</ele>
        <time>2017-10-18T18:50:13Z</time>
      </trkpt>
      <trkpt lat="62.707457172772" lon="17.82374741373">
        <ele>43</ele>
        <time>2017-10-18T18:50:14Z</time>
      </trkpt>
      <trkpt lat="62.707422220249" lon="17.823884290157">
        <ele>42.4</ele>
        <time>2017-10-18T18:50:15Z</time>
      </trkpt>
      <trkpt lat="62.707383998785" lon="17.824037092194">
        <ele>41.6</ele>
        <time>2017-10-18T18:50:16Z</time>
      </trkpt>
      <trkpt lat="62.707343765665" lon="17.824193917543">
        <ele>40.8</ele>
        <time>2017-10-18T18:50:17Z</time>
      </trkpt>
      <trkpt lat="62.707310740979" lon="17.824323166441">
        <ele>40</ele>
        <time>2017-10-18T18:50:18Z</time>
      </trkpt>
      <trkpt lat="62.70727712956" lon="17.824455265185">
        <ele>39.2</ele>
        <time>2017-10-18T18:50:19Z</time>
      </trkpt>
      <trkpt lat="62.707249636928" lon="17.82456213441">
        <ele>38.4</ele>
        <time>2017-10-18T18:50:20Z</time>
      </trkpt>
      <trkpt lat="62.707226921979" lon="17.824653413301">
        <ele>37.6</ele>
        <time>2017-10-18T18:50:21Z</time>
      </trkpt>
      <trkpt lat="62.707208733256" lon="17.824729520953">
        <ele>37.2</ele>
        <time>2017-10-18T18:50:22Z</time>
      </trkpt>
      <trkpt lat="62.707193059103" lon="17.824804706596">
        <ele>36.8</ele>
        <time>2017-10-18T18:50:23Z</time>
      </trkpt>
      <trkpt lat="62.707182162633" lon="17.824881065705">
        <ele>36.2</ele>
        <time>2017-10-18T18:50:24Z</time>
      </trkpt>
      <trkpt lat="62.707182917004" lon="17.82495105457">
        <ele>35.6</ele>
        <time>2017-10-18T18:50:25Z</time>
      </trkpt>
      <trkpt lat="62.707196579501" lon="17.825017942132">
        <ele>35.4</ele>
        <time>2017-10-18T18:50:26Z</time>
      </trkpt>
      <trkpt lat="62.707220384097" lon="17.825072256844">
        <ele>35.2</ele>
        <time>2017-10-18T18:50:27Z</time>
      </trkpt>
      <trkpt lat="62.707247038539" lon="17.825093043956">
        <ele>34.6</ele>
        <time>2017-10-18T18:50:28Z</time>
      </trkpt>
      <trkpt lat="62.707284757089" lon="17.825097570182">
        <ele>34</ele>
        <time>2017-10-18T18:50:29Z</time>
      </trkpt>
      <trkpt lat="62.707315770119" lon="17.825094301241">
        <ele>33.6</ele>
        <time>2017-10-18T18:50:30Z</time>
      </trkpt>
      <trkpt lat="62.707352734298" lon="17.825083823866">
        <ele>33.4</ele>
        <time>2017-10-18T18:50:31Z</time>
      </trkpt>
      <trkpt lat="62.707388776468" lon="17.825070664283">
        <ele>33.6</ele>
        <time>2017-10-18T18:50:32Z</time>
      </trkpt>
      <trkpt lat="62.707421214421" lon="17.825064796953">
        <ele>33.8</ele>
        <time>2017-10-18T18:50:33Z</time>
      </trkpt>
      <trkpt lat="62.70745650222" lon="17.825059600175">
        <ele>34</ele>
        <time>2017-10-18T18:50:34Z</time>
      </trkpt>
      <trkpt lat="62.70749422077" lon="17.82505415194">
        <ele>34.2</ele>
        <time>2017-10-18T18:50:35Z</time>
      </trkpt>
      <trkpt lat="62.70752942475" lon="17.82504660823">
        <ele>34.2</ele>
        <time>2017-10-18T18:50:36Z</time>
      </trkpt>
      <trkpt lat="62.707564544911" lon="17.825039483615">
        <ele>34.2</ele>
        <time>2017-10-18T18:50:37Z</time>
      </trkpt>
      <trkpt lat="62.707597653416" lon="17.825032945733">
        <ele>34.4</ele>
        <time>2017-10-18T18:50:38Z</time>
      </trkpt>
      <trkpt lat="62.707635120509" lon="17.825028419507">
        <ele>34.4</ele>
        <time>2017-10-18T18:50:39Z</time>
      </trkpt>
      <trkpt lat="62.707669067204" lon="17.825026240213">
        <ele>34.6</ele>
        <time>2017-10-18T18:50:40Z</time>
      </trkpt>
      <trkpt lat="62.707707204849" lon="17.825021713987">
        <ele>34.8</ele>
        <time>2017-10-18T18:50:41Z</time>
      </trkpt>
      <trkpt lat="62.707743749933" lon="17.825019367055">
        <ele>35</ele>
        <time>2017-10-18T18:50:42Z</time>
      </trkpt>
      <trkpt lat="62.707777361352" lon="17.825019199417">
        <ele>35</ele>
        <time>2017-10-18T18:50:43Z</time>
      </trkpt>
      <trkpt lat="62.707815415178" lon="17.825021211073">
        <ele>35.2</ele>
        <time>2017-10-18T18:50:44Z</time>
      </trkpt>
      <trkpt lat="62.707849948606" lon="17.825019953788">
        <ele>35.2</ele>
        <time>2017-10-18T18:50:45Z</time>
      </trkpt>
      <trkpt lat="62.707888505346" lon="17.825019115598">
        <ele>35.4</ele>
        <time>2017-10-18T18:50:46Z</time>
      </trkpt>
      <trkpt lat="62.707930331027" lon="17.825018361227">
        <ele>35.4</ele>
        <time>2017-10-18T18:50:47Z</time>
      </trkpt>
      <trkpt lat="62.707967211387" lon="17.825019869969">
        <ele>35.6</ele>
        <time>2017-10-18T18:50:48Z</time>
      </trkpt>
      <trkpt lat="62.708010210534" lon="17.825019199417">
        <ele>35.6</ele>
        <time>2017-10-18T18:50:49Z</time>
      </trkpt>
      <trkpt lat="62.708051700939" lon="17.825019953788">
        <ele>35.8</ele>
        <time>2017-10-18T18:50:50Z</time>
      </trkpt>
      <trkpt lat="62.708093023706" lon="17.82502565348">
        <ele>36</ele>
        <time>2017-10-18T18:50:51Z</time>
      </trkpt>
      <trkpt lat="62.708131580446" lon="17.825028084231">
        <ele>36</ele>
        <time>2017-10-18T18:50:52Z</time>
      </trkpt>
      <trkpt lat="62.708172903213" lon="17.825030431163">
        <ele>36</ele>
        <time>2017-10-18T18:50:53Z</time>
      </trkpt>
      <trkpt lat="62.708215734722" lon="17.825036130855">
        <ele>36</ele>
        <time>2017-10-18T18:50:54Z</time>
      </trkpt>
      <trkpt lat="62.708256722213" lon="17.825041662909">
        <ele>36</ele>
        <time>2017-10-18T18:50:55Z</time>
      </trkpt>
      <trkpt lat="62.708299218446" lon="17.825045602402">
        <ele>36</ele>
        <time>2017-10-18T18:50:56Z</time>
      </trkpt>
      <trkpt lat="62.708342133774" lon="17.82505079918">
        <ele>36</ele>
        <time>2017-10-18T18:50:57Z</time>
      </trkpt>
      <trkpt lat="62.708380355238" lon="17.825057085605">
        <ele>36</ele>
        <time>2017-10-18T18:50:58Z</time>
      </trkpt>
      <trkpt lat="62.708429305534" lon="17.82506169565">
        <ele>36.2</ele>
        <time>2017-10-18T18:50:59Z</time>
      </trkpt>
      <trkpt lat="62.708471634129" lon="17.825067814437">
        <ele>36.2</ele>
        <time>2017-10-18T18:51:00Z</time>
      </trkpt>
      <trkpt lat="62.708519830054" lon="17.825074184681">
        <ele>36.2</ele>
        <time>2017-10-18T18:51:01Z</time>
      </trkpt>
      <trkpt lat="62.708565762866" lon="17.825082315124">
        <ele>36.2</ele>
        <time>2017-10-18T18:51:02Z</time>
      </trkpt>
      <trkpt lat="62.708609516384" lon="17.825088769187">
        <ele>36</ele>
        <time>2017-10-18T18:51:03Z</time>
      </trkpt>
      <trkpt lat="62.708653856635" lon="17.825096983449">
        <ele>36</ele>
        <time>2017-10-18T18:51:04Z</time>
      </trkpt>
      <trkpt lat="62.708701884922" lon="17.825102850779">
        <ele>35.8</ele>
        <time>2017-10-18T18:51:05Z</time>
      </trkpt>
      <trkpt lat="62.708747482458" lon="17.825109053385">
        <ele>35.6</ele>
        <time>2017-10-18T18:51:06Z</time>
      </trkpt>
      <trkpt lat="62.708793331451" lon="17.825116848552">
        <ele>35.6</ele>
        <time>2017-10-18T18:51:07Z</time>
      </trkpt>
      <trkpt lat="62.708836246779" lon="17.82512120714">
        <ele>35.6</ele>
        <time>2017-10-18T18:51:08Z</time>
      </trkpt>
      <trkpt lat="62.708884191247" lon="17.825126906832">
        <ele>35.6</ele>
        <time>2017-10-18T18:51:09Z</time>
      </trkpt>
      <trkpt lat="62.708928447679" lon="17.825133109438">
        <ele>35.6</ele>
        <time>2017-10-18T18:51:10Z</time>
      </trkpt>
      <trkpt lat="62.70897781707" lon="17.825137468026">
        <ele>35.6</ele>
        <time>2017-10-18T18:51:11Z</time>
      </trkpt>
      <trkpt lat="62.709024671891" lon="17.825140988424">
        <ele>35.6</ele>
        <time>2017-10-18T18:51:12Z</time>
      </trkpt>
      <trkpt lat="62.709069012142" lon="17.825146604297">
        <ele>35.4</ele>
        <time>2017-10-18T18:51:13Z</time>
      </trkpt>
      <trkpt lat="62.709119890275" lon="17.825154483283">
        <ele>35.6</ele>
        <time>2017-10-18T18:51:14Z</time>
      </trkpt>
      <trkpt lat="62.709164062888" lon="17.825159596242">
        <ele>35.6</ele>
        <time>2017-10-18T18:51:15Z</time>
      </trkpt>
      <trkpt lat="62.709211252985" lon="17.825166804676">
        <ele>35.4</ele>
        <time>2017-10-18T18:51:16Z</time>
      </trkpt>
      <trkpt lat="62.709261292928" lon="17.825175605671">
        <ele>35.4</ele>
        <time>2017-10-18T18:51:17Z</time>
      </trkpt>
      <trkpt lat="62.709307058102" lon="17.825182730286">
        <ele>35.4</ele>
        <time>2017-10-18T18:51:18Z</time>
      </trkpt>
      <trkpt lat="62.709358271511" lon="17.82519077691">
        <ele>35.2</ele>
        <time>2017-10-18T18:51:19Z</time>
      </trkpt>
      <trkpt lat="62.709405461608" lon="17.825198739715">
        <ele>35.4</ele>
        <time>2017-10-18T18:51:20Z</time>
      </trkpt>
      <trkpt lat="62.709453573714" lon="17.825206199606">
        <ele>35.2</ele>
        <time>2017-10-18T18:51:21Z</time>
      </trkpt>
      <trkpt lat="62.709498416879" lon="17.825213156583">
        <ele>35.2</ele>
        <time>2017-10-18T18:51:22Z</time>
      </trkpt>
      <trkpt lat="62.709546445166" lon="17.8252251427">
        <ele>35.2</ele>
        <time>2017-10-18T18:51:23Z</time>
      </trkpt>
      <trkpt lat="62.709599167317" lon="17.825238050826">
        <ele>35.2</ele>
        <time>2017-10-18T18:51:24Z</time>
      </trkpt>
      <trkpt lat="62.709650548364" lon="17.825246013631">
        <ele>35.2</ele>
        <time>2017-10-18T18:51:25Z</time>
      </trkpt>
      <trkpt lat="62.709703773429" lon="17.825252719151">
        <ele>35</ele>
        <time>2017-10-18T18:51:26Z</time>
      </trkpt>
      <trkpt lat="62.709757585227" lon="17.825262190698">
        <ele>35</ele>
        <time>2017-10-18T18:51:27Z</time>
      </trkpt>
      <trkpt lat="62.709802344573" lon="17.825273003349">
        <ele>35</ele>
        <time>2017-10-18T18:51:28Z</time>
      </trkpt>
      <trkpt lat="62.709863700081" lon="17.825287671674">
        <ele>35</ele>
        <time>2017-10-18T18:51:29Z</time>
      </trkpt>
      <trkpt lat="62.709915248766" lon="17.825296556488">
        <ele>35</ele>
        <time>2017-10-18T18:51:30Z</time>
      </trkpt>
      <trkpt lat="62.709974844075" lon="17.825304938388">
        <ele>34.8</ele>
        <time>2017-10-18T18:51:31Z</time>
      </trkpt>
      <trkpt lat="62.710032427728" lon="17.825311560089">
        <ele>34.8</ele>
        <time>2017-10-18T18:51:32Z</time>
      </trkpt>
      <trkpt lat="62.710087161535" lon="17.825317259781">
        <ele>34.6</ele>
        <time>2017-10-18T18:51:33Z</time>
      </trkpt>
      <trkpt lat="62.710144745188" lon="17.825324552034">
        <ele>34.4</ele>
        <time>2017-10-18T18:51:34Z</time>
      </trkpt>
      <trkpt lat="62.710206687429" lon="17.825334023581">
        <ele>34</ele>
        <time>2017-10-18T18:51:35Z</time>
      </trkpt>
      <trkpt lat="62.710265109272" lon="17.825343578947">
        <ele>33.8</ele>
        <time>2017-10-18T18:51:36Z</time>
      </trkpt>
      <trkpt lat="62.710327470608" lon="17.825351960847">
        <ele>33.6</ele>
        <time>2017-10-18T18:51:37Z</time>
      </trkpt>
      <trkpt lat="62.710383545519" lon="17.825356151797">
        <ele>33.6</ele>
        <time>2017-10-18T18:51:38Z</time>
      </trkpt>
      <trkpt lat="62.710442051181" lon="17.825360761842">
        <ele>33.4</ele>
        <time>2017-10-18T18:51:39Z</time>
      </trkpt>
      <trkpt lat="62.710498629006" lon="17.825368221733">
        <ele>33.4</ele>
        <time>2017-10-18T18:51:40Z</time>
      </trkpt>
      <trkpt lat="62.710560571247" lon="17.825375849262">
        <ele>33.2</ele>
        <time>2017-10-18T18:51:41Z</time>
      </trkpt>
      <trkpt lat="62.710618490176" lon="17.825383309153">
        <ele>33.2</ele>
        <time>2017-10-18T18:51:42Z</time>
      </trkpt>
      <trkpt lat="62.710672385793" lon="17.825389847035">
        <ele>32.8</ele>
        <time>2017-10-18T18:51:43Z</time>
      </trkpt>
      <trkpt lat="62.710733741301" lon="17.825399653858">
        <ele>32.8</ele>
        <time>2017-10-18T18:51:44Z</time>
      </trkpt>
      <trkpt lat="62.710786463452" lon="17.825407700482">
        <ele>32.8</ele>
        <time>2017-10-18T18:51:45Z</time>
      </trkpt>
      <trkpt lat="62.710843125096" lon="17.825415160373">
        <ele>32.8</ele>
        <time>2017-10-18T18:51:46Z</time>
      </trkpt>
      <trkpt lat="62.710902888043" lon="17.825423458454">
        <ele>32.6</ele>
        <time>2017-10-18T18:51:47Z</time>
      </trkpt>
      <trkpt lat="62.710956951298" lon="17.825431924173">
        <ele>32.6</ele>
        <time>2017-10-18T18:51:48Z</time>
      </trkpt>
      <trkpt lat="62.711016965702" lon="17.825439886978">
        <ele>32.4</ele>
        <time>2017-10-18T18:51:49Z</time>
      </trkpt>
      <trkpt lat="62.71107496845" lon="17.825447179231">
        <ele>32.6</ele>
        <time>2017-10-18T18:51:50Z</time>
      </trkpt>
      <trkpt lat="62.711132468284" lon="17.825455393493">
        <ele>32.4</ele>
        <time>2017-10-18T18:51:51Z</time>
      </trkpt>
      <trkpt lat="62.711187369729" lon="17.82546486504">
        <ele>32.2</ele>
        <time>2017-10-18T18:51:52Z</time>
      </trkpt>
      <trkpt lat="62.7112467974" lon="17.825481125926">
        <ele>32.2</ele>
        <time>2017-10-18T18:51:53Z</time>
      </trkpt>
      <trkpt lat="62.711308991098" lon="17.825499147011">
        <ele>32.2</ele>
        <time>2017-10-18T18:51:54Z</time>
      </trkpt>
      <trkpt lat="62.711362635258" lon="17.825513144784">
        <ele>32.2</ele>
        <time>2017-10-18T18:51:55Z</time>
      </trkpt>
      <trkpt lat="62.711419045445" lon="17.825532087878">
        <ele>32</ele>
        <time>2017-10-18T18:51:56Z</time>
      </trkpt>
      <trkpt lat="62.711472941062" lon="17.825552539714">
        <ele>32</ele>
        <time>2017-10-18T18:51:57Z</time>
      </trkpt>
      <trkpt lat="62.711519628245" lon="17.825573075369">
        <ele>32.2</ele>
        <time>2017-10-18T18:51:58Z</time>
      </trkpt>
      <trkpt lat="62.71157872064" lon="17.82560149001">
        <ele>32.2</ele>
        <time>2017-10-18T18:51:59Z</time>
      </trkpt>
      <trkpt lat="62.711627084203" lon="17.825625294606">
        <ele>32.2</ele>
        <time>2017-10-18T18:52:00Z</time>
      </trkpt>
      <trkpt lat="62.711681901829" lon="17.825653373971">
        <ele>32.4</ele>
        <time>2017-10-18T18:52:01Z</time>
      </trkpt>
      <trkpt lat="62.711732193229" lon="17.825683716449">
        <ele>32.4</ele>
        <time>2017-10-18T18:52:02Z</time>
      </trkpt>
      <trkpt lat="62.711778796593" lon="17.825713891289">
        <ele>32.4</ele>
        <time>2017-10-18T18:52:03Z</time>
      </trkpt>
      <trkpt lat="62.711825819052" lon="17.825744652862">
        <ele>32.6</ele>
        <time>2017-10-18T18:52:04Z</time>
      </trkpt>
      <trkpt lat="62.711874014977" lon="17.825774324788">
        <ele>32.8</ele>
        <time>2017-10-18T18:52:05Z</time>
      </trkpt>
      <trkpt lat="62.711915505382" lon="17.825806511284">
        <ele>33</ele>
        <time>2017-10-18T18:52:06Z</time>
      </trkpt>
      <trkpt lat="62.711954732674" lon="17.825841715264">
        <ele>33.4</ele>
        <time>2017-10-18T18:52:07Z</time>
      </trkpt>
      <trkpt lat="62.711991529215" lon="17.825874153217">
        <ele>33.6</ele>
        <time>2017-10-18T18:52:08Z</time>
      </trkpt>
      <trkpt lat="62.712031175602" lon="17.825911452672">
        <ele>33.8</ele>
        <time>2017-10-18T18:52:09Z</time>
      </trkpt>
      <trkpt lat="62.712065960487" lon="17.82594179515">
        <ele>34</ele>
        <time>2017-10-18T18:52:10Z</time>
      </trkpt>
      <trkpt lat="62.712105020141" lon="17.825972137628">
        <ele>34.2</ele>
        <time>2017-10-18T18:52:11Z</time>
      </trkpt>
      <trkpt lat="62.712141397587" lon="17.826005665228">
        <ele>34.6</ele>
        <time>2017-10-18T18:52:12Z</time>
      </trkpt>
      <trkpt lat="62.712175176644" lon="17.826037851724">
        <ele>34.8</ele>
        <time>2017-10-18T18:52:13Z</time>
      </trkpt>
      <trkpt lat="62.71221239228" lon="17.826073810075">
        <ele>35</ele>
        <time>2017-10-18T18:52:14Z</time>
      </trkpt>
      <trkpt lat="62.712244746414" lon="17.826107589132">
        <ele>35.2</ele>
        <time>2017-10-18T18:52:15Z</time>
      </trkpt>
      <trkpt lat="62.71227860929" lon="17.826142038741">
        <ele>35.6</ele>
        <time>2017-10-18T18:52:16Z</time>
      </trkpt>
      <trkpt lat="62.712315070555" lon="17.826178667644">
        <ele>35.8</ele>
        <time>2017-10-18T18:52:17Z</time>
      </trkpt>
      <trkpt lat="62.712346586499" lon="17.826213033434">
        <ele>35.8</ele>
        <time>2017-10-18T18:52:18Z</time>
      </trkpt>
      <trkpt lat="62.71238254485" lon="17.826255362029">
        <ele>36.2</ele>
        <time>2017-10-18T18:52:19Z</time>
      </trkpt>
      <trkpt lat="62.712417245916" lon="17.826296684796">
        <ele>36.2</ele>
        <time>2017-10-18T18:52:20Z</time>
      </trkpt>
      <trkpt lat="62.712451444068" lon="17.826336247364">
        <ele>36.4</ele>
        <time>2017-10-18T18:52:21Z</time>
      </trkpt>
      <trkpt lat="62.712484301116" lon="17.826375642294">
        <ele>36.4</ele>
        <time>2017-10-18T18:52:22Z</time>
      </trkpt>
      <trkpt lat="62.712519421277" lon="17.826420317821">
        <ele>36.6</ele>
        <time>2017-10-18T18:52:23Z</time>
      </trkpt>
      <trkpt lat="62.71255688837" lon="17.826469938669">
        <ele>36.6</ele>
        <time>2017-10-18T18:52:24Z</time>
      </trkpt>
      <trkpt lat="62.712591757074" lon="17.826518888965">
        <ele>36.6</ele>
        <time>2017-10-18T18:52:25Z</time>
      </trkpt>
      <trkpt lat="62.712627463968" lon="17.826569180365">
        <ele>36.6</ele>
        <time>2017-10-18T18:52:26Z</time>
      </trkpt>
      <trkpt lat="62.712664428147" lon="17.826622489249">
        <ele>36.8</ele>
        <time>2017-10-18T18:52:27Z</time>
      </trkpt>
      <trkpt lat="62.712695776453" lon="17.826670266079">
        <ele>36.8</ele>
        <time>2017-10-18T18:52:28Z</time>
      </trkpt>
      <trkpt lat="62.712736344849" lon="17.826737405098">
        <ele>36.8</ele>
        <time>2017-10-18T18:52:29Z</time>
      </trkpt>
      <trkpt lat="62.71277062682" lon="17.826795240208">
        <ele>36.8</ele>
        <time>2017-10-18T18:52:30Z</time>
      </trkpt>
      <trkpt lat="62.71281169813" lon="17.826862798322">
        <ele>36.6</ele>
        <time>2017-10-18T18:52:31Z</time>
      </trkpt>
      <trkpt lat="62.712851679793" lon="17.826928763875">
        <ele>36.6</ele>
        <time>2017-10-18T18:52:32Z</time>
      </trkpt>
      <trkpt lat="62.712889398343" lon="17.826993136867">
        <ele>36.4</ele>
        <time>2017-10-18T18:52:33Z</time>
      </trkpt>
      <trkpt lat="62.712928374178" lon="17.827065305026">
        <ele>36.2</ele>
        <time>2017-10-18T18:52:34Z</time>
      </trkpt>
      <trkpt lat="62.712969026393" lon="17.827146441818">
        <ele>36.2</ele>
        <time>2017-10-18T18:52:35Z</time>
      </trkpt>
      <trkpt lat="62.713006744943" lon="17.827223220022">
        <ele>36.2</ele>
        <time>2017-10-18T18:52:36Z</time>
      </trkpt>
      <trkpt lat="62.71304555314" lon="17.827300417321">
        <ele>35.8</ele>
        <time>2017-10-18T18:52:37Z</time>
      </trkpt>
      <trkpt lat="62.713077236722" lon="17.827365796141">
        <ele>35.8</ele>
        <time>2017-10-18T18:52:38Z</time>
      </trkpt>
      <trkpt lat="62.713121744611" lon="17.827461768896">
        <ele>35.6</ele>
        <time>2017-10-18T18:52:39Z</time>
      </trkpt>
      <trkpt lat="62.713155942763" lon="17.827535529616">
        <ele>35.6</ele>
        <time>2017-10-18T18:52:40Z</time>
      </trkpt>
      <trkpt lat="62.713193828951" lon="17.8276223661">
        <ele>35.2</ele>
        <time>2017-10-18T18:52:41Z</time>
      </trkpt>
      <trkpt lat="62.713228613836" lon="17.827709034946">
        <ele>35</ele>
        <time>2017-10-18T18:52:42Z</time>
      </trkpt>
      <trkpt lat="62.713261051789" lon="17.827791596661">
        <ele>34.8</ele>
        <time>2017-10-18T18:52:43Z</time>
      </trkpt>
      <trkpt lat="62.713296758683" lon="17.827883965199">
        <ele>35</ele>
        <time>2017-10-18T18:52:44Z</time>
      </trkpt>
      <trkpt lat="62.713328274627" lon="17.827965521086">
        <ele>34.6</ele>
        <time>2017-10-18T18:52:45Z</time>
      </trkpt>
      <trkpt lat="62.71336238896" lon="17.828056380882">
        <ele>34.6</ele>
        <time>2017-10-18T18:52:46Z</time>
      </trkpt>
      <trkpt lat="62.713396168017" lon="17.828155371121">
        <ele>34.8</ele>
        <time>2017-10-18T18:52:47Z</time>
      </trkpt>
      <trkpt lat="62.713425085572" lon="17.828243045795">
        <ele>34.8</ele>
        <time>2017-10-18T18:52:48Z</time>
      </trkpt>
      <trkpt lat="62.713455847145" lon="17.828338347998">
        <ele>34.6</ele>
        <time>2017-10-18T18:52:49Z</time>
      </trkpt>
      <trkpt lat="62.713482836863" lon="17.828426441767">
        <ele>34.8</ele>
        <time>2017-10-18T18:52:50Z</time>
      </trkpt>
      <trkpt lat="62.713509156029" lon="17.828514116441">
        <ele>34.8</ele>
        <time>2017-10-18T18:52:51Z</time>
      </trkpt>
      <trkpt lat="62.713531284245" lon="17.828595756147">
        <ele>34.8</ele>
        <time>2017-10-18T18:52:52Z</time>
      </trkpt>
      <trkpt lat="62.713554250651" lon="17.828684436649">
        <ele>34.6</ele>
        <time>2017-10-18T18:52:53Z</time>
      </trkpt>
      <trkpt lat="62.713577468514" lon="17.828774793531">
        <ele>34.6</ele>
        <time>2017-10-18T18:52:54Z</time>
      </trkpt>
      <trkpt lat="62.713598339445" lon="17.82885785816">
        <ele>35</ele>
        <time>2017-10-18T18:52:55Z</time>
      </trkpt>
      <trkpt lat="62.713619461833" lon="17.82894167716">
        <ele>35</ele>
        <time>2017-10-18T18:52:56Z</time>
      </trkpt>
      <trkpt lat="62.713639662212" lon="17.829023903599">
        <ele>35.2</ele>
        <time>2017-10-18T18:52:57Z</time>
      </trkpt>
      <trkpt lat="62.713655168727" lon="17.829094143921">
        <ele>35.6</ele>
        <time>2017-10-18T18:52:58Z</time>
      </trkpt>
      <trkpt lat="62.713674530916" lon="17.82918642864">
        <ele>35.8</ele>
        <time>2017-10-18T18:52:59Z</time>
      </trkpt>
      <trkpt lat="62.713689115422" lon="17.829262536292">
        <ele>35.8</ele>
        <time>2017-10-18T18:53:00Z</time>
      </trkpt>
      <trkpt lat="62.713705124851" lon="17.829345433283">
        <ele>36</ele>
        <time>2017-10-18T18:53:01Z</time>
      </trkpt>
      <trkpt lat="62.713718535891" lon="17.829417936718">
        <ele>36.2</ele>
        <time>2017-10-18T18:53:02Z</time>
      </trkpt>
      <trkpt lat="62.71373119256" lon="17.829485411013">
        <ele>36.4</ele>
        <time>2017-10-18T18:53:03Z</time>
      </trkpt>
      <trkpt lat="62.713743178677" lon="17.829554980783">
        <ele>36.8</ele>
        <time>2017-10-18T18:53:04Z</time>
      </trkpt>
      <trkpt lat="62.713752734043" lon="17.829629244417">
        <ele>37</ele>
        <time>2017-10-18T18:53:05Z</time>
      </trkpt>
      <trkpt lat="62.713763714332" lon="17.829698143635">
        <ele>37.4</ele>
        <time>2017-10-18T18:53:06Z</time>
      </trkpt>
      <trkpt lat="62.71377561663" lon="17.829768803052">
        <ele>37.6</ele>
        <time>2017-10-18T18:53:07Z</time>
      </trkpt>
      <trkpt lat="62.71378567491" lon="17.829833762777">
        <ele>37.8</ele>
        <time>2017-10-18T18:53:08Z</time>
      </trkpt>
      <trkpt lat="62.713797828665" lon="17.829908864601">
        <ele>38.2</ele>
        <time>2017-10-18T18:53:09Z</time>
      </trkpt>
      <trkpt lat="62.713807719307" lon="17.829975249249">
        <ele>38.4</ele>
        <time>2017-10-18T18:53:10Z</time>
      </trkpt>
      <trkpt lat="62.713818280501" lon="17.830049596702">
        <ele>38.8</ele>
        <time>2017-10-18T18:53:11Z</time>
      </trkpt>
      <trkpt lat="62.713827081496" lon="17.830117573911">
        <ele>39.2</ele>
        <time>2017-10-18T18:53:12Z</time>
      </trkpt>
      <trkpt lat="62.713836133948" lon="17.830183707102">
        <ele>39.2</ele>
        <time>2017-10-18T18:53:13Z</time>
      </trkpt>
      <trkpt lat="62.713845018762" lon="17.830259563297">
        <ele>39.6</ele>
        <time>2017-10-18T18:53:14Z</time>
      </trkpt>
      <trkpt lat="62.713851808101" lon="17.830325947945">
        <ele>39.6</ele>
        <time>2017-10-18T18:53:15Z</time>
      </trkpt>
      <trkpt lat="62.713858681259" lon="17.830398283742">
        <ele>39.8</ele>
        <time>2017-10-18T18:53:16Z</time>
      </trkpt>
      <trkpt lat="62.713865805874" lon="17.830475397222">
        <ele>40</ele>
        <time>2017-10-18T18:53:17Z</time>
      </trkpt>
      <trkpt lat="62.71386949391" lon="17.830545050811">
        <ele>40</ele>
        <time>2017-10-18T18:53:18Z</time>
      </trkpt>
      <trkpt lat="62.713872762851" lon="17.830625181775">
        <ele>40.2</ele>
        <time>2017-10-18T18:53:19Z</time>
      </trkpt>
      <trkpt lat="62.713875696516" lon="17.830703301083">
        <ele>40.4</ele>
        <time>2017-10-18T18:53:20Z</time>
      </trkpt>
      <trkpt lat="62.713877708172" lon="17.830780749839">
        <ele>40.6</ele>
        <time>2017-10-18T18:53:21Z</time>
      </trkpt>
      <trkpt lat="62.713881647665" lon="17.830855097292">
        <ele>40.8</ele>
        <time>2017-10-18T18:53:22Z</time>
      </trkpt>
      <trkpt lat="62.713883910778" lon="17.830937659007">
        <ele>41</ele>
        <time>2017-10-18T18:53:23Z</time>
      </trkpt>
      <trkpt lat="62.713888101728" lon="17.831025585138">
        <ele>41.2</ele>
        <time>2017-10-18T18:53:24Z</time>
      </trkpt>
      <trkpt lat="62.713892627954" lon="17.831110158509">
        <ele>41.4</ele>
        <time>2017-10-18T18:53:25Z</time>
      </trkpt>
      <trkpt lat="62.71389631599" lon="17.831195737708">
        <ele>41.6</ele>
        <time>2017-10-18T18:53:26Z</time>
      </trkpt>
      <trkpt lat="62.713896483628" lon="17.831281987459">
        <ele>41.8</ele>
        <time>2017-10-18T18:53:27Z</time>
      </trkpt>
      <trkpt lat="62.713898243827" lon="17.831362118423">
        <ele>41.8</ele>
        <time>2017-10-18T18:53:28Z</time>
      </trkpt>
      <trkpt lat="62.713901931863" lon="17.831460270472">
        <ele>42</ele>
        <time>2017-10-18T18:53:29Z</time>
      </trkpt>
      <trkpt lat="62.713905033166" lon="17.831543083644">
        <ele>42</ele>
        <time>2017-10-18T18:53:30Z</time>
      </trkpt>
      <trkpt lat="62.713907966831" lon="17.831640313684">
        <ele>42</ele>
        <time>2017-10-18T18:53:31Z</time>
      </trkpt>
      <trkpt lat="62.713910146125" lon="17.831734861516">
        <ele>42</ele>
        <time>2017-10-18T18:53:32Z</time>
      </trkpt>
      <trkpt lat="62.713910397582" lon="17.83182588895">
        <ele>42</ele>
        <time>2017-10-18T18:53:33Z</time>
      </trkpt>
      <trkpt lat="62.713912157781" lon="17.831927058483">
        <ele>42</ele>
        <time>2017-10-18T18:53:34Z</time>
      </trkpt>
      <trkpt lat="62.713914588532" lon="17.832038370115">
        <ele>41.8</ele>
        <time>2017-10-18T18:53:35Z</time>
      </trkpt>
      <trkpt lat="62.713914923808" lon="17.832148089186">
        <ele>41.8</ele>
        <time>2017-10-18T18:53:36Z</time>
      </trkpt>
      <trkpt lat="62.713914923808" lon="17.832262334483">
        <ele>41.8</ele>
        <time>2017-10-18T18:53:37Z</time>
      </trkpt>
      <trkpt lat="62.713917522197" lon="17.832373478477">
        <ele>41.6</ele>
        <time>2017-10-18T18:53:38Z</time>
      </trkpt>
      <trkpt lat="62.713921126414" lon="17.832500380443">
        <ele>41.4</ele>
        <time>2017-10-18T18:53:39Z</time>
      </trkpt>
      <trkpt lat="62.713922132242" lon="17.8326179785">
        <ele>41.2</ele>
        <time>2017-10-18T18:53:40Z</time>
      </trkpt>
      <trkpt lat="62.713923640984" lon="17.832754016737">
        <ele>40.8</ele>
        <time>2017-10-18T18:53:41Z</time>
      </trkpt>
      <trkpt lat="62.713925485002" lon="17.832886115481">
        <ele>40.4</ele>
        <time>2017-10-18T18:53:42Z</time>
      </trkpt>
      <trkpt lat="62.713927245201" lon="17.833011676343">
        <ele>40</ele>
        <time>2017-10-18T18:53:43Z</time>
      </trkpt>
      <trkpt lat="62.713929173038" lon="17.833157102308">
        <ele>39.6</ele>
        <time>2017-10-18T18:53:44Z</time>
      </trkpt>
      <trkpt lat="62.713931352332" lon="17.833284842464">
        <ele>39.4</ele>
        <time>2017-10-18T18:53:45Z</time>
      </trkpt>
      <trkpt lat="62.713933447807" lon="17.833430603705">
        <ele>39</ele>
        <time>2017-10-18T18:53:46Z</time>
      </trkpt>
      <trkpt lat="62.713934621273" lon="17.833584579208">
        <ele>38.8</ele>
        <time>2017-10-18T18:53:47Z</time>
      </trkpt>
      <trkpt lat="62.713935291825" lon="17.833720617445">
        <ele>38.6</ele>
        <time>2017-10-18T18:53:48Z</time>
      </trkpt>
      <trkpt lat="62.71393571092" lon="17.833876772242">
        <ele>38.2</ele>
        <time>2017-10-18T18:53:49Z</time>
      </trkpt>
      <trkpt lat="62.713935627101" lon="17.834027059709">
        <ele>38</ele>
        <time>2017-10-18T18:53:50Z</time>
      </trkpt>
      <trkpt lat="62.713936381472" lon="17.834174078235">
        <ele>37.6</ele>
        <time>2017-10-18T18:53:51Z</time>
      </trkpt>
      <trkpt lat="62.713936465291" lon="17.834305841703">
        <ele>37.4</ele>
        <time>2017-10-18T18:53:52Z</time>
      </trkpt>
      <trkpt lat="62.713935459463" lon="17.834447663451">
        <ele>37.2</ele>
        <time>2017-10-18T18:53:53Z</time>
      </trkpt>
      <trkpt lat="62.713932693436" lon="17.834589988113">
        <ele>37</ele>
        <time>2017-10-18T18:53:54Z</time>
      </trkpt>
      <trkpt lat="62.713929675952" lon="17.834719907563">
        <ele>37</ele>
        <time>2017-10-18T18:53:55Z</time>
      </trkpt>
      <trkpt lat="62.713925736459" lon="17.834845300787">
        <ele>37</ele>
        <time>2017-10-18T18:53:56Z</time>
      </trkpt>
      <trkpt lat="62.71392313807" lon="17.834966922156">
        <ele>37</ele>
        <time>2017-10-18T18:53:57Z</time>
      </trkpt>
      <trkpt lat="62.713920372043" lon="17.835068343146">
        <ele>37.2</ele>
        <time>2017-10-18T18:53:58Z</time>
      </trkpt>
      <trkpt lat="62.713915259084" lon="17.835193401094">
        <ele>37.2</ele>
        <time>2017-10-18T18:53:59Z</time>
      </trkpt>
      <trkpt lat="62.71390972703" lon="17.835291217867">
        <ele>37.4</ele>
        <time>2017-10-18T18:54:00Z</time>
      </trkpt>
      <trkpt lat="62.713903272967" lon="17.835400266386">
        <ele>37.6</ele>
        <time>2017-10-18T18:54:01Z</time>
      </trkpt>
      <trkpt lat="62.71389883056" lon="17.835495400951">
        <ele>37.8</ele>
        <time>2017-10-18T18:54:02Z</time>
      </trkpt>
      <trkpt lat="62.713893717601" lon="17.835585506376">
        <ele>38</ele>
        <time>2017-10-18T18:54:03Z</time>
      </trkpt>
      <trkpt lat="62.713887598814" lon="17.835672929593">
        <ele>38.2</ele>
        <time>2017-10-18T18:54:04Z</time>
      </trkpt>
      <trkpt lat="62.713881396208" lon="17.835768399434">
        <ele>38.4</ele>
        <time>2017-10-18T18:54:05Z</time>
      </trkpt>
      <trkpt lat="62.713875864154" lon="17.835860181239">
        <ele>38.6</ele>
        <time>2017-10-18T18:54:06Z</time>
      </trkpt>
      <trkpt lat="62.713870080643" lon="17.835949029379">
        <ele>39</ele>
        <time>2017-10-18T18:54:07Z</time>
      </trkpt>
      <trkpt lat="62.713863710399" lon="17.8360377937">
        <ele>39.2</ele>
        <time>2017-10-18T18:54:08Z</time>
      </trkpt>
      <trkpt lat="62.713857591612" lon="17.836133682636">
        <ele>39.4</ele>
        <time>2017-10-18T18:54:09Z</time>
      </trkpt>
      <trkpt lat="62.713852394834" lon="17.836221273491">
        <ele>39.6</ele>
        <time>2017-10-18T18:54:10Z</time>
      </trkpt>
      <trkpt lat="62.71384602459" lon="17.836321688653">
        <ele>39.8</ele>
        <time>2017-10-18T18:54:11Z</time>
      </trkpt>
      <trkpt lat="62.713838899975" lon="17.836413889553">
        <ele>40</ele>
        <time>2017-10-18T18:54:12Z</time>
      </trkpt>
      <trkpt lat="62.713832026817" lon="17.836502653874">
        <ele>40.2</ele>
        <time>2017-10-18T18:54:13Z</time>
      </trkpt>
      <trkpt lat="62.713825321297" lon="17.83660273376">
        <ele>40.4</ele>
        <time>2017-10-18T18:54:14Z</time>
      </trkpt>
      <trkpt lat="62.713819537786" lon="17.836694431746">
        <ele>40.6</ele>
        <time>2017-10-18T18:54:15Z</time>
      </trkpt>
      <trkpt lat="62.713811072067" lon="17.836796020374">
        <ele>40.8</ele>
        <time>2017-10-18T18:54:16Z</time>
      </trkpt>
      <trkpt lat="62.713798750674" lon="17.836907080549">
        <ele>41</ele>
        <time>2017-10-18T18:54:17Z</time>
      </trkpt>
      <trkpt lat="62.713790201136" lon="17.837007244254">
        <ele>41</ele>
        <time>2017-10-18T18:54:18Z</time>
      </trkpt>
      <trkpt lat="62.713781316322" lon="17.837115538402">
        <ele>41.2</ele>
        <time>2017-10-18T18:54:19Z</time>
      </trkpt>
      <trkpt lat="62.713774024069" lon="17.837211762614">
        <ele>41.2</ele>
        <time>2017-10-18T18:54:20Z</time>
      </trkpt>
      <trkpt lat="62.713767067092" lon="17.837304717885">
        <ele>41.4</ele>
        <time>2017-10-18T18:54:21Z</time>
      </trkpt>
      <trkpt lat="62.713762876142" lon="17.837388033971">
        <ele>41.4</ele>
        <time>2017-10-18T18:54:22Z</time>
      </trkpt>
      <trkpt lat="62.713759271925" lon="17.837475960102">
        <ele>41.6</ele>
        <time>2017-10-18T18:54:23Z</time>
      </trkpt>
      <trkpt lat="62.713752650224" lon="17.837567825726">
        <ele>41.8</ele>
        <time>2017-10-18T18:54:24Z</time>
      </trkpt>
      <trkpt lat="62.713745693247" lon="17.837653321106">
        <ele>42</ele>
        <time>2017-10-18T18:54:25Z</time>
      </trkpt>
      <trkpt lat="62.71374041265" lon="17.837741750151">
        <ele>42.4</ele>
        <time>2017-10-18T18:54:26Z</time>
      </trkpt>
      <trkpt lat="62.713734880596" lon="17.837828838092">
        <ele>42.6</ele>
        <time>2017-10-18T18:54:27Z</time>
      </trkpt>
      <trkpt lat="62.71372951618" lon="17.837905951572">
        <ele>42.8</ele>
        <time>2017-10-18T18:54:28Z</time>
      </trkpt>
      <trkpt lat="62.713723145936" lon="17.8380075402">
        <ele>43</ele>
        <time>2017-10-18T18:54:29Z</time>
      </trkpt>
      <trkpt lat="62.713718116796" lon="17.838092700304">
        <ele>43.2</ele>
        <time>2017-10-18T18:54:30Z</time>
      </trkpt>
      <trkpt lat="62.713711243638" lon="17.838193366923">
        <ele>43.4</ele>
        <time>2017-10-18T18:54:31Z</time>
      </trkpt>
      <trkpt lat="62.713705376308" lon="17.838289423497">
        <ele>43.6</ele>
        <time>2017-10-18T18:54:32Z</time>
      </trkpt>
      <trkpt lat="62.713698251693" lon="17.838387072632">
        <ele>43.6</ele>
        <time>2017-10-18T18:54:33Z</time>
      </trkpt>
      <trkpt lat="62.713690456526" lon="17.838481452826">
        <ele>43.8</ele>
        <time>2017-10-18T18:54:34Z</time>
      </trkpt>
      <trkpt lat="62.713682409902" lon="17.838586645671">
        <ele>43.8</ele>
        <time>2017-10-18T18:54:35Z</time>
      </trkpt>
      <trkpt lat="62.713675452925" lon="17.838689491584">
        <ele>43.8</ele>
        <time>2017-10-18T18:54:36Z</time>
      </trkpt>
      <trkpt lat="62.713667993034" lon="17.838794265334">
        <ele>43.8</ele>
        <time>2017-10-18T18:54:37Z</time>
      </trkpt>
      <trkpt lat="62.713660449324" lon="17.838891998288">
        <ele>43.6</ele>
        <time>2017-10-18T18:54:38Z</time>
      </trkpt>
      <trkpt lat="62.713652737976" lon="17.839004818662">
        <ele>43.4</ele>
        <time>2017-10-18T18:54:39Z</time>
      </trkpt>
      <trkpt lat="62.713646451551" lon="17.839105401462">
        <ele>43.4</ele>
        <time>2017-10-18T18:54:40Z</time>
      </trkpt>
      <trkpt lat="62.713638740203" lon="17.839218892388">
        <ele>43.2</ele>
        <time>2017-10-18T18:54:41Z</time>
      </trkpt>
      <trkpt lat="62.71363060976" lon="17.839328946735">
        <ele>43.2</ele>
        <time>2017-10-18T18:54:42Z</time>
      </trkpt>
      <trkpt lat="62.713622898412" lon="17.839435061589">
        <ele>43</ele>
        <time>2017-10-18T18:54:43Z</time>
      </trkpt>
      <trkpt lat="62.713615857616" lon="17.839555341854">
        <ele>43</ele>
        <time>2017-10-18T18:54:44Z</time>
      </trkpt>
      <trkpt lat="62.713610409381" lon="17.839661959622">
        <ele>43</ele>
        <time>2017-10-18T18:54:45Z</time>
      </trkpt>
      <trkpt lat="62.713604709689" lon="17.839773522711">
        <ele>42.8</ele>
        <time>2017-10-18T18:54:46Z</time>
      </trkpt>
      <trkpt lat="62.713597417436" lon="17.839889695845">
        <ele>42.8</ele>
        <time>2017-10-18T18:54:47Z</time>
      </trkpt>
      <trkpt lat="62.713591717744" lon="17.839992541758">
        <ele>42.6</ele>
        <time>2017-10-18T18:54:48Z</time>
      </trkpt>
      <trkpt lat="62.713583335844" lon="17.840105865046">
        <ele>42.6</ele>
        <time>2017-10-18T18:54:49Z</time>
      </trkpt>
      <trkpt lat="62.713574870125" lon="17.840216338488">
        <ele>42.4</ele>
        <time>2017-10-18T18:54:50Z</time>
      </trkpt>
      <trkpt lat="62.713566404406" lon="17.840326392835">
        <ele>42.4</ele>
        <time>2017-10-18T18:54:51Z</time>
      </trkpt>
      <trkpt lat="62.713558273963" lon="17.840437536829">
        <ele>42.4</ele>
        <time>2017-10-18T18:54:52Z</time>
      </trkpt>
      <trkpt lat="62.713550730253" lon="17.840547423538">
        <ele>42.4</ele>
        <time>2017-10-18T18:54:53Z</time>
      </trkpt>
      <trkpt lat="62.713542432172" lon="17.840668290536">
        <ele>42.2</ele>
        <time>2017-10-18T18:54:54Z</time>
      </trkpt>
      <trkpt lat="62.713533547358" lon="17.84078697824">
        <ele>42</ele>
        <time>2017-10-18T18:54:55Z</time>
      </trkpt>
      <trkpt lat="62.713524830182" lon="17.840908180514">
        <ele>41.8</ele>
        <time>2017-10-18T18:54:56Z</time>
      </trkpt>
      <trkpt lat="62.713516113006" lon="17.841033657557">
        <ele>41.8</ele>
        <time>2017-10-18T18:54:57Z</time>
      </trkpt>
      <trkpt lat="62.713508569296" lon="17.841139520954">
        <ele>41.6</ele>
        <time>2017-10-18T18:54:58Z</time>
      </trkpt>
      <trkpt lat="62.713498930111" lon="17.841279331046">
        <ele>41.2</ele>
        <time>2017-10-18T18:54:59Z</time>
      </trkpt>
      <trkpt lat="62.713490715849" lon="17.841391899963">
        <ele>41.2</ele>
        <time>2017-10-18T18:55:00Z</time>
      </trkpt>
      <trkpt lat="62.713481998673" lon="17.841520645947">
        <ele>40.8</ele>
        <time>2017-10-18T18:55:01Z</time>
      </trkpt>
      <trkpt lat="62.713473532954" lon="17.841635645615">
        <ele>40.6</ele>
        <time>2017-10-18T18:55:02Z</time>
      </trkpt>
      <trkpt lat="62.713464480502" lon="17.841749890912">
        <ele>40.4</ele>
        <time>2017-10-18T18:55:03Z</time>
      </trkpt>
      <trkpt lat="62.713454757498" lon="17.841871009367">
        <ele>40.2</ele>
        <time>2017-10-18T18:55:04Z</time>
      </trkpt>
      <trkpt lat="62.713445788865" lon="17.84200235374">
        <ele>40</ele>
        <time>2017-10-18T18:55:05Z</time>
      </trkpt>
      <trkpt lat="62.713437574603" lon="17.842128668973">
        <ele>40</ele>
        <time>2017-10-18T18:55:06Z</time>
      </trkpt>
      <trkpt lat="62.713428773608" lon="17.842251799084">
        <ele>40</ele>
        <time>2017-10-18T18:55:07Z</time>
      </trkpt>
      <trkpt lat="62.713422235726" lon="17.842370067693">
        <ele>39.8</ele>
        <time>2017-10-18T18:55:08Z</time>
      </trkpt>
      <trkpt lat="62.713414440559" lon="17.8425002386">
        <ele>39.8</ele>
        <time>2017-10-18T18:55:09Z</time>
      </trkpt>
      <trkpt lat="62.713407064487" lon="17.842617669019">
        <ele>39.6</ele>
        <time>2017-10-18T18:55:10Z</time>
      </trkpt>
      <trkpt lat="62.71339843113" lon="17.842748175202">
        <ele>39.6</ele>
        <time>2017-10-18T18:55:11Z</time>
      </trkpt>
      <trkpt lat="62.713389713954" lon="17.8428690422">
        <ele>39.4</ele>
        <time>2017-10-18T18:55:12Z</time>
      </trkpt>
      <trkpt lat="62.713381248235" lon="17.842984125687">
        <ele>39.4</ele>
        <time>2017-10-18T18:55:13Z</time>
      </trkpt>
      <trkpt lat="62.713371441412" lon="17.843113206947">
        <ele>39.4</ele>
        <time>2017-10-18T18:55:14Z</time>
      </trkpt>
      <trkpt lat="62.713364400616" lon="17.843231307918">
        <ele>39.2</ele>
        <time>2017-10-18T18:55:15Z</time>
      </trkpt>
      <trkpt lat="62.713356437811" lon="17.843360389178">
        <ele>39.2</ele>
        <time>2017-10-18T18:55:16Z</time>
      </trkpt>
      <trkpt lat="62.713346379531" lon="17.843492404103">
        <ele>39.2</ele>
        <time>2017-10-18T18:55:17Z</time>
      </trkpt>
      <trkpt lat="62.713337662355" lon="17.843613438739">
        <ele>39.2</ele>
        <time>2017-10-18T18:55:18Z</time>
      </trkpt>
      <trkpt lat="62.713328442265" lon="17.843744783112">
        <ele>39.2</ele>
        <time>2017-10-18T18:55:19Z</time>
      </trkpt>
      <trkpt lat="62.713319054537" lon="17.843868835232">
        <ele>39.4</ele>
        <time>2017-10-18T18:55:20Z</time>
      </trkpt>
      <trkpt lat="62.713310672637" lon="17.843993976999">
        <ele>39.2</ele>
        <time>2017-10-18T18:55:21Z</time>
      </trkpt>
      <trkpt lat="62.713303380384" lon="17.844110653047">
        <ele>39.4</ele>
        <time>2017-10-18T18:55:22Z</time>
      </trkpt>
      <trkpt lat="62.713295249941" lon="17.844240572497">
        <ele>39.6</ele>
        <time>2017-10-18T18:55:23Z</time>
      </trkpt>
      <trkpt lat="62.71328611367" lon="17.844378873847">
        <ele>39.6</ele>
        <time>2017-10-18T18:55:24Z</time>
      </trkpt>
      <trkpt lat="62.713276558304" lon="17.844512146057">
        <ele>39.6</ele>
        <time>2017-10-18T18:55:25Z</time>
      </trkpt>
      <trkpt lat="62.713268092585" lon="17.844641143498">
        <ele>39.8</ele>
        <time>2017-10-18T18:55:26Z</time>
      </trkpt>
      <trkpt lat="62.71325929159" lon="17.844771565862">
        <ele>39.8</ele>
        <time>2017-10-18T18:55:27Z</time>
      </trkpt>
      <trkpt lat="62.713252166975" lon="17.844884470055">
        <ele>39.6</ele>
        <time>2017-10-18T18:55:28Z</time>
      </trkpt>
      <trkpt lat="62.713242695428" lon="17.845025034518">
        <ele>39.6</ele>
        <time>2017-10-18T18:55:29Z</time>
      </trkpt>
      <trkpt lat="62.713233810614" lon="17.84513886072">
        <ele>39.8</ele>
        <time>2017-10-18T18:55:30Z</time>
      </trkpt>
      <trkpt lat="62.713224171429" lon="17.845266517057">
        <ele>40</ele>
        <time>2017-10-18T18:55:31Z</time>
      </trkpt>
      <trkpt lat="62.713213945511" lon="17.845381600544">
        <ele>40.2</ele>
        <time>2017-10-18T18:55:32Z</time>
      </trkpt>
      <trkpt lat="62.713199361005" lon="17.84548503319">
        <ele>40.4</ele>
        <time>2017-10-18T18:55:33Z</time>
      </trkpt>
      <trkpt lat="62.713184776499" lon="17.845593243519">
        <ele>40.6</ele>
        <time>2017-10-18T18:55:34Z</time>
      </trkpt>
      <trkpt lat="62.713171868373" lon="17.845706818264">
        <ele>40.8</ele>
        <time>2017-10-18T18:55:35Z</time>
      </trkpt>
      <trkpt lat="62.713161977731" lon="17.845811424376">
        <ele>41</ele>
        <time>2017-10-18T18:55:36Z</time>
      </trkpt>
      <trkpt lat="62.713152338546" lon="17.845915359936">
        <ele>41.2</ele>
        <time>2017-10-18T18:55:37Z</time>
      </trkpt>
      <trkpt lat="62.71314194499" lon="17.846012589976">
        <ele>41.4</ele>
        <time>2017-10-18T18:55:38Z</time>
      </trkpt>
      <trkpt lat="62.713130461787" lon="17.84612038121">
        <ele>41.4</ele>
        <time>2017-10-18T18:55:39Z</time>
      </trkpt>
      <trkpt lat="62.713120571145" lon="17.846217946526">
        <ele>41.8</ele>
        <time>2017-10-18T18:55:40Z</time>
      </trkpt>
      <trkpt lat="62.713107914476" lon="17.84633495785">
        <ele>42</ele>
        <time>2017-10-18T18:55:41Z</time>
      </trkpt>
      <trkpt lat="62.713095593083" lon="17.846445515111">
        <ele>42.2</ele>
        <time>2017-10-18T18:55:42Z</time>
      </trkpt>
      <trkpt lat="62.713083690785" lon="17.846558251666">
        <ele>42.4</ele>
        <time>2017-10-18T18:55:43Z</time>
      </trkpt>
      <trkpt lat="62.71306902246" lon="17.846660259389">
        <ele>42.4</ele>
        <time>2017-10-18T18:55:44Z</time>
      </trkpt>
      <trkpt lat="62.713051671927" lon="17.846788502459">
        <ele>42.4</ele>
        <time>2017-10-18T18:55:45Z</time>
      </trkpt>
      <trkpt lat="62.713034405213" lon="17.846904843231">
        <ele>42.4</ele>
        <time>2017-10-18T18:55:46Z</time>
      </trkpt>
      <trkpt lat="62.713015462119" lon="17.8470264646">
        <ele>42.4</ele>
        <time>2017-10-18T18:55:47Z</time>
      </trkpt>
      <trkpt lat="62.712997441034" lon="17.847136854223">
        <ele>42.4</ele>
        <time>2017-10-18T18:55:48Z</time>
      </trkpt>
      <trkpt lat="62.712975899551" lon="17.847259816696">
        <ele>42.4</ele>
        <time>2017-10-18T18:55:49Z</time>
      </trkpt>
      <trkpt lat="62.712955280077" lon="17.847380767513">
        <ele>42.4</ele>
        <time>2017-10-18T18:55:50Z</time>
      </trkpt>
      <trkpt lat="62.712932816585" lon="17.847505741642">
        <ele>42.2</ele>
        <time>2017-10-18T18:55:51Z</time>
      </trkpt>
      <trkpt lat="62.712910772188" lon="17.847621747138">
        <ele>42</ele>
        <time>2017-10-18T18:55:52Z</time>
      </trkpt>
      <trkpt lat="62.712884536841" lon="17.847755186986">
        <ele>41.8</ele>
        <time>2017-10-18T18:55:53Z</time>
      </trkpt>
      <trkpt lat="62.712855451648" lon="17.847893655974">
        <ele>41.6</ele>
        <time>2017-10-18T18:55:54Z</time>
      </trkpt>
      <trkpt lat="62.712826617912" lon="17.848025838537">
        <ele>41.2</ele>
        <time>2017-10-18T18:55:55Z</time>
      </trkpt>
      <trkpt lat="62.712796945986" lon="17.848158775471">
        <ele>40.6</ele>
        <time>2017-10-18T18:55:56Z</time>
      </trkpt>
      <trkpt lat="62.712765765318" lon="17.848291209491">
        <ele>40.2</ele>
        <time>2017-10-18T18:55:57Z</time>
      </trkpt>
      <trkpt lat="62.712737518315" lon="17.848409729557">
        <ele>40</ele>
        <time>2017-10-18T18:55:58Z</time>
      </trkpt>
      <trkpt lat="62.712701559964" lon="17.848565046164">
        <ele>39.6</ele>
        <time>2017-10-18T18:55:59Z</time>
      </trkpt>
      <trkpt lat="62.712670546934" lon="17.848695636166">
        <ele>39.4</ele>
        <time>2017-10-18T18:56:00Z</time>
      </trkpt>
      <trkpt lat="62.712633750393" lon="17.848850198402">
        <ele>39</ele>
        <time>2017-10-18T18:56:01Z</time>
      </trkpt>
      <trkpt lat="62.712599887517" lon="17.848998809489">
        <ele>38.8</ele>
        <time>2017-10-18T18:56:02Z</time>
      </trkpt>
      <trkpt lat="62.712567868659" lon="17.849140547418">
        <ele>38.6</ele>
        <time>2017-10-18T18:56:03Z</time>
      </trkpt>
      <trkpt lat="62.712533502869" lon="17.84928706303">
        <ele>38.2</ele>
        <time>2017-10-18T18:56:04Z</time>
      </trkpt>
      <trkpt lat="62.712495113767" lon="17.849447241139">
        <ele>38</ele>
        <time>2017-10-18T18:56:05Z</time>
      </trkpt>
      <trkpt lat="62.712458736321" lon="17.849603312117">
        <ele>37.6</ele>
        <time>2017-10-18T18:56:06Z</time>
      </trkpt>
      <trkpt lat="62.712422191237" lon="17.849756281792">
        <ele>37.2</ele>
        <time>2017-10-18T18:56:07Z</time>
      </trkpt>
      <trkpt lat="62.712387657809" lon="17.849898354997">
        <ele>36.8</ele>
        <time>2017-10-18T18:56:08Z</time>
      </trkpt>
      <trkpt lat="62.712350023078" lon="17.850058952201">
        <ele>36.2</ele>
        <time>2017-10-18T18:56:09Z</time>
      </trkpt>
      <trkpt lat="62.712316495478" lon="17.850199432845">
        <ele>35.8</ele>
        <time>2017-10-18T18:56:10Z</time>
      </trkpt>
      <trkpt lat="62.71227860929" lon="17.850359778592">
        <ele>35.2</ele>
        <time>2017-10-18T18:56:11Z</time>
      </trkpt>
      <trkpt lat="62.712244830233" lon="17.850510401335">
        <ele>34.8</ele>
        <time>2017-10-18T18:56:12Z</time>
      </trkpt>
      <trkpt lat="62.712210967357" lon="17.850655156748">
        <ele>34.6</ele>
        <time>2017-10-18T18:56:13Z</time>
      </trkpt>
      <trkpt lat="62.71217132097" lon="17.850817095056">
        <ele>34.2</ele>
        <time>2017-10-18T18:56:14Z</time>
      </trkpt>
      <trkpt lat="62.71213779337" lon="17.850953887664">
        <ele>33.8</ele>
        <time>2017-10-18T18:56:15Z</time>
      </trkpt>
      <trkpt lat="62.712102002657" lon="17.851100319457">
        <ele>33.4</ele>
        <time>2017-10-18T18:56:16Z</time>
      </trkpt>
      <trkpt lat="62.712063948831" lon="17.851255300788">
        <ele>33.2</ele>
        <time>2017-10-18T18:56:17Z</time>
      </trkpt>
      <trkpt lat="62.712031427059" lon="17.851392680129">
        <ele>32.8</ele>
        <time>2017-10-18T18:56:18Z</time>
      </trkpt>
      <trkpt lat="62.711997648002" lon="17.851543721967">
        <ele>32.4</ele>
        <time>2017-10-18T18:56:19Z</time>
      </trkpt>
      <trkpt lat="62.711966467334" lon="17.851684537887">
        <ele>32.2</ele>
        <time>2017-10-18T18:56:20Z</time>
      </trkpt>
      <trkpt lat="62.711935119028" lon="17.851823090694">
        <ele>32</ele>
        <time>2017-10-18T18:56:21Z</time>
      </trkpt>
      <trkpt lat="62.711905698559" lon="17.851946891357">
        <ele>32</ele>
        <time>2017-10-18T18:56:22Z</time>
      </trkpt>
      <trkpt lat="62.711873009149" lon="17.85208242668">
        <ele>32</ele>
        <time>2017-10-18T18:56:23Z</time>
      </trkpt>
      <trkpt lat="62.711838140445" lon="17.852218884012">
        <ele>32</ele>
        <time>2017-10-18T18:56:24Z</time>
      </trkpt>
      <trkpt lat="62.711805283397" lon="17.852347378539">
        <ele>32</ele>
        <time>2017-10-18T18:56:25Z</time>
      </trkpt>
      <trkpt lat="62.711773851272" lon="17.852474951057">
        <ele>32</ele>
        <time>2017-10-18T18:56:26Z</time>
      </trkpt>
      <trkpt lat="62.711743424975" lon="17.852604032317">
        <ele>32</ele>
        <time>2017-10-18T18:56:27Z</time>
      </trkpt>
      <trkpt lat="62.711718027818" lon="17.852720624546">
        <ele>32</ele>
        <time>2017-10-18T18:56:28Z</time>
      </trkpt>
      <trkpt lat="62.711683829666" lon="17.852874180954">
        <ele>32</ele>
        <time>2017-10-18T18:56:29Z</time>
      </trkpt>
      <trkpt lat="62.711652816636" lon="17.853001502015">
        <ele>31.8</ele>
        <time>2017-10-18T18:56:30Z</time>
      </trkpt>
      <trkpt lat="62.711616858285" lon="17.853147933808">
        <ele>32</ele>
        <time>2017-10-18T18:56:31Z</time>
      </trkpt>
      <trkpt lat="62.711583246866" lon="17.853290090832">
        <ele>31.8</ele>
        <time>2017-10-18T18:56:32Z</time>
      </trkpt>
      <trkpt lat="62.71155189856" lon="17.853425626155">
        <ele>31.8</ele>
        <time>2017-10-18T18:56:33Z</time>
      </trkpt>
      <trkpt lat="62.711517951865" lon="17.853566106799">
        <ele>31.8</ele>
        <time>2017-10-18T18:56:34Z</time>
      </trkpt>
      <trkpt lat="62.711481239143" lon="17.853719160293">
        <ele>31.8</ele>
        <time>2017-10-18T18:56:35Z</time>
      </trkpt>
      <trkpt lat="62.711448298276" lon="17.853860562946">
        <ele>31.6</ele>
        <time>2017-10-18T18:56:36Z</time>
      </trkpt>
      <trkpt lat="62.711416782332" lon="17.853996098269">
        <ele>31.6</ele>
        <time>2017-10-18T18:56:37Z</time>
      </trkpt>
      <trkpt lat="62.711387445682" lon="17.854121407674">
        <ele>31.6</ele>
        <time>2017-10-18T18:56:38Z</time>
      </trkpt>
      <trkpt lat="62.711354588634" lon="17.85426255887">
        <ele>31.6</ele>
        <time>2017-10-18T18:56:39Z</time>
      </trkpt>
      <trkpt lat="62.71132642545" lon="17.854384766972">
        <ele>31.6</ele>
        <time>2017-10-18T18:56:40Z</time>
      </trkpt>
      <trkpt lat="62.711293233126" lon="17.854522146313">
        <ele>31.8</ele>
        <time>2017-10-18T18:56:41Z</time>
      </trkpt>
      <trkpt lat="62.711261298087" lon="17.854648461546">
        <ele>32</ele>
        <time>2017-10-18T18:56:42Z</time>
      </trkpt>
      <trkpt lat="62.711231542342" lon="17.854763125938">
        <ele>32.4</ele>
        <time>2017-10-18T18:56:43Z</time>
      </trkpt>
      <trkpt lat="62.711198936751" lon="17.854892626293">
        <ele>32.6</ele>
        <time>2017-10-18T18:56:44Z</time>
      </trkpt>
      <trkpt lat="62.711172617585" lon="17.855007123047">
        <ele>32.6</ele>
        <time>2017-10-18T18:56:45Z</time>
      </trkpt>
      <trkpt lat="62.711145292591" lon="17.855129834063">
        <ele>32.8</ele>
        <time>2017-10-18T18:56:46Z</time>
      </trkpt>
      <trkpt lat="62.711118805787" lon="17.855238966401">
        <ele>33</ele>
        <time>2017-10-18T18:56:47Z</time>
      </trkpt>
      <trkpt lat="62.711088463309" lon="17.855370059317">
        <ele>33</ele>
        <time>2017-10-18T18:56:48Z</time>
      </trkpt>
      <trkpt lat="62.711059797211" lon="17.855497883292">
        <ele>33</ele>
        <time>2017-10-18T18:56:49Z</time>
      </trkpt>
      <trkpt lat="62.711031885484" lon="17.855616906272">
        <ele>33.2</ele>
        <time>2017-10-18T18:56:50Z</time>
      </trkpt>
      <trkpt lat="62.711004979585" lon="17.855734336691">
        <ele>33.4</ele>
        <time>2017-10-18T18:56:51Z</time>
      </trkpt>
      <trkpt lat="62.710978744238" lon="17.855841122097">
        <ele>33.6</ele>
        <time>2017-10-18T18:56:52Z</time>
      </trkpt>
      <trkpt lat="62.710950161959" lon="17.855954613023">
        <ele>34</ele>
        <time>2017-10-18T18:56:53Z</time>
      </trkpt>
      <trkpt lat="62.710920825309" lon="17.85606969651">
        <ele>34.2</ele>
        <time>2017-10-18T18:56:54Z</time>
      </trkpt>
      <trkpt lat="62.710892494487" lon="17.856175056993">
        <ele>34.6</ele>
        <time>2017-10-18T18:56:55Z</time>
      </trkpt>
      <trkpt lat="62.710865337131" lon="17.856282177675">
        <ele>35</ele>
        <time>2017-10-18T18:56:56Z</time>
      </trkpt>
      <trkpt lat="62.710838850327" lon="17.856388376348">
        <ele>35.2</ele>
        <time>2017-10-18T18:56:57Z</time>
      </trkpt>
      <trkpt lat="62.710816889749" lon="17.856477475945">
        <ele>35.6</ele>
        <time>2017-10-18T18:56:58Z</time>
      </trkpt>
      <trkpt lat="62.71078914566" lon="17.856590547776">
        <ele>36</ele>
        <time>2017-10-18T18:56:59Z</time>
      </trkpt>
      <trkpt lat="62.710766263073" lon="17.856684508875">
        <ele>36.2</ele>
        <time>2017-10-18T18:57:00Z</time>
      </trkpt>
      <trkpt lat="62.710738938079" lon="17.856783582933">
        <ele>36.6</ele>
        <time>2017-10-18T18:57:01Z</time>
      </trkpt>
      <trkpt lat="62.710711026352" lon="17.856871341426">
        <ele>36.8</ele>
        <time>2017-10-18T18:57:02Z</time>
      </trkpt>
      <trkpt lat="62.710683785177" lon="17.856951891485">
        <ele>37</ele>
        <time>2017-10-18T18:57:03Z</time>
      </trkpt>
      <trkpt lat="62.710656124907" lon="17.857034956114">
        <ele>37.4</ele>
        <time>2017-10-18T18:57:04Z</time>
      </trkpt>
      <trkpt lat="62.710626872076" lon="17.857127576109">
        <ele>37.6</ele>
        <time>2017-10-18T18:57:05Z</time>
      </trkpt>
      <trkpt lat="62.710597954521" lon="17.857211898023">
        <ele>37.8</ele>
        <time>2017-10-18T18:57:06Z</time>
      </trkpt>
      <trkpt lat="62.710567528224" lon="17.857293956824">
        <ele>38.2</ele>
        <time>2017-10-18T18:57:07Z</time>
      </trkpt>
      <trkpt lat="62.710538694488" lon="17.857375931806">
        <ele>38.4</ele>
        <time>2017-10-18T18:57:08Z</time>
      </trkpt>
      <trkpt lat="62.710507430001" lon="17.857463355023">
        <ele>38.4</ele>
        <time>2017-10-18T18:57:09Z</time>
      </trkpt>
      <trkpt lat="62.710477171342" lon="17.85754407272">
        <ele>38.8</ele>
        <time>2017-10-18T18:57:10Z</time>
      </trkpt>
      <trkpt lat="62.710441883543" lon="17.857635686887">
        <ele>38.8</ele>
        <time>2017-10-18T18:57:11Z</time>
      </trkpt>
      <trkpt lat="62.710409613228" lon="17.857723361561">
        <ele>39</ele>
        <time>2017-10-18T18:57:12Z</time>
      </trkpt>
      <trkpt lat="62.710378348741" lon="17.857805336543">
        <ele>39.2</ele>
        <time>2017-10-18T18:57:13Z</time>
      </trkpt>
      <trkpt lat="62.710344402046" lon="17.857896363977">
        <ele>39.2</ele>
        <time>2017-10-18T18:57:14Z</time>
      </trkpt>
      <trkpt lat="62.710312886102" lon="17.857973645095">
        <ele>39.4</ele>
        <time>2017-10-18T18:57:15Z</time>
      </trkpt>
      <trkpt lat="62.710279023226" lon="17.858051932041">
        <ele>39.6</ele>
        <time>2017-10-18T18:57:16Z</time>
      </trkpt>
      <trkpt lat="62.710243819246" lon="17.858138936163">
        <ele>39.6</ele>
        <time>2017-10-18T18:57:17Z</time>
      </trkpt>
      <trkpt lat="62.710213812044" lon="17.858215630548">
        <ele>39.8</ele>
        <time>2017-10-18T18:57:18Z</time>
      </trkpt>
      <trkpt lat="62.710179278616" lon="17.858299952462">
        <ele>40</ele>
        <time>2017-10-18T18:57:19Z</time>
      </trkpt>
      <trkpt lat="62.710146840663" lon="17.858374886648">
        <ele>40.2</ele>
        <time>2017-10-18T18:57:20Z</time>
      </trkpt>
      <trkpt lat="62.710114318891" lon="17.85844931792">
        <ele>40.2</ele>
        <time>2017-10-18T18:57:21Z</time>
      </trkpt>
      <trkpt lat="62.71008338968" lon="17.858516876034">
        <ele>40.4</ele>
        <time>2017-10-18T18:57:22Z</time>
      </trkpt>
      <trkpt lat="62.710050364994" lon="17.858588289822">
        <ele>40.6</ele>
        <time>2017-10-18T18:57:23Z</time>
      </trkpt>
      <trkpt lat="62.710015580109" lon="17.858661799085">
        <ele>40.8</ele>
        <time>2017-10-18T18:57:24Z</time>
      </trkpt>
      <trkpt lat="62.709982387785" lon="17.858728938104">
        <ele>40.8</ele>
        <time>2017-10-18T18:57:25Z</time>
      </trkpt>
      <trkpt lat="62.709949530737" lon="17.858794568381">
        <ele>41</ele>
        <time>2017-10-18T18:57:26Z</time>
      </trkpt>
      <trkpt lat="62.709917176603" lon="17.858860282477">
        <ele>41.2</ele>
        <time>2017-10-18T18:57:27Z</time>
      </trkpt>
      <trkpt lat="62.709888426686" lon="17.858913842818">
        <ele>41.2</ele>
        <time>2017-10-18T18:57:28Z</time>
      </trkpt>
      <trkpt lat="62.709850708136" lon="17.858980478923">
        <ele>41.2</ele>
        <time>2017-10-18T18:57:29Z</time>
      </trkpt>
      <trkpt lat="62.709819108373" lon="17.859037894938">
        <ele>41.2</ele>
        <time>2017-10-18T18:57:30Z</time>
      </trkpt>
      <trkpt lat="62.709781976556" lon="17.859105704509">
        <ele>41.2</ele>
        <time>2017-10-18T18:57:31Z</time>
      </trkpt>
      <trkpt lat="62.709745096196" lon="17.859168987854">
        <ele>41</ele>
        <time>2017-10-18T18:57:32Z</time>
      </trkpt>
      <trkpt lat="62.709707377646" lon="17.859227493516">
        <ele>41</ele>
        <time>2017-10-18T18:57:33Z</time>
      </trkpt>
      <trkpt lat="62.709668066535" lon="17.859291950327">
        <ele>41</ele>
        <time>2017-10-18T18:57:34Z</time>
      </trkpt>
      <trkpt lat="62.70962573794" lon="17.859364537581">
        <ele>40.8</ele>
        <time>2017-10-18T18:57:35Z</time>
      </trkpt>
      <trkpt lat="62.709586007734" lon="17.859431592781">
        <ele>40.6</ele>
        <time>2017-10-18T18:57:36Z</time>
      </trkpt>
      <trkpt lat="62.709545942252" lon="17.859498228886">
        <ele>40.6</ele>
        <time>2017-10-18T18:57:37Z</time>
      </trkpt>
      <trkpt lat="62.709506882598" lon="17.859558327109">
        <ele>40.6</ele>
        <time>2017-10-18T18:57:38Z</time>
      </trkpt>
      <trkpt lat="62.709462961442" lon="17.859622364825">
        <ele>40.4</ele>
        <time>2017-10-18T18:57:39Z</time>
      </trkpt>
      <trkpt lat="62.709423147417" lon="17.859675673709">
        <ele>40.4</ele>
        <time>2017-10-18T18:57:40Z</time>
      </trkpt>
      <trkpt lat="62.709377298424" lon="17.859737113036">
        <ele>40.4</ele>
        <time>2017-10-18T18:57:41Z</time>
      </trkpt>
      <trkpt lat="62.709335137467" lon="17.8597920983">
        <ele>40.4</ele>
        <time>2017-10-18T18:57:42Z</time>
      </trkpt>
      <trkpt lat="62.709295826356" lon="17.859846832107">
        <ele>40.4</ele>
        <time>2017-10-18T18:57:43Z</time>
      </trkpt>
      <trkpt lat="62.709252911028" lon="17.859908774348">
        <ele>40.4</ele>
        <time>2017-10-18T18:57:44Z</time>
      </trkpt>
      <trkpt lat="62.70921586303" lon="17.859961161223">
        <ele>40.4</ele>
        <time>2017-10-18T18:57:45Z</time>
      </trkpt>
      <trkpt lat="62.709176216643" lon="17.860015308297">
        <ele>40.6</ele>
        <time>2017-10-18T18:57:46Z</time>
      </trkpt>
      <trkpt lat="62.709135899704" lon="17.860068281905">
        <ele>40.6</ele>
        <time>2017-10-18T18:57:47Z</time>
      </trkpt>
      <trkpt lat="62.709100779543" lon="17.860114130898">
        <ele>40.8</ele>
        <time>2017-10-18T18:57:48Z</time>
      </trkpt>
      <trkpt lat="62.709062222803" lon="17.860166350135">
        <ele>40.8</ele>
        <time>2017-10-18T18:57:49Z</time>
      </trkpt>
      <trkpt lat="62.709025510081" lon="17.860213875508">
        <ele>41.2</ele>
        <time>2017-10-18T18:57:50Z</time>
      </trkpt>
      <trkpt lat="62.708989887006" lon="17.86026232289">
        <ele>41.4</ele>
        <time>2017-10-18T18:57:51Z</time>
      </trkpt>
      <trkpt lat="62.70895686232" lon="17.860309093892">
        <ele>41.6</ele>
        <time>2017-10-18T18:57:52Z</time>
      </trkpt>
      <trkpt lat="62.708925178738" lon="17.860353853238">
        <ele>41.8</ele>
        <time>2017-10-18T18:57:53Z</time>
      </trkpt>
      <trkpt lat="62.708882095772" lon="17.860413364728">
        <ele>42</ele>
        <time>2017-10-18T18:57:54Z</time>
      </trkpt>
      <trkpt lat="62.70884370667" lon="17.860462398843">
        <ele>42.2</ele>
        <time>2017-10-18T18:57:55Z</time>
      </trkpt>
      <trkpt lat="62.708806407215" lon="17.8605129417">
        <ele>42.4</ele>
        <time>2017-10-18T18:57:56Z</time>
      </trkpt>
      <trkpt lat="62.708770029769" lon="17.860565580032">
        <ele>42.6</ele>
        <time>2017-10-18T18:57:57Z</time>
      </trkpt>
      <trkpt lat="62.708738513825" lon="17.860607740989">
        <ele>42.8</ele>
        <time>2017-10-18T18:57:58Z</time>
      </trkpt>
      <trkpt lat="62.708698029248" lon="17.860657529475">
        <ele>43</ele>
        <time>2017-10-18T18:57:59Z</time>
      </trkpt>
      <trkpt lat="62.708664082553" lon="17.860700109527">
        <ele>43.2</ele>
        <time>2017-10-18T18:58:00Z</time>
      </trkpt>
      <trkpt lat="62.708624687623" lon="17.860747467262">
        <ele>43.4</ele>
        <time>2017-10-18T18:58:01Z</time>
      </trkpt>
      <trkpt lat="62.70858889691" lon="17.860793483893">
        <ele>43.6</ele>
        <time>2017-10-18T18:58:02Z</time>
      </trkpt>
      <trkpt lat="62.708555285491" lon="17.860837069773">
        <ele>44</ele>
        <time>2017-10-18T18:58:03Z</time>
      </trkpt>
      <trkpt lat="62.708520584425" lon="17.860880739472">
        <ele>44.2</ele>
        <time>2017-10-18T18:58:04Z</time>
      </trkpt>
      <trkpt lat="62.708483033513" lon="17.860926839922">
        <ele>44.6</ele>
        <time>2017-10-18T18:58:05Z</time>
      </trkpt>
      <trkpt lat="62.708448416266" lon="17.860971180173">
        <ele>44.6</ele>
        <time>2017-10-18T18:58:06Z</time>
      </trkpt>
      <trkpt lat="62.708413882838" lon="17.86101753208">
        <ele>45</ele>
        <time>2017-10-18T18:58:07Z</time>
      </trkpt>
      <trkpt lat="62.708379097953" lon="17.861062039969">
        <ele>45</ele>
        <time>2017-10-18T18:58:08Z</time>
      </trkpt>
      <trkpt lat="62.708340373575" lon="17.86111224755">
        <ele>45.4</ele>
        <time>2017-10-18T18:58:09Z</time>
      </trkpt>
      <trkpt lat="62.7083047505" lon="17.861159353828">
        <ele>45.4</ele>
        <time>2017-10-18T18:58:10Z</time>
      </trkpt>
      <trkpt lat="62.708263343914" lon="17.861211908341">
        <ele>45.6</ele>
        <time>2017-10-18T18:58:11Z</time>
      </trkpt>
      <trkpt lat="62.708223613708" lon="17.861260355723">
        <ele>45.8</ele>
        <time>2017-10-18T18:58:12Z</time>
      </trkpt>
      <trkpt lat="62.708186230434" lon="17.86131089858">
        <ele>45.8</ele>
        <time>2017-10-18T18:58:13Z</time>
      </trkpt>
      <trkpt lat="62.708143985658" lon="17.861367308767">
        <ele>45.8</ele>
        <time>2017-10-18T18:58:14Z</time>
      </trkpt>
      <trkpt lat="62.708103836357" lon="17.861420533832">
        <ele>46</ele>
        <time>2017-10-18T18:58:15Z</time>
      </trkpt>
      <trkpt lat="62.708061423943" lon="17.86147434563">
        <ele>45.8</ele>
        <time>2017-10-18T18:58:16Z</time>
      </trkpt>
      <trkpt lat="62.708014820579" lon="17.861531091093">
        <ele>45.8</ele>
        <time>2017-10-18T18:58:17Z</time>
      </trkpt>
      <trkpt lat="62.707974168364" lon="17.861579035561">
        <ele>46</ele>
        <time>2017-10-18T18:58:18Z</time>
      </trkpt>
      <trkpt lat="62.707929409018" lon="17.861636703033">
        <ele>46</ele>
        <time>2017-10-18T18:58:19Z</time>
      </trkpt>
      <trkpt lat="62.707888337708" lon="17.8616947896">
        <ele>46.2</ele>
        <time>2017-10-18T18:58:20Z</time>
      </trkpt>
      <trkpt lat="62.707845925294" lon="17.86175765385">
        <ele>46.2</ele>
        <time>2017-10-18T18:58:21Z</time>
      </trkpt>
      <trkpt lat="62.707808961115" lon="17.861815405141">
        <ele>46.2</ele>
        <time>2017-10-18T18:58:22Z</time>
      </trkpt>
      <trkpt lat="62.707767889805" lon="17.861879861952">
        <ele>46.2</ele>
        <time>2017-10-18T18:58:23Z</time>
      </trkpt>
      <trkpt lat="62.707724052468" lon="17.861947420066">
        <ele>46.2</ele>
        <time>2017-10-18T18:58:24Z</time>
      </trkpt>
      <trkpt lat="62.707684573719" lon="17.86201497818">
        <ele>46</ele>
        <time>2017-10-18T18:58:25Z</time>
      </trkpt>
      <trkpt lat="62.707644759694" lon="17.862087230158">
        <ele>46</ele>
        <time>2017-10-18T18:58:26Z</time>
      </trkpt>
      <trkpt lat="62.707602934013" lon="17.862158057213">
        <ele>46</ele>
        <time>2017-10-18T18:58:27Z</time>
      </trkpt>
      <trkpt lat="62.707566221291" lon="17.862222933119">
        <ele>45.8</ele>
        <time>2017-10-18T18:58:28Z</time>
      </trkpt>
      <trkpt lat="62.707522048678" lon="17.862309685784">
        <ele>45.8</ele>
        <time>2017-10-18T18:58:29Z</time>
      </trkpt>
      <trkpt lat="62.707486509422" lon="17.862381686305">
        <ele>45.6</ele>
        <time>2017-10-18T18:58:30Z</time>
      </trkpt>
      <trkpt lat="62.707444851379" lon="17.862466008219">
        <ele>45.6</ele>
        <time>2017-10-18T18:58:31Z</time>
      </trkpt>
      <trkpt lat="62.707408390114" lon="17.862544881898">
        <ele>45.4</ele>
        <time>2017-10-18T18:58:32Z</time>
      </trkpt>
      <trkpt lat="62.707374946333" lon="17.862625767233">
        <ele>45.4</ele>
        <time>2017-10-18T18:58:33Z</time>
      </trkpt>
      <trkpt lat="62.707343178932" lon="17.862713106631">
        <ele>45.2</ele>
        <time>2017-10-18T18:58:34Z</time>
      </trkpt>
      <trkpt lat="62.707313004092" lon="17.862808325015">
        <ele>45.2</ele>
        <time>2017-10-18T18:58:35Z</time>
      </trkpt>
      <trkpt lat="62.707287271659" lon="17.862897173155">
        <ele>45.2</ele>
        <time>2017-10-18T18:58:36Z</time>
      </trkpt>
      <trkpt lat="62.707261036312" lon="17.862987613856">
        <ele>45.2</ele>
        <time>2017-10-18T18:58:37Z</time>
      </trkpt>
      <trkpt lat="62.707235806793" lon="17.863072103408">
        <ele>45.2</ele>
        <time>2017-10-18T18:58:38Z</time>
      </trkpt>
      <trkpt lat="62.707209152351" lon="17.863165226317">
        <ele>45.2</ele>
        <time>2017-10-18T18:58:39Z</time>
      </trkpt>
      <trkpt lat="62.707185263936" lon="17.863245944014">
        <ele>45.2</ele>
        <time>2017-10-18T18:58:40Z</time>
      </trkpt>
      <trkpt lat="62.707163051901" lon="17.863337055267">
        <ele>45.4</ele>
        <time>2017-10-18T18:58:41Z</time>
      </trkpt>
      <trkpt lat="62.707144863178" lon="17.863423305018">
        <ele>45.4</ele>
        <time>2017-10-18T18:58:42Z</time>
      </trkpt>
      <trkpt lat="62.70712793174" lon="17.863505531457">
        <ele>45.6</ele>
        <time>2017-10-18T18:58:43Z</time>
      </trkpt>
      <trkpt lat="62.707111419397" lon="17.863599827832">
        <ele>45.8</ele>
        <time>2017-10-18T18:58:44Z</time>
      </trkpt>
      <trkpt lat="62.707095493787" lon="17.863685742307">
        <ele>46</ele>
        <time>2017-10-18T18:58:45Z</time>
      </trkpt>
      <trkpt lat="62.707079400539" lon="17.863775428637">
        <ele>46.2</ele>
        <time>2017-10-18T18:58:46Z</time>
      </trkpt>
      <trkpt lat="62.707063726386" lon="17.863868132451">
        <ele>46.6</ele>
        <time>2017-10-18T18:58:47Z</time>
      </trkpt>
      <trkpt lat="62.70704998007" lon="17.863952622003">
        <ele>46.6</ele>
        <time>2017-10-18T18:58:48Z</time>
      </trkpt>
      <trkpt lat="62.707034976469" lon="17.864045325817">
        <ele>46.8</ele>
        <time>2017-10-18T18:58:49Z</time>
      </trkpt>
      <trkpt lat="62.707023660904" lon="17.864131994663">
        <ele>47</ele>
        <time>2017-10-18T18:58:50Z</time>
      </trkpt>
      <trkpt lat="62.707012764434" lon="17.864220423708">
        <ele>47.4</ele>
        <time>2017-10-18T18:58:51Z</time>
      </trkpt>
      <trkpt lat="62.707003544344" lon="17.864296782817">
        <ele>47.6</ele>
        <time>2017-10-18T18:58:52Z</time>
      </trkpt>
      <trkpt lat="62.706994743349" lon="17.864383367844">
        <ele>47.6</ele>
        <time>2017-10-18T18:58:53Z</time>
      </trkpt>
      <trkpt lat="62.706988708381" lon="17.864473724726">
        <ele>48</ele>
        <time>2017-10-18T18:58:54Z</time>
      </trkpt>
      <trkpt lat="62.706984265974" lon="17.864559220106">
        <ele>48.4</ele>
        <time>2017-10-18T18:58:55Z</time>
      </trkpt>
      <trkpt lat="62.706978650101" lon="17.864642536192">
        <ele>48.8</ele>
        <time>2017-10-18T18:58:56Z</time>
      </trkpt>
      <trkpt lat="62.706974040056" lon="17.864725936097">
        <ele>49</ele>
        <time>2017-10-18T18:58:57Z</time>
      </trkpt>
      <trkpt lat="62.706970519658" lon="17.864802714301">
        <ele>49.4</ele>
        <time>2017-10-18T18:58:58Z</time>
      </trkpt>
      <trkpt lat="62.706966077251" lon="17.864897848866">
        <ele>49.6</ele>
        <time>2017-10-18T18:58:59Z</time>
      </trkpt>
      <trkpt lat="62.706960796654" lon="17.864979823848">
        <ele>50</ele>
        <time>2017-10-18T18:59:00Z</time>
      </trkpt>
      <trkpt lat="62.706957108618" lon="17.86507437168">
        <ele>50.2</ele>
        <time>2017-10-18T18:59:01Z</time>
      </trkpt>
      <trkpt lat="62.706955348419" lon="17.86516573439">
        <ele>50.4</ele>
        <time>2017-10-18T18:59:02Z</time>
      </trkpt>
      <trkpt lat="62.706953923496" lon="17.865253157607">
        <ele>50.8</ele>
        <time>2017-10-18T18:59:03Z</time>
      </trkpt>
      <trkpt lat="62.706953839677" lon="17.865344436498">
        <ele>51.2</ele>
        <time>2017-10-18T18:59:04Z</time>
      </trkpt>
      <trkpt lat="62.706952498573" lon="17.865446276583">
        <ele>51.4</ele>
        <time>2017-10-18T18:59:05Z</time>
      </trkpt>
      <trkpt lat="62.706951828021" lon="17.865539902406">
        <ele>51.6</ele>
        <time>2017-10-18T18:59:06Z</time>
      </trkpt>
      <trkpt lat="62.706952666211" lon="17.865635539885">
        <ele>51.8</ele>
        <time>2017-10-18T18:59:07Z</time>
      </trkpt>
      <trkpt lat="62.706953672039" lon="17.865729081889">
        <ele>52</ele>
        <time>2017-10-18T18:59:08Z</time>
      </trkpt>
      <trkpt lat="62.706952666211" lon="17.865833017449">
        <ele>52</ele>
        <time>2017-10-18T18:59:09Z</time>
      </trkpt>
      <trkpt lat="62.706950570736" lon="17.865929576937">
        <ele>52.2</ele>
        <time>2017-10-18T18:59:10Z</time>
      </trkpt>
      <trkpt lat="62.706945373958" lon="17.866034350687">
        <ele>52.2</ele>
        <time>2017-10-18T18:59:11Z</time>
      </trkpt>
      <trkpt lat="62.706938752257" lon="17.86613300565">
        <ele>52.2</ele>
        <time>2017-10-18T18:59:12Z</time>
      </trkpt>
      <trkpt lat="62.7069301189" lon="17.86622353017">
        <ele>52.2</ele>
        <time>2017-10-18T18:59:13Z</time>
      </trkpt>
      <trkpt lat="62.706917797507" lon="17.866316317803">
        <ele>52.2</ele>
        <time>2017-10-18T18:59:14Z</time>
      </trkpt>
      <trkpt lat="62.706906733399" lon="17.866399047156">
        <ele>52.2</ele>
        <time>2017-10-18T18:59:15Z</time>
      </trkpt>
      <trkpt lat="62.706895920748" lon="17.866485632183">
        <ele>52.2</ele>
        <time>2017-10-18T18:59:16Z</time>
      </trkpt>
      <trkpt lat="62.706883096441" lon="17.866578000721">
        <ele>52.2</ele>
        <time>2017-10-18T18:59:17Z</time>
      </trkpt>
      <trkpt lat="62.706870858867" lon="17.866657880228">
        <ele>52.2</ele>
        <time>2017-10-18T18:59:18Z</time>
      </trkpt>
      <trkpt lat="62.706853508334" lon="17.86674656073">
        <ele>52.4</ele>
        <time>2017-10-18T18:59:19Z</time>
      </trkpt>
      <trkpt lat="62.706835319611" lon="17.866827362246">
        <ele>52.4</ele>
        <time>2017-10-18T18:59:20Z</time>
      </trkpt>
      <trkpt lat="62.706815789784" lon="17.866901961156">
        <ele>52.4</ele>
        <time>2017-10-18T18:59:21Z</time>
      </trkpt>
      <trkpt lat="62.706796176138" lon="17.866966082691">
        <ele>52.4</ele>
        <time>2017-10-18T18:59:22Z</time>
      </trkpt>
      <trkpt lat="62.706774299379" lon="17.867031293873">
        <ele>52.4</ele>
        <time>2017-10-18T18:59:23Z</time>
      </trkpt>
      <trkpt lat="62.706750830059" lon="17.867094241942">
        <ele>52.4</ele>
        <time>2017-10-18T18:59:24Z</time>
      </trkpt>
      <trkpt lat="62.706728198929" lon="17.867146293541">
        <ele>52.4</ele>
        <time>2017-10-18T18:59:25Z</time>
      </trkpt>
      <trkpt lat="62.706704561971" lon="17.867198428959">
        <ele>52.4</ele>
        <time>2017-10-18T18:59:26Z</time>
      </trkpt>
      <trkpt lat="62.706680422099" lon="17.867244697047">
        <ele>52.4</ele>
        <time>2017-10-18T18:59:27Z</time>
      </trkpt>
      <trkpt lat="62.706658880616" lon="17.867285013986">
        <ele>52.4</ele>
        <time>2017-10-18T18:59:28Z</time>
      </trkpt>
      <trkpt lat="62.706632477631" lon="17.867335305386">
        <ele>52.4</ele>
        <time>2017-10-18T18:59:29Z</time>
      </trkpt>
      <trkpt lat="62.706612528709" lon="17.867376209058">
        <ele>52.4</ele>
        <time>2017-10-18T18:59:30Z</time>
      </trkpt>
      <trkpt lat="62.706593501796" lon="17.867418370015">
        <ele>52.2</ele>
        <time>2017-10-18T18:59:31Z</time>
      </trkpt>
      <trkpt lat="62.706579336385" lon="17.867449550683">
        <ele>52.2</ele>
        <time>2017-10-18T18:59:32Z</time>
      </trkpt>
      <trkpt lat="62.706566009164" lon="17.867479641704">
        <ele>52.2</ele>
        <time>2017-10-18T18:59:33Z</time>
      </trkpt>
      <trkpt lat="62.706561985852" lon="17.867488191242">
        <ele>52.2</ele>
        <time>2017-10-18T18:59:34Z</time>
      </trkpt>
      <trkpt lat="62.706555950884" lon="17.867500261178">
        <ele>52.2</ele>
        <time>2017-10-18T18:59:35Z</time>
      </trkpt>
      <trkpt lat="62.706558381635" lon="17.867499171531">
        <ele>52.2</ele>
        <time>2017-10-18T18:59:36Z</time>
      </trkpt>
      <trkpt lat="62.70655712435" lon="17.867497830427">
        <ele>52.2</ele>
        <time>2017-10-18T18:59:37Z</time>
      </trkpt>
      <trkpt lat="62.706496187937" lon="17.867802596311">
        <ele>52.2</ele>
        <time>2017-10-18T19:00:58Z</time>
      </trkpt>
      <trkpt lat="62.706513454651" lon="17.867884068379">
        <ele>52.2</ele>
        <time>2017-10-18T19:00:59Z</time>
      </trkpt>
      <trkpt lat="62.706531308098" lon="17.867960846583">
        <ele>52.2</ele>
        <time>2017-10-18T19:01:00Z</time>
      </trkpt>
      <trkpt lat="62.706551340839" lon="17.868041061366">
        <ele>52.2</ele>
        <time>2017-10-18T19:01:01Z</time>
      </trkpt>
      <trkpt lat="62.70657472634" lon="17.868121611425">
        <ele>52.2</ele>
        <time>2017-10-18T19:01:02Z</time>
      </trkpt>
      <trkpt lat="62.706597692746" lon="17.868200736561">
        <ele>52.4</ele>
        <time>2017-10-18T19:01:03Z</time>
      </trkpt>
      <trkpt lat="62.706623257541" lon="17.868284555561">
        <ele>52.4</ele>
        <time>2017-10-18T19:01:04Z</time>
      </trkpt>
      <trkpt lat="62.706649492888" lon="17.868375499176">
        <ele>52.6</ele>
        <time>2017-10-18T19:01:05Z</time>
      </trkpt>
      <trkpt lat="62.706673968036" lon="17.868458479986">
        <ele>52.6</ele>
        <time>2017-10-18T19:01:06Z</time>
      </trkpt>
      <trkpt lat="62.706697185899" lon="17.868536180199">
        <ele>52.8</ele>
        <time>2017-10-18T19:01:07Z</time>
      </trkpt>
      <trkpt lat="62.706718224468" lon="17.868607091073">
        <ele>53</ele>
        <time>2017-10-18T19:01:08Z</time>
      </trkpt>
      <trkpt lat="62.706742196702" lon="17.868687473494">
        <ele>53</ele>
        <time>2017-10-18T19:01:09Z</time>
      </trkpt>
      <trkpt lat="62.706763486728" lon="17.86876156949">
        <ele>53.2</ele>
        <time>2017-10-18T19:01:10Z</time>
      </trkpt>
      <trkpt lat="62.706787458962" lon="17.868845891404">
        <ele>53.2</ele>
        <time>2017-10-18T19:01:11Z</time>
      </trkpt>
      <trkpt lat="62.706810928282" lon="17.868925267997">
        <ele>53.4</ele>
        <time>2017-10-18T19:01:12Z</time>
      </trkpt>
      <trkpt lat="62.706833140317" lon="17.869001040373">
        <ele>53.4</ele>
        <time>2017-10-18T19:01:13Z</time>
      </trkpt>
      <trkpt lat="62.706857783103" lon="17.869086284296">
        <ele>53.8</ele>
        <time>2017-10-18T19:01:14Z</time>
      </trkpt>
      <trkpt lat="62.706881587699" lon="17.869165325613">
        <ele>53.8</ele>
        <time>2017-10-18T19:01:15Z</time>
      </trkpt>
      <trkpt lat="62.706904637924" lon="17.869240846532">
        <ele>54</ele>
        <time>2017-10-18T19:01:16Z</time>
      </trkpt>
      <trkpt lat="62.706929196891" lon="17.869327096283">
        <ele>54</ele>
        <time>2017-10-18T19:01:17Z</time>
      </trkpt>
      <trkpt lat="62.706951660383" lon="17.869404042125">
        <ele>54.2</ele>
        <time>2017-10-18T19:01:18Z</time>
      </trkpt>
      <trkpt lat="62.706976051712" lon="17.869484843641">
        <ele>54</ele>
        <time>2017-10-18T19:01:19Z</time>
      </trkpt>
      <trkpt lat="62.706997006462" lon="17.869559358732">
        <ele>54</ele>
        <time>2017-10-18T19:01:20Z</time>
      </trkpt>
      <trkpt lat="62.707019721411" lon="17.869635717841">
        <ele>54.2</ele>
        <time>2017-10-18T19:01:21Z</time>
      </trkpt>
      <trkpt lat="62.707041262894" lon="17.869704952335">
        <ele>54.2</ele>
        <time>2017-10-18T19:01:22Z</time>
      </trkpt>
      <trkpt lat="62.707065235128" lon="17.869782149634">
        <ele>54.2</ele>
        <time>2017-10-18T19:01:23Z</time>
      </trkpt>
      <trkpt lat="62.707091135199" lon="17.869868650842">
        <ele>54.4</ele>
        <time>2017-10-18T19:01:24Z</time>
      </trkpt>
      <trkpt lat="62.707114101605" lon="17.869951212557">
        <ele>54.4</ele>
        <time>2017-10-18T19:01:25Z</time>
      </trkpt>
      <trkpt lat="62.707138492934" lon="17.870037713765">
        <ele>54.4</ele>
        <time>2017-10-18T19:01:26Z</time>
      </trkpt>
      <trkpt lat="62.707162548987" lon="17.870119185833">
        <ele>54.6</ele>
        <time>2017-10-18T19:01:27Z</time>
      </trkpt>
      <trkpt lat="62.707183000823" lon="17.870190934897">
        <ele>54.6</ele>
        <time>2017-10-18T19:01:28Z</time>
      </trkpt>
      <trkpt lat="62.70721091255" lon="17.87028372253">
        <ele>54.6</ele>
        <time>2017-10-18T19:01:29Z</time>
      </trkpt>
      <trkpt lat="62.70723522006" lon="17.870364607865">
        <ele>54.8</ele>
        <time>2017-10-18T19:01:30Z</time>
      </trkpt>
      <trkpt lat="62.70725785119" lon="17.870446750485">
        <ele>54.8</ele>
        <time>2017-10-18T19:01:31Z</time>
      </trkpt>
      <trkpt lat="62.707281152872" lon="17.870526965268">
        <ele>54.8</ele>
        <time>2017-10-18T19:01:32Z</time>
      </trkpt>
      <trkpt lat="62.707303532545" lon="17.870603324377">
        <ele>54.8</ele>
        <time>2017-10-18T19:01:33Z</time>
      </trkpt>
      <trkpt lat="62.707326834227" lon="17.870680102581">
        <ele>54.8</ele>
        <time>2017-10-18T19:01:34Z</time>
      </trkpt>
      <trkpt lat="62.707353069574" lon="17.870763502486">
        <ele>55</ele>
        <time>2017-10-18T19:01:35Z</time>
      </trkpt>
      <trkpt lat="62.707376790351" lon="17.870845561287">
        <ele>55</ele>
        <time>2017-10-18T19:01:36Z</time>
      </trkpt>
      <trkpt lat="62.707400930223" lon="17.870928374459">
        <ele>55.2</ele>
        <time>2017-10-18T19:01:37Z</time>
      </trkpt>
      <trkpt lat="62.707424315724" lon="17.871003811559">
        <ele>55.6</ele>
        <time>2017-10-18T19:01:38Z</time>
      </trkpt>
      <trkpt lat="62.707449377605" lon="17.87108670855">
        <ele>55.8</ele>
        <time>2017-10-18T19:01:39Z</time>
      </trkpt>
      <trkpt lat="62.70747158964" lon="17.871161726555">
        <ele>55.8</ele>
        <time>2017-10-18T19:01:40Z</time>
      </trkpt>
      <trkpt lat="62.707496316245" lon="17.871244120632">
        <ele>55.8</ele>
        <time>2017-10-18T19:01:41Z</time>
      </trkpt>
      <trkpt lat="62.707518863556" lon="17.871322323759">
        <ele>55.8</ele>
        <time>2017-10-18T19:01:42Z</time>
      </trkpt>
      <trkpt lat="62.707538477202" lon="17.871392815538">
        <ele>55.8</ele>
        <time>2017-10-18T19:01:43Z</time>
      </trkpt>
      <trkpt lat="62.70756127597" lon="17.871471186303">
        <ele>55.8</ele>
        <time>2017-10-18T19:01:44Z</time>
      </trkpt>
      <trkpt lat="62.707583152729" lon="17.87154687486">
        <ele>55.8</ele>
        <time>2017-10-18T19:01:45Z</time>
      </trkpt>
      <trkpt lat="62.707603520746" lon="17.87161979739">
        <ele>55.6</ele>
        <time>2017-10-18T19:01:46Z</time>
      </trkpt>
      <trkpt lat="62.7076258166" lon="17.87170194001">
        <ele>55.8</ele>
        <time>2017-10-18T19:01:47Z</time>
      </trkpt>
      <trkpt lat="62.707646603712" lon="17.871774108169">
        <ele>55.8</ele>
        <time>2017-10-18T19:01:48Z</time>
      </trkpt>
      <trkpt lat="62.70766856429" lon="17.871853568581">
        <ele>56</ele>
        <time>2017-10-18T19:01:49Z</time>
      </trkpt>
      <trkpt lat="62.707689686678" lon="17.871928418948">
        <ele>56</ele>
        <time>2017-10-18T19:01:50Z</time>
      </trkpt>
      <trkpt lat="62.707711060523" lon="17.872004107505">
        <ele>56.2</ele>
        <time>2017-10-18T19:01:51Z</time>
      </trkpt>
      <trkpt lat="62.70773059035" lon="17.87207241999">
        <ele>56.4</ele>
        <time>2017-10-18T19:01:52Z</time>
      </trkpt>
      <trkpt lat="62.707750958367" lon="17.8721470189">
        <ele>56.6</ele>
        <time>2017-10-18T19:01:53Z</time>
      </trkpt>
      <trkpt lat="62.707772667488" lon="17.872224300018">
        <ele>56.6</ele>
        <time>2017-10-18T19:01:54Z</time>
      </trkpt>
      <trkpt lat="62.707791862039" lon="17.872297138729">
        <ele>56.6</ele>
        <time>2017-10-18T19:01:55Z</time>
      </trkpt>
      <trkpt lat="62.707813403522" lon="17.872372575829">
        <ele>56.8</ele>
        <time>2017-10-18T19:01:56Z</time>
      </trkpt>
      <trkpt lat="62.707834022996" lon="17.872449773128">
        <ele>57</ele>
        <time>2017-10-18T19:01:57Z</time>
      </trkpt>
      <trkpt lat="62.707850786796" lon="17.872518588527">
        <ele>57</ele>
        <time>2017-10-18T19:01:58Z</time>
      </trkpt>
      <trkpt lat="62.707873585564" lon="17.872609615961">
        <ele>57.2</ele>
        <time>2017-10-18T19:01:59Z</time>
      </trkpt>
      <trkpt lat="62.707894288857" lon="17.872690333658">
        <ele>57.2</ele>
        <time>2017-10-18T19:02:00Z</time>
      </trkpt>
      <trkpt lat="62.707915327426" lon="17.872767782414">
        <ele>57.4</ele>
        <time>2017-10-18T19:02:01Z</time>
      </trkpt>
      <trkpt lat="62.707936449814" lon="17.872842632781">
        <ele>57.4</ele>
        <time>2017-10-18T19:02:02Z</time>
      </trkpt>
      <trkpt lat="62.707956650193" lon="17.872913459836">
        <ele>57.6</ele>
        <time>2017-10-18T19:02:03Z</time>
      </trkpt>
      <trkpt lat="62.707977940219" lon="17.872988310203">
        <ele>57.6</ele>
        <time>2017-10-18T19:02:04Z</time>
      </trkpt>
      <trkpt lat="62.707999230245" lon="17.873065004588">
        <ele>57.8</ele>
        <time>2017-10-18T19:02:05Z</time>
      </trkpt>
      <trkpt lat="62.708017586606" lon="17.873139603498">
        <ele>57.8</ele>
        <time>2017-10-18T19:02:06Z</time>
      </trkpt>
      <trkpt lat="62.708037870804" lon="17.873217136073">
        <ele>57.8</ele>
        <time>2017-10-18T19:02:07Z</time>
      </trkpt>
      <trkpt lat="62.708056562441" lon="17.87328947187">
        <ele>58</ele>
        <time>2017-10-18T19:02:08Z</time>
      </trkpt>
      <trkpt lat="62.708078606838" lon="17.873370273386">
        <ele>58.2</ele>
        <time>2017-10-18T19:02:09Z</time>
      </trkpt>
      <trkpt lat="62.708098471941" lon="17.873442609183">
        <ele>58.2</ele>
        <time>2017-10-18T19:02:10Z</time>
      </trkpt>
      <trkpt lat="62.7081203487" lon="17.873524751803">
        <ele>58.2</ele>
        <time>2017-10-18T19:02:11Z</time>
      </trkpt>
      <trkpt lat="62.708139878527" lon="17.873603625482">
        <ele>58.4</ele>
        <time>2017-10-18T19:02:12Z</time>
      </trkpt>
      <trkpt lat="62.708157396698" lon="17.873679397858">
        <ele>58.4</ele>
        <time>2017-10-18T19:02:13Z</time>
      </trkpt>
      <trkpt lat="62.708177932353" lon="17.873763384496">
        <ele>58.6</ele>
        <time>2017-10-18T19:02:14Z</time>
      </trkpt>
      <trkpt lat="62.708197378361" lon="17.873841503804">
        <ele>58.8</ele>
        <time>2017-10-18T19:02:15Z</time>
      </trkpt>
      <trkpt lat="62.708214728894" lon="17.873915767438">
        <ele>59</ele>
        <time>2017-10-18T19:02:16Z</time>
      </trkpt>
      <trkpt lat="62.708235096911" lon="17.874001430456">
        <ele>59.2</ele>
        <time>2017-10-18T19:02:17Z</time>
      </trkpt>
      <trkpt lat="62.708253537091" lon="17.874077538108">
        <ele>59.4</ele>
        <time>2017-10-18T19:02:18Z</time>
      </trkpt>
      <trkpt lat="62.708272312547" lon="17.874163787859">
        <ele>59.6</ele>
        <time>2017-10-18T19:02:19Z</time>
      </trkpt>
      <trkpt lat="62.708289998356" lon="17.874246014298">
        <ele>59.6</ele>
        <time>2017-10-18T19:02:20Z</time>
      </trkpt>
      <trkpt lat="62.708308270898" lon="17.874327654004">
        <ele>59.8</ele>
        <time>2017-10-18T19:02:21Z</time>
      </trkpt>
      <trkpt lat="62.708325537612" lon="17.87440342638">
        <ele>59.8</ele>
        <time>2017-10-18T19:02:22Z</time>
      </trkpt>
      <trkpt lat="62.708343810154" lon="17.874485652819">
        <ele>59.8</ele>
        <time>2017-10-18T19:02:23Z</time>
      </trkpt>
      <trkpt lat="62.708363507619" lon="17.874570142371">
        <ele>60</ele>
        <time>2017-10-18T19:02:24Z</time>
      </trkpt>
      <trkpt lat="62.708381277247" lon="17.874646752937">
        <ele>60.2</ele>
        <time>2017-10-18T19:02:25Z</time>
      </trkpt>
      <trkpt lat="62.708398795418" lon="17.87472445315">
        <ele>60.2</ele>
        <time>2017-10-18T19:02:26Z</time>
      </trkpt>
      <trkpt lat="62.708415307761" lon="17.874800644621">
        <ele>60.2</ele>
        <time>2017-10-18T19:02:27Z</time>
      </trkpt>
      <trkpt lat="62.708429808448" lon="17.874869543839">
        <ele>60.4</ele>
        <time>2017-10-18T19:02:28Z</time>
      </trkpt>
      <trkpt lat="62.708447829533" lon="17.874955625952">
        <ele>60.4</ele>
        <time>2017-10-18T19:02:29Z</time>
      </trkpt>
      <trkpt lat="62.7084640066" lon="17.875031985061">
        <ele>60.6</ele>
        <time>2017-10-18T19:02:30Z</time>
      </trkpt>
      <trkpt lat="62.70847993221" lon="17.875108595627">
        <ele>60.8</ele>
        <time>2017-10-18T19:02:31Z</time>
      </trkpt>
      <trkpt lat="62.708494265259" lon="17.875184870917">
        <ele>60.8</ele>
        <time>2017-10-18T19:02:32Z</time>
      </trkpt>
      <trkpt lat="62.708508095394" lon="17.875257793447">
        <ele>61</ele>
        <time>2017-10-18T19:02:33Z</time>
      </trkpt>
      <trkpt lat="62.708522847538" lon="17.875330715977">
        <ele>61</ele>
        <time>2017-10-18T19:02:34Z</time>
      </trkpt>
      <trkpt lat="62.708536845311" lon="17.875414618796">
        <ele>61</ele>
        <time>2017-10-18T19:02:35Z</time>
      </trkpt>
      <trkpt lat="62.708541371537" lon="17.87549894071">
        <ele>61.2</ele>
        <time>2017-10-18T19:02:36Z</time>
      </trkpt>
      <trkpt lat="62.708533492551" lon="17.875586280108">
        <ele>61.2</ele>
        <time>2017-10-18T19:02:37Z</time>
      </trkpt>
      <trkpt lat="62.708513627448" lon="17.875661046656">
        <ele>61.4</ele>
        <time>2017-10-18T19:02:38Z</time>
      </trkpt>
      <trkpt lat="62.708481776228" lon="17.875724749096">
        <ele>61.6</ele>
        <time>2017-10-18T19:02:39Z</time>
      </trkpt>
      <trkpt lat="62.708447075162" lon="17.875768670252">
        <ele>61.6</ele>
        <time>2017-10-18T19:02:40Z</time>
      </trkpt>
      <trkpt lat="62.708404830386" lon="17.875809825381">
        <ele>61.8</ele>
        <time>2017-10-18T19:02:41Z</time>
      </trkpt>
      <trkpt lat="62.708362669429" lon="17.875846202827">
        <ele>61.8</ele>
        <time>2017-10-18T19:02:42Z</time>
      </trkpt>
      <trkpt lat="62.708322101033" lon="17.875885430119">
        <ele>61.8</ele>
        <time>2017-10-18T19:02:43Z</time>
      </trkpt>
      <trkpt lat="62.708276168221" lon="17.875933626044">
        <ele>61.8</ele>
        <time>2017-10-18T19:02:44Z</time>
      </trkpt>
      <trkpt lat="62.708233839626" lon="17.875981319055">
        <ele>61.6</ele>
        <time>2017-10-18T19:02:45Z</time>
      </trkpt>
      <trkpt lat="62.708193941782" lon="17.876028341514">
        <ele>61.6</ele>
        <time>2017-10-18T19:02:46Z</time>
      </trkpt>
      <trkpt lat="62.708147841332" lon="17.876070251014">
        <ele>61.4</ele>
        <time>2017-10-18T19:02:47Z</time>
      </trkpt>
      <trkpt lat="62.708105848013" lon="17.876105035899">
        <ele>61.4</ele>
        <time>2017-10-18T19:02:48Z</time>
      </trkpt>
      <trkpt lat="62.708058825554" lon="17.876147867408">
        <ele>61.4</ele>
        <time>2017-10-18T19:02:49Z</time>
      </trkpt>
      <trkpt lat="62.708014401484" lon="17.876191369469">
        <ele>61.2</ele>
        <time>2017-10-18T19:02:50Z</time>
      </trkpt>
      <trkpt lat="62.707968720129" lon="17.876233614245">
        <ele>61.2</ele>
        <time>2017-10-18T19:02:51Z</time>
      </trkpt>
      <trkpt lat="62.707926307715" lon="17.876269069682">
        <ele>61</ele>
        <time>2017-10-18T19:02:52Z</time>
      </trkpt>
      <trkpt lat="62.707877944152" lon="17.876311817372">
        <ele>60.8</ele>
        <time>2017-10-18T19:02:53Z</time>
      </trkpt>
      <trkpt lat="62.707827149838" lon="17.876356325261">
        <ele>60.6</ele>
        <time>2017-10-18T19:02:54Z</time>
      </trkpt>
      <trkpt lat="62.707778450999" lon="17.876399575865">
        <ele>60.6</ele>
        <time>2017-10-18T19:02:55Z</time>
      </trkpt>
      <trkpt lat="62.707727153771" lon="17.876445173401">
        <ele>60.4</ele>
        <time>2017-10-18T19:02:56Z</time>
      </trkpt>
      <trkpt lat="62.707676024181" lon="17.876488340186">
        <ele>60.2</ele>
        <time>2017-10-18T19:02:57Z</time>
      </trkpt>
      <trkpt lat="62.707629588455" lon="17.876524717632">
        <ele>60</ele>
        <time>2017-10-18T19:02:58Z</time>
      </trkpt>
      <trkpt lat="62.707568987318" lon="17.876568722607">
        <ele>59.6</ele>
        <time>2017-10-18T19:02:59Z</time>
      </trkpt>
      <trkpt lat="62.707513834416" lon="17.876610715926">
        <ele>59.4</ele>
        <time>2017-10-18T19:03:00Z</time>
      </trkpt>
      <trkpt lat="62.707456837496" lon="17.87665899567">
        <ele>59</ele>
        <time>2017-10-18T19:03:01Z</time>
      </trkpt>
      <trkpt lat="62.707398750929" lon="17.876712053097">
        <ele>58.6</ele>
        <time>2017-10-18T19:03:02Z</time>
      </trkpt>
      <trkpt lat="62.707340412905" lon="17.876769301474">
        <ele>58.2</ele>
        <time>2017-10-18T19:03:03Z</time>
      </trkpt>
      <trkpt lat="62.707279727949" lon="17.876833674466">
        <ele>57.8</ele>
        <time>2017-10-18T19:03:04Z</time>
      </trkpt>
      <trkpt lat="62.707210996369" lon="17.876913721611">
        <ele>57.4</ele>
        <time>2017-10-18T19:03:05Z</time>
      </trkpt>
      <trkpt lat="62.707146288101" lon="17.87700181538">
        <ele>57</ele>
        <time>2017-10-18T19:03:06Z</time>
      </trkpt>
      <trkpt lat="62.707084178222" lon="17.877100470343">
        <ele>56.4</ele>
        <time>2017-10-18T19:03:07Z</time>
      </trkpt>
      <trkpt lat="62.707025924017" lon="17.877205160274">
        <ele>56</ele>
        <time>2017-10-18T19:03:08Z</time>
      </trkpt>
      <trkpt lat="62.706964652328" lon="17.877337175199">
        <ele>55.6</ele>
        <time>2017-10-18T19:03:09Z</time>
      </trkpt>
      <trkpt lat="62.706915282937" lon="17.877463993346">
        <ele>55.4</ele>
        <time>2017-10-18T19:03:10Z</time>
      </trkpt>
      <trkpt lat="62.706863231338" lon="17.877624925826">
        <ele>55.2</ele>
        <time>2017-10-18T19:03:11Z</time>
      </trkpt>
      <trkpt lat="62.706820232191" lon="17.877778398415">
        <ele>54.6</ele>
        <time>2017-10-18T19:03:12Z</time>
      </trkpt>
      <trkpt lat="62.706781675451" lon="17.877921980362">
        <ele>54.4</ele>
        <time>2017-10-18T19:03:13Z</time>
      </trkpt>
      <trkpt lat="62.706741107055" lon="17.878076458779">
        <ele>53.8</ele>
        <time>2017-10-18T19:03:14Z</time>
      </trkpt>
      <trkpt lat="62.706704478152" lon="17.878215765957">
        <ele>53.6</ele>
        <time>2017-10-18T19:03:15Z</time>
      </trkpt>
      <trkpt lat="62.706671872561" lon="17.87834208119">
        <ele>53</ele>
        <time>2017-10-18T19:03:16Z</time>
      </trkpt>
      <trkpt lat="62.706632812907" lon="17.878476359228">
        <ele>52.8</ele>
        <time>2017-10-18T19:03:17Z</time>
      </trkpt>
      <trkpt lat="62.70659400471" lon="17.878589011964">
        <ele>52.6</ele>
        <time>2017-10-18T19:03:18Z</time>
      </trkpt>
      <trkpt lat="62.706550083554" lon="17.878703173442">
        <ele>52.6</ele>
        <time>2017-10-18T19:03:19Z</time>
      </trkpt>
      <trkpt lat="62.706506413855" lon="17.878807695735">
        <ele>52.6</ele>
        <time>2017-10-18T19:03:20Z</time>
      </trkpt>
      <trkpt lat="62.706460313405" lon="17.878902578843">
        <ele>52.4</ele>
        <time>2017-10-18T19:03:21Z</time>
      </trkpt>
      <trkpt lat="62.706416559887" lon="17.878986397843">
        <ele>52.6</ele>
        <time>2017-10-18T19:03:22Z</time>
      </trkpt>
      <trkpt lat="62.706369956523" lon="17.879076167992">
        <ele>52.6</ele>
        <time>2017-10-18T19:03:23Z</time>
      </trkpt>
      <trkpt lat="62.706325951548" lon="17.87915093454">
        <ele>52.6</ele>
        <time>2017-10-18T19:03:24Z</time>
      </trkpt>
      <trkpt lat="62.706277001252" lon="17.879243051621">
        <ele>52.6</ele>
        <time>2017-10-18T19:03:25Z</time>
      </trkpt>
      <trkpt lat="62.706232661001" lon="17.879321757662">
        <ele>52.6</ele>
        <time>2017-10-18T19:03:26Z</time>
      </trkpt>
      <trkpt lat="62.706189242759" lon="17.879393674364">
        <ele>52.6</ele>
        <time>2017-10-18T19:03:27Z</time>
      </trkpt>
      <trkpt lat="62.706152530037" lon="17.879458634089">
        <ele>52.6</ele>
        <time>2017-10-18T19:03:28Z</time>
      </trkpt>
      <trkpt lat="62.706107351596" lon="17.879538010682">
        <ele>53</ele>
        <time>2017-10-18T19:03:29Z</time>
      </trkpt>
      <trkpt lat="62.706067286114" lon="17.879611184669">
        <ele>53.2</ele>
        <time>2017-10-18T19:03:30Z</time>
      </trkpt>
      <trkpt lat="62.706027052994" lon="17.879684610113">
        <ele>53.4</ele>
        <time>2017-10-18T19:03:31Z</time>
      </trkpt>
      <trkpt lat="62.705984556761" lon="17.879760466308">
        <ele>53.4</ele>
        <time>2017-10-18T19:03:32Z</time>
      </trkpt>
      <trkpt lat="62.705940384148" lon="17.879835149037">
        <ele>53.6</ele>
        <time>2017-10-18T19:03:33Z</time>
      </trkpt>
      <trkpt lat="62.705892607318" lon="17.879914022716">
        <ele>53.6</ele>
        <time>2017-10-18T19:03:34Z</time>
      </trkpt>
      <trkpt lat="62.705836867683" lon="17.880008319091">
        <ele>53.4</ele>
        <time>2017-10-18T19:03:35Z</time>
      </trkpt>
      <trkpt lat="62.705784648446" lon="17.880099346525">
        <ele>53.4</ele>
        <time>2017-10-18T19:03:36Z</time>
      </trkpt>
      <trkpt lat="62.705732010114" lon="17.880193223805">
        <ele>53.2</ele>
        <time>2017-10-18T19:03:37Z</time>
      </trkpt>
      <trkpt lat="62.705683395094" lon="17.880286765809">
        <ele>53.2</ele>
        <time>2017-10-18T19:03:38Z</time>
      </trkpt>
      <trkpt lat="62.705629499477" lon="17.880389108808">
        <ele>53</ele>
        <time>2017-10-18T19:03:39Z</time>
      </trkpt>
      <trkpt lat="62.70557895662" lon="17.880480136242">
        <ele>52.6</ele>
        <time>2017-10-18T19:03:40Z</time>
      </trkpt>
      <trkpt lat="62.705525396279" lon="17.880582479241">
        <ele>52.4</ele>
        <time>2017-10-18T19:03:41Z</time>
      </trkpt>
      <trkpt lat="62.70547502106" lon="17.880685492792">
        <ele>52</ele>
        <time>2017-10-18T19:03:42Z</time>
      </trkpt>
      <trkpt lat="62.705428417696" lon="17.8807887578">
        <ele>51.8</ele>
        <time>2017-10-18T19:03:43Z</time>
      </trkpt>
      <trkpt lat="62.705376449916" lon="17.880907277866">
        <ele>51.6</ele>
        <time>2017-10-18T19:03:44Z</time>
      </trkpt>
      <trkpt lat="62.705328002534" lon="17.881019846783">
        <ele>51.4</ele>
        <time>2017-10-18T19:03:45Z</time>
      </trkpt>
      <trkpt lat="62.705282321179" lon="17.881132918614">
        <ele>51.2</ele>
        <time>2017-10-18T19:03:46Z</time>
      </trkpt>
      <trkpt lat="62.705232197417" lon="17.881264346806">
        <ele>51</ele>
        <time>2017-10-18T19:03:47Z</time>
      </trkpt>
      <trkpt lat="62.705186935157" lon="17.88138974003">
        <ele>50.6</ele>
        <time>2017-10-18T19:03:48Z</time>
      </trkpt>
      <trkpt lat="62.70513806868" lon="17.881534830719">
        <ele>50.2</ele>
        <time>2017-10-18T19:03:49Z</time>
      </trkpt>
      <trkpt lat="62.705092974058" lon="17.881674892268">
        <ele>49.6</ele>
        <time>2017-10-18T19:03:50Z</time>
      </trkpt>
      <trkpt lat="62.705049304359" lon="17.881815121455">
        <ele>49</ele>
        <time>2017-10-18T19:03:51Z</time>
      </trkpt>
      <trkpt lat="62.705008735963" lon="17.881950153864">
        <ele>48.6</ele>
        <time>2017-10-18T19:03:52Z</time>
      </trkpt>
      <trkpt lat="62.704966575006" lon="17.882100357512">
        <ele>48</ele>
        <time>2017-10-18T19:03:53Z</time>
      </trkpt>
      <trkpt lat="62.704924414049" lon="17.882257099042">
        <ele>47.8</ele>
        <time>2017-10-18T19:03:54Z</time>
      </trkpt>
      <trkpt lat="62.704893233381" lon="17.882378301316">
        <ele>47.4</ele>
        <time>2017-10-18T19:03:55Z</time>
      </trkpt>
      <trkpt lat="62.704846713836" lon="17.882562870754">
        <ele>47.2</ele>
        <time>2017-10-18T19:03:56Z</time>
      </trkpt>
      <trkpt lat="62.704809079105" lon="17.882714666963">
        <ele>46.6</ele>
        <time>2017-10-18T19:03:57Z</time>
      </trkpt>
      <trkpt lat="62.704775635324" lon="17.882843412947">
        <ele>46.6</ele>
        <time>2017-10-18T19:03:58Z</time>
      </trkpt>
      <trkpt lat="62.704731881806" lon="17.883007111454">
        <ele>46.2</ele>
        <time>2017-10-18T19:03:59Z</time>
      </trkpt>
      <trkpt lat="62.704693408885" lon="17.88314574808">
        <ele>46</ele>
        <time>2017-10-18T19:04:00Z</time>
      </trkpt>
      <trkpt lat="62.704652421394" lon="17.883276421901">
        <ele>45.8</ele>
        <time>2017-10-18T19:04:01Z</time>
      </trkpt>
      <trkpt lat="62.704608667876" lon="17.883396869804">
        <ele>45.2</ele>
        <time>2017-10-18T19:04:02Z</time>
      </trkpt>
      <trkpt lat="62.704564830539" lon="17.883506924151">
        <ele>45.2</ele>
        <time>2017-10-18T19:04:03Z</time>
      </trkpt>
      <trkpt lat="62.704517137528" lon="17.88362016362">
        <ele>45</ele>
        <time>2017-10-18T19:04:04Z</time>
      </trkpt>
      <trkpt lat="62.704463577187" lon="17.883739102781">
        <ele>44.6</ele>
        <time>2017-10-18T19:04:05Z</time>
      </trkpt>
      <trkpt lat="62.704412028502" lon="17.883847648386">
        <ele>44.6</ele>
        <time>2017-10-18T19:04:06Z</time>
      </trkpt>
      <trkpt lat="62.704359641627" lon="17.883957786552">
        <ele>44.2</ele>
        <time>2017-10-18T19:04:07Z</time>
      </trkpt>
      <trkpt lat="62.70430909877" lon="17.884059458999">
        <ele>44</ele>
        <time>2017-10-18T19:04:08Z</time>
      </trkpt>
      <trkpt lat="62.704251179841" lon="17.884167082595">
        <ele>43.8</ele>
        <time>2017-10-18T19:04:09Z</time>
      </trkpt>
      <trkpt lat="62.704198206233" lon="17.884259534952">
        <ele>43.6</ele>
        <time>2017-10-18T19:04:10Z</time>
      </trkpt>
      <trkpt lat="62.704136347811" lon="17.884362883779">
        <ele>43.4</ele>
        <time>2017-10-18T19:04:11Z</time>
      </trkpt>
      <trkpt lat="62.704077842149" lon="17.884459443267">
        <ele>43.4</ele>
        <time>2017-10-18T19:04:12Z</time>
      </trkpt>
      <trkpt lat="62.704020677591" lon="17.884554074918">
        <ele>43.2</ele>
        <time>2017-10-18T19:04:13Z</time>
      </trkpt>
      <trkpt lat="62.70395789716" lon="17.884662285247">
        <ele>43</ele>
        <time>2017-10-18T19:04:14Z</time>
      </trkpt>
      <trkpt lat="62.703899559136" lon="17.884770579395">
        <ele>42.8</ele>
        <time>2017-10-18T19:04:15Z</time>
      </trkpt>
      <trkpt lat="62.703844490053" lon="17.884871162195">
        <ele>42.6</ele>
        <time>2017-10-18T19:04:16Z</time>
      </trkpt>
      <trkpt lat="62.703782631631" lon="17.884979791619">
        <ele>42.4</ele>
        <time>2017-10-18T19:04:17Z</time>
      </trkpt>
      <trkpt lat="62.703726472901" lon="17.885074590908">
        <ele>42.2</ele>
        <time>2017-10-18T19:04:18Z</time>
      </trkpt>
      <trkpt lat="62.703663524832" lon="17.885169893111">
        <ele>41.8</ele>
        <time>2017-10-18T19:04:19Z</time>
      </trkpt>
      <trkpt lat="62.703604683894" lon="17.885255807586">
        <ele>41.6</ele>
        <time>2017-10-18T19:04:20Z</time>
      </trkpt>
      <trkpt lat="62.703547938431" lon="17.885341302966">
        <ele>41.4</ele>
        <time>2017-10-18T19:04:21Z</time>
      </trkpt>
      <trkpt lat="62.703497982307" lon="17.885418248808">
        <ele>41.4</ele>
        <time>2017-10-18T19:04:22Z</time>
      </trkpt>
      <trkpt lat="62.703448110002" lon="17.885497290125">
        <ele>41.4</ele>
        <time>2017-10-18T19:04:23Z</time>
      </trkpt>
      <trkpt lat="62.703401506638" lon="17.885573649234">
        <ele>41.6</ele>
        <time>2017-10-18T19:04:24Z</time>
      </trkpt>
      <trkpt lat="62.703359345681" lon="17.88563768695">
        <ele>42</ele>
        <time>2017-10-18T19:04:25Z</time>
      </trkpt>
      <trkpt lat="62.703317100905" lon="17.885700802657">
        <ele>42.4</ele>
        <time>2017-10-18T19:04:26Z</time>
      </trkpt>
      <trkpt lat="62.703275359043" lon="17.885766600572">
        <ele>42.8</ele>
        <time>2017-10-18T19:04:27Z</time>
      </trkpt>
      <trkpt lat="62.703238562502" lon="17.885827453166">
        <ele>43.2</ele>
        <time>2017-10-18T19:04:28Z</time>
      </trkpt>
      <trkpt lat="62.703190282758" lon="17.885905321017">
        <ele>43.6</ele>
        <time>2017-10-18T19:04:29Z</time>
      </trkpt>
      <trkpt lat="62.703145355774" lon="17.885972711493">
        <ele>44</ele>
        <time>2017-10-18T19:04:30Z</time>
      </trkpt>
      <trkpt lat="62.703099674419" lon="17.886040185788">
        <ele>44.4</ele>
        <time>2017-10-18T19:04:31Z</time>
      </trkpt>
      <trkpt lat="62.703055585625" lon="17.886105313151">
        <ele>44.6</ele>
        <time>2017-10-18T19:04:32Z</time>
      </trkpt>
      <trkpt lat="62.703006970605" lon="17.886179660604">
        <ele>44.8</ele>
        <time>2017-10-18T19:04:33Z</time>
      </trkpt>
      <trkpt lat="62.702956846843" lon="17.886251577306">
        <ele>45</ele>
        <time>2017-10-18T19:04:34Z</time>
      </trkpt>
      <trkpt lat="62.70290177776" lon="17.88632500275">
        <ele>45</ele>
        <time>2017-10-18T19:04:35Z</time>
      </trkpt>
      <trkpt lat="62.702847630686" lon="17.886398847289">
        <ele>44.8</ele>
        <time>2017-10-18T19:04:36Z</time>
      </trkpt>
      <trkpt lat="62.702790633766" lon="17.886474284389">
        <ele>44.6</ele>
        <time>2017-10-18T19:04:37Z</time>
      </trkpt>
      <trkpt lat="62.702731709009" lon="17.886549134756">
        <ele>44.4</ele>
        <time>2017-10-18T19:04:38Z</time>
      </trkpt>
      <trkpt lat="62.702661049592" lon="17.886636725611">
        <ele>44</ele>
        <time>2017-10-18T19:04:39Z</time>
      </trkpt>
      <trkpt lat="62.702595084039" lon="17.886724148828">
        <ele>43.8</ele>
        <time>2017-10-18T19:04:40Z</time>
      </trkpt>
      <trkpt lat="62.702519814577" lon="17.886829174035">
        <ele>43.4</ele>
        <time>2017-10-18T19:04:41Z</time>
      </trkpt>
      <trkpt lat="62.702447394961" lon="17.886930008292">
        <ele>43</ele>
        <time>2017-10-18T19:04:42Z</time>
      </trkpt>
      <trkpt lat="62.702378495743" lon="17.887023047382">
        <ele>42.8</ele>
        <time>2017-10-18T19:04:43Z</time>
      </trkpt>
      <trkpt lat="62.702301298444" lon="17.887114242454">
        <ele>42</ele>
        <time>2017-10-18T19:04:44Z</time>
      </trkpt>
      <trkpt lat="62.702229884656" lon="17.887193283771">
        <ele>41.4</ele>
        <time>2017-10-18T19:04:45Z</time>
      </trkpt>
      <trkpt lat="62.702165427845" lon="17.887263104998">
        <ele>40.6</ele>
        <time>2017-10-18T19:04:46Z</time>
      </trkpt>
      <trkpt lat="62.70210130631" lon="17.887334854062">
        <ele>40.2</ele>
        <time>2017-10-18T19:04:47Z</time>
      </trkpt>
      <trkpt lat="62.702040034621" lon="17.887397718312">
        <ele>40</ele>
        <time>2017-10-18T19:04:48Z</time>
      </trkpt>
      <trkpt lat="62.701980690769" lon="17.887458738544">
        <ele>40</ele>
        <time>2017-10-18T19:04:49Z</time>
      </trkpt>
      <trkpt lat="62.701930064093" lon="17.88752193807">
        <ele>40.2</ele>
        <time>2017-10-18T19:04:50Z</time>
      </trkpt>
      <trkpt lat="62.70188253872" lon="17.887587652166">
        <ele>40.6</ele>
        <time>2017-10-18T19:04:51Z</time>
      </trkpt>
      <trkpt lat="62.701840545401" lon="17.887645068181">
        <ele>41.2</ele>
        <time>2017-10-18T19:04:52Z</time>
      </trkpt>
      <trkpt lat="62.701797462435" lon="17.887701897463">
        <ele>41.6</ele>
        <time>2017-10-18T19:04:53Z</time>
      </trkpt>
      <trkpt lat="62.701756726401" lon="17.887758475288">
        <ele>42.2</ele>
        <time>2017-10-18T19:04:54Z</time>
      </trkpt>
      <trkpt lat="62.701721773878" lon="17.887811197439">
        <ele>42.8</ele>
        <time>2017-10-18T19:04:55Z</time>
      </trkpt>
      <trkpt lat="62.701687575726" lon="17.887861321201">
        <ele>43.4</ele>
        <time>2017-10-18T19:04:56Z</time>
      </trkpt>
      <trkpt lat="62.701653964307" lon="17.887909936221">
        <ele>43.8</ele>
        <time>2017-10-18T19:04:57Z</time>
      </trkpt>
      <trkpt lat="62.701623957105" lon="17.887952264816">
        <ele>44.2</ele>
        <time>2017-10-18T19:04:58Z</time>
      </trkpt>
      <trkpt lat="62.701583891623" lon="17.888004986967">
        <ele>44.6</ele>
        <time>2017-10-18T19:04:59Z</time>
      </trkpt>
      <trkpt lat="62.701546173073" lon="17.888046896467">
        <ele>45</ele>
        <time>2017-10-18T19:05:00Z</time>
      </trkpt>
      <trkpt lat="62.701506694324" lon="17.888085956121">
        <ele>45.4</ele>
        <time>2017-10-18T19:05:01Z</time>
      </trkpt>
      <trkpt lat="62.701469562507" lon="17.888119064626">
        <ele>45.6</ele>
        <time>2017-10-18T19:05:02Z</time>
      </trkpt>
      <trkpt lat="62.701428323559" lon="17.888157202271">
        <ele>45.8</ele>
        <time>2017-10-18T19:05:03Z</time>
      </trkpt>
      <trkpt lat="62.701386749335" lon="17.888193495898">
        <ele>46</ele>
        <time>2017-10-18T19:05:04Z</time>
      </trkpt>
      <trkpt lat="62.701343917826" lon="17.888228867516">
        <ele>46.2</ele>
        <time>2017-10-18T19:05:05Z</time>
      </trkpt>
      <trkpt lat="62.701302762697" lon="17.888263233306">
        <ele>46.4</ele>
        <time>2017-10-18T19:05:06Z</time>
      </trkpt>
      <trkpt lat="62.70126227812" lon="17.888295838897">
        <ele>46.6</ele>
        <time>2017-10-18T19:05:07Z</time>
      </trkpt>
      <trkpt lat="62.701226068312" lon="17.888325007909">
        <ele>46.8</ele>
        <time>2017-10-18T19:05:08Z</time>
      </trkpt>
      <trkpt lat="62.701184577907" lon="17.888357110586">
        <ele>47.2</ele>
        <time>2017-10-18T19:05:09Z</time>
      </trkpt>
      <trkpt lat="62.701146188805" lon="17.888385860503">
        <ele>47.4</ele>
        <time>2017-10-18T19:05:10Z</time>
      </trkpt>
      <trkpt lat="62.70110553659" lon="17.888425758347">
        <ele>47.8</ele>
        <time>2017-10-18T19:05:11Z</time>
      </trkpt>
      <trkpt lat="62.701068740049" lon="17.888470601512">
        <ele>48.2</ele>
        <time>2017-10-18T19:05:12Z</time>
      </trkpt>
      <trkpt lat="62.701033116974" lon="17.88851184046">
        <ele>48.4</ele>
        <time>2017-10-18T19:05:13Z</time>
      </trkpt>
      <trkpt lat="62.700993889682" lon="17.888559701109">
        <ele>48.6</ele>
        <time>2017-10-18T19:05:14Z</time>
      </trkpt>
      <trkpt lat="62.700957763693" lon="17.888604711912">
        <ele>48.8</ele>
        <time>2017-10-18T19:05:15Z</time>
      </trkpt>
      <trkpt lat="62.700923984636" lon="17.888648884525">
        <ele>49.2</ele>
        <time>2017-10-18T19:05:16Z</time>
      </trkpt>
      <trkpt lat="62.700888864475" lon="17.888700600848">
        <ele>49.4</ele>
        <time>2017-10-18T19:05:17Z</time>
      </trkpt>
      <trkpt lat="62.70085491778" lon="17.888754245008">
        <ele>49.8</ele>
        <time>2017-10-18T19:05:18Z</time>
      </trkpt>
      <trkpt lat="62.700822060732" lon="17.888821551665">
        <ele>50</ele>
        <time>2017-10-18T19:05:19Z</time>
      </trkpt>
      <trkpt lat="62.700790796245" lon="17.888886092295">
        <ele>50.2</ele>
        <time>2017-10-18T19:05:20Z</time>
      </trkpt>
      <trkpt lat="62.700760705224" lon="17.888950800563">
        <ele>50.4</ele>
        <time>2017-10-18T19:05:21Z</time>
      </trkpt>
      <trkpt lat="62.700732206764" lon="17.889009892958">
        <ele>50.6</ele>
        <time>2017-10-18T19:05:22Z</time>
      </trkpt>
      <trkpt lat="62.700702283381" lon="17.889073260122">
        <ele>50.8</ele>
        <time>2017-10-18T19:05:23Z</time>
      </trkpt>
      <trkpt lat="62.700672779093" lon="17.889135872915">
        <ele>51</ele>
        <time>2017-10-18T19:05:24Z</time>
      </trkpt>
      <trkpt lat="62.700642771891" lon="17.889197312242">
        <ele>51.2</ele>
        <time>2017-10-18T19:05:25Z</time>
      </trkpt>
      <trkpt lat="62.70061184268" lon="17.889257410465">
        <ele>51.4</ele>
        <time>2017-10-18T19:05:26Z</time>
      </trkpt>
      <trkpt lat="62.700580410555" lon="17.889321448181">
        <ele>51.8</ele>
        <time>2017-10-18T19:05:27Z</time>
      </trkpt>
      <trkpt lat="62.700552582647" lon="17.8893802053">
        <ele>52</ele>
        <time>2017-10-18T19:05:28Z</time>
      </trkpt>
      <trkpt lat="62.700516205201" lon="17.889455390943">
        <ele>52.2</ele>
        <time>2017-10-18T19:05:29Z</time>
      </trkpt>
      <trkpt lat="62.700482258506" lon="17.889523787247">
        <ele>52.4</ele>
        <time>2017-10-18T19:05:30Z</time>
      </trkpt>
      <trkpt lat="62.700446383974" lon="17.889592015913">
        <ele>52.6</ele>
        <time>2017-10-18T19:05:31Z</time>
      </trkpt>
      <trkpt lat="62.700412521098" lon="17.889650773032">
        <ele>52.6</ele>
        <time>2017-10-18T19:05:32Z</time>
      </trkpt>
      <trkpt lat="62.700375808376" lon="17.88971129035">
        <ele>52.8</ele>
        <time>2017-10-18T19:05:33Z</time>
      </trkpt>
      <trkpt lat="62.700336581084" lon="17.889769712193">
        <ele>52.8</ele>
        <time>2017-10-18T19:05:34Z</time>
      </trkpt>
      <trkpt lat="62.700296347964" lon="17.889822266706">
        <ele>53</ele>
        <time>2017-10-18T19:05:35Z</time>
      </trkpt>
      <trkpt lat="62.700256701577" lon="17.889867612785">
        <ele>53</ele>
        <time>2017-10-18T19:05:36Z</time>
      </trkpt>
      <trkpt lat="62.700213786249" lon="17.889915138158">
        <ele>53</ele>
        <time>2017-10-18T19:05:37Z</time>
      </trkpt>
      <trkpt lat="62.700170451826" lon="17.88995771821">
        <ele>52.8</ele>
        <time>2017-10-18T19:05:38Z</time>
      </trkpt>
      <trkpt lat="62.700121669168" lon="17.890000130624">
        <ele>52.8</ele>
        <time>2017-10-18T19:05:39Z</time>
      </trkpt>
      <trkpt lat="62.700074730528" lon="17.890033742043">
        <ele>52.8</ele>
        <time>2017-10-18T19:05:40Z</time>
      </trkpt>
      <trkpt lat="62.700020583454" lon="17.890065509444">
        <ele>53</ele>
        <time>2017-10-18T19:05:41Z</time>
      </trkpt>
      <trkpt lat="62.699970459692" lon="17.890092750619">
        <ele>53</ele>
        <time>2017-10-18T19:05:42Z</time>
      </trkpt>
      <trkpt lat="62.699924610699" lon="17.890115130292">
        <ele>53</ele>
        <time>2017-10-18T19:05:43Z</time>
      </trkpt>
      <trkpt lat="62.699874151661" lon="17.890135330671">
        <ele>53</ele>
        <time>2017-10-18T19:05:44Z</time>
      </trkpt>
      <trkpt lat="62.699827129202" lon="17.890147903521">
        <ele>53.2</ele>
        <time>2017-10-18T19:05:45Z</time>
      </trkpt>
      <trkpt lat="62.699783291865" lon="17.890152765023">
        <ele>53.2</ele>
        <time>2017-10-18T19:05:46Z</time>
      </trkpt>
      <trkpt lat="62.6997384487" lon="17.890153435575">
        <ele>53.4</ele>
        <time>2017-10-18T19:05:47Z</time>
      </trkpt>
      <trkpt lat="62.699694108449" lon="17.890155950145">
        <ele>53.6</ele>
        <time>2017-10-18T19:05:48Z</time>
      </trkpt>
      <trkpt lat="62.69964792418" lon="17.890160644009">
        <ele>53.8</ele>
        <time>2017-10-18T19:05:49Z</time>
      </trkpt>
      <trkpt lat="62.699604086843" lon="17.890159805819">
        <ele>54</ele>
        <time>2017-10-18T19:05:50Z</time>
      </trkpt>
      <trkpt lat="62.699561255334" lon="17.890155614869">
        <ele>54.2</ele>
        <time>2017-10-18T19:05:51Z</time>
      </trkpt>
      <trkpt lat="62.699519513472" lon="17.890156536878">
        <ele>54.6</ele>
        <time>2017-10-18T19:05:52Z</time>
      </trkpt>
      <trkpt lat="62.699474837945" lon="17.890154022308">
        <ele>54.6</ele>
        <time>2017-10-18T19:05:53Z</time>
      </trkpt>
      <trkpt lat="62.699428066943" lon="17.890156033964">
        <ele>54.8</ele>
        <time>2017-10-18T19:05:54Z</time>
      </trkpt>
      <trkpt lat="62.699382553226" lon="17.890160141095">
        <ele>55.2</ele>
        <time>2017-10-18T19:05:55Z</time>
      </trkpt>
      <trkpt lat="62.69933779388" lon="17.890163577674">
        <ele>55.4</ele>
        <time>2017-10-18T19:05:56Z</time>
      </trkpt>
      <trkpt lat="62.699292447801" lon="17.890167014253">
        <ele>55.6</ele>
        <time>2017-10-18T19:05:57Z</time>
      </trkpt>
      <trkpt lat="62.699250789758" lon="17.890169277366">
        <ele>55.6</ele>
        <time>2017-10-18T19:05:58Z</time>
      </trkpt>
      <trkpt lat="62.699198989616" lon="17.890171959574">
        <ele>55.8</ele>
        <time>2017-10-18T19:05:59Z</time>
      </trkpt>
      <trkpt lat="62.699150793691" lon="17.890173803592">
        <ele>55.8</ele>
        <time>2017-10-18T19:06:00Z</time>
      </trkpt>
      <trkpt lat="62.699101340481" lon="17.890172462488">
        <ele>55.8</ele>
        <time>2017-10-18T19:06:01Z</time>
      </trkpt>
      <trkpt lat="62.699053563651" lon="17.890172127212">
        <ele>55.8</ele>
        <time>2017-10-18T19:06:02Z</time>
      </trkpt>
      <trkpt lat="62.699001931147" lon="17.890175479972">
        <ele>55.8</ele>
        <time>2017-10-18T19:06:03Z</time>
      </trkpt>
      <trkpt lat="62.698949376634" lon="17.890177659266">
        <ele>55.6</ele>
        <time>2017-10-18T19:06:04Z</time>
      </trkpt>
      <trkpt lat="62.69889103861" lon="17.890178581275">
        <ele>55.8</ele>
        <time>2017-10-18T19:06:05Z</time>
      </trkpt>
      <trkpt lat="62.698836807717" lon="17.890182269311">
        <ele>55.6</ele>
        <time>2017-10-18T19:06:06Z</time>
      </trkpt>
      <trkpt lat="62.698780481349" lon="17.890188555736">
        <ele>55.6</ele>
        <time>2017-10-18T19:06:07Z</time>
      </trkpt>
      <trkpt lat="62.698728345931" lon="17.890194674523">
        <ele>55.6</ele>
        <time>2017-10-18T19:06:08Z</time>
      </trkpt>
      <trkpt lat="62.698667493337" lon="17.89020414607">
        <ele>55.6</ele>
        <time>2017-10-18T19:06:09Z</time>
      </trkpt>
      <trkpt lat="62.69861192134" lon="17.890208923753">
        <ele>55.6</ele>
        <time>2017-10-18T19:06:10Z</time>
      </trkpt>
      <trkpt lat="62.698551404022" lon="17.890207834106">
        <ele>55.6</ele>
        <time>2017-10-18T19:06:11Z</time>
      </trkpt>
      <trkpt lat="62.69849206017" lon="17.89021085159">
        <ele>55.8</ele>
        <time>2017-10-18T19:06:12Z</time>
      </trkpt>
      <trkpt lat="62.698433470689" lon="17.890213952893">
        <ele>55.6</ele>
        <time>2017-10-18T19:06:13Z</time>
      </trkpt>
      <trkpt lat="62.698367421317" lon="17.890215796911">
        <ele>55.6</ele>
        <time>2017-10-18T19:06:14Z</time>
      </trkpt>
      <trkpt lat="62.698304054153" lon="17.890213114703">
        <ele>55.6</ele>
        <time>2017-10-18T19:06:15Z</time>
      </trkpt>
      <trkpt lat="62.698243453016" lon="17.89020917521">
        <ele>55.4</ele>
        <time>2017-10-18T19:06:16Z</time>
      </trkpt>
      <trkpt lat="62.69817773892" lon="17.890201463862">
        <ele>55.4</ele>
        <time>2017-10-18T19:06:17Z</time>
      </trkpt>
      <trkpt lat="62.698109426435" lon="17.890191405582">
        <ele>55.2</ele>
        <time>2017-10-18T19:06:18Z</time>
      </trkpt>
      <trkpt lat="62.698039605208" lon="17.890174138868">
        <ele>55</ele>
        <time>2017-10-18T19:06:19Z</time>
      </trkpt>
      <trkpt lat="62.697972885284" lon="17.890150837186">
        <ele>54.8</ele>
        <time>2017-10-18T19:06:20Z</time>
      </trkpt>
      <trkpt lat="62.697904991894" lon="17.890123176916">
        <ele>54.4</ele>
        <time>2017-10-18T19:06:21Z</time>
      </trkpt>
      <trkpt lat="62.697840367445" lon="17.890094929913">
        <ele>54.2</ele>
        <time>2017-10-18T19:06:22Z</time>
      </trkpt>
      <trkpt lat="62.697769959485" lon="17.890060228847">
        <ele>54</ele>
        <time>2017-10-18T19:06:23Z</time>
      </trkpt>
      <trkpt lat="62.697693516557" lon="17.890022929392">
        <ele>53.6</ele>
        <time>2017-10-18T19:06:24Z</time>
      </trkpt>
      <trkpt lat="62.697618079457" lon="17.889983869738">
        <ele>53.2</ele>
        <time>2017-10-18T19:06:25Z</time>
      </trkpt>
      <trkpt lat="62.697540798339" lon="17.8899417926">
        <ele>52.8</ele>
        <time>2017-10-18T19:06:26Z</time>
      </trkpt>
      <trkpt lat="62.69745941009" lon="17.88989904491">
        <ele>52.6</ele>
        <time>2017-10-18T19:06:27Z</time>
      </trkpt>
      <trkpt lat="62.697385230275" lon="17.889859398523">
        <ele>52.2</ele>
        <time>2017-10-18T19:06:28Z</time>
      </trkpt>
      <trkpt lat="62.697288084054" lon="17.889808771847">
        <ele>51.8</ele>
        <time>2017-10-18T19:06:29Z</time>
      </trkpt>
      <trkpt lat="62.697199655009" lon="17.889761497931">
        <ele>50.8</ele>
        <time>2017-10-18T19:06:30Z</time>
      </trkpt>
      <trkpt lat="62.69710988486" lon="17.889712044721">
        <ele>50.2</ele>
        <time>2017-10-18T19:06:31Z</time>
      </trkpt>
      <trkpt lat="62.697024138023" lon="17.88966938085">
        <ele>49.4</ele>
        <time>2017-10-18T19:06:32Z</time>
      </trkpt>
      <trkpt lat="62.69693218858" lon="17.889627219893">
        <ele>48.6</ele>
        <time>2017-10-18T19:06:33Z</time>
      </trkpt>
      <trkpt lat="62.696844430087" lon="17.889586651497">
        <ele>48</ele>
        <time>2017-10-18T19:06:34Z</time>
      </trkpt>
      <trkpt lat="62.696753235015" lon="17.889541808332">
        <ele>47.4</ele>
        <time>2017-10-18T19:06:35Z</time>
      </trkpt>
      <trkpt lat="62.696670002748" lon="17.889502832497">
        <ele>46.8</ele>
        <time>2017-10-18T19:06:36Z</time>
      </trkpt>
      <trkpt lat="62.696588027766" lon="17.889463605205">
        <ele>46.2</ele>
        <time>2017-10-18T19:06:37Z</time>
      </trkpt>
      <trkpt lat="62.696510746648" lon="17.889426389569">
        <ele>45.4</ele>
        <time>2017-10-18T19:06:38Z</time>
      </trkpt>
      <trkpt lat="62.696424496897" lon="17.889385737354">
        <ele>44.6</ele>
        <time>2017-10-18T19:06:39Z</time>
      </trkpt>
      <trkpt lat="62.696348137788" lon="17.889351539202">
        <ele>43.8</ele>
        <time>2017-10-18T19:06:40Z</time>
      </trkpt>
      <trkpt lat="62.696263480598" lon="17.88931482648">
        <ele>43</ele>
        <time>2017-10-18T19:06:41Z</time>
      </trkpt>
      <trkpt lat="62.696182679082" lon="17.889277191749">
        <ele>42</ele>
        <time>2017-10-18T19:06:42Z</time>
      </trkpt>
      <trkpt lat="62.696105314145" lon="17.889240730484">
        <ele>41.2</ele>
        <time>2017-10-18T19:06:43Z</time>
      </trkpt>
      <trkpt lat="62.696017555652" lon="17.889201922287">
        <ele>40.4</ele>
        <time>2017-10-18T19:06:44Z</time>
      </trkpt>
      <trkpt lat="62.695930467711" lon="17.889164455194">
        <ele>39.6</ele>
        <time>2017-10-18T19:06:45Z</time>
      </trkpt>
      <trkpt lat="62.695847319263" lon="17.889127155739">
        <ele>39</ele>
        <time>2017-10-18T19:06:46Z</time>
      </trkpt>
      <trkpt lat="62.695757549114" lon="17.889091616483">
        <ele>38.6</ele>
        <time>2017-10-18T19:06:47Z</time>
      </trkpt>
      <trkpt lat="62.695662833644" lon="17.889059010892">
        <ele>38</ele>
        <time>2017-10-18T19:06:48Z</time>
      </trkpt>
      <trkpt lat="62.695557724618" lon="17.889026992034">
        <ele>37.4</ele>
        <time>2017-10-18T19:06:49Z</time>
      </trkpt>
      <trkpt lat="62.695458566741" lon="17.889003606533">
        <ele>36.2</ele>
        <time>2017-10-18T19:06:50Z</time>
      </trkpt>
      <trkpt lat="62.695368377497" lon="17.888988100018">
        <ele>35</ele>
        <time>2017-10-18T19:06:51Z</time>
      </trkpt>
      <trkpt lat="62.695270476905" lon="17.888976365358">
        <ele>33.8</ele>
        <time>2017-10-18T19:06:52Z</time>
      </trkpt>
      <trkpt lat="62.695176767263" lon="17.888968486372">
        <ele>32.8</ele>
        <time>2017-10-18T19:06:53Z</time>
      </trkpt>
      <trkpt lat="62.695072412608" lon="17.888962535223">
        <ele>31.8</ele>
        <time>2017-10-18T19:06:54Z</time>
      </trkpt>
      <trkpt lat="62.694997897517" lon="17.888960104472">
        <ele>31.2</ele>
        <time>2017-10-18T19:06:55Z</time>
      </trkpt>
      <trkpt lat="62.694890776835" lon="17.888958428092">
        <ele>30.6</ele>
        <time>2017-10-18T19:06:56Z</time>
      </trkpt>
      <trkpt lat="62.694802012514" lon="17.888961613214">
        <ele>30.4</ele>
        <time>2017-10-18T19:06:57Z</time>
      </trkpt>
      <trkpt lat="62.694727078328" lon="17.888963289594">
        <ele>30</ele>
        <time>2017-10-18T19:06:58Z</time>
      </trkpt>
      <trkpt lat="62.694634877428" lon="17.888964295422">
        <ele>29.8</ele>
        <time>2017-10-18T19:06:59Z</time>
      </trkpt>
      <trkpt lat="62.694554914102" lon="17.888961697033">
        <ele>29.6</ele>
        <time>2017-10-18T19:07:00Z</time>
      </trkpt>
      <trkpt lat="62.694476124242" lon="17.888960020653">
        <ele>29.4</ele>
        <time>2017-10-18T19:07:01Z</time>
      </trkpt>
      <trkpt lat="62.694403453169" lon="17.888958260454">
        <ele>29.2</ele>
        <time>2017-10-18T19:07:02Z</time>
      </trkpt>
      <trkpt lat="62.694323825119" lon="17.888950968201">
        <ele>29.2</ele>
        <time>2017-10-18T19:07:03Z</time>
      </trkpt>
      <trkpt lat="62.694244532345" lon="17.888935377867">
        <ele>29</ele>
        <time>2017-10-18T19:07:04Z</time>
      </trkpt>
      <trkpt lat="62.694158114956" lon="17.888909477796">
        <ele>28.8</ele>
        <time>2017-10-18T19:07:05Z</time>
      </trkpt>
      <trkpt lat="62.694075134146" lon="17.888873435626">
        <ele>28.4</ele>
        <time>2017-10-18T19:07:06Z</time>
      </trkpt>
      <trkpt lat="62.693991063689" lon="17.888827502814">
        <ele>28</ele>
        <time>2017-10-18T19:07:07Z</time>
      </trkpt>
      <trkpt lat="62.693911687096" lon="17.888779139251">
        <ele>27.8</ele>
        <time>2017-10-18T19:07:08Z</time>
      </trkpt>
      <trkpt lat="62.693824766793" lon="17.888723231978">
        <ele>27.4</ele>
        <time>2017-10-18T19:07:09Z</time>
      </trkpt>
      <trkpt lat="62.69375041934" lon="17.88867025837">
        <ele>26.8</ele>
        <time>2017-10-18T19:07:10Z</time>
      </trkpt>
      <trkpt lat="62.693670539833" lon="17.888611165975">
        <ele>26.4</ele>
        <time>2017-10-18T19:07:11Z</time>
      </trkpt>
      <trkpt lat="62.693595521828" lon="17.888554923426">
        <ele>25.8</ele>
        <time>2017-10-18T19:07:12Z</time>
      </trkpt>
      <trkpt lat="62.693525616782" lon="17.888501698361">
        <ele>25.4</ele>
        <time>2017-10-18T19:07:13Z</time>
      </trkpt>
      <trkpt lat="62.693448335664" lon="17.888442605966">
        <ele>25.2</ele>
        <time>2017-10-18T19:07:14Z</time>
      </trkpt>
      <trkpt lat="62.693375161677" lon="17.888389297082">
        <ele>25</ele>
        <time>2017-10-18T19:07:15Z</time>
      </trkpt>
      <trkpt lat="62.693307100649" lon="17.888340095329">
        <ele>25</ele>
        <time>2017-10-18T19:07:16Z</time>
      </trkpt>
      <trkpt lat="62.693236022137" lon="17.888287121721">
        <ele>25</ele>
        <time>2017-10-18T19:07:17Z</time>
      </trkpt>
      <trkpt lat="62.693165278901" lon="17.888233729018">
        <ele>25</ele>
        <time>2017-10-18T19:07:18Z</time>
      </trkpt>
      <trkpt lat="62.693091685819" lon="17.888177067374">
        <ele>24.8</ele>
        <time>2017-10-18T19:07:19Z</time>
      </trkpt>
      <trkpt lat="62.69302287042" lon="17.888123171757">
        <ele>24.8</ele>
        <time>2017-10-18T19:07:20Z</time>
      </trkpt>
      <trkpt lat="62.692954222659" lon="17.888066258656">
        <ele>24.8</ele>
        <time>2017-10-18T19:07:21Z</time>
      </trkpt>
      <trkpt lat="62.692891106952" lon="17.888012111582">
        <ele>24.6</ele>
        <time>2017-10-18T19:07:22Z</time>
      </trkpt>
      <trkpt lat="62.692823465019" lon="17.887952432454">
        <ele>24.6</ele>
        <time>2017-10-18T19:07:23Z</time>
      </trkpt>
      <trkpt lat="62.692753140878" lon="17.887890238756">
        <ele>24.6</ele>
        <time>2017-10-18T19:07:24Z</time>
      </trkpt>
      <trkpt lat="62.692690528085" lon="17.887829721438">
        <ele>24.6</ele>
        <time>2017-10-18T19:07:25Z</time>
      </trkpt>
      <trkpt lat="62.692629172577" lon="17.887765264627">
        <ele>24.8</ele>
        <time>2017-10-18T19:07:26Z</time>
      </trkpt>
      <trkpt lat="62.692571253648" lon="17.887696616866">
        <ele>25</ele>
        <time>2017-10-18T19:07:27Z</time>
      </trkpt>
      <trkpt lat="62.692522890085" lon="17.887635428996">
        <ele>25.2</ele>
        <time>2017-10-18T19:07:28Z</time>
      </trkpt>
      <trkpt lat="62.6924629595" lon="17.887559237525">
        <ele>25.4</ele>
        <time>2017-10-18T19:07:29Z</time>
      </trkpt>
      <trkpt lat="62.692410572625" lon="17.887493691067">
        <ele>25.4</ele>
        <time>2017-10-18T19:07:30Z</time>
      </trkpt>
      <trkpt lat="62.692358437207" lon="17.887427138781">
        <ele>25.4</ele>
        <time>2017-10-18T19:07:31Z</time>
      </trkpt>
      <trkpt lat="62.692311750024" lon="17.887365280359">
        <ele>25.6</ele>
        <time>2017-10-18T19:07:32Z</time>
      </trkpt>
      <trkpt lat="62.692261123348" lon="17.88729814134">
        <ele>25.6</ele>
        <time>2017-10-18T19:07:33Z</time>
      </trkpt>
      <trkpt lat="62.692212256871" lon="17.887230331769">
        <ele>25.8</ele>
        <time>2017-10-18T19:07:34Z</time>
      </trkpt>
      <trkpt lat="62.692159450901" lon="17.887156738687">
        <ele>25.8</ele>
        <time>2017-10-18T19:07:35Z</time>
      </trkpt>
      <trkpt lat="62.692108153673" lon="17.887087420374">
        <ele>26.2</ele>
        <time>2017-10-18T19:07:36Z</time>
      </trkpt>
      <trkpt lat="62.692055012427" lon="17.887020532812">
        <ele>26.4</ele>
        <time>2017-10-18T19:07:37Z</time>
      </trkpt>
      <trkpt lat="62.69200446957" lon="17.886958255295">
        <ele>26.4</ele>
        <time>2017-10-18T19:07:38Z</time>
      </trkpt>
      <trkpt lat="62.691947975564" lon="17.886887092964">
        <ele>26.4</ele>
        <time>2017-10-18T19:07:39Z</time>
      </trkpt>
      <trkpt lat="62.691897935621" lon="17.886820708316">
        <ele>26.6</ele>
        <time>2017-10-18T19:07:40Z</time>
      </trkpt>
      <trkpt lat="62.691842279805" lon="17.886750300356">
        <ele>26.6</ele>
        <time>2017-10-18T19:07:41Z</time>
      </trkpt>
      <trkpt lat="62.691787545998" lon="17.88668793902">
        <ele>26.2</ele>
        <time>2017-10-18T19:07:42Z</time>
      </trkpt>
      <trkpt lat="62.691735997313" lon="17.886629349539">
        <ele>26.4</ele>
        <time>2017-10-18T19:07:43Z</time>
      </trkpt>
      <trkpt lat="62.691679838583" lon="17.886560450321">
        <ele>26.6</ele>
        <time>2017-10-18T19:07:44Z</time>
      </trkpt>
      <trkpt lat="62.691627870803" lon="17.886493059845">
        <ele>26.6</ele>
        <time>2017-10-18T19:07:45Z</time>
      </trkpt>
      <trkpt lat="62.691578249955" lon="17.886432458708">
        <ele>26.6</ele>
        <time>2017-10-18T19:07:46Z</time>
      </trkpt>
      <trkpt lat="62.691525443985" lon="17.886371019381">
        <ele>26.8</ele>
        <time>2017-10-18T19:07:47Z</time>
      </trkpt>
      <trkpt lat="62.691472721834" lon="17.886308490407">
        <ele>27</ele>
        <time>2017-10-18T19:07:48Z</time>
      </trkpt>
      <trkpt lat="62.691417568932" lon="17.886243363044">
        <ele>26.8</ele>
        <time>2017-10-18T19:07:49Z</time>
      </trkpt>
      <trkpt lat="62.69136744517" lon="17.886182761907">
        <ele>27</ele>
        <time>2017-10-18T19:07:50Z</time>
      </trkpt>
      <trkpt lat="62.691318662512" lon="17.886122496046">
        <ele>26.8</ele>
        <time>2017-10-18T19:07:51Z</time>
      </trkpt>
      <trkpt lat="62.691270550406" lon="17.886063068375">
        <ele>27</ele>
        <time>2017-10-18T19:07:52Z</time>
      </trkpt>
      <trkpt lat="62.691236519892" lon="17.886024846911">
        <ele>27.2</ele>
        <time>2017-10-18T19:07:53Z</time>
      </trkpt>
      <trkpt lat="62.691183546284" lon="17.885965754516">
        <ele>27.4</ele>
        <time>2017-10-18T19:07:54Z</time>
      </trkpt>
      <trkpt lat="62.69114113387" lon="17.885916468944">
        <ele>27.6</ele>
        <time>2017-10-18T19:07:55Z</time>
      </trkpt>
      <trkpt lat="62.691100146379" lon="17.885869195028">
        <ele>27.8</ele>
        <time>2017-10-18T19:07:56Z</time>
      </trkpt>
      <trkpt lat="62.69105899125" lon="17.885825190053">
        <ele>28.2</ele>
        <time>2017-10-18T19:07:57Z</time>
      </trkpt>
      <trkpt lat="62.691023451994" lon="17.885789650797">
        <ele>28.4</ele>
        <time>2017-10-18T19:07:58Z</time>
      </trkpt>
      <trkpt lat="62.690977938277" lon="17.88574581346">
        <ele>28.8</ele>
        <time>2017-10-18T19:07:59Z</time>
      </trkpt>
      <trkpt lat="62.690938040433" lon="17.885709268376">
        <ele>28.8</ele>
        <time>2017-10-18T19:08:00Z</time>
      </trkpt>
      <trkpt lat="62.690899567512" lon="17.885671717464">
        <ele>29.2</ele>
        <time>2017-10-18T19:08:01Z</time>
      </trkpt>
      <trkpt lat="62.690864782627" lon="17.885638106045">
        <ele>29.4</ele>
        <time>2017-10-18T19:08:02Z</time>
      </trkpt>
      <trkpt lat="62.690827483172" lon="17.885608685576">
        <ele>29.6</ele>
        <time>2017-10-18T19:08:03Z</time>
      </trkpt>
      <trkpt lat="62.690792027735" lon="17.885580941487">
        <ele>29.8</ele>
        <time>2017-10-18T19:08:04Z</time>
      </trkpt>
      <trkpt lat="62.690753722452" lon="17.885553951769">
        <ele>30</ele>
        <time>2017-10-18T19:08:05Z</time>
      </trkpt>
      <trkpt lat="62.690717345006" lon="17.885531572096">
        <ele>30.2</ele>
        <time>2017-10-18T19:08:06Z</time>
      </trkpt>
      <trkpt lat="62.690680380827" lon="17.885510114432">
        <ele>30.6</ele>
        <time>2017-10-18T19:08:07Z</time>
      </trkpt>
      <trkpt lat="62.690645931218" lon="17.885488656768">
        <ele>30.8</ele>
        <time>2017-10-18T19:08:08Z</time>
      </trkpt>
      <trkpt lat="62.690607374478" lon="17.885466612371">
        <ele>31</ele>
        <time>2017-10-18T19:08:09Z</time>
      </trkpt>
      <trkpt lat="62.690573260145" lon="17.885447082544">
        <ele>31.2</ele>
        <time>2017-10-18T19:08:10Z</time>
      </trkpt>
      <trkpt lat="62.69053596069" lon="17.885424116138">
        <ele>31.4</ele>
        <time>2017-10-18T19:08:11Z</time>
      </trkpt>
      <trkpt lat="62.690500253796" lon="17.885405927415">
        <ele>31.6</ele>
        <time>2017-10-18T19:08:12Z</time>
      </trkpt>
      <trkpt lat="62.690466977653" lon="17.885393354565">
        <ele>31.6</ele>
        <time>2017-10-18T19:08:13Z</time>
      </trkpt>
      <trkpt lat="62.690428420913" lon="17.885382374276">
        <ele>31.8</ele>
        <time>2017-10-18T19:08:14Z</time>
      </trkpt>
      <trkpt lat="62.690392881657" lon="17.885368125046">
        <ele>32.2</ele>
        <time>2017-10-18T19:08:15Z</time>
      </trkpt>
      <trkpt lat="62.6903591026" lon="17.885346248287">
        <ele>32.2</ele>
        <time>2017-10-18T19:08:16Z</time>
      </trkpt>
      <trkpt lat="62.690324485353" lon="17.8853233657">
        <ele>32.6</ele>
        <time>2017-10-18T19:08:17Z</time>
      </trkpt>
      <trkpt lat="62.690288946097" lon="17.885301740398">
        <ele>32.8</ele>
        <time>2017-10-18T19:08:18Z</time>
      </trkpt>
      <trkpt lat="62.690252820108" lon="17.885280198915">
        <ele>33.2</ele>
        <time>2017-10-18T19:08:19Z</time>
      </trkpt>
      <trkpt lat="62.690217783766" lon="17.885271649377">
        <ele>33.4</ele>
        <time>2017-10-18T19:08:20Z</time>
      </trkpt>
      <trkpt lat="62.690183250338" lon="17.885259160346">
        <ele>33.8</ele>
        <time>2017-10-18T19:08:21Z</time>
      </trkpt>
      <trkpt lat="62.690151147661" lon="17.885247341867">
        <ele>34</ele>
        <time>2017-10-18T19:08:22Z</time>
      </trkpt>
      <trkpt lat="62.6901160275" lon="17.885242480365">
        <ele>34.2</ele>
        <time>2017-10-18T19:08:23Z</time>
      </trkpt>
      <trkpt lat="62.690078979502" lon="17.885241474537">
        <ele>34.6</ele>
        <time>2017-10-18T19:08:24Z</time>
      </trkpt>
      <trkpt lat="62.690044026979" lon="17.885235691026">
        <ele>34.8</ele>
        <time>2017-10-18T19:08:25Z</time>
      </trkpt>
      <trkpt lat="62.690009493551" lon="17.885227560583">
        <ele>35</ele>
        <time>2017-10-18T19:08:26Z</time>
      </trkpt>
      <trkpt lat="62.689975295399" lon="17.885219597778">
        <ele>35.2</ele>
        <time>2017-10-18T19:08:27Z</time>
      </trkpt>
      <trkpt lat="62.689945455835" lon="17.885209874774">
        <ele>35.4</ele>
        <time>2017-10-18T19:08:28Z</time>
      </trkpt>
      <trkpt lat="62.689907737285" lon="17.88519847539">
        <ele>35.6</ele>
        <time>2017-10-18T19:08:29Z</time>
      </trkpt>
      <trkpt lat="62.689873874409" lon="17.885188920024">
        <ele>35.8</ele>
        <time>2017-10-18T19:08:30Z</time>
      </trkpt>
      <trkpt lat="62.689839508619" lon="17.885178526468">
        <ele>36</ele>
        <time>2017-10-18T19:08:31Z</time>
      </trkpt>
      <trkpt lat="62.68980841177" lon="17.885166540351">
        <ele>36.2</ele>
        <time>2017-10-18T19:08:32Z</time>
      </trkpt>
      <trkpt lat="62.689774381256" lon="17.885151452931">
        <ele>36.4</ele>
        <time>2017-10-18T19:08:33Z</time>
      </trkpt>
      <trkpt lat="62.689741272751" lon="17.885139969728">
        <ele>36.6</ele>
        <time>2017-10-18T19:08:34Z</time>
      </trkpt>
      <trkpt lat="62.689705984952" lon="17.88512890562">
        <ele>36.6</ele>
        <time>2017-10-18T19:08:35Z</time>
      </trkpt>
      <trkpt lat="62.689673295542" lon="17.885115243123">
        <ele>37</ele>
        <time>2017-10-18T19:08:36Z</time>
      </trkpt>
      <trkpt lat="62.689640438494" lon="17.885100071884">
        <ele>37.4</ele>
        <time>2017-10-18T19:08:37Z</time>
      </trkpt>
      <trkpt lat="62.68961059893" lon="17.885079200953">
        <ele>37.6</ele>
        <time>2017-10-18T19:08:38Z</time>
      </trkpt>
      <trkpt lat="62.689576819873" lon="17.885054055253">
        <ele>37.8</ele>
        <time>2017-10-18T19:08:39Z</time>
      </trkpt>
      <trkpt lat="62.689546728852" lon="17.885031424123">
        <ele>38</ele>
        <time>2017-10-18T19:08:40Z</time>
      </trkpt>
      <trkpt lat="62.689514290899" lon="17.885002255111">
        <ele>38.4</ele>
        <time>2017-10-18T19:08:41Z</time>
      </trkpt>
      <trkpt lat="62.689483696964" lon="17.884972583185">
        <ele>38.6</ele>
        <time>2017-10-18T19:08:42Z</time>
      </trkpt>
      <trkpt lat="62.689454527952" lon="17.884944084725">
        <ele>38.8</ele>
        <time>2017-10-18T19:08:43Z</time>
      </trkpt>
      <trkpt lat="62.689423514922" lon="17.884909970392">
        <ele>39</ele>
        <time>2017-10-18T19:08:44Z</time>
      </trkpt>
      <trkpt lat="62.689395519376" lon="17.884876945706">
        <ele>39.2</ele>
        <time>2017-10-18T19:08:45Z</time>
      </trkpt>
      <trkpt lat="62.689367942925" lon="17.884849536893">
        <ele>39.4</ele>
        <time>2017-10-18T19:08:46Z</time>
      </trkpt>
      <trkpt lat="62.689339695922" lon="17.884818607682">
        <ele>39.6</ele>
        <time>2017-10-18T19:08:47Z</time>
      </trkpt>
      <trkpt lat="62.689310946005" lon="17.88478608591">
        <ele>40</ele>
        <time>2017-10-18T19:08:48Z</time>
      </trkpt>
      <trkpt lat="62.689282615183" lon="17.884748199722">
        <ele>40.2</ele>
        <time>2017-10-18T19:08:49Z</time>
      </trkpt>
      <trkpt lat="62.689256463655" lon="17.884711403181">
        <ele>40.4</ele>
        <time>2017-10-18T19:08:50Z</time>
      </trkpt>
      <trkpt lat="62.689231653231" lon="17.884669912776">
        <ele>40.8</ele>
        <time>2017-10-18T19:08:51Z</time>
      </trkpt>
      <trkpt lat="62.689208351549" lon="17.884631607493">
        <ele>40.8</ele>
        <time>2017-10-18T19:08:52Z</time>
      </trkpt>
      <trkpt lat="62.689182786754" lon="17.884590536183">
        <ele>41</ele>
        <time>2017-10-18T19:08:53Z</time>
      </trkpt>
      <trkpt lat="62.689154707389" lon="17.884548291407">
        <ele>41.2</ele>
        <time>2017-10-18T19:08:54Z</time>
      </trkpt>
      <trkpt lat="62.689127885309" lon="17.88450864502">
        <ele>41.4</ele>
        <time>2017-10-18T19:08:55Z</time>
      </trkpt>
      <trkpt lat="62.689100225039" lon="17.884469836823">
        <ele>41.4</ele>
        <time>2017-10-18T19:08:56Z</time>
      </trkpt>
      <trkpt lat="62.689074744063" lon="17.884424406925">
        <ele>41.6</ele>
        <time>2017-10-18T19:08:57Z</time>
      </trkpt>
      <trkpt lat="62.689051777657" lon="17.884383335615">
        <ele>41.8</ele>
        <time>2017-10-18T19:08:58Z</time>
      </trkpt>
      <trkpt lat="62.689022441007" lon="17.884329607636">
        <ele>42.2</ele>
        <time>2017-10-18T19:08:59Z</time>
      </trkpt>
      <trkpt lat="62.688994445461" lon="17.884283674824">
        <ele>42.4</ele>
        <time>2017-10-18T19:09:00Z</time>
      </trkpt>
      <trkpt lat="62.688967288105" lon="17.8842337187">
        <ele>42.6</ele>
        <time>2017-10-18T19:09:01Z</time>
      </trkpt>
      <trkpt lat="62.688941388034" lon="17.884188959354">
        <ele>42.8</ele>
        <time>2017-10-18T19:09:02Z</time>
      </trkpt>
      <trkpt lat="62.688911464651" lon="17.884141936895">
        <ele>43</ele>
        <time>2017-10-18T19:09:03Z</time>
      </trkpt>
      <trkpt lat="62.688882379458" lon="17.884095920264">
        <ele>43</ele>
        <time>2017-10-18T19:09:04Z</time>
      </trkpt>
      <trkpt lat="62.688850276781" lon="17.884046718511">
        <ele>43</ele>
        <time>2017-10-18T19:09:05Z</time>
      </trkpt>
      <trkpt lat="62.688818090285" lon="17.884000366604">
        <ele>43.2</ele>
        <time>2017-10-18T19:09:06Z</time>
      </trkpt>
      <trkpt lat="62.688785652332" lon="17.883955104344">
        <ele>43.4</ele>
        <time>2017-10-18T19:09:07Z</time>
      </trkpt>
      <trkpt lat="62.688754220207" lon="17.883913781577">
        <ele>43.6</ele>
        <time>2017-10-18T19:09:08Z</time>
      </trkpt>
      <trkpt lat="62.688719351503" lon="17.883869189869">
        <ele>43.6</ele>
        <time>2017-10-18T19:09:09Z</time>
      </trkpt>
      <trkpt lat="62.688687919378" lon="17.883830633129">
        <ele>43.8</ele>
        <time>2017-10-18T19:09:10Z</time>
      </trkpt>
      <trkpt lat="62.688649949371" lon="17.883794674778">
        <ele>43.8</ele>
        <time>2017-10-18T19:09:11Z</time>
      </trkpt>
      <trkpt lat="62.688614577753" lon="17.883768104155">
        <ele>43.8</ele>
        <time>2017-10-18T19:09:12Z</time>
      </trkpt>
      <trkpt lat="62.688582642714" lon="17.883749161061">
        <ele>44</ele>
        <time>2017-10-18T19:09:13Z</time>
      </trkpt>
      <trkpt lat="62.688547187277" lon="17.883732564899">
        <ele>44</ele>
        <time>2017-10-18T19:09:14Z</time>
      </trkpt>
      <trkpt lat="62.688512989125" lon="17.883719489135">
        <ele>44</ele>
        <time>2017-10-18T19:09:15Z</time>
      </trkpt>
      <trkpt lat="62.688481054086" lon="17.883710269045">
        <ele>44</ele>
        <time>2017-10-18T19:09:16Z</time>
      </trkpt>
      <trkpt lat="62.688446939753" lon="17.88370062986">
        <ele>43.8</ele>
        <time>2017-10-18T19:09:17Z</time>
      </trkpt>
      <trkpt lat="62.688416345818" lon="17.883690823037">
        <ele>43.8</ele>
        <time>2017-10-18T19:09:18Z</time>
      </trkpt>
      <trkpt lat="62.688390361928" lon="17.883682441137">
        <ele>43.8</ele>
        <time>2017-10-18T19:09:19Z</time>
      </trkpt>
      <trkpt lat="62.688373933404" lon="17.883685123345">
        <ele>43.6</ele>
        <time>2017-10-18T19:09:20Z</time>
      </trkpt>
      <trkpt lat="62.68836169583" lon="17.88369392434">
        <ele>43.8</ele>
        <time>2017-10-18T19:09:21Z</time>
      </trkpt>
      <trkpt lat="62.688353900663" lon="17.883700546041">
        <ele>43.6</ele>
        <time>2017-10-18T19:09:22Z</time>
      </trkpt>
      <trkpt lat="62.688355157948" lon="17.88369979167">
        <ele>43.6</ele>
        <time>2017-10-18T19:09:23Z</time>
      </trkpt>
      <trkpt lat="62.688355577043" lon="17.883699204937">
        <ele>43.6</ele>
        <time>2017-10-18T19:09:24Z</time>
      </trkpt>
      <trkpt lat="62.688185089197" lon="17.883995840378">
        <ele>42.8</ele>
        <time>2017-10-18T19:11:14Z</time>
      </trkpt>
      <trkpt lat="62.688162960981" lon="17.884047305244">
        <ele>42.8</ele>
        <time>2017-10-18T19:11:15Z</time>
      </trkpt>
      <trkpt lat="62.688140581308" lon="17.884097512825">
        <ele>42.6</ele>
        <time>2017-10-18T19:11:16Z</time>
      </trkpt>
      <trkpt lat="62.688119291282" lon="17.88415576703">
        <ele>42.6</ele>
        <time>2017-10-18T19:11:17Z</time>
      </trkpt>
      <trkpt lat="62.688102946577" lon="17.884218798918">
        <ele>42.6</ele>
        <time>2017-10-18T19:11:18Z</time>
      </trkpt>
      <trkpt lat="62.688086015139" lon="17.884302701737">
        <ele>42.4</ele>
        <time>2017-10-18T19:11:19Z</time>
      </trkpt>
      <trkpt lat="62.688071765909" lon="17.884377635923">
        <ele>42.4</ele>
        <time>2017-10-18T19:11:20Z</time>
      </trkpt>
      <trkpt lat="62.688057600498" lon="17.884456593421">
        <ele>42.2</ele>
        <time>2017-10-18T19:11:21Z</time>
      </trkpt>
      <trkpt lat="62.688043770363" lon="17.884533958358">
        <ele>42.2</ele>
        <time>2017-10-18T19:11:22Z</time>
      </trkpt>
      <trkpt lat="62.68802977259" lon="17.884621046299">
        <ele>42</ele>
        <time>2017-10-18T19:11:23Z</time>
      </trkpt>
      <trkpt lat="62.688015355722" lon="17.884714923579">
        <ele>42</ele>
        <time>2017-10-18T19:11:24Z</time>
      </trkpt>
      <trkpt lat="62.688000519759" lon="17.884802933529">
        <ele>41.8</ele>
        <time>2017-10-18T19:11:25Z</time>
      </trkpt>
      <trkpt lat="62.687985599977" lon="17.884892787497">
        <ele>41.8</ele>
        <time>2017-10-18T19:11:26Z</time>
      </trkpt>
      <trkpt lat="62.68797109929" lon="17.884987419148">
        <ele>41.8</ele>
        <time>2017-10-18T19:11:27Z</time>
      </trkpt>
      <trkpt lat="62.687957855888" lon="17.885070148501">
        <ele>41.6</ele>
        <time>2017-10-18T19:11:28Z</time>
      </trkpt>
      <trkpt lat="62.68794008626" lon="17.885174838432">
        <ele>41.4</ele>
        <time>2017-10-18T19:11:29Z</time>
      </trkpt>
      <trkpt lat="62.68792332246" lon="17.88526804516">
        <ele>41</ele>
        <time>2017-10-18T19:11:30Z</time>
      </trkpt>
      <trkpt lat="62.687904547004" lon="17.885362006259">
        <ele>40.8</ele>
        <time>2017-10-18T19:11:31Z</time>
      </trkpt>
      <trkpt lat="62.687884346625" lon="17.885451441132">
        <ele>40.6</ele>
        <time>2017-10-18T19:11:32Z</time>
      </trkpt>
      <trkpt lat="62.687859284744" lon="17.885543893489">
        <ele>40.6</ele>
        <time>2017-10-18T19:11:33Z</time>
      </trkpt>
      <trkpt lat="62.687830367189" lon="17.885632071077">
        <ele>40.4</ele>
        <time>2017-10-18T19:11:34Z</time>
      </trkpt>
      <trkpt lat="62.687794325019" lon="17.885724439615">
        <ele>40.4</ele>
        <time>2017-10-18T19:11:35Z</time>
      </trkpt>
      <trkpt lat="62.687758282849" lon="17.885809851176">
        <ele>40.2</ele>
        <time>2017-10-18T19:11:36Z</time>
      </trkpt>
      <trkpt lat="62.687720731937" lon="17.885886545561">
        <ele>40</ele>
        <time>2017-10-18T19:11:37Z</time>
      </trkpt>
      <trkpt lat="62.687682091378" lon="17.885953181666">
        <ele>39.8</ele>
        <time>2017-10-18T19:11:38Z</time>
      </trkpt>
      <trkpt lat="62.687636410023" lon="17.886018057572">
        <ele>39.6</ele>
        <time>2017-10-18T19:11:39Z</time>
      </trkpt>
      <trkpt lat="62.687592572686" lon="17.886067007868">
        <ele>39.6</ele>
        <time>2017-10-18T19:11:40Z</time>
      </trkpt>
      <trkpt lat="62.687542113648" lon="17.886118053639">
        <ele>39.2</ele>
        <time>2017-10-18T19:11:41Z</time>
      </trkpt>
      <trkpt lat="62.687492995714" lon="17.886159376406">
        <ele>39.2</ele>
        <time>2017-10-18T19:11:42Z</time>
      </trkpt>
      <trkpt lat="62.687442369038" lon="17.886195837671">
        <ele>39</ele>
        <time>2017-10-18T19:11:43Z</time>
      </trkpt>
      <trkpt lat="62.687384701566" lon="17.88623447823">
        <ele>39</ele>
        <time>2017-10-18T19:11:44Z</time>
      </trkpt>
      <trkpt lat="62.687326112085" lon="17.886270017486">
        <ele>38.6</ele>
        <time>2017-10-18T19:11:45Z</time>
      </trkpt>
      <trkpt lat="62.687273138477" lon="17.886299354136">
        <ele>38.6</ele>
        <time>2017-10-18T19:11:46Z</time>
      </trkpt>
      <trkpt lat="62.687211615331" lon="17.886333468469">
        <ele>38.2</ele>
        <time>2017-10-18T19:11:47Z</time>
      </trkpt>
      <trkpt lat="62.687151265651" lon="17.886369091544">
        <ele>38</ele>
        <time>2017-10-18T19:11:48Z</time>
      </trkpt>
      <trkpt lat="62.687085551555" lon="17.886409073207">
        <ele>37.8</ele>
        <time>2017-10-18T19:11:49Z</time>
      </trkpt>
      <trkpt lat="62.687022854943" lon="17.886448132861">
        <ele>37.2</ele>
        <time>2017-10-18T19:11:50Z</time>
      </trkpt>
      <trkpt lat="62.686959487779" lon="17.886488701257">
        <ele>36.6</ele>
        <time>2017-10-18T19:11:51Z</time>
      </trkpt>
      <trkpt lat="62.686898802823" lon="17.886530526938">
        <ele>36</ele>
        <time>2017-10-18T19:11:52Z</time>
      </trkpt>
      <trkpt lat="62.68682948451" lon="17.886583332908">
        <ele>35.2</ele>
        <time>2017-10-18T19:11:53Z</time>
      </trkpt>
      <trkpt lat="62.686761507301" lon="17.886638401991">
        <ele>34.6</ele>
        <time>2017-10-18T19:11:54Z</time>
      </trkpt>
      <trkpt lat="62.686688417133" lon="17.886700260413">
        <ele>33.8</ele>
        <time>2017-10-18T19:11:55Z</time>
      </trkpt>
      <trkpt lat="62.686613063852" lon="17.886764801043">
        <ele>33.4</ele>
        <time>2017-10-18T19:11:56Z</time>
      </trkpt>
      <trkpt lat="62.686536872381" lon="17.88682875494">
        <ele>32.8</ele>
        <time>2017-10-18T19:11:57Z</time>
      </trkpt>
      <trkpt lat="62.686467470249" lon="17.886888350249">
        <ele>32.4</ele>
        <time>2017-10-18T19:11:58Z</time>
      </trkpt>
      <trkpt lat="62.686378454471" lon="17.886968229756">
        <ele>31.8</ele>
        <time>2017-10-18T19:11:59Z</time>
      </trkpt>
      <trkpt lat="62.686298994059" lon="17.887045259417">
        <ele>31.2</ele>
        <time>2017-10-18T19:12:00Z</time>
      </trkpt>
      <trkpt lat="62.686221293846" lon="17.887122708173">
        <ele>30.6</ele>
        <time>2017-10-18T19:12:01Z</time>
      </trkpt>
      <trkpt lat="62.686146862574" lon="17.887197726178">
        <ele>30.2</ele>
        <time>2017-10-18T19:12:02Z</time>
      </trkpt>
      <trkpt lat="62.68606840799" lon="17.88727886297">
        <ele>29.8</ele>
        <time>2017-10-18T19:12:03Z</time>
      </trkpt>
      <trkpt lat="62.685988863759" lon="17.887363352522">
        <ele>29.6</ele>
        <time>2017-10-18T19:12:04Z</time>
      </trkpt>
      <trkpt lat="62.685903033103" lon="17.887455637241">
        <ele>29.2</ele>
        <time>2017-10-18T19:12:05Z</time>
      </trkpt>
      <trkpt lat="62.685818459732" lon="17.887547502865">
        <ele>28.8</ele>
        <time>2017-10-18T19:12:06Z</time>
      </trkpt>
      <trkpt lat="62.685731287972" lon="17.887644397629">
        <ele>28.4</ele>
        <time>2017-10-18T19:12:07Z</time>
      </trkpt>
      <trkpt lat="62.685650737913" lon="17.887737604357">
        <ele>28.2</ele>
        <time>2017-10-18T19:12:08Z</time>
      </trkpt>
      <trkpt lat="62.685560967764" lon="17.887847071971">
        <ele>27.6</ele>
        <time>2017-10-18T19:12:09Z</time>
      </trkpt>
      <trkpt lat="62.685478908963" lon="17.887951761902">
        <ele>26.8</ele>
        <time>2017-10-18T19:12:10Z</time>
      </trkpt>
      <trkpt lat="62.685389390271" lon="17.88806592338">
        <ele>26.4</ele>
        <time>2017-10-18T19:12:11Z</time>
      </trkpt>
      <trkpt lat="62.685304649262" lon="17.88817237351">
        <ele>25.4</ele>
        <time>2017-10-18T19:12:12Z</time>
      </trkpt>
      <trkpt lat="62.68522518885" lon="17.888272537215">
        <ele>24.6</ele>
        <time>2017-10-18T19:12:13Z</time>
      </trkpt>
      <trkpt lat="62.68513466433" lon="17.888386614874">
        <ele>24</ele>
        <time>2017-10-18T19:12:14Z</time>
      </trkpt>
      <trkpt lat="62.685049420407" lon="17.888494406108">
        <ele>23.2</ele>
        <time>2017-10-18T19:12:15Z</time>
      </trkpt>
      <trkpt lat="62.684969037986" lon="17.888593061071">
        <ele>22.4</ele>
        <time>2017-10-18T19:12:16Z</time>
      </trkpt>
      <trkpt lat="62.684881195674" lon="17.888699343563">
        <ele>22</ele>
        <time>2017-10-18T19:12:17Z</time>
      </trkpt>
      <trkpt lat="62.684789749145" lon="17.888808475901">
        <ele>21.8</ele>
        <time>2017-10-18T19:12:18Z</time>
      </trkpt>
      <trkpt lat="62.684695368951" lon="17.888923475569">
        <ele>21.2</ele>
        <time>2017-10-18T19:12:19Z</time>
      </trkpt>
      <trkpt lat="62.684611130856" lon="17.889030596251">
        <ele>21</ele>
        <time>2017-10-18T19:12:20Z</time>
      </trkpt>
      <trkpt lat="62.684531921901" lon="17.889131849603">
        <ele>20.8</ele>
        <time>2017-10-18T19:12:21Z</time>
      </trkpt>
      <trkpt lat="62.684460172837" lon="17.889222709399">
        <ele>20.6</ele>
        <time>2017-10-18T19:12:22Z</time>
      </trkpt>
      <trkpt lat="62.684383394633" lon="17.889321029086">
        <ele>21</ele>
        <time>2017-10-18T19:12:23Z</time>
      </trkpt>
      <trkpt lat="62.684305778239" lon="17.889425635198">
        <ele>20.8</ele>
        <time>2017-10-18T19:12:24Z</time>
      </trkpt>
      <trkpt lat="62.684234867365" lon="17.88952185941">
        <ele>20.8</ele>
        <time>2017-10-18T19:12:25Z</time>
      </trkpt>
      <trkpt lat="62.684166890156" lon="17.889611629559">
        <ele>20.6</ele>
        <time>2017-10-18T19:12:26Z</time>
      </trkpt>
      <trkpt lat="62.684101427517" lon="17.889695783835">
        <ele>20.6</ele>
        <time>2017-10-18T19:12:27Z</time>
      </trkpt>
      <trkpt lat="62.68404417914" lon="17.889764431596">
        <ele>20.6</ele>
        <time>2017-10-18T19:12:28Z</time>
      </trkpt>
      <trkpt lat="62.683973687361" lon="17.88984875351">
        <ele>20.2</ele>
        <time>2017-10-18T19:12:29Z</time>
      </trkpt>
      <trkpt lat="62.683913002405" lon="17.889922095135">
        <ele>20.2</ele>
        <time>2017-10-18T19:12:30Z</time>
      </trkpt>
      <trkpt lat="62.683848964689" lon="17.889998370425">
        <ele>20.2</ele>
        <time>2017-10-18T19:12:31Z</time>
      </trkpt>
      <trkpt lat="62.683789872294" lon="17.890068275471">
        <ele>20.2</ele>
        <time>2017-10-18T19:12:32Z</time>
      </trkpt>
      <trkpt lat="62.683728097691" lon="17.890141952372">
        <ele>20.4</ele>
        <time>2017-10-18T19:12:33Z</time>
      </trkpt>
      <trkpt lat="62.683672525694" lon="17.890208839934">
        <ele>20.2</ele>
        <time>2017-10-18T19:12:34Z</time>
      </trkpt>
      <trkpt lat="62.683618127163" lon="17.890275895134">
        <ele>20</ele>
        <time>2017-10-18T19:12:35Z</time>
      </trkpt>
      <trkpt lat="62.683573032541" lon="17.890327192362">
        <ele>19.6</ele>
        <time>2017-10-18T19:12:36Z</time>
      </trkpt>
      <trkpt lat="62.683529698118" lon="17.890366000559">
        <ele>19</ele>
        <time>2017-10-18T19:12:37Z</time>
      </trkpt>
      <trkpt lat="62.683487453342" lon="17.890390978621">
        <ele>18.6</ele>
        <time>2017-10-18T19:12:38Z</time>
      </trkpt>
      <trkpt lat="62.683437413399" lon="17.890397013589">
        <ele>18</ele>
        <time>2017-10-18T19:12:39Z</time>
      </trkpt>
      <trkpt lat="62.683390307121" lon="17.890377902857">
        <ele>17.6</ele>
        <time>2017-10-18T19:12:40Z</time>
      </trkpt>
      <trkpt lat="62.683336160047" lon="17.890334484615">
        <ele>17.4</ele>
        <time>2017-10-18T19:12:41Z</time>
      </trkpt>
      <trkpt lat="62.68328310262" lon="17.890280253722">
        <ele>17.2</ele>
        <time>2017-10-18T19:12:42Z</time>
      </trkpt>
      <trkpt lat="62.683231553935" lon="17.890231051969">
        <ele>17</ele>
        <time>2017-10-18T19:12:43Z</time>
      </trkpt>
      <trkpt lat="62.683169695513" lon="17.890180928207">
        <ele>16.6</ele>
        <time>2017-10-18T19:12:44Z</time>
      </trkpt>
      <trkpt lat="62.683109513471" lon="17.890139186345">
        <ele>16.4</ele>
        <time>2017-10-18T19:12:45Z</time>
      </trkpt>
      <trkpt lat="62.683052265094" lon="17.890093253533">
        <ele>16.4</ele>
        <time>2017-10-18T19:12:46Z</time>
      </trkpt>
      <trkpt lat="62.682994597622" lon="17.890028629084">
        <ele>16.2</ele>
        <time>2017-10-18T19:12:47Z</time>
      </trkpt>
      <trkpt lat="62.682946234059" lon="17.889942546971">
        <ele>16.2</ele>
        <time>2017-10-18T19:12:48Z</time>
      </trkpt>
      <trkpt lat="62.682912035907" lon="17.889828301674">
        <ele>16.2</ele>
        <time>2017-10-18T19:12:49Z</time>
      </trkpt>
      <trkpt lat="62.682895942659" lon="17.889702740812">
        <ele>16</ele>
        <time>2017-10-18T19:12:50Z</time>
      </trkpt>
      <trkpt lat="62.682886219655" lon="17.889569887697">
        <ele>16</ele>
        <time>2017-10-18T19:12:51Z</time>
      </trkpt>
      <trkpt lat="62.682877251022" lon="17.889441057894">
        <ele>16</ele>
        <time>2017-10-18T19:12:52Z</time>
      </trkpt>
      <trkpt lat="62.682868030932" lon="17.889299655241">
        <ele>15.8</ele>
        <time>2017-10-18T19:12:53Z</time>
      </trkpt>
      <trkpt lat="62.682857888833" lon="17.889158252588">
        <ele>15.8</ele>
        <time>2017-10-18T19:12:54Z</time>
      </trkpt>
      <trkpt lat="62.682845735078" lon="17.889022801084">
        <ele>15.6</ele>
        <time>2017-10-18T19:12:55Z</time>
      </trkpt>
      <trkpt lat="62.682836012074" lon="17.888905705941">
        <ele>15.4</ele>
        <time>2017-10-18T19:12:56Z</time>
      </trkpt>
      <trkpt lat="62.682822601034" lon="17.888740414873">
        <ele>15.4</ele>
        <time>2017-10-18T19:12:57Z</time>
      </trkpt>
      <trkpt lat="62.682812626573" lon="17.888622397721">
        <ele>15.4</ele>
        <time>2017-10-18T19:12:58Z</time>
      </trkpt>
      <trkpt lat="62.682798544981" lon="17.888461716698">
        <ele>15.6</ele>
        <time>2017-10-18T19:12:59Z</time>
      </trkpt>
      <trkpt lat="62.682785720674" lon="17.888322493339">
        <ele>15.8</ele>
        <time>2017-10-18T19:13:00Z</time>
      </trkpt>
      <trkpt lat="62.682772477272" lon="17.888184862541">
        <ele>16</ele>
        <time>2017-10-18T19:13:01Z</time>
      </trkpt>
      <trkpt lat="62.68275923387" lon="17.888058212032">
        <ele>16.2</ele>
        <time>2017-10-18T19:13:02Z</time>
      </trkpt>
      <trkpt lat="62.682746409563" lon="17.887924604546">
        <ele>16.4</ele>
        <time>2017-10-18T19:13:03Z</time>
      </trkpt>
      <trkpt lat="62.682734255808" lon="17.887795858562">
        <ele>16.6</ele>
        <time>2017-10-18T19:13:04Z</time>
      </trkpt>
      <trkpt lat="62.68272151532" lon="17.887659149773">
        <ele>16.8</ele>
        <time>2017-10-18T19:13:05Z</time>
      </trkpt>
      <trkpt lat="62.68271061885" lon="17.887532918359">
        <ele>17.2</ele>
        <time>2017-10-18T19:13:06Z</time>
      </trkpt>
      <trkpt lat="62.682699051828" lon="17.887412721913">
        <ele>17.6</ele>
        <time>2017-10-18T19:13:07Z</time>
      </trkpt>
      <trkpt lat="62.682689077367" lon="17.887301997014">
        <ele>17.8</ele>
        <time>2017-10-18T19:13:08Z</time>
      </trkpt>
      <trkpt lat="62.682679857277" lon="17.887191942667">
        <ele>18.2</ele>
        <time>2017-10-18T19:13:09Z</time>
      </trkpt>
      <trkpt lat="62.682670972463" lon="17.887096389007">
        <ele>18.4</ele>
        <time>2017-10-18T19:13:10Z</time>
      </trkpt>
      <trkpt lat="62.68266200383" lon="17.886992034352">
        <ele>18.6</ele>
        <time>2017-10-18T19:13:11Z</time>
      </trkpt>
      <trkpt lat="62.682652113188" lon="17.886898408529">
        <ele>19</ele>
        <time>2017-10-18T19:13:12Z</time>
      </trkpt>
      <trkpt lat="62.682643144555" lon="17.88681366752">
        <ele>19.2</ele>
        <time>2017-10-18T19:13:13Z</time>
      </trkpt>
      <trkpt lat="62.68263518175" lon="17.886724148828">
        <ele>19.6</ele>
        <time>2017-10-18T19:13:14Z</time>
      </trkpt>
      <trkpt lat="62.682627218945" lon="17.886639407819">
        <ele>20</ele>
        <time>2017-10-18T19:13:15Z</time>
      </trkpt>
      <trkpt lat="62.682620764882" lon="17.88656304871">
        <ele>20.4</ele>
        <time>2017-10-18T19:13:16Z</time>
      </trkpt>
      <trkpt lat="62.682614143181" lon="17.88648425885">
        <ele>20.8</ele>
        <time>2017-10-18T19:13:17Z</time>
      </trkpt>
      <trkpt lat="62.682608275851" lon="17.886405133714">
        <ele>21.2</ele>
        <time>2017-10-18T19:13:18Z</time>
      </trkpt>
      <trkpt lat="62.682600732141" lon="17.886321733809">
        <ele>21.6</ele>
        <time>2017-10-18T19:13:19Z</time>
      </trkpt>
      <trkpt lat="62.682592517879" lon="17.886243865958">
        <ele>21.8</ele>
        <time>2017-10-18T19:13:20Z</time>
      </trkpt>
      <trkpt lat="62.682585225626" lon="17.886166752478">
        <ele>22.2</ele>
        <time>2017-10-18T19:13:21Z</time>
      </trkpt>
      <trkpt lat="62.682577430459" lon="17.886093243215">
        <ele>22.4</ele>
        <time>2017-10-18T19:13:22Z</time>
      </trkpt>
      <trkpt lat="62.682569048559" lon="17.886007831654">
        <ele>22.6</ele>
        <time>2017-10-18T19:13:23Z</time>
      </trkpt>
      <trkpt lat="62.682562175401" lon="17.885918815876">
        <ele>23</ele>
        <time>2017-10-18T19:13:24Z</time>
      </trkpt>
      <trkpt lat="62.682554296415" lon="17.88583298522">
        <ele>23.2</ele>
        <time>2017-10-18T19:13:25Z</time>
      </trkpt>
      <trkpt lat="62.682544489592" lon="17.885746986926">
        <ele>23.6</ele>
        <time>2017-10-18T19:13:26Z</time>
      </trkpt>
      <trkpt lat="62.682534515131" lon="17.885663251745">
        <ele>23.8</ele>
        <time>2017-10-18T19:13:27Z</time>
      </trkpt>
      <trkpt lat="62.682526468507" lon="17.885590496853">
        <ele>24</ele>
        <time>2017-10-18T19:13:28Z</time>
      </trkpt>
      <trkpt lat="62.682514733847" lon="17.885495865202">
        <ele>24.2</ele>
        <time>2017-10-18T19:13:29Z</time>
      </trkpt>
      <trkpt lat="62.682502831549" lon="17.885410202184">
        <ele>24.4</ele>
        <time>2017-10-18T19:13:30Z</time>
      </trkpt>
      <trkpt lat="62.682489839604" lon="17.88531917475">
        <ele>24.6</ele>
        <time>2017-10-18T19:13:31Z</time>
      </trkpt>
      <trkpt lat="62.68247760203" lon="17.885233511732">
        <ele>24.6</ele>
        <time>2017-10-18T19:13:32Z</time>
      </trkpt>
      <trkpt lat="62.682465783551" lon="17.885140053547">
        <ele>24.8</ele>
        <time>2017-10-18T19:13:33Z</time>
      </trkpt>
      <trkpt lat="62.682455473814" lon="17.885046092448">
        <ele>25.2</ele>
        <time>2017-10-18T19:13:34Z</time>
      </trkpt>
      <trkpt lat="62.682443655335" lon="17.884944168544">
        <ele>25.4</ele>
        <time>2017-10-18T19:13:35Z</time>
      </trkpt>
      <trkpt lat="62.682431585399" lon="17.884847189961">
        <ele>25.6</ele>
        <time>2017-10-18T19:13:36Z</time>
      </trkpt>
      <trkpt lat="62.682418677273" lon="17.884745601333">
        <ele>25.8</ele>
        <time>2017-10-18T19:13:37Z</time>
      </trkpt>
      <trkpt lat="62.682407361708" lon="17.884652394605">
        <ele>26</ele>
        <time>2017-10-18T19:13:38Z</time>
      </trkpt>
      <trkpt lat="62.682396549057" lon="17.884548207588">
        <ele>26.2</ele>
        <time>2017-10-18T19:13:39Z</time>
      </trkpt>
      <trkpt lat="62.682386490777" lon="17.884452653928">
        <ele>26.4</ele>
        <time>2017-10-18T19:13:40Z</time>
      </trkpt>
      <trkpt lat="62.682374085565" lon="17.884345449427">
        <ele>26.4</ele>
        <time>2017-10-18T19:13:41Z</time>
      </trkpt>
      <trkpt lat="62.682361261258" lon="17.884243609342">
        <ele>26.4</ele>
        <time>2017-10-18T19:13:42Z</time>
      </trkpt>
      <trkpt lat="62.682348939865" lon="17.884149229148">
        <ele>26.6</ele>
        <time>2017-10-18T19:13:43Z</time>
      </trkpt>
      <trkpt lat="62.68233678611" lon="17.884046383235">
        <ele>26.6</ele>
        <time>2017-10-18T19:13:44Z</time>
      </trkpt>
      <trkpt lat="62.682325973459" lon="17.883955020525">
        <ele>26.4</ele>
        <time>2017-10-18T19:13:45Z</time>
      </trkpt>
      <trkpt lat="62.682313568247" lon="17.883868854593">
        <ele>26.4</ele>
        <time>2017-10-18T19:13:46Z</time>
      </trkpt>
      <trkpt lat="62.682299570474" lon="17.883773971485">
        <ele>26.4</ele>
        <time>2017-10-18T19:13:47Z</time>
      </trkpt>
      <trkpt lat="62.682285740339" lon="17.883677076721">
        <ele>26.4</ele>
        <time>2017-10-18T19:13:48Z</time>
      </trkpt>
      <trkpt lat="62.682271574928" lon="17.883574733722">
        <ele>26.2</ele>
        <time>2017-10-18T19:13:49Z</time>
      </trkpt>
      <trkpt lat="62.682258918259" lon="17.883473564189">
        <ele>26.2</ele>
        <time>2017-10-18T19:13:50Z</time>
      </trkpt>
      <trkpt lat="62.68224793797" lon="17.883370299181">
        <ele>26</ele>
        <time>2017-10-18T19:13:51Z</time>
      </trkpt>
      <trkpt lat="62.682237125319" lon="17.883274074969">
        <ele>26</ele>
        <time>2017-10-18T19:13:52Z</time>
      </trkpt>
      <trkpt lat="62.682221702623" lon="17.883168546848">
        <ele>25.8</ele>
        <time>2017-10-18T19:13:53Z</time>
      </trkpt>
      <trkpt lat="62.682202591891" lon="17.883057319035">
        <ele>25.6</ele>
        <time>2017-10-18T19:13:54Z</time>
      </trkpt>
      <trkpt lat="62.682185325177" lon="17.882947767602">
        <ele>25.6</ele>
        <time>2017-10-18T19:13:55Z</time>
      </trkpt>
      <trkpt lat="62.682170992128" lon="17.882834192857">
        <ele>25.4</ele>
        <time>2017-10-18T19:13:56Z</time>
      </trkpt>
      <trkpt lat="62.682157916364" lon="17.882718941732">
        <ele>25.2</ele>
        <time>2017-10-18T19:13:57Z</time>
      </trkpt>
      <trkpt lat="62.682144337686" lon="17.882615509086">
        <ele>25</ele>
        <time>2017-10-18T19:13:58Z</time>
      </trkpt>
      <trkpt lat="62.682126148963" lon="17.882484164713">
        <ele>24.6</ele>
        <time>2017-10-18T19:13:59Z</time>
      </trkpt>
      <trkpt lat="62.682109468982" lon="17.882363800629">
        <ele>24.4</ele>
        <time>2017-10-18T19:14:00Z</time>
      </trkpt>
      <trkpt lat="62.682092202268" lon="17.882242682174">
        <ele>24.2</ele>
        <time>2017-10-18T19:14:01Z</time>
      </trkpt>
      <trkpt lat="62.682074851735" lon="17.882128772153">
        <ele>23.8</ele>
        <time>2017-10-18T19:14:02Z</time>
      </trkpt>
      <trkpt lat="62.682056411555" lon="17.882008156612">
        <ele>23.4</ele>
        <time>2017-10-18T19:14:03Z</time>
      </trkpt>
      <trkpt lat="62.682036630271" lon="17.881896593523">
        <ele>23.2</ele>
        <time>2017-10-18T19:14:04Z</time>
      </trkpt>
      <trkpt lat="62.682013831503" lon="17.881771787032">
        <ele>22.8</ele>
        <time>2017-10-18T19:14:05Z</time>
      </trkpt>
      <trkpt lat="62.681997989712" lon="17.881660726857">
        <ele>22.6</ele>
        <time>2017-10-18T19:14:06Z</time>
      </trkpt>
      <trkpt lat="62.681984411034" lon="17.881546565379">
        <ele>22.6</ele>
        <time>2017-10-18T19:14:07Z</time>
      </trkpt>
      <trkpt lat="62.681971922003" lon="17.881433996462">
        <ele>22.6</ele>
        <time>2017-10-18T19:14:08Z</time>
      </trkpt>
      <trkpt lat="62.681958008049" lon="17.881310279618">
        <ele>22.4</ele>
        <time>2017-10-18T19:14:09Z</time>
      </trkpt>
      <trkpt lat="62.681945016104" lon="17.881198045977">
        <ele>22.6</ele>
        <time>2017-10-18T19:14:10Z</time>
      </trkpt>
      <trkpt lat="62.681930850693" lon="17.88107458059">
        <ele>22.6</ele>
        <time>2017-10-18T19:14:11Z</time>
      </trkpt>
      <trkpt lat="62.681918948395" lon="17.880974668342">
        <ele>22.4</ele>
        <time>2017-10-18T19:14:12Z</time>
      </trkpt>
      <trkpt lat="62.681904196251" lon="17.880855226267">
        <ele>22.6</ele>
        <time>2017-10-18T19:14:13Z</time>
      </trkpt>
      <trkpt lat="62.681888605917" lon="17.880741651522">
        <ele>22.6</ele>
        <time>2017-10-18T19:14:14Z</time>
      </trkpt>
      <trkpt lat="62.681872680307" lon="17.880633105917">
        <ele>22.6</ele>
        <time>2017-10-18T19:14:15Z</time>
      </trkpt>
      <trkpt lat="62.681857676706" lon="17.88053310985">
        <ele>22.8</ele>
        <time>2017-10-18T19:14:16Z</time>
      </trkpt>
      <trkpt lat="62.681840745268" lon="17.880422384951">
        <ele>22.8</ele>
        <time>2017-10-18T19:14:17Z</time>
      </trkpt>
      <trkpt lat="62.681822472726" lon="17.880315851002">
        <ele>23</ele>
        <time>2017-10-18T19:14:18Z</time>
      </trkpt>
      <trkpt lat="62.6818011827" lon="17.880202695352">
        <ele>23.2</ele>
        <time>2017-10-18T19:14:19Z</time>
      </trkpt>
      <trkpt lat="62.681780730864" lon="17.880094065928">
        <ele>23.2</ele>
        <time>2017-10-18T19:14:20Z</time>
      </trkpt>
      <trkpt lat="62.681760027571" lon="17.879987699617">
        <ele>23.4</ele>
        <time>2017-10-18T19:14:21Z</time>
      </trkpt>
      <trkpt lat="62.681739659554" lon="17.879889128473">
        <ele>23.6</ele>
        <time>2017-10-18T19:14:22Z</time>
      </trkpt>
      <trkpt lat="62.681716274053" lon="17.879784522361">
        <ele>23.6</ele>
        <time>2017-10-18T19:14:23Z</time>
      </trkpt>
      <trkpt lat="62.681689368154" lon="17.879682011724">
        <ele>23.8</ele>
        <time>2017-10-18T19:14:24Z</time>
      </trkpt>
      <trkpt lat="62.68166036678" lon="17.879581093648">
        <ele>24</ele>
        <time>2017-10-18T19:14:25Z</time>
      </trkpt>
      <trkpt lat="62.68163186832" lon="17.8794811814">
        <ele>24</ele>
        <time>2017-10-18T19:14:26Z</time>
      </trkpt>
      <trkpt lat="62.68160253167" lon="17.87937808403">
        <ele>24</ele>
        <time>2017-10-18T19:14:27Z</time>
      </trkpt>
      <trkpt lat="62.681576966875" lon="17.879288649157">
        <ele>24.2</ele>
        <time>2017-10-18T19:14:28Z</time>
      </trkpt>
      <trkpt lat="62.681542684904" lon="17.879176247878">
        <ele>24.2</ele>
        <time>2017-10-18T19:14:29Z</time>
      </trkpt>
      <trkpt lat="62.681509827856" lon="17.879081029494">
        <ele>24.2</ele>
        <time>2017-10-18T19:14:30Z</time>
      </trkpt>
      <trkpt lat="62.681476300256" lon="17.878987738947">
        <ele>24</ele>
        <time>2017-10-18T19:14:31Z</time>
      </trkpt>
      <trkpt lat="62.681443527027" lon="17.878901237739">
        <ele>24</ele>
        <time>2017-10-18T19:14:32Z</time>
      </trkpt>
      <trkpt lat="62.681406898124" lon="17.878810461762">
        <ele>24</ele>
        <time>2017-10-18T19:14:33Z</time>
      </trkpt>
      <trkpt lat="62.681364820986" lon="17.878729408789">
        <ele>24</ele>
        <time>2017-10-18T19:14:34Z</time>
      </trkpt>
      <trkpt lat="62.68132006164" lon="17.878637878441">
        <ele>24</ele>
        <time>2017-10-18T19:14:35Z</time>
      </trkpt>
      <trkpt lat="62.68127815214" lon="17.878550203767">
        <ele>24</ele>
        <time>2017-10-18T19:14:36Z</time>
      </trkpt>
      <trkpt lat="62.681235488269" lon="17.878464792206">
        <ele>24</ele>
        <time>2017-10-18T19:14:37Z</time>
      </trkpt>
      <trkpt lat="62.681192824398" lon="17.878379464464">
        <ele>24</ele>
        <time>2017-10-18T19:14:38Z</time>
      </trkpt>
      <trkpt lat="62.681145969577" lon="17.878284329899">
        <ele>24</ele>
        <time>2017-10-18T19:14:39Z</time>
      </trkpt>
      <trkpt lat="62.681102551335" lon="17.878194392112">
        <ele>24</ele>
        <time>2017-10-18T19:14:40Z</time>
      </trkpt>
      <trkpt lat="62.681052595211" lon="17.87809062419">
        <ele>23.8</ele>
        <time>2017-10-18T19:14:41Z</time>
      </trkpt>
      <trkpt lat="62.681002219992" lon="17.877992723598">
        <ele>23.4</ele>
        <time>2017-10-18T19:14:42Z</time>
      </trkpt>
      <trkpt lat="62.680952850601" lon="17.877893900997">
        <ele>23</ele>
        <time>2017-10-18T19:14:43Z</time>
      </trkpt>
      <trkpt lat="62.680897865337" lon="17.877775213293">
        <ele>22.6</ele>
        <time>2017-10-18T19:14:44Z</time>
      </trkpt>
      <trkpt lat="62.680845562281" lon="17.877658201969">
        <ele>22</ele>
        <time>2017-10-18T19:14:45Z</time>
      </trkpt>
      <trkpt lat="62.680798120727" lon="17.877543369939">
        <ele>21.6</ele>
        <time>2017-10-18T19:14:46Z</time>
      </trkpt>
      <trkpt lat="62.680750762992" lon="17.877421329475">
        <ele>21</ele>
        <time>2017-10-18T19:14:47Z</time>
      </trkpt>
      <trkpt lat="62.680704411085" lon="17.877296774441">
        <ele>20.6</ele>
        <time>2017-10-18T19:14:48Z</time>
      </trkpt>
      <trkpt lat="62.680653952047" lon="17.877157467263">
        <ele>20.2</ele>
        <time>2017-10-18T19:14:49Z</time>
      </trkpt>
      <trkpt lat="62.680607516321" lon="17.877023356863">
        <ele>19.8</ele>
        <time>2017-10-18T19:14:50Z</time>
      </trkpt>
      <trkpt lat="62.680561415871" lon="17.876885223151">
        <ele>19.4</ele>
        <time>2017-10-18T19:14:51Z</time>
      </trkpt>
      <trkpt lat="62.680516572706" lon="17.876753124407">
        <ele>19.2</ele>
        <time>2017-10-18T19:14:52Z</time>
      </trkpt>
      <trkpt lat="62.680470304618" lon="17.876606273519">
        <ele>19</ele>
        <time>2017-10-18T19:14:53Z</time>
      </trkpt>
      <trkpt lat="62.680423701254" lon="17.876450034903">
        <ele>18.6</ele>
        <time>2017-10-18T19:14:54Z</time>
      </trkpt>
      <trkpt lat="62.680376427338" lon="17.87629270664">
        <ele>18.4</ele>
        <time>2017-10-18T19:14:55Z</time>
      </trkpt>
      <trkpt lat="62.680327057947" lon="17.876135797472">
        <ele>18</ele>
        <time>2017-10-18T19:14:56Z</time>
      </trkpt>
      <trkpt lat="62.680281292773" lon="17.875991544973">
        <ele>17.6</ele>
        <time>2017-10-18T19:14:57Z</time>
      </trkpt>
      <trkpt lat="62.680236868703" lon="17.875850729053">
        <ele>17.2</ele>
        <time>2017-10-18T19:14:58Z</time>
      </trkpt>
      <trkpt lat="62.680179117412" lon="17.875669596194">
        <ele>16.8</ele>
        <time>2017-10-18T19:14:59Z</time>
      </trkpt>
      <trkpt lat="62.680126730537" lon="17.875502880203">
        <ele>16.4</ele>
        <time>2017-10-18T19:15:00Z</time>
      </trkpt>
      <trkpt lat="62.680071661454" lon="17.875331973262">
        <ele>16</ele>
        <time>2017-10-18T19:15:01Z</time>
      </trkpt>
      <trkpt lat="62.680018184932" lon="17.875172465705">
        <ele>15.2</ele>
        <time>2017-10-18T19:15:02Z</time>
      </trkpt>
      <trkpt lat="62.679958338166" lon="17.875003318963">
        <ele>14.4</ele>
        <time>2017-10-18T19:15:03Z</time>
      </trkpt>
      <trkpt lat="62.679893965174" lon="17.874835261868">
        <ele>13.6</ele>
        <time>2017-10-18T19:15:04Z</time>
      </trkpt>
      <trkpt lat="62.679822802843" lon="17.874665360755">
        <ele>12.8</ele>
        <time>2017-10-18T19:15:05Z</time>
      </trkpt>
      <trkpt lat="62.679752897797" lon="17.874509708872">
        <ele>12</ele>
        <time>2017-10-18T19:15:06Z</time>
      </trkpt>
      <trkpt lat="62.679681735466" lon="17.874353470256">
        <ele>11</ele>
        <time>2017-10-18T19:15:07Z</time>
      </trkpt>
      <trkpt lat="62.679610237859" lon="17.874205781178">
        <ele>10.2</ele>
        <time>2017-10-18T19:15:08Z</time>
      </trkpt>
      <trkpt lat="62.679531028904" lon="17.874053649693">
        <ele>9.4</ele>
        <time>2017-10-18T19:15:09Z</time>
      </trkpt>
      <trkpt lat="62.679457100546" lon="17.873921299492">
        <ele>8.6</ele>
        <time>2017-10-18T19:15:10Z</time>
      </trkpt>
      <trkpt lat="62.679371437528" lon="17.873772101672">
        <ele>8</ele>
        <time>2017-10-18T19:15:11Z</time>
      </trkpt>
      <trkpt lat="62.679284852501" lon="17.873624161137">
        <ele>7.2</ele>
        <time>2017-10-18T19:15:12Z</time>
      </trkpt>
      <trkpt lat="62.679203799528" lon="17.873483512855">
        <ele>6.4</ele>
        <time>2017-10-18T19:15:13Z</time>
      </trkpt>
      <trkpt lat="62.679113275008" lon="17.873323418565">
        <ele>5.8</ele>
        <time>2017-10-18T19:15:14Z</time>
      </trkpt>
      <trkpt lat="62.679022918126" lon="17.873165838845">
        <ele>5.2</ele>
        <time>2017-10-18T19:15:15Z</time>
      </trkpt>
      <trkpt lat="62.678938009479" lon="17.87302041288">
        <ele>4.6</ele>
        <time>2017-10-18T19:15:16Z</time>
      </trkpt>
      <trkpt lat="62.678845138027" lon="17.872864090445">
        <ele>4</ele>
        <time>2017-10-18T19:15:17Z</time>
      </trkpt>
      <trkpt lat="62.678752937127" lon="17.872710701675">
        <ele>3.6</ele>
        <time>2017-10-18T19:15:18Z</time>
      </trkpt>
      <trkpt lat="62.678653946888" lon="17.872544823874">
        <ele>3.2</ele>
        <time>2017-10-18T19:15:19Z</time>
      </trkpt>
      <trkpt lat="62.678563422368" lon="17.872392440932">
        <ele>2.6</ele>
        <time>2017-10-18T19:15:20Z</time>
      </trkpt>
      <trkpt lat="62.678471640563" lon="17.872236537592">
        <ele>2</ele>
        <time>2017-10-18T19:15:21Z</time>
      </trkpt>
      <trkpt lat="62.6783897494" lon="17.872093626197">
        <ele>1.4</ele>
        <time>2017-10-18T19:15:22Z</time>
      </trkpt>
      <trkpt lat="62.678305343667" lon="17.871942751997">
        <ele>0.8</ele>
        <time>2017-10-18T19:15:23Z</time>
      </trkpt>
      <trkpt lat="62.678217417536" lon="17.871789782322">
        <ele>0</ele>
        <time>2017-10-18T19:15:24Z</time>
      </trkpt>
      <trkpt lat="62.678134772002" lon="17.871648044393">
        <ele>0</ele>
        <time>2017-10-18T19:15:25Z</time>
      </trkpt>
      <trkpt lat="62.678054305762" lon="17.871507899025">
        <ele>0</ele>
        <time>2017-10-18T19:15:26Z</time>
      </trkpt>
      <trkpt lat="62.677977779015" lon="17.871369597675">
        <ele>0</ele>
        <time>2017-10-18T19:15:27Z</time>
      </trkpt>
      <trkpt lat="62.677912064919" lon="17.871246467564">
        <ele>0</ele>
        <time>2017-10-18T19:15:28Z</time>
      </trkpt>
      <trkpt lat="62.677833694154" lon="17.871083271971">
        <ele>0</ele>
        <time>2017-10-18T19:15:29Z</time>
      </trkpt>
      <trkpt lat="62.677767896239" lon="17.870930721391">
        <ele>0</ele>
        <time>2017-10-18T19:15:30Z</time>
      </trkpt>
      <trkpt lat="62.677707798016" lon="17.870767944893">
        <ele>0</ele>
        <time>2017-10-18T19:15:31Z</time>
      </trkpt>
      <trkpt lat="62.677660188824" lon="17.870609443164">
        <ele>0</ele>
        <time>2017-10-18T19:15:32Z</time>
      </trkpt>
      <trkpt lat="62.677612998727" lon="17.870424119355">
        <ele>0</ele>
        <time>2017-10-18T19:15:33Z</time>
      </trkpt>
      <trkpt lat="62.677573436159" lon="17.870236532433">
        <ele>0</ele>
        <time>2017-10-18T19:15:34Z</time>
      </trkpt>
      <trkpt lat="62.677539154188" lon="17.870032349349">
        <ele>0</ele>
        <time>2017-10-18T19:15:35Z</time>
      </trkpt>
      <trkpt lat="62.677512080651" lon="17.869835458518">
        <ele>0</ele>
        <time>2017-10-18T19:15:36Z</time>
      </trkpt>
      <trkpt lat="62.677491880272" lon="17.86963999261">
        <ele>0</ele>
        <time>2017-10-18T19:15:37Z</time>
      </trkpt>
      <trkpt lat="62.677480397069" lon="17.869444107607">
        <ele>0</ele>
        <time>2017-10-18T19:15:38Z</time>
      </trkpt>
      <trkpt lat="62.677474362101" lon="17.869228273682">
        <ele>0</ele>
        <time>2017-10-18T19:15:39Z</time>
      </trkpt>
      <trkpt lat="62.677474278282" lon="17.869039513294">
        <ele>0</ele>
        <time>2017-10-18T19:15:40Z</time>
      </trkpt>
      <trkpt lat="62.677483163096" lon="17.868837593323">
        <ele>0</ele>
        <time>2017-10-18T19:15:41Z</time>
      </trkpt>
      <trkpt lat="62.677498418154" lon="17.868658639758">
        <ele>0</ele>
        <time>2017-10-18T19:15:42Z</time>
      </trkpt>
      <trkpt lat="62.677516523058" lon="17.868498880744">
        <ele>0</ele>
        <time>2017-10-18T19:15:43Z</time>
      </trkpt>
      <trkpt lat="62.677539154188" lon="17.868332332391">
        <ele>0</ele>
        <time>2017-10-18T19:15:44Z</time>
      </trkpt>
      <trkpt lat="62.677563126422" lon="17.868178021612">
        <ele>0</ele>
        <time>2017-10-18T19:15:45Z</time>
      </trkpt>
      <trkpt lat="62.677588188303" lon="17.868044581764">
        <ele>0</ele>
        <time>2017-10-18T19:15:46Z</time>
      </trkpt>
      <trkpt lat="62.6776186146" lon="17.867912902115">
        <ele>0</ele>
        <time>2017-10-18T19:15:47Z</time>
      </trkpt>
      <trkpt lat="62.677651136372" lon="17.86778759271">
        <ele>0</ele>
        <time>2017-10-18T19:15:48Z</time>
      </trkpt>
      <trkpt lat="62.677688603465" lon="17.8676627024">
        <ele>0</ele>
        <time>2017-10-18T19:15:49Z</time>
      </trkpt>
      <trkpt lat="62.677726238196" lon="17.867549882026">
        <ele>0</ele>
        <time>2017-10-18T19:15:50Z</time>
      </trkpt>
      <trkpt lat="62.677764962574" lon="17.867441755516">
        <ele>0</ele>
        <time>2017-10-18T19:15:51Z</time>
      </trkpt>
      <trkpt lat="62.67780217821" lon="17.867342094725">
        <ele>0</ele>
        <time>2017-10-18T19:15:52Z</time>
      </trkpt>
      <trkpt lat="62.677844674443" lon="17.867240003183">
        <ele>0</ele>
        <time>2017-10-18T19:15:53Z</time>
      </trkpt>
      <trkpt lat="62.677890774893" lon="17.867133553053">
        <ele>0.2</ele>
        <time>2017-10-18T19:15:54Z</time>
      </trkpt>
      <trkpt lat="62.677933438764" lon="17.867030120407">
        <ele>0.4</ele>
        <time>2017-10-18T19:15:55Z</time>
      </trkpt>
      <trkpt lat="62.677966882545" lon="17.866951498185">
        <ele>0.6</ele>
        <time>2017-10-18T19:15:56Z</time>
      </trkpt>
      <trkpt lat="62.678019939972" lon="17.866829038626">
        <ele>0.4</ele>
        <time>2017-10-18T19:15:57Z</time>
      </trkpt>
      <trkpt lat="62.678058077617" lon="17.866732898233">
        <ele>0.4</ele>
        <time>2017-10-18T19:15:58Z</time>
      </trkpt>
      <trkpt lat="62.67810895575" lon="17.866609516665">
        <ele>0.4</ele>
        <time>2017-10-18T19:15:59Z</time>
      </trkpt>
      <trkpt lat="62.678154637105" lon="17.866500887241">
        <ele>0.6</ele>
        <time>2017-10-18T19:16:00Z</time>
      </trkpt>
      <trkpt lat="62.678198306804" lon="17.866390497618">
        <ele>0.4</ele>
        <time>2017-10-18T19:16:01Z</time>
      </trkpt>
      <trkpt lat="62.678237869372" lon="17.866285472411">
        <ele>0.4</ele>
        <time>2017-10-18T19:16:02Z</time>
      </trkpt>
      <trkpt lat="62.67828246108" lon="17.866175418064">
        <ele>0.2</ele>
        <time>2017-10-18T19:16:03Z</time>
      </trkpt>
      <trkpt lat="62.678330573186" lon="17.866072153056">
        <ele>0.2</ele>
        <time>2017-10-18T19:16:04Z</time>
      </trkpt>
      <trkpt lat="62.678385139355" lon="17.865957907759">
        <ele>0</ele>
        <time>2017-10-18T19:16:05Z</time>
      </trkpt>
      <trkpt lat="62.678436939497" lon="17.865844752109">
        <ele>0</ele>
        <time>2017-10-18T19:16:06Z</time>
      </trkpt>
      <trkpt lat="62.678491338028" lon="17.865727908423">
        <ele>0</ele>
        <time>2017-10-18T19:16:07Z</time>
      </trkpt>
      <trkpt lat="62.678543305808" lon="17.865617686438">
        <ele>0</ele>
        <time>2017-10-18T19:16:08Z</time>
      </trkpt>
      <trkpt lat="62.678599548357" lon="17.865488186083">
        <ele>0</ele>
        <time>2017-10-18T19:16:09Z</time>
      </trkpt>
      <trkpt lat="62.678648079558" lon="17.865370839483">
        <ele>0</ele>
        <time>2017-10-18T19:16:10Z</time>
      </trkpt>
      <trkpt lat="62.678705076478" lon="17.865240836214">
        <ele>0</ele>
        <time>2017-10-18T19:16:11Z</time>
      </trkpt>
      <trkpt lat="62.678759558828" lon="17.865121226501">
        <ele>0</ele>
        <time>2017-10-18T19:16:12Z</time>
      </trkpt>
      <trkpt lat="62.678810772237" lon="17.865008573765">
        <ele>0</ele>
        <time>2017-10-18T19:16:13Z</time>
      </trkpt>
      <trkpt lat="62.678867852976" lon="17.864881923256">
        <ele>0</ele>
        <time>2017-10-18T19:16:14Z</time>
      </trkpt>
      <trkpt lat="62.678920826584" lon="17.864763319371">
        <ele>0</ele>
        <time>2017-10-18T19:16:15Z</time>
      </trkpt>
      <trkpt lat="62.678972710545" lon="17.86464605659">
        <ele>0</ele>
        <time>2017-10-18T19:16:16Z</time>
      </trkpt>
      <trkpt lat="62.679025600334" lon="17.864522675022">
        <ele>0</ele>
        <time>2017-10-18T19:16:17Z</time>
      </trkpt>
      <trkpt lat="62.679077987209" lon="17.864400047825">
        <ele>0</ele>
        <time>2017-10-18T19:16:18Z</time>
      </trkpt>
      <trkpt lat="62.679132972473" lon="17.864275073696">
        <ele>0</ele>
        <time>2017-10-18T19:16:19Z</time>
      </trkpt>
      <trkpt lat="62.679184437339" lon="17.864156972725">
        <ele>0</ele>
        <time>2017-10-18T19:16:20Z</time>
      </trkpt>
      <trkpt lat="62.679235064015" lon="17.864039626125">
        <ele>0</ele>
        <time>2017-10-18T19:16:21Z</time>
      </trkpt>
      <trkpt lat="62.679281332103" lon="17.863930074692">
        <ele>0</ele>
        <time>2017-10-18T19:16:22Z</time>
      </trkpt>
      <trkpt lat="62.679332294055" lon="17.863810297341">
        <ele>0</ele>
        <time>2017-10-18T19:16:23Z</time>
      </trkpt>
      <trkpt lat="62.679386022034" lon="17.863688675972">
        <ele>0</ele>
        <time>2017-10-18T19:16:24Z</time>
      </trkpt>
      <trkpt lat="62.679436564891" lon="17.863576023236">
        <ele>0</ele>
        <time>2017-10-18T19:16:25Z</time>
      </trkpt>
      <trkpt lat="62.679485850463" lon="17.863464124871">
        <ele>0</ele>
        <time>2017-10-18T19:16:26Z</time>
      </trkpt>
      <trkpt lat="62.679532621465" lon="17.86335356761">
        <ele>0</ele>
        <time>2017-10-18T19:16:27Z</time>
      </trkpt>
      <trkpt lat="62.67957243549" lon="17.86325633757">
        <ele>0</ele>
        <time>2017-10-18T19:16:28Z</time>
      </trkpt>
      <trkpt lat="62.679621721062" lon="17.863138739513">
        <ele>0</ele>
        <time>2017-10-18T19:16:29Z</time>
      </trkpt>
      <trkpt lat="62.679664468752" lon="17.863040168369">
        <ele>0</ele>
        <time>2017-10-18T19:16:30Z</time>
      </trkpt>
      <trkpt lat="62.679705037148" lon="17.862942770691">
        <ele>0</ele>
        <time>2017-10-18T19:16:31Z</time>
      </trkpt>
      <trkpt lat="62.679740576404" lon="17.862856101845">
        <ele>0</ele>
        <time>2017-10-18T19:16:32Z</time>
      </trkpt>
      <trkpt lat="62.679779300782" lon="17.862770355008">
        <ele>0.2</ele>
        <time>2017-10-18T19:16:33Z</time>
      </trkpt>
      <trkpt lat="62.679815259133" lon="17.862690224044">
        <ele>0.6</ele>
        <time>2017-10-18T19:16:34Z</time>
      </trkpt>
      <trkpt lat="62.679851468941" lon="17.86260506394">
        <ele>1</ele>
        <time>2017-10-18T19:16:35Z</time>
      </trkpt>
      <trkpt lat="62.679884996541" lon="17.862526860813">
        <ele>1.2</ele>
        <time>2017-10-18T19:16:36Z</time>
      </trkpt>
      <trkpt lat="62.679918021227" lon="17.862454692654">
        <ele>1.6</ele>
        <time>2017-10-18T19:16:37Z</time>
      </trkpt>
      <trkpt lat="62.679947441696" lon="17.862386883083">
        <ele>1.8</ele>
        <time>2017-10-18T19:16:38Z</time>
      </trkpt>
      <trkpt lat="62.679978790002" lon="17.862314463467">
        <ele>2</ele>
        <time>2017-10-18T19:16:39Z</time>
      </trkpt>
      <trkpt lat="62.680007204643" lon="17.862251263941">
        <ele>2.4</ele>
        <time>2017-10-18T19:16:40Z</time>
      </trkpt>
      <trkpt lat="62.680037211845" lon="17.862176329755">
        <ele>2.6</ele>
        <time>2017-10-18T19:16:41Z</time>
      </trkpt>
      <trkpt lat="62.68006445302" lon="17.862106005614">
        <ele>3</ele>
        <time>2017-10-18T19:16:42Z</time>
      </trkpt>
      <trkpt lat="62.680092532385" lon="17.862044817744">
        <ele>3.2</ele>
        <time>2017-10-18T19:16:43Z</time>
      </trkpt>
      <trkpt lat="62.680124215967" lon="17.861976672897">
        <ele>3.4</ele>
        <time>2017-10-18T19:16:44Z</time>
      </trkpt>
      <trkpt lat="62.680153049703" lon="17.861910791163">
        <ele>3.8</ele>
        <time>2017-10-18T19:16:45Z</time>
      </trkpt>
      <trkpt lat="62.680181464344" lon="17.861847759275">
        <ele>4.2</ele>
        <time>2017-10-18T19:16:46Z</time>
      </trkpt>
      <trkpt lat="62.68021113627" lon="17.861782296636">
        <ele>4.6</ele>
        <time>2017-10-18T19:16:47Z</time>
      </trkpt>
      <trkpt lat="62.680239215635" lon="17.861715828169">
        <ele>5</ele>
        <time>2017-10-18T19:16:48Z</time>
      </trkpt>
      <trkpt lat="62.680269893389" lon="17.861643408553">
        <ele>5.2</ele>
        <time>2017-10-18T19:16:49Z</time>
      </trkpt>
      <trkpt lat="62.680298894763" lon="17.861575012249">
        <ele>5.6</ele>
        <time>2017-10-18T19:16:50Z</time>
      </trkpt>
      <trkpt lat="62.68032848287" lon="17.861504688108">
        <ele>5.8</ele>
        <time>2017-10-18T19:16:51Z</time>
      </trkpt>
      <trkpt lat="62.680355724045" lon="17.861438554917">
        <ele>6</ele>
        <time>2017-10-18T19:16:52Z</time>
      </trkpt>
      <trkpt lat="62.680386569437" lon="17.861363956007">
        <ele>6.2</ele>
        <time>2017-10-18T19:16:53Z</time>
      </trkpt>
      <trkpt lat="62.680419342666" lon="17.861289357097">
        <ele>6.4</ele>
        <time>2017-10-18T19:16:54Z</time>
      </trkpt>
      <trkpt lat="62.680451277705" lon="17.861216434567">
        <ele>6.4</ele>
        <time>2017-10-18T19:16:55Z</time>
      </trkpt>
      <trkpt lat="62.680482877468" lon="17.86114493696">
        <ele>6.6</ele>
        <time>2017-10-18T19:16:56Z</time>
      </trkpt>
      <trkpt lat="62.680514225774" lon="17.861073271715">
        <ele>6.6</ele>
        <time>2017-10-18T19:16:57Z</time>
      </trkpt>
      <trkpt lat="62.680542640415" lon="17.861009401637">
        <ele>6.6</ele>
        <time>2017-10-18T19:16:58Z</time>
      </trkpt>
      <trkpt lat="62.680579856051" lon="17.86092700756">
        <ele>6.8</ele>
        <time>2017-10-18T19:16:59Z</time>
      </trkpt>
      <trkpt lat="62.680612461642" lon="17.860852324831">
        <ele>6.8</ele>
        <time>2017-10-18T19:17:00Z</time>
      </trkpt>
      <trkpt lat="62.680644312862" lon="17.860773534971">
        <ele>6.8</ele>
        <time>2017-10-18T19:17:01Z</time>
      </trkpt>
      <trkpt lat="62.680674403883" lon="17.860696672948">
        <ele>6.8</ele>
        <time>2017-10-18T19:17:02Z</time>
      </trkpt>
      <trkpt lat="62.680708350578" lon="17.860615703794">
        <ele>7</ele>
        <time>2017-10-18T19:17:03Z</time>
      </trkpt>
      <trkpt lat="62.680742464911" lon="17.860533644993">
        <ele>7</ele>
        <time>2017-10-18T19:17:04Z</time>
      </trkpt>
      <trkpt lat="62.68077942909" lon="17.860443874844">
        <ele>7</ele>
        <time>2017-10-18T19:17:05Z</time>
      </trkpt>
      <trkpt lat="62.680814549251" lon="17.860356032532">
        <ele>7</ele>
        <time>2017-10-18T19:17:06Z</time>
      </trkpt>
      <trkpt lat="62.680850339964" lon="17.860267854944">
        <ele>7</ele>
        <time>2017-10-18T19:17:07Z</time>
      </trkpt>
      <trkpt lat="62.680886298315" lon="17.860182191926">
        <ele>7</ele>
        <time>2017-10-18T19:17:08Z</time>
      </trkpt>
      <trkpt lat="62.680927537263" lon="17.860086889723">
        <ele>7</ele>
        <time>2017-10-18T19:17:09Z</time>
      </trkpt>
      <trkpt lat="62.680964585261" lon="17.859996365203">
        <ele>7</ele>
        <time>2017-10-18T19:17:10Z</time>
      </trkpt>
      <trkpt lat="62.681005991847" lon="17.859892513462">
        <ele>6.8</ele>
        <time>2017-10-18T19:17:11Z</time>
      </trkpt>
      <trkpt lat="62.681044967682" lon="17.859790757196">
        <ele>6.8</ele>
        <time>2017-10-18T19:17:12Z</time>
      </trkpt>
      <trkpt lat="62.681082686232" lon="17.85969486826">
        <ele>6.6</ele>
        <time>2017-10-18T19:17:13Z</time>
      </trkpt>
      <trkpt lat="62.681127445578" lon="17.859588334311">
        <ele>6.6</ele>
        <time>2017-10-18T19:17:14Z</time>
      </trkpt>
      <trkpt lat="62.681170612363" lon="17.859486913321">
        <ele>6.6</ele>
        <time>2017-10-18T19:17:15Z</time>
      </trkpt>
      <trkpt lat="62.681210845483" lon="17.859391778756">
        <ele>6.4</ele>
        <time>2017-10-18T19:17:16Z</time>
      </trkpt>
      <trkpt lat="62.681254347544" lon="17.859289519576">
        <ele>6.4</ele>
        <time>2017-10-18T19:17:17Z</time>
      </trkpt>
      <trkpt lat="62.681298017243" lon="17.85918692512">
        <ele>6.4</ele>
        <time>2017-10-18T19:17:18Z</time>
      </trkpt>
      <trkpt lat="62.681344704426" lon="17.859076367859">
        <ele>6.2</ele>
        <time>2017-10-18T19:17:19Z</time>
      </trkpt>
      <trkpt lat="62.681387871211" lon="17.858975785059">
        <ele>6.2</ele>
        <time>2017-10-18T19:17:20Z</time>
      </trkpt>
      <trkpt lat="62.681431373272" lon="17.858871933318">
        <ele>6.2</ele>
        <time>2017-10-18T19:17:21Z</time>
      </trkpt>
      <trkpt lat="62.681468924184" lon="17.858775290011">
        <ele>6.2</ele>
        <time>2017-10-18T19:17:22Z</time>
      </trkpt>
      <trkpt lat="62.681507983838" lon="17.858668756062">
        <ele>6.2</ele>
        <time>2017-10-18T19:17:23Z</time>
      </trkpt>
      <trkpt lat="62.681549138967" lon="17.858560126638">
        <ele>6.2</ele>
        <time>2017-10-18T19:17:24Z</time>
      </trkpt>
      <trkpt lat="62.68159079701" lon="17.858458370372">
        <ele>6.4</ele>
        <time>2017-10-18T19:17:25Z</time>
      </trkpt>
      <trkpt lat="62.681632622691" lon="17.858361224151">
        <ele>6.4</ele>
        <time>2017-10-18T19:17:26Z</time>
      </trkpt>
      <trkpt lat="62.681672185259" lon="17.858261814817">
        <ele>6.4</ele>
        <time>2017-10-18T19:17:27Z</time>
      </trkpt>
      <trkpt lat="62.681705545221" lon="17.858171960849">
        <ele>6.4</ele>
        <time>2017-10-18T19:17:28Z</time>
      </trkpt>
      <trkpt lat="62.681747789997" lon="17.858061738864">
        <ele>6.4</ele>
        <time>2017-10-18T19:17:29Z</time>
      </trkpt>
      <trkpt lat="62.681787687841" lon="17.857959060589">
        <ele>6.4</ele>
        <time>2017-10-18T19:17:30Z</time>
      </trkpt>
      <trkpt lat="62.681824987296" lon="17.857856885228">
        <ele>6.6</ele>
        <time>2017-10-18T19:17:31Z</time>
      </trkpt>
      <trkpt lat="62.681858598715" lon="17.85775445841">
        <ele>6.6</ele>
        <time>2017-10-18T19:17:32Z</time>
      </trkpt>
      <trkpt lat="62.681894054152" lon="17.857640380751">
        <ele>6.6</ele>
        <time>2017-10-18T19:17:33Z</time>
      </trkpt>
      <trkpt lat="62.681927833209" lon="17.857524878169">
        <ele>6.6</ele>
        <time>2017-10-18T19:17:34Z</time>
      </trkpt>
      <trkpt lat="62.681962785732" lon="17.857389761941">
        <ele>6.6</ele>
        <time>2017-10-18T19:17:35Z</time>
      </trkpt>
      <trkpt lat="62.68199312821" lon="17.857255567722">
        <ele>6.6</ele>
        <time>2017-10-18T19:17:36Z</time>
      </trkpt>
      <trkpt lat="62.682020956118" lon="17.857117266372">
        <ele>6.4</ele>
        <time>2017-10-18T19:17:37Z</time>
      </trkpt>
      <trkpt lat="62.682046101818" lon="17.856980138488">
        <ele>6.4</ele>
        <time>2017-10-18T19:17:38Z</time>
      </trkpt>
      <trkpt lat="62.682069487319" lon="17.856827839365">
        <ele>6.2</ele>
        <time>2017-10-18T19:17:39Z</time>
      </trkpt>
      <trkpt lat="62.682088430413" lon="17.856674618233">
        <ele>6</ele>
        <time>2017-10-18T19:17:40Z</time>
      </trkpt>
      <trkpt lat="62.682106619136" lon="17.856498179238">
        <ele>5.8</ele>
        <time>2017-10-18T19:17:41Z</time>
      </trkpt>
      <trkpt lat="62.68212304766" lon="17.856326266469">
        <ele>5.6</ele>
        <time>2017-10-18T19:17:42Z</time>
      </trkpt>
      <trkpt lat="62.682138805632" lon="17.856161143039">
        <ele>5.4</ele>
        <time>2017-10-18T19:17:43Z</time>
      </trkpt>
      <trkpt lat="62.682155485613" lon="17.855974394307">
        <ele>5.2</ele>
        <time>2017-10-18T19:17:44Z</time>
      </trkpt>
      <trkpt lat="62.682170740671" lon="17.855790076326">
        <ele>5</ele>
        <time>2017-10-18T19:17:45Z</time>
      </trkpt>
      <trkpt lat="62.682183481159" lon="17.8556179121">
        <ele>4.8</ele>
        <time>2017-10-18T19:17:46Z</time>
      </trkpt>
      <trkpt lat="62.682196640742" lon="17.855432420653">
        <ele>4.4</ele>
        <time>2017-10-18T19:17:47Z</time>
      </trkpt>
      <trkpt lat="62.682210554696" lon="17.855241480971">
        <ele>4</ele>
        <time>2017-10-18T19:17:48Z</time>
      </trkpt>
      <trkpt lat="62.68222530684" lon="17.855042662303">
        <ele>3.6</ele>
        <time>2017-10-18T19:17:49Z</time>
      </trkpt>
      <trkpt lat="62.682237795871" lon="17.854848956594">
        <ele>3</ele>
        <time>2017-10-18T19:17:50Z</time>
      </trkpt>
      <trkpt lat="62.682246429228" lon="17.854656172894">
        <ele>2</ele>
        <time>2017-10-18T19:17:51Z</time>
      </trkpt>
      <trkpt lat="62.682250368721" lon="17.854471771094">
        <ele>1.2</ele>
        <time>2017-10-18T19:17:52Z</time>
      </trkpt>
      <trkpt lat="62.682249279074" lon="17.854272281874">
        <ele>0.4</ele>
        <time>2017-10-18T19:17:53Z</time>
      </trkpt>
      <trkpt lat="62.682243579382" lon="17.854064662211">
        <ele>0</ele>
        <time>2017-10-18T19:17:54Z</time>
      </trkpt>
      <trkpt lat="62.682235281301" lon="17.853859892394">
        <ele>0</ele>
        <time>2017-10-18T19:17:55Z</time>
      </trkpt>
      <trkpt lat="62.682222540813" lon="17.853656044586">
        <ele>0</ele>
        <time>2017-10-18T19:17:56Z</time>
      </trkpt>
      <trkpt lat="62.682206531384" lon="17.853452196778">
        <ele>0</ele>
        <time>2017-10-18T19:17:57Z</time>
      </trkpt>
      <trkpt lat="62.682190605774" lon="17.85327768562">
        <ele>0</ele>
        <time>2017-10-18T19:17:58Z</time>
      </trkpt>
      <trkpt lat="62.682168477558" lon="17.853066294102">
        <ele>0</ele>
        <time>2017-10-18T19:17:59Z</time>
      </trkpt>
      <trkpt lat="62.682147019894" lon="17.8528854127">
        <ele>0</ele>
        <time>2017-10-18T19:18:00Z</time>
      </trkpt>
      <trkpt lat="62.682126987153" lon="17.852712577922">
        <ele>0</ele>
        <time>2017-10-18T19:18:01Z</time>
      </trkpt>
      <trkpt lat="62.682108295516" lon="17.852559272971">
        <ele>0</ele>
        <time>2017-10-18T19:18:02Z</time>
      </trkpt>
      <trkpt lat="62.682089100965" lon="17.852402279984">
        <ele>0</ele>
        <time>2017-10-18T19:18:03Z</time>
      </trkpt>
      <trkpt lat="62.682072001889" lon="17.852256267286">
        <ele>0</ele>
        <time>2017-10-18T19:18:04Z</time>
      </trkpt>
      <trkpt lat="62.682051298596" lon="17.852115032271">
        <ele>0</ele>
        <time>2017-10-18T19:18:05Z</time>
      </trkpt>
      <trkpt lat="62.682024057421" lon="17.851992991807">
        <ele>0</ele>
        <time>2017-10-18T19:18:06Z</time>
      </trkpt>
      <trkpt lat="62.681988434346" lon="17.851889391523">
        <ele>0</ele>
        <time>2017-10-18T19:18:07Z</time>
      </trkpt>
      <trkpt lat="62.681946021932" lon="17.851816301355">
        <ele>0</ele>
        <time>2017-10-18T19:18:08Z</time>
      </trkpt>
      <trkpt lat="62.681891539582" lon="17.851774391855">
        <ele>0</ele>
        <time>2017-10-18T19:18:09Z</time>
      </trkpt>
      <trkpt lat="62.681839404164" lon="17.851763579204">
        <ele>0</ele>
        <time>2017-10-18T19:18:10Z</time>
      </trkpt>
      <trkpt lat="62.681781820511" lon="17.851761651367">
        <ele>0</ele>
        <time>2017-10-18T19:18:11Z</time>
      </trkpt>
      <trkpt lat="62.681728427808" lon="17.851762573376">
        <ele>0</ele>
        <time>2017-10-18T19:18:12Z</time>
      </trkpt>
      <trkpt lat="62.681676711485" lon="17.851765171765">
        <ele>0</ele>
        <time>2017-10-18T19:18:13Z</time>
      </trkpt>
      <trkpt lat="62.681621055669" lon="17.851763327747">
        <ele>0</ele>
        <time>2017-10-18T19:18:14Z</time>
      </trkpt>
      <trkpt lat="62.681569339346" lon="17.851752515096">
        <ele>0</ele>
        <time>2017-10-18T19:18:15Z</time>
      </trkpt>
      <trkpt lat="62.68152122724" lon="17.851736757124">
        <ele>0</ele>
        <time>2017-10-18T19:18:16Z</time>
      </trkpt>
      <trkpt lat="62.681472276944" lon="17.851709096854">
        <ele>0</ele>
        <time>2017-10-18T19:18:17Z</time>
      </trkpt>
      <trkpt lat="62.681426847046" lon="17.85166919901">
        <ele>0</ele>
        <time>2017-10-18T19:18:18Z</time>
      </trkpt>
      <trkpt lat="62.681380662777" lon="17.851627121872">
        <ele>0</ele>
        <time>2017-10-18T19:18:19Z</time>
      </trkpt>
      <trkpt lat="62.681338753277" lon="17.851582697802">
        <ele>0</ele>
        <time>2017-10-18T19:18:20Z</time>
      </trkpt>
      <trkpt lat="62.681299358347" lon="17.85153425042">
        <ele>0</ele>
        <time>2017-10-18T19:18:21Z</time>
      </trkpt>
      <trkpt lat="62.681263651453" lon="17.851483204649">
        <ele>0</ele>
        <time>2017-10-18T19:18:22Z</time>
      </trkpt>
      <trkpt lat="62.681229956215" lon="17.851421010951">
        <ele>0</ele>
        <time>2017-10-18T19:18:23Z</time>
      </trkpt>
      <trkpt lat="62.681197602081" lon="17.851356386502">
        <ele>0</ele>
        <time>2017-10-18T19:18:24Z</time>
      </trkpt>
      <trkpt lat="62.681164912671" lon="17.851303077618">
        <ele>0</ele>
        <time>2017-10-18T19:18:25Z</time>
      </trkpt>
      <trkpt lat="62.681131804166" lon="17.851258066815">
        <ele>0</ele>
        <time>2017-10-18T19:18:26Z</time>
      </trkpt>
      <trkpt lat="62.68109877948" lon="17.851207943053">
        <ele>0</ele>
        <time>2017-10-18T19:18:27Z</time>
      </trkpt>
      <trkpt lat="62.681074304332" lon="17.851154131255">
        <ele>0</ele>
        <time>2017-10-18T19:18:28Z</time>
      </trkpt>
      <trkpt lat="62.681051924659" lon="17.851074587024">
        <ele>0</ele>
        <time>2017-10-18T19:18:29Z</time>
      </trkpt>
      <trkpt lat="62.681041363465" lon="17.8509994852">
        <ele>0</ele>
        <time>2017-10-18T19:18:30Z</time>
      </trkpt>
      <trkpt lat="62.681033484479" lon="17.850925305385">
        <ele>0</ele>
        <time>2017-10-18T19:18:31Z</time>
      </trkpt>
      <trkpt lat="62.681024348208" lon="17.850862776411">
        <ele>0</ele>
        <time>2017-10-18T19:18:32Z</time>
      </trkpt>
      <trkpt lat="62.681008003503" lon="17.850818519979">
        <ele>0</ele>
        <time>2017-10-18T19:18:33Z</time>
      </trkpt>
      <trkpt lat="62.680989144228" lon="17.850814412848">
        <ele>0</ele>
        <time>2017-10-18T19:18:34Z</time>
      </trkpt>
      <trkpt lat="62.680973637713" lon="17.850844336231">
        <ele>0</ele>
        <time>2017-10-18T19:18:35Z</time>
      </trkpt>
      <trkpt lat="62.680959388483" lon="17.850880629858">
        <ele>0</ele>
        <time>2017-10-18T19:18:36Z</time>
      </trkpt>
      <trkpt lat="62.680939355742" lon="17.850892699794">
        <ele>0</ele>
        <time>2017-10-18T19:18:37Z</time>
      </trkpt>
      <trkpt lat="62.680919658277" lon="17.850875768356">
        <ele>0</ele>
        <time>2017-10-18T19:18:38Z</time>
      </trkpt>
      <trkpt lat="62.680901385735" lon="17.850837295435">
        <ele>0</ele>
        <time>2017-10-18T19:18:39Z</time>
      </trkpt>
      <trkpt lat="62.680887639419" lon="17.850800247437">
        <ele>0</ele>
        <time>2017-10-18T19:18:40Z</time>
      </trkpt>
      <trkpt lat="62.680871546171" lon="17.850752135331">
        <ele>0</ele>
        <time>2017-10-18T19:18:41Z</time>
      </trkpt>
      <trkpt lat="62.680855452923" lon="17.850703185035">
        <ele>0</ele>
        <time>2017-10-18T19:18:42Z</time>
      </trkpt>
      <trkpt lat="62.680837850933" lon="17.850660437345">
        <ele>0</ele>
        <time>2017-10-18T19:18:43Z</time>
      </trkpt>
      <trkpt lat="62.680813878699" lon="17.850618360207">
        <ele>0</ele>
        <time>2017-10-18T19:18:44Z</time>
      </trkpt>
      <trkpt lat="62.680792169578" lon="17.8505636264">
        <ele>0</ele>
        <time>2017-10-18T19:18:45Z</time>
      </trkpt>
      <trkpt lat="62.680777585072" lon="17.850501851797">
        <ele>0</ele>
        <time>2017-10-18T19:18:46Z</time>
      </trkpt>
      <trkpt lat="62.680759983082" lon="17.850434042226">
        <ele>0</ele>
        <time>2017-10-18T19:18:47Z</time>
      </trkpt>
      <trkpt lat="62.680735675572" lon="17.850371848528">
        <ele>0</ele>
        <time>2017-10-18T19:18:48Z</time>
      </trkpt>
      <trkpt lat="62.68070566837" lon="17.850313091409">
        <ele>0</ele>
        <time>2017-10-18T19:18:49Z</time>
      </trkpt>
      <trkpt lat="62.680673984788" lon="17.850260704534">
        <ele>0</ele>
        <time>2017-10-18T19:18:50Z</time>
      </trkpt>
      <trkpt lat="62.680641295378" lon="17.85021326298">
        <ele>0</ele>
        <time>2017-10-18T19:18:51Z</time>
      </trkpt>
      <trkpt lat="62.680611623452" lon="17.850168168358">
        <ele>0</ele>
        <time>2017-10-18T19:18:52Z</time>
      </trkpt>
      <trkpt lat="62.680580275146" lon="17.850118296053">
        <ele>0</ele>
        <time>2017-10-18T19:18:53Z</time>
      </trkpt>
      <trkpt lat="62.680548172469" lon="17.850067837015">
        <ele>0</ele>
        <time>2017-10-18T19:18:54Z</time>
      </trkpt>
      <trkpt lat="62.680516321249" lon="17.850020395461">
        <ele>0</ele>
        <time>2017-10-18T19:18:55Z</time>
      </trkpt>
      <trkpt lat="62.680485559676" lon="17.849975719934">
        <ele>0</ele>
        <time>2017-10-18T19:18:56Z</time>
      </trkpt>
      <trkpt lat="62.680463096184" lon="17.849940683592">
        <ele>0</ele>
        <time>2017-10-18T19:18:57Z</time>
      </trkpt>
      <trkpt lat="62.680435268276" lon="17.849894080228">
        <ele>0</ele>
        <time>2017-10-18T19:18:58Z</time>
      </trkpt>
      <trkpt lat="62.680408027101" lon="17.84985703223">
        <ele>0</ele>
        <time>2017-10-18T19:18:59Z</time>
      </trkpt>
      <trkpt lat="62.680382462306" lon="17.84983943024">
        <ele>0</ele>
        <time>2017-10-18T19:19:00Z</time>
      </trkpt>
      <trkpt lat="62.68035530495" lon="17.849819984232">
        <ele>0</ele>
        <time>2017-10-18T19:19:01Z</time>
      </trkpt>
      <trkpt lat="62.680330410707" lon="17.849794754713">
        <ele>0</ele>
        <time>2017-10-18T19:19:02Z</time>
      </trkpt>
      <trkpt lat="62.680303840084" lon="17.849764747511">
        <ele>0</ele>
        <time>2017-10-18T19:19:03Z</time>
      </trkpt>
      <trkpt lat="62.680277688556" lon="17.849733566843">
        <ele>0</ele>
        <time>2017-10-18T19:19:04Z</time>
      </trkpt>
      <trkpt lat="62.680249944467" lon="17.849694674827">
        <ele>0</ele>
        <time>2017-10-18T19:19:05Z</time>
      </trkpt>
      <trkpt lat="62.680225134043" lon="17.849657626829">
        <ele>0</ele>
        <time>2017-10-18T19:19:06Z</time>
      </trkpt>
      <trkpt lat="62.680199569248" lon="17.849626362342">
        <ele>0</ele>
        <time>2017-10-18T19:19:07Z</time>
      </trkpt>
      <trkpt lat="62.680174507367" lon="17.849605407592">
        <ele>0</ele>
        <time>2017-10-18T19:19:08Z</time>
      </trkpt>
      <trkpt lat="62.680146428002" lon="17.849583949928">
        <ele>0</ele>
        <time>2017-10-18T19:19:09Z</time>
      </trkpt>
      <trkpt lat="62.680120695569" lon="17.849563749549">
        <ele>0</ele>
        <time>2017-10-18T19:19:10Z</time>
      </trkpt>
      <trkpt lat="62.680091526557" lon="17.849539777315">
        <ele>0</ele>
        <time>2017-10-18T19:19:11Z</time>
      </trkpt>
      <trkpt lat="62.680063866287" lon="17.849517146185">
        <ele>0</ele>
        <time>2017-10-18T19:19:12Z</time>
      </trkpt>
      <trkpt lat="62.680038301492" lon="17.849495101788">
        <ele>0</ele>
        <time>2017-10-18T19:19:13Z</time>
      </trkpt>
      <trkpt lat="62.68001332343" lon="17.849460400722">
        <ele>0</ele>
        <time>2017-10-18T19:19:14Z</time>
      </trkpt>
      <trkpt lat="62.679996308173" lon="17.849414216453">
        <ele>0</ele>
        <time>2017-10-18T19:19:15Z</time>
      </trkpt>
      <trkpt lat="62.679982897133" lon="17.849369373288">
        <ele>0</ele>
        <time>2017-10-18T19:19:16Z</time>
      </trkpt>
      <trkpt lat="62.679971078654" lon="17.849325871227">
        <ele>0</ele>
        <time>2017-10-18T19:19:17Z</time>
      </trkpt>
      <trkpt lat="62.679956075053" lon="17.849297456586">
        <ele>0</ele>
        <time>2017-10-18T19:19:18Z</time>
      </trkpt>
      <trkpt lat="62.679936880502" lon="17.849295947844">
        <ele>0</ele>
        <time>2017-10-18T19:19:19Z</time>
      </trkpt>
      <trkpt lat="62.679924978204" lon="17.849322853743">
        <ele>0</ele>
        <time>2017-10-18T19:19:20Z</time>
      </trkpt>
      <trkpt lat="62.679924307652" lon="17.849360739931">
        <ele>0</ele>
        <time>2017-10-18T19:19:21Z</time>
      </trkpt>
      <trkpt lat="62.679931935181" lon="17.849388232563">
        <ele>0</ele>
        <time>2017-10-18T19:19:22Z</time>
      </trkpt>
      <trkpt lat="62.679945262402" lon="17.849411701883">
        <ele>0</ele>
        <time>2017-10-18T19:19:23Z</time>
      </trkpt>
      <trkpt lat="62.679957835252" lon="17.849437685773">
        <ele>0</ele>
        <time>2017-10-18T19:19:24Z</time>
      </trkpt>
      <trkpt lat="62.679966468609" lon="17.849468782622">
        <ele>0</ele>
        <time>2017-10-18T19:19:25Z</time>
      </trkpt>
      <trkpt lat="62.679972168301" lon="17.849503232231">
        <ele>0</ele>
        <time>2017-10-18T19:19:26Z</time>
      </trkpt>
      <trkpt lat="62.679977113622" lon="17.84953684365">
        <ele>0</ele>
        <time>2017-10-18T19:19:27Z</time>
      </trkpt>
      <trkpt lat="62.679983819142" lon="17.849562240807">
        <ele>0</ele>
        <time>2017-10-18T19:19:28Z</time>
      </trkpt>
      <trkpt lat="62.679996308173" lon="17.849588643792">
        <ele>0</ele>
        <time>2017-10-18T19:19:29Z</time>
      </trkpt>
      <trkpt lat="62.680010222127" lon="17.849599540262">
        <ele>0</ele>
        <time>2017-10-18T19:19:30Z</time>
      </trkpt>
      <trkpt lat="62.68002254352" lon="17.849587554145">
        <ele>0</ele>
        <time>2017-10-18T19:19:31Z</time>
      </trkpt>
      <trkpt lat="62.680026566832" lon="17.849560899703">
        <ele>0</ele>
        <time>2017-10-18T19:19:32Z</time>
      </trkpt>
      <trkpt lat="62.680020364226" lon="17.849537933297">
        <ele>0</ele>
        <time>2017-10-18T19:19:33Z</time>
      </trkpt>
      <trkpt lat="62.680008210471" lon="17.849527539741">
        <ele>0</ele>
        <time>2017-10-18T19:19:34Z</time>
      </trkpt>
      <trkpt lat="62.679992536318" lon="17.849521923868">
        <ele>0</ele>
        <time>2017-10-18T19:19:35Z</time>
      </trkpt>
      <trkpt lat="62.679979376735" lon="17.849515385986">
        <ele>0</ele>
        <time>2017-10-18T19:19:36Z</time>
      </trkpt>
      <trkpt lat="62.67996722298" lon="17.849504405697">
        <ele>0</ele>
        <time>2017-10-18T19:19:37Z</time>
      </trkpt>
      <trkpt lat="62.679957667614" lon="17.849489318277">
        <ele>0</ele>
        <time>2017-10-18T19:19:38Z</time>
      </trkpt>
      <trkpt lat="62.679947022601" lon="17.849475907237">
        <ele>0</ele>
        <time>2017-10-18T19:19:39Z</time>
      </trkpt>
      <trkpt lat="62.679936377588" lon="17.8494572156">
        <ele>0</ele>
        <time>2017-10-18T19:19:40Z</time>
      </trkpt>
      <trkpt lat="62.679931096991" lon="17.849413462082">
        <ele>0</ele>
        <time>2017-10-18T19:19:41Z</time>
      </trkpt>
      <trkpt lat="62.679936964321" lon="17.849361326664">
        <ele>0</ele>
        <time>2017-10-18T19:19:42Z</time>
      </trkpt>
      <trkpt lat="62.679949369533" lon="17.849298965328">
        <ele>0</ele>
        <time>2017-10-18T19:19:43Z</time>
      </trkpt>
      <trkpt lat="62.679966552428" lon="17.849220762201">
        <ele>0</ele>
        <time>2017-10-18T19:19:44Z</time>
      </trkpt>
      <trkpt lat="62.679980466382" lon="17.849139122495">
        <ele>0</ele>
        <time>2017-10-18T19:19:45Z</time>
      </trkpt>
      <trkpt lat="62.679989770291" lon="17.849056728418">
        <ele>0</ele>
        <time>2017-10-18T19:19:46Z</time>
      </trkpt>
      <trkpt lat="62.679996475811" lon="17.848966706812">
        <ele>0</ele>
        <time>2017-10-18T19:19:47Z</time>
      </trkpt>
      <trkpt lat="62.6799990742" lon="17.84888221726">
        <ele>0</ele>
        <time>2017-10-18T19:19:48Z</time>
      </trkpt>
      <trkpt lat="62.6799990742" lon="17.848799068812">
        <ele>0</ele>
        <time>2017-10-18T19:19:49Z</time>
      </trkpt>
      <trkpt lat="62.680000415304" lon="17.848720781866">
        <ele>0</ele>
        <time>2017-10-18T19:19:50Z</time>
      </trkpt>
      <trkpt lat="62.68000913248" lon="17.848645428585">
        <ele>0</ele>
        <time>2017-10-18T19:19:51Z</time>
      </trkpt>
      <trkpt lat="62.680027907936" lon="17.848585330362">
        <ele>0</ele>
        <time>2017-10-18T19:19:52Z</time>
      </trkpt>
      <trkpt lat="62.68005690931" lon="17.848536547704">
        <ele>0</ele>
        <time>2017-10-18T19:19:53Z</time>
      </trkpt>
      <trkpt lat="62.68009378967" lon="17.848505199398">
        <ele>0</ele>
        <time>2017-10-18T19:19:54Z</time>
      </trkpt>
      <trkpt lat="62.68013150822" lon="17.84848910615">
        <ele>0</ele>
        <time>2017-10-18T19:19:55Z</time>
      </trkpt>
      <trkpt lat="62.680166125467" lon="17.848474354006">
        <ele>0</ele>
        <time>2017-10-18T19:19:56Z</time>
      </trkpt>
      <trkpt lat="62.680200742714" lon="17.848459350405">
        <ele>0</ele>
        <time>2017-10-18T19:19:57Z</time>
      </trkpt>
      <trkpt lat="62.680231420468" lon="17.848449208306">
        <ele>0</ele>
        <time>2017-10-18T19:19:58Z</time>
      </trkpt>
      <trkpt lat="62.680267881733" lon="17.848437725103">
        <ele>0</ele>
        <time>2017-10-18T19:19:59Z</time>
      </trkpt>
      <trkpt lat="62.680299732953" lon="17.848424649339">
        <ele>0</ele>
        <time>2017-10-18T19:20:00Z</time>
      </trkpt>
      <trkpt lat="62.680332003268" lon="17.848410651566">
        <ele>0</ele>
        <time>2017-10-18T19:20:01Z</time>
      </trkpt>
      <trkpt lat="62.680361256099" lon="17.848391205558">
        <ele>0</ele>
        <time>2017-10-18T19:20:02Z</time>
      </trkpt>
      <trkpt lat="62.68039050893" lon="17.848361533632">
        <ele>0</ele>
        <time>2017-10-18T19:20:03Z</time>
      </trkpt>
      <trkpt lat="62.680416660458" lon="17.848320294684">
        <ele>0</ele>
        <time>2017-10-18T19:20:04Z</time>
      </trkpt>
      <trkpt lat="62.680439040131" lon="17.84826530942">
        <ele>0</ele>
        <time>2017-10-18T19:20:05Z</time>
      </trkpt>
      <trkpt lat="62.680454546646" lon="17.848203870093">
        <ele>0</ele>
        <time>2017-10-18T19:20:06Z</time>
      </trkpt>
      <trkpt lat="62.680464940202" lon="17.84813790454">
        <ele>0</ele>
        <time>2017-10-18T19:20:07Z</time>
      </trkpt>
      <trkpt lat="62.680468879695" lon="17.848071268435">
        <ele>0</ele>
        <time>2017-10-18T19:20:08Z</time>
      </trkpt>
      <trkpt lat="62.680464353469" lon="17.847998513543">
        <ele>0</ele>
        <time>2017-10-18T19:20:09Z</time>
      </trkpt>
      <trkpt lat="62.680452283533" lon="17.84793673894">
        <ele>0</ele>
        <time>2017-10-18T19:20:10Z</time>
      </trkpt>
      <trkpt lat="62.680430155317" lon="17.847874545242">
        <ele>0</ele>
        <time>2017-10-18T19:20:11Z</time>
      </trkpt>
      <trkpt lat="62.680403500875" lon="17.847828696249">
        <ele>0</ele>
        <time>2017-10-18T19:20:12Z</time>
      </trkpt>
      <trkpt lat="62.680375337691" lon="17.847795839201">
        <ele>0</ele>
        <time>2017-10-18T19:20:13Z</time>
      </trkpt>
      <trkpt lat="62.68034189391" lon="17.847765245266">
        <ele>0.2</ele>
        <time>2017-10-18T19:20:14Z</time>
      </trkpt>
      <trkpt lat="62.680309707414" lon="17.847736746806">
        <ele>0.2</ele>
        <time>2017-10-18T19:20:15Z</time>
      </trkpt>
      <trkpt lat="62.68027819147" lon="17.847713696581">
        <ele>0.4</ele>
        <time>2017-10-18T19:20:16Z</time>
      </trkpt>
      <trkpt lat="62.680242819852" lon="17.84769282565">
        <ele>0.6</ele>
        <time>2017-10-18T19:20:17Z</time>
      </trkpt>
      <trkpt lat="62.680207112958" lon="17.847673128185">
        <ele>0.8</ele>
        <time>2017-10-18T19:20:18Z</time>
      </trkpt>
      <trkpt lat="62.680169310589" lon="17.847650329417">
        <ele>1</ele>
        <time>2017-10-18T19:20:19Z</time>
      </trkpt>
      <trkpt lat="62.680133352238" lon="17.847624764622">
        <ele>1</ele>
        <time>2017-10-18T19:20:20Z</time>
      </trkpt>
      <trkpt lat="62.680098148258" lon="17.847596936714">
        <ele>1.4</ele>
        <time>2017-10-18T19:20:21Z</time>
      </trkpt>
      <trkpt lat="62.680064704477" lon="17.847571204281">
        <ele>1.6</ele>
        <time>2017-10-18T19:20:22Z</time>
      </trkpt>
      <trkpt lat="62.680030003411" lon="17.847544214563">
        <ele>2</ele>
        <time>2017-10-18T19:20:23Z</time>
      </trkpt>
      <trkpt lat="62.679992201042" lon="17.847516302836">
        <ele>2.4</ele>
        <time>2017-10-18T19:20:24Z</time>
      </trkpt>
      <trkpt lat="62.6799571647" lon="17.847486379453">
        <ele>2.8</ele>
        <time>2017-10-18T19:20:25Z</time>
      </trkpt>
      <trkpt lat="62.679922463634" lon="17.847455366423">
        <ele>3</ele>
        <time>2017-10-18T19:20:26Z</time>
      </trkpt>
      <trkpt lat="62.679888265482" lon="17.847423012289">
        <ele>3.4</ele>
        <time>2017-10-18T19:20:27Z</time>
      </trkpt>
      <trkpt lat="62.679859767022" lon="17.847394681467">
        <ele>3.4</ele>
        <time>2017-10-18T19:20:28Z</time>
      </trkpt>
      <trkpt lat="62.679822886662" lon="17.847358723116">
        <ele>3.6</ele>
        <time>2017-10-18T19:20:29Z</time>
      </trkpt>
      <trkpt lat="62.67979204127" lon="17.847326201344">
        <ele>4</ele>
        <time>2017-10-18T19:20:30Z</time>
      </trkpt>
      <trkpt lat="62.679761363516" lon="17.847292087011">
        <ele>4.2</ele>
        <time>2017-10-18T19:20:31Z</time>
      </trkpt>
      <trkpt lat="62.679733954703" lon="17.847260068153">
        <ele>4.4</ele>
        <time>2017-10-18T19:20:32Z</time>
      </trkpt>
      <trkpt lat="62.679704450415" lon="17.847226875829">
        <ele>4.6</ele>
        <time>2017-10-18T19:20:33Z</time>
      </trkpt>
      <trkpt lat="62.679675616679" lon="17.847191168935">
        <ele>4.6</ele>
        <time>2017-10-18T19:20:34Z</time>
      </trkpt>
      <trkpt lat="62.67964619621" lon="17.847150935815">
        <ele>4.8</ele>
        <time>2017-10-18T19:20:35Z</time>
      </trkpt>
      <trkpt lat="62.679618703578" lon="17.847113049627">
        <ele>5</ele>
        <time>2017-10-18T19:20:36Z</time>
      </trkpt>
      <trkpt lat="62.679591043308" lon="17.847074660525">
        <ele>5.2</ele>
        <time>2017-10-18T19:20:37Z</time>
      </trkpt>
      <trkpt lat="62.679565813789" lon="17.847037193432">
        <ele>5.4</ele>
        <time>2017-10-18T19:20:38Z</time>
      </trkpt>
      <trkpt lat="62.679537147691" lon="17.846995535389">
        <ele>5.4</ele>
        <time>2017-10-18T19:20:39Z</time>
      </trkpt>
      <trkpt lat="62.679510996163" lon="17.846953122975">
        <ele>5.8</ele>
        <time>2017-10-18T19:20:40Z</time>
      </trkpt>
      <trkpt lat="62.679483084436" lon="17.846902328661">
        <ele>6.2</ele>
        <time>2017-10-18T19:20:41Z</time>
      </trkpt>
      <trkpt lat="62.679456010899" lon="17.84685212108">
        <ele>6.4</ele>
        <time>2017-10-18T19:20:42Z</time>
      </trkpt>
      <trkpt lat="62.679430613742" lon="17.846805685354">
        <ele>6.6</ele>
        <time>2017-10-18T19:20:43Z</time>
      </trkpt>
      <trkpt lat="62.679400774178" lon="17.846753382298">
        <ele>6.8</ele>
        <time>2017-10-18T19:20:44Z</time>
      </trkpt>
      <trkpt lat="62.679371186071" lon="17.84670459964">
        <ele>7</ele>
        <time>2017-10-18T19:20:45Z</time>
      </trkpt>
      <trkpt lat="62.679343861077" lon="17.846660929941">
        <ele>7.2</ele>
        <time>2017-10-18T19:20:46Z</time>
      </trkpt>
      <trkpt lat="62.679312848047" lon="17.846616673509">
        <ele>7.2</ele>
        <time>2017-10-18T19:20:47Z</time>
      </trkpt>
      <trkpt lat="62.67928158356" lon="17.846571830344">
        <ele>7.4</ele>
        <time>2017-10-18T19:20:48Z</time>
      </trkpt>
      <trkpt lat="62.679249145607" lon="17.846524807885">
        <ele>7.2</ele>
        <time>2017-10-18T19:20:49Z</time>
      </trkpt>
      <trkpt lat="62.679218300215" lon="17.846482646928">
        <ele>7.4</ele>
        <time>2017-10-18T19:20:50Z</time>
      </trkpt>
      <trkpt lat="62.679185862262" lon="17.84644308436">
        <ele>7.4</ele>
        <time>2017-10-18T19:20:51Z</time>
      </trkpt>
      <trkpt lat="62.67915417868" lon="17.846405281991">
        <ele>7.4</ele>
        <time>2017-10-18T19:20:52Z</time>
      </trkpt>
      <trkpt lat="62.679118471786" lon="17.846362785758">
        <ele>7.4</ele>
        <time>2017-10-18T19:20:53Z</time>
      </trkpt>
      <trkpt lat="62.679080669417" lon="17.846314673652">
        <ele>7.4</ele>
        <time>2017-10-18T19:20:54Z</time>
      </trkpt>
      <trkpt lat="62.679043202324" lon="17.846265974813">
        <ele>7.4</ele>
        <time>2017-10-18T19:20:55Z</time>
      </trkpt>
      <trkpt lat="62.679005567593" lon="17.846215348137">
        <ele>7.4</ele>
        <time>2017-10-18T19:20:56Z</time>
      </trkpt>
      <trkpt lat="62.67896726231" lon="17.846164553823">
        <ele>7.4</ele>
        <time>2017-10-18T19:20:57Z</time>
      </trkpt>
      <trkpt lat="62.678931723054" lon="17.846119794477">
        <ele>7.4</ele>
        <time>2017-10-18T19:20:58Z</time>
      </trkpt>
      <trkpt lat="62.678887215165" lon="17.846064054842">
        <ele>7.2</ele>
        <time>2017-10-18T19:20:59Z</time>
      </trkpt>
      <trkpt lat="62.678847484959" lon="17.846014853089">
        <ele>7.2</ele>
        <time>2017-10-18T19:21:00Z</time>
      </trkpt>
      <trkpt lat="62.678805910735" lon="17.845964394051">
        <ele>7.2</ele>
        <time>2017-10-18T19:21:01Z</time>
      </trkpt>
      <trkpt lat="62.678765342339" lon="17.845916198126">
        <ele>7.2</ele>
        <time>2017-10-18T19:21:02Z</time>
      </trkpt>
      <trkpt lat="62.678720415355" lon="17.845866828735">
        <ele>7</ele>
        <time>2017-10-18T19:21:03Z</time>
      </trkpt>
      <trkpt lat="62.678674901638" lon="17.845819303362">
        <ele>7</ele>
        <time>2017-10-18T19:21:04Z</time>
      </trkpt>
      <trkpt lat="62.678623688229" lon="17.845770520704">
        <ele>6.6</ele>
        <time>2017-10-18T19:21:05Z</time>
      </trkpt>
      <trkpt lat="62.678573815924" lon="17.845727186281">
        <ele>6.6</ele>
        <time>2017-10-18T19:21:06Z</time>
      </trkpt>
      <trkpt lat="62.67852218342" lon="17.845683851858">
        <ele>6.4</ele>
        <time>2017-10-18T19:21:07Z</time>
      </trkpt>
      <trkpt lat="62.678470299459" lon="17.84563842196">
        <ele>6.2</ele>
        <time>2017-10-18T19:21:08Z</time>
      </trkpt>
      <trkpt lat="62.67841154234" lon="17.845580838307">
        <ele>6.2</ele>
        <time>2017-10-18T19:21:09Z</time>
      </trkpt>
      <trkpt lat="62.678357227628" lon="17.845522500283">
        <ele>6</ele>
        <time>2017-10-18T19:21:10Z</time>
      </trkpt>
      <trkpt lat="62.678297129405" lon="17.845450918857">
        <ele>5.8</ele>
        <time>2017-10-18T19:21:11Z</time>
      </trkpt>
      <trkpt lat="62.678238707562" lon="17.845379505069">
        <ele>5.6</ele>
        <time>2017-10-18T19:21:12Z</time>
      </trkpt>
      <trkpt lat="62.678179279891" lon="17.84530649872">
        <ele>5.2</ele>
        <time>2017-10-18T19:21:13Z</time>
      </trkpt>
      <trkpt lat="62.678114487804" lon="17.845227876498">
        <ele>5</ele>
        <time>2017-10-18T19:21:14Z</time>
      </trkpt>
      <trkpt lat="62.678049528079" lon="17.845149254276">
        <ele>4.6</ele>
        <time>2017-10-18T19:21:15Z</time>
      </trkpt>
      <trkpt lat="62.677991776788" lon="17.845076667022">
        <ele>4.4</ele>
        <time>2017-10-18T19:21:16Z</time>
      </trkpt>
      <trkpt lat="62.677924889226" lon="17.844992848022">
        <ele>4</ele>
        <time>2017-10-18T19:21:17Z</time>
      </trkpt>
      <trkpt lat="62.677856409103" lon="17.844910537764">
        <ele>3.8</ele>
        <time>2017-10-18T19:21:18Z</time>
      </trkpt>
      <trkpt lat="62.677783905668" lon="17.844822527814">
        <ele>3.4</ele>
        <time>2017-10-18T19:21:19Z</time>
      </trkpt>
      <trkpt lat="62.677713581527" lon="17.844734266407">
        <ele>3.2</ele>
        <time>2017-10-18T19:21:20Z</time>
      </trkpt>
      <trkpt lat="62.677641413368" lon="17.84464935776">
        <ele>2.8</ele>
        <time>2017-10-18T19:21:21Z</time>
      </trkpt>
      <trkpt lat="62.677573939073" lon="17.844569813529">
        <ele>2.4</ele>
        <time>2017-10-18T19:21:22Z</time>
      </trkpt>
      <trkpt lat="62.677500345991" lon="17.844480462475">
        <ele>1.8</ele>
        <time>2017-10-18T19:21:23Z</time>
      </trkpt>
      <trkpt lat="62.677425495624" lon="17.844385495548">
        <ele>1.4</ele>
        <time>2017-10-18T19:21:24Z</time>
      </trkpt>
      <trkpt lat="62.677353914198" lon="17.844293294648">
        <ele>1</ele>
        <time>2017-10-18T19:21:25Z</time>
      </trkpt>
      <trkpt lat="62.677283170962" lon="17.844205368517">
        <ele>0.4</ele>
        <time>2017-10-18T19:21:26Z</time>
      </trkpt>
      <trkpt lat="62.677210918984" lon="17.844118867309">
        <ele>0</ele>
        <time>2017-10-18T19:21:27Z</time>
      </trkpt>
      <trkpt lat="62.677146797449" lon="17.844041083277">
        <ele>0</ele>
        <time>2017-10-18T19:21:28Z</time>
      </trkpt>
      <trkpt lat="62.677068594322" lon="17.843945361979">
        <ele>0</ele>
        <time>2017-10-18T19:21:29Z</time>
      </trkpt>
      <trkpt lat="62.676999778923" lon="17.84386145916">
        <ele>0</ele>
        <time>2017-10-18T19:21:30Z</time>
      </trkpt>
      <trkpt lat="62.676931466438" lon="17.843777556341">
        <ele>0</ele>
        <time>2017-10-18T19:21:31Z</time>
      </trkpt>
      <trkpt lat="62.676867763998" lon="17.843698934119">
        <ele>0</ele>
        <time>2017-10-18T19:21:32Z</time>
      </trkpt>
      <trkpt lat="62.676801211712" lon="17.843618719336">
        <ele>0</ele>
        <time>2017-10-18T19:21:33Z</time>
      </trkpt>
      <trkpt lat="62.676737593091" lon="17.843540013295">
        <ele>0</ele>
        <time>2017-10-18T19:21:34Z</time>
      </trkpt>
      <trkpt lat="62.676672465728" lon="17.84345326063">
        <ele>0</ele>
        <time>2017-10-18T19:21:35Z</time>
      </trkpt>
      <trkpt lat="62.676611194039" lon="17.843373464942">
        <ele>0</ele>
        <time>2017-10-18T19:21:36Z</time>
      </trkpt>
      <trkpt lat="62.676550509083" lon="17.843296686738">
        <ele>0</ele>
        <time>2017-10-18T19:21:37Z</time>
      </trkpt>
      <trkpt lat="62.676495272362" lon="17.843222926018">
        <ele>0</ele>
        <time>2017-10-18T19:21:38Z</time>
      </trkpt>
      <trkpt lat="62.67643425213" lon="17.843142040683">
        <ele>0</ele>
        <time>2017-10-18T19:21:39Z</time>
      </trkpt>
      <trkpt lat="62.676382116712" lon="17.843075656035">
        <ele>0</ele>
        <time>2017-10-18T19:21:40Z</time>
      </trkpt>
      <trkpt lat="62.676323443412" lon="17.843006589179">
        <ele>0</ele>
        <time>2017-10-18T19:21:41Z</time>
      </trkpt>
      <trkpt lat="62.676268793424" lon="17.842946910051">
        <ele>0</ele>
        <time>2017-10-18T19:21:42Z</time>
      </trkpt>
      <trkpt lat="62.676216741825" lon="17.842893684986">
        <ele>0</ele>
        <time>2017-10-18T19:21:43Z</time>
      </trkpt>
      <trkpt lat="62.67615848762" lon="17.842834424953">
        <ele>0</ele>
        <time>2017-10-18T19:21:44Z</time>
      </trkpt>
      <trkpt lat="62.676104256727" lon="17.842778014766">
        <ele>0</ele>
        <time>2017-10-18T19:21:45Z</time>
      </trkpt>
      <trkpt lat="62.676055306431" lon="17.842728142461">
        <ele>0</ele>
        <time>2017-10-18T19:21:46Z</time>
      </trkpt>
      <trkpt lat="62.676000404986" lon="17.842677012871">
        <ele>0</ele>
        <time>2017-10-18T19:21:47Z</time>
      </trkpt>
      <trkpt lat="62.675949945948" lon="17.842633091715">
        <ele>0</ele>
        <time>2017-10-18T19:21:48Z</time>
      </trkpt>
      <trkpt lat="62.675897726711" lon="17.842590511663">
        <ele>0</ele>
        <time>2017-10-18T19:21:49Z</time>
      </trkpt>
      <trkpt lat="62.675853135003" lon="17.84255304457">
        <ele>0</ele>
        <time>2017-10-18T19:21:50Z</time>
      </trkpt>
      <trkpt lat="62.675811560779" lon="17.842514906925">
        <ele>0</ele>
        <time>2017-10-18T19:21:51Z</time>
      </trkpt>
      <trkpt lat="62.675780547749" lon="17.842476266366">
        <ele>0</ele>
        <time>2017-10-18T19:21:52Z</time>
      </trkpt>
      <trkpt lat="62.6757578328" lon="17.842433686314">
        <ele>0</ele>
        <time>2017-10-18T19:21:53Z</time>
      </trkpt>
      <trkpt lat="62.675738973525" lon="17.842396135402">
        <ele>0</ele>
        <time>2017-10-18T19:21:54Z</time>
      </trkpt>
      <trkpt lat="62.675724556657" lon="17.842356572834">
        <ele>0</ele>
        <time>2017-10-18T19:21:55Z</time>
      </trkpt>
      <trkpt lat="62.675718689327" lon="17.842308796004">
        <ele>0</ele>
        <time>2017-10-18T19:21:56Z</time>
      </trkpt>
      <trkpt lat="62.675721371535" lon="17.842268143789">
        <ele>0</ele>
        <time>2017-10-18T19:21:57Z</time>
      </trkpt>
      <trkpt lat="62.675733609109" lon="17.842219780226">
        <ele>0</ele>
        <time>2017-10-18T19:21:58Z</time>
      </trkpt>
      <trkpt lat="62.675748947986" lon="17.842172422491">
        <ele>0</ele>
        <time>2017-10-18T19:21:59Z</time>
      </trkpt>
      <trkpt lat="62.675763029578" lon="17.842130764448">
        <ele>0</ele>
        <time>2017-10-18T19:22:00Z</time>
      </trkpt>
      <trkpt lat="62.675771160021" lon="17.842088100577">
        <ele>0</ele>
        <time>2017-10-18T19:22:01Z</time>
      </trkpt>
      <trkpt lat="62.675779374283" lon="17.842048370371">
        <ele>0</ele>
        <time>2017-10-18T19:22:02Z</time>
      </trkpt>
      <trkpt lat="62.675789851658" lon="17.842009729812">
        <ele>0</ele>
        <time>2017-10-18T19:22:03Z</time>
      </trkpt>
      <trkpt lat="62.675801921594" lon="17.841971759805">
        <ele>0</ele>
        <time>2017-10-18T19:22:04Z</time>
      </trkpt>
      <trkpt lat="62.675816422281" lon="17.84192440207">
        <ele>0</ele>
        <time>2017-10-18T19:22:05Z</time>
      </trkpt>
      <trkpt lat="62.675827654027" lon="17.841870674091">
        <ele>0</ele>
        <time>2017-10-18T19:22:06Z</time>
      </trkpt>
      <trkpt lat="62.675831677339" lon="17.841811078782">
        <ele>0</ele>
        <time>2017-10-18T19:22:07Z</time>
      </trkpt>
      <trkpt lat="62.675828576036" lon="17.841753830405">
        <ele>0</ele>
        <time>2017-10-18T19:22:08Z</time>
      </trkpt>
      <trkpt lat="62.675815751729" lon="17.841695492381">
        <ele>0</ele>
        <time>2017-10-18T19:22:09Z</time>
      </trkpt>
      <trkpt lat="62.675794880798" lon="17.841649224293">
        <ele>0</ele>
        <time>2017-10-18T19:22:10Z</time>
      </trkpt>
      <trkpt lat="62.675762359026" lon="17.841608991173">
        <ele>0</ele>
        <time>2017-10-18T19:22:11Z</time>
      </trkpt>
      <trkpt lat="62.675726987408" lon="17.841577894324">
        <ele>0</ele>
        <time>2017-10-18T19:22:12Z</time>
      </trkpt>
      <trkpt lat="62.675690945238" lon="17.841550066416">
        <ele>0</ele>
        <time>2017-10-18T19:22:13Z</time>
      </trkpt>
      <trkpt lat="62.675649622471" lon="17.841517209368">
        <ele>0</ele>
        <time>2017-10-18T19:22:14Z</time>
      </trkpt>
      <trkpt lat="62.675608383523" lon="17.8414776468">
        <ele>0</ele>
        <time>2017-10-18T19:22:15Z</time>
      </trkpt>
      <trkpt lat="62.67557007824" lon="17.841435234386">
        <ele>0</ele>
        <time>2017-10-18T19:22:16Z</time>
      </trkpt>
      <trkpt lat="62.675526743817" lon="17.841385362081">
        <ele>0</ele>
        <time>2017-10-18T19:22:17Z</time>
      </trkpt>
      <trkpt lat="62.675483912308" lon="17.841342195296">
        <ele>0</ele>
        <time>2017-10-18T19:22:18Z</time>
      </trkpt>
      <trkpt lat="62.675438063315" lon="17.84129743595">
        <ele>0</ele>
        <time>2017-10-18T19:22:19Z</time>
      </trkpt>
      <trkpt lat="62.675395399444" lon="17.841251419319">
        <ele>0</ele>
        <time>2017-10-18T19:22:20Z</time>
      </trkpt>
      <trkpt lat="62.675352065021" lon="17.841207330525">
        <ele>0</ele>
        <time>2017-10-18T19:22:21Z</time>
      </trkpt>
      <trkpt lat="62.67531107753" lon="17.841169276699">
        <ele>0</ele>
        <time>2017-10-18T19:22:22Z</time>
      </trkpt>
      <trkpt lat="62.675266150546" lon="17.84112895976">
        <ele>0</ele>
        <time>2017-10-18T19:22:23Z</time>
      </trkpt>
      <trkpt lat="62.675219882458" lon="17.841090067744">
        <ele>0</ele>
        <time>2017-10-18T19:22:24Z</time>
      </trkpt>
      <trkpt lat="62.675174368741" lon="17.841060060542">
        <ele>0</ele>
        <time>2017-10-18T19:22:25Z</time>
      </trkpt>
      <trkpt lat="62.675128687386" lon="17.841034663385">
        <ele>0</ele>
        <time>2017-10-18T19:22:26Z</time>
      </trkpt>
      <trkpt lat="62.675082586936" lon="17.841004572364">
        <ele>0</ele>
        <time>2017-10-18T19:22:27Z</time>
      </trkpt>
      <trkpt lat="62.675041515626" lon="17.840972804963">
        <ele>0</ele>
        <time>2017-10-18T19:22:28Z</time>
      </trkpt>
      <trkpt lat="62.674990302217" lon="17.840927123608">
        <ele>0</ele>
        <time>2017-10-18T19:22:29Z</time>
      </trkpt>
      <trkpt lat="62.674944034129" lon="17.840881526072">
        <ele>0</ele>
        <time>2017-10-18T19:22:30Z</time>
      </trkpt>
      <trkpt lat="62.674897514584" lon="17.840832324319">
        <ele>0</ele>
        <time>2017-10-18T19:22:31Z</time>
      </trkpt>
      <trkpt lat="62.674851833229" lon="17.840780524177">
        <ele>0</ele>
        <time>2017-10-18T19:22:32Z</time>
      </trkpt>
      <trkpt lat="62.674805900417" lon="17.840731070967">
        <ele>0</ele>
        <time>2017-10-18T19:22:33Z</time>
      </trkpt>
      <trkpt lat="62.674757117759" lon="17.840684467603">
        <ele>0</ele>
        <time>2017-10-18T19:22:34Z</time>
      </trkpt>
      <trkpt lat="62.674702383952" lon="17.84064113318">
        <ele>0</ele>
        <time>2017-10-18T19:22:35Z</time>
      </trkpt>
      <trkpt lat="62.674651002905" lon="17.840599056042">
        <ele>0</ele>
        <time>2017-10-18T19:22:36Z</time>
      </trkpt>
      <trkpt lat="62.674601633514" lon="17.840548597004">
        <ele>0</ele>
        <time>2017-10-18T19:22:37Z</time>
      </trkpt>
      <trkpt lat="62.674556371254" lon="17.840500903993">
        <ele>0</ele>
        <time>2017-10-18T19:22:38Z</time>
      </trkpt>
      <trkpt lat="62.674507840053" lon="17.840455306457">
        <ele>0</ele>
        <time>2017-10-18T19:22:39Z</time>
      </trkpt>
      <trkpt lat="62.67446115287" lon="17.840409960378">
        <ele>0</ele>
        <time>2017-10-18T19:22:40Z</time>
      </trkpt>
      <trkpt lat="62.674414717144" lon="17.840359166064">
        <ele>0</ele>
        <time>2017-10-18T19:22:41Z</time>
      </trkpt>
      <trkpt lat="62.674370712169" lon="17.840311892148">
        <ele>0</ele>
        <time>2017-10-18T19:22:42Z</time>
      </trkpt>
      <trkpt lat="62.67432871885" lon="17.840273670684">
        <ele>0</ele>
        <time>2017-10-18T19:22:43Z</time>
      </trkpt>
      <trkpt lat="62.674280858201" lon="17.840238466704">
        <ele>0</ele>
        <time>2017-10-18T19:22:44Z</time>
      </trkpt>
      <trkpt lat="62.674235847398" lon="17.840207956588">
        <ele>0</ele>
        <time>2017-10-18T19:22:45Z</time>
      </trkpt>
      <trkpt lat="62.674194692269" lon="17.840178033205">
        <ele>0</ele>
        <time>2017-10-18T19:22:46Z</time>
      </trkpt>
      <trkpt lat="62.674148424181" lon="17.840148361279">
        <ele>0</ele>
        <time>2017-10-18T19:22:47Z</time>
      </trkpt>
      <trkpt lat="62.674105676491" lon="17.84012396995">
        <ele>0</ele>
        <time>2017-10-18T19:22:48Z</time>
      </trkpt>
      <trkpt lat="62.674058905489" lon="17.840095974404">
        <ele>0</ele>
        <time>2017-10-18T19:22:49Z</time>
      </trkpt>
      <trkpt lat="62.674014062324" lon="17.840072421265">
        <ele>0</ele>
        <time>2017-10-18T19:22:50Z</time>
      </trkpt>
      <trkpt lat="62.673968045693" lon="17.840047778479">
        <ele>0</ele>
        <time>2017-10-18T19:22:51Z</time>
      </trkpt>
      <trkpt lat="62.67392387308" lon="17.840025566444">
        <ele>0</ele>
        <time>2017-10-18T19:22:52Z</time>
      </trkpt>
      <trkpt lat="62.673875760974" lon="17.840006036617">
        <ele>0</ele>
        <time>2017-10-18T19:22:53Z</time>
      </trkpt>
      <trkpt lat="62.673828570877" lon="17.839990194826">
        <ele>0</ele>
        <time>2017-10-18T19:22:54Z</time>
      </trkpt>
      <trkpt lat="62.67377635164" lon="17.839970748818">
        <ele>0</ele>
        <time>2017-10-18T19:22:55Z</time>
      </trkpt>
      <trkpt lat="62.673725808783" lon="17.839947363317">
        <ele>0</ele>
        <time>2017-10-18T19:22:56Z</time>
      </trkpt>
      <trkpt lat="62.673673002813" lon="17.839926240929">
        <ele>0</ele>
        <time>2017-10-18T19:22:57Z</time>
      </trkpt>
      <trkpt lat="62.673623130508" lon="17.839912578432">
        <ele>0</ele>
        <time>2017-10-18T19:22:58Z</time>
      </trkpt>
      <trkpt lat="62.673556829679" lon="17.839899083573">
        <ele>0</ele>
        <time>2017-10-18T19:22:59Z</time>
      </trkpt>
      <trkpt lat="62.673497066732" lon="17.839886929818">
        <ele>0</ele>
        <time>2017-10-18T19:23:00Z</time>
      </trkpt>
      <trkpt lat="62.673438225794" lon="17.839872010036">
        <ele>0</ele>
        <time>2017-10-18T19:23:01Z</time>
      </trkpt>
      <trkpt lat="62.673379803951" lon="17.839850552372">
        <ele>0</ele>
        <time>2017-10-18T19:23:02Z</time>
      </trkpt>
      <trkpt lat="62.673323309945" lon="17.839823227378">
        <ele>0</ele>
        <time>2017-10-18T19:23:03Z</time>
      </trkpt>
      <trkpt lat="62.673265642473" lon="17.839792465805">
        <ele>0</ele>
        <time>2017-10-18T19:23:04Z</time>
      </trkpt>
      <trkpt lat="62.673204119327" lon="17.8397593573">
        <ele>0</ele>
        <time>2017-10-18T19:23:05Z</time>
      </trkpt>
      <trkpt lat="62.673146703312" lon="17.839728008994">
        <ele>0</ele>
        <time>2017-10-18T19:23:06Z</time>
      </trkpt>
      <trkpt lat="62.673089622573" lon="17.839696995964">
        <ele>0</ele>
        <time>2017-10-18T19:23:07Z</time>
      </trkpt>
      <trkpt lat="62.67303455349" lon="17.83967637649">
        <ele>0</ele>
        <time>2017-10-18T19:23:08Z</time>
      </trkpt>
      <trkpt lat="62.672976802199" lon="17.839655840835">
        <ele>0</ele>
        <time>2017-10-18T19:23:09Z</time>
      </trkpt>
      <trkpt lat="62.672917877442" lon="17.839639579949">
        <ele>0</ele>
        <time>2017-10-18T19:23:10Z</time>
      </trkpt>
      <trkpt lat="62.672855432287" lon="17.839625163081">
        <ele>0</ele>
        <time>2017-10-18T19:23:11Z</time>
      </trkpt>
      <trkpt lat="62.672796591349" lon="17.839616613543">
        <ele>0</ele>
        <time>2017-10-18T19:23:12Z</time>
      </trkpt>
      <trkpt lat="62.672741103171" lon="17.839612171136">
        <ele>0</ele>
        <time>2017-10-18T19:23:13Z</time>
      </trkpt>
      <trkpt lat="62.672678658016" lon="17.83960345396">
        <ele>0</ele>
        <time>2017-10-18T19:23:14Z</time>
      </trkpt>
      <trkpt lat="62.672616631956" lon="17.8395917193">
        <ele>0</ele>
        <time>2017-10-18T19:23:15Z</time>
      </trkpt>
      <trkpt lat="62.672559802674" lon="17.83958166102">
        <ele>0</ele>
        <time>2017-10-18T19:23:16Z</time>
      </trkpt>
      <trkpt lat="62.672493585664" lon="17.839570345455">
        <ele>0</ele>
        <time>2017-10-18T19:23:17Z</time>
      </trkpt>
      <trkpt lat="62.67243357126" lon="17.839562215012">
        <ele>0</ele>
        <time>2017-10-18T19:23:18Z</time>
      </trkpt>
      <trkpt lat="62.672367186612" lon="17.839552575827">
        <ele>0</ele>
        <time>2017-10-18T19:23:19Z</time>
      </trkpt>
      <trkpt lat="62.672305831104" lon="17.839541344081">
        <ele>0</ele>
        <time>2017-10-18T19:23:20Z</time>
      </trkpt>
      <trkpt lat="62.672249756193" lon="17.83952298772">
        <ele>0</ele>
        <time>2017-10-18T19:23:21Z</time>
      </trkpt>
      <trkpt lat="62.672199800069" lon="17.839505888644">
        <ele>0</ele>
        <time>2017-10-18T19:23:22Z</time>
      </trkpt>
      <trkpt lat="62.672145150081" lon="17.839490130672">
        <ele>0</ele>
        <time>2017-10-18T19:23:23Z</time>
      </trkpt>
      <trkpt lat="62.672090667731" lon="17.839477893098">
        <ele>0</ele>
        <time>2017-10-18T19:23:24Z</time>
      </trkpt>
      <trkpt lat="62.672030150413" lon="17.839464062963">
        <ele>0</ele>
        <time>2017-10-18T19:23:25Z</time>
      </trkpt>
      <trkpt lat="62.671973069674" lon="17.83944838881">
        <ele>0</ele>
        <time>2017-10-18T19:23:26Z</time>
      </trkpt>
      <trkpt lat="62.671913725822" lon="17.839438749625">
        <ele>0</ele>
        <time>2017-10-18T19:23:27Z</time>
      </trkpt>
      <trkpt lat="62.671858070006" lon="17.839438498168">
        <ele>0</ele>
        <time>2017-10-18T19:23:28Z</time>
      </trkpt>
      <trkpt lat="62.671791433901" lon="17.839442437661">
        <ele>0</ele>
        <time>2017-10-18T19:23:29Z</time>
      </trkpt>
      <trkpt lat="62.67173200623" lon="17.839443611127">
        <ele>0</ele>
        <time>2017-10-18T19:23:30Z</time>
      </trkpt>
      <trkpt lat="62.671674841672" lon="17.839443946403">
        <ele>0</ele>
        <time>2017-10-18T19:23:31Z</time>
      </trkpt>
      <trkpt lat="62.671616671286" lon="17.839447885896">
        <ele>0</ele>
        <time>2017-10-18T19:23:32Z</time>
      </trkpt>
      <trkpt lat="62.671560428737" lon="17.839455010511">
        <ele>0</ele>
        <time>2017-10-18T19:23:33Z</time>
      </trkpt>
      <trkpt lat="62.671503096541" lon="17.839463224773">
        <ele>0</ele>
        <time>2017-10-18T19:23:34Z</time>
      </trkpt>
      <trkpt lat="62.671442914499" lon="17.839471522854">
        <ele>0</ele>
        <time>2017-10-18T19:23:35Z</time>
      </trkpt>
      <trkpt lat="62.671385666122" lon="17.839497506744">
        <ele>0</ele>
        <time>2017-10-18T19:23:36Z</time>
      </trkpt>
      <trkpt lat="62.671329423573" lon="17.839540086796">
        <ele>0</ele>
        <time>2017-10-18T19:23:37Z</time>
      </trkpt>
      <trkpt lat="62.671276533784" lon="17.839584678504">
        <ele>0</ele>
        <time>2017-10-18T19:23:38Z</time>
      </trkpt>
      <trkpt lat="62.671220794149" lon="17.83962608509">
        <ele>0</ele>
        <time>2017-10-18T19:23:39Z</time>
      </trkpt>
      <trkpt lat="62.671164467781" lon="17.83965961269">
        <ele>0</ele>
        <time>2017-10-18T19:23:40Z</time>
      </trkpt>
      <trkpt lat="62.671106884128" lon="17.839691883005">
        <ele>0</ele>
        <time>2017-10-18T19:23:41Z</time>
      </trkpt>
      <trkpt lat="62.671051982683" lon="17.839723063673">
        <ele>0</ele>
        <time>2017-10-18T19:23:42Z</time>
      </trkpt>
      <trkpt lat="62.671002361835" lon="17.839753657608">
        <ele>0</ele>
        <time>2017-10-18T19:23:43Z</time>
      </trkpt>
      <trkpt lat="62.67094578401" lon="17.839789615959">
        <ele>0</ele>
        <time>2017-10-18T19:23:44Z</time>
      </trkpt>
      <trkpt lat="62.670892642764" lon="17.839821215722">
        <ele>0</ele>
        <time>2017-10-18T19:23:45Z</time>
      </trkpt>
      <trkpt lat="62.670841764631" lon="17.839851055286">
        <ele>0</ele>
        <time>2017-10-18T19:23:46Z</time>
      </trkpt>
      <trkpt lat="62.670785019168" lon="17.839880391936">
        <ele>0</ele>
        <time>2017-10-18T19:23:47Z</time>
      </trkpt>
      <trkpt lat="62.670734308673" lon="17.83990687874">
        <ele>0</ele>
        <time>2017-10-18T19:23:48Z</time>
      </trkpt>
      <trkpt lat="62.670678569038" lon="17.839938059408">
        <ele>0</ele>
        <time>2017-10-18T19:23:49Z</time>
      </trkpt>
      <trkpt lat="62.67062559543" lon="17.839965468221">
        <ele>0</ele>
        <time>2017-10-18T19:23:50Z</time>
      </trkpt>
      <trkpt lat="62.670573711469" lon="17.839996313613">
        <ele>0</ele>
        <time>2017-10-18T19:23:51Z</time>
      </trkpt>
      <trkpt lat="62.670525599363" lon="17.840025147349">
        <ele>0.2</ele>
        <time>2017-10-18T19:23:52Z</time>
      </trkpt>
      <trkpt lat="62.670473212488" lon="17.840045431547">
        <ele>0.2</ele>
        <time>2017-10-18T19:23:53Z</time>
      </trkpt>
      <trkpt lat="62.670420741794" lon="17.840062195347">
        <ele>0.4</ele>
        <time>2017-10-18T19:23:54Z</time>
      </trkpt>
      <trkpt lat="62.670365924168" lon="17.84008038407">
        <ele>0.6</ele>
        <time>2017-10-18T19:23:55Z</time>
      </trkpt>
      <trkpt lat="62.670314207845" lon="17.840097902241">
        <ele>0.8</ele>
        <time>2017-10-18T19:23:56Z</time>
      </trkpt>
      <trkpt lat="62.670261234237" lon="17.840115252774">
        <ele>0.8</ele>
        <time>2017-10-18T19:23:57Z</time>
      </trkpt>
      <trkpt lat="62.670215301425" lon="17.840130088737">
        <ele>1</ele>
        <time>2017-10-18T19:23:58Z</time>
      </trkpt>
      <trkpt lat="62.670155454659" lon="17.840148109822">
        <ele>1</ele>
        <time>2017-10-18T19:23:59Z</time>
      </trkpt>
      <trkpt lat="62.670103654517" lon="17.840164789803">
        <ele>1.2</ele>
        <time>2017-10-18T19:24:00Z</time>
      </trkpt>
      <trkpt lat="62.670052022013" lon="17.840184068173">
        <ele>1.2</ele>
        <time>2017-10-18T19:24:01Z</time>
      </trkpt>
      <trkpt lat="62.669999718957" lon="17.840202424534">
        <ele>1.4</ele>
        <time>2017-10-18T19:24:02Z</time>
      </trkpt>
      <trkpt lat="62.669948086453" lon="17.840222792551">
        <ele>1.4</ele>
        <time>2017-10-18T19:24:03Z</time>
      </trkpt>
      <trkpt lat="62.66989301737" lon="17.84024718388">
        <ele>1.4</ele>
        <time>2017-10-18T19:24:04Z</time>
      </trkpt>
      <trkpt lat="62.669832751509" lon="17.840272916313">
        <ele>1.2</ele>
        <time>2017-10-18T19:24:05Z</time>
      </trkpt>
      <trkpt lat="62.669775922227" lon="17.840296804728">
        <ele>1</ele>
        <time>2017-10-18T19:24:06Z</time>
      </trkpt>
      <trkpt lat="62.669719260583" lon="17.84031843003">
        <ele>1</ele>
        <time>2017-10-18T19:24:07Z</time>
      </trkpt>
      <trkpt lat="62.669664945871" lon="17.840337876038">
        <ele>0.8</ele>
        <time>2017-10-18T19:24:08Z</time>
      </trkpt>
      <trkpt lat="62.66960887096" lon="17.840359082245">
        <ele>0.8</ele>
        <time>2017-10-18T19:24:09Z</time>
      </trkpt>
      <trkpt lat="62.669551454945" lon="17.840381042823">
        <ele>0.6</ele>
        <time>2017-10-18T19:24:10Z</time>
      </trkpt>
      <trkpt lat="62.669490853808" lon="17.84040057265">
        <ele>0.6</ele>
        <time>2017-10-18T19:24:11Z</time>
      </trkpt>
      <trkpt lat="62.669433856888" lon="17.840420270115">
        <ele>0.6</ele>
        <time>2017-10-18T19:24:12Z</time>
      </trkpt>
      <trkpt lat="62.669380296547" lon="17.840441979236">
        <ele>0.6</ele>
        <time>2017-10-18T19:24:13Z</time>
      </trkpt>
      <trkpt lat="62.669320701238" lon="17.840465448556">
        <ele>0.4</ele>
        <time>2017-10-18T19:24:14Z</time>
      </trkpt>
      <trkpt lat="62.669264626327" lon="17.840488079686">
        <ele>0.4</ele>
        <time>2017-10-18T19:24:15Z</time>
      </trkpt>
      <trkpt lat="62.669211317443" lon="17.840512638653">
        <ele>0.4</ele>
        <time>2017-10-18T19:24:16Z</time>
      </trkpt>
      <trkpt lat="62.669150297211" lon="17.840540466561">
        <ele>0.2</ele>
        <time>2017-10-18T19:24:17Z</time>
      </trkpt>
      <trkpt lat="62.669095228128" lon="17.840566618089">
        <ele>0.2</ele>
        <time>2017-10-18T19:24:18Z</time>
      </trkpt>
      <trkpt lat="62.669035213724" lon="17.840599726594">
        <ele>0.2</ele>
        <time>2017-10-18T19:24:19Z</time>
      </trkpt>
      <trkpt lat="62.668978468261" lon="17.840633086556">
        <ele>0.2</ele>
        <time>2017-10-18T19:24:20Z</time>
      </trkpt>
      <trkpt lat="62.668921387522" lon="17.840666446518">
        <ele>0</ele>
        <time>2017-10-18T19:24:21Z</time>
      </trkpt>
      <trkpt lat="62.668867156629" lon="17.840697962462">
        <ele>0</ele>
        <time>2017-10-18T19:24:22Z</time>
      </trkpt>
      <trkpt lat="62.668808902424" lon="17.840734004632">
        <ele>0</ele>
        <time>2017-10-18T19:24:23Z</time>
      </trkpt>
      <trkpt lat="62.668751486409" lon="17.840771807001">
        <ele>0</ele>
        <time>2017-10-18T19:24:24Z</time>
      </trkpt>
      <trkpt lat="62.668691388186" lon="17.84081631489">
        <ele>0</ele>
        <time>2017-10-18T19:24:25Z</time>
      </trkpt>
      <trkpt lat="62.668635397094" lon="17.840861074236">
        <ele>0</ele>
        <time>2017-10-18T19:24:26Z</time>
      </trkpt>
      <trkpt lat="62.668578316355" lon="17.840904576297">
        <ele>0</ele>
        <time>2017-10-18T19:24:27Z</time>
      </trkpt>
      <trkpt lat="62.668527354403" lon="17.840941289019">
        <ele>0</ele>
        <time>2017-10-18T19:24:28Z</time>
      </trkpt>
      <trkpt lat="62.668461975583" lon="17.840994094989">
        <ele>0</ele>
        <time>2017-10-18T19:24:29Z</time>
      </trkpt>
      <trkpt lat="62.668404811025" lon="17.84104681714">
        <ele>0</ele>
        <time>2017-10-18T19:24:30Z</time>
      </trkpt>
      <trkpt lat="62.668347981743" lon="17.841099790748">
        <ele>0</ele>
        <time>2017-10-18T19:24:31Z</time>
      </trkpt>
      <trkpt lat="62.668291990651" lon="17.841155195107">
        <ele>0</ele>
        <time>2017-10-18T19:24:32Z</time>
      </trkpt>
      <trkpt lat="62.668238933224" lon="17.841206492335">
        <ele>0</ele>
        <time>2017-10-18T19:24:33Z</time>
      </trkpt>
      <trkpt lat="62.668183445046" lon="17.841258963029">
        <ele>0</ele>
        <time>2017-10-18T19:24:34Z</time>
      </trkpt>
      <trkpt lat="62.668125609936" lon="17.841316043768">
        <ele>0</ele>
        <time>2017-10-18T19:24:35Z</time>
      </trkpt>
      <trkpt lat="62.668073055423" lon="17.841372286317">
        <ele>0</ele>
        <time>2017-10-18T19:24:36Z</time>
      </trkpt>
      <trkpt lat="62.668021255281" lon="17.841430289065">
        <ele>0</ele>
        <time>2017-10-18T19:24:37Z</time>
      </trkpt>
      <trkpt lat="62.667972556442" lon="17.841486615433">
        <ele>0</ele>
        <time>2017-10-18T19:24:38Z</time>
      </trkpt>
      <trkpt lat="62.667920923938" lon="17.841546126923">
        <ele>0</ele>
        <time>2017-10-18T19:24:39Z</time>
      </trkpt>
      <trkpt lat="62.667869710529" lon="17.841604884042">
        <ele>0</ele>
        <time>2017-10-18T19:24:40Z</time>
      </trkpt>
      <trkpt lat="62.667816066369" lon="17.841670095224">
        <ele>0</ele>
        <time>2017-10-18T19:24:41Z</time>
      </trkpt>
      <trkpt lat="62.667767032254" lon="17.841734049121">
        <ele>0</ele>
        <time>2017-10-18T19:24:42Z</time>
      </trkpt>
      <trkpt lat="62.667722189089" lon="17.841796326638">
        <ele>0</ele>
        <time>2017-10-18T19:24:43Z</time>
      </trkpt>
      <trkpt lat="62.667672484422" lon="17.8418632142">
        <ele>0</ele>
        <time>2017-10-18T19:24:44Z</time>
      </trkpt>
      <trkpt lat="62.667626719248" lon="17.841925324079">
        <ele>0</ele>
        <time>2017-10-18T19:24:45Z</time>
      </trkpt>
      <trkpt lat="62.667584223015" lon="17.841984332655">
        <ele>0</ele>
        <time>2017-10-18T19:24:46Z</time>
      </trkpt>
      <trkpt lat="62.667535607995" lon="17.842053986244">
        <ele>0</ele>
        <time>2017-10-18T19:24:47Z</time>
      </trkpt>
      <trkpt lat="62.667493530857" lon="17.842118107779">
        <ele>0</ele>
        <time>2017-10-18T19:24:48Z</time>
      </trkpt>
      <trkpt lat="62.667446676036" lon="17.842189605386">
        <ele>0</ele>
        <time>2017-10-18T19:24:49Z</time>
      </trkpt>
      <trkpt lat="62.667403090156" lon="17.842257247319">
        <ele>0</ele>
        <time>2017-10-18T19:24:50Z</time>
      </trkpt>
      <trkpt lat="62.667361432113" lon="17.842328577288">
        <ele>0</ele>
        <time>2017-10-18T19:24:51Z</time>
      </trkpt>
      <trkpt lat="62.667323629744" lon="17.842392782642">
        <ele>0.2</ele>
        <time>2017-10-18T19:24:52Z</time>
      </trkpt>
      <trkpt lat="62.667281552606" lon="17.842459251109">
        <ele>0.2</ele>
        <time>2017-10-18T19:24:53Z</time>
      </trkpt>
      <trkpt lat="62.667241487124" lon="17.842522785911">
        <ele>0.4</ele>
        <time>2017-10-18T19:24:54Z</time>
      </trkpt>
      <trkpt lat="62.66720075109" lon="17.842592355681">
        <ele>0.6</ele>
        <time>2017-10-18T19:24:55Z</time>
      </trkpt>
      <trkpt lat="62.66716303254" lon="17.842658907967">
        <ele>1</ele>
        <time>2017-10-18T19:24:56Z</time>
      </trkpt>
      <trkpt lat="62.667123972886" lon="17.842721772217">
        <ele>1</ele>
        <time>2017-10-18T19:24:57Z</time>
      </trkpt>
      <trkpt lat="62.667093881865" lon="17.842769716685">
        <ele>1.2</ele>
        <time>2017-10-18T19:24:58Z</time>
      </trkpt>
      <trkpt lat="62.667050295985" lon="17.842848255088">
        <ele>1.2</ele>
        <time>2017-10-18T19:24:59Z</time>
      </trkpt>
      <trkpt lat="62.667014337634" lon="17.842917321944">
        <ele>1.2</ele>
        <time>2017-10-18T19:25:00Z</time>
      </trkpt>
      <trkpt lat="62.666977876369" lon="17.842984796239">
        <ele>1.2</ele>
        <time>2017-10-18T19:25:01Z</time>
      </trkpt>
      <trkpt lat="62.666941666561" lon="17.843049923602">
        <ele>1.2</ele>
        <time>2017-10-18T19:25:02Z</time>
      </trkpt>
      <trkpt lat="62.66690822278" lon="17.84311547006">
        <ele>1.2</ele>
        <time>2017-10-18T19:25:03Z</time>
      </trkpt>
      <trkpt lat="62.6668730188" lon="17.843185123649">
        <ele>1.2</ele>
        <time>2017-10-18T19:25:04Z</time>
      </trkpt>
      <trkpt lat="62.666835886983" lon="17.843259890197">
        <ele>1.2</ele>
        <time>2017-10-18T19:25:05Z</time>
      </trkpt>
      <trkpt lat="62.666800431546" lon="17.843332812727">
        <ele>1</ele>
        <time>2017-10-18T19:25:06Z</time>
      </trkpt>
      <trkpt lat="62.666765646661" lon="17.843405064705">
        <ele>1.2</ele>
        <time>2017-10-18T19:25:07Z</time>
      </trkpt>
      <trkpt lat="62.666734633631" lon="17.84348008271">
        <ele>1.2</ele>
        <time>2017-10-18T19:25:08Z</time>
      </trkpt>
      <trkpt lat="62.666701776583" lon="17.84355971076">
        <ele>1.2</ele>
        <time>2017-10-18T19:25:09Z</time>
      </trkpt>
      <trkpt lat="62.6666718532" lon="17.843638332982">
        <ele>1.2</ele>
        <time>2017-10-18T19:25:10Z</time>
      </trkpt>
      <trkpt lat="62.666642768007" lon="17.843729276597">
        <ele>1.4</ele>
        <time>2017-10-18T19:25:11Z</time>
      </trkpt>
      <trkpt lat="62.666617287031" lon="17.843810245751">
        <ele>1.4</ele>
        <time>2017-10-18T19:25:12Z</time>
      </trkpt>
      <trkpt lat="62.66659222515" lon="17.843890041439">
        <ele>1.4</ele>
        <time>2017-10-18T19:25:13Z</time>
      </trkpt>
      <trkpt lat="62.666566492717" lon="17.843978470484">
        <ele>1.4</ele>
        <time>2017-10-18T19:25:14Z</time>
      </trkpt>
      <trkpt lat="62.66653941918" lon="17.844051979747">
        <ele>1.4</ele>
        <time>2017-10-18T19:25:15Z</time>
      </trkpt>
      <trkpt lat="62.666514022023" lon="17.844113921988">
        <ele>1.4</ele>
        <time>2017-10-18T19:25:16Z</time>
      </trkpt>
      <trkpt lat="62.666487199943" lon="17.84417829498">
        <ele>1.4</ele>
        <time>2017-10-18T19:25:17Z</time>
      </trkpt>
      <trkpt lat="62.6664623057" lon="17.844238309384">
        <ele>1.4</ele>
        <time>2017-10-18T19:25:18Z</time>
      </trkpt>
      <trkpt lat="62.666450906316" lon="17.844301257453">
        <ele>1.4</ele>
        <time>2017-10-18T19:25:19Z</time>
      </trkpt>
      <trkpt lat="62.666430035385" lon="17.844364037884">
        <ele>1.4</ele>
        <time>2017-10-18T19:25:20Z</time>
      </trkpt>
      <trkpt lat="62.666409835006" lon="17.844418268777">
        <ele>1.2</ele>
        <time>2017-10-18T19:25:21Z</time>
      </trkpt>
      <trkpt lat="62.666380833632" lon="17.844425141935">
        <ele>1.4</ele>
        <time>2017-10-18T19:25:22Z</time>
      </trkpt>
      <trkpt lat="62.66635585557" lon="17.84440795904">
        <ele>1.4</ele>
        <time>2017-10-18T19:25:23Z</time>
      </trkpt>
      <trkpt lat="62.666341187245" lon="17.844368312653">
        <ele>1.6</ele>
        <time>2017-10-18T19:25:24Z</time>
      </trkpt>
      <trkpt lat="62.666330961327" lon="17.844319194719">
        <ele>1.6</ele>
        <time>2017-10-18T19:25:25Z</time>
      </trkpt>
      <trkpt lat="62.666318053201" lon="17.844274603011">
        <ele>1.8</ele>
        <time>2017-10-18T19:25:26Z</time>
      </trkpt>
      <trkpt lat="62.666300786487" lon="17.844254989365">
        <ele>1.8</ele>
        <time>2017-10-18T19:25:27Z</time>
      </trkpt>
      <trkpt lat="62.666286788714" lon="17.844266388749">
        <ele>1.8</ele>
        <time>2017-10-18T19:25:28Z</time>
      </trkpt>
      <trkpt lat="62.666274467321" lon="17.844306370412">
        <ele>1.8</ele>
        <time>2017-10-18T19:25:29Z</time>
      </trkpt>
      <trkpt lat="62.666269438181" lon="17.844345597704">
        <ele>1.8</ele>
        <time>2017-10-18T19:25:30Z</time>
      </trkpt>
      <trkpt lat="62.666270863104" lon="17.844383483892">
        <ele>1.6</ele>
        <time>2017-10-18T19:25:31Z</time>
      </trkpt>
      <trkpt lat="62.666276059882" lon="17.84441885551">
        <ele>1.6</ele>
        <time>2017-10-18T19:25:32Z</time>
      </trkpt>
      <trkpt lat="62.666282262488" lon="17.844449281807">
        <ele>1.8</ele>
        <time>2017-10-18T19:25:33Z</time>
      </trkpt>
      <trkpt lat="62.666288129818" lon="17.844485994529">
        <ele>1.8</ele>
        <time>2017-10-18T19:25:34Z</time>
      </trkpt>
      <trkpt lat="62.666296092623" lon="17.844534944825">
        <ele>1.8</ele>
        <time>2017-10-18T19:25:35Z</time>
      </trkpt>
      <trkpt lat="62.666303133419" lon="17.844592109383">
        <ele>1.8</ele>
        <time>2017-10-18T19:25:36Z</time>
      </trkpt>
      <trkpt lat="62.666306486179" lon="17.844660924782">
        <ele>1.8</ele>
        <time>2017-10-18T19:25:37Z</time>
      </trkpt>
      <trkpt lat="62.666308581654" lon="17.844731248923">
        <ele>1.8</ele>
        <time>2017-10-18T19:25:38Z</time>
      </trkpt>
      <trkpt lat="62.666287040171" lon="17.844799645227">
        <ele>1.8</ele>
        <time>2017-10-18T19:25:39Z</time>
      </trkpt>
      <trkpt lat="62.666262481204" lon="17.844880027648">
        <ele>1.8</ele>
        <time>2017-10-18T19:25:40Z</time>
      </trkpt>
      <trkpt lat="62.66623767078" lon="17.844957224947">
        <ele>1.6</ele>
        <time>2017-10-18T19:25:41Z</time>
      </trkpt>
      <trkpt lat="62.666214452917" lon="17.845035176617">
        <ele>1.6</ele>
        <time>2017-10-18T19:25:42Z</time>
      </trkpt>
      <trkpt lat="62.666190983597" lon="17.845110948993">
        <ele>1.4</ele>
        <time>2017-10-18T19:25:43Z</time>
      </trkpt>
      <trkpt lat="62.666165334983" lon="17.845196444373">
        <ele>1.2</ele>
        <time>2017-10-18T19:25:44Z</time>
      </trkpt>
      <trkpt lat="62.666141027473" lon="17.845277664984">
        <ele>1</ele>
        <time>2017-10-18T19:25:45Z</time>
      </trkpt>
      <trkpt lat="62.66612032418" lon="17.845353353541">
        <ele>1</ele>
        <time>2017-10-18T19:25:46Z</time>
      </trkpt>
      <trkpt lat="62.666095346118" lon="17.845441195853">
        <ele>0.8</ele>
        <time>2017-10-18T19:25:47Z</time>
      </trkpt>
      <trkpt lat="62.666071625341" lon="17.845520823903">
        <ele>0.8</ele>
        <time>2017-10-18T19:25:48Z</time>
      </trkpt>
      <trkpt lat="62.66604488708" lon="17.845612270432">
        <ele>0.6</ele>
        <time>2017-10-18T19:25:49Z</time>
      </trkpt>
      <trkpt lat="62.666020160475" lon="17.845702292038">
        <ele>0.6</ele>
        <time>2017-10-18T19:25:50Z</time>
      </trkpt>
      <trkpt lat="62.665995350051" lon="17.845792732739">
        <ele>0.6</ele>
        <time>2017-10-18T19:25:51Z</time>
      </trkpt>
      <trkpt lat="62.665973976206" lon="17.845879736861">
        <ele>0.6</ele>
        <time>2017-10-18T19:25:52Z</time>
      </trkpt>
      <trkpt lat="62.665952099447" lon="17.845977637453">
        <ele>0.4</ele>
        <time>2017-10-18T19:25:53Z</time>
      </trkpt>
      <trkpt lat="62.665931899068" lon="17.846074616036">
        <ele>0.4</ele>
        <time>2017-10-18T19:25:54Z</time>
      </trkpt>
      <trkpt lat="62.665911698689" lon="17.846178803053">
        <ele>0.4</ele>
        <time>2017-10-18T19:25:55Z</time>
      </trkpt>
      <trkpt lat="62.665892587957" lon="17.846274105256">
        <ele>0.2</ele>
        <time>2017-10-18T19:25:56Z</time>
      </trkpt>
      <trkpt lat="62.665874147777" lon="17.846368569269">
        <ele>0.2</ele>
        <time>2017-10-18T19:25:57Z</time>
      </trkpt>
      <trkpt lat="62.665856964882" lon="17.846448784052">
        <ele>0.2</ele>
        <time>2017-10-18T19:25:58Z</time>
      </trkpt>
      <trkpt lat="62.665835004304" lon="17.846548025748">
        <ele>0.2</ele>
        <time>2017-10-18T19:25:59Z</time>
      </trkpt>
      <trkpt lat="62.665814636287" lon="17.846636035698">
        <ele>0.4</ele>
        <time>2017-10-18T19:26:00Z</time>
      </trkpt>
      <trkpt lat="62.665795274098" lon="17.846721698716">
        <ele>0.4</ele>
        <time>2017-10-18T19:26:01Z</time>
      </trkpt>
      <trkpt lat="62.665775073719" lon="17.846804428069">
        <ele>0.6</ele>
        <time>2017-10-18T19:26:02Z</time>
      </trkpt>
      <trkpt lat="62.665755627711" lon="17.84688313411">
        <ele>0.6</ele>
        <time>2017-10-18T19:26:03Z</time>
      </trkpt>
      <trkpt lat="62.665736014065" lon="17.846963935626">
        <ele>0.6</ele>
        <time>2017-10-18T19:26:04Z</time>
      </trkpt>
      <trkpt lat="62.665713550573" lon="17.84704909573">
        <ele>0.8</ele>
        <time>2017-10-18T19:26:05Z</time>
      </trkpt>
      <trkpt lat="62.665690416529" lon="17.847134339653">
        <ele>0.8</ele>
        <time>2017-10-18T19:26:06Z</time>
      </trkpt>
      <trkpt lat="62.665664432639" lon="17.847222517241">
        <ele>0.8</ele>
        <time>2017-10-18T19:26:07Z</time>
      </trkpt>
      <trkpt lat="62.665638197292" lon="17.8473114492">
        <ele>0.8</ele>
        <time>2017-10-18T19:26:08Z</time>
      </trkpt>
      <trkpt lat="62.66560902828" lon="17.847413792199">
        <ele>1</ele>
        <time>2017-10-18T19:26:09Z</time>
      </trkpt>
      <trkpt lat="62.665579440173" lon="17.847526109659">
        <ele>1</ele>
        <time>2017-10-18T19:26:10Z</time>
      </trkpt>
      <trkpt lat="62.665547756591" lon="17.847649910322">
        <ele>1</ele>
        <time>2017-10-18T19:26:11Z</time>
      </trkpt>
      <trkpt lat="62.665519006674" lon="17.847774884451">
        <ele>0.8</ele>
        <time>2017-10-18T19:26:12Z</time>
      </trkpt>
      <trkpt lat="62.665492771327" lon="17.84789734401">
        <ele>0.8</ele>
        <time>2017-10-18T19:26:13Z</time>
      </trkpt>
      <trkpt lat="62.66546234503" lon="17.848031538229">
        <ele>0.6</ele>
        <time>2017-10-18T19:26:14Z</time>
      </trkpt>
      <trkpt lat="62.665432421647" lon="17.848157434367">
        <ele>0.4</ele>
        <time>2017-10-18T19:26:15Z</time>
      </trkpt>
      <trkpt lat="62.665404426101" lon="17.848273356044">
        <ele>0.4</ele>
        <time>2017-10-18T19:26:16Z</time>
      </trkpt>
      <trkpt lat="62.665373245433" lon="17.848401012381">
        <ele>0.4</ele>
        <time>2017-10-18T19:26:17Z</time>
      </trkpt>
      <trkpt lat="62.66534583662" lon="17.848512156375">
        <ele>0.2</ele>
        <time>2017-10-18T19:26:18Z</time>
      </trkpt>
      <trkpt lat="62.665313231029" lon="17.848635621762">
        <ele>0.2</ele>
        <time>2017-10-18T19:26:19Z</time>
      </trkpt>
      <trkpt lat="62.66528381056" lon="17.848748525955">
        <ele>0.2</ele>
        <time>2017-10-18T19:26:20Z</time>
      </trkpt>
      <trkpt lat="62.66525279753" lon="17.84886126251">
        <ele>0.2</ele>
        <time>2017-10-18T19:26:21Z</time>
      </trkpt>
      <trkpt lat="62.665221868319" lon="17.848969808115">
        <ele>0.4</ele>
        <time>2017-10-18T19:26:22Z</time>
      </trkpt>
      <trkpt lat="62.665190268556" lon="17.849078856634">
        <ele>0.4</ele>
        <time>2017-10-18T19:26:23Z</time>
      </trkpt>
      <trkpt lat="62.665156657137" lon="17.849194443035">
        <ele>0.4</ele>
        <time>2017-10-18T19:26:24Z</time>
      </trkpt>
      <trkpt lat="62.665120782605" lon="17.849319249526">
        <ele>0.4</ele>
        <time>2017-10-18T19:26:25Z</time>
      </trkpt>
      <trkpt lat="62.665086416815" lon="17.849435087384">
        <ele>0.4</ele>
        <time>2017-10-18T19:26:26Z</time>
      </trkpt>
      <trkpt lat="62.665048949722" lon="17.849561905531">
        <ele>0.4</ele>
        <time>2017-10-18T19:26:27Z</time>
      </trkpt>
      <trkpt lat="62.665015086846" lon="17.849669445308">
        <ele>0.4</ele>
        <time>2017-10-18T19:26:28Z</time>
      </trkpt>
      <trkpt lat="62.664971249509" lon="17.849794670894">
        <ele>0.2</ele>
        <time>2017-10-18T19:26:29Z</time>
      </trkpt>
      <trkpt lat="62.664929423828" lon="17.849918974471">
        <ele>0</ele>
        <time>2017-10-18T19:26:30Z</time>
      </trkpt>
      <trkpt lat="62.664888101061" lon="17.850039254736">
        <ele>0</ele>
        <time>2017-10-18T19:26:31Z</time>
      </trkpt>
      <trkpt lat="62.664844515181" lon="17.850163055399">
        <ele>0</ele>
        <time>2017-10-18T19:26:32Z</time>
      </trkpt>
      <trkpt lat="62.664802102767" lon="17.850278893257">
        <ele>0</ele>
        <time>2017-10-18T19:26:33Z</time>
      </trkpt>
      <trkpt lat="62.664758600706" lon="17.850396407495">
        <ele>0</ele>
        <time>2017-10-18T19:26:34Z</time>
      </trkpt>
      <trkpt lat="62.66471384136" lon="17.850520794891">
        <ele>0</ele>
        <time>2017-10-18T19:26:35Z</time>
      </trkpt>
      <trkpt lat="62.66467277005" lon="17.850632693256">
        <ele>0</ele>
        <time>2017-10-18T19:26:36Z</time>
      </trkpt>
      <trkpt lat="62.664627926885" lon="17.850750794227">
        <ele>0</ele>
        <time>2017-10-18T19:26:37Z</time>
      </trkpt>
      <trkpt lat="62.664585849747" lon="17.850862524954">
        <ele>0</ele>
        <time>2017-10-18T19:26:38Z</time>
      </trkpt>
      <trkpt lat="62.664544191704" lon="17.850969058903">
        <ele>0</ele>
        <time>2017-10-18T19:26:39Z</time>
      </trkpt>
      <trkpt lat="62.664500605824" lon="17.851079448526">
        <ele>0</ele>
        <time>2017-10-18T19:26:40Z</time>
      </trkpt>
      <trkpt lat="62.664459283057" lon="17.85118556338">
        <ele>0</ele>
        <time>2017-10-18T19:26:41Z</time>
      </trkpt>
      <trkpt lat="62.664417625014" lon="17.851286481456">
        <ele>0</ele>
        <time>2017-10-18T19:26:42Z</time>
      </trkpt>
      <trkpt lat="62.664378397722" lon="17.851374659044">
        <ele>0</ele>
        <time>2017-10-18T19:26:43Z</time>
      </trkpt>
      <trkpt lat="62.664335733851" lon="17.851475158025">
        <ele>0</ele>
        <time>2017-10-18T19:26:44Z</time>
      </trkpt>
      <trkpt lat="62.664295416912" lon="17.851572471884">
        <ele>0</ele>
        <time>2017-10-18T19:26:45Z</time>
      </trkpt>
      <trkpt lat="62.664257363086" lon="17.851664337508">
        <ele>0</ele>
        <time>2017-10-18T19:26:46Z</time>
      </trkpt>
      <trkpt lat="62.664212519921" lon="17.851775816778">
        <ele>0</ele>
        <time>2017-10-18T19:26:47Z</time>
      </trkpt>
      <trkpt lat="62.664174549914" lon="17.851870532248">
        <ele>0</ele>
        <time>2017-10-18T19:26:48Z</time>
      </trkpt>
      <trkpt lat="62.664133227147" lon="17.85198184388">
        <ele>0</ele>
        <time>2017-10-18T19:26:49Z</time>
      </trkpt>
      <trkpt lat="62.66409441895" lon="17.852082510499">
        <ele>0</ele>
        <time>2017-10-18T19:26:50Z</time>
      </trkpt>
      <trkpt lat="62.664052174174" lon="17.852190217914">
        <ele>0</ele>
        <time>2017-10-18T19:26:51Z</time>
      </trkpt>
      <trkpt lat="62.66401395271" lon="17.852290716895">
        <ele>0</ele>
        <time>2017-10-18T19:26:52Z</time>
      </trkpt>
      <trkpt lat="62.663971288839" lon="17.852402866717">
        <ele>0</ele>
        <time>2017-10-18T19:26:53Z</time>
      </trkpt>
      <trkpt lat="62.663933318832" lon="17.852500096757">
        <ele>0</ele>
        <time>2017-10-18T19:26:54Z</time>
      </trkpt>
      <trkpt lat="62.663889481495" lon="17.852611827484">
        <ele>0</ele>
        <time>2017-10-18T19:26:55Z</time>
      </trkpt>
      <trkpt lat="62.66384799109" lon="17.852713499931">
        <ele>0</ele>
        <time>2017-10-18T19:26:56Z</time>
      </trkpt>
      <trkpt lat="62.663805997771" lon="17.852817686948">
        <ele>0</ele>
        <time>2017-10-18T19:26:57Z</time>
      </trkpt>
      <trkpt lat="62.663771129067" lon="17.852904858708">
        <ele>0</ele>
        <time>2017-10-18T19:26:58Z</time>
      </trkpt>
      <trkpt lat="62.663725782988" lon="17.85302036129">
        <ele>0</ele>
        <time>2017-10-18T19:26:59Z</time>
      </trkpt>
      <trkpt lat="62.663686555696" lon="17.853124799764">
        <ele>0</ele>
        <time>2017-10-18T19:27:00Z</time>
      </trkpt>
      <trkpt lat="62.663648250413" lon="17.853223957641">
        <ele>0</ele>
        <time>2017-10-18T19:27:01Z</time>
      </trkpt>
      <trkpt lat="62.663611537691" lon="17.853321187681">
        <ele>0</ele>
        <time>2017-10-18T19:27:02Z</time>
      </trkpt>
      <trkpt lat="62.663573819141" lon="17.853418585359">
        <ele>0</ele>
        <time>2017-10-18T19:27:03Z</time>
      </trkpt>
      <trkpt lat="62.663534927125" lon="17.853515480123">
        <ele>0</ele>
        <time>2017-10-18T19:27:04Z</time>
      </trkpt>
      <trkpt lat="62.663493352901" lon="17.853616984932">
        <ele>0</ele>
        <time>2017-10-18T19:27:05Z</time>
      </trkpt>
      <trkpt lat="62.663454628523" lon="17.853713963515">
        <ele>0</ele>
        <time>2017-10-18T19:27:06Z</time>
      </trkpt>
      <trkpt lat="62.663416407059" lon="17.8538074217">
        <ele>0</ele>
        <time>2017-10-18T19:27:07Z</time>
      </trkpt>
      <trkpt lat="62.663378520871" lon="17.853896940392">
        <ele>0</ele>
        <time>2017-10-18T19:27:08Z</time>
      </trkpt>
      <trkpt lat="62.663338120113" lon="17.853988386921">
        <ele>0</ele>
        <time>2017-10-18T19:27:09Z</time>
      </trkpt>
      <trkpt lat="62.663295959156" lon="17.854077905613">
        <ele>0</ele>
        <time>2017-10-18T19:27:10Z</time>
      </trkpt>
      <trkpt lat="62.663249104335" lon="17.854176560576">
        <ele>0</ele>
        <time>2017-10-18T19:27:11Z</time>
      </trkpt>
      <trkpt lat="62.663207865387" lon="17.854260379576">
        <ele>0</ele>
        <time>2017-10-18T19:27:12Z</time>
      </trkpt>
      <trkpt lat="62.66316570443" lon="17.854342606015">
        <ele>0</ele>
        <time>2017-10-18T19:27:13Z</time>
      </trkpt>
      <trkpt lat="62.663118179057" lon="17.854431789431">
        <ele>0</ele>
        <time>2017-10-18T19:27:14Z</time>
      </trkpt>
      <trkpt lat="62.663073335892" lon="17.854510495472">
        <ele>0</ele>
        <time>2017-10-18T19:27:15Z</time>
      </trkpt>
      <trkpt lat="62.663030336745" lon="17.854580316699">
        <ele>0</ele>
        <time>2017-10-18T19:27:16Z</time>
      </trkpt>
      <trkpt lat="62.662981218811" lon="17.854654328876">
        <ele>0</ele>
        <time>2017-10-18T19:27:17Z</time>
      </trkpt>
      <trkpt lat="62.662936124189" lon="17.854717193126">
        <ele>0</ele>
        <time>2017-10-18T19:27:18Z</time>
      </trkpt>
      <trkpt lat="62.662883988771" lon="17.854779219186">
        <ele>0</ele>
        <time>2017-10-18T19:27:19Z</time>
      </trkpt>
      <trkpt lat="62.662835792846" lon="17.854834875002">
        <ele>0</ele>
        <time>2017-10-18T19:27:20Z</time>
      </trkpt>
      <trkpt lat="62.662787848378" lon="17.854893129207">
        <ele>0</ele>
        <time>2017-10-18T19:27:21Z</time>
      </trkpt>
      <trkpt lat="62.662744430136" lon="17.854948449747">
        <ele>0</ele>
        <time>2017-10-18T19:27:22Z</time>
      </trkpt>
      <trkpt lat="62.662696150392" lon="17.85500687159">
        <ele>0</ele>
        <time>2017-10-18T19:27:23Z</time>
      </trkpt>
      <trkpt lat="62.662648625019" lon="17.855061856854">
        <ele>0</ele>
        <time>2017-10-18T19:27:24Z</time>
      </trkpt>
      <trkpt lat="62.662597663067" lon="17.855120781611">
        <ele>0</ele>
        <time>2017-10-18T19:27:25Z</time>
      </trkpt>
      <trkpt lat="62.662549718599" lon="17.855177778531">
        <ele>0</ele>
        <time>2017-10-18T19:27:26Z</time>
      </trkpt>
      <trkpt lat="62.662503450511" lon="17.855238128211">
        <ele>0</ele>
        <time>2017-10-18T19:27:27Z</time>
      </trkpt>
      <trkpt lat="62.662467408341" lon="17.855296633873">
        <ele>0</ele>
        <time>2017-10-18T19:27:28Z</time>
      </trkpt>
      <trkpt lat="62.662429605972" lon="17.855379698502">
        <ele>0</ele>
        <time>2017-10-18T19:27:29Z</time>
      </trkpt>
      <trkpt lat="62.662407561575" lon="17.855470893574">
        <ele>0</ele>
        <time>2017-10-18T19:27:30Z</time>
      </trkpt>
      <trkpt lat="62.662399095856" lon="17.855569045623">
        <ele>0</ele>
        <time>2017-10-18T19:27:31Z</time>
      </trkpt>
      <trkpt lat="62.662406555747" lon="17.8556682035">
        <ele>0</ele>
        <time>2017-10-18T19:27:32Z</time>
      </trkpt>
      <trkpt lat="62.662425498841" lon="17.855764427712">
        <ele>0</ele>
        <time>2017-10-18T19:27:33Z</time>
      </trkpt>
      <trkpt lat="62.662444441935" lon="17.855865010512">
        <ele>0</ele>
        <time>2017-10-18T19:27:34Z</time>
      </trkpt>
      <trkpt lat="62.662462630658" lon="17.855965174217">
        <ele>0</ele>
        <time>2017-10-18T19:27:35Z</time>
      </trkpt>
      <trkpt lat="62.662529350582" lon="17.85622057071">
        <ele>0</ele>
        <time>2017-10-18T19:27:37Z</time>
      </trkpt>
      <trkpt lat="62.662564051648" lon="17.856304976443">
        <ele>0</ele>
        <time>2017-10-18T19:27:38Z</time>
      </trkpt>
      <trkpt lat="62.662595819049" lon="17.856384520674">
        <ele>0</ele>
        <time>2017-10-18T19:27:39Z</time>
      </trkpt>
      <trkpt lat="62.662622892586" lon="17.856467752941">
        <ele>0</ele>
        <time>2017-10-18T19:27:40Z</time>
      </trkpt>
      <trkpt lat="62.662645356078" lon="17.856554840882">
        <ele>0</ele>
        <time>2017-10-18T19:27:41Z</time>
      </trkpt>
      <trkpt lat="62.66266027586" lon="17.856641006814">
        <ele>0</ele>
        <time>2017-10-18T19:27:42Z</time>
      </trkpt>
      <trkpt lat="62.66266111405" lon="17.856722143606">
        <ele>0</ele>
        <time>2017-10-18T19:27:43Z</time>
      </trkpt>
      <trkpt lat="62.662649295571" lon="17.8568081419">
        <ele>0</ele>
        <time>2017-10-18T19:27:44Z</time>
      </trkpt>
      <trkpt lat="62.662630017201" lon="17.856892966728">
        <ele>0.2</ele>
        <time>2017-10-18T19:27:45Z</time>
      </trkpt>
      <trkpt lat="62.662608894813" lon="17.856970415484">
        <ele>0.4</ele>
        <time>2017-10-18T19:27:46Z</time>
      </trkpt>
      <trkpt lat="62.662585928407" lon="17.857052641923">
        <ele>0.6</ele>
        <time>2017-10-18T19:27:47Z</time>
      </trkpt>
      <trkpt lat="62.66256639858" lon="17.857121876417">
        <ele>1</ele>
        <time>2017-10-18T19:27:48Z</time>
      </trkpt>
      <trkpt lat="62.662544689459" lon="17.857195218042">
        <ele>1.2</ele>
        <time>2017-10-18T19:27:49Z</time>
      </trkpt>
      <trkpt lat="62.662524656718" lon="17.857261518871">
        <ele>1.4</ele>
        <time>2017-10-18T19:27:50Z</time>
      </trkpt>
      <trkpt lat="62.662506384176" lon="17.857329915175">
        <ele>1.6</ele>
        <time>2017-10-18T19:27:51Z</time>
      </trkpt>
      <trkpt lat="62.662489536557" lon="17.857392025054">
        <ele>1.8</ele>
        <time>2017-10-18T19:27:52Z</time>
      </trkpt>
      <trkpt lat="62.662471180196" lon="17.857455727494">
        <ele>1.8</ele>
        <time>2017-10-18T19:27:53Z</time>
      </trkpt>
      <trkpt lat="62.662454332577" lon="17.857517921192">
        <ele>2.2</ele>
        <time>2017-10-18T19:27:54Z</time>
      </trkpt>
      <trkpt lat="62.662437233501" lon="17.85758346765">
        <ele>2.2</ele>
        <time>2017-10-18T19:27:55Z</time>
      </trkpt>
      <trkpt lat="62.662420302063" lon="17.857644320244">
        <ele>2.6</ele>
        <time>2017-10-18T19:27:56Z</time>
      </trkpt>
      <trkpt lat="62.66240211334" lon="17.857704753743">
        <ele>2.8</ele>
        <time>2017-10-18T19:27:57Z</time>
      </trkpt>
      <trkpt lat="62.662383756979" lon="17.857764349052">
        <ele>2.8</ele>
        <time>2017-10-18T19:27:58Z</time>
      </trkpt>
      <trkpt lat="62.662364143333" lon="17.857820843058">
        <ele>3</ele>
        <time>2017-10-18T19:27:59Z</time>
      </trkpt>
      <trkpt lat="62.6623467928" lon="17.857881276557">
        <ele>3.2</ele>
        <time>2017-10-18T19:28:00Z</time>
      </trkpt>
      <trkpt lat="62.662330448095" lon="17.857942967341">
        <ele>3.4</ele>
        <time>2017-10-18T19:28:01Z</time>
      </trkpt>
      <trkpt lat="62.662314187209" lon="17.85800423903">
        <ele>3.4</ele>
        <time>2017-10-18T19:28:02Z</time>
      </trkpt>
      <trkpt lat="62.662297842504" lon="17.85806207414">
        <ele>3.6</ele>
        <time>2017-10-18T19:28:03Z</time>
      </trkpt>
      <trkpt lat="62.662281330161" lon="17.858123513467">
        <ele>3.6</ele>
        <time>2017-10-18T19:28:04Z</time>
      </trkpt>
      <trkpt lat="62.662265069275" lon="17.858194005246">
        <ele>3.8</ele>
        <time>2017-10-18T19:28:05Z</time>
      </trkpt>
      <trkpt lat="62.662250568588" lon="17.858261982455">
        <ele>4</ele>
        <time>2017-10-18T19:28:06Z</time>
      </trkpt>
      <trkpt lat="62.662235900263" lon="17.858330546397">
        <ele>4.2</ele>
        <time>2017-10-18T19:28:07Z</time>
      </trkpt>
      <trkpt lat="62.662223243594" lon="17.858397685416">
        <ele>4.4</ele>
        <time>2017-10-18T19:28:08Z</time>
      </trkpt>
      <trkpt lat="62.662214442599" lon="17.858471613774">
        <ele>4.6</ele>
        <time>2017-10-18T19:28:09Z</time>
      </trkpt>
      <trkpt lat="62.662207150346" lon="17.858551074186">
        <ele>4.6</ele>
        <time>2017-10-18T19:28:10Z</time>
      </trkpt>
      <trkpt lat="62.662198936084" lon="17.858635312281">
        <ele>4.6</ele>
        <time>2017-10-18T19:28:11Z</time>
      </trkpt>
      <trkpt lat="62.662189129261" lon="17.85871586234">
        <ele>4.8</ele>
        <time>2017-10-18T19:28:12Z</time>
      </trkpt>
      <trkpt lat="62.662176556411" lon="17.858787527585">
        <ele>4.8</ele>
        <time>2017-10-18T19:28:13Z</time>
      </trkpt>
      <trkpt lat="62.662162810095" lon="17.858863719056">
        <ele>4.8</ele>
        <time>2017-10-18T19:28:14Z</time>
      </trkpt>
      <trkpt lat="62.662151913625" lon="17.858934713749">
        <ele>4.8</ele>
        <time>2017-10-18T19:28:15Z</time>
      </trkpt>
      <trkpt lat="62.662143867001" lon="17.858999841112">
        <ele>4.8</ele>
        <time>2017-10-18T19:28:16Z</time>
      </trkpt>
      <trkpt lat="62.662136826205" lon="17.859074440022">
        <ele>4.6</ele>
        <time>2017-10-18T19:28:17Z</time>
      </trkpt>
      <trkpt lat="62.662131461789" lon="17.859145686172">
        <ele>4.6</ele>
        <time>2017-10-18T19:28:18Z</time>
      </trkpt>
      <trkpt lat="62.662124504812" lon="17.859226068593">
        <ele>4.6</ele>
        <time>2017-10-18T19:28:19Z</time>
      </trkpt>
      <trkpt lat="62.662117296378" lon="17.859303852625">
        <ele>4.8</ele>
        <time>2017-10-18T19:28:20Z</time>
      </trkpt>
      <trkpt lat="62.662110087944" lon="17.859384570322">
        <ele>4.8</ele>
        <time>2017-10-18T19:28:21Z</time>
      </trkpt>
      <trkpt lat="62.662101957501" lon="17.859460426517">
        <ele>4.8</ele>
        <time>2017-10-18T19:28:22Z</time>
      </trkpt>
      <trkpt lat="62.662092569773" lon="17.859542569137">
        <ele>5</ele>
        <time>2017-10-18T19:28:23Z</time>
      </trkpt>
      <trkpt lat="62.662084606968" lon="17.859623538291">
        <ele>5</ele>
        <time>2017-10-18T19:28:24Z</time>
      </trkpt>
      <trkpt lat="62.662076392706" lon="17.859711464422">
        <ele>5</ele>
        <time>2017-10-18T19:28:25Z</time>
      </trkpt>
      <trkpt lat="62.662067340254" lon="17.859794026137">
        <ele>5.2</ele>
        <time>2017-10-18T19:28:26Z</time>
      </trkpt>
      <trkpt lat="62.662058790716" lon="17.859876001119">
        <ele>5.2</ele>
        <time>2017-10-18T19:28:27Z</time>
      </trkpt>
      <trkpt lat="62.662051079368" lon="17.859949258925">
        <ele>5.2</ele>
        <time>2017-10-18T19:28:28Z</time>
      </trkpt>
      <trkpt lat="62.662038003604" lon="17.860038945255">
        <ele>5.2</ele>
        <time>2017-10-18T19:28:29Z</time>
      </trkpt>
      <trkpt lat="62.662024760202" lon="17.860117064563">
        <ele>5.4</ele>
        <time>2017-10-18T19:28:30Z</time>
      </trkpt>
      <trkpt lat="62.662009672782" lon="17.860194680957">
        <ele>5.6</ele>
        <time>2017-10-18T19:28:31Z</time>
      </trkpt>
      <trkpt lat="62.661992908982" lon="17.860272548808">
        <ele>5.6</ele>
        <time>2017-10-18T19:28:32Z</time>
      </trkpt>
      <trkpt lat="62.661976731915" lon="17.860348572641">
        <ele>5.8</ele>
        <time>2017-10-18T19:28:33Z</time>
      </trkpt>
      <trkpt lat="62.661959716658" lon="17.860430547623">
        <ele>5.8</ele>
        <time>2017-10-18T19:28:34Z</time>
      </trkpt>
      <trkpt lat="62.661938342813" lon="17.860509840397">
        <ele>5.8</ele>
        <time>2017-10-18T19:28:35Z</time>
      </trkpt>
      <trkpt lat="62.661913867665" lon="17.860603969134">
        <ele>5.8</ele>
        <time>2017-10-18T19:28:36Z</time>
      </trkpt>
      <trkpt lat="62.661889224879" lon="17.860690051247">
        <ele>5.8</ele>
        <time>2017-10-18T19:28:37Z</time>
      </trkpt>
      <trkpt lat="62.661863660084" lon="17.860771355677">
        <ele>5.8</ele>
        <time>2017-10-18T19:28:38Z</time>
      </trkpt>
      <trkpt lat="62.661834491072" lon="17.860857018695">
        <ele>5.6</ele>
        <time>2017-10-18T19:28:39Z</time>
      </trkpt>
      <trkpt lat="62.661803729499" lon="17.860947291758">
        <ele>5.6</ele>
        <time>2017-10-18T19:28:40Z</time>
      </trkpt>
      <trkpt lat="62.661770285718" lon="17.86105022149">
        <ele>5.6</ele>
        <time>2017-10-18T19:28:41Z</time>
      </trkpt>
      <trkpt lat="62.661737512489" lon="17.861148457358">
        <ele>5.4</ele>
        <time>2017-10-18T19:28:42Z</time>
      </trkpt>
      <trkpt lat="62.661702811423" lon="17.861246441769">
        <ele>5.4</ele>
        <time>2017-10-18T19:28:43Z</time>
      </trkpt>
      <trkpt lat="62.661663500312" lon="17.861348365673">
        <ele>5.2</ele>
        <time>2017-10-18T19:28:44Z</time>
      </trkpt>
      <trkpt lat="62.661623770106" lon="17.861445679532">
        <ele>5</ele>
        <time>2017-10-18T19:28:45Z</time>
      </trkpt>
      <trkpt lat="62.661582447339" lon="17.861529917627">
        <ele>5</ele>
        <time>2017-10-18T19:28:46Z</time>
      </trkpt>
      <trkpt lat="62.661533832319" lon="17.861620023052">
        <ele>4.8</ele>
        <time>2017-10-18T19:28:47Z</time>
      </trkpt>
      <trkpt lat="62.661486306946" lon="17.861702836224">
        <ele>4.6</ele>
        <time>2017-10-18T19:28:48Z</time>
      </trkpt>
      <trkpt lat="62.661435512632" lon="17.861788415423">
        <ele>4.4</ele>
        <time>2017-10-18T19:28:49Z</time>
      </trkpt>
      <trkpt lat="62.661389412182" lon="17.861859829211">
        <ele>4.2</ele>
        <time>2017-10-18T19:28:50Z</time>
      </trkpt>
      <trkpt lat="62.661340461886" lon="17.861930488628">
        <ele>4</ele>
        <time>2017-10-18T19:28:51Z</time>
      </trkpt>
      <trkpt lat="62.661295115807" lon="17.861992933783">
        <ele>3.6</ele>
        <time>2017-10-18T19:28:52Z</time>
      </trkpt>
      <trkpt lat="62.661238118887" lon="17.862067365055">
        <ele>3.2</ele>
        <time>2017-10-18T19:28:53Z</time>
      </trkpt>
      <trkpt lat="62.661187911306" lon="17.862129139658">
        <ele>3</ele>
        <time>2017-10-18T19:28:54Z</time>
      </trkpt>
      <trkpt lat="62.661132842223" lon="17.862193009736">
        <ele>2.8</ele>
        <time>2017-10-18T19:28:55Z</time>
      </trkpt>
      <trkpt lat="62.661081628814" lon="17.862247408267">
        <ele>2.8</ele>
        <time>2017-10-18T19:28:56Z</time>
      </trkpt>
      <trkpt lat="62.661029325758" lon="17.862297615848">
        <ele>2.8</ele>
        <time>2017-10-18T19:28:57Z</time>
      </trkpt>
      <trkpt lat="62.660981800385" lon="17.862341285547">
        <ele>2.8</ele>
        <time>2017-10-18T19:28:58Z</time>
      </trkpt>
      <trkpt lat="62.660921953619" lon="17.862397695734">
        <ele>2.8</ele>
        <time>2017-10-18T19:28:59Z</time>
      </trkpt>
      <trkpt lat="62.660870153477" lon="17.862445472564">
        <ele>2.8</ele>
        <time>2017-10-18T19:29:00Z</time>
      </trkpt>
      <trkpt lat="62.660819023887" lon="17.862493249394">
        <ele>2.8</ele>
        <time>2017-10-18T19:29:01Z</time>
      </trkpt>
      <trkpt lat="62.660769570677" lon="17.862544043708">
        <ele>2.8</ele>
        <time>2017-10-18T19:29:02Z</time>
      </trkpt>
      <trkpt lat="62.660724476055" lon="17.862589557425">
        <ele>2.8</ele>
        <time>2017-10-18T19:29:03Z</time>
      </trkpt>
      <trkpt lat="62.660677202139" lon="17.862635657875">
        <ele>2.8</ele>
        <time>2017-10-18T19:29:04Z</time>
      </trkpt>
      <trkpt lat="62.660625485816" lon="17.862682931791">
        <ele>2.8</ele>
        <time>2017-10-18T19:29:05Z</time>
      </trkpt>
      <trkpt lat="62.660576116425" lon="17.862728361689">
        <ele>2.8</ele>
        <time>2017-10-18T19:29:06Z</time>
      </trkpt>
      <trkpt lat="62.660527752862" lon="17.862777647261">
        <ele>2.8</ele>
        <time>2017-10-18T19:29:07Z</time>
      </trkpt>
      <trkpt lat="62.660481987688" lon="17.86282550791">
        <ele>3</ele>
        <time>2017-10-18T19:29:08Z</time>
      </trkpt>
      <trkpt lat="62.660434546134" lon="17.862875296396">
        <ele>3</ele>
        <time>2017-10-18T19:29:09Z</time>
      </trkpt>
      <trkpt lat="62.6603854282" lon="17.862925923072">
        <ele>2.8</ele>
        <time>2017-10-18T19:29:10Z</time>
      </trkpt>
      <trkpt lat="62.6603351368" lon="17.862975711558">
        <ele>2.8</ele>
        <time>2017-10-18T19:29:11Z</time>
      </trkpt>
      <trkpt lat="62.660286689418" lon="17.863023656026">
        <ele>2.8</ele>
        <time>2017-10-18T19:29:12Z</time>
      </trkpt>
      <trkpt lat="62.660241678615" lon="17.863067577182">
        <ele>2.8</ele>
        <time>2017-10-18T19:29:13Z</time>
      </trkpt>
      <trkpt lat="62.660190632844" lon="17.86311552165">
        <ele>2.8</ele>
        <time>2017-10-18T19:29:14Z</time>
      </trkpt>
      <trkpt lat="62.660142520738" lon="17.863164555765">
        <ele>2.8</ele>
        <time>2017-10-18T19:29:15Z</time>
      </trkpt>
      <trkpt lat="62.660097258478" lon="17.863206800541">
        <ele>3</ele>
        <time>2017-10-18T19:29:16Z</time>
      </trkpt>
      <trkpt lat="62.66004512306" lon="17.863254577371">
        <ele>3</ele>
        <time>2017-10-18T19:29:17Z</time>
      </trkpt>
      <trkpt lat="62.66000069899" lon="17.863301013097">
        <ele>3.2</ele>
        <time>2017-10-18T19:29:18Z</time>
      </trkpt>
      <trkpt lat="62.659950910504" lon="17.86335692037">
        <ele>3</ele>
        <time>2017-10-18T19:29:19Z</time>
      </trkpt>
      <trkpt lat="62.659903217493" lon="17.863406876494">
        <ele>3</ele>
        <time>2017-10-18T19:29:20Z</time>
      </trkpt>
      <trkpt lat="62.659855608301" lon="17.863457419351">
        <ele>3</ele>
        <time>2017-10-18T19:29:21Z</time>
      </trkpt>
      <trkpt lat="62.659811687145" lon="17.863509387131">
        <ele>2.8</ele>
        <time>2017-10-18T19:29:22Z</time>
      </trkpt>
      <trkpt lat="62.659763910315" lon="17.8635723352">
        <ele>2.8</ele>
        <time>2017-10-18T19:29:23Z</time>
      </trkpt>
      <trkpt lat="62.659718564236" lon="17.863635450907">
        <ele>2.8</ele>
        <time>2017-10-18T19:29:24Z</time>
      </trkpt>
      <trkpt lat="62.659670033035" lon="17.863707786704">
        <ele>2.6</ele>
        <time>2017-10-18T19:29:25Z</time>
      </trkpt>
      <trkpt lat="62.659625357508" lon="17.863779703406">
        <ele>2.6</ele>
        <time>2017-10-18T19:29:26Z</time>
      </trkpt>
      <trkpt lat="62.659581268714" lon="17.863853547945">
        <ele>2.4</ele>
        <time>2017-10-18T19:29:27Z</time>
      </trkpt>
      <trkpt lat="62.659544472173" lon="17.863920686964">
        <ele>2.4</ele>
        <time>2017-10-18T19:29:28Z</time>
      </trkpt>
      <trkpt lat="62.659499293732" lon="17.864011127665">
        <ele>2.2</ele>
        <time>2017-10-18T19:29:29Z</time>
      </trkpt>
      <trkpt lat="62.659460569354" lon="17.864095617217">
        <ele>2.2</ele>
        <time>2017-10-18T19:29:30Z</time>
      </trkpt>
      <trkpt lat="62.659422431709" lon="17.864181112597">
        <ele>2</ele>
        <time>2017-10-18T19:29:31Z</time>
      </trkpt>
      <trkpt lat="62.65938546753" lon="17.864268703452">
        <ele>1.8</ele>
        <time>2017-10-18T19:29:32Z</time>
      </trkpt>
      <trkpt lat="62.659352610482" lon="17.864355372298">
        <ele>1.8</ele>
        <time>2017-10-18T19:29:33Z</time>
      </trkpt>
      <trkpt lat="62.659321513633" lon="17.864449417216">
        <ele>1.6</ele>
        <time>2017-10-18T19:29:34Z</time>
      </trkpt>
      <trkpt lat="62.659288069852" lon="17.864550922025">
        <ele>1.6</ele>
        <time>2017-10-18T19:29:35Z</time>
      </trkpt>
      <trkpt lat="62.659257392098" lon="17.864642871468">
        <ele>1.6</ele>
        <time>2017-10-18T19:29:36Z</time>
      </trkpt>
      <trkpt lat="62.659228306905" lon="17.864737670757">
        <ele>1.6</ele>
        <time>2017-10-18T19:29:37Z</time>
      </trkpt>
      <trkpt lat="62.6592035803" lon="17.864829536381">
        <ele>1.4</ele>
        <time>2017-10-18T19:29:38Z</time>
      </trkpt>
      <trkpt lat="62.659178937514" lon="17.864927101697">
        <ele>1.2</ele>
        <time>2017-10-18T19:29:39Z</time>
      </trkpt>
      <trkpt lat="62.659154881461" lon="17.865025924298">
        <ele>1.2</ele>
        <time>2017-10-18T19:29:40Z</time>
      </trkpt>
      <trkpt lat="62.659131831236" lon="17.865130362772">
        <ele>1.2</ele>
        <time>2017-10-18T19:29:41Z</time>
      </trkpt>
      <trkpt lat="62.659113307237" lon="17.865230191201">
        <ele>1.2</ele>
        <time>2017-10-18T19:29:42Z</time>
      </trkpt>
      <trkpt lat="62.659097297808" lon="17.865324236119">
        <ele>1.2</ele>
        <time>2017-10-18T19:29:43Z</time>
      </trkpt>
      <trkpt lat="62.659083048578" lon="17.865426160023">
        <ele>1</ele>
        <time>2017-10-18T19:29:44Z</time>
      </trkpt>
      <trkpt lat="62.659070978642" lon="17.865521294588">
        <ele>1</ele>
        <time>2017-10-18T19:29:45Z</time>
      </trkpt>
      <trkpt lat="62.659060417448" lon="17.865610142728">
        <ele>1</ele>
        <time>2017-10-18T19:29:46Z</time>
      </trkpt>
      <trkpt lat="62.659050442987" lon="17.865709803519">
        <ele>1</ele>
        <time>2017-10-18T19:29:47Z</time>
      </trkpt>
      <trkpt lat="62.659044240381" lon="17.865800998591">
        <ele>1</ele>
        <time>2017-10-18T19:29:48Z</time>
      </trkpt>
      <trkpt lat="62.659040217069" lon="17.865903676866">
        <ele>1</ele>
        <time>2017-10-18T19:29:49Z</time>
      </trkpt>
      <trkpt lat="62.659037451042" lon="17.866003170019">
        <ele>1</ele>
        <time>2017-10-18T19:29:50Z</time>
      </trkpt>
      <trkpt lat="62.659033511549" lon="17.86609947805">
        <ele>1</ele>
        <time>2017-10-18T19:29:51Z</time>
      </trkpt>
      <trkpt lat="62.659029655875" lon="17.866185560163">
        <ele>0.8</ele>
        <time>2017-10-18T19:29:52Z</time>
      </trkpt>
      <trkpt lat="62.659027728038" lon="17.866273318656">
        <ele>0.8</ele>
        <time>2017-10-18T19:29:53Z</time>
      </trkpt>
      <trkpt lat="62.659025548744" lon="17.866364597547">
        <ele>0.8</ele>
        <time>2017-10-18T19:29:54Z</time>
      </trkpt>
      <trkpt lat="62.659023872364" lon="17.866459564474">
        <ele>0.8</ele>
        <time>2017-10-18T19:29:55Z</time>
      </trkpt>
      <trkpt lat="62.659022866536" lon="17.866545981863">
        <ele>0.8</ele>
        <time>2017-10-18T19:29:56Z</time>
      </trkpt>
      <trkpt lat="62.659024626735" lon="17.866631561062">
        <ele>1</ele>
        <time>2017-10-18T19:29:57Z</time>
      </trkpt>
      <trkpt lat="62.659027057486" lon="17.866704148316">
        <ele>1</ele>
        <time>2017-10-18T19:29:58Z</time>
      </trkpt>
      <trkpt lat="62.659028985323" lon="17.866796181578">
        <ele>1.2</ele>
        <time>2017-10-18T19:29:59Z</time>
      </trkpt>
      <trkpt lat="62.659030242608" lon="17.866875222895">
        <ele>1.2</ele>
        <time>2017-10-18T19:30:00Z</time>
      </trkpt>
      <trkpt lat="62.659032505721" lon="17.866953761298">
        <ele>1.4</ele>
        <time>2017-10-18T19:30:01Z</time>
      </trkpt>
      <trkpt lat="62.659033511549" lon="17.867030958597">
        <ele>1.4</ele>
        <time>2017-10-18T19:30:02Z</time>
      </trkpt>
      <trkpt lat="62.659034182101" lon="17.867104216403">
        <ele>1.6</ele>
        <time>2017-10-18T19:30:03Z</time>
      </trkpt>
      <trkpt lat="62.65903510411" lon="17.867182670987">
        <ele>1.6</ele>
        <time>2017-10-18T19:30:04Z</time>
      </trkpt>
      <trkpt lat="62.659035607024" lon="17.867267244358">
        <ele>1.8</ele>
        <time>2017-10-18T19:30:05Z</time>
      </trkpt>
      <trkpt lat="62.659034349739" lon="17.867345531304">
        <ele>1.8</ele>
        <time>2017-10-18T19:30:06Z</time>
      </trkpt>
      <trkpt lat="62.659035187929" lon="17.867422393327">
        <ele>2</ele>
        <time>2017-10-18T19:30:07Z</time>
      </trkpt>
      <trkpt lat="62.659035355567" lon="17.8674950644">
        <ele>2</ele>
        <time>2017-10-18T19:30:08Z</time>
      </trkpt>
      <trkpt lat="62.659033260092" lon="17.867573435165">
        <ele>2</ele>
        <time>2017-10-18T19:30:09Z</time>
      </trkpt>
      <trkpt lat="62.65903091316" lon="17.867653566129">
        <ele>2.2</ele>
        <time>2017-10-18T19:30:10Z</time>
      </trkpt>
      <trkpt lat="62.659031332255" lon="17.867736798396">
        <ele>2.4</ele>
        <time>2017-10-18T19:30:11Z</time>
      </trkpt>
      <trkpt lat="62.659031835169" lon="17.867813911876">
        <ele>2.4</ele>
        <time>2017-10-18T19:30:12Z</time>
      </trkpt>
      <trkpt lat="62.659030996979" lon="17.867885996216">
        <ele>2.6</ele>
        <time>2017-10-18T19:30:13Z</time>
      </trkpt>
      <trkpt lat="62.659028817685" lon="17.867967300646">
        <ele>2.8</ele>
        <time>2017-10-18T19:30:14Z</time>
      </trkpt>
      <trkpt lat="62.659025381106" lon="17.868044581764">
        <ele>3.2</ele>
        <time>2017-10-18T19:30:15Z</time>
      </trkpt>
      <trkpt lat="62.659021609251" lon="17.868117755751">
        <ele>3.4</ele>
        <time>2017-10-18T19:30:16Z</time>
      </trkpt>
      <trkpt lat="62.659016915387" lon="17.868198473448">
        <ele>3.8</ele>
        <time>2017-10-18T19:30:17Z</time>
      </trkpt>
      <trkpt lat="62.659013981722" lon="17.868268797589">
        <ele>4</ele>
        <time>2017-10-18T19:30:18Z</time>
      </trkpt>
      <trkpt lat="62.659008868763" lon="17.868352616589">
        <ele>4.4</ele>
        <time>2017-10-18T19:30:19Z</time>
      </trkpt>
      <trkpt lat="62.659003169071" lon="17.868433669562">
        <ele>4.6</ele>
        <time>2017-10-18T19:30:20Z</time>
      </trkpt>
      <trkpt lat="62.658997720836" lon="17.868513716707">
        <ele>4.8</ele>
        <time>2017-10-18T19:30:21Z</time>
      </trkpt>
      <trkpt lat="62.658991602049" lon="17.868590662549">
        <ele>5</ele>
        <time>2017-10-18T19:30:22Z</time>
      </trkpt>
      <trkpt lat="62.6589856509" lon="17.868674481549">
        <ele>5</ele>
        <time>2017-10-18T19:30:23Z</time>
      </trkpt>
      <trkpt lat="62.658979113018" lon="17.868759306377">
        <ele>5.2</ele>
        <time>2017-10-18T19:30:24Z</time>
      </trkpt>
      <trkpt lat="62.658972323679" lon="17.868855782046">
        <ele>5.4</ele>
        <time>2017-10-18T19:30:25Z</time>
      </trkpt>
      <trkpt lat="62.658966121073" lon="17.868946222747">
        <ele>5.6</ele>
        <time>2017-10-18T19:30:26Z</time>
      </trkpt>
      <trkpt lat="62.658959080277" lon="17.869037334">
        <ele>5.6</ele>
        <time>2017-10-18T19:30:27Z</time>
      </trkpt>
      <trkpt lat="62.658951117472" lon="17.869120147172">
        <ele>5.6</ele>
        <time>2017-10-18T19:30:28Z</time>
      </trkpt>
      <trkpt lat="62.658940556278" lon="17.869225172379">
        <ele>5.8</ele>
        <time>2017-10-18T19:30:29Z</time>
      </trkpt>
      <trkpt lat="62.658929743627" lon="17.869321564229">
        <ele>5.8</ele>
        <time>2017-10-18T19:30:30Z</time>
      </trkpt>
      <trkpt lat="62.65891943389" lon="17.869420722106">
        <ele>5.8</ele>
        <time>2017-10-18T19:30:31Z</time>
      </trkpt>
      <trkpt lat="62.65890937561" lon="17.869521304906">
        <ele>5.6</ele>
        <time>2017-10-18T19:30:32Z</time>
      </trkpt>
      <trkpt lat="62.658901161348" lon="17.869619373136">
        <ele>5.6</ele>
        <time>2017-10-18T19:30:33Z</time>
      </trkpt>
      <trkpt lat="62.658891689801" lon="17.869722554325">
        <ele>5.6</ele>
        <time>2017-10-18T19:30:34Z</time>
      </trkpt>
      <trkpt lat="62.658879703684" lon="17.869832943948">
        <ele>5.6</ele>
        <time>2017-10-18T19:30:35Z</time>
      </trkpt>
      <trkpt lat="62.658866544101" lon="17.869937717698">
        <ele>5.6</ele>
        <time>2017-10-18T19:30:36Z</time>
      </trkpt>
      <trkpt lat="62.658853719794" lon="17.870044335466">
        <ele>5.8</ele>
        <time>2017-10-18T19:30:37Z</time>
      </trkpt>
      <trkpt lat="62.658840979306" lon="17.87014458299">
        <ele>5.6</ele>
        <time>2017-10-18T19:30:38Z</time>
      </trkpt>
      <trkpt lat="62.658826813895" lon="17.870249608197">
        <ele>5.6</ele>
        <time>2017-10-18T19:30:39Z</time>
      </trkpt>
      <trkpt lat="62.658810888285" lon="17.870352202653">
        <ele>5.8</ele>
        <time>2017-10-18T19:30:40Z</time>
      </trkpt>
      <trkpt lat="62.658793370114" lon="17.870456892584">
        <ele>5.8</ele>
        <time>2017-10-18T19:30:41Z</time>
      </trkpt>
      <trkpt lat="62.658777863599" lon="17.870554290262">
        <ele>5.8</ele>
        <time>2017-10-18T19:30:42Z</time>
      </trkpt>
      <trkpt lat="62.658761183618" lon="17.870642635488">
        <ele>6</ele>
        <time>2017-10-18T19:30:43Z</time>
      </trkpt>
      <trkpt lat="62.658741821429" lon="17.870738943519">
        <ele>6.2</ele>
        <time>2017-10-18T19:30:44Z</time>
      </trkpt>
      <trkpt lat="62.658722794516" lon="17.870829803315">
        <ele>6.4</ele>
        <time>2017-10-18T19:30:45Z</time>
      </trkpt>
      <trkpt lat="62.658705443983" lon="17.870913370858">
        <ele>6.6</ele>
        <time>2017-10-18T19:30:46Z</time>
      </trkpt>
      <trkpt lat="62.658685662699" lon="17.871006829043">
        <ele>6.8</ele>
        <time>2017-10-18T19:30:47Z</time>
      </trkpt>
      <trkpt lat="62.658669485632" lon="17.871083607247">
        <ele>7</ele>
        <time>2017-10-18T19:30:48Z</time>
      </trkpt>
      <trkpt lat="62.658652638013" lon="17.871169270265">
        <ele>7.2</ele>
        <time>2017-10-18T19:30:49Z</time>
      </trkpt>
      <trkpt lat="62.658635958032" lon="17.871250658514">
        <ele>7.4</ele>
        <time>2017-10-18T19:30:50Z</time>
      </trkpt>
      <trkpt lat="62.658619780965" lon="17.871327352899">
        <ele>7.6</ele>
        <time>2017-10-18T19:30:51Z</time>
      </trkpt>
      <trkpt lat="62.658605447916" lon="17.871397006488">
        <ele>7.8</ele>
        <time>2017-10-18T19:30:52Z</time>
      </trkpt>
      <trkpt lat="62.658590444315" lon="17.871471605398">
        <ele>7.8</ele>
        <time>2017-10-18T19:30:53Z</time>
      </trkpt>
      <trkpt lat="62.658577033275" lon="17.871540420797">
        <ele>8</ele>
        <time>2017-10-18T19:30:54Z</time>
      </trkpt>
      <trkpt lat="62.65856236495" lon="17.871613594784">
        <ele>8</ele>
        <time>2017-10-18T19:30:55Z</time>
      </trkpt>
      <trkpt lat="62.658548367177" lon="17.871680901441">
        <ele>8.2</ele>
        <time>2017-10-18T19:30:56Z</time>
      </trkpt>
      <trkpt lat="62.658533531214" lon="17.871745442071">
        <ele>8.6</ele>
        <time>2017-10-18T19:30:57Z</time>
      </trkpt>
      <trkpt lat="62.658518359975" lon="17.871808809235">
        <ele>8.8</ele>
        <time>2017-10-18T19:30:58Z</time>
      </trkpt>
      <trkpt lat="62.658505703306" lon="17.871871002933">
        <ele>9.2</ele>
        <time>2017-10-18T19:30:59Z</time>
      </trkpt>
      <trkpt lat="62.658492962818" lon="17.871933028993">
        <ele>9.6</ele>
        <time>2017-10-18T19:31:00Z</time>
      </trkpt>
      <trkpt lat="62.658478294493" lon="17.871995725605">
        <ele>10.2</ele>
        <time>2017-10-18T19:31:01Z</time>
      </trkpt>
      <trkpt lat="62.658464045263" lon="17.872058589855">
        <ele>10.6</ele>
        <time>2017-10-18T19:31:02Z</time>
      </trkpt>
      <trkpt lat="62.658451304775" lon="17.872119693906">
        <ele>11</ele>
        <time>2017-10-18T19:31:03Z</time>
      </trkpt>
      <trkpt lat="62.658437055545" lon="17.872184569812">
        <ele>11.4</ele>
        <time>2017-10-18T19:31:04Z</time>
      </trkpt>
      <trkpt lat="62.658420627021" lon="17.872252966116">
        <ele>11.8</ele>
        <time>2017-10-18T19:31:05Z</time>
      </trkpt>
      <trkpt lat="62.658405036687" lon="17.872318512574">
        <ele>12</ele>
        <time>2017-10-18T19:31:06Z</time>
      </trkpt>
      <trkpt lat="62.658387434697" lon="17.872383639937">
        <ele>12.4</ele>
        <time>2017-10-18T19:31:07Z</time>
      </trkpt>
      <trkpt lat="62.658369497431" lon="17.872445833635">
        <ele>12.6</ele>
        <time>2017-10-18T19:31:08Z</time>
      </trkpt>
      <trkpt lat="62.658348123586" lon="17.872508362609">
        <ele>12.6</ele>
        <time>2017-10-18T19:31:09Z</time>
      </trkpt>
      <trkpt lat="62.658324821904" lon="17.872573154696">
        <ele>12.8</ele>
        <time>2017-10-18T19:31:10Z</time>
      </trkpt>
      <trkpt lat="62.65830001148" lon="17.872643311199">
        <ele>13</ele>
        <time>2017-10-18T19:31:11Z</time>
      </trkpt>
      <trkpt lat="62.658275033418" lon="17.872709947304">
        <ele>13.2</ele>
        <time>2017-10-18T19:31:12Z</time>
      </trkpt>
      <trkpt lat="62.658249133347" lon="17.872770548441">
        <ele>13.2</ele>
        <time>2017-10-18T19:31:13Z</time>
      </trkpt>
      <trkpt lat="62.658217952679" lon="17.872828886465">
        <ele>13.4</ele>
        <time>2017-10-18T19:31:14Z</time>
      </trkpt>
      <trkpt lat="62.658187777839" lon="17.872885380471">
        <ele>13.4</ele>
        <time>2017-10-18T19:31:15Z</time>
      </trkpt>
      <trkpt lat="62.658159866112" lon="17.872939779002">
        <ele>13.6</ele>
        <time>2017-10-18T19:31:16Z</time>
      </trkpt>
      <trkpt lat="62.658128098711" lon="17.872998955216">
        <ele>13.6</ele>
        <time>2017-10-18T19:31:17Z</time>
      </trkpt>
      <trkpt lat="62.658099264975" lon="17.873047905512">
        <ele>13.8</ele>
        <time>2017-10-18T19:31:18Z</time>
      </trkpt>
      <trkpt lat="62.658066407927" lon="17.873101633491">
        <ele>13.8</ele>
        <time>2017-10-18T19:31:19Z</time>
      </trkpt>
      <trkpt lat="62.65803598163" lon="17.873152176348">
        <ele>14</ele>
        <time>2017-10-18T19:31:20Z</time>
      </trkpt>
      <trkpt lat="62.65800664498" lon="17.873205485232">
        <ele>14.2</ele>
        <time>2017-10-18T19:31:21Z</time>
      </trkpt>
      <trkpt lat="62.657978817072" lon="17.873255692813">
        <ele>14.4</ele>
        <time>2017-10-18T19:31:22Z</time>
      </trkpt>
      <trkpt lat="62.657948977508" lon="17.873308498783">
        <ele>14.6</ele>
        <time>2017-10-18T19:31:23Z</time>
      </trkpt>
      <trkpt lat="62.657919305582" lon="17.873360047468">
        <ele>14.8</ele>
        <time>2017-10-18T19:31:24Z</time>
      </trkpt>
      <trkpt lat="62.657887957276" lon="17.873420061872">
        <ele>15.2</ele>
        <time>2017-10-18T19:31:25Z</time>
      </trkpt>
      <trkpt lat="62.657859542635" lon="17.873482507027">
        <ele>15.2</ele>
        <time>2017-10-18T19:31:26Z</time>
      </trkpt>
      <trkpt lat="62.657832552917" lon="17.873550400417">
        <ele>15.6</ele>
        <time>2017-10-18T19:31:27Z</time>
      </trkpt>
      <trkpt lat="62.657808748321" lon="17.87361217502">
        <ele>15.6</ele>
        <time>2017-10-18T19:31:28Z</time>
      </trkpt>
      <trkpt lat="62.657777567653" lon="17.873691300156">
        <ele>15.8</ele>
        <time>2017-10-18T19:31:29Z</time>
      </trkpt>
      <trkpt lat="62.657751499944" lon="17.873760702288">
        <ele>15.8</ele>
        <time>2017-10-18T19:31:30Z</time>
      </trkpt>
      <trkpt lat="62.657726018968" lon="17.873831864619">
        <ele>16</ele>
        <time>2017-10-18T19:31:31Z</time>
      </trkpt>
      <trkpt lat="62.657700286535" lon="17.873905876796">
        <ele>16</ele>
        <time>2017-10-18T19:31:32Z</time>
      </trkpt>
      <trkpt lat="62.657676817215" lon="17.873976117118">
        <ele>16</ele>
        <time>2017-10-18T19:31:33Z</time>
      </trkpt>
      <trkpt lat="62.657651587696" lon="17.874050632209">
        <ele>16.2</ele>
        <time>2017-10-18T19:31:34Z</time>
      </trkpt>
      <trkpt lat="62.65762526853" lon="17.874128583879">
        <ele>16.2</ele>
        <time>2017-10-18T19:31:35Z</time>
      </trkpt>
      <trkpt lat="62.657602134486" lon="17.874204942988">
        <ele>16.4</ele>
        <time>2017-10-18T19:31:36Z</time>
      </trkpt>
      <trkpt lat="62.657580760641" lon="17.874282307925">
        <ele>16.4</ele>
        <time>2017-10-18T19:31:37Z</time>
      </trkpt>
      <trkpt lat="62.657561482271" lon="17.874355901007">
        <ele>16.6</ele>
        <time>2017-10-18T19:31:38Z</time>
      </trkpt>
      <trkpt lat="62.65754061134" lon="17.874430919012">
        <ele>16.8</ele>
        <time>2017-10-18T19:31:39Z</time>
      </trkpt>
      <trkpt lat="62.6575188184" lon="17.874503506266">
        <ele>17</ele>
        <time>2017-10-18T19:31:40Z</time>
      </trkpt>
      <trkpt lat="62.657495265261" lon="17.874575590606">
        <ele>17.2</ele>
        <time>2017-10-18T19:31:41Z</time>
      </trkpt>
      <trkpt lat="62.657472634131" lon="17.874643651634">
        <ele>17.6</ele>
        <time>2017-10-18T19:31:42Z</time>
      </trkpt>
      <trkpt lat="62.657451511743" lon="17.874707773169">
        <ele>18</ele>
        <time>2017-10-18T19:31:43Z</time>
      </trkpt>
      <trkpt lat="62.657428796794" lon="17.874781030975">
        <ele>18.2</ele>
        <time>2017-10-18T19:31:44Z</time>
      </trkpt>
      <trkpt lat="62.657408261139" lon="17.874850936021">
        <ele>18.4</ele>
        <time>2017-10-18T19:31:45Z</time>
      </trkpt>
      <trkpt lat="62.657390742968" lon="17.874919332325">
        <ele>18.8</ele>
        <time>2017-10-18T19:31:46Z</time>
      </trkpt>
      <trkpt lat="62.657373057159" lon="17.874998122185">
        <ele>19</ele>
        <time>2017-10-18T19:31:47Z</time>
      </trkpt>
      <trkpt lat="62.657358640291" lon="17.875069284516">
        <ele>19</ele>
        <time>2017-10-18T19:31:48Z</time>
      </trkpt>
      <trkpt lat="62.657343552871" lon="17.87514857729">
        <ele>19.4</ele>
        <time>2017-10-18T19:31:49Z</time>
      </trkpt>
      <trkpt lat="62.657329219822" lon="17.875222254191">
        <ele>19.6</ele>
        <time>2017-10-18T19:31:50Z</time>
      </trkpt>
      <trkpt lat="62.657316144058" lon="17.87529358416">
        <ele>19.8</ele>
        <time>2017-10-18T19:31:51Z</time>
      </trkpt>
      <trkpt lat="62.65730507995" lon="17.875361226093">
        <ele>20</ele>
        <time>2017-10-18T19:31:52Z</time>
      </trkpt>
      <trkpt lat="62.657292088005" lon="17.875431382596">
        <ele>20.2</ele>
        <time>2017-10-18T19:31:53Z</time>
      </trkpt>
      <trkpt lat="62.657278509327" lon="17.875497683425">
        <ele>20.2</ele>
        <time>2017-10-18T19:31:54Z</time>
      </trkpt>
      <trkpt lat="62.657265433563" lon="17.875568678118">
        <ele>20.4</ele>
        <time>2017-10-18T19:31:55Z</time>
      </trkpt>
      <trkpt lat="62.657253531265" lon="17.875634056938">
        <ele>20.6</ele>
        <time>2017-10-18T19:31:56Z</time>
      </trkpt>
      <trkpt lat="62.657242550976" lon="17.875698597568">
        <ele>20.8</ele>
        <time>2017-10-18T19:31:57Z</time>
      </trkpt>
      <trkpt lat="62.657234588171" lon="17.875755091574">
        <ele>21</ele>
        <time>2017-10-18T19:31:58Z</time>
      </trkpt>
      <trkpt lat="62.657223188787" lon="17.875826002448">
        <ele>21.4</ele>
        <time>2017-10-18T19:31:59Z</time>
      </trkpt>
      <trkpt lat="62.657214220154" lon="17.875888866698">
        <ele>21.8</ele>
        <time>2017-10-18T19:32:00Z</time>
      </trkpt>
      <trkpt lat="62.657207766091" lon="17.87595407788">
        <ele>22.4</ele>
        <time>2017-10-18T19:32:01Z</time>
      </trkpt>
      <trkpt lat="62.657200725295" lon="17.876019205243">
        <ele>22.8</ele>
        <time>2017-10-18T19:32:02Z</time>
      </trkpt>
      <trkpt lat="62.657194355051" lon="17.876081650398">
        <ele>23.2</ele>
        <time>2017-10-18T19:32:03Z</time>
      </trkpt>
      <trkpt lat="62.657191002291" lon="17.876150968711">
        <ele>23.6</ele>
        <time>2017-10-18T19:32:04Z</time>
      </trkpt>
      <trkpt lat="62.657188068626" lon="17.876227076363">
        <ele>24</ele>
        <time>2017-10-18T19:32:05Z</time>
      </trkpt>
      <trkpt lat="62.65718605697" lon="17.876300334169">
        <ele>24.4</ele>
        <time>2017-10-18T19:32:06Z</time>
      </trkpt>
      <trkpt lat="62.657183207124" lon="17.876374262527">
        <ele>24.6</ele>
        <time>2017-10-18T19:32:07Z</time>
      </trkpt>
      <trkpt lat="62.657177926527" lon="17.876442910288">
        <ele>24.8</ele>
        <time>2017-10-18T19:32:08Z</time>
      </trkpt>
      <trkpt lat="62.657171556283" lon="17.87651566518">
        <ele>25</ele>
        <time>2017-10-18T19:32:09Z</time>
      </trkpt>
      <trkpt lat="62.657166443324" lon="17.87659277866">
        <ele>25.2</ele>
        <time>2017-10-18T19:32:10Z</time>
      </trkpt>
      <trkpt lat="62.65716258765" lon="17.876672825805">
        <ele>25.4</ele>
        <time>2017-10-18T19:32:11Z</time>
      </trkpt>
      <trkpt lat="62.657154373388" lon="17.876745832154">
        <ele>25.8</ele>
        <time>2017-10-18T19:32:12Z</time>
      </trkpt>
      <trkpt lat="62.657149847162" lon="17.876817162123">
        <ele>25.8</ele>
        <time>2017-10-18T19:32:13Z</time>
      </trkpt>
      <trkpt lat="62.65714414747" lon="17.87689704163">
        <ele>26.2</ele>
        <time>2017-10-18T19:32:14Z</time>
      </trkpt>
      <trkpt lat="62.657138783054" lon="17.876971975816">
        <ele>26.4</ele>
        <time>2017-10-18T19:32:15Z</time>
      </trkpt>
      <trkpt lat="62.65713492738" lon="17.877038109007">
        <ele>26.6</ele>
        <time>2017-10-18T19:32:16Z</time>
      </trkpt>
      <trkpt lat="62.657131490801" lon="17.877113210831">
        <ele>26.8</ele>
        <time>2017-10-18T19:32:17Z</time>
      </trkpt>
      <trkpt lat="62.657125958747" lon="17.877184708438">
        <ele>27</ele>
        <time>2017-10-18T19:32:18Z</time>
      </trkpt>
      <trkpt lat="62.657116654838" lon="17.877261067547">
        <ele>27.2</ele>
        <time>2017-10-18T19:32:19Z</time>
      </trkpt>
      <trkpt lat="62.657108021481" lon="17.877344802728">
        <ele>27.2</ele>
        <time>2017-10-18T19:32:20Z</time>
      </trkpt>
      <trkpt lat="62.657100729228" lon="17.877436500714">
        <ele>27.4</ele>
        <time>2017-10-18T19:32:21Z</time>
      </trkpt>
      <trkpt lat="62.657094191346" lon="17.87752568413">
        <ele>27.8</ele>
        <time>2017-10-18T19:32:22Z</time>
      </trkpt>
      <trkpt lat="62.657085809446" lon="17.877622662713">
        <ele>28</ele>
        <time>2017-10-18T19:32:23Z</time>
      </trkpt>
      <trkpt lat="62.657078433374" lon="17.877722491142">
        <ele>28</ele>
        <time>2017-10-18T19:32:24Z</time>
      </trkpt>
      <trkpt lat="62.657071476397" lon="17.877829863281">
        <ele>28.2</ele>
        <time>2017-10-18T19:32:25Z</time>
      </trkpt>
      <trkpt lat="62.657064016506" lon="17.877934385574">
        <ele>28.2</ele>
        <time>2017-10-18T19:32:26Z</time>
      </trkpt>
      <trkpt lat="62.657053036217" lon="17.878038907867">
        <ele>28.2</ele>
        <time>2017-10-18T19:32:27Z</time>
      </trkpt>
      <trkpt lat="62.65704356467" lon="17.878135299717">
        <ele>28.2</ele>
        <time>2017-10-18T19:32:28Z</time>
      </trkpt>
      <trkpt lat="62.657031746191" lon="17.878261195855">
        <ele>28.2</ele>
        <time>2017-10-18T19:32:29Z</time>
      </trkpt>
      <trkpt lat="62.657021687911" lon="17.878369154727">
        <ele>28.2</ele>
        <time>2017-10-18T19:32:30Z</time>
      </trkpt>
      <trkpt lat="62.657011461993" lon="17.878482394196">
        <ele>28.2</ele>
        <time>2017-10-18T19:32:31Z</time>
      </trkpt>
      <trkpt lat="62.657001571351" lon="17.87858934724">
        <ele>28.2</ele>
        <time>2017-10-18T19:32:32Z</time>
      </trkpt>
      <trkpt lat="62.656990171967" lon="17.878689259488">
        <ele>28.2</ele>
        <time>2017-10-18T19:32:33Z</time>
      </trkpt>
      <trkpt lat="62.656980448963" lon="17.878789171736">
        <ele>28.2</ele>
        <time>2017-10-18T19:32:34Z</time>
      </trkpt>
      <trkpt lat="62.656973408167" lon="17.878892101468">
        <ele>28.2</ele>
        <time>2017-10-18T19:32:35Z</time>
      </trkpt>
      <trkpt lat="62.656964607172" lon="17.878988828594">
        <ele>28.4</ele>
        <time>2017-10-18T19:32:36Z</time>
      </trkpt>
      <trkpt lat="62.65695471653" lon="17.879084549892">
        <ele>28.6</ele>
        <time>2017-10-18T19:32:37Z</time>
      </trkpt>
      <trkpt lat="62.656944742069" lon="17.879175912602">
        <ele>28.6</ele>
        <time>2017-10-18T19:32:38Z</time>
      </trkpt>
      <trkpt lat="62.6569320854" lon="17.879270125158">
        <ele>28.8</ele>
        <time>2017-10-18T19:32:39Z</time>
      </trkpt>
      <trkpt lat="62.656918255265" lon="17.879365846456">
        <ele>29</ele>
        <time>2017-10-18T19:32:40Z</time>
      </trkpt>
      <trkpt lat="62.656905347139" lon="17.879467518903">
        <ele>29.2</ele>
        <time>2017-10-18T19:32:41Z</time>
      </trkpt>
      <trkpt lat="62.656892858108" lon="17.879567179694">
        <ele>29.4</ele>
        <time>2017-10-18T19:32:42Z</time>
      </trkpt>
      <trkpt lat="62.656882716009" lon="17.879662817173">
        <ele>29.8</ele>
        <time>2017-10-18T19:32:43Z</time>
      </trkpt>
      <trkpt lat="62.656871819539" lon="17.879768429113">
        <ele>30</ele>
        <time>2017-10-18T19:32:44Z</time>
      </trkpt>
      <trkpt lat="62.656861090707" lon="17.879867251714">
        <ele>30.2</ele>
        <time>2017-10-18T19:32:45Z</time>
      </trkpt>
      <trkpt lat="62.656849188409" lon="17.879957860053">
        <ele>30.6</ele>
        <time>2017-10-18T19:32:46Z</time>
      </trkpt>
      <trkpt lat="62.656835022998" lon="17.880053246075">
        <ele>30.8</ele>
        <time>2017-10-18T19:32:47Z</time>
      </trkpt>
      <trkpt lat="62.656822031053" lon="17.880137903265">
        <ele>31</ele>
        <time>2017-10-18T19:32:48Z</time>
      </trkpt>
      <trkpt lat="62.656807278909" lon="17.880228343966">
        <ele>31.2</ele>
        <time>2017-10-18T19:32:49Z</time>
      </trkpt>
      <trkpt lat="62.656794957516" lon="17.880317778839">
        <ele>31.6</ele>
        <time>2017-10-18T19:32:50Z</time>
      </trkpt>
      <trkpt lat="62.6567812112" lon="17.88040989592">
        <ele>31.8</ele>
        <time>2017-10-18T19:32:51Z</time>
      </trkpt>
      <trkpt lat="62.656765956142" lon="17.880494217834">
        <ele>32</ele>
        <time>2017-10-18T19:32:52Z</time>
      </trkpt>
      <trkpt lat="62.656748689428" lon="17.88058591582">
        <ele>32.2</ele>
        <time>2017-10-18T19:32:53Z</time>
      </trkpt>
      <trkpt lat="62.656732931456" lon="17.880676272702">
        <ele>32.4</ele>
        <time>2017-10-18T19:32:54Z</time>
      </trkpt>
      <trkpt lat="62.656716586751" lon="17.880771658724">
        <ele>32.8</ele>
        <time>2017-10-18T19:32:55Z</time>
      </trkpt>
      <trkpt lat="62.656701247874" lon="17.880862099425">
        <ele>33</ele>
        <time>2017-10-18T19:32:56Z</time>
      </trkpt>
      <trkpt lat="62.656687250101" lon="17.88095304304">
        <ele>33.2</ele>
        <time>2017-10-18T19:32:57Z</time>
      </trkpt>
      <trkpt lat="62.656673671423" lon="17.881038454601">
        <ele>33.4</ele>
        <time>2017-10-18T19:32:58Z</time>
      </trkpt>
      <trkpt lat="62.65665632089" lon="17.881139288858">
        <ele>33.6</ele>
        <time>2017-10-18T19:32:59Z</time>
      </trkpt>
      <trkpt lat="62.656640898194" lon="17.881235764527">
        <ele>33.8</ele>
        <time>2017-10-18T19:33:00Z</time>
      </trkpt>
      <trkpt lat="62.656624302032" lon="17.881334000395">
        <ele>34.2</ele>
        <time>2017-10-18T19:33:01Z</time>
      </trkpt>
      <trkpt lat="62.656607370594" lon="17.881436511032">
        <ele>34.4</ele>
        <time>2017-10-18T19:33:02Z</time>
      </trkpt>
      <trkpt lat="62.656590858251" lon="17.881531897054">
        <ele>34.6</ele>
        <time>2017-10-18T19:33:03Z</time>
      </trkpt>
      <trkpt lat="62.656573507718" lon="17.881637089899">
        <ele>34.8</ele>
        <time>2017-10-18T19:33:04Z</time>
      </trkpt>
      <trkpt lat="62.656556492461" lon="17.881754520318">
        <ele>35</ele>
        <time>2017-10-18T19:33:05Z</time>
      </trkpt>
      <trkpt lat="62.656539728661" lon="17.881869939081">
        <ele>35.2</ele>
        <time>2017-10-18T19:33:06Z</time>
      </trkpt>
      <trkpt lat="62.656522881042" lon="17.88198569312">
        <ele>35.4</ele>
        <time>2017-10-18T19:33:07Z</time>
      </trkpt>
      <trkpt lat="62.656508967088" lon="17.88208962868">
        <ele>35.4</ele>
        <time>2017-10-18T19:33:08Z</time>
      </trkpt>
      <trkpt lat="62.656496561876" lon="17.882195575896">
        <ele>35.6</ele>
        <time>2017-10-18T19:33:09Z</time>
      </trkpt>
      <trkpt lat="62.656483989026" lon="17.882310156469">
        <ele>35.8</ele>
        <time>2017-10-18T19:33:10Z</time>
      </trkpt>
      <trkpt lat="62.656471332357" lon="17.88242658106">
        <ele>36</ele>
        <time>2017-10-18T19:33:11Z</time>
      </trkpt>
      <trkpt lat="62.656461693172" lon="17.882532444457">
        <ele>36</ele>
        <time>2017-10-18T19:33:12Z</time>
      </trkpt>
      <trkpt lat="62.656449623236" lon="17.882623639529">
        <ele>36.4</ele>
        <time>2017-10-18T19:33:13Z</time>
      </trkpt>
      <trkpt lat="62.6564375533" lon="17.882724809062">
        <ele>36.6</ele>
        <time>2017-10-18T19:33:14Z</time>
      </trkpt>
      <trkpt lat="62.656427662658" lon="17.882815417401">
        <ele>36.8</ele>
        <time>2017-10-18T19:33:15Z</time>
      </trkpt>
      <trkpt lat="62.656414586894" lon="17.882901164238">
        <ele>37</ele>
        <time>2017-10-18T19:33:16Z</time>
      </trkpt>
      <trkpt lat="62.656401427311" lon="17.882991688758">
        <ele>37.4</ele>
        <time>2017-10-18T19:33:17Z</time>
      </trkpt>
      <trkpt lat="62.656389608832" lon="17.883078106147">
        <ele>37.6</ele>
        <time>2017-10-18T19:33:18Z</time>
      </trkpt>
      <trkpt lat="62.656377622715" lon="17.88317508473">
        <ele>37.8</ele>
        <time>2017-10-18T19:33:19Z</time>
      </trkpt>
      <trkpt lat="62.656365888055" lon="17.883270806028">
        <ele>38</ele>
        <time>2017-10-18T19:33:20Z</time>
      </trkpt>
      <trkpt lat="62.656354656309" lon="17.883365856774">
        <ele>38.2</ele>
        <time>2017-10-18T19:33:21Z</time>
      </trkpt>
      <trkpt lat="62.656343843658" lon="17.883456046018">
        <ele>38.4</ele>
        <time>2017-10-18T19:33:22Z</time>
      </trkpt>
      <trkpt lat="62.656332360455" lon="17.883551348221">
        <ele>38.4</ele>
        <time>2017-10-18T19:33:23Z</time>
      </trkpt>
      <trkpt lat="62.656320541976" lon="17.883643465302">
        <ele>38.4</ele>
        <time>2017-10-18T19:33:24Z</time>
      </trkpt>
      <trkpt lat="62.656307969126" lon="17.883741617351">
        <ele>38.6</ele>
        <time>2017-10-18T19:33:25Z</time>
      </trkpt>
      <trkpt lat="62.656294893362" lon="17.883833818251">
        <ele>38.6</ele>
        <time>2017-10-18T19:33:26Z</time>
      </trkpt>
      <trkpt lat="62.656282320512" lon="17.88391772107">
        <ele>38.8</ele>
        <time>2017-10-18T19:33:27Z</time>
      </trkpt>
      <trkpt lat="62.656270334395" lon="17.88399148179">
        <ele>39</ele>
        <time>2017-10-18T19:33:28Z</time>
      </trkpt>
      <trkpt lat="62.656253905871" lon="17.88408200631">
        <ele>39.4</ele>
        <time>2017-10-18T19:33:29Z</time>
      </trkpt>
      <trkpt lat="62.656238399356" lon="17.88416331074">
        <ele>40</ele>
        <time>2017-10-18T19:33:30Z</time>
      </trkpt>
      <trkpt lat="62.656221887013" lon="17.884243106428">
        <ele>40.4</ele>
        <time>2017-10-18T19:33:31Z</time>
      </trkpt>
      <trkpt lat="62.656205290851" lon="17.884326087238">
        <ele>40.8</ele>
        <time>2017-10-18T19:33:32Z</time>
      </trkpt>
      <trkpt lat="62.656189868155" lon="17.884401859614">
        <ele>41.2</ele>
        <time>2017-10-18T19:33:33Z</time>
      </trkpt>
      <trkpt lat="62.656173858726" lon="17.884481068569">
        <ele>41.4</ele>
        <time>2017-10-18T19:33:34Z</time>
      </trkpt>
      <trkpt lat="62.656158184573" lon="17.88456396556">
        <ele>41.8</ele>
        <time>2017-10-18T19:33:35Z</time>
      </trkpt>
      <trkpt lat="62.656142258963" lon="17.884641330497">
        <ele>42</ele>
        <time>2017-10-18T19:33:36Z</time>
      </trkpt>
      <trkpt lat="62.656126500991" lon="17.884717270511">
        <ele>42.2</ele>
        <time>2017-10-18T19:33:37Z</time>
      </trkpt>
      <trkpt lat="62.656114095779" lon="17.884789857765">
        <ele>42.4</ele>
        <time>2017-10-18T19:33:38Z</time>
      </trkpt>
      <trkpt lat="62.656100265644" lon="17.884865546322">
        <ele>42.6</ele>
        <time>2017-10-18T19:33:39Z</time>
      </trkpt>
      <trkpt lat="62.656086100233" lon="17.884942073069">
        <ele>42.8</ele>
        <time>2017-10-18T19:33:40Z</time>
      </trkpt>
      <trkpt lat="62.656069839347" lon="17.885023628956">
        <ele>43</ele>
        <time>2017-10-18T19:33:41Z</time>
      </trkpt>
      <trkpt lat="62.656053327004" lon="17.885101496807">
        <ele>43</ele>
        <time>2017-10-18T19:33:42Z</time>
      </trkpt>
      <trkpt lat="62.656036730842" lon="17.885175341346">
        <ele>43.2</ele>
        <time>2017-10-18T19:33:43Z</time>
      </trkpt>
      <trkpt lat="62.656017787748" lon="17.885257819242">
        <ele>43.4</ele>
        <time>2017-10-18T19:33:44Z</time>
      </trkpt>
      <trkpt lat="62.65599917993" lon="17.885338201663">
        <ele>43.6</ele>
        <time>2017-10-18T19:33:45Z</time>
      </trkpt>
      <trkpt lat="62.655981494121" lon="17.885415734238">
        <ele>43.8</ele>
        <time>2017-10-18T19:33:46Z</time>
      </trkpt>
      <trkpt lat="62.655960539371" lon="17.88550357655">
        <ele>44</ele>
        <time>2017-10-18T19:33:47Z</time>
      </trkpt>
      <trkpt lat="62.655941177182" lon="17.885583120781">
        <ele>44.2</ele>
        <time>2017-10-18T19:33:48Z</time>
      </trkpt>
      <trkpt lat="62.655916450577" lon="17.885673812939">
        <ele>44.4</ele>
        <time>2017-10-18T19:33:49Z</time>
      </trkpt>
      <trkpt lat="62.655889125583" lon="17.885759895052">
        <ele>44.8</ele>
        <time>2017-10-18T19:33:50Z</time>
      </trkpt>
      <trkpt lat="62.655861213856" lon="17.885846899174">
        <ele>44.8</ele>
        <time>2017-10-18T19:33:51Z</time>
      </trkpt>
      <trkpt lat="62.655832799215" lon="17.88592853888">
        <ele>45</ele>
        <time>2017-10-18T19:33:52Z</time>
      </trkpt>
      <trkpt lat="62.655801534728" lon="17.886015123907">
        <ele>45</ele>
        <time>2017-10-18T19:33:53Z</time>
      </trkpt>
      <trkpt lat="62.655768342404" lon="17.886100116373">
        <ele>45</ele>
        <time>2017-10-18T19:33:54Z</time>
      </trkpt>
      <trkpt lat="62.655734647166" lon="17.886192149635">
        <ele>45</ele>
        <time>2017-10-18T19:33:55Z</time>
      </trkpt>
      <trkpt lat="62.655702376851" lon="17.886278399386">
        <ele>45</ele>
        <time>2017-10-18T19:33:56Z</time>
      </trkpt>
      <trkpt lat="62.655669687441" lon="17.886363810947">
        <ele>45</ele>
        <time>2017-10-18T19:33:57Z</time>
      </trkpt>
      <trkpt lat="62.655641859533" lon="17.886439164228">
        <ele>45.2</ele>
        <time>2017-10-18T19:33:58Z</time>
      </trkpt>
      <trkpt lat="62.655613277254" lon="17.886512673491">
        <ele>45.2</ele>
        <time>2017-10-18T19:33:59Z</time>
      </trkpt>
      <trkpt lat="62.655574133781" lon="17.886609065341">
        <ele>45.4</ele>
        <time>2017-10-18T19:34:00Z</time>
      </trkpt>
      <trkpt lat="62.655543288389" lon="17.886686178821">
        <ele>45.6</ele>
        <time>2017-10-18T19:34:01Z</time>
      </trkpt>
      <trkpt lat="62.655513448825" lon="17.886760442455">
        <ele>45.6</ele>
        <time>2017-10-18T19:34:02Z</time>
      </trkpt>
      <trkpt lat="62.655486542926" lon="17.886826994741">
        <ele>45.8</ele>
        <time>2017-10-18T19:34:03Z</time>
      </trkpt>
      <trkpt lat="62.655459804665" lon="17.886898408529">
        <ele>46</ele>
        <time>2017-10-18T19:34:04Z</time>
      </trkpt>
      <trkpt lat="62.65543088711" lon="17.886977868941">
        <ele>46</ele>
        <time>2017-10-18T19:34:05Z</time>
      </trkpt>
      <trkpt lat="62.655403143021" lon="17.88704668434">
        <ele>46.2</ele>
        <time>2017-10-18T19:34:06Z</time>
      </trkpt>
      <trkpt lat="62.655375650389" lon="17.887112649893">
        <ele>46.6</ele>
        <time>2017-10-18T19:34:07Z</time>
      </trkpt>
      <trkpt lat="62.655349917956" lon="17.887172831935">
        <ele>46.8</ele>
        <time>2017-10-18T19:34:08Z</time>
      </trkpt>
      <trkpt lat="62.655323682609" lon="17.887232594882">
        <ele>47.2</ele>
        <time>2017-10-18T19:34:09Z</time>
      </trkpt>
      <trkpt lat="62.655295770882" lon="17.887287831603">
        <ele>47.8</ele>
        <time>2017-10-18T19:34:10Z</time>
      </trkpt>
      <trkpt lat="62.655264674033" lon="17.887342481591">
        <ele>48.2</ele>
        <time>2017-10-18T19:34:11Z</time>
      </trkpt>
      <trkpt lat="62.655234583012" lon="17.887385564557">
        <ele>48.8</ele>
        <time>2017-10-18T19:34:12Z</time>
      </trkpt>
      <trkpt lat="62.655204491991" lon="17.887419846528">
        <ele>49.2</ele>
        <time>2017-10-18T19:34:13Z</time>
      </trkpt>
      <trkpt lat="62.655169958563" lon="17.887456391612">
        <ele>49.4</ele>
        <time>2017-10-18T19:34:14Z</time>
      </trkpt>
      <trkpt lat="62.65513668242" lon="17.887488326651">
        <ele>49.4</ele>
        <time>2017-10-18T19:34:15Z</time>
      </trkpt>
      <trkpt lat="62.655106339942" lon="17.887515316369">
        <ele>49.6</ele>
        <time>2017-10-18T19:34:16Z</time>
      </trkpt>
      <trkpt lat="62.655071135962" lon="17.887542976639">
        <ele>49.6</ele>
        <time>2017-10-18T19:34:17Z</time>
      </trkpt>
      <trkpt lat="62.655040877303" lon="17.887560662448">
        <ele>49.8</ele>
        <time>2017-10-18T19:34:18Z</time>
      </trkpt>
      <trkpt lat="62.655007852617" lon="17.887573151479">
        <ele>50</ele>
        <time>2017-10-18T19:34:19Z</time>
      </trkpt>
      <trkpt lat="62.654978767424" lon="17.887578515895">
        <ele>50.2</ele>
        <time>2017-10-18T19:34:20Z</time>
      </trkpt>
      <trkpt lat="62.654952532077" lon="17.887582371569">
        <ele>50.6</ele>
        <time>2017-10-18T19:34:21Z</time>
      </trkpt>
      <trkpt lat="62.654928559843" lon="17.887578012981">
        <ele>50.6</ele>
        <time>2017-10-18T19:34:22Z</time>
      </trkpt>
      <trkpt lat="62.654903581781" lon="17.887569631081">
        <ele>50.8</ele>
        <time>2017-10-18T19:34:23Z</time>
      </trkpt>
      <trkpt lat="62.654880615375" lon="17.887563093199">
        <ele>50.8</ele>
        <time>2017-10-18T19:34:24Z</time>
      </trkpt>
      <trkpt lat="62.654859828263" lon="17.88756300938">
        <ele>51</ele>
        <time>2017-10-18T19:34:25Z</time>
      </trkpt>
      <trkpt lat="62.654845076119" lon="17.887570301633">
        <ele>51</ele>
        <time>2017-10-18T19:34:26Z</time>
      </trkpt>
      <trkpt lat="62.654846417223" lon="17.887573822031">
        <ele>51.2</ele>
        <time>2017-10-18T19:34:27Z</time>
      </trkpt>
      <trkpt lat="62.654847255413" lon="17.887570720728">
        <ele>51.2</ele>
        <time>2017-10-18T19:34:28Z</time>
      </trkpt>
      <trkpt lat="62.654847758327" lon="17.887568373796">
        <ele>51.2</ele>
        <time>2017-10-18T19:34:29Z</time>
      </trkpt>
      <trkpt lat="62.655077087111" lon="17.887670465338">
        <ele>51.4</ele>
        <time>2017-10-18T19:34:53Z</time>
      </trkpt>
      <trkpt lat="62.655115392394" lon="17.887656383746">
        <ele>51.4</ele>
        <time>2017-10-18T19:34:54Z</time>
      </trkpt>
      <trkpt lat="62.655162582491" lon="17.887638949394">
        <ele>51.4</ele>
        <time>2017-10-18T19:34:55Z</time>
      </trkpt>
      <trkpt lat="62.655204743448" lon="17.887599805921">
        <ele>51.2</ele>
        <time>2017-10-18T19:34:56Z</time>
      </trkpt>
      <trkpt lat="62.655240115066" lon="17.887549765978">
        <ele>50.8</ele>
        <time>2017-10-18T19:34:57Z</time>
      </trkpt>
      <trkpt lat="62.655278420349" lon="17.887497714379">
        <ele>50.8</ele>
        <time>2017-10-18T19:34:58Z</time>
      </trkpt>
      <trkpt lat="62.655311612673" lon="17.887446165694">
        <ele>50.6</ele>
        <time>2017-10-18T19:34:59Z</time>
      </trkpt>
      <trkpt lat="62.655353019259" lon="17.88737190206">
        <ele>50.4</ele>
        <time>2017-10-18T19:35:00Z</time>
      </trkpt>
      <trkpt lat="62.655389899619" lon="17.887304763041">
        <ele>50.4</ele>
        <time>2017-10-18T19:35:01Z</time>
      </trkpt>
      <trkpt lat="62.655427366712" lon="17.887235780004">
        <ele>50</ele>
        <time>2017-10-18T19:35:02Z</time>
      </trkpt>
      <trkpt lat="62.655462654511" lon="17.887163108931">
        <ele>49.8</ele>
        <time>2017-10-18T19:35:03Z</time>
      </trkpt>
      <trkpt lat="62.655491655885" lon="17.887088258564">
        <ele>49.6</ele>
        <time>2017-10-18T19:35:04Z</time>
      </trkpt>
      <trkpt lat="62.655513616463" lon="17.887030926368">
        <ele>49.4</ele>
        <time>2017-10-18T19:35:05Z</time>
      </trkpt>
      <trkpt lat="62.655562734397" lon="17.88691173575">
        <ele>49.2</ele>
        <time>2017-10-18T19:35:06Z</time>
      </trkpt>
      <trkpt lat="62.655597435463" lon="17.886828335845">
        <ele>48.8</ele>
        <time>2017-10-18T19:35:07Z</time>
      </trkpt>
      <trkpt lat="62.655628867588" lon="17.886743091922">
        <ele>48.6</ele>
        <time>2017-10-18T19:35:08Z</time>
      </trkpt>
      <trkpt lat="62.655657952781" lon="17.886664972614">
        <ele>48</ele>
        <time>2017-10-18T19:35:09Z</time>
      </trkpt>
      <trkpt lat="62.655688881992" lon="17.886583668184">
        <ele>47.6</ele>
        <time>2017-10-18T19:35:10Z</time>
      </trkpt>
      <trkpt lat="62.655714949701" lon="17.886515523337">
        <ele>47.2</ele>
        <time>2017-10-18T19:35:11Z</time>
      </trkpt>
      <trkpt lat="62.655739760125" lon="17.886454503105">
        <ele>46.8</ele>
        <time>2017-10-18T19:35:12Z</time>
      </trkpt>
      <trkpt lat="62.655758284124" lon="17.886402283868">
        <ele>46.4</ele>
        <time>2017-10-18T19:35:13Z</time>
      </trkpt>
      <trkpt lat="62.655774964105" lon="17.886353249753">
        <ele>46.2</ele>
        <time>2017-10-18T19:35:14Z</time>
      </trkpt>
      <trkpt lat="62.65579382338" lon="17.886308071312">
        <ele>46</ele>
        <time>2017-10-18T19:35:15Z</time>
      </trkpt>
      <trkpt lat="62.655810084266" lon="17.886273118789">
        <ele>45.8</ele>
        <time>2017-10-18T19:35:16Z</time>
      </trkpt>
      <trkpt lat="62.655824417315" lon="17.886237328076">
        <ele>45.6</ele>
        <time>2017-10-18T19:35:17Z</time>
      </trkpt>
      <trkpt lat="62.65583489469" lon="17.886209164892">
        <ele>45.4</ele>
        <time>2017-10-18T19:35:18Z</time>
      </trkpt>
      <trkpt lat="62.655833721224" lon="17.886172955084">
        <ele>45.4</ele>
        <time>2017-10-18T19:35:19Z</time>
      </trkpt>
      <trkpt lat="62.655819471994" lon="17.886145378633">
        <ele>45.2</ele>
        <time>2017-10-18T19:35:20Z</time>
      </trkpt>
      <trkpt lat="62.65579969071" lon="17.886161974795">
        <ele>45.2</ele>
        <time>2017-10-18T19:35:21Z</time>
      </trkpt>
      <trkpt lat="62.655780244702" lon="17.886222659751">
        <ele>45.2</ele>
        <time>2017-10-18T19:35:22Z</time>
      </trkpt>
      <trkpt lat="62.655759541409" lon="17.886292900073">
        <ele>45.2</ele>
        <time>2017-10-18T19:35:23Z</time>
      </trkpt>
      <trkpt lat="62.655732467872" lon="17.886367247526">
        <ele>45.2</ele>
        <time>2017-10-18T19:35:24Z</time>
      </trkpt>
      <trkpt lat="62.655703717955" lon="17.886449725422">
        <ele>45.2</ele>
        <time>2017-10-18T19:35:25Z</time>
      </trkpt>
      <trkpt lat="62.655670860907" lon="17.886541591046">
        <ele>45.2</ele>
        <time>2017-10-18T19:35:26Z</time>
      </trkpt>
      <trkpt lat="62.655637836221" lon="17.886629684815">
        <ele>45.4</ele>
        <time>2017-10-18T19:35:27Z</time>
      </trkpt>
      <trkpt lat="62.65560606882" lon="17.886706127743">
        <ele>45.6</ele>
        <time>2017-10-18T19:35:28Z</time>
      </trkpt>
      <trkpt lat="62.655582431862" lon="17.886765220138">
        <ele>45.8</ele>
        <time>2017-10-18T19:35:29Z</time>
      </trkpt>
      <trkpt lat="62.655552927574" lon="17.886832778252">
        <ele>45.8</ele>
        <time>2017-10-18T19:35:30Z</time>
      </trkpt>
      <trkpt lat="62.655528200969" lon="17.886889607534">
        <ele>46</ele>
        <time>2017-10-18T19:35:31Z</time>
      </trkpt>
      <trkpt lat="62.655509509332" lon="17.886947945558">
        <ele>46.2</ele>
        <time>2017-10-18T19:35:32Z</time>
      </trkpt>
      <trkpt lat="62.655492829351" lon="17.887006870315">
        <ele>46.4</ele>
        <time>2017-10-18T19:35:33Z</time>
      </trkpt>
      <trkpt lat="62.655473718619" lon="17.887051964937">
        <ele>46.8</ele>
        <time>2017-10-18T19:35:34Z</time>
      </trkpt>
      <trkpt lat="62.655450081661" lon="17.887090773134">
        <ele>47</ele>
        <time>2017-10-18T19:35:35Z</time>
      </trkpt>
      <trkpt lat="62.655425271237" lon="17.887134275195">
        <ele>47.4</ele>
        <time>2017-10-18T19:35:36Z</time>
      </trkpt>
      <trkpt lat="62.655405909048" lon="17.88718163293">
        <ele>47.6</ele>
        <time>2017-10-18T19:35:37Z</time>
      </trkpt>
      <trkpt lat="62.655386630678" lon="17.887232008149">
        <ele>48</ele>
        <time>2017-10-18T19:35:38Z</time>
      </trkpt>
      <trkpt lat="62.655368693412" lon="17.887273750011">
        <ele>48</ele>
        <time>2017-10-18T19:35:39Z</time>
      </trkpt>
      <trkpt lat="62.655347738662" lon="17.887322113574">
        <ele>48.2</ele>
        <time>2017-10-18T19:35:40Z</time>
      </trkpt>
      <trkpt lat="62.655323179695" lon="17.88736184378">
        <ele>48.4</ele>
        <time>2017-10-18T19:35:41Z</time>
      </trkpt>
      <trkpt lat="62.655296189977" lon="17.887402160719">
        <ele>48.6</ele>
        <time>2017-10-18T19:35:42Z</time>
      </trkpt>
      <trkpt lat="62.655274229399" lon="17.887443232029">
        <ele>48.8</ele>
        <time>2017-10-18T19:35:43Z</time>
      </trkpt>
      <trkpt lat="62.655250843898" lon="17.88747332305">
        <ele>49</ele>
        <time>2017-10-18T19:35:44Z</time>
      </trkpt>
      <trkpt lat="62.655223937999" lon="17.887503414071">
        <ele>49.2</ele>
        <time>2017-10-18T19:35:45Z</time>
      </trkpt>
      <trkpt lat="62.655198037928" lon="17.887522692441">
        <ele>49.4</ele>
        <time>2017-10-18T19:35:46Z</time>
      </trkpt>
      <trkpt lat="62.655175155341" lon="17.887545575028">
        <ele>49.6</ele>
        <time>2017-10-18T19:35:47Z</time>
      </trkpt>
      <trkpt lat="62.655149506727" lon="17.887563177018">
        <ele>49.6</ele>
        <time>2017-10-18T19:35:48Z</time>
      </trkpt>
      <trkpt lat="62.655124696303" lon="17.887572732384">
        <ele>49.8</ele>
        <time>2017-10-18T19:35:49Z</time>
      </trkpt>
      <trkpt lat="62.655096030205" lon="17.8875780968">
        <ele>49.8</ele>
        <time>2017-10-18T19:35:50Z</time>
      </trkpt>
      <trkpt lat="62.655077841482" lon="17.887593687134">
        <ele>50</ele>
        <time>2017-10-18T19:35:51Z</time>
      </trkpt>
      <trkpt lat="62.655058311655" lon="17.887600895568">
        <ele>50</ele>
        <time>2017-10-18T19:35:52Z</time>
      </trkpt>
      <trkpt lat="62.655043308054" lon="17.88760575707">
        <ele>50.2</ele>
        <time>2017-10-18T19:35:53Z</time>
      </trkpt>
      <trkpt lat="62.655024532598" lon="17.887607098174">
        <ele>50.4</ele>
        <time>2017-10-18T19:35:54Z</time>
      </trkpt>
      <trkpt lat="62.655005170409" lon="17.887609780382">
        <ele>50.4</ele>
        <time>2017-10-18T19:35:55Z</time>
      </trkpt>
      <trkpt lat="62.654989328618" lon="17.887603913052">
        <ele>50.6</ele>
        <time>2017-10-18T19:35:56Z</time>
      </trkpt>
      <trkpt lat="62.654980527623" lon="17.887611959676">
        <ele>50.8</ele>
        <time>2017-10-18T19:35:57Z</time>
      </trkpt>
      <trkpt lat="62.65496401528" lon="17.887630818951">
        <ele>50.8</ele>
        <time>2017-10-18T19:35:58Z</time>
      </trkpt>
      <trkpt lat="62.654948005851" lon="17.887632327693">
        <ele>50.8</ele>
        <time>2017-10-18T19:35:59Z</time>
      </trkpt>
      <trkpt lat="62.654928643662" lon="17.887635009901">
        <ele>51</ele>
        <time>2017-10-18T19:36:00Z</time>
      </trkpt>
      <trkpt lat="62.654910790215" lon="17.887631992417">
        <ele>51</ele>
        <time>2017-10-18T19:36:01Z</time>
      </trkpt>
      <trkpt lat="62.654894864605" lon="17.887626544182">
        <ele>51</ele>
        <time>2017-10-18T19:36:02Z</time>
      </trkpt>
      <trkpt lat="62.65488606361" lon="17.8876200063">
        <ele>51</ele>
        <time>2017-10-18T19:36:03Z</time>
      </trkpt>
      <trkpt lat="62.654881705022" lon="17.887606846717">
        <ele>51</ele>
        <time>2017-10-18T19:36:04Z</time>
      </trkpt>
      <trkpt lat="62.654877933167" lon="17.887595028238">
        <ele>51</ele>
        <time>2017-10-18T19:36:05Z</time>
      </trkpt>
      <trkpt lat="62.654870557095" lon="17.887586897795">
        <ele>51</ele>
        <time>2017-10-18T19:36:06Z</time>
      </trkpt>
      <trkpt lat="62.654864773584" lon="17.887580527551">
        <ele>51</ele>
        <time>2017-10-18T19:36:07Z</time>
      </trkpt>
      <trkpt lat="62.654858235702" lon="17.887581198103">
        <ele>51</ele>
        <time>2017-10-18T19:36:08Z</time>
      </trkpt>
      <trkpt lat="62.654858738616" lon="17.887579102628">
        <ele>51</ele>
        <time>2017-10-18T19:36:09Z</time>
      </trkpt>
      <trkpt lat="62.654862845747" lon="17.887580779008">
        <ele>51.2</ele>
        <time>2017-10-18T19:36:10Z</time>
      </trkpt>
      <trkpt lat="62.654792102511" lon="17.887968022788">
        <ele>51.2</ele>
        <time>2017-10-18T19:36:37Z</time>
      </trkpt>
      <trkpt lat="62.654793611253" lon="17.888054523996">
        <ele>51</ele>
        <time>2017-10-18T19:36:38Z</time>
      </trkpt>
      <trkpt lat="62.654795287633" lon="17.888162985782">
        <ele>51</ele>
        <time>2017-10-18T19:36:39Z</time>
      </trkpt>
      <trkpt lat="62.65479805366" lon="17.888268262446">
        <ele>51.2</ele>
        <time>2017-10-18T19:36:40Z</time>
      </trkpt>
      <trkpt lat="62.654803250438" lon="17.888375466947">
        <ele>51.2</ele>
        <time>2017-10-18T19:36:41Z</time>
      </trkpt>
      <trkpt lat="62.654806603198" lon="17.88848585657">
        <ele>51.2</ele>
        <time>2017-10-18T19:36:42Z</time>
      </trkpt>
      <trkpt lat="62.65480727375" lon="17.88858476299">
        <ele>51.2</ele>
        <time>2017-10-18T19:36:43Z</time>
      </trkpt>
      <trkpt lat="62.654804088628" lon="17.888675119872">
        <ele>51.2</ele>
        <time>2017-10-18T19:36:44Z</time>
      </trkpt>
      <trkpt lat="62.654793778891" lon="17.888775115939">
        <ele>51.4</ele>
        <time>2017-10-18T19:36:45Z</time>
      </trkpt>
      <trkpt lat="62.654774500521" lon="17.888862539156">
        <ele>51.4</ele>
        <time>2017-10-18T19:36:46Z</time>
      </trkpt>
      <trkpt lat="62.654746002061" lon="17.888928672347">
        <ele>51.4</ele>
        <time>2017-10-18T19:36:47Z</time>
      </trkpt>
      <trkpt lat="62.654703757285" lon="17.888982987059">
        <ele>51.6</ele>
        <time>2017-10-18T19:36:48Z</time>
      </trkpt>
      <trkpt lat="62.654661847785" lon="17.889019867419">
        <ele>51.6</ele>
        <time>2017-10-18T19:36:49Z</time>
      </trkpt>
      <trkpt lat="62.654611388747" lon="17.8890365474">
        <ele>51.8</ele>
        <time>2017-10-18T19:36:50Z</time>
      </trkpt>
      <trkpt lat="62.654563025184" lon="17.889050880449">
        <ele>51.8</ele>
        <time>2017-10-18T19:36:51Z</time>
      </trkpt>
      <trkpt lat="62.654513739612" lon="17.889065967869">
        <ele>52</ele>
        <time>2017-10-18T19:36:52Z</time>
      </trkpt>
      <trkpt lat="62.654468225895" lon="17.889080803832">
        <ele>52</ele>
        <time>2017-10-18T19:36:53Z</time>
      </trkpt>
      <trkpt lat="62.654418269771" lon="17.889105195161">
        <ele>52.2</ele>
        <time>2017-10-18T19:36:54Z</time>
      </trkpt>
      <trkpt lat="62.654369151837" lon="17.889133190707">
        <ele>52.2</ele>
        <time>2017-10-18T19:36:55Z</time>
      </trkpt>
      <trkpt lat="62.654317435514" lon="17.889170071067">
        <ele>52.4</ele>
        <time>2017-10-18T19:36:56Z</time>
      </trkpt>
      <trkpt lat="62.6542666412" lon="17.889210974739">
        <ele>52.6</ele>
        <time>2017-10-18T19:36:57Z</time>
      </trkpt>
      <trkpt lat="62.654216601257" lon="17.889258081017">
        <ele>53</ele>
        <time>2017-10-18T19:36:58Z</time>
      </trkpt>
      <trkpt lat="62.654173099196" lon="17.889302756544">
        <ele>53.2</ele>
        <time>2017-10-18T19:36:59Z</time>
      </trkpt>
      <trkpt lat="62.654116772828" lon="17.889360340197">
        <ele>53.6</ele>
        <time>2017-10-18T19:37:00Z</time>
      </trkpt>
      <trkpt lat="62.654065978514" lon="17.889416666565">
        <ele>53.8</ele>
        <time>2017-10-18T19:37:01Z</time>
      </trkpt>
      <trkpt lat="62.654014848924" lon="17.889472657657">
        <ele>54</ele>
        <time>2017-10-18T19:37:02Z</time>
      </trkpt>
      <trkpt lat="62.653963635515" lon="17.889533426432">
        <ele>54.2</ele>
        <time>2017-10-18T19:37:03Z</time>
      </trkpt>
      <trkpt lat="62.653913847029" lon="17.889590842447">
        <ele>54.2</ele>
        <time>2017-10-18T19:37:04Z</time>
      </trkpt>
      <trkpt lat="62.653861711611" lon="17.88965094067">
        <ele>54.6</ele>
        <time>2017-10-18T19:37:05Z</time>
      </trkpt>
      <trkpt lat="62.653805385243" lon="17.889719420793">
        <ele>54.8</ele>
        <time>2017-10-18T19:37:06Z</time>
      </trkpt>
      <trkpt lat="62.653749897065" lon="17.889778764645">
        <ele>54.8</ele>
        <time>2017-10-18T19:37:07Z</time>
      </trkpt>
      <trkpt lat="62.653695749991" lon="17.889841293619">
        <ele>55</ele>
        <time>2017-10-18T19:37:08Z</time>
      </trkpt>
      <trkpt lat="62.653644452763" lon="17.889897117073">
        <ele>55</ele>
        <time>2017-10-18T19:37:09Z</time>
      </trkpt>
      <trkpt lat="62.653590724784" lon="17.889955706554">
        <ele>55.2</ele>
        <time>2017-10-18T19:37:10Z</time>
      </trkpt>
      <trkpt lat="62.653537332081" lon="17.890014463673">
        <ele>55</ele>
        <time>2017-10-18T19:37:11Z</time>
      </trkpt>
      <trkpt lat="62.653480921894" lon="17.890079423398">
        <ele>55</ele>
        <time>2017-10-18T19:37:12Z</time>
      </trkpt>
      <trkpt lat="62.653427864467" lon="17.890138851069">
        <ele>55.2</ele>
        <time>2017-10-18T19:37:13Z</time>
      </trkpt>
      <trkpt lat="62.653379417085" lon="17.890196937636">
        <ele>55.4</ele>
        <time>2017-10-18T19:37:14Z</time>
      </trkpt>
      <trkpt lat="62.653324934735" lon="17.890255024203">
        <ele>55.6</ele>
        <time>2017-10-18T19:37:15Z</time>
      </trkpt>
      <trkpt lat="62.653276235896" lon="17.890306321431">
        <ele>55.8</ele>
        <time>2017-10-18T19:37:16Z</time>
      </trkpt>
      <trkpt lat="62.653234158758" lon="17.89034831475">
        <ele>56</ele>
        <time>2017-10-18T19:37:17Z</time>
      </trkpt>
      <trkpt lat="62.653189147955" lon="17.890399779616">
        <ele>56.2</ele>
        <time>2017-10-18T19:37:18Z</time>
      </trkpt>
      <trkpt lat="62.653150758853" lon="17.890445880066">
        <ele>56.4</ele>
        <time>2017-10-18T19:37:19Z</time>
      </trkpt>
      <trkpt lat="62.653108597896" lon="17.89049332162">
        <ele>56.6</ele>
        <time>2017-10-18T19:37:20Z</time>
      </trkpt>
      <trkpt lat="62.653068616233" lon="17.890533135645">
        <ele>56.8</ele>
        <time>2017-10-18T19:37:21Z</time>
      </trkpt>
      <trkpt lat="62.653027377285" lon="17.890575967154">
        <ele>57</ele>
        <time>2017-10-18T19:37:22Z</time>
      </trkpt>
      <trkpt lat="62.652992927676" lon="17.890622738156">
        <ele>57.2</ele>
        <time>2017-10-18T19:37:23Z</time>
      </trkpt>
      <trkpt lat="62.652953868022" lon="17.890674035384">
        <ele>57.4</ele>
        <time>2017-10-18T19:37:24Z</time>
      </trkpt>
      <trkpt lat="62.652913299626" lon="17.890721057843">
        <ele>57.4</ele>
        <time>2017-10-18T19:37:25Z</time>
      </trkpt>
      <trkpt lat="62.652871473945" lon="17.890765984827">
        <ele>57.2</ele>
        <time>2017-10-18T19:37:26Z</time>
      </trkpt>
      <trkpt lat="62.652833252481" lon="17.890821556824">
        <ele>57.2</ele>
        <time>2017-10-18T19:37:27Z</time>
      </trkpt>
      <trkpt lat="62.65279226499" lon="17.890888612024">
        <ele>57.4</ele>
        <time>2017-10-18T19:37:28Z</time>
      </trkpt>
      <trkpt lat="62.652753624431" lon="17.890945608944">
        <ele>57.4</ele>
        <time>2017-10-18T19:37:29Z</time>
      </trkpt>
      <trkpt lat="62.652700818461" lon="17.891015681628">
        <ele>57.6</ele>
        <time>2017-10-18T19:37:30Z</time>
      </trkpt>
      <trkpt lat="62.652651951984" lon="17.891069409607">
        <ele>57.8</ele>
        <time>2017-10-18T19:37:31Z</time>
      </trkpt>
      <trkpt lat="62.652602331136" lon="17.891124143414">
        <ele>57.8</ele>
        <time>2017-10-18T19:37:32Z</time>
      </trkpt>
      <trkpt lat="62.652549860442" lon="17.891176362651">
        <ele>58</ele>
        <time>2017-10-18T19:37:33Z</time>
      </trkpt>
      <trkpt lat="62.652501496879" lon="17.891229587716">
        <ele>58.2</ele>
        <time>2017-10-18T19:37:34Z</time>
      </trkpt>
      <trkpt lat="62.652448439452" lon="17.891287003731">
        <ele>58.2</ele>
        <time>2017-10-18T19:37:35Z</time>
      </trkpt>
      <trkpt lat="62.652391861627" lon="17.891349281248">
        <ele>58.2</ele>
        <time>2017-10-18T19:37:36Z</time>
      </trkpt>
      <trkpt lat="62.652341067313" lon="17.891414911525">
        <ele>58.4</ele>
        <time>2017-10-18T19:37:37Z</time>
      </trkpt>
      <trkpt lat="62.652290775913" lon="17.891477691956">
        <ele>58.4</ele>
        <time>2017-10-18T19:37:38Z</time>
      </trkpt>
      <trkpt lat="62.652241155065" lon="17.891533766867">
        <ele>58.6</ele>
        <time>2017-10-18T19:37:39Z</time>
      </trkpt>
      <trkpt lat="62.652186924172" lon="17.891590344692">
        <ele>58.8</ele>
        <time>2017-10-18T19:37:40Z</time>
      </trkpt>
      <trkpt lat="62.65214182955" lon="17.891643150662">
        <ele>59</ele>
        <time>2017-10-18T19:37:41Z</time>
      </trkpt>
      <trkpt lat="62.652091873426" lon="17.89170115341">
        <ele>59.4</ele>
        <time>2017-10-18T19:37:42Z</time>
      </trkpt>
      <trkpt lat="62.652042671673" lon="17.891757479778">
        <ele>59.6</ele>
        <time>2017-10-18T19:37:43Z</time>
      </trkpt>
      <trkpt lat="62.651998163784" lon="17.891811710671">
        <ele>60</ele>
        <time>2017-10-18T19:37:44Z</time>
      </trkpt>
      <trkpt lat="62.651946615099" lon="17.891872311808">
        <ele>60.2</ele>
        <time>2017-10-18T19:37:45Z</time>
      </trkpt>
      <trkpt lat="62.651900263192" lon="17.891926794158">
        <ele>60.4</ele>
        <time>2017-10-18T19:37:46Z</time>
      </trkpt>
      <trkpt lat="62.651857850778" lon="17.891974822445">
        <ele>60.6</ele>
        <time>2017-10-18T19:37:47Z</time>
      </trkpt>
      <trkpt lat="62.651805380084" lon="17.89203391484">
        <ele>60.8</ele>
        <time>2017-10-18T19:37:48Z</time>
      </trkpt>
      <trkpt lat="62.651761375109" lon="17.892087307543">
        <ele>61</ele>
        <time>2017-10-18T19:37:49Z</time>
      </trkpt>
      <trkpt lat="62.651711921899" lon="17.892143801549">
        <ele>61.4</ele>
        <time>2017-10-18T19:37:50Z</time>
      </trkpt>
      <trkpt lat="62.651664564164" lon="17.892196439881">
        <ele>61.6</ele>
        <time>2017-10-18T19:37:51Z</time>
      </trkpt>
      <trkpt lat="62.651618379895" lon="17.892254442629">
        <ele>61.8</ele>
        <time>2017-10-18T19:37:52Z</time>
      </trkpt>
      <trkpt lat="62.651574961653" lon="17.892306661866">
        <ele>62</ele>
        <time>2017-10-18T19:37:53Z</time>
      </trkpt>
      <trkpt lat="62.651528106832" lon="17.892364496976">
        <ele>62</ele>
        <time>2017-10-18T19:37:54Z</time>
      </trkpt>
      <trkpt lat="62.651479072717" lon="17.892425433389">
        <ele>62.2</ele>
        <time>2017-10-18T19:37:55Z</time>
      </trkpt>
      <trkpt lat="62.651433307543" lon="17.892478742273">
        <ele>62.4</ele>
        <time>2017-10-18T19:37:56Z</time>
      </trkpt>
      <trkpt lat="62.651393074423" lon="17.892531715881">
        <ele>62.6</ele>
        <time>2017-10-18T19:37:57Z</time>
      </trkpt>
      <trkpt lat="62.651349823819" lon="17.892591897923">
        <ele>62.8</ele>
        <time>2017-10-18T19:37:58Z</time>
      </trkpt>
      <trkpt lat="62.651314200744" lon="17.89264327897">
        <ele>62.8</ele>
        <time>2017-10-18T19:37:59Z</time>
      </trkpt>
      <trkpt lat="62.651267513561" lon="17.89270949598">
        <ele>63</ele>
        <time>2017-10-18T19:38:00Z</time>
      </trkpt>
      <trkpt lat="62.651226945165" lon="17.892766576719">
        <ele>63.2</ele>
        <time>2017-10-18T19:38:01Z</time>
      </trkpt>
      <trkpt lat="62.651187214959" lon="17.892828183684">
        <ele>63.4</ele>
        <time>2017-10-18T19:38:02Z</time>
      </trkpt>
      <trkpt lat="62.651148071486" lon="17.892891886124">
        <ele>63.6</ele>
        <time>2017-10-18T19:38:03Z</time>
      </trkpt>
      <trkpt lat="62.651111442583" lon="17.892948128673">
        <ele>63.8</ele>
        <time>2017-10-18T19:38:04Z</time>
      </trkpt>
      <trkpt lat="62.651070538911" lon="17.893003616851">
        <ele>64</ele>
        <time>2017-10-18T19:38:05Z</time>
      </trkpt>
      <trkpt lat="62.651039274424" lon="17.893052064233">
        <ele>64</ele>
        <time>2017-10-18T19:38:06Z</time>
      </trkpt>
      <trkpt lat="62.65099267106" lon="17.893133955396">
        <ele>64.2</ele>
        <time>2017-10-18T19:38:07Z</time>
      </trkpt>
      <trkpt lat="62.650955539243" lon="17.893203776623">
        <ele>64.4</ele>
        <time>2017-10-18T19:38:08Z</time>
      </trkpt>
      <trkpt lat="62.650921676367" lon="17.893271167099">
        <ele>64.4</ele>
        <time>2017-10-18T19:38:09Z</time>
      </trkpt>
      <trkpt lat="62.650884041636" lon="17.893350459873">
        <ele>64.6</ele>
        <time>2017-10-18T19:38:10Z</time>
      </trkpt>
      <trkpt lat="62.650850597855" lon="17.893422879489">
        <ele>64.6</ele>
        <time>2017-10-18T19:38:11Z</time>
      </trkpt>
      <trkpt lat="62.6508132984" lon="17.893503094272">
        <ele>64.6</ele>
        <time>2017-10-18T19:38:12Z</time>
      </trkpt>
      <trkpt lat="62.650778345877" lon="17.893575765345">
        <ele>64.8</ele>
        <time>2017-10-18T19:38:13Z</time>
      </trkpt>
      <trkpt lat="62.650744734458" lon="17.893640473613">
        <ele>64.8</ele>
        <time>2017-10-18T19:38:14Z</time>
      </trkpt>
      <trkpt lat="62.650710955401" lon="17.893721778043">
        <ele>64.8</ele>
        <time>2017-10-18T19:38:15Z</time>
      </trkpt>
      <trkpt lat="62.650679523276" lon="17.893796963686">
        <ele>64.8</ele>
        <time>2017-10-18T19:38:16Z</time>
      </trkpt>
      <trkpt lat="62.650653036472" lon="17.893861252859">
        <ele>64.8</ele>
        <time>2017-10-18T19:38:17Z</time>
      </trkpt>
      <trkpt lat="62.650615317922" lon="17.893944317488">
        <ele>65</ele>
        <time>2017-10-18T19:38:18Z</time>
      </trkpt>
      <trkpt lat="62.650585562177" lon="17.894012210878">
        <ele>65</ele>
        <time>2017-10-18T19:38:19Z</time>
      </trkpt>
      <trkpt lat="62.65055178312" lon="17.894098209172">
        <ele>65.2</ele>
        <time>2017-10-18T19:38:20Z</time>
      </trkpt>
      <trkpt lat="62.650520267176" lon="17.894180603249">
        <ele>65.2</ele>
        <time>2017-10-18T19:38:21Z</time>
      </trkpt>
      <trkpt lat="62.650488667413" lon="17.89426350024">
        <ele>65.2</ele>
        <time>2017-10-18T19:38:22Z</time>
      </trkpt>
      <trkpt lat="62.650458408754" lon="17.894339104978">
        <ele>65.2</ele>
        <time>2017-10-18T19:38:23Z</time>
      </trkpt>
      <trkpt lat="62.650426557534" lon="17.894421666693">
        <ele>65.2</ele>
        <time>2017-10-18T19:38:24Z</time>
      </trkpt>
      <trkpt lat="62.65039168883" lon="17.894506994435">
        <ele>65.2</ele>
        <time>2017-10-18T19:38:25Z</time>
      </trkpt>
      <trkpt lat="62.650360843438" lon="17.894587544494">
        <ele>65.4</ele>
        <time>2017-10-18T19:38:26Z</time>
      </trkpt>
      <trkpt lat="62.65033133915" lon="17.894669016562">
        <ele>65.4</ele>
        <time>2017-10-18T19:38:27Z</time>
      </trkpt>
      <trkpt lat="62.650300745215" lon="17.894748644612">
        <ele>65.4</ele>
        <time>2017-10-18T19:38:28Z</time>
      </trkpt>
      <trkpt lat="62.650275264239" lon="17.894816789459">
        <ele>65.4</ele>
        <time>2017-10-18T19:38:29Z</time>
      </trkpt>
      <trkpt lat="62.650242323372" lon="17.894908152169">
        <ele>65.6</ele>
        <time>2017-10-18T19:38:30Z</time>
      </trkpt>
      <trkpt lat="62.650212483808" lon="17.894988115495">
        <ele>65.6</ele>
        <time>2017-10-18T19:38:31Z</time>
      </trkpt>
      <trkpt lat="62.650182560425" lon="17.895065480432">
        <ele>65.6</ele>
        <time>2017-10-18T19:38:32Z</time>
      </trkpt>
      <trkpt lat="62.650151715033" lon="17.895142929188">
        <ele>65.6</ele>
        <time>2017-10-18T19:38:33Z</time>
      </trkpt>
      <trkpt lat="62.650121540193" lon="17.895210319664">
        <ele>65.8</ele>
        <time>2017-10-18T19:38:34Z</time>
      </trkpt>
      <trkpt lat="62.650090359525" lon="17.895284750936">
        <ele>65.8</ele>
        <time>2017-10-18T19:38:35Z</time>
      </trkpt>
      <trkpt lat="62.650056999563" lon="17.895361361502">
        <ele>65.8</ele>
        <time>2017-10-18T19:38:36Z</time>
      </trkpt>
      <trkpt lat="62.650026405628" lon="17.895434200213">
        <ele>66</ele>
        <time>2017-10-18T19:38:37Z</time>
      </trkpt>
      <trkpt lat="62.649998074806" lon="17.895508799123">
        <ele>66</ele>
        <time>2017-10-18T19:38:38Z</time>
      </trkpt>
      <trkpt lat="62.649970414536" lon="17.895576524875">
        <ele>66</ele>
        <time>2017-10-18T19:38:39Z</time>
      </trkpt>
      <trkpt lat="62.649941161705" lon="17.8956582484">
        <ele>66</ele>
        <time>2017-10-18T19:38:40Z</time>
      </trkpt>
      <trkpt lat="62.649914423444" lon="17.895730500378">
        <ele>66.2</ele>
        <time>2017-10-18T19:38:41Z</time>
      </trkpt>
      <trkpt lat="62.649883410414" lon="17.895811469532">
        <ele>66.4</ele>
        <time>2017-10-18T19:38:42Z</time>
      </trkpt>
      <trkpt lat="62.649852313565" lon="17.895883470053">
        <ele>66.4</ele>
        <time>2017-10-18T19:38:43Z</time>
      </trkpt>
      <trkpt lat="62.649823060734" lon="17.89595077671">
        <ele>66.4</ele>
        <time>2017-10-18T19:38:44Z</time>
      </trkpt>
      <trkpt lat="62.649788108211" lon="17.89602453743">
        <ele>66.4</ele>
        <time>2017-10-18T19:38:45Z</time>
      </trkpt>
      <trkpt lat="62.649757514276" lon="17.896098717245">
        <ele>66.6</ele>
        <time>2017-10-18T19:38:46Z</time>
      </trkpt>
      <trkpt lat="62.649731530386" lon="17.896167532644">
        <ele>66.6</ele>
        <time>2017-10-18T19:38:47Z</time>
      </trkpt>
      <trkpt lat="62.649697751329" lon="17.896254452947">
        <ele>66.6</ele>
        <time>2017-10-18T19:38:48Z</time>
      </trkpt>
      <trkpt lat="62.649666989756" lon="17.896328548943">
        <ele>66.6</ele>
        <time>2017-10-18T19:38:49Z</time>
      </trkpt>
      <trkpt lat="62.649634635622" lon="17.896414044323">
        <ele>66.6</ele>
        <time>2017-10-18T19:38:50Z</time>
      </trkpt>
      <trkpt lat="62.64960295204" lon="17.896493253278">
        <ele>66.8</ele>
        <time>2017-10-18T19:38:51Z</time>
      </trkpt>
      <trkpt lat="62.649570346449" lon="17.896573468061">
        <ele>66.8</ele>
        <time>2017-10-18T19:38:52Z</time>
      </trkpt>
      <trkpt lat="62.649540842161" lon="17.896648821342">
        <ele>66.8</ele>
        <time>2017-10-18T19:38:53Z</time>
      </trkpt>
      <trkpt lat="62.649510080588" lon="17.896731047781">
        <ele>66.8</ele>
        <time>2017-10-18T19:38:54Z</time>
      </trkpt>
      <trkpt lat="62.649477726454" lon="17.896817800446">
        <ele>66.8</ele>
        <time>2017-10-18T19:38:55Z</time>
      </trkpt>
      <trkpt lat="62.649447719252" lon="17.896902541455">
        <ele>66.8</ele>
        <time>2017-10-18T19:38:56Z</time>
      </trkpt>
      <trkpt lat="62.649418969335" lon="17.896987031007">
        <ele>66.8</ele>
        <time>2017-10-18T19:38:57Z</time>
      </trkpt>
      <trkpt lat="62.649393488359" lon="17.897080405373">
        <ele>66.8</ele>
        <time>2017-10-18T19:38:58Z</time>
      </trkpt>
      <trkpt lat="62.64937077341" lon="17.897155842473">
        <ele>66.8</ele>
        <time>2017-10-18T19:38:59Z</time>
      </trkpt>
      <trkpt lat="62.649340095656" lon="17.897254581255">
        <ele>66.8</ele>
        <time>2017-10-18T19:39:00Z</time>
      </trkpt>
      <trkpt lat="62.649308160617" lon="17.897339406083">
        <ele>66.8</ele>
        <time>2017-10-18T19:39:01Z</time>
      </trkpt>
      <trkpt lat="62.649276141759" lon="17.897418615038">
        <ele>66.8</ele>
        <time>2017-10-18T19:39:02Z</time>
      </trkpt>
      <trkpt lat="62.649245296367" lon="17.897501512029">
        <ele>66.8</ele>
        <time>2017-10-18T19:39:03Z</time>
      </trkpt>
      <trkpt lat="62.649214115699" lon="17.897569824514">
        <ele>66.8</ele>
        <time>2017-10-18T19:39:04Z</time>
      </trkpt>
      <trkpt lat="62.649179917547" lon="17.897646015985">
        <ele>67</ele>
        <time>2017-10-18T19:39:05Z</time>
      </trkpt>
      <trkpt lat="62.649147395775" lon="17.897729332071">
        <ele>67</ele>
        <time>2017-10-18T19:39:06Z</time>
      </trkpt>
      <trkpt lat="62.64911680184" lon="17.897811893786">
        <ele>67</ele>
        <time>2017-10-18T19:39:07Z</time>
      </trkpt>
      <trkpt lat="62.649086962276" lon="17.897887749981">
        <ele>67</ele>
        <time>2017-10-18T19:39:08Z</time>
      </trkpt>
      <trkpt lat="62.649060307834" lon="17.897954889">
        <ele>66.8</ele>
        <time>2017-10-18T19:39:09Z</time>
      </trkpt>
      <trkpt lat="62.649031557917" lon="17.898038875638">
        <ele>66.8</ele>
        <time>2017-10-18T19:39:10Z</time>
      </trkpt>
      <trkpt lat="62.649007669502" lon="17.898114899471">
        <ele>67</ele>
        <time>2017-10-18T19:39:11Z</time>
      </trkpt>
      <trkpt lat="62.648975566825" lon="17.89818874401">
        <ele>67</ele>
        <time>2017-10-18T19:39:12Z</time>
      </trkpt>
      <trkpt lat="62.648946230175" lon="17.898250602432">
        <ele>67</ele>
        <time>2017-10-18T19:39:13Z</time>
      </trkpt>
      <trkpt lat="62.648917731715" lon="17.898315645976">
        <ele>67</ele>
        <time>2017-10-18T19:39:14Z</time>
      </trkpt>
      <trkpt lat="62.648888562703" lon="17.898395274026">
        <ele>67</ele>
        <time>2017-10-18T19:39:15Z</time>
      </trkpt>
      <trkpt lat="62.648866434487" lon="17.898474902076">
        <ele>66.8</ele>
        <time>2017-10-18T19:39:16Z</time>
      </trkpt>
      <trkpt lat="62.648849503049" lon="17.898546064407">
        <ele>66.8</ele>
        <time>2017-10-18T19:39:17Z</time>
      </trkpt>
      <trkpt lat="62.6488184062" lon="17.898623680801">
        <ele>66.6</ele>
        <time>2017-10-18T19:39:18Z</time>
      </trkpt>
      <trkpt lat="62.648793344319" lon="17.898693250571">
        <ele>66.8</ele>
        <time>2017-10-18T19:39:19Z</time>
      </trkpt>
      <trkpt lat="62.64876392385" lon="17.898768352395">
        <ele>66.6</ele>
        <time>2017-10-18T19:39:20Z</time>
      </trkpt>
      <trkpt lat="62.648737353227" lon="17.898844962961">
        <ele>66.6</ele>
        <time>2017-10-18T19:39:21Z</time>
      </trkpt>
      <trkpt lat="62.648709273862" lon="17.898921741165">
        <ele>66.6</ele>
        <time>2017-10-18T19:39:22Z</time>
      </trkpt>
      <trkpt lat="62.64868178123" lon="17.898992316763">
        <ele>66.4</ele>
        <time>2017-10-18T19:39:23Z</time>
      </trkpt>
      <trkpt lat="62.648652193123" lon="17.899072447727">
        <ele>66.4</ele>
        <time>2017-10-18T19:39:24Z</time>
      </trkpt>
      <trkpt lat="62.648617492057" lon="17.899144364429">
        <ele>66.4</ele>
        <time>2017-10-18T19:39:25Z</time>
      </trkpt>
      <trkpt lat="62.648588490683" lon="17.899214520932">
        <ele>66.4</ele>
        <time>2017-10-18T19:39:26Z</time>
      </trkpt>
      <trkpt lat="62.648562255336" lon="17.899290209489">
        <ele>66.2</ele>
        <time>2017-10-18T19:39:27Z</time>
      </trkpt>
      <trkpt lat="62.648529565926" lon="17.899375872507">
        <ele>66.2</ele>
        <time>2017-10-18T19:39:28Z</time>
      </trkpt>
      <trkpt lat="62.648503582036" lon="17.899453656539">
        <ele>66.4</ele>
        <time>2017-10-18T19:39:29Z</time>
      </trkpt>
      <trkpt lat="62.648467875142" lon="17.899550718941">
        <ele>66</ele>
        <time>2017-10-18T19:39:30Z</time>
      </trkpt>
      <trkpt lat="62.648436275379" lon="17.899632861561">
        <ele>65.8</ele>
        <time>2017-10-18T19:39:31Z</time>
      </trkpt>
      <trkpt lat="62.648404843254" lon="17.89971424981">
        <ele>65.6</ele>
        <time>2017-10-18T19:39:32Z</time>
      </trkpt>
      <trkpt lat="62.648371818568" lon="17.899793626403">
        <ele>65.6</ele>
        <time>2017-10-18T19:39:33Z</time>
      </trkpt>
      <trkpt lat="62.648340134986" lon="17.899867554761">
        <ele>65.4</ele>
        <time>2017-10-18T19:39:34Z</time>
      </trkpt>
      <trkpt lat="62.648311468888" lon="17.89994894301">
        <ele>65.4</ele>
        <time>2017-10-18T19:39:35Z</time>
      </trkpt>
      <trkpt lat="62.648279282392" lon="17.900030415078">
        <ele>65.4</ele>
        <time>2017-10-18T19:39:36Z</time>
      </trkpt>
      <trkpt lat="62.64825011338" lon="17.90009143531">
        <ele>65.2</ele>
        <time>2017-10-18T19:39:37Z</time>
      </trkpt>
      <trkpt lat="62.648220944368" lon="17.900149605696">
        <ele>65.2</ele>
        <time>2017-10-18T19:39:38Z</time>
      </trkpt>
      <trkpt lat="62.648192697365" lon="17.900187324246">
        <ele>65</ele>
        <time>2017-10-18T19:39:39Z</time>
      </trkpt>
      <trkpt lat="62.648157158109" lon="17.900237950922">
        <ele>65</ele>
        <time>2017-10-18T19:39:40Z</time>
      </trkpt>
      <trkpt lat="62.648122959957" lon="17.900277429671">
        <ele>64.8</ele>
        <time>2017-10-18T19:39:41Z</time>
      </trkpt>
      <trkpt lat="62.648079038801" lon="17.900302407733">
        <ele>64.6</ele>
        <time>2017-10-18T19:39:42Z</time>
      </trkpt>
      <trkpt lat="62.648034782369" lon="17.90030098281">
        <ele>64.4</ele>
        <time>2017-10-18T19:39:43Z</time>
      </trkpt>
      <trkpt lat="62.647998572561" lon="17.900311124909">
        <ele>64.2</ele>
        <time>2017-10-18T19:39:44Z</time>
      </trkpt>
      <trkpt lat="62.647956411604" lon="17.900357812092">
        <ele>64</ele>
        <time>2017-10-18T19:39:45Z</time>
      </trkpt>
      <trkpt lat="62.647924560384" lon="17.900419502876">
        <ele>64</ele>
        <time>2017-10-18T19:39:46Z</time>
      </trkpt>
      <trkpt lat="62.647904527643" lon="17.900485468429">
        <ele>63.8</ele>
        <time>2017-10-18T19:39:47Z</time>
      </trkpt>
      <trkpt lat="62.647877621744" lon="17.900556211665">
        <ele>63.8</ele>
        <time>2017-10-18T19:39:48Z</time>
      </trkpt>
      <trkpt lat="62.647852392225" lon="17.900624105055">
        <ele>63.6</ele>
        <time>2017-10-18T19:39:49Z</time>
      </trkpt>
      <trkpt lat="62.647821043919" lon="17.900697530499">
        <ele>63.4</ele>
        <time>2017-10-18T19:39:50Z</time>
      </trkpt>
      <trkpt lat="62.647790869079" lon="17.900773470513">
        <ele>63.4</ele>
        <time>2017-10-18T19:39:51Z</time>
      </trkpt>
      <trkpt lat="62.647759101678" lon="17.900835412754">
        <ele>63.2</ele>
        <time>2017-10-18T19:39:52Z</time>
      </trkpt>
      <trkpt lat="62.647728256286" lon="17.900899115194">
        <ele>63</ele>
        <time>2017-10-18T19:39:53Z</time>
      </trkpt>
      <trkpt lat="62.647696991799" lon="17.90097907852">
        <ele>62.8</ele>
        <time>2017-10-18T19:39:54Z</time>
      </trkpt>
      <trkpt lat="62.647664386208" lon="17.901068010479">
        <ele>62.6</ele>
        <time>2017-10-18T19:39:55Z</time>
      </trkpt>
      <trkpt lat="62.647631696798" lon="17.901151578022">
        <ele>62.4</ele>
        <time>2017-10-18T19:39:56Z</time>
      </trkpt>
      <trkpt lat="62.647598336836" lon="17.901224919647">
        <ele>62.2</ele>
        <time>2017-10-18T19:39:57Z</time>
      </trkpt>
      <trkpt lat="62.647564138684" lon="17.901302033127">
        <ele>62</ele>
        <time>2017-10-18T19:39:58Z</time>
      </trkpt>
      <trkpt lat="62.647537819518" lon="17.901378476055">
        <ele>61.8</ele>
        <time>2017-10-18T19:39:59Z</time>
      </trkpt>
      <trkpt lat="62.647500603882" lon="17.901475622276">
        <ele>61.6</ele>
        <time>2017-10-18T19:40:00Z</time>
      </trkpt>
      <trkpt lat="62.647469674671" lon="17.901569918651">
        <ele>61.4</ele>
        <time>2017-10-18T19:40:01Z</time>
      </trkpt>
      <trkpt lat="62.647438829279" lon="17.901663963569">
        <ele>61.2</ele>
        <time>2017-10-18T19:40:02Z</time>
      </trkpt>
      <trkpt lat="62.647407145697" lon="17.9017602716">
        <ele>61</ele>
        <time>2017-10-18T19:40:03Z</time>
      </trkpt>
      <trkpt lat="62.647375378296" lon="17.901844677333">
        <ele>60.8</ele>
        <time>2017-10-18T19:40:04Z</time>
      </trkpt>
      <trkpt lat="62.647336570099" lon="17.901927825781">
        <ele>60.6</ele>
        <time>2017-10-18T19:40:05Z</time>
      </trkpt>
      <trkpt lat="62.647299773558" lon="17.902016338645">
        <ele>60.4</ele>
        <time>2017-10-18T19:40:06Z</time>
      </trkpt>
      <trkpt lat="62.647264904854" lon="17.902105773518">
        <ele>60.2</ele>
        <time>2017-10-18T19:40:07Z</time>
      </trkpt>
      <trkpt lat="62.647230706702" lon="17.902203841748">
        <ele>60</ele>
        <time>2017-10-18T19:40:08Z</time>
      </trkpt>
      <trkpt lat="62.647193407247" lon="17.902299395408">
        <ele>59.6</ele>
        <time>2017-10-18T19:40:09Z</time>
      </trkpt>
      <trkpt lat="62.647155521059" lon="17.902407521918">
        <ele>59.2</ele>
        <time>2017-10-18T19:40:10Z</time>
      </trkpt>
      <trkpt lat="62.647119646527" lon="17.902510954564">
        <ele>58.6</ele>
        <time>2017-10-18T19:40:11Z</time>
      </trkpt>
      <trkpt lat="62.647075306276" lon="17.902625535137">
        <ele>58.2</ele>
        <time>2017-10-18T19:40:12Z</time>
      </trkpt>
      <trkpt lat="62.647033815871" lon="17.902731147077">
        <ele>57.8</ele>
        <time>2017-10-18T19:40:13Z</time>
      </trkpt>
      <trkpt lat="62.646995175312" lon="17.902830221135">
        <ele>57.4</ele>
        <time>2017-10-18T19:40:14Z</time>
      </trkpt>
      <trkpt lat="62.646953098174" lon="17.902944382613">
        <ele>57.2</ele>
        <time>2017-10-18T19:40:15Z</time>
      </trkpt>
      <trkpt lat="62.646911859226" lon="17.903047312345">
        <ele>56.8</ele>
        <time>2017-10-18T19:40:16Z</time>
      </trkpt>
      <trkpt lat="62.646875649418" lon="17.903143201281">
        <ele>56.4</ele>
        <time>2017-10-18T19:40:17Z</time>
      </trkpt>
      <trkpt lat="62.646830806253" lon="17.903265577021">
        <ele>56</ele>
        <time>2017-10-18T19:40:18Z</time>
      </trkpt>
      <trkpt lat="62.646792920065" lon="17.903368339115">
        <ele>55.6</ele>
        <time>2017-10-18T19:40:19Z</time>
      </trkpt>
      <trkpt lat="62.646749250366" lon="17.903482500593">
        <ele>55</ele>
        <time>2017-10-18T19:40:20Z</time>
      </trkpt>
      <trkpt lat="62.646705077753" lon="17.903588196352">
        <ele>54.6</ele>
        <time>2017-10-18T19:40:21Z</time>
      </trkpt>
      <trkpt lat="62.64665755238" lon="17.90369816688">
        <ele>54</ele>
        <time>2017-10-18T19:40:22Z</time>
      </trkpt>
      <trkpt lat="62.646609356455" lon="17.903792463255">
        <ele>53.6</ele>
        <time>2017-10-18T19:40:23Z</time>
      </trkpt>
      <trkpt lat="62.646561831082" lon="17.903891202037">
        <ele>53.2</ele>
        <time>2017-10-18T19:40:24Z</time>
      </trkpt>
      <trkpt lat="62.6465133837" lon="17.904010895569">
        <ele>52.8</ele>
        <time>2017-10-18T19:40:25Z</time>
      </trkpt>
      <trkpt lat="62.646469630182" lon="17.904126062875">
        <ele>52.6</ele>
        <time>2017-10-18T19:40:26Z</time>
      </trkpt>
      <trkpt lat="62.646422356266" lon="17.904249528262">
        <ele>52.2</ele>
        <time>2017-10-18T19:40:27Z</time>
      </trkpt>
      <trkpt lat="62.646377680739" lon="17.904372155459">
        <ele>51.6</ele>
        <time>2017-10-18T19:40:28Z</time>
      </trkpt>
      <trkpt lat="62.646337699076" lon="17.90447768358">
        <ele>51.2</ele>
        <time>2017-10-18T19:40:29Z</time>
      </trkpt>
      <trkpt lat="62.646284893106" lon="17.904610452876">
        <ele>50.6</ele>
        <time>2017-10-18T19:40:30Z</time>
      </trkpt>
      <trkpt lat="62.646240049941" lon="17.90472997877">
        <ele>50.2</ele>
        <time>2017-10-18T19:40:31Z</time>
      </trkpt>
      <trkpt lat="62.646193614215" lon="17.9048448108">
        <ele>49.8</ele>
        <time>2017-10-18T19:40:32Z</time>
      </trkpt>
      <trkpt lat="62.646141730254" lon="17.904963749961">
        <ele>49.6</ele>
        <time>2017-10-18T19:40:33Z</time>
      </trkpt>
      <trkpt lat="62.646097054727" lon="17.905068775168">
        <ele>49.2</ele>
        <time>2017-10-18T19:40:34Z</time>
      </trkpt>
      <trkpt lat="62.646052798295" lon="17.905173632737">
        <ele>49</ele>
        <time>2017-10-18T19:40:35Z</time>
      </trkpt>
      <trkpt lat="62.646004686189" lon="17.905296092296">
        <ele>48.6</ele>
        <time>2017-10-18T19:40:36Z</time>
      </trkpt>
      <trkpt lat="62.645960681214" lon="17.905412433068">
        <ele>48.4</ele>
        <time>2017-10-18T19:40:37Z</time>
      </trkpt>
      <trkpt lat="62.645918604076" lon="17.905530282582">
        <ele>48.2</ele>
        <time>2017-10-18T19:40:38Z</time>
      </trkpt>
      <trkpt lat="62.645875940205" lon="17.905631535934">
        <ele>48</ele>
        <time>2017-10-18T19:40:39Z</time>
      </trkpt>
      <trkpt lat="62.645828163375" lon="17.905744021032">
        <ele>47.8</ele>
        <time>2017-10-18T19:40:40Z</time>
      </trkpt>
      <trkpt lat="62.645786924427" lon="17.905847537497">
        <ele>47.6</ele>
        <time>2017-10-18T19:40:41Z</time>
      </trkpt>
      <trkpt lat="62.645743003271" lon="17.905962201889">
        <ele>47.6</ele>
        <time>2017-10-18T19:40:42Z</time>
      </trkpt>
      <trkpt lat="62.645698495382" lon="17.906068903476">
        <ele>47.4</ele>
        <time>2017-10-18T19:40:43Z</time>
      </trkpt>
      <trkpt lat="62.645658010805" lon="17.906171414113">
        <ele>47.2</ele>
        <time>2017-10-18T19:40:44Z</time>
      </trkpt>
      <trkpt lat="62.645613251459" lon="17.906282893383">
        <ele>46.8</ele>
        <time>2017-10-18T19:40:45Z</time>
      </trkpt>
      <trkpt lat="62.64557293452" lon="17.906385236382">
        <ele>46.6</ele>
        <time>2017-10-18T19:40:46Z</time>
      </trkpt>
      <trkpt lat="62.645537981997" lon="17.906472491961">
        <ele>46.6</ele>
        <time>2017-10-18T19:40:47Z</time>
      </trkpt>
      <trkpt lat="62.645498084153" lon="17.906570727829">
        <ele>46.4</ele>
        <time>2017-10-18T19:40:48Z</time>
      </trkpt>
      <trkpt lat="62.645466735847" lon="17.906652618992">
        <ele>46.2</ele>
        <time>2017-10-18T19:40:49Z</time>
      </trkpt>
      <trkpt lat="62.645434549351" lon="17.906741802408">
        <ele>46</ele>
        <time>2017-10-18T19:40:50Z</time>
      </trkpt>
      <trkpt lat="62.645405212701" lon="17.906818915888">
        <ele>45.8</ele>
        <time>2017-10-18T19:40:51Z</time>
      </trkpt>
      <trkpt lat="62.645379061173" lon="17.906892341332">
        <ele>45.6</ele>
        <time>2017-10-18T19:40:52Z</time>
      </trkpt>
      <trkpt lat="62.645355424215" lon="17.906960821455">
        <ele>45.6</ele>
        <time>2017-10-18T19:40:53Z</time>
      </trkpt>
      <trkpt lat="62.645329272687" lon="17.907032989614">
        <ele>45.6</ele>
        <time>2017-10-18T19:40:54Z</time>
      </trkpt>
      <trkpt lat="62.645299600761" lon="17.907114042587">
        <ele>45.4</ele>
        <time>2017-10-18T19:40:55Z</time>
      </trkpt>
      <trkpt lat="62.645271102301" lon="17.907191826619">
        <ele>45.4</ele>
        <time>2017-10-18T19:40:56Z</time>
      </trkpt>
      <trkpt lat="62.645242771479" lon="17.907270448841">
        <ele>45.4</ele>
        <time>2017-10-18T19:40:57Z</time>
      </trkpt>
      <trkpt lat="62.645214356838" lon="17.907349909253">
        <ele>45.2</ele>
        <time>2017-10-18T19:40:58Z</time>
      </trkpt>
      <trkpt lat="62.645188121491" lon="17.907425262534">
        <ele>45</ele>
        <time>2017-10-18T19:40:59Z</time>
      </trkpt>
      <trkpt lat="62.645155599719" lon="17.907521067651">
        <ele>44.8</ele>
        <time>2017-10-18T19:41:00Z</time>
      </trkpt>
      <trkpt lat="62.645120479558" lon="17.907598432588">
        <ele>44.8</ele>
        <time>2017-10-18T19:41:01Z</time>
      </trkpt>
      <trkpt lat="62.645084688845" lon="17.907680659027">
        <ele>44.6</ele>
        <time>2017-10-18T19:41:02Z</time>
      </trkpt>
      <trkpt lat="62.645050993607" lon="17.907763975113">
        <ele>44.4</ele>
        <time>2017-10-18T19:41:03Z</time>
      </trkpt>
      <trkpt lat="62.645019477663" lon="17.907845782457">
        <ele>44.4</ele>
        <time>2017-10-18T19:41:04Z</time>
      </trkpt>
      <trkpt lat="62.644980501828" lon="17.907946365257">
        <ele>44</ele>
        <time>2017-10-18T19:41:05Z</time>
      </trkpt>
      <trkpt lat="62.644942196545" lon="17.908053653577">
        <ele>43.8</ele>
        <time>2017-10-18T19:41:06Z</time>
      </trkpt>
      <trkpt lat="62.64491327899" lon="17.908138143129">
        <ele>43.6</ele>
        <time>2017-10-18T19:41:07Z</time>
      </trkpt>
      <trkpt lat="62.644871453309" lon="17.908276109203">
        <ele>43.4</ele>
        <time>2017-10-18T19:41:08Z</time>
      </trkpt>
      <trkpt lat="62.644841865202" lon="17.90838113441">
        <ele>43.2</ele>
        <time>2017-10-18T19:41:09Z</time>
      </trkpt>
      <trkpt lat="62.644814875484" lon="17.908503593969">
        <ele>42.8</ele>
        <time>2017-10-18T19:41:10Z</time>
      </trkpt>
      <trkpt lat="62.644793166363" lon="17.908615408515">
        <ele>42.6</ele>
        <time>2017-10-18T19:41:11Z</time>
      </trkpt>
      <trkpt lat="62.644772295432" lon="17.908742561938">
        <ele>42.4</ele>
        <time>2017-10-18T19:41:12Z</time>
      </trkpt>
      <trkpt lat="62.644753436157" lon="17.908855466131">
        <ele>42</ele>
        <time>2017-10-18T19:41:13Z</time>
      </trkpt>
      <trkpt lat="62.644742120592" lon="17.908965017564">
        <ele>41.6</ele>
        <time>2017-10-18T19:41:14Z</time>
      </trkpt>
      <trkpt lat="62.644729128647" lon="17.909081777431">
        <ele>41.4</ele>
        <time>2017-10-18T19:41:15Z</time>
      </trkpt>
      <trkpt lat="62.644716891073" lon="17.909195603633">
        <ele>41.2</ele>
        <time>2017-10-18T19:41:16Z</time>
      </trkpt>
      <trkpt lat="62.644705910784" lon="17.90930062884">
        <ele>41</ele>
        <time>2017-10-18T19:41:17Z</time>
      </trkpt>
      <trkpt lat="62.644690068993" lon="17.909425100055">
        <ele>40.8</ele>
        <time>2017-10-18T19:41:18Z</time>
      </trkpt>
      <trkpt lat="62.644675065392" lon="17.909539261533">
        <ele>40.6</ele>
        <time>2017-10-18T19:41:19Z</time>
      </trkpt>
      <trkpt lat="62.644664839474" lon="17.909674126304">
        <ele>40.2</ele>
        <time>2017-10-18T19:41:20Z</time>
      </trkpt>
      <trkpt lat="62.644653691547" lon="17.909801615003">
        <ele>40</ele>
        <time>2017-10-18T19:41:21Z</time>
      </trkpt>
      <trkpt lat="62.644638185032" lon="17.909926170037">
        <ele>39.8</ele>
        <time>2017-10-18T19:41:22Z</time>
      </trkpt>
      <trkpt lat="62.644619744852" lon="17.910041840257">
        <ele>39.4</ele>
        <time>2017-10-18T19:41:23Z</time>
      </trkpt>
      <trkpt lat="62.644599628292" lon="17.910164635092">
        <ele>39</ele>
        <time>2017-10-18T19:41:24Z</time>
      </trkpt>
      <trkpt lat="62.644571548927" lon="17.910282736063">
        <ele>38.6</ele>
        <time>2017-10-18T19:41:25Z</time>
      </trkpt>
      <trkpt lat="62.644535590576" lon="17.910375356058">
        <ele>38.2</ele>
        <time>2017-10-18T19:41:26Z</time>
      </trkpt>
      <trkpt lat="62.644485885909" lon="17.910437717394">
        <ele>37.8</ele>
        <time>2017-10-18T19:41:27Z</time>
      </trkpt>
      <trkpt lat="62.644430062455" lon="17.910457582497">
        <ele>37.2</ele>
        <time>2017-10-18T19:41:28Z</time>
      </trkpt>
      <trkpt lat="62.644385051652" lon="17.910430760417">
        <ele>37</ele>
        <time>2017-10-18T19:41:29Z</time>
      </trkpt>
      <trkpt lat="62.644337023365" lon="17.910370829832">
        <ele>36.6</ele>
        <time>2017-10-18T19:41:30Z</time>
      </trkpt>
      <trkpt lat="62.64430223848" lon="17.910311402161">
        <ele>36.2</ele>
        <time>2017-10-18T19:41:31Z</time>
      </trkpt>
      <trkpt lat="62.644269716708" lon="17.910266139901">
        <ele>35.8</ele>
        <time>2017-10-18T19:41:32Z</time>
      </trkpt>
      <trkpt lat="62.644223867715" lon="17.910224146582">
        <ele>35.6</ele>
        <time>2017-10-18T19:41:33Z</time>
      </trkpt>
      <trkpt lat="62.644180533292" lon="17.910217692519">
        <ele>35.4</ele>
        <time>2017-10-18T19:41:34Z</time>
      </trkpt>
      <trkpt lat="62.644136779774" lon="17.910246023341">
        <ele>35.2</ele>
        <time>2017-10-18T19:41:35Z</time>
      </trkpt>
      <trkpt lat="62.644095876102" lon="17.91031064779">
        <ele>35</ele>
        <time>2017-10-18T19:41:36Z</time>
      </trkpt>
      <trkpt lat="62.644059079561" lon="17.910379714646">
        <ele>34.8</ele>
        <time>2017-10-18T19:41:37Z</time>
      </trkpt>
      <trkpt lat="62.644026725427" lon="17.910452804814">
        <ele>34.8</ele>
        <time>2017-10-18T19:41:38Z</time>
      </trkpt>
      <trkpt lat="62.643995796216" lon="17.910520279109">
        <ele>34.8</ele>
        <time>2017-10-18T19:41:39Z</time>
      </trkpt>
      <trkpt lat="62.643961849521" lon="17.910596386761">
        <ele>34.6</ele>
        <time>2017-10-18T19:41:40Z</time>
      </trkpt>
      <trkpt lat="62.643930836491" lon="17.910671404766">
        <ele>34.8</ele>
        <time>2017-10-18T19:41:41Z</time>
      </trkpt>
      <trkpt lat="62.643895967787" lon="17.910754637033">
        <ele>34.8</ele>
        <time>2017-10-18T19:41:42Z</time>
      </trkpt>
      <trkpt lat="62.643860596169" lon="17.910835941463">
        <ele>34.8</ele>
        <time>2017-10-18T19:41:43Z</time>
      </trkpt>
      <trkpt lat="62.643825140732" lon="17.910910121278">
        <ele>34.8</ele>
        <time>2017-10-18T19:41:44Z</time>
      </trkpt>
      <trkpt lat="62.643785326707" lon="17.911001567807">
        <ele>34.6</ele>
        <time>2017-10-18T19:41:45Z</time>
      </trkpt>
      <trkpt lat="62.64374400394" lon="17.91109184087">
        <ele>34.6</ele>
        <time>2017-10-18T19:41:46Z</time>
      </trkpt>
      <trkpt lat="62.643706369209" lon="17.911167194151">
        <ele>34.4</ele>
        <time>2017-10-18T19:41:47Z</time>
      </trkpt>
      <trkpt lat="62.6436635377" lon="17.911257131938">
        <ele>34.4</ele>
        <time>2017-10-18T19:41:48Z</time>
      </trkpt>
      <trkpt lat="62.643619700363" lon="17.911359894032">
        <ele>34.2</ele>
        <time>2017-10-18T19:41:49Z</time>
      </trkpt>
      <trkpt lat="62.643571504438" lon="17.911456872615">
        <ele>34</ele>
        <time>2017-10-18T19:41:50Z</time>
      </trkpt>
      <trkpt lat="62.64352523635" lon="17.911547061859">
        <ele>33.8</ele>
        <time>2017-10-18T19:41:51Z</time>
      </trkpt>
      <trkpt lat="62.643477208063" lon="17.911634820352">
        <ele>33.6</ele>
        <time>2017-10-18T19:41:52Z</time>
      </trkpt>
      <trkpt lat="62.643429934147" lon="17.911717549705">
        <ele>33.6</ele>
        <time>2017-10-18T19:41:53Z</time>
      </trkpt>
      <trkpt lat="62.643378636919" lon="17.911805308198">
        <ele>33.4</ele>
        <time>2017-10-18T19:41:54Z</time>
      </trkpt>
      <trkpt lat="62.643322142913" lon="17.911897844374">
        <ele>33.2</ele>
        <time>2017-10-18T19:41:55Z</time>
      </trkpt>
      <trkpt lat="62.643271097142" lon="17.91199624788">
        <ele>33</ele>
        <time>2017-10-18T19:41:56Z</time>
      </trkpt>
      <trkpt lat="62.64322097338" lon="17.912093897015">
        <ele>32.8</ele>
        <time>2017-10-18T19:41:57Z</time>
      </trkpt>
      <trkpt lat="62.643169257057" lon="17.912193725444">
        <ele>32.8</ele>
        <time>2017-10-18T19:41:58Z</time>
      </trkpt>
      <trkpt lat="62.643123072788" lon="17.912272180028">
        <ele>32.4</ele>
        <time>2017-10-18T19:41:59Z</time>
      </trkpt>
      <trkpt lat="62.643060292357" lon="17.912372343733">
        <ele>32.2</ele>
        <time>2017-10-18T19:42:00Z</time>
      </trkpt>
      <trkpt lat="62.643004217446" lon="17.912462616796">
        <ele>32</ele>
        <time>2017-10-18T19:42:01Z</time>
      </trkpt>
      <trkpt lat="62.642949483639" lon="17.912553225135">
        <ele>31.8</ele>
        <time>2017-10-18T19:42:02Z</time>
      </trkpt>
      <trkpt lat="62.642891816167" lon="17.912639642524">
        <ele>31.4</ele>
        <time>2017-10-18T19:42:03Z</time>
      </trkpt>
      <trkpt lat="62.642839513111" lon="17.912725305542">
        <ele>31.2</ele>
        <time>2017-10-18T19:42:04Z</time>
      </trkpt>
      <trkpt lat="62.642782097096" lon="17.912819685736">
        <ele>31</ele>
        <time>2017-10-18T19:42:05Z</time>
      </trkpt>
      <trkpt lat="62.642718981389" lon="17.912916831957">
        <ele>30.8</ele>
        <time>2017-10-18T19:42:06Z</time>
      </trkpt>
      <trkpt lat="62.642659302261" lon="17.913009451952">
        <ele>30.6</ele>
        <time>2017-10-18T19:42:07Z</time>
      </trkpt>
      <trkpt lat="62.642597779115" lon="17.913108693648">
        <ele>30.4</ele>
        <time>2017-10-18T19:42:08Z</time>
      </trkpt>
      <trkpt lat="62.642538351444" lon="17.913200223996">
        <ele>30</ele>
        <time>2017-10-18T19:42:09Z</time>
      </trkpt>
      <trkpt lat="62.642479342868" lon="17.913288150127">
        <ele>29.8</ele>
        <time>2017-10-18T19:42:10Z</time>
      </trkpt>
      <trkpt lat="62.642423184138" lon="17.913376076258">
        <ele>29.6</ele>
        <time>2017-10-18T19:42:11Z</time>
      </trkpt>
      <trkpt lat="62.642356128938" lon="17.913485962967">
        <ele>29.2</ele>
        <time>2017-10-18T19:42:12Z</time>
      </trkpt>
      <trkpt lat="62.642292342679" lon="17.913582690093">
        <ele>29</ele>
        <time>2017-10-18T19:42:13Z</time>
      </trkpt>
      <trkpt lat="62.64222771823" lon="17.913681512694">
        <ele>29</ele>
        <time>2017-10-18T19:42:14Z</time>
      </trkpt>
      <trkpt lat="62.642161668858" lon="17.913782849865">
        <ele>28.6</ele>
        <time>2017-10-18T19:42:15Z</time>
      </trkpt>
      <trkpt lat="62.642097966418" lon="17.913884941407">
        <ele>28.4</ele>
        <time>2017-10-18T19:42:16Z</time>
      </trkpt>
      <trkpt lat="62.642033174331" lon="17.913994241383">
        <ele>28</ele>
        <time>2017-10-18T19:42:17Z</time>
      </trkpt>
      <trkpt lat="62.641967544054" lon="17.914102703169">
        <ele>27.6</ele>
        <time>2017-10-18T19:42:18Z</time>
      </trkpt>
      <trkpt lat="62.64190082413" lon="17.914206890186">
        <ele>27.4</ele>
        <time>2017-10-18T19:42:19Z</time>
      </trkpt>
      <trkpt lat="62.641828572152" lon="17.914321470759">
        <ele>27.2</ele>
        <time>2017-10-18T19:42:20Z</time>
      </trkpt>
      <trkpt lat="62.641757074545" lon="17.914434123495">
        <ele>27</ele>
        <time>2017-10-18T19:42:21Z</time>
      </trkpt>
      <trkpt lat="62.641689097336" lon="17.914543926385">
        <ele>26.8</ele>
        <time>2017-10-18T19:42:22Z</time>
      </trkpt>
      <trkpt lat="62.641626149267" lon="17.914653645456">
        <ele>26.6</ele>
        <time>2017-10-18T19:42:23Z</time>
      </trkpt>
      <trkpt lat="62.641564626121" lon="17.914760849957">
        <ele>26.2</ele>
        <time>2017-10-18T19:42:24Z</time>
      </trkpt>
      <trkpt lat="62.641496313636" lon="17.914888087199">
        <ele>26</ele>
        <time>2017-10-18T19:42:25Z</time>
      </trkpt>
      <trkpt lat="62.641432695015" lon="17.915019347753">
        <ele>25.8</ele>
        <time>2017-10-18T19:42:26Z</time>
      </trkpt>
      <trkpt lat="62.641373267344" lon="17.915143735149">
        <ele>25.6</ele>
        <time>2017-10-18T19:42:27Z</time>
      </trkpt>
      <trkpt lat="62.641321299564" lon="17.91526770345">
        <ele>25.4</ele>
        <time>2017-10-18T19:42:28Z</time>
      </trkpt>
      <trkpt lat="62.641270924345" lon="17.915386055878">
        <ele>25.2</ele>
        <time>2017-10-18T19:42:29Z</time>
      </trkpt>
      <trkpt lat="62.641206383715" lon="17.915537181535">
        <ele>25</ele>
        <time>2017-10-18T19:42:30Z</time>
      </trkpt>
      <trkpt lat="62.64115148227" lon="17.915668861184">
        <ele>24.6</ele>
        <time>2017-10-18T19:42:31Z</time>
      </trkpt>
      <trkpt lat="62.641097502834" lon="17.915797271892">
        <ele>24.4</ele>
        <time>2017-10-18T19:42:32Z</time>
      </trkpt>
      <trkpt lat="62.641043942493" lon="17.915927610437">
        <ele>24</ele>
        <time>2017-10-18T19:42:33Z</time>
      </trkpt>
      <trkpt lat="62.640995746568" lon="17.916050069996">
        <ele>23.6</ele>
        <time>2017-10-18T19:42:34Z</time>
      </trkpt>
      <trkpt lat="62.640947047729" lon="17.916170266442">
        <ele>23.4</ele>
        <time>2017-10-18T19:42:35Z</time>
      </trkpt>
      <trkpt lat="62.64089499613" lon="17.916299012426">
        <ele>22.8</ele>
        <time>2017-10-18T19:42:36Z</time>
      </trkpt>
      <trkpt lat="62.6408472193" lon="17.916421974899">
        <ele>22.6</ele>
        <time>2017-10-18T19:42:37Z</time>
      </trkpt>
      <trkpt lat="62.640796676443" lon="17.91654678139">
        <ele>22.2</ele>
        <time>2017-10-18T19:42:38Z</time>
      </trkpt>
      <trkpt lat="62.64074831288" lon="17.91666496618">
        <ele>22</ele>
        <time>2017-10-18T19:42:39Z</time>
      </trkpt>
      <trkpt lat="62.640695171634" lon="17.916792203422">
        <ele>21.6</ele>
        <time>2017-10-18T19:42:40Z</time>
      </trkpt>
      <trkpt lat="62.640653429772" lon="17.916895971344">
        <ele>21.4</ele>
        <time>2017-10-18T19:42:41Z</time>
      </trkpt>
      <trkpt lat="62.640599617974" lon="17.917013904677">
        <ele>21.2</ele>
        <time>2017-10-18T19:42:42Z</time>
      </trkpt>
      <trkpt lat="62.640550667678" lon="17.917119097522">
        <ele>21</ele>
        <time>2017-10-18T19:42:43Z</time>
      </trkpt>
      <trkpt lat="62.640503980495" lon="17.917202665065">
        <ele>20.8</ele>
        <time>2017-10-18T19:42:44Z</time>
      </trkpt>
      <trkpt lat="62.640441702978" lon="17.917275839052">
        <ele>20.6</ele>
        <time>2017-10-18T19:42:45Z</time>
      </trkpt>
      <trkpt lat="62.640379760737" lon="17.917305008064">
        <ele>20.6</ele>
        <time>2017-10-18T19:42:46Z</time>
      </trkpt>
      <trkpt lat="62.640323853464" lon="17.917290758834">
        <ele>20.4</ele>
        <time>2017-10-18T19:42:47Z</time>
      </trkpt>
      <trkpt lat="62.640261995042" lon="17.917243820194">
        <ele>20.4</ele>
        <time>2017-10-18T19:42:48Z</time>
      </trkpt>
      <trkpt lat="62.640214469669" lon="17.917187745283">
        <ele>20.6</ele>
        <time>2017-10-18T19:42:49Z</time>
      </trkpt>
      <trkpt lat="62.640160490233" lon="17.917116331495">
        <ele>20.6</ele>
        <time>2017-10-18T19:42:50Z</time>
      </trkpt>
      <trkpt lat="62.640111623756" lon="17.917036619626">
        <ele>21</ele>
        <time>2017-10-18T19:42:51Z</time>
      </trkpt>
      <trkpt lat="62.640066277677" lon="17.916959925241">
        <ele>21.2</ele>
        <time>2017-10-18T19:42:52Z</time>
      </trkpt>
      <trkpt lat="62.640025960738" lon="17.916879375182">
        <ele>21.4</ele>
        <time>2017-10-18T19:42:53Z</time>
      </trkpt>
      <trkpt lat="62.639982458677" lon="17.916795556182">
        <ele>21.8</ele>
        <time>2017-10-18T19:42:54Z</time>
      </trkpt>
      <trkpt lat="62.639934765666" lon="17.916702014178">
        <ele>22</ele>
        <time>2017-10-18T19:42:55Z</time>
      </trkpt>
      <trkpt lat="62.639888162302" lon="17.916617943721">
        <ele>22.2</ele>
        <time>2017-10-18T19:42:56Z</time>
      </trkpt>
      <trkpt lat="62.639842480947" lon="17.91653839949">
        <ele>22.4</ele>
        <time>2017-10-18T19:42:57Z</time>
      </trkpt>
      <trkpt lat="62.639799817076" lon="17.916450808635">
        <ele>22.6</ele>
        <time>2017-10-18T19:42:58Z</time>
      </trkpt>
      <trkpt lat="62.639762685259" lon="17.916373359879">
        <ele>23</ele>
        <time>2017-10-18T19:42:59Z</time>
      </trkpt>
      <trkpt lat="62.639717506818" lon="17.916288115956">
        <ele>23.2</ele>
        <time>2017-10-18T19:43:00Z</time>
      </trkpt>
      <trkpt lat="62.639672244558" lon="17.916178480704">
        <ele>23.4</ele>
        <time>2017-10-18T19:43:01Z</time>
      </trkpt>
      <trkpt lat="62.639632765809" lon="17.916088207641">
        <ele>23.8</ele>
        <time>2017-10-18T19:43:02Z</time>
      </trkpt>
      <trkpt lat="62.639596807458" lon="17.915997096388">
        <ele>24</ele>
        <time>2017-10-18T19:43:03Z</time>
      </trkpt>
      <trkpt lat="62.639552886302" lon="17.915938842183">
        <ele>23.8</ele>
        <time>2017-10-18T19:43:04Z</time>
      </trkpt>
      <trkpt lat="62.639496308477" lon="17.915902045642">
        <ele>23.8</ele>
        <time>2017-10-18T19:43:05Z</time>
      </trkpt>
      <trkpt lat="62.639428834182" lon="17.91589802233">
        <ele>23.6</ele>
        <time>2017-10-18T19:43:06Z</time>
      </trkpt>
      <trkpt lat="62.639370915253" lon="17.915923084211">
        <ele>23.4</ele>
        <time>2017-10-18T19:43:07Z</time>
      </trkpt>
      <trkpt lat="62.639307631908" lon="17.915964323159">
        <ele>23.4</ele>
        <time>2017-10-18T19:43:08Z</time>
      </trkpt>
      <trkpt lat="62.639252646644" lon="17.916012770541">
        <ele>23.4</ele>
        <time>2017-10-18T19:43:09Z</time>
      </trkpt>
      <trkpt lat="62.639188357471" lon="17.916068929271">
        <ele>23.4</ele>
        <time>2017-10-18T19:43:10Z</time>
      </trkpt>
      <trkpt lat="62.639130522361" lon="17.916112766608">
        <ele>23.2</ele>
        <time>2017-10-18T19:43:11Z</time>
      </trkpt>
      <trkpt lat="62.639063718618" lon="17.916156855402">
        <ele>23</ele>
        <time>2017-10-18T19:43:12Z</time>
      </trkpt>
      <trkpt lat="62.639002195472" lon="17.916195244504">
        <ele>23</ele>
        <time>2017-10-18T19:43:13Z</time>
      </trkpt>
      <trkpt lat="62.638946707294" lon="17.916229861751">
        <ele>22.8</ele>
        <time>2017-10-18T19:43:14Z</time>
      </trkpt>
      <trkpt lat="62.638881160836" lon="17.916267747939">
        <ele>22.6</ele>
        <time>2017-10-18T19:43:15Z</time>
      </trkpt>
      <trkpt lat="62.638824247735" lon="17.91630873543">
        <ele>22.6</ele>
        <time>2017-10-18T19:43:16Z</time>
      </trkpt>
      <trkpt lat="62.638768424281" lon="17.916347459808">
        <ele>22.4</ele>
        <time>2017-10-18T19:43:17Z</time>
      </trkpt>
      <trkpt lat="62.638698603054" lon="17.91638417253">
        <ele>22.2</ele>
        <time>2017-10-18T19:43:18Z</time>
      </trkpt>
      <trkpt lat="62.63863942684" lon="17.916409821144">
        <ele>22.2</ele>
        <time>2017-10-18T19:43:19Z</time>
      </trkpt>
      <trkpt lat="62.638572036364" lon="17.916442426735">
        <ele>22.2</ele>
        <time>2017-10-18T19:43:20Z</time>
      </trkpt>
      <trkpt lat="62.638504562069" lon="17.916472936851">
        <ele>22.2</ele>
        <time>2017-10-18T19:43:21Z</time>
      </trkpt>
      <trkpt lat="62.638440859629" lon="17.916505961537">
        <ele>22.2</ele>
        <time>2017-10-18T19:43:22Z</time>
      </trkpt>
      <trkpt lat="62.638379336483" lon="17.916538986223">
        <ele>22.2</ele>
        <time>2017-10-18T19:43:23Z</time>
      </trkpt>
      <trkpt lat="62.638311862188" lon="17.91657192709">
        <ele>22.2</ele>
        <time>2017-10-18T19:43:24Z</time>
      </trkpt>
      <trkpt lat="62.638237850011" lon="17.916603443034">
        <ele>22.2</ele>
        <time>2017-10-18T19:43:25Z</time>
      </trkpt>
      <trkpt lat="62.638166603861" lon="17.916648370018">
        <ele>22</ele>
        <time>2017-10-18T19:43:26Z</time>
      </trkpt>
      <trkpt lat="62.638090244752" lon="17.916684328369">
        <ele>22.2</ele>
        <time>2017-10-18T19:43:27Z</time>
      </trkpt>
      <trkpt lat="62.638015394385" lon="17.916720705815">
        <ele>22</ele>
        <time>2017-10-18T19:43:28Z</time>
      </trkpt>
      <trkpt lat="62.637954960886" lon="17.91674794699">
        <ele>22</ele>
        <time>2017-10-18T19:43:29Z</time>
      </trkpt>
      <trkpt lat="62.637870303696" lon="17.916783570065">
        <ele>22</ele>
        <time>2017-10-18T19:43:30Z</time>
      </trkpt>
      <trkpt lat="62.637796710614" lon="17.916823719366">
        <ele>21.8</ele>
        <time>2017-10-18T19:43:31Z</time>
      </trkpt>
      <trkpt lat="62.637720686781" lon="17.916854816215">
        <ele>21.6</ele>
        <time>2017-10-18T19:43:32Z</time>
      </trkpt>
      <trkpt lat="62.637644411491" lon="17.916883482313">
        <ele>21.4</ele>
        <time>2017-10-18T19:43:33Z</time>
      </trkpt>
      <trkpt lat="62.637574338807" lon="17.91691055585">
        <ele>21.2</ele>
        <time>2017-10-18T19:43:34Z</time>
      </trkpt>
      <trkpt lat="62.637499153164" lon="17.916935953007">
        <ele>21</ele>
        <time>2017-10-18T19:43:35Z</time>
      </trkpt>
      <trkpt lat="62.63740896392" lon="17.916971492263">
        <ele>20.8</ele>
        <time>2017-10-18T19:43:36Z</time>
      </trkpt>
      <trkpt lat="62.637325228739" lon="17.917005690415">
        <ele>20.4</ele>
        <time>2017-10-18T19:43:37Z</time>
      </trkpt>
      <trkpt lat="62.637240655368" lon="17.917033266866">
        <ele>20.2</ele>
        <time>2017-10-18T19:43:38Z</time>
      </trkpt>
      <trkpt lat="62.63715750692" lon="17.917060843317">
        <ele>19.8</ele>
        <time>2017-10-18T19:43:39Z</time>
      </trkpt>
      <trkpt lat="62.637065054563" lon="17.917091688709">
        <ele>19.2</ele>
        <time>2017-10-18T19:43:40Z</time>
      </trkpt>
      <trkpt lat="62.636980816468" lon="17.917119600436">
        <ele>18.8</ele>
        <time>2017-10-18T19:43:41Z</time>
      </trkpt>
      <trkpt lat="62.636883921704" lon="17.917153714769">
        <ele>18.2</ele>
        <time>2017-10-18T19:43:42Z</time>
      </trkpt>
      <trkpt lat="62.636796498487" lon="17.917192439147">
        <ele>17.6</ele>
        <time>2017-10-18T19:43:43Z</time>
      </trkpt>
      <trkpt lat="62.636714188229" lon="17.917233761914">
        <ele>17</ele>
        <time>2017-10-18T19:43:44Z</time>
      </trkpt>
      <trkpt lat="62.636621652053" lon="17.917290842653">
        <ele>16.4</ele>
        <time>2017-10-18T19:43:45Z</time>
      </trkpt>
      <trkpt lat="62.636542946012" lon="17.917360999156">
        <ele>16</ele>
        <time>2017-10-18T19:43:46Z</time>
      </trkpt>
      <trkpt lat="62.63646851474" lon="17.917442387405">
        <ele>15.4</ele>
        <time>2017-10-18T19:43:47Z</time>
      </trkpt>
      <trkpt lat="62.636399447884" lon="17.917533917753">
        <ele>15</ele>
        <time>2017-10-18T19:43:48Z</time>
      </trkpt>
      <trkpt lat="62.636339182023" lon="17.917628633223">
        <ele>14.8</ele>
        <time>2017-10-18T19:43:49Z</time>
      </trkpt>
      <trkpt lat="62.636272462099" lon="17.917738268475">
        <ele>14.4</ele>
        <time>2017-10-18T19:43:50Z</time>
      </trkpt>
      <trkpt lat="62.636213118247" lon="17.917813705575">
        <ele>14.2</ele>
        <time>2017-10-18T19:43:51Z</time>
      </trkpt>
      <trkpt lat="62.63614245883" lon="17.917865002803">
        <ele>14</ele>
        <time>2017-10-18T19:43:52Z</time>
      </trkpt>
      <trkpt lat="62.636077499105" lon="17.917859722206">
        <ele>14</ele>
        <time>2017-10-18T19:43:53Z</time>
      </trkpt>
      <trkpt lat="62.636019161081" lon="17.91780909553">
        <ele>13.8</ele>
        <time>2017-10-18T19:43:54Z</time>
      </trkpt>
      <trkpt lat="62.635965097826" lon="17.917733071697">
        <ele>13.8</ele>
        <time>2017-10-18T19:43:55Z</time>
      </trkpt>
      <trkpt lat="62.635919081195" lon="17.917653527466">
        <ele>13.8</ele>
        <time>2017-10-18T19:43:56Z</time>
      </trkpt>
      <trkpt lat="62.635871220546" lon="17.917573899416">
        <ele>14</ele>
        <time>2017-10-18T19:43:57Z</time>
      </trkpt>
      <trkpt lat="62.635824701001" lon="17.917499384325">
        <ele>14.6</ele>
        <time>2017-10-18T19:43:58Z</time>
      </trkpt>
      <trkpt lat="62.635785976623" lon="17.917437861179">
        <ele>14.8</ele>
        <time>2017-10-18T19:43:59Z</time>
      </trkpt>
      <trkpt lat="62.635734595576" lon="17.917352533437">
        <ele>15.4</ele>
        <time>2017-10-18T19:44:00Z</time>
      </trkpt>
      <trkpt lat="62.635690171506" lon="17.917279191812">
        <ele>15.8</ele>
        <time>2017-10-18T19:44:01Z</time>
      </trkpt>
      <trkpt lat="62.635645076884" lon="17.917212974802">
        <ele>16.2</ele>
        <time>2017-10-18T19:44:02Z</time>
      </trkpt>
      <trkpt lat="62.635600401357" lon="17.917147093068">
        <ele>16.6</ele>
        <time>2017-10-18T19:44:03Z</time>
      </trkpt>
      <trkpt lat="62.635559246228" lon="17.917085402284">
        <ele>16.8</ele>
        <time>2017-10-18T19:44:04Z</time>
      </trkpt>
      <trkpt lat="62.635516917633" lon="17.917023795319">
        <ele>17.2</ele>
        <time>2017-10-18T19:44:05Z</time>
      </trkpt>
      <trkpt lat="62.635480959282" lon="17.916935030998">
        <ele>17.6</ele>
        <time>2017-10-18T19:44:06Z</time>
      </trkpt>
      <trkpt lat="62.635475343409" lon="17.916826569212">
        <ele>18</ele>
        <time>2017-10-18T19:44:07Z</time>
      </trkpt>
      <trkpt lat="62.635486910431" lon="17.916750713017">
        <ele>18.2</ele>
        <time>2017-10-18T19:44:08Z</time>
      </trkpt>
      <trkpt lat="62.635509038647" lon="17.916649208208">
        <ele>18.6</ele>
        <time>2017-10-18T19:44:09Z</time>
      </trkpt>
      <trkpt lat="62.635533262338" lon="17.91656438338">
        <ele>19</ele>
        <time>2017-10-18T19:44:10Z</time>
      </trkpt>
      <trkpt lat="62.635553797993" lon="17.916482995131">
        <ele>19.4</ele>
        <time>2017-10-18T19:44:11Z</time>
      </trkpt>
      <trkpt lat="62.635580368616" lon="17.916399092312">
        <ele>19.8</ele>
        <time>2017-10-18T19:44:12Z</time>
      </trkpt>
      <trkpt lat="62.635605011402" lon="17.916323487574">
        <ele>20.2</ele>
        <time>2017-10-18T19:44:13Z</time>
      </trkpt>
      <trkpt lat="62.635622864849" lon="17.916248721026">
        <ele>20.4</ele>
        <time>2017-10-18T19:44:14Z</time>
      </trkpt>
      <trkpt lat="62.635647675273" lon="17.916168003329">
        <ele>20.8</ele>
        <time>2017-10-18T19:44:15Z</time>
      </trkpt>
      <trkpt lat="62.635673491525" lon="17.916100612853">
        <ele>21</ele>
        <time>2017-10-18T19:44:16Z</time>
      </trkpt>
      <trkpt lat="62.635692686076" lon="17.916043951209">
        <ele>21</ele>
        <time>2017-10-18T19:44:17Z</time>
      </trkpt>
      <trkpt lat="62.63571498193" lon="17.915968011195">
        <ele>21.4</ele>
        <time>2017-10-18T19:44:18Z</time>
      </trkpt>
      <trkpt lat="62.635733925024" lon="17.915907074782">
        <ele>21.6</ele>
        <time>2017-10-18T19:44:19Z</time>
      </trkpt>
      <trkpt lat="62.63575689143" lon="17.915842869428">
        <ele>21.8</ele>
        <time>2017-10-18T19:44:20Z</time>
      </trkpt>
      <trkpt lat="62.635770889203" lon="17.915777993522">
        <ele>22</ele>
        <time>2017-10-18T19:44:21Z</time>
      </trkpt>
      <trkpt lat="62.635781869492" lon="17.915710770684">
        <ele>22.4</ele>
        <time>2017-10-18T19:44:22Z</time>
      </trkpt>
      <trkpt lat="62.635791005763" lon="17.915656707429">
        <ele>22.6</ele>
        <time>2017-10-18T19:44:23Z</time>
      </trkpt>
      <trkpt lat="62.635798381835" lon="17.915608679142">
        <ele>22.8</ele>
        <time>2017-10-18T19:44:24Z</time>
      </trkpt>
      <trkpt lat="62.63580634464" lon="17.915563500701">
        <ele>22.8</ele>
        <time>2017-10-18T19:44:25Z</time>
      </trkpt>
      <trkpt lat="62.635813133979" lon="17.915529721644">
        <ele>23</ele>
        <time>2017-10-18T19:44:26Z</time>
      </trkpt>
      <trkpt lat="62.635811960513" lon="17.91551832226">
        <ele>23</ele>
        <time>2017-10-18T19:44:27Z</time>
      </trkpt>
      <trkpt lat="62.635809781219" lon="17.915526033608">
        <ele>23</ele>
        <time>2017-10-18T19:44:28Z</time>
      </trkpt>
      <trkpt lat="62.635810200314" lon="17.915523099943">
        <ele>23</ele>
        <time>2017-10-18T19:44:29Z</time>
      </trkpt>
      <trkpt lat="62.635799806758" lon="17.91548479466">
        <ele>23.2</ele>
        <time>2017-10-18T19:44:31Z</time>
      </trkpt>
      <trkpt lat="62.635794945256" lon="17.915468114679">
        <ele>23.2</ele>
        <time>2017-10-18T19:44:32Z</time>
      </trkpt>
      <trkpt lat="62.6357929336" lon="17.915440454409">
        <ele>23.4</ele>
        <time>2017-10-18T19:44:33Z</time>
      </trkpt>
      <trkpt lat="62.635803913889" lon="17.915428133016">
        <ele>23.4</ele>
        <time>2017-10-18T19:44:34Z</time>
      </trkpt>
      <trkpt lat="62.635808356296" lon="17.915426791912">
        <ele>23.6</ele>
        <time>2017-10-18T19:44:35Z</time>
      </trkpt>
      <trkpt lat="62.635821599698" lon="17.915418410012">
        <ele>23.6</ele>
        <time>2017-10-18T19:44:36Z</time>
      </trkpt>
      <trkpt lat="62.635829562503" lon="17.915409609017">
        <ele>23.8</ele>
        <time>2017-10-18T19:44:37Z</time>
      </trkpt>
      <trkpt lat="62.635831825616" lon="17.915399550737">
        <ele>24</ele>
        <time>2017-10-18T19:44:38Z</time>
      </trkpt>
      <trkpt lat="62.635832496168" lon="17.915412123587">
        <ele>24</ele>
        <time>2017-10-18T19:44:39Z</time>
      </trkpt>
    </trkseg>
  </trk>
</gpx>